<?xml version="1.0" encoding="UTF-8" standalone="no" ?>
<gpx xmlns="http://www.topografix.com/GPX/1/1" xmlns:xsi="http://www.w3.org/2001/XMLSchema-instance" xsi:schemaLocation="http://www.topografix.com/GPX/1/1 http://www.topografix.com/GPX/1/1/gpx.xsd" version="1.1" creator="VisuGPX - https://www.visugpx.com">
  <metadata>
    <name>Tour du Jura 1 ère journée</name>
    <desc><![CDATA[Première journée du TJS, plutôt tranquille]]></desc>
  </metadata>
  <trk>
    <name><![CDATA[Tour du Jura 1 ère journée]]></name>
    <trkseg>
      <trkpt lat="46.67279" lon="5.55081">
        <ele>288.6</ele>
        <time>2023-08-30T09:41:56Z</time>
      </trkpt>
      <trkpt lat="46.67279" lon="5.55081">
        <ele>288.8</ele>
        <time>2023-08-30T09:41:57Z</time>
      </trkpt>
      <trkpt lat="46.67276" lon="5.5508">
        <ele>288.8</ele>
        <time>2023-08-30T09:41:58Z</time>
      </trkpt>
      <trkpt lat="46.67273" lon="5.55078">
        <ele>288.8</ele>
        <time>2023-08-30T09:41:59Z</time>
      </trkpt>
      <trkpt lat="46.6727" lon="5.55077">
        <ele>289.2</ele>
        <time>2023-08-30T09:42:00Z</time>
      </trkpt>
      <trkpt lat="46.67268" lon="5.55075">
        <ele>289.2</ele>
        <time>2023-08-30T09:42:01Z</time>
      </trkpt>
      <trkpt lat="46.67265" lon="5.55074">
        <ele>289.4</ele>
        <time>2023-08-30T09:42:02Z</time>
      </trkpt>
      <trkpt lat="46.67262" lon="5.55073">
        <ele>289.4</ele>
        <time>2023-08-30T09:42:03Z</time>
      </trkpt>
      <trkpt lat="46.6726" lon="5.55071">
        <ele>289.4</ele>
        <time>2023-08-30T09:42:04Z</time>
      </trkpt>
      <trkpt lat="46.67257" lon="5.5507">
        <ele>289.8</ele>
        <time>2023-08-30T09:42:05Z</time>
      </trkpt>
      <trkpt lat="46.67255" lon="5.55069">
        <ele>289.8</ele>
        <time>2023-08-30T09:42:06Z</time>
      </trkpt>
      <trkpt lat="46.67252" lon="5.55068">
        <ele>289.8</ele>
        <time>2023-08-30T09:42:07Z</time>
      </trkpt>
      <trkpt lat="46.67249" lon="5.55067">
        <ele>289.8</ele>
        <time>2023-08-30T09:42:08Z</time>
      </trkpt>
      <trkpt lat="46.67246" lon="5.55065">
        <ele>290.2</ele>
        <time>2023-08-30T09:42:09Z</time>
      </trkpt>
      <trkpt lat="46.67243" lon="5.55064">
        <ele>290</ele>
        <time>2023-08-30T09:42:10Z</time>
      </trkpt>
      <trkpt lat="46.6724" lon="5.55062">
        <ele>290</ele>
        <time>2023-08-30T09:42:11Z</time>
      </trkpt>
      <trkpt lat="46.67237" lon="5.5506">
        <ele>290</ele>
        <time>2023-08-30T09:42:12Z</time>
      </trkpt>
      <trkpt lat="46.67235" lon="5.55059">
        <ele>290</ele>
        <time>2023-08-30T09:42:13Z</time>
      </trkpt>
      <trkpt lat="46.67232" lon="5.55058">
        <ele>290.2</ele>
        <time>2023-08-30T09:42:14Z</time>
      </trkpt>
      <trkpt lat="46.67229" lon="5.55056">
        <ele>290.2</ele>
        <time>2023-08-30T09:42:15Z</time>
      </trkpt>
      <trkpt lat="46.67226" lon="5.55055">
        <ele>290.2</ele>
        <time>2023-08-30T09:42:16Z</time>
      </trkpt>
      <trkpt lat="46.67224" lon="5.55052">
        <ele>290.2</ele>
        <time>2023-08-30T09:42:17Z</time>
      </trkpt>
      <trkpt lat="46.67221" lon="5.5505">
        <ele>290</ele>
        <time>2023-08-30T09:42:18Z</time>
      </trkpt>
      <trkpt lat="46.67219" lon="5.55047">
        <ele>289.8</ele>
        <time>2023-08-30T09:42:19Z</time>
      </trkpt>
      <trkpt lat="46.67217" lon="5.55044">
        <ele>289.8</ele>
        <time>2023-08-30T09:42:20Z</time>
      </trkpt>
      <trkpt lat="46.67215" lon="5.55041">
        <ele>289.8</ele>
        <time>2023-08-30T09:42:21Z</time>
      </trkpt>
      <trkpt lat="46.67212" lon="5.55039">
        <ele>289.8</ele>
        <time>2023-08-30T09:42:22Z</time>
      </trkpt>
      <trkpt lat="46.6721" lon="5.55037">
        <ele>289.8</ele>
        <time>2023-08-30T09:42:23Z</time>
      </trkpt>
      <trkpt lat="46.67208" lon="5.55035">
        <ele>289.8</ele>
        <time>2023-08-30T09:42:24Z</time>
      </trkpt>
      <trkpt lat="46.67206" lon="5.55033">
        <ele>289.8</ele>
        <time>2023-08-30T09:42:25Z</time>
      </trkpt>
      <trkpt lat="46.67204" lon="5.5503">
        <ele>289.8</ele>
        <time>2023-08-30T09:42:26Z</time>
      </trkpt>
      <trkpt lat="46.67202" lon="5.55027">
        <ele>289.8</ele>
        <time>2023-08-30T09:42:27Z</time>
      </trkpt>
      <trkpt lat="46.67199" lon="5.55025">
        <ele>290</ele>
        <time>2023-08-30T09:42:28Z</time>
      </trkpt>
      <trkpt lat="46.67197" lon="5.55022">
        <ele>290</ele>
        <time>2023-08-30T09:42:29Z</time>
      </trkpt>
      <trkpt lat="46.67193" lon="5.55018">
        <ele>290</ele>
        <time>2023-08-30T09:42:30Z</time>
      </trkpt>
      <trkpt lat="46.67192" lon="5.55017">
        <ele>290</ele>
        <time>2023-08-30T09:42:31Z</time>
      </trkpt>
      <trkpt lat="46.6719" lon="5.55014">
        <ele>290.4</ele>
        <time>2023-08-30T09:42:32Z</time>
      </trkpt>
      <trkpt lat="46.67187" lon="5.55012">
        <ele>290.6</ele>
        <time>2023-08-30T09:42:33Z</time>
      </trkpt>
      <trkpt lat="46.67185" lon="5.55009">
        <ele>290.6</ele>
        <time>2023-08-30T09:42:34Z</time>
      </trkpt>
      <trkpt lat="46.67183" lon="5.55007">
        <ele>290.6</ele>
        <time>2023-08-30T09:42:35Z</time>
      </trkpt>
      <trkpt lat="46.67181" lon="5.55004">
        <ele>291.2</ele>
        <time>2023-08-30T09:42:36Z</time>
      </trkpt>
      <trkpt lat="46.67179" lon="5.55001">
        <ele>291.6</ele>
        <time>2023-08-30T09:42:37Z</time>
      </trkpt>
      <trkpt lat="46.67176" lon="5.55">
        <ele>291.6</ele>
        <time>2023-08-30T09:42:38Z</time>
      </trkpt>
      <trkpt lat="46.67173" lon="5.54998">
        <ele>291.6</ele>
        <time>2023-08-30T09:42:39Z</time>
      </trkpt>
      <trkpt lat="46.67171" lon="5.54996">
        <ele>291.8</ele>
        <time>2023-08-30T09:42:40Z</time>
      </trkpt>
      <trkpt lat="46.67168" lon="5.54995">
        <ele>291.8</ele>
        <time>2023-08-30T09:42:41Z</time>
      </trkpt>
      <trkpt lat="46.67165" lon="5.54994">
        <ele>291.8</ele>
        <time>2023-08-30T09:42:42Z</time>
      </trkpt>
      <trkpt lat="46.67163" lon="5.54992">
        <ele>291.8</ele>
        <time>2023-08-30T09:42:43Z</time>
      </trkpt>
      <trkpt lat="46.6716" lon="5.54991">
        <ele>291.8</ele>
        <time>2023-08-30T09:42:44Z</time>
      </trkpt>
      <trkpt lat="46.67157" lon="5.54989">
        <ele>291.8</ele>
        <time>2023-08-30T09:42:45Z</time>
      </trkpt>
      <trkpt lat="46.67155" lon="5.54987">
        <ele>291.6</ele>
        <time>2023-08-30T09:42:46Z</time>
      </trkpt>
      <trkpt lat="46.67152" lon="5.54985">
        <ele>291.6</ele>
        <time>2023-08-30T09:42:47Z</time>
      </trkpt>
      <trkpt lat="46.67149" lon="5.54983">
        <ele>291.6</ele>
        <time>2023-08-30T09:42:48Z</time>
      </trkpt>
      <trkpt lat="46.67147" lon="5.54982">
        <ele>291.6</ele>
        <time>2023-08-30T09:42:49Z</time>
      </trkpt>
      <trkpt lat="46.67145" lon="5.5498">
        <ele>291.6</ele>
        <time>2023-08-30T09:42:50Z</time>
      </trkpt>
      <trkpt lat="46.67142" lon="5.54979">
        <ele>291.4</ele>
        <time>2023-08-30T09:42:51Z</time>
      </trkpt>
      <trkpt lat="46.6714" lon="5.54976">
        <ele>291.4</ele>
        <time>2023-08-30T09:42:52Z</time>
      </trkpt>
      <trkpt lat="46.67137" lon="5.54974">
        <ele>291.4</ele>
        <time>2023-08-30T09:42:53Z</time>
      </trkpt>
      <trkpt lat="46.67134" lon="5.54972">
        <ele>291</ele>
        <time>2023-08-30T09:42:54Z</time>
      </trkpt>
      <trkpt lat="46.6713" lon="5.5497">
        <ele>291</ele>
        <time>2023-08-30T09:42:55Z</time>
      </trkpt>
      <trkpt lat="46.67127" lon="5.54968">
        <ele>291</ele>
        <time>2023-08-30T09:42:56Z</time>
      </trkpt>
      <trkpt lat="46.67124" lon="5.54966">
        <ele>291</ele>
        <time>2023-08-30T09:42:57Z</time>
      </trkpt>
      <trkpt lat="46.67121" lon="5.54964">
        <ele>290.4</ele>
        <time>2023-08-30T09:42:58Z</time>
      </trkpt>
      <trkpt lat="46.67117" lon="5.54962">
        <ele>290.4</ele>
        <time>2023-08-30T09:42:59Z</time>
      </trkpt>
      <trkpt lat="46.67114" lon="5.54959">
        <ele>290.4</ele>
        <time>2023-08-30T09:43:00Z</time>
      </trkpt>
      <trkpt lat="46.67111" lon="5.54957">
        <ele>290.4</ele>
        <time>2023-08-30T09:43:01Z</time>
      </trkpt>
      <trkpt lat="46.67108" lon="5.54955">
        <ele>290.4</ele>
        <time>2023-08-30T09:43:02Z</time>
      </trkpt>
      <trkpt lat="46.67105" lon="5.54952">
        <ele>290</ele>
        <time>2023-08-30T09:43:03Z</time>
      </trkpt>
      <trkpt lat="46.67101" lon="5.5495">
        <ele>290</ele>
        <time>2023-08-30T09:43:04Z</time>
      </trkpt>
      <trkpt lat="46.67097" lon="5.54946">
        <ele>290</ele>
        <time>2023-08-30T09:43:05Z</time>
      </trkpt>
      <trkpt lat="46.67095" lon="5.54944">
        <ele>290</ele>
        <time>2023-08-30T09:43:06Z</time>
      </trkpt>
      <trkpt lat="46.67091" lon="5.54942">
        <ele>290</ele>
        <time>2023-08-30T09:43:07Z</time>
      </trkpt>
      <trkpt lat="46.67088" lon="5.5494">
        <ele>290</ele>
        <time>2023-08-30T09:43:08Z</time>
      </trkpt>
      <trkpt lat="46.67084" lon="5.54938">
        <ele>289.8</ele>
        <time>2023-08-30T09:43:09Z</time>
      </trkpt>
      <trkpt lat="46.67081" lon="5.54935">
        <ele>289.8</ele>
        <time>2023-08-30T09:43:10Z</time>
      </trkpt>
      <trkpt lat="46.67078" lon="5.54932">
        <ele>289.8</ele>
        <time>2023-08-30T09:43:11Z</time>
      </trkpt>
      <trkpt lat="46.67073" lon="5.54928">
        <ele>289.8</ele>
        <time>2023-08-30T09:43:12Z</time>
      </trkpt>
      <trkpt lat="46.67071" lon="5.54926">
        <ele>289.8</ele>
        <time>2023-08-30T09:43:13Z</time>
      </trkpt>
      <trkpt lat="46.67068" lon="5.54923">
        <ele>290.2</ele>
        <time>2023-08-30T09:43:14Z</time>
      </trkpt>
      <trkpt lat="46.67065" lon="5.5492">
        <ele>290.2</ele>
        <time>2023-08-30T09:43:15Z</time>
      </trkpt>
      <trkpt lat="46.67062" lon="5.54917">
        <ele>290.2</ele>
        <time>2023-08-30T09:43:16Z</time>
      </trkpt>
      <trkpt lat="46.67059" lon="5.54914">
        <ele>290.4</ele>
        <time>2023-08-30T09:43:17Z</time>
      </trkpt>
      <trkpt lat="46.67056" lon="5.5491">
        <ele>290.6</ele>
        <time>2023-08-30T09:43:18Z</time>
      </trkpt>
      <trkpt lat="46.67053" lon="5.54906">
        <ele>290.6</ele>
        <time>2023-08-30T09:43:19Z</time>
      </trkpt>
      <trkpt lat="46.6705" lon="5.54903">
        <ele>290.6</ele>
        <time>2023-08-30T09:43:20Z</time>
      </trkpt>
      <trkpt lat="46.67046" lon="5.54899">
        <ele>291</ele>
        <time>2023-08-30T09:43:21Z</time>
      </trkpt>
      <trkpt lat="46.67043" lon="5.54896">
        <ele>291</ele>
        <time>2023-08-30T09:43:22Z</time>
      </trkpt>
      <trkpt lat="46.6704" lon="5.54892">
        <ele>291.2</ele>
        <time>2023-08-30T09:43:23Z</time>
      </trkpt>
      <trkpt lat="46.67037" lon="5.54888">
        <ele>291.2</ele>
        <time>2023-08-30T09:43:24Z</time>
      </trkpt>
      <trkpt lat="46.67034" lon="5.54885">
        <ele>291.2</ele>
        <time>2023-08-30T09:43:25Z</time>
      </trkpt>
      <trkpt lat="46.67031" lon="5.5488">
        <ele>291.2</ele>
        <time>2023-08-30T09:43:26Z</time>
      </trkpt>
      <trkpt lat="46.67028" lon="5.54876">
        <ele>291.4</ele>
        <time>2023-08-30T09:43:27Z</time>
      </trkpt>
      <trkpt lat="46.67026" lon="5.54872">
        <ele>291.6</ele>
        <time>2023-08-30T09:43:28Z</time>
      </trkpt>
      <trkpt lat="46.67023" lon="5.54868">
        <ele>291.6</ele>
        <time>2023-08-30T09:43:29Z</time>
      </trkpt>
      <trkpt lat="46.67021" lon="5.54863">
        <ele>291.6</ele>
        <time>2023-08-30T09:43:30Z</time>
      </trkpt>
      <trkpt lat="46.67019" lon="5.54859">
        <ele>291.8</ele>
        <time>2023-08-30T09:43:31Z</time>
      </trkpt>
      <trkpt lat="46.67015" lon="5.54852">
        <ele>292.4</ele>
        <time>2023-08-30T09:43:32Z</time>
      </trkpt>
      <trkpt lat="46.67014" lon="5.5485">
        <ele>292.4</ele>
        <time>2023-08-30T09:43:33Z</time>
      </trkpt>
      <trkpt lat="46.67012" lon="5.54846">
        <ele>292.4</ele>
        <time>2023-08-30T09:43:34Z</time>
      </trkpt>
      <trkpt lat="46.67008" lon="5.5484">
        <ele>292.4</ele>
        <time>2023-08-30T09:43:35Z</time>
      </trkpt>
      <trkpt lat="46.67007" lon="5.54838">
        <ele>292.6</ele>
        <time>2023-08-30T09:43:36Z</time>
      </trkpt>
      <trkpt lat="46.67005" lon="5.54834">
        <ele>293</ele>
        <time>2023-08-30T09:43:37Z</time>
      </trkpt>
      <trkpt lat="46.67002" lon="5.54829">
        <ele>293</ele>
        <time>2023-08-30T09:43:38Z</time>
      </trkpt>
      <trkpt lat="46.67" lon="5.54825">
        <ele>293</ele>
        <time>2023-08-30T09:43:39Z</time>
      </trkpt>
      <trkpt lat="46.66997" lon="5.54819">
        <ele>293</ele>
        <time>2023-08-30T09:43:40Z</time>
      </trkpt>
      <trkpt lat="46.66995" lon="5.54817">
        <ele>293.8</ele>
        <time>2023-08-30T09:43:41Z</time>
      </trkpt>
      <trkpt lat="46.66993" lon="5.54812">
        <ele>293.8</ele>
        <time>2023-08-30T09:43:42Z</time>
      </trkpt>
      <trkpt lat="46.66992" lon="5.54807">
        <ele>293.8</ele>
        <time>2023-08-30T09:43:43Z</time>
      </trkpt>
      <trkpt lat="46.6699" lon="5.54803">
        <ele>293.8</ele>
        <time>2023-08-30T09:43:44Z</time>
      </trkpt>
      <trkpt lat="46.66988" lon="5.54798">
        <ele>293.8</ele>
        <time>2023-08-30T09:43:45Z</time>
      </trkpt>
      <trkpt lat="46.66986" lon="5.54793">
        <ele>294.4</ele>
        <time>2023-08-30T09:43:46Z</time>
      </trkpt>
      <trkpt lat="46.66984" lon="5.54789">
        <ele>294.4</ele>
        <time>2023-08-30T09:43:47Z</time>
      </trkpt>
      <trkpt lat="46.66982" lon="5.54784">
        <ele>294.4</ele>
        <time>2023-08-30T09:43:48Z</time>
      </trkpt>
      <trkpt lat="46.6698" lon="5.5478">
        <ele>294.4</ele>
        <time>2023-08-30T09:43:49Z</time>
      </trkpt>
      <trkpt lat="46.66978" lon="5.54776">
        <ele>294.8</ele>
        <time>2023-08-30T09:43:50Z</time>
      </trkpt>
      <trkpt lat="46.66976" lon="5.54772">
        <ele>294.8</ele>
        <time>2023-08-30T09:43:51Z</time>
      </trkpt>
      <trkpt lat="46.66974" lon="5.54768">
        <ele>295</ele>
        <time>2023-08-30T09:43:52Z</time>
      </trkpt>
      <trkpt lat="46.66971" lon="5.54764">
        <ele>295</ele>
        <time>2023-08-30T09:43:53Z</time>
      </trkpt>
      <trkpt lat="46.66969" lon="5.5476">
        <ele>295.2</ele>
        <time>2023-08-30T09:43:54Z</time>
      </trkpt>
      <trkpt lat="46.66967" lon="5.54756">
        <ele>295.4</ele>
        <time>2023-08-30T09:43:55Z</time>
      </trkpt>
      <trkpt lat="46.66964" lon="5.54753">
        <ele>295.4</ele>
        <time>2023-08-30T09:43:56Z</time>
      </trkpt>
      <trkpt lat="46.66961" lon="5.54749">
        <ele>295.4</ele>
        <time>2023-08-30T09:43:57Z</time>
      </trkpt>
      <trkpt lat="46.66959" lon="5.54745">
        <ele>295.4</ele>
        <time>2023-08-30T09:43:58Z</time>
      </trkpt>
      <trkpt lat="46.66956" lon="5.54737">
        <ele>295.4</ele>
        <time>2023-08-30T09:43:59Z</time>
      </trkpt>
      <trkpt lat="46.66955" lon="5.54735">
        <ele>295.4</ele>
        <time>2023-08-30T09:44:00Z</time>
      </trkpt>
      <trkpt lat="46.66954" lon="5.54729">
        <ele>295.4</ele>
        <time>2023-08-30T09:44:01Z</time>
      </trkpt>
      <trkpt lat="46.66954" lon="5.54724">
        <ele>295.4</ele>
        <time>2023-08-30T09:44:02Z</time>
      </trkpt>
      <trkpt lat="46.66955" lon="5.54719">
        <ele>295.4</ele>
        <time>2023-08-30T09:44:03Z</time>
      </trkpt>
      <trkpt lat="46.66955" lon="5.54715">
        <ele>295.6</ele>
        <time>2023-08-30T09:44:04Z</time>
      </trkpt>
      <trkpt lat="46.66956" lon="5.54712">
        <ele>295.6</ele>
        <time>2023-08-30T09:44:05Z</time>
      </trkpt>
      <trkpt lat="46.66957" lon="5.5471">
        <ele>295.6</ele>
        <time>2023-08-30T09:44:06Z</time>
      </trkpt>
      <trkpt lat="46.66958" lon="5.54708">
        <ele>295.6</ele>
        <time>2023-08-30T09:44:07Z</time>
      </trkpt>
      <trkpt lat="46.66959" lon="5.54705">
        <ele>295.6</ele>
        <time>2023-08-30T09:44:08Z</time>
      </trkpt>
      <trkpt lat="46.6696" lon="5.54702">
        <ele>295.6</ele>
        <time>2023-08-30T09:44:09Z</time>
      </trkpt>
      <trkpt lat="46.66962" lon="5.54698">
        <ele>295.6</ele>
        <time>2023-08-30T09:44:10Z</time>
      </trkpt>
      <trkpt lat="46.66964" lon="5.54695">
        <ele>295.6</ele>
        <time>2023-08-30T09:44:11Z</time>
      </trkpt>
      <trkpt lat="46.66966" lon="5.54691">
        <ele>295.6</ele>
        <time>2023-08-30T09:44:12Z</time>
      </trkpt>
      <trkpt lat="46.66969" lon="5.54688">
        <ele>295.6</ele>
        <time>2023-08-30T09:44:13Z</time>
      </trkpt>
      <trkpt lat="46.66971" lon="5.54683">
        <ele>295.6</ele>
        <time>2023-08-30T09:44:14Z</time>
      </trkpt>
      <trkpt lat="46.66976" lon="5.54677">
        <ele>295.6</ele>
        <time>2023-08-30T09:44:15Z</time>
      </trkpt>
      <trkpt lat="46.66977" lon="5.54674">
        <ele>295.6</ele>
        <time>2023-08-30T09:44:16Z</time>
      </trkpt>
      <trkpt lat="46.66982" lon="5.54667">
        <ele>295.6</ele>
        <time>2023-08-30T09:44:17Z</time>
      </trkpt>
      <trkpt lat="46.66984" lon="5.54665">
        <ele>295.8</ele>
        <time>2023-08-30T09:44:18Z</time>
      </trkpt>
      <trkpt lat="46.66987" lon="5.5466">
        <ele>295</ele>
        <time>2023-08-30T09:44:19Z</time>
      </trkpt>
      <trkpt lat="46.6699" lon="5.54654">
        <ele>295</ele>
        <time>2023-08-30T09:44:20Z</time>
      </trkpt>
      <trkpt lat="46.66994" lon="5.54649">
        <ele>295</ele>
        <time>2023-08-30T09:44:21Z</time>
      </trkpt>
      <trkpt lat="46.66997" lon="5.54644">
        <ele>295</ele>
        <time>2023-08-30T09:44:22Z</time>
      </trkpt>
      <trkpt lat="46.67001" lon="5.54639">
        <ele>296</ele>
        <time>2023-08-30T09:44:23Z</time>
      </trkpt>
      <trkpt lat="46.67004" lon="5.54633">
        <ele>296</ele>
        <time>2023-08-30T09:44:24Z</time>
      </trkpt>
      <trkpt lat="46.6701" lon="5.54625">
        <ele>296</ele>
        <time>2023-08-30T09:44:25Z</time>
      </trkpt>
      <trkpt lat="46.67012" lon="5.54622">
        <ele>296</ele>
        <time>2023-08-30T09:44:26Z</time>
      </trkpt>
      <trkpt lat="46.67015" lon="5.54617">
        <ele>296</ele>
        <time>2023-08-30T09:44:27Z</time>
      </trkpt>
      <trkpt lat="46.67019" lon="5.54611">
        <ele>296</ele>
        <time>2023-08-30T09:44:28Z</time>
      </trkpt>
      <trkpt lat="46.67023" lon="5.54605">
        <ele>296</ele>
        <time>2023-08-30T09:44:29Z</time>
      </trkpt>
      <trkpt lat="46.67027" lon="5.54599">
        <ele>296.2</ele>
        <time>2023-08-30T09:44:30Z</time>
      </trkpt>
      <trkpt lat="46.67031" lon="5.54593">
        <ele>296.2</ele>
        <time>2023-08-30T09:44:31Z</time>
      </trkpt>
      <trkpt lat="46.67037" lon="5.54584">
        <ele>296.2</ele>
        <time>2023-08-30T09:44:32Z</time>
      </trkpt>
      <trkpt lat="46.67039" lon="5.54581">
        <ele>296</ele>
        <time>2023-08-30T09:44:33Z</time>
      </trkpt>
      <trkpt lat="46.67043" lon="5.54575">
        <ele>296</ele>
        <time>2023-08-30T09:44:34Z</time>
      </trkpt>
      <trkpt lat="46.67049" lon="5.54566">
        <ele>296</ele>
        <time>2023-08-30T09:44:35Z</time>
      </trkpt>
      <trkpt lat="46.67051" lon="5.54563">
        <ele>296</ele>
        <time>2023-08-30T09:44:36Z</time>
      </trkpt>
      <trkpt lat="46.67054" lon="5.54558">
        <ele>295.6</ele>
        <time>2023-08-30T09:44:37Z</time>
      </trkpt>
      <trkpt lat="46.67057" lon="5.54554">
        <ele>295.6</ele>
        <time>2023-08-30T09:44:38Z</time>
      </trkpt>
      <trkpt lat="46.67059" lon="5.54551">
        <ele>295.6</ele>
        <time>2023-08-30T09:44:39Z</time>
      </trkpt>
      <trkpt lat="46.67061" lon="5.54549">
        <ele>295.6</ele>
        <time>2023-08-30T09:44:40Z</time>
      </trkpt>
      <trkpt lat="46.67062" lon="5.54548">
        <ele>295.6</ele>
        <time>2023-08-30T09:44:41Z</time>
      </trkpt>
      <trkpt lat="46.67063" lon="5.54546">
        <ele>295.6</ele>
        <time>2023-08-30T09:44:42Z</time>
      </trkpt>
      <trkpt lat="46.67064" lon="5.54545">
        <ele>295.6</ele>
        <time>2023-08-30T09:44:43Z</time>
      </trkpt>
      <trkpt lat="46.67064" lon="5.54543">
        <ele>295.6</ele>
        <time>2023-08-30T09:44:44Z</time>
      </trkpt>
      <trkpt lat="46.67065" lon="5.54543">
        <ele>295.4</ele>
        <time>2023-08-30T09:44:45Z</time>
      </trkpt>
      <trkpt lat="46.67065" lon="5.54542">
        <ele>295</ele>
        <time>2023-08-30T09:44:46Z</time>
      </trkpt>
      <trkpt lat="46.67065" lon="5.54541">
        <ele>295</ele>
        <time>2023-08-30T09:44:47Z</time>
      </trkpt>
      <trkpt lat="46.67065" lon="5.54538">
        <ele>295</ele>
        <time>2023-08-30T09:44:48Z</time>
      </trkpt>
      <trkpt lat="46.67065" lon="5.54535">
        <ele>294.2</ele>
        <time>2023-08-30T09:44:49Z</time>
      </trkpt>
      <trkpt lat="46.67064" lon="5.54532">
        <ele>294.2</ele>
        <time>2023-08-30T09:44:50Z</time>
      </trkpt>
      <trkpt lat="46.67062" lon="5.54528">
        <ele>294.2</ele>
        <time>2023-08-30T09:44:51Z</time>
      </trkpt>
      <trkpt lat="46.6706" lon="5.54525">
        <ele>294.2</ele>
        <time>2023-08-30T09:44:52Z</time>
      </trkpt>
      <trkpt lat="46.67059" lon="5.54521">
        <ele>293.8</ele>
        <time>2023-08-30T09:44:53Z</time>
      </trkpt>
      <trkpt lat="46.67057" lon="5.54518">
        <ele>293.8</ele>
        <time>2023-08-30T09:44:54Z</time>
      </trkpt>
      <trkpt lat="46.67055" lon="5.54514">
        <ele>293.8</ele>
        <time>2023-08-30T09:44:55Z</time>
      </trkpt>
      <trkpt lat="46.67054" lon="5.5451">
        <ele>293.8</ele>
        <time>2023-08-30T09:44:56Z</time>
      </trkpt>
      <trkpt lat="46.67052" lon="5.54506">
        <ele>293.8</ele>
        <time>2023-08-30T09:44:57Z</time>
      </trkpt>
      <trkpt lat="46.6705" lon="5.54502">
        <ele>293.6</ele>
        <time>2023-08-30T09:44:58Z</time>
      </trkpt>
      <trkpt lat="46.67048" lon="5.54499">
        <ele>293.4</ele>
        <time>2023-08-30T09:44:59Z</time>
      </trkpt>
      <trkpt lat="46.67046" lon="5.54497">
        <ele>293.4</ele>
        <time>2023-08-30T09:45:00Z</time>
      </trkpt>
      <trkpt lat="46.67044" lon="5.54494">
        <ele>293.4</ele>
        <time>2023-08-30T09:45:01Z</time>
      </trkpt>
      <trkpt lat="46.67043" lon="5.54491">
        <ele>293.4</ele>
        <time>2023-08-30T09:45:02Z</time>
      </trkpt>
      <trkpt lat="46.67041" lon="5.54488">
        <ele>293.4</ele>
        <time>2023-08-30T09:45:03Z</time>
      </trkpt>
      <trkpt lat="46.67039" lon="5.54485">
        <ele>293.2</ele>
        <time>2023-08-30T09:45:04Z</time>
      </trkpt>
      <trkpt lat="46.67037" lon="5.54482">
        <ele>293.2</ele>
        <time>2023-08-30T09:45:05Z</time>
      </trkpt>
      <trkpt lat="46.67036" lon="5.54478">
        <ele>293.2</ele>
        <time>2023-08-30T09:45:06Z</time>
      </trkpt>
      <trkpt lat="46.67034" lon="5.54475">
        <ele>293.2</ele>
        <time>2023-08-30T09:45:07Z</time>
      </trkpt>
      <trkpt lat="46.67033" lon="5.54471">
        <ele>292.6</ele>
        <time>2023-08-30T09:45:08Z</time>
      </trkpt>
      <trkpt lat="46.67031" lon="5.54468">
        <ele>292.6</ele>
        <time>2023-08-30T09:45:09Z</time>
      </trkpt>
      <trkpt lat="46.6703" lon="5.54465">
        <ele>292.6</ele>
        <time>2023-08-30T09:45:10Z</time>
      </trkpt>
      <trkpt lat="46.67028" lon="5.54461">
        <ele>292.6</ele>
        <time>2023-08-30T09:45:11Z</time>
      </trkpt>
      <trkpt lat="46.67027" lon="5.54458">
        <ele>292</ele>
        <time>2023-08-30T09:45:12Z</time>
      </trkpt>
      <trkpt lat="46.67025" lon="5.54455">
        <ele>291.8</ele>
        <time>2023-08-30T09:45:13Z</time>
      </trkpt>
      <trkpt lat="46.67024" lon="5.54451">
        <ele>291.8</ele>
        <time>2023-08-30T09:45:14Z</time>
      </trkpt>
      <trkpt lat="46.67023" lon="5.54448">
        <ele>291.8</ele>
        <time>2023-08-30T09:45:15Z</time>
      </trkpt>
      <trkpt lat="46.67021" lon="5.54445">
        <ele>291.8</ele>
        <time>2023-08-30T09:45:16Z</time>
      </trkpt>
      <trkpt lat="46.6702" lon="5.54442">
        <ele>291.8</ele>
        <time>2023-08-30T09:45:17Z</time>
      </trkpt>
      <trkpt lat="46.67018" lon="5.54439">
        <ele>291.6</ele>
        <time>2023-08-30T09:45:18Z</time>
      </trkpt>
      <trkpt lat="46.67017" lon="5.54436">
        <ele>291.6</ele>
        <time>2023-08-30T09:45:19Z</time>
      </trkpt>
      <trkpt lat="46.67015" lon="5.54432">
        <ele>291.6</ele>
        <time>2023-08-30T09:45:20Z</time>
      </trkpt>
      <trkpt lat="46.67014" lon="5.5443">
        <ele>291.6</ele>
        <time>2023-08-30T09:45:21Z</time>
      </trkpt>
      <trkpt lat="46.67013" lon="5.54427">
        <ele>292</ele>
        <time>2023-08-30T09:45:22Z</time>
      </trkpt>
      <trkpt lat="46.67013" lon="5.54424">
        <ele>292</ele>
        <time>2023-08-30T09:45:23Z</time>
      </trkpt>
      <trkpt lat="46.67012" lon="5.54421">
        <ele>291.8</ele>
        <time>2023-08-30T09:45:24Z</time>
      </trkpt>
      <trkpt lat="46.67013" lon="5.54418">
        <ele>291.8</ele>
        <time>2023-08-30T09:45:25Z</time>
      </trkpt>
      <trkpt lat="46.67014" lon="5.54414">
        <ele>292.2</ele>
        <time>2023-08-30T09:45:26Z</time>
      </trkpt>
      <trkpt lat="46.67015" lon="5.54411">
        <ele>292.4</ele>
        <time>2023-08-30T09:45:27Z</time>
      </trkpt>
      <trkpt lat="46.67016" lon="5.54408">
        <ele>292.4</ele>
        <time>2023-08-30T09:45:28Z</time>
      </trkpt>
      <trkpt lat="46.67017" lon="5.54404">
        <ele>292.4</ele>
        <time>2023-08-30T09:45:29Z</time>
      </trkpt>
      <trkpt lat="46.67019" lon="5.544">
        <ele>292.4</ele>
        <time>2023-08-30T09:45:30Z</time>
      </trkpt>
      <trkpt lat="46.67021" lon="5.54396">
        <ele>292.4</ele>
        <time>2023-08-30T09:45:31Z</time>
      </trkpt>
      <trkpt lat="46.67022" lon="5.54392">
        <ele>292.6</ele>
        <time>2023-08-30T09:45:32Z</time>
      </trkpt>
      <trkpt lat="46.67024" lon="5.54387">
        <ele>292.6</ele>
        <time>2023-08-30T09:45:33Z</time>
      </trkpt>
      <trkpt lat="46.67026" lon="5.54382">
        <ele>292.6</ele>
        <time>2023-08-30T09:45:34Z</time>
      </trkpt>
      <trkpt lat="46.67028" lon="5.54377">
        <ele>292.6</ele>
        <time>2023-08-30T09:45:35Z</time>
      </trkpt>
      <trkpt lat="46.6703" lon="5.54371">
        <ele>293</ele>
        <time>2023-08-30T09:45:36Z</time>
      </trkpt>
      <trkpt lat="46.67032" lon="5.54365">
        <ele>293</ele>
        <time>2023-08-30T09:45:37Z</time>
      </trkpt>
      <trkpt lat="46.67033" lon="5.54359">
        <ele>293</ele>
        <time>2023-08-30T09:45:38Z</time>
      </trkpt>
      <trkpt lat="46.67035" lon="5.54353">
        <ele>293.2</ele>
        <time>2023-08-30T09:45:39Z</time>
      </trkpt>
      <trkpt lat="46.67037" lon="5.54346">
        <ele>293.2</ele>
        <time>2023-08-30T09:45:40Z</time>
      </trkpt>
      <trkpt lat="46.67039" lon="5.5434">
        <ele>293.2</ele>
        <time>2023-08-30T09:45:41Z</time>
      </trkpt>
      <trkpt lat="46.67041" lon="5.54333">
        <ele>293.2</ele>
        <time>2023-08-30T09:45:42Z</time>
      </trkpt>
      <trkpt lat="46.67043" lon="5.54326">
        <ele>293.2</ele>
        <time>2023-08-30T09:45:43Z</time>
      </trkpt>
      <trkpt lat="46.67047" lon="5.54316">
        <ele>293.8</ele>
        <time>2023-08-30T09:45:44Z</time>
      </trkpt>
      <trkpt lat="46.67048" lon="5.54312">
        <ele>293.8</ele>
        <time>2023-08-30T09:45:45Z</time>
      </trkpt>
      <trkpt lat="46.6705" lon="5.54305">
        <ele>293.6</ele>
        <time>2023-08-30T09:45:46Z</time>
      </trkpt>
      <trkpt lat="46.67052" lon="5.54299">
        <ele>293.6</ele>
        <time>2023-08-30T09:45:47Z</time>
      </trkpt>
      <trkpt lat="46.67054" lon="5.54292">
        <ele>294</ele>
        <time>2023-08-30T09:45:48Z</time>
      </trkpt>
      <trkpt lat="46.67056" lon="5.54285">
        <ele>294.2</ele>
        <time>2023-08-30T09:45:49Z</time>
      </trkpt>
      <trkpt lat="46.67058" lon="5.54278">
        <ele>294.2</ele>
        <time>2023-08-30T09:45:50Z</time>
      </trkpt>
      <trkpt lat="46.67061" lon="5.54268">
        <ele>294.2</ele>
        <time>2023-08-30T09:45:51Z</time>
      </trkpt>
      <trkpt lat="46.67063" lon="5.54265">
        <ele>294.4</ele>
        <time>2023-08-30T09:45:52Z</time>
      </trkpt>
      <trkpt lat="46.67065" lon="5.54258">
        <ele>294.6</ele>
        <time>2023-08-30T09:45:53Z</time>
      </trkpt>
      <trkpt lat="46.67067" lon="5.54252">
        <ele>294.6</ele>
        <time>2023-08-30T09:45:54Z</time>
      </trkpt>
      <trkpt lat="46.6707" lon="5.54245">
        <ele>294.6</ele>
        <time>2023-08-30T09:45:55Z</time>
      </trkpt>
      <trkpt lat="46.67072" lon="5.54238">
        <ele>294.6</ele>
        <time>2023-08-30T09:45:56Z</time>
      </trkpt>
      <trkpt lat="46.67075" lon="5.54229">
        <ele>294.6</ele>
        <time>2023-08-30T09:45:57Z</time>
      </trkpt>
      <trkpt lat="46.67076" lon="5.54226">
        <ele>294.6</ele>
        <time>2023-08-30T09:45:58Z</time>
      </trkpt>
      <trkpt lat="46.67078" lon="5.54219">
        <ele>295</ele>
        <time>2023-08-30T09:45:59Z</time>
      </trkpt>
      <trkpt lat="46.6708" lon="5.54213">
        <ele>295</ele>
        <time>2023-08-30T09:46:00Z</time>
      </trkpt>
      <trkpt lat="46.67082" lon="5.54207">
        <ele>295</ele>
        <time>2023-08-30T09:46:01Z</time>
      </trkpt>
      <trkpt lat="46.67084" lon="5.54201">
        <ele>295.4</ele>
        <time>2023-08-30T09:46:02Z</time>
      </trkpt>
      <trkpt lat="46.67086" lon="5.54195">
        <ele>295.8</ele>
        <time>2023-08-30T09:46:03Z</time>
      </trkpt>
      <trkpt lat="46.67088" lon="5.54189">
        <ele>295.8</ele>
        <time>2023-08-30T09:46:04Z</time>
      </trkpt>
      <trkpt lat="46.67089" lon="5.54184">
        <ele>295.8</ele>
        <time>2023-08-30T09:46:05Z</time>
      </trkpt>
      <trkpt lat="46.67091" lon="5.54179">
        <ele>295.8</ele>
        <time>2023-08-30T09:46:06Z</time>
      </trkpt>
      <trkpt lat="46.67092" lon="5.54174">
        <ele>296.2</ele>
        <time>2023-08-30T09:46:07Z</time>
      </trkpt>
      <trkpt lat="46.67094" lon="5.54166">
        <ele>296.2</ele>
        <time>2023-08-30T09:46:08Z</time>
      </trkpt>
      <trkpt lat="46.67095" lon="5.54164">
        <ele>296.2</ele>
        <time>2023-08-30T09:46:09Z</time>
      </trkpt>
      <trkpt lat="46.67096" lon="5.54159">
        <ele>296.2</ele>
        <time>2023-08-30T09:46:10Z</time>
      </trkpt>
      <trkpt lat="46.67098" lon="5.54154">
        <ele>296.6</ele>
        <time>2023-08-30T09:46:11Z</time>
      </trkpt>
      <trkpt lat="46.67099" lon="5.54149">
        <ele>296.6</ele>
        <time>2023-08-30T09:46:12Z</time>
      </trkpt>
      <trkpt lat="46.671" lon="5.54144">
        <ele>296.6</ele>
        <time>2023-08-30T09:46:13Z</time>
      </trkpt>
      <trkpt lat="46.67102" lon="5.5414">
        <ele>296.6</ele>
        <time>2023-08-30T09:46:14Z</time>
      </trkpt>
      <trkpt lat="46.67103" lon="5.54136">
        <ele>297</ele>
        <time>2023-08-30T09:46:15Z</time>
      </trkpt>
      <trkpt lat="46.67105" lon="5.54131">
        <ele>297</ele>
        <time>2023-08-30T09:46:16Z</time>
      </trkpt>
      <trkpt lat="46.67106" lon="5.54127">
        <ele>297</ele>
        <time>2023-08-30T09:46:17Z</time>
      </trkpt>
      <trkpt lat="46.67108" lon="5.54122">
        <ele>297</ele>
        <time>2023-08-30T09:46:18Z</time>
      </trkpt>
      <trkpt lat="46.67109" lon="5.54118">
        <ele>297.2</ele>
        <time>2023-08-30T09:46:19Z</time>
      </trkpt>
      <trkpt lat="46.6711" lon="5.54113">
        <ele>297.4</ele>
        <time>2023-08-30T09:46:20Z</time>
      </trkpt>
      <trkpt lat="46.67112" lon="5.54109">
        <ele>297.4</ele>
        <time>2023-08-30T09:46:21Z</time>
      </trkpt>
      <trkpt lat="46.67113" lon="5.54104">
        <ele>297.4</ele>
        <time>2023-08-30T09:46:22Z</time>
      </trkpt>
      <trkpt lat="46.67115" lon="5.541">
        <ele>297.4</ele>
        <time>2023-08-30T09:46:23Z</time>
      </trkpt>
      <trkpt lat="46.67116" lon="5.54095">
        <ele>297.4</ele>
        <time>2023-08-30T09:46:24Z</time>
      </trkpt>
      <trkpt lat="46.67118" lon="5.5409">
        <ele>297.8</ele>
        <time>2023-08-30T09:46:25Z</time>
      </trkpt>
      <trkpt lat="46.67119" lon="5.54085">
        <ele>297.8</ele>
        <time>2023-08-30T09:46:26Z</time>
      </trkpt>
      <trkpt lat="46.6712" lon="5.5408">
        <ele>297.8</ele>
        <time>2023-08-30T09:46:27Z</time>
      </trkpt>
      <trkpt lat="46.67122" lon="5.54074">
        <ele>298</ele>
        <time>2023-08-30T09:46:28Z</time>
      </trkpt>
      <trkpt lat="46.67123" lon="5.54072">
        <ele>298</ele>
        <time>2023-08-30T09:46:29Z</time>
      </trkpt>
      <trkpt lat="46.67125" lon="5.54068">
        <ele>298</ele>
        <time>2023-08-30T09:46:30Z</time>
      </trkpt>
      <trkpt lat="46.67128" lon="5.54064">
        <ele>298</ele>
        <time>2023-08-30T09:46:31Z</time>
      </trkpt>
      <trkpt lat="46.6713" lon="5.5406">
        <ele>298.4</ele>
        <time>2023-08-30T09:46:32Z</time>
      </trkpt>
      <trkpt lat="46.67132" lon="5.54056">
        <ele>298.4</ele>
        <time>2023-08-30T09:46:33Z</time>
      </trkpt>
      <trkpt lat="46.67135" lon="5.54052">
        <ele>298.4</ele>
        <time>2023-08-30T09:46:34Z</time>
      </trkpt>
      <trkpt lat="46.67136" lon="5.54047">
        <ele>298.4</ele>
        <time>2023-08-30T09:46:35Z</time>
      </trkpt>
      <trkpt lat="46.67137" lon="5.54043">
        <ele>298.4</ele>
        <time>2023-08-30T09:46:36Z</time>
      </trkpt>
      <trkpt lat="46.67137" lon="5.5404">
        <ele>298.4</ele>
        <time>2023-08-30T09:46:37Z</time>
      </trkpt>
      <trkpt lat="46.67138" lon="5.54038">
        <ele>298.4</ele>
        <time>2023-08-30T09:46:38Z</time>
      </trkpt>
      <trkpt lat="46.67139" lon="5.54036">
        <ele>298.6</ele>
        <time>2023-08-30T09:46:39Z</time>
      </trkpt>
      <trkpt lat="46.67139" lon="5.54035">
        <ele>298.6</ele>
        <time>2023-08-30T09:46:40Z</time>
      </trkpt>
      <trkpt lat="46.67139" lon="5.54035">
        <ele>298.6</ele>
        <time>2023-08-30T09:46:41Z</time>
      </trkpt>
      <trkpt lat="46.67139" lon="5.54035">
        <ele>298.6</ele>
        <time>2023-08-30T09:46:42Z</time>
      </trkpt>
      <trkpt lat="46.6714" lon="5.54036">
        <ele>296</ele>
        <time>2023-08-30T09:47:55Z</time>
      </trkpt>
      <trkpt lat="46.67141" lon="5.54036">
        <ele>296</ele>
        <time>2023-08-30T09:47:56Z</time>
      </trkpt>
      <trkpt lat="46.67142" lon="5.54037">
        <ele>296</ele>
        <time>2023-08-30T09:47:57Z</time>
      </trkpt>
      <trkpt lat="46.67144" lon="5.54038">
        <ele>295.2</ele>
        <time>2023-08-30T09:47:58Z</time>
      </trkpt>
      <trkpt lat="46.67145" lon="5.5404">
        <ele>295.2</ele>
        <time>2023-08-30T09:47:59Z</time>
      </trkpt>
      <trkpt lat="46.67146" lon="5.54042">
        <ele>295.2</ele>
        <time>2023-08-30T09:48:00Z</time>
      </trkpt>
      <trkpt lat="46.67149" lon="5.54043">
        <ele>295.2</ele>
        <time>2023-08-30T09:48:01Z</time>
      </trkpt>
      <trkpt lat="46.67151" lon="5.54044">
        <ele>295</ele>
        <time>2023-08-30T09:48:02Z</time>
      </trkpt>
      <trkpt lat="46.67154" lon="5.54044">
        <ele>294.8</ele>
        <time>2023-08-30T09:48:03Z</time>
      </trkpt>
      <trkpt lat="46.67157" lon="5.54044">
        <ele>294.8</ele>
        <time>2023-08-30T09:48:04Z</time>
      </trkpt>
      <trkpt lat="46.67161" lon="5.54044">
        <ele>294.8</ele>
        <time>2023-08-30T09:48:05Z</time>
      </trkpt>
      <trkpt lat="46.67164" lon="5.54044">
        <ele>294.8</ele>
        <time>2023-08-30T09:48:06Z</time>
      </trkpt>
      <trkpt lat="46.67168" lon="5.54044">
        <ele>294.4</ele>
        <time>2023-08-30T09:48:07Z</time>
      </trkpt>
      <trkpt lat="46.67173" lon="5.54044">
        <ele>294.6</ele>
        <time>2023-08-30T09:48:08Z</time>
      </trkpt>
      <trkpt lat="46.67177" lon="5.54044">
        <ele>294.6</ele>
        <time>2023-08-30T09:48:09Z</time>
      </trkpt>
      <trkpt lat="46.67181" lon="5.54044">
        <ele>294.6</ele>
        <time>2023-08-30T09:48:10Z</time>
      </trkpt>
      <trkpt lat="46.67184" lon="5.54041">
        <ele>294.6</ele>
        <time>2023-08-30T09:48:11Z</time>
      </trkpt>
      <trkpt lat="46.67186" lon="5.54038">
        <ele>294.4</ele>
        <time>2023-08-30T09:48:12Z</time>
      </trkpt>
      <trkpt lat="46.67188" lon="5.54034">
        <ele>294.4</ele>
        <time>2023-08-30T09:48:13Z</time>
      </trkpt>
      <trkpt lat="46.67188" lon="5.54031">
        <ele>294.4</ele>
        <time>2023-08-30T09:48:14Z</time>
      </trkpt>
      <trkpt lat="46.67188" lon="5.54026">
        <ele>293.8</ele>
        <time>2023-08-30T09:48:15Z</time>
      </trkpt>
      <trkpt lat="46.67188" lon="5.54023">
        <ele>294</ele>
        <time>2023-08-30T09:48:16Z</time>
      </trkpt>
      <trkpt lat="46.67188" lon="5.54019">
        <ele>294</ele>
        <time>2023-08-30T09:48:17Z</time>
      </trkpt>
      <trkpt lat="46.67187" lon="5.54015">
        <ele>294</ele>
        <time>2023-08-30T09:48:18Z</time>
      </trkpt>
      <trkpt lat="46.67187" lon="5.54011">
        <ele>294</ele>
        <time>2023-08-30T09:48:19Z</time>
      </trkpt>
      <trkpt lat="46.67187" lon="5.54008">
        <ele>294</ele>
        <time>2023-08-30T09:48:20Z</time>
      </trkpt>
      <trkpt lat="46.67186" lon="5.54003">
        <ele>294.2</ele>
        <time>2023-08-30T09:48:21Z</time>
      </trkpt>
      <trkpt lat="46.67186" lon="5.53999">
        <ele>294.2</ele>
        <time>2023-08-30T09:48:22Z</time>
      </trkpt>
      <trkpt lat="46.67185" lon="5.53996">
        <ele>294.2</ele>
        <time>2023-08-30T09:48:23Z</time>
      </trkpt>
      <trkpt lat="46.67185" lon="5.53992">
        <ele>294.2</ele>
        <time>2023-08-30T09:48:24Z</time>
      </trkpt>
      <trkpt lat="46.67184" lon="5.53986">
        <ele>294.2</ele>
        <time>2023-08-30T09:48:25Z</time>
      </trkpt>
      <trkpt lat="46.67184" lon="5.53984">
        <ele>294.2</ele>
        <time>2023-08-30T09:48:26Z</time>
      </trkpt>
      <trkpt lat="46.67184" lon="5.5398">
        <ele>294.2</ele>
        <time>2023-08-30T09:48:27Z</time>
      </trkpt>
      <trkpt lat="46.67183" lon="5.53976">
        <ele>294.2</ele>
        <time>2023-08-30T09:48:28Z</time>
      </trkpt>
      <trkpt lat="46.67182" lon="5.53972">
        <ele>294.2</ele>
        <time>2023-08-30T09:48:29Z</time>
      </trkpt>
      <trkpt lat="46.67181" lon="5.53968">
        <ele>294.2</ele>
        <time>2023-08-30T09:48:30Z</time>
      </trkpt>
      <trkpt lat="46.67181" lon="5.53964">
        <ele>294.2</ele>
        <time>2023-08-30T09:48:31Z</time>
      </trkpt>
      <trkpt lat="46.6718" lon="5.53961">
        <ele>294.2</ele>
        <time>2023-08-30T09:48:32Z</time>
      </trkpt>
      <trkpt lat="46.6718" lon="5.53958">
        <ele>294.2</ele>
        <time>2023-08-30T09:48:33Z</time>
      </trkpt>
      <trkpt lat="46.67179" lon="5.53953">
        <ele>294.2</ele>
        <time>2023-08-30T09:48:34Z</time>
      </trkpt>
      <trkpt lat="46.67179" lon="5.53952">
        <ele>294</ele>
        <time>2023-08-30T09:48:35Z</time>
      </trkpt>
      <trkpt lat="46.67178" lon="5.53947">
        <ele>294</ele>
        <time>2023-08-30T09:48:36Z</time>
      </trkpt>
      <trkpt lat="46.67178" lon="5.53946">
        <ele>294</ele>
        <time>2023-08-30T09:48:37Z</time>
      </trkpt>
      <trkpt lat="46.67178" lon="5.53943">
        <ele>294</ele>
        <time>2023-08-30T09:48:38Z</time>
      </trkpt>
      <trkpt lat="46.67178" lon="5.53941">
        <ele>294</ele>
        <time>2023-08-30T09:48:39Z</time>
      </trkpt>
      <trkpt lat="46.67178" lon="5.53938">
        <ele>294</ele>
        <time>2023-08-30T09:48:40Z</time>
      </trkpt>
      <trkpt lat="46.67178" lon="5.53935">
        <ele>294</ele>
        <time>2023-08-30T09:48:41Z</time>
      </trkpt>
      <trkpt lat="46.67178" lon="5.53932">
        <ele>294</ele>
        <time>2023-08-30T09:48:42Z</time>
      </trkpt>
      <trkpt lat="46.67177" lon="5.53929">
        <ele>293.6</ele>
        <time>2023-08-30T09:48:43Z</time>
      </trkpt>
      <trkpt lat="46.67177" lon="5.53926">
        <ele>293.8</ele>
        <time>2023-08-30T09:48:44Z</time>
      </trkpt>
      <trkpt lat="46.67176" lon="5.53923">
        <ele>293.8</ele>
        <time>2023-08-30T09:48:45Z</time>
      </trkpt>
      <trkpt lat="46.67175" lon="5.5392">
        <ele>293.8</ele>
        <time>2023-08-30T09:48:46Z</time>
      </trkpt>
      <trkpt lat="46.67175" lon="5.53918">
        <ele>293.8</ele>
        <time>2023-08-30T09:48:47Z</time>
      </trkpt>
      <trkpt lat="46.67174" lon="5.53914">
        <ele>293.6</ele>
        <time>2023-08-30T09:48:48Z</time>
      </trkpt>
      <trkpt lat="46.67174" lon="5.53912">
        <ele>293.6</ele>
        <time>2023-08-30T09:48:49Z</time>
      </trkpt>
      <trkpt lat="46.67173" lon="5.53909">
        <ele>293.6</ele>
        <time>2023-08-30T09:48:50Z</time>
      </trkpt>
      <trkpt lat="46.67172" lon="5.53907">
        <ele>293.6</ele>
        <time>2023-08-30T09:48:51Z</time>
      </trkpt>
      <trkpt lat="46.67171" lon="5.53904">
        <ele>293.6</ele>
        <time>2023-08-30T09:48:52Z</time>
      </trkpt>
      <trkpt lat="46.6717" lon="5.53901">
        <ele>293.6</ele>
        <time>2023-08-30T09:48:53Z</time>
      </trkpt>
      <trkpt lat="46.67169" lon="5.53899">
        <ele>294</ele>
        <time>2023-08-30T09:48:54Z</time>
      </trkpt>
      <trkpt lat="46.67169" lon="5.53896">
        <ele>294</ele>
        <time>2023-08-30T09:48:55Z</time>
      </trkpt>
      <trkpt lat="46.67168" lon="5.53894">
        <ele>294.6</ele>
        <time>2023-08-30T09:48:56Z</time>
      </trkpt>
      <trkpt lat="46.67167" lon="5.53891">
        <ele>294.6</ele>
        <time>2023-08-30T09:48:57Z</time>
      </trkpt>
      <trkpt lat="46.67167" lon="5.53889">
        <ele>294.6</ele>
        <time>2023-08-30T09:48:58Z</time>
      </trkpt>
      <trkpt lat="46.67166" lon="5.53887">
        <ele>294.6</ele>
        <time>2023-08-30T09:48:59Z</time>
      </trkpt>
      <trkpt lat="46.67165" lon="5.53882">
        <ele>295.2</ele>
        <time>2023-08-30T09:49:00Z</time>
      </trkpt>
      <trkpt lat="46.67165" lon="5.53881">
        <ele>295.2</ele>
        <time>2023-08-30T09:49:01Z</time>
      </trkpt>
      <trkpt lat="46.67164" lon="5.53877">
        <ele>295.6</ele>
        <time>2023-08-30T09:49:02Z</time>
      </trkpt>
      <trkpt lat="46.67164" lon="5.53876">
        <ele>295.6</ele>
        <time>2023-08-30T09:49:03Z</time>
      </trkpt>
      <trkpt lat="46.67164" lon="5.53873">
        <ele>295.6</ele>
        <time>2023-08-30T09:49:04Z</time>
      </trkpt>
      <trkpt lat="46.67163" lon="5.5387">
        <ele>295.6</ele>
        <time>2023-08-30T09:49:05Z</time>
      </trkpt>
      <trkpt lat="46.67161" lon="5.53868">
        <ele>296.2</ele>
        <time>2023-08-30T09:49:06Z</time>
      </trkpt>
      <trkpt lat="46.6716" lon="5.53866">
        <ele>296.6</ele>
        <time>2023-08-30T09:49:07Z</time>
      </trkpt>
      <trkpt lat="46.67158" lon="5.53866">
        <ele>296.6</ele>
        <time>2023-08-30T09:49:08Z</time>
      </trkpt>
      <trkpt lat="46.67156" lon="5.53866">
        <ele>296.6</ele>
        <time>2023-08-30T09:49:09Z</time>
      </trkpt>
      <trkpt lat="46.67153" lon="5.53867">
        <ele>297.4</ele>
        <time>2023-08-30T09:49:10Z</time>
      </trkpt>
      <trkpt lat="46.6715" lon="5.53869">
        <ele>297.8</ele>
        <time>2023-08-30T09:49:11Z</time>
      </trkpt>
      <trkpt lat="46.6715" lon="5.53869">
        <ele>297.8</ele>
        <time>2023-08-30T09:49:12Z</time>
      </trkpt>
      <trkpt lat="46.67148" lon="5.53871">
        <ele>297.8</ele>
        <time>2023-08-30T09:49:13Z</time>
      </trkpt>
      <trkpt lat="46.67147" lon="5.53873">
        <ele>298.6</ele>
        <time>2023-08-30T09:49:14Z</time>
      </trkpt>
      <trkpt lat="46.67146" lon="5.53875">
        <ele>298.6</ele>
        <time>2023-08-30T09:49:15Z</time>
      </trkpt>
      <trkpt lat="46.67145" lon="5.53878">
        <ele>298.6</ele>
        <time>2023-08-30T09:49:16Z</time>
      </trkpt>
      <trkpt lat="46.67144" lon="5.5388">
        <ele>298.6</ele>
        <time>2023-08-30T09:49:17Z</time>
      </trkpt>
      <trkpt lat="46.67143" lon="5.53882">
        <ele>298.6</ele>
        <time>2023-08-30T09:49:18Z</time>
      </trkpt>
      <trkpt lat="46.67142" lon="5.53884">
        <ele>299.4</ele>
        <time>2023-08-30T09:49:19Z</time>
      </trkpt>
      <trkpt lat="46.67141" lon="5.53886">
        <ele>300</ele>
        <time>2023-08-30T09:49:20Z</time>
      </trkpt>
      <trkpt lat="46.6714" lon="5.53887">
        <ele>300</ele>
        <time>2023-08-30T09:49:21Z</time>
      </trkpt>
      <trkpt lat="46.67139" lon="5.5389">
        <ele>300</ele>
        <time>2023-08-30T09:49:22Z</time>
      </trkpt>
      <trkpt lat="46.67138" lon="5.53892">
        <ele>300.8</ele>
        <time>2023-08-30T09:49:23Z</time>
      </trkpt>
      <trkpt lat="46.67137" lon="5.53894">
        <ele>301</ele>
        <time>2023-08-30T09:49:24Z</time>
      </trkpt>
      <trkpt lat="46.67136" lon="5.53896">
        <ele>301</ele>
        <time>2023-08-30T09:49:25Z</time>
      </trkpt>
      <trkpt lat="46.67135" lon="5.53899">
        <ele>301</ele>
        <time>2023-08-30T09:49:26Z</time>
      </trkpt>
      <trkpt lat="46.67134" lon="5.53901">
        <ele>301</ele>
        <time>2023-08-30T09:49:27Z</time>
      </trkpt>
      <trkpt lat="46.67133" lon="5.53903">
        <ele>301.6</ele>
        <time>2023-08-30T09:49:28Z</time>
      </trkpt>
      <trkpt lat="46.67132" lon="5.53906">
        <ele>301.8</ele>
        <time>2023-08-30T09:49:29Z</time>
      </trkpt>
      <trkpt lat="46.67131" lon="5.53909">
        <ele>301.8</ele>
        <time>2023-08-30T09:49:30Z</time>
      </trkpt>
      <trkpt lat="46.6713" lon="5.5391">
        <ele>301.8</ele>
        <time>2023-08-30T09:49:31Z</time>
      </trkpt>
      <trkpt lat="46.67129" lon="5.53915">
        <ele>302.4</ele>
        <time>2023-08-30T09:49:32Z</time>
      </trkpt>
      <trkpt lat="46.67128" lon="5.53916">
        <ele>302.4</ele>
        <time>2023-08-30T09:49:33Z</time>
      </trkpt>
      <trkpt lat="46.67127" lon="5.53919">
        <ele>302.4</ele>
        <time>2023-08-30T09:49:34Z</time>
      </trkpt>
      <trkpt lat="46.67126" lon="5.53923">
        <ele>302.4</ele>
        <time>2023-08-30T09:49:35Z</time>
      </trkpt>
      <trkpt lat="46.67125" lon="5.53927">
        <ele>302.8</ele>
        <time>2023-08-30T09:49:36Z</time>
      </trkpt>
      <trkpt lat="46.67123" lon="5.53933">
        <ele>302.8</ele>
        <time>2023-08-30T09:49:37Z</time>
      </trkpt>
      <trkpt lat="46.67123" lon="5.53935">
        <ele>303</ele>
        <time>2023-08-30T09:49:38Z</time>
      </trkpt>
      <trkpt lat="46.67122" lon="5.5394">
        <ele>303</ele>
        <time>2023-08-30T09:49:39Z</time>
      </trkpt>
      <trkpt lat="46.6712" lon="5.53945">
        <ele>303</ele>
        <time>2023-08-30T09:49:40Z</time>
      </trkpt>
      <trkpt lat="46.67119" lon="5.53951">
        <ele>303</ele>
        <time>2023-08-30T09:49:41Z</time>
      </trkpt>
      <trkpt lat="46.67116" lon="5.53961">
        <ele>303.2</ele>
        <time>2023-08-30T09:49:42Z</time>
      </trkpt>
      <trkpt lat="46.67115" lon="5.53964">
        <ele>303.2</ele>
        <time>2023-08-30T09:49:43Z</time>
      </trkpt>
      <trkpt lat="46.67113" lon="5.53971">
        <ele>303.2</ele>
        <time>2023-08-30T09:49:44Z</time>
      </trkpt>
      <trkpt lat="46.67111" lon="5.53979">
        <ele>303.2</ele>
        <time>2023-08-30T09:49:45Z</time>
      </trkpt>
      <trkpt lat="46.67109" lon="5.53987">
        <ele>303.2</ele>
        <time>2023-08-30T09:49:46Z</time>
      </trkpt>
      <trkpt lat="46.67106" lon="5.53995">
        <ele>302.8</ele>
        <time>2023-08-30T09:49:47Z</time>
      </trkpt>
      <trkpt lat="46.67103" lon="5.54003">
        <ele>302.8</ele>
        <time>2023-08-30T09:49:48Z</time>
      </trkpt>
      <trkpt lat="46.67098" lon="5.54016">
        <ele>302.8</ele>
        <time>2023-08-30T09:49:49Z</time>
      </trkpt>
      <trkpt lat="46.67096" lon="5.54021">
        <ele>302.8</ele>
        <time>2023-08-30T09:49:50Z</time>
      </trkpt>
      <trkpt lat="46.67091" lon="5.54034">
        <ele>302.8</ele>
        <time>2023-08-30T09:49:51Z</time>
      </trkpt>
      <trkpt lat="46.67089" lon="5.54039">
        <ele>303</ele>
        <time>2023-08-30T09:49:52Z</time>
      </trkpt>
      <trkpt lat="46.67085" lon="5.54047">
        <ele>303</ele>
        <time>2023-08-30T09:49:53Z</time>
      </trkpt>
      <trkpt lat="46.67081" lon="5.54054">
        <ele>303</ele>
        <time>2023-08-30T09:49:54Z</time>
      </trkpt>
      <trkpt lat="46.67076" lon="5.54061">
        <ele>302.8</ele>
        <time>2023-08-30T09:49:55Z</time>
      </trkpt>
      <trkpt lat="46.67073" lon="5.54068">
        <ele>302.4</ele>
        <time>2023-08-30T09:49:56Z</time>
      </trkpt>
      <trkpt lat="46.67069" lon="5.54075">
        <ele>302.4</ele>
        <time>2023-08-30T09:49:57Z</time>
      </trkpt>
      <trkpt lat="46.67065" lon="5.54081">
        <ele>302.4</ele>
        <time>2023-08-30T09:49:58Z</time>
      </trkpt>
      <trkpt lat="46.67062" lon="5.54088">
        <ele>302.4</ele>
        <time>2023-08-30T09:49:59Z</time>
      </trkpt>
      <trkpt lat="46.67058" lon="5.54094">
        <ele>302.4</ele>
        <time>2023-08-30T09:50:00Z</time>
      </trkpt>
      <trkpt lat="46.67055" lon="5.54101">
        <ele>302.6</ele>
        <time>2023-08-30T09:50:01Z</time>
      </trkpt>
      <trkpt lat="46.67052" lon="5.54107">
        <ele>302.6</ele>
        <time>2023-08-30T09:50:02Z</time>
      </trkpt>
      <trkpt lat="46.67048" lon="5.54114">
        <ele>302.6</ele>
        <time>2023-08-30T09:50:03Z</time>
      </trkpt>
      <trkpt lat="46.67045" lon="5.5412">
        <ele>302.4</ele>
        <time>2023-08-30T09:50:04Z</time>
      </trkpt>
      <trkpt lat="46.67041" lon="5.54126">
        <ele>302.4</ele>
        <time>2023-08-30T09:50:05Z</time>
      </trkpt>
      <trkpt lat="46.67037" lon="5.54132">
        <ele>302.2</ele>
        <time>2023-08-30T09:50:06Z</time>
      </trkpt>
      <trkpt lat="46.67034" lon="5.54138">
        <ele>302.2</ele>
        <time>2023-08-30T09:50:07Z</time>
      </trkpt>
      <trkpt lat="46.6703" lon="5.54144">
        <ele>302.2</ele>
        <time>2023-08-30T09:50:08Z</time>
      </trkpt>
      <trkpt lat="46.67025" lon="5.54155">
        <ele>302.2</ele>
        <time>2023-08-30T09:50:09Z</time>
      </trkpt>
      <trkpt lat="46.67023" lon="5.54158">
        <ele>302.2</ele>
        <time>2023-08-30T09:50:10Z</time>
      </trkpt>
      <trkpt lat="46.67019" lon="5.54164">
        <ele>302.2</ele>
        <time>2023-08-30T09:50:11Z</time>
      </trkpt>
      <trkpt lat="46.67016" lon="5.54171">
        <ele>302.2</ele>
        <time>2023-08-30T09:50:12Z</time>
      </trkpt>
      <trkpt lat="46.6701" lon="5.54181">
        <ele>301.6</ele>
        <time>2023-08-30T09:50:13Z</time>
      </trkpt>
      <trkpt lat="46.67008" lon="5.54185">
        <ele>301.2</ele>
        <time>2023-08-30T09:50:14Z</time>
      </trkpt>
      <trkpt lat="46.67002" lon="5.54196">
        <ele>301.2</ele>
        <time>2023-08-30T09:50:15Z</time>
      </trkpt>
      <trkpt lat="46.67" lon="5.542">
        <ele>301.2</ele>
        <time>2023-08-30T09:50:16Z</time>
      </trkpt>
      <trkpt lat="46.66994" lon="5.54211">
        <ele>300.6</ele>
        <time>2023-08-30T09:50:17Z</time>
      </trkpt>
      <trkpt lat="46.66992" lon="5.54215">
        <ele>300.6</ele>
        <time>2023-08-30T09:50:18Z</time>
      </trkpt>
      <trkpt lat="46.66988" lon="5.54223">
        <ele>300.6</ele>
        <time>2023-08-30T09:50:19Z</time>
      </trkpt>
      <trkpt lat="46.66983" lon="5.54231">
        <ele>300.6</ele>
        <time>2023-08-30T09:50:20Z</time>
      </trkpt>
      <trkpt lat="46.66979" lon="5.54239">
        <ele>300.6</ele>
        <time>2023-08-30T09:50:21Z</time>
      </trkpt>
      <trkpt lat="46.66975" lon="5.54247">
        <ele>300.4</ele>
        <time>2023-08-30T09:50:22Z</time>
      </trkpt>
      <trkpt lat="46.66971" lon="5.54254">
        <ele>300.4</ele>
        <time>2023-08-30T09:50:23Z</time>
      </trkpt>
      <trkpt lat="46.66968" lon="5.54262">
        <ele>300.4</ele>
        <time>2023-08-30T09:50:24Z</time>
      </trkpt>
      <trkpt lat="46.66964" lon="5.5427">
        <ele>300.4</ele>
        <time>2023-08-30T09:50:25Z</time>
      </trkpt>
      <trkpt lat="46.6696" lon="5.54278">
        <ele>300.4</ele>
        <time>2023-08-30T09:50:26Z</time>
      </trkpt>
      <trkpt lat="46.66956" lon="5.54284">
        <ele>300.4</ele>
        <time>2023-08-30T09:50:27Z</time>
      </trkpt>
      <trkpt lat="46.66952" lon="5.54292">
        <ele>300.4</ele>
        <time>2023-08-30T09:50:28Z</time>
      </trkpt>
      <trkpt lat="46.66949" lon="5.54299">
        <ele>300.4</ele>
        <time>2023-08-30T09:50:29Z</time>
      </trkpt>
      <trkpt lat="46.66945" lon="5.54306">
        <ele>300.4</ele>
        <time>2023-08-30T09:50:30Z</time>
      </trkpt>
      <trkpt lat="46.66942" lon="5.54313">
        <ele>300.4</ele>
        <time>2023-08-30T09:50:31Z</time>
      </trkpt>
      <trkpt lat="46.66938" lon="5.54318">
        <ele>300.4</ele>
        <time>2023-08-30T09:50:32Z</time>
      </trkpt>
      <trkpt lat="46.66933" lon="5.54323">
        <ele>300</ele>
        <time>2023-08-30T09:50:33Z</time>
      </trkpt>
      <trkpt lat="46.66928" lon="5.54326">
        <ele>300</ele>
        <time>2023-08-30T09:50:34Z</time>
      </trkpt>
      <trkpt lat="46.66923" lon="5.54329">
        <ele>300</ele>
        <time>2023-08-30T09:50:35Z</time>
      </trkpt>
      <trkpt lat="46.66918" lon="5.5433">
        <ele>300.6</ele>
        <time>2023-08-30T09:50:36Z</time>
      </trkpt>
      <trkpt lat="46.66913" lon="5.5433">
        <ele>300.6</ele>
        <time>2023-08-30T09:50:37Z</time>
      </trkpt>
      <trkpt lat="46.66907" lon="5.5433">
        <ele>300</ele>
        <time>2023-08-30T09:50:38Z</time>
      </trkpt>
      <trkpt lat="46.66903" lon="5.54328">
        <ele>300</ele>
        <time>2023-08-30T09:50:39Z</time>
      </trkpt>
      <trkpt lat="46.66898" lon="5.54327">
        <ele>300</ele>
        <time>2023-08-30T09:50:40Z</time>
      </trkpt>
      <trkpt lat="46.66895" lon="5.54327">
        <ele>300.2</ele>
        <time>2023-08-30T09:50:41Z</time>
      </trkpt>
      <trkpt lat="46.66891" lon="5.54327">
        <ele>300.2</ele>
        <time>2023-08-30T09:50:42Z</time>
      </trkpt>
      <trkpt lat="46.66888" lon="5.54329">
        <ele>300.2</ele>
        <time>2023-08-30T09:50:43Z</time>
      </trkpt>
      <trkpt lat="46.66886" lon="5.54331">
        <ele>300.4</ele>
        <time>2023-08-30T09:50:44Z</time>
      </trkpt>
      <trkpt lat="46.66884" lon="5.54333">
        <ele>300.4</ele>
        <time>2023-08-30T09:50:45Z</time>
      </trkpt>
      <trkpt lat="46.66882" lon="5.54335">
        <ele>300.6</ele>
        <time>2023-08-30T09:50:46Z</time>
      </trkpt>
      <trkpt lat="46.6688" lon="5.54337">
        <ele>300.6</ele>
        <time>2023-08-30T09:50:47Z</time>
      </trkpt>
      <trkpt lat="46.66878" lon="5.54339">
        <ele>300.6</ele>
        <time>2023-08-30T09:50:48Z</time>
      </trkpt>
      <trkpt lat="46.66877" lon="5.54341">
        <ele>300.2</ele>
        <time>2023-08-30T09:50:49Z</time>
      </trkpt>
      <trkpt lat="46.66875" lon="5.54344">
        <ele>300.8</ele>
        <time>2023-08-30T09:50:50Z</time>
      </trkpt>
      <trkpt lat="46.66874" lon="5.54347">
        <ele>300.8</ele>
        <time>2023-08-30T09:50:51Z</time>
      </trkpt>
      <trkpt lat="46.66874" lon="5.54351">
        <ele>300.8</ele>
        <time>2023-08-30T09:50:52Z</time>
      </trkpt>
      <trkpt lat="46.66873" lon="5.54354">
        <ele>300.6</ele>
        <time>2023-08-30T09:50:53Z</time>
      </trkpt>
      <trkpt lat="46.66873" lon="5.54358">
        <ele>300.6</ele>
        <time>2023-08-30T09:50:54Z</time>
      </trkpt>
      <trkpt lat="46.66872" lon="5.54362">
        <ele>300.6</ele>
        <time>2023-08-30T09:50:55Z</time>
      </trkpt>
      <trkpt lat="46.66872" lon="5.54366">
        <ele>300.6</ele>
        <time>2023-08-30T09:50:56Z</time>
      </trkpt>
      <trkpt lat="46.66872" lon="5.54371">
        <ele>300.6</ele>
        <time>2023-08-30T09:50:57Z</time>
      </trkpt>
      <trkpt lat="46.66872" lon="5.54375">
        <ele>301</ele>
        <time>2023-08-30T09:50:58Z</time>
      </trkpt>
      <trkpt lat="46.66872" lon="5.54379">
        <ele>301</ele>
        <time>2023-08-30T09:50:59Z</time>
      </trkpt>
      <trkpt lat="46.66872" lon="5.54383">
        <ele>301</ele>
        <time>2023-08-30T09:51:00Z</time>
      </trkpt>
      <trkpt lat="46.66872" lon="5.54386">
        <ele>301</ele>
        <time>2023-08-30T09:51:01Z</time>
      </trkpt>
      <trkpt lat="46.66871" lon="5.54391">
        <ele>301</ele>
        <time>2023-08-30T09:51:02Z</time>
      </trkpt>
      <trkpt lat="46.6687" lon="5.54395">
        <ele>301</ele>
        <time>2023-08-30T09:51:03Z</time>
      </trkpt>
      <trkpt lat="46.66869" lon="5.54398">
        <ele>301</ele>
        <time>2023-08-30T09:51:04Z</time>
      </trkpt>
      <trkpt lat="46.66868" lon="5.54403">
        <ele>301</ele>
        <time>2023-08-30T09:51:05Z</time>
      </trkpt>
      <trkpt lat="46.66867" lon="5.54407">
        <ele>301</ele>
        <time>2023-08-30T09:51:06Z</time>
      </trkpt>
      <trkpt lat="46.66866" lon="5.54411">
        <ele>301</ele>
        <time>2023-08-30T09:51:07Z</time>
      </trkpt>
      <trkpt lat="46.66865" lon="5.54414">
        <ele>301</ele>
        <time>2023-08-30T09:51:08Z</time>
      </trkpt>
      <trkpt lat="46.66866" lon="5.54417">
        <ele>300.6</ele>
        <time>2023-08-30T09:52:24Z</time>
      </trkpt>
      <trkpt lat="46.66865" lon="5.54419">
        <ele>300.4</ele>
        <time>2023-08-30T09:52:25Z</time>
      </trkpt>
      <trkpt lat="46.66863" lon="5.54422">
        <ele>300.4</ele>
        <time>2023-08-30T09:52:26Z</time>
      </trkpt>
      <trkpt lat="46.66862" lon="5.54426">
        <ele>300.4</ele>
        <time>2023-08-30T09:52:27Z</time>
      </trkpt>
      <trkpt lat="46.66861" lon="5.5443">
        <ele>300.4</ele>
        <time>2023-08-30T09:52:28Z</time>
      </trkpt>
      <trkpt lat="46.6686" lon="5.54433">
        <ele>300</ele>
        <time>2023-08-30T09:52:29Z</time>
      </trkpt>
      <trkpt lat="46.66859" lon="5.54437">
        <ele>300</ele>
        <time>2023-08-30T09:52:30Z</time>
      </trkpt>
      <trkpt lat="46.66857" lon="5.54441">
        <ele>300</ele>
        <time>2023-08-30T09:52:31Z</time>
      </trkpt>
      <trkpt lat="46.66856" lon="5.54446">
        <ele>300</ele>
        <time>2023-08-30T09:52:32Z</time>
      </trkpt>
      <trkpt lat="46.66854" lon="5.5445">
        <ele>300</ele>
        <time>2023-08-30T09:52:33Z</time>
      </trkpt>
      <trkpt lat="46.66853" lon="5.54454">
        <ele>300</ele>
        <time>2023-08-30T09:52:34Z</time>
      </trkpt>
      <trkpt lat="46.66852" lon="5.54458">
        <ele>300</ele>
        <time>2023-08-30T09:52:35Z</time>
      </trkpt>
      <trkpt lat="46.66851" lon="5.54461">
        <ele>300</ele>
        <time>2023-08-30T09:52:36Z</time>
      </trkpt>
      <trkpt lat="46.66849" lon="5.54465">
        <ele>300</ele>
        <time>2023-08-30T09:52:37Z</time>
      </trkpt>
      <trkpt lat="46.66847" lon="5.54469">
        <ele>299.8</ele>
        <time>2023-08-30T09:52:38Z</time>
      </trkpt>
      <trkpt lat="46.66845" lon="5.54476">
        <ele>299.8</ele>
        <time>2023-08-30T09:52:39Z</time>
      </trkpt>
      <trkpt lat="46.66844" lon="5.54478">
        <ele>299.8</ele>
        <time>2023-08-30T09:52:40Z</time>
      </trkpt>
      <trkpt lat="46.66842" lon="5.54484">
        <ele>300</ele>
        <time>2023-08-30T09:52:41Z</time>
      </trkpt>
      <trkpt lat="46.6684" lon="5.54491">
        <ele>300.2</ele>
        <time>2023-08-30T09:52:42Z</time>
      </trkpt>
      <trkpt lat="46.66838" lon="5.54496">
        <ele>300.2</ele>
        <time>2023-08-30T09:52:43Z</time>
      </trkpt>
      <trkpt lat="46.66836" lon="5.545">
        <ele>300.2</ele>
        <time>2023-08-30T09:52:44Z</time>
      </trkpt>
      <trkpt lat="46.66834" lon="5.54505">
        <ele>300.2</ele>
        <time>2023-08-30T09:52:45Z</time>
      </trkpt>
      <trkpt lat="46.66832" lon="5.54509">
        <ele>300.2</ele>
        <time>2023-08-30T09:52:46Z</time>
      </trkpt>
      <trkpt lat="46.6683" lon="5.54513">
        <ele>300.4</ele>
        <time>2023-08-30T09:52:47Z</time>
      </trkpt>
      <trkpt lat="46.66829" lon="5.54517">
        <ele>300.4</ele>
        <time>2023-08-30T09:52:48Z</time>
      </trkpt>
      <trkpt lat="46.66827" lon="5.54521">
        <ele>300.4</ele>
        <time>2023-08-30T09:52:49Z</time>
      </trkpt>
      <trkpt lat="46.66825" lon="5.54526">
        <ele>300.4</ele>
        <time>2023-08-30T09:52:50Z</time>
      </trkpt>
      <trkpt lat="46.66824" lon="5.5453">
        <ele>300.4</ele>
        <time>2023-08-30T09:52:51Z</time>
      </trkpt>
      <trkpt lat="46.66822" lon="5.54534">
        <ele>301</ele>
        <time>2023-08-30T09:52:52Z</time>
      </trkpt>
      <trkpt lat="46.66821" lon="5.54539">
        <ele>301</ele>
        <time>2023-08-30T09:52:53Z</time>
      </trkpt>
      <trkpt lat="46.66819" lon="5.54543">
        <ele>301</ele>
        <time>2023-08-30T09:52:54Z</time>
      </trkpt>
      <trkpt lat="46.66818" lon="5.54547">
        <ele>301.4</ele>
        <time>2023-08-30T09:52:55Z</time>
      </trkpt>
      <trkpt lat="46.66817" lon="5.54551">
        <ele>301.6</ele>
        <time>2023-08-30T09:52:56Z</time>
      </trkpt>
      <trkpt lat="46.66815" lon="5.54555">
        <ele>301.6</ele>
        <time>2023-08-30T09:52:57Z</time>
      </trkpt>
      <trkpt lat="46.66813" lon="5.54558">
        <ele>301.6</ele>
        <time>2023-08-30T09:52:58Z</time>
      </trkpt>
      <trkpt lat="46.66811" lon="5.54561">
        <ele>301.6</ele>
        <time>2023-08-30T09:52:59Z</time>
      </trkpt>
      <trkpt lat="46.66809" lon="5.54566">
        <ele>301.8</ele>
        <time>2023-08-30T09:53:00Z</time>
      </trkpt>
      <trkpt lat="46.66808" lon="5.5457">
        <ele>301.8</ele>
        <time>2023-08-30T09:53:01Z</time>
      </trkpt>
      <trkpt lat="46.66807" lon="5.54574">
        <ele>301.8</ele>
        <time>2023-08-30T09:53:02Z</time>
      </trkpt>
      <trkpt lat="46.66806" lon="5.54578">
        <ele>301.8</ele>
        <time>2023-08-30T09:53:03Z</time>
      </trkpt>
      <trkpt lat="46.66805" lon="5.54582">
        <ele>302.2</ele>
        <time>2023-08-30T09:53:04Z</time>
      </trkpt>
      <trkpt lat="46.66803" lon="5.54587">
        <ele>302.2</ele>
        <time>2023-08-30T09:53:05Z</time>
      </trkpt>
      <trkpt lat="46.66801" lon="5.5459">
        <ele>302.2</ele>
        <time>2023-08-30T09:53:06Z</time>
      </trkpt>
      <trkpt lat="46.66799" lon="5.54593">
        <ele>302.2</ele>
        <time>2023-08-30T09:53:07Z</time>
      </trkpt>
      <trkpt lat="46.66796" lon="5.54594">
        <ele>302.2</ele>
        <time>2023-08-30T09:53:08Z</time>
      </trkpt>
      <trkpt lat="46.66793" lon="5.54593">
        <ele>302.4</ele>
        <time>2023-08-30T09:53:09Z</time>
      </trkpt>
      <trkpt lat="46.6679" lon="5.54592">
        <ele>302.6</ele>
        <time>2023-08-30T09:53:10Z</time>
      </trkpt>
      <trkpt lat="46.66788" lon="5.54591">
        <ele>302.6</ele>
        <time>2023-08-30T09:53:11Z</time>
      </trkpt>
      <trkpt lat="46.66786" lon="5.54589">
        <ele>302.6</ele>
        <time>2023-08-30T09:53:12Z</time>
      </trkpt>
      <trkpt lat="46.66784" lon="5.54588">
        <ele>302.6</ele>
        <time>2023-08-30T09:53:13Z</time>
      </trkpt>
      <trkpt lat="46.66781" lon="5.54587">
        <ele>303.2</ele>
        <time>2023-08-30T09:53:14Z</time>
      </trkpt>
      <trkpt lat="46.66779" lon="5.54585">
        <ele>303.2</ele>
        <time>2023-08-30T09:53:15Z</time>
      </trkpt>
      <trkpt lat="46.66777" lon="5.54584">
        <ele>303.2</ele>
        <time>2023-08-30T09:53:16Z</time>
      </trkpt>
      <trkpt lat="46.66775" lon="5.54583">
        <ele>303.2</ele>
        <time>2023-08-30T09:53:17Z</time>
      </trkpt>
      <trkpt lat="46.66773" lon="5.54582">
        <ele>303.6</ele>
        <time>2023-08-30T09:53:18Z</time>
      </trkpt>
      <trkpt lat="46.66771" lon="5.5458">
        <ele>303.6</ele>
        <time>2023-08-30T09:53:19Z</time>
      </trkpt>
      <trkpt lat="46.66769" lon="5.54579">
        <ele>303.6</ele>
        <time>2023-08-30T09:53:20Z</time>
      </trkpt>
      <trkpt lat="46.66768" lon="5.54578">
        <ele>303.6</ele>
        <time>2023-08-30T09:53:21Z</time>
      </trkpt>
      <trkpt lat="46.66766" lon="5.54576">
        <ele>303.6</ele>
        <time>2023-08-30T09:53:22Z</time>
      </trkpt>
      <trkpt lat="46.66765" lon="5.54574">
        <ele>304</ele>
        <time>2023-08-30T09:53:23Z</time>
      </trkpt>
      <trkpt lat="46.66763" lon="5.54573">
        <ele>304</ele>
        <time>2023-08-30T09:53:24Z</time>
      </trkpt>
      <trkpt lat="46.66762" lon="5.54571">
        <ele>304</ele>
        <time>2023-08-30T09:53:25Z</time>
      </trkpt>
      <trkpt lat="46.66761" lon="5.54569">
        <ele>304.4</ele>
        <time>2023-08-30T09:53:26Z</time>
      </trkpt>
      <trkpt lat="46.6676" lon="5.54569">
        <ele>304.4</ele>
        <time>2023-08-30T09:53:27Z</time>
      </trkpt>
      <trkpt lat="46.66755" lon="5.54564">
        <ele>303.4</ele>
        <time>2023-08-30T09:54:25Z</time>
      </trkpt>
      <trkpt lat="46.66754" lon="5.54563">
        <ele>303.4</ele>
        <time>2023-08-30T09:54:26Z</time>
      </trkpt>
      <trkpt lat="46.66752" lon="5.54562">
        <ele>303.6</ele>
        <time>2023-08-30T09:54:27Z</time>
      </trkpt>
      <trkpt lat="46.66751" lon="5.5456">
        <ele>303.6</ele>
        <time>2023-08-30T09:54:28Z</time>
      </trkpt>
      <trkpt lat="46.66749" lon="5.54559">
        <ele>303.6</ele>
        <time>2023-08-30T09:54:29Z</time>
      </trkpt>
      <trkpt lat="46.66748" lon="5.54557">
        <ele>303.6</ele>
        <time>2023-08-30T09:54:30Z</time>
      </trkpt>
      <trkpt lat="46.66746" lon="5.54556">
        <ele>303.6</ele>
        <time>2023-08-30T09:54:31Z</time>
      </trkpt>
      <trkpt lat="46.66745" lon="5.54554">
        <ele>303.6</ele>
        <time>2023-08-30T09:54:32Z</time>
      </trkpt>
      <trkpt lat="46.66742" lon="5.54552">
        <ele>303.8</ele>
        <time>2023-08-30T09:54:33Z</time>
      </trkpt>
      <trkpt lat="46.6674" lon="5.54551">
        <ele>303.8</ele>
        <time>2023-08-30T09:54:34Z</time>
      </trkpt>
      <trkpt lat="46.66738" lon="5.5455">
        <ele>303.8</ele>
        <time>2023-08-30T09:54:35Z</time>
      </trkpt>
      <trkpt lat="46.66735" lon="5.54548">
        <ele>304.2</ele>
        <time>2023-08-30T09:54:36Z</time>
      </trkpt>
      <trkpt lat="46.66733" lon="5.54546">
        <ele>304.2</ele>
        <time>2023-08-30T09:54:37Z</time>
      </trkpt>
      <trkpt lat="46.66731" lon="5.54544">
        <ele>304.2</ele>
        <time>2023-08-30T09:54:38Z</time>
      </trkpt>
      <trkpt lat="46.6673" lon="5.54542">
        <ele>304.2</ele>
        <time>2023-08-30T09:54:39Z</time>
      </trkpt>
      <trkpt lat="46.66728" lon="5.54539">
        <ele>304.6</ele>
        <time>2023-08-30T09:54:40Z</time>
      </trkpt>
      <trkpt lat="46.66725" lon="5.54538">
        <ele>305</ele>
        <time>2023-08-30T09:54:41Z</time>
      </trkpt>
      <trkpt lat="46.66723" lon="5.54536">
        <ele>305</ele>
        <time>2023-08-30T09:54:42Z</time>
      </trkpt>
      <trkpt lat="46.66721" lon="5.54534">
        <ele>305</ele>
        <time>2023-08-30T09:54:43Z</time>
      </trkpt>
      <trkpt lat="46.66719" lon="5.54532">
        <ele>305</ele>
        <time>2023-08-30T09:54:44Z</time>
      </trkpt>
      <trkpt lat="46.66717" lon="5.54531">
        <ele>305.8</ele>
        <time>2023-08-30T09:54:45Z</time>
      </trkpt>
      <trkpt lat="46.66714" lon="5.54529">
        <ele>305.8</ele>
        <time>2023-08-30T09:54:46Z</time>
      </trkpt>
      <trkpt lat="46.66712" lon="5.54527">
        <ele>305.8</ele>
        <time>2023-08-30T09:54:47Z</time>
      </trkpt>
      <trkpt lat="46.6671" lon="5.54525">
        <ele>305.8</ele>
        <time>2023-08-30T09:54:48Z</time>
      </trkpt>
      <trkpt lat="46.66708" lon="5.54523">
        <ele>305.8</ele>
        <time>2023-08-30T09:54:49Z</time>
      </trkpt>
      <trkpt lat="46.66706" lon="5.54521">
        <ele>306.4</ele>
        <time>2023-08-30T09:54:50Z</time>
      </trkpt>
      <trkpt lat="46.66704" lon="5.54519">
        <ele>306.4</ele>
        <time>2023-08-30T09:54:51Z</time>
      </trkpt>
      <trkpt lat="46.66702" lon="5.54518">
        <ele>306.4</ele>
        <time>2023-08-30T09:54:52Z</time>
      </trkpt>
      <trkpt lat="46.66699" lon="5.54516">
        <ele>307</ele>
        <time>2023-08-30T09:54:53Z</time>
      </trkpt>
      <trkpt lat="46.66697" lon="5.54514">
        <ele>307.2</ele>
        <time>2023-08-30T09:54:54Z</time>
      </trkpt>
      <trkpt lat="46.66695" lon="5.54513">
        <ele>307.2</ele>
        <time>2023-08-30T09:54:55Z</time>
      </trkpt>
      <trkpt lat="46.66693" lon="5.54511">
        <ele>307.2</ele>
        <time>2023-08-30T09:54:56Z</time>
      </trkpt>
      <trkpt lat="46.6669" lon="5.54509">
        <ele>308</ele>
        <time>2023-08-30T09:54:57Z</time>
      </trkpt>
      <trkpt lat="46.66688" lon="5.54507">
        <ele>308</ele>
        <time>2023-08-30T09:54:58Z</time>
      </trkpt>
      <trkpt lat="46.66686" lon="5.54505">
        <ele>308.2</ele>
        <time>2023-08-30T09:54:59Z</time>
      </trkpt>
      <trkpt lat="46.66684" lon="5.54503">
        <ele>308.2</ele>
        <time>2023-08-30T09:55:00Z</time>
      </trkpt>
      <trkpt lat="46.66681" lon="5.54501">
        <ele>308.2</ele>
        <time>2023-08-30T09:55:01Z</time>
      </trkpt>
      <trkpt lat="46.66679" lon="5.54499">
        <ele>308.8</ele>
        <time>2023-08-30T09:55:02Z</time>
      </trkpt>
      <trkpt lat="46.66676" lon="5.54497">
        <ele>309</ele>
        <time>2023-08-30T09:55:03Z</time>
      </trkpt>
      <trkpt lat="46.66674" lon="5.54496">
        <ele>309</ele>
        <time>2023-08-30T09:55:04Z</time>
      </trkpt>
      <trkpt lat="46.66672" lon="5.54495">
        <ele>309</ele>
        <time>2023-08-30T09:55:05Z</time>
      </trkpt>
      <trkpt lat="46.6667" lon="5.54493">
        <ele>309.6</ele>
        <time>2023-08-30T09:55:06Z</time>
      </trkpt>
      <trkpt lat="46.66667" lon="5.54491">
        <ele>309.8</ele>
        <time>2023-08-30T09:55:07Z</time>
      </trkpt>
      <trkpt lat="46.66664" lon="5.54488">
        <ele>309.8</ele>
        <time>2023-08-30T09:55:08Z</time>
      </trkpt>
      <trkpt lat="46.66664" lon="5.54487">
        <ele>309.8</ele>
        <time>2023-08-30T09:55:09Z</time>
      </trkpt>
      <trkpt lat="46.66661" lon="5.54485">
        <ele>309.8</ele>
        <time>2023-08-30T09:55:10Z</time>
      </trkpt>
      <trkpt lat="46.66659" lon="5.54483">
        <ele>309.8</ele>
        <time>2023-08-30T09:55:11Z</time>
      </trkpt>
      <trkpt lat="46.66657" lon="5.54481">
        <ele>310.2</ele>
        <time>2023-08-30T09:55:12Z</time>
      </trkpt>
      <trkpt lat="46.66655" lon="5.54479">
        <ele>310.4</ele>
        <time>2023-08-30T09:55:13Z</time>
      </trkpt>
      <trkpt lat="46.66653" lon="5.54477">
        <ele>310.4</ele>
        <time>2023-08-30T09:55:14Z</time>
      </trkpt>
      <trkpt lat="46.66651" lon="5.54475">
        <ele>310.4</ele>
        <time>2023-08-30T09:55:15Z</time>
      </trkpt>
      <trkpt lat="46.66649" lon="5.54473">
        <ele>310.4</ele>
        <time>2023-08-30T09:55:16Z</time>
      </trkpt>
      <trkpt lat="46.66646" lon="5.54471">
        <ele>311.2</ele>
        <time>2023-08-30T09:55:17Z</time>
      </trkpt>
      <trkpt lat="46.66644" lon="5.54469">
        <ele>311.2</ele>
        <time>2023-08-30T09:55:18Z</time>
      </trkpt>
      <trkpt lat="46.66642" lon="5.54467">
        <ele>311.2</ele>
        <time>2023-08-30T09:55:19Z</time>
      </trkpt>
      <trkpt lat="46.6664" lon="5.54465">
        <ele>311.2</ele>
        <time>2023-08-30T09:55:20Z</time>
      </trkpt>
      <trkpt lat="46.66638" lon="5.54463">
        <ele>311.8</ele>
        <time>2023-08-30T09:55:21Z</time>
      </trkpt>
      <trkpt lat="46.66635" lon="5.54461">
        <ele>310.4</ele>
        <time>2023-08-30T09:55:22Z</time>
      </trkpt>
      <trkpt lat="46.66633" lon="5.5446">
        <ele>310.4</ele>
        <time>2023-08-30T09:55:23Z</time>
      </trkpt>
      <trkpt lat="46.66631" lon="5.54458">
        <ele>310.4</ele>
        <time>2023-08-30T09:55:24Z</time>
      </trkpt>
      <trkpt lat="46.66629" lon="5.54457">
        <ele>310.4</ele>
        <time>2023-08-30T09:55:25Z</time>
      </trkpt>
      <trkpt lat="46.66627" lon="5.54456">
        <ele>311.6</ele>
        <time>2023-08-30T09:55:26Z</time>
      </trkpt>
      <trkpt lat="46.66624" lon="5.54454">
        <ele>311.6</ele>
        <time>2023-08-30T09:55:27Z</time>
      </trkpt>
      <trkpt lat="46.66622" lon="5.54452">
        <ele>311.6</ele>
        <time>2023-08-30T09:55:28Z</time>
      </trkpt>
      <trkpt lat="46.66621" lon="5.5445">
        <ele>312.6</ele>
        <time>2023-08-30T09:55:29Z</time>
      </trkpt>
      <trkpt lat="46.66619" lon="5.54447">
        <ele>312.6</ele>
        <time>2023-08-30T09:55:30Z</time>
      </trkpt>
      <trkpt lat="46.66617" lon="5.54445">
        <ele>312.8</ele>
        <time>2023-08-30T09:55:31Z</time>
      </trkpt>
      <trkpt lat="46.66615" lon="5.54442">
        <ele>312.8</ele>
        <time>2023-08-30T09:55:32Z</time>
      </trkpt>
      <trkpt lat="46.66614" lon="5.5444">
        <ele>313.6</ele>
        <time>2023-08-30T09:55:33Z</time>
      </trkpt>
      <trkpt lat="46.66612" lon="5.54438">
        <ele>313.8</ele>
        <time>2023-08-30T09:55:34Z</time>
      </trkpt>
      <trkpt lat="46.6661" lon="5.54436">
        <ele>313.8</ele>
        <time>2023-08-30T09:55:35Z</time>
      </trkpt>
      <trkpt lat="46.66609" lon="5.54434">
        <ele>313.8</ele>
        <time>2023-08-30T09:55:36Z</time>
      </trkpt>
      <trkpt lat="46.66607" lon="5.54432">
        <ele>313.8</ele>
        <time>2023-08-30T09:55:37Z</time>
      </trkpt>
      <trkpt lat="46.66605" lon="5.5443">
        <ele>314.4</ele>
        <time>2023-08-30T09:55:38Z</time>
      </trkpt>
      <trkpt lat="46.66603" lon="5.54428">
        <ele>314.4</ele>
        <time>2023-08-30T09:55:39Z</time>
      </trkpt>
      <trkpt lat="46.66601" lon="5.54425">
        <ele>314.4</ele>
        <time>2023-08-30T09:55:40Z</time>
      </trkpt>
      <trkpt lat="46.66599" lon="5.54423">
        <ele>314.4</ele>
        <time>2023-08-30T09:55:41Z</time>
      </trkpt>
      <trkpt lat="46.66597" lon="5.54421">
        <ele>315</ele>
        <time>2023-08-30T09:55:42Z</time>
      </trkpt>
      <trkpt lat="46.66596" lon="5.54419">
        <ele>315.4</ele>
        <time>2023-08-30T09:55:43Z</time>
      </trkpt>
      <trkpt lat="46.66594" lon="5.54417">
        <ele>315.4</ele>
        <time>2023-08-30T09:55:44Z</time>
      </trkpt>
      <trkpt lat="46.66591" lon="5.54413">
        <ele>315.4</ele>
        <time>2023-08-30T09:55:45Z</time>
      </trkpt>
      <trkpt lat="46.6659" lon="5.54412">
        <ele>315.4</ele>
        <time>2023-08-30T09:55:46Z</time>
      </trkpt>
      <trkpt lat="46.66587" lon="5.5441">
        <ele>315.4</ele>
        <time>2023-08-30T09:55:47Z</time>
      </trkpt>
      <trkpt lat="46.66585" lon="5.54408">
        <ele>315.8</ele>
        <time>2023-08-30T09:55:48Z</time>
      </trkpt>
      <trkpt lat="46.66583" lon="5.54406">
        <ele>316</ele>
        <time>2023-08-30T09:55:49Z</time>
      </trkpt>
      <trkpt lat="46.66581" lon="5.54404">
        <ele>316</ele>
        <time>2023-08-30T09:55:50Z</time>
      </trkpt>
      <trkpt lat="46.66579" lon="5.54401">
        <ele>316</ele>
        <time>2023-08-30T09:55:51Z</time>
      </trkpt>
      <trkpt lat="46.66577" lon="5.54399">
        <ele>316.8</ele>
        <time>2023-08-30T09:55:52Z</time>
      </trkpt>
      <trkpt lat="46.66575" lon="5.54397">
        <ele>316.8</ele>
        <time>2023-08-30T09:55:53Z</time>
      </trkpt>
      <trkpt lat="46.66573" lon="5.54395">
        <ele>317</ele>
        <time>2023-08-30T09:55:54Z</time>
      </trkpt>
      <trkpt lat="46.66571" lon="5.54393">
        <ele>317</ele>
        <time>2023-08-30T09:55:55Z</time>
      </trkpt>
      <trkpt lat="46.66569" lon="5.54391">
        <ele>317.6</ele>
        <time>2023-08-30T09:55:56Z</time>
      </trkpt>
      <trkpt lat="46.66567" lon="5.54389">
        <ele>317.6</ele>
        <time>2023-08-30T09:55:57Z</time>
      </trkpt>
      <trkpt lat="46.66564" lon="5.54387">
        <ele>317.8</ele>
        <time>2023-08-30T09:55:58Z</time>
      </trkpt>
      <trkpt lat="46.66562" lon="5.54385">
        <ele>317.8</ele>
        <time>2023-08-30T09:55:59Z</time>
      </trkpt>
      <trkpt lat="46.6656" lon="5.54383">
        <ele>317.8</ele>
        <time>2023-08-30T09:56:00Z</time>
      </trkpt>
      <trkpt lat="46.66557" lon="5.54382">
        <ele>317.8</ele>
        <time>2023-08-30T09:56:01Z</time>
      </trkpt>
      <trkpt lat="46.66553" lon="5.54379">
        <ele>318.6</ele>
        <time>2023-08-30T09:56:02Z</time>
      </trkpt>
      <trkpt lat="46.66552" lon="5.54378">
        <ele>318.6</ele>
        <time>2023-08-30T09:56:03Z</time>
      </trkpt>
      <trkpt lat="46.66548" lon="5.54376">
        <ele>318.6</ele>
        <time>2023-08-30T09:56:04Z</time>
      </trkpt>
      <trkpt lat="46.66546" lon="5.54375">
        <ele>319.2</ele>
        <time>2023-08-30T09:56:05Z</time>
      </trkpt>
      <trkpt lat="46.66542" lon="5.54373">
        <ele>319.2</ele>
        <time>2023-08-30T09:56:06Z</time>
      </trkpt>
      <trkpt lat="46.66541" lon="5.54372">
        <ele>319.2</ele>
        <time>2023-08-30T09:56:07Z</time>
      </trkpt>
      <trkpt lat="46.66539" lon="5.54371">
        <ele>319.2</ele>
        <time>2023-08-30T09:56:08Z</time>
      </trkpt>
      <trkpt lat="46.66536" lon="5.54369">
        <ele>319.2</ele>
        <time>2023-08-30T09:56:09Z</time>
      </trkpt>
      <trkpt lat="46.66533" lon="5.54368">
        <ele>320</ele>
        <time>2023-08-30T09:56:10Z</time>
      </trkpt>
      <trkpt lat="46.6653" lon="5.54367">
        <ele>320.2</ele>
        <time>2023-08-30T09:56:11Z</time>
      </trkpt>
      <trkpt lat="46.66528" lon="5.54365">
        <ele>320.2</ele>
        <time>2023-08-30T09:56:12Z</time>
      </trkpt>
      <trkpt lat="46.66525" lon="5.54364">
        <ele>320.2</ele>
        <time>2023-08-30T09:56:13Z</time>
      </trkpt>
      <trkpt lat="46.66522" lon="5.54362">
        <ele>320.6</ele>
        <time>2023-08-30T09:56:14Z</time>
      </trkpt>
      <trkpt lat="46.6652" lon="5.5436">
        <ele>320.8</ele>
        <time>2023-08-30T09:56:15Z</time>
      </trkpt>
      <trkpt lat="46.66517" lon="5.54358">
        <ele>320.8</ele>
        <time>2023-08-30T09:56:16Z</time>
      </trkpt>
      <trkpt lat="46.66514" lon="5.54357">
        <ele>320.8</ele>
        <time>2023-08-30T09:56:17Z</time>
      </trkpt>
      <trkpt lat="46.66512" lon="5.54356">
        <ele>321.2</ele>
        <time>2023-08-30T09:56:18Z</time>
      </trkpt>
      <trkpt lat="46.66509" lon="5.54354">
        <ele>321.4</ele>
        <time>2023-08-30T09:56:19Z</time>
      </trkpt>
      <trkpt lat="46.66507" lon="5.54353">
        <ele>321.4</ele>
        <time>2023-08-30T09:56:20Z</time>
      </trkpt>
      <trkpt lat="46.66504" lon="5.54352">
        <ele>321.4</ele>
        <time>2023-08-30T09:56:21Z</time>
      </trkpt>
      <trkpt lat="46.66501" lon="5.5435">
        <ele>321.4</ele>
        <time>2023-08-30T09:56:22Z</time>
      </trkpt>
      <trkpt lat="46.66499" lon="5.54349">
        <ele>322</ele>
        <time>2023-08-30T09:56:23Z</time>
      </trkpt>
      <trkpt lat="46.66496" lon="5.54348">
        <ele>322</ele>
        <time>2023-08-30T09:56:24Z</time>
      </trkpt>
      <trkpt lat="46.66494" lon="5.54347">
        <ele>322</ele>
        <time>2023-08-30T09:56:25Z</time>
      </trkpt>
      <trkpt lat="46.66491" lon="5.54345">
        <ele>322</ele>
        <time>2023-08-30T09:56:26Z</time>
      </trkpt>
      <trkpt lat="46.66489" lon="5.54344">
        <ele>322</ele>
        <time>2023-08-30T09:56:27Z</time>
      </trkpt>
      <trkpt lat="46.66486" lon="5.54342">
        <ele>322.8</ele>
        <time>2023-08-30T09:56:28Z</time>
      </trkpt>
      <trkpt lat="46.66483" lon="5.54341">
        <ele>322.8</ele>
        <time>2023-08-30T09:56:29Z</time>
      </trkpt>
      <trkpt lat="46.66481" lon="5.5434">
        <ele>322.8</ele>
        <time>2023-08-30T09:56:30Z</time>
      </trkpt>
      <trkpt lat="46.66478" lon="5.54339">
        <ele>322.8</ele>
        <time>2023-08-30T09:56:31Z</time>
      </trkpt>
      <trkpt lat="46.66475" lon="5.54337">
        <ele>322.8</ele>
        <time>2023-08-30T09:56:32Z</time>
      </trkpt>
      <trkpt lat="46.66472" lon="5.54335">
        <ele>323.4</ele>
        <time>2023-08-30T09:56:33Z</time>
      </trkpt>
      <trkpt lat="46.6647" lon="5.54333">
        <ele>323.6</ele>
        <time>2023-08-30T09:56:34Z</time>
      </trkpt>
      <trkpt lat="46.66467" lon="5.54332">
        <ele>323.6</ele>
        <time>2023-08-30T09:56:35Z</time>
      </trkpt>
      <trkpt lat="46.66464" lon="5.5433">
        <ele>323.6</ele>
        <time>2023-08-30T09:56:36Z</time>
      </trkpt>
      <trkpt lat="46.66462" lon="5.54328">
        <ele>323.6</ele>
        <time>2023-08-30T09:56:37Z</time>
      </trkpt>
      <trkpt lat="46.66459" lon="5.54327">
        <ele>323.6</ele>
        <time>2023-08-30T09:56:38Z</time>
      </trkpt>
      <trkpt lat="46.66457" lon="5.54325">
        <ele>323.8</ele>
        <time>2023-08-30T09:56:39Z</time>
      </trkpt>
      <trkpt lat="46.66454" lon="5.54322">
        <ele>323.8</ele>
        <time>2023-08-30T09:56:40Z</time>
      </trkpt>
      <trkpt lat="46.66452" lon="5.5432">
        <ele>324.6</ele>
        <time>2023-08-30T09:56:41Z</time>
      </trkpt>
      <trkpt lat="46.6645" lon="5.54318">
        <ele>324.6</ele>
        <time>2023-08-30T09:56:42Z</time>
      </trkpt>
      <trkpt lat="46.66447" lon="5.54317">
        <ele>324.6</ele>
        <time>2023-08-30T09:56:43Z</time>
      </trkpt>
      <trkpt lat="46.66445" lon="5.54315">
        <ele>324.6</ele>
        <time>2023-08-30T09:56:44Z</time>
      </trkpt>
      <trkpt lat="46.66441" lon="5.54312">
        <ele>324.6</ele>
        <time>2023-08-30T09:56:45Z</time>
      </trkpt>
      <trkpt lat="46.66439" lon="5.54311">
        <ele>325</ele>
        <time>2023-08-30T09:56:46Z</time>
      </trkpt>
      <trkpt lat="46.66435" lon="5.54308">
        <ele>325.2</ele>
        <time>2023-08-30T09:56:47Z</time>
      </trkpt>
      <trkpt lat="46.66434" lon="5.54308">
        <ele>325.2</ele>
        <time>2023-08-30T09:56:48Z</time>
      </trkpt>
      <trkpt lat="46.66432" lon="5.54306">
        <ele>325.2</ele>
        <time>2023-08-30T09:56:49Z</time>
      </trkpt>
      <trkpt lat="46.66429" lon="5.54304">
        <ele>325.2</ele>
        <time>2023-08-30T09:56:50Z</time>
      </trkpt>
      <trkpt lat="46.66427" lon="5.54302">
        <ele>325.8</ele>
        <time>2023-08-30T09:56:51Z</time>
      </trkpt>
      <trkpt lat="46.66424" lon="5.543">
        <ele>325.8</ele>
        <time>2023-08-30T09:56:52Z</time>
      </trkpt>
      <trkpt lat="46.66422" lon="5.54297">
        <ele>325.8</ele>
        <time>2023-08-30T09:56:53Z</time>
      </trkpt>
      <trkpt lat="46.6642" lon="5.54294">
        <ele>325.8</ele>
        <time>2023-08-30T09:56:54Z</time>
      </trkpt>
      <trkpt lat="46.66418" lon="5.54291">
        <ele>326.2</ele>
        <time>2023-08-30T09:56:55Z</time>
      </trkpt>
      <trkpt lat="46.66416" lon="5.54289">
        <ele>326.2</ele>
        <time>2023-08-30T09:56:56Z</time>
      </trkpt>
      <trkpt lat="46.66414" lon="5.54286">
        <ele>326.2</ele>
        <time>2023-08-30T09:56:57Z</time>
      </trkpt>
      <trkpt lat="46.66412" lon="5.54284">
        <ele>326.2</ele>
        <time>2023-08-30T09:56:58Z</time>
      </trkpt>
      <trkpt lat="46.66409" lon="5.54282">
        <ele>326.8</ele>
        <time>2023-08-30T09:56:59Z</time>
      </trkpt>
      <trkpt lat="46.66407" lon="5.54281">
        <ele>327</ele>
        <time>2023-08-30T09:57:00Z</time>
      </trkpt>
      <trkpt lat="46.66404" lon="5.5428">
        <ele>327</ele>
        <time>2023-08-30T09:57:01Z</time>
      </trkpt>
      <trkpt lat="46.66401" lon="5.5428">
        <ele>327</ele>
        <time>2023-08-30T09:57:02Z</time>
      </trkpt>
      <trkpt lat="46.66399" lon="5.54279">
        <ele>327</ele>
        <time>2023-08-30T09:57:03Z</time>
      </trkpt>
      <trkpt lat="46.66396" lon="5.54279">
        <ele>327.4</ele>
        <time>2023-08-30T09:57:04Z</time>
      </trkpt>
      <trkpt lat="46.66393" lon="5.54279">
        <ele>327.4</ele>
        <time>2023-08-30T09:57:05Z</time>
      </trkpt>
      <trkpt lat="46.6639" lon="5.54278">
        <ele>327.4</ele>
        <time>2023-08-30T09:57:06Z</time>
      </trkpt>
      <trkpt lat="46.66387" lon="5.54277">
        <ele>327.4</ele>
        <time>2023-08-30T09:57:07Z</time>
      </trkpt>
      <trkpt lat="46.66384" lon="5.54276">
        <ele>327.8</ele>
        <time>2023-08-30T09:57:08Z</time>
      </trkpt>
      <trkpt lat="46.66382" lon="5.54275">
        <ele>327.8</ele>
        <time>2023-08-30T09:57:09Z</time>
      </trkpt>
      <trkpt lat="46.66379" lon="5.54274">
        <ele>327.8</ele>
        <time>2023-08-30T09:57:10Z</time>
      </trkpt>
      <trkpt lat="46.66376" lon="5.54273">
        <ele>327.8</ele>
        <time>2023-08-30T09:57:11Z</time>
      </trkpt>
      <trkpt lat="46.66373" lon="5.54271">
        <ele>327.8</ele>
        <time>2023-08-30T09:57:12Z</time>
      </trkpt>
      <trkpt lat="46.66371" lon="5.5427">
        <ele>328.2</ele>
        <time>2023-08-30T09:57:13Z</time>
      </trkpt>
      <trkpt lat="46.66368" lon="5.54268">
        <ele>328.4</ele>
        <time>2023-08-30T09:57:14Z</time>
      </trkpt>
      <trkpt lat="46.66365" lon="5.54266">
        <ele>328.4</ele>
        <time>2023-08-30T09:57:15Z</time>
      </trkpt>
      <trkpt lat="46.66363" lon="5.54265">
        <ele>328.4</ele>
        <time>2023-08-30T09:57:16Z</time>
      </trkpt>
      <trkpt lat="46.6636" lon="5.54264">
        <ele>328.4</ele>
        <time>2023-08-30T09:57:17Z</time>
      </trkpt>
      <trkpt lat="46.66358" lon="5.54262">
        <ele>328.8</ele>
        <time>2023-08-30T09:57:18Z</time>
      </trkpt>
      <trkpt lat="46.66355" lon="5.54261">
        <ele>329</ele>
        <time>2023-08-30T09:57:19Z</time>
      </trkpt>
      <trkpt lat="46.66352" lon="5.54259">
        <ele>329</ele>
        <time>2023-08-30T09:57:20Z</time>
      </trkpt>
      <trkpt lat="46.6635" lon="5.54258">
        <ele>329</ele>
        <time>2023-08-30T09:57:21Z</time>
      </trkpt>
      <trkpt lat="46.66347" lon="5.54256">
        <ele>329.4</ele>
        <time>2023-08-30T09:57:22Z</time>
      </trkpt>
      <trkpt lat="46.66345" lon="5.54255">
        <ele>329.6</ele>
        <time>2023-08-30T09:57:23Z</time>
      </trkpt>
      <trkpt lat="46.66342" lon="5.54253">
        <ele>329.6</ele>
        <time>2023-08-30T09:57:24Z</time>
      </trkpt>
      <trkpt lat="46.6634" lon="5.54251">
        <ele>329.6</ele>
        <time>2023-08-30T09:57:25Z</time>
      </trkpt>
      <trkpt lat="46.66338" lon="5.54249">
        <ele>330</ele>
        <time>2023-08-30T09:57:26Z</time>
      </trkpt>
      <trkpt lat="46.66335" lon="5.54247">
        <ele>330</ele>
        <time>2023-08-30T09:57:27Z</time>
      </trkpt>
      <trkpt lat="46.66331" lon="5.54245">
        <ele>330.2</ele>
        <time>2023-08-30T09:57:28Z</time>
      </trkpt>
      <trkpt lat="46.6633" lon="5.54245">
        <ele>330.2</ele>
        <time>2023-08-30T09:57:29Z</time>
      </trkpt>
      <trkpt lat="46.66326" lon="5.54242">
        <ele>330.2</ele>
        <time>2023-08-30T09:57:30Z</time>
      </trkpt>
      <trkpt lat="46.66325" lon="5.54241">
        <ele>330.4</ele>
        <time>2023-08-30T09:57:31Z</time>
      </trkpt>
      <trkpt lat="46.66323" lon="5.54239">
        <ele>330.6</ele>
        <time>2023-08-30T09:57:32Z</time>
      </trkpt>
      <trkpt lat="46.6632" lon="5.54238">
        <ele>330.6</ele>
        <time>2023-08-30T09:57:33Z</time>
      </trkpt>
      <trkpt lat="46.66318" lon="5.54237">
        <ele>330.6</ele>
        <time>2023-08-30T09:57:34Z</time>
      </trkpt>
      <trkpt lat="46.66315" lon="5.54236">
        <ele>331</ele>
        <time>2023-08-30T09:57:35Z</time>
      </trkpt>
      <trkpt lat="46.66313" lon="5.54235">
        <ele>331.2</ele>
        <time>2023-08-30T09:57:36Z</time>
      </trkpt>
      <trkpt lat="46.66311" lon="5.54233">
        <ele>331.2</ele>
        <time>2023-08-30T09:57:37Z</time>
      </trkpt>
      <trkpt lat="46.66309" lon="5.54231">
        <ele>331.2</ele>
        <time>2023-08-30T09:57:38Z</time>
      </trkpt>
      <trkpt lat="46.66306" lon="5.54229">
        <ele>331.2</ele>
        <time>2023-08-30T09:57:39Z</time>
      </trkpt>
      <trkpt lat="46.66304" lon="5.54228">
        <ele>331.6</ele>
        <time>2023-08-30T09:57:40Z</time>
      </trkpt>
      <trkpt lat="46.66301" lon="5.54227">
        <ele>331.6</ele>
        <time>2023-08-30T09:57:41Z</time>
      </trkpt>
      <trkpt lat="46.66299" lon="5.54225">
        <ele>331.6</ele>
        <time>2023-08-30T09:57:42Z</time>
      </trkpt>
      <trkpt lat="46.66296" lon="5.54224">
        <ele>331.6</ele>
        <time>2023-08-30T09:57:43Z</time>
      </trkpt>
      <trkpt lat="46.66294" lon="5.54222">
        <ele>332</ele>
        <time>2023-08-30T09:57:44Z</time>
      </trkpt>
      <trkpt lat="46.66291" lon="5.54221">
        <ele>332</ele>
        <time>2023-08-30T09:57:45Z</time>
      </trkpt>
      <trkpt lat="46.66288" lon="5.5422">
        <ele>332</ele>
        <time>2023-08-30T09:57:46Z</time>
      </trkpt>
      <trkpt lat="46.66286" lon="5.54218">
        <ele>332</ele>
        <time>2023-08-30T09:57:47Z</time>
      </trkpt>
      <trkpt lat="46.66283" lon="5.54216">
        <ele>332</ele>
        <time>2023-08-30T09:57:48Z</time>
      </trkpt>
      <trkpt lat="46.66281" lon="5.54215">
        <ele>332</ele>
        <time>2023-08-30T09:57:49Z</time>
      </trkpt>
      <trkpt lat="46.66278" lon="5.54214">
        <ele>332</ele>
        <time>2023-08-30T09:57:50Z</time>
      </trkpt>
      <trkpt lat="46.66276" lon="5.54212">
        <ele>332</ele>
        <time>2023-08-30T09:57:51Z</time>
      </trkpt>
      <trkpt lat="46.66273" lon="5.5421">
        <ele>332</ele>
        <time>2023-08-30T09:57:52Z</time>
      </trkpt>
      <trkpt lat="46.6627" lon="5.54208">
        <ele>332</ele>
        <time>2023-08-30T09:57:53Z</time>
      </trkpt>
      <trkpt lat="46.66268" lon="5.54206">
        <ele>332</ele>
        <time>2023-08-30T09:57:54Z</time>
      </trkpt>
      <trkpt lat="46.66266" lon="5.54204">
        <ele>332</ele>
        <time>2023-08-30T09:57:55Z</time>
      </trkpt>
      <trkpt lat="46.66264" lon="5.54203">
        <ele>332</ele>
        <time>2023-08-30T09:57:56Z</time>
      </trkpt>
      <trkpt lat="46.66263" lon="5.54202">
        <ele>332</ele>
        <time>2023-08-30T09:57:57Z</time>
      </trkpt>
      <trkpt lat="46.66263" lon="5.54202">
        <ele>331.8</ele>
        <time>2023-08-30T09:57:58Z</time>
      </trkpt>
      <trkpt lat="46.66259" lon="5.54201">
        <ele>328</ele>
        <time>2023-08-30T09:58:45Z</time>
      </trkpt>
      <trkpt lat="46.66257" lon="5.542">
        <ele>328</ele>
        <time>2023-08-30T09:58:46Z</time>
      </trkpt>
      <trkpt lat="46.66255" lon="5.54198">
        <ele>328</ele>
        <time>2023-08-30T09:58:47Z</time>
      </trkpt>
      <trkpt lat="46.66252" lon="5.54196">
        <ele>328</ele>
        <time>2023-08-30T09:58:48Z</time>
      </trkpt>
      <trkpt lat="46.66249" lon="5.54194">
        <ele>327.6</ele>
        <time>2023-08-30T09:58:49Z</time>
      </trkpt>
      <trkpt lat="46.66248" lon="5.54193">
        <ele>327.6</ele>
        <time>2023-08-30T09:58:50Z</time>
      </trkpt>
      <trkpt lat="46.66246" lon="5.54191">
        <ele>327.6</ele>
        <time>2023-08-30T09:58:51Z</time>
      </trkpt>
      <trkpt lat="46.66243" lon="5.5419">
        <ele>327.6</ele>
        <time>2023-08-30T09:58:52Z</time>
      </trkpt>
      <trkpt lat="46.6624" lon="5.54189">
        <ele>327.6</ele>
        <time>2023-08-30T09:58:53Z</time>
      </trkpt>
      <trkpt lat="46.66238" lon="5.54187">
        <ele>327.6</ele>
        <time>2023-08-30T09:58:54Z</time>
      </trkpt>
      <trkpt lat="46.66236" lon="5.54186">
        <ele>327.6</ele>
        <time>2023-08-30T09:58:55Z</time>
      </trkpt>
      <trkpt lat="46.66233" lon="5.54185">
        <ele>327.6</ele>
        <time>2023-08-30T09:58:56Z</time>
      </trkpt>
      <trkpt lat="46.66231" lon="5.54183">
        <ele>327.6</ele>
        <time>2023-08-30T09:58:57Z</time>
      </trkpt>
      <trkpt lat="46.66228" lon="5.54182">
        <ele>327.6</ele>
        <time>2023-08-30T09:58:58Z</time>
      </trkpt>
      <trkpt lat="46.66226" lon="5.54181">
        <ele>327.6</ele>
        <time>2023-08-30T09:58:59Z</time>
      </trkpt>
      <trkpt lat="46.66223" lon="5.54179">
        <ele>327.6</ele>
        <time>2023-08-30T09:59:00Z</time>
      </trkpt>
      <trkpt lat="46.66221" lon="5.54177">
        <ele>327.8</ele>
        <time>2023-08-30T09:59:01Z</time>
      </trkpt>
      <trkpt lat="46.66218" lon="5.54175">
        <ele>327.8</ele>
        <time>2023-08-30T09:59:02Z</time>
      </trkpt>
      <trkpt lat="46.66216" lon="5.54173">
        <ele>327.8</ele>
        <time>2023-08-30T09:59:03Z</time>
      </trkpt>
      <trkpt lat="46.66214" lon="5.54172">
        <ele>327.8</ele>
        <time>2023-08-30T09:59:04Z</time>
      </trkpt>
      <trkpt lat="46.66211" lon="5.54171">
        <ele>327.8</ele>
        <time>2023-08-30T09:59:05Z</time>
      </trkpt>
      <trkpt lat="46.66209" lon="5.54169">
        <ele>328.2</ele>
        <time>2023-08-30T09:59:06Z</time>
      </trkpt>
      <trkpt lat="46.66206" lon="5.54168">
        <ele>328.4</ele>
        <time>2023-08-30T09:59:07Z</time>
      </trkpt>
      <trkpt lat="46.66204" lon="5.54166">
        <ele>328.4</ele>
        <time>2023-08-30T09:59:08Z</time>
      </trkpt>
      <trkpt lat="46.66201" lon="5.54165">
        <ele>328.4</ele>
        <time>2023-08-30T09:59:09Z</time>
      </trkpt>
      <trkpt lat="46.66198" lon="5.54163">
        <ele>328.8</ele>
        <time>2023-08-30T09:59:10Z</time>
      </trkpt>
      <trkpt lat="46.66195" lon="5.54161">
        <ele>329.2</ele>
        <time>2023-08-30T09:59:11Z</time>
      </trkpt>
      <trkpt lat="46.66192" lon="5.54159">
        <ele>329.2</ele>
        <time>2023-08-30T09:59:12Z</time>
      </trkpt>
      <trkpt lat="46.66189" lon="5.54157">
        <ele>329.2</ele>
        <time>2023-08-30T09:59:13Z</time>
      </trkpt>
      <trkpt lat="46.66184" lon="5.54153">
        <ele>329.2</ele>
        <time>2023-08-30T09:59:14Z</time>
      </trkpt>
      <trkpt lat="46.66182" lon="5.54151">
        <ele>329.2</ele>
        <time>2023-08-30T09:59:15Z</time>
      </trkpt>
      <trkpt lat="46.66176" lon="5.54148">
        <ele>329.2</ele>
        <time>2023-08-30T09:59:16Z</time>
      </trkpt>
      <trkpt lat="46.66174" lon="5.54147">
        <ele>330</ele>
        <time>2023-08-30T09:59:17Z</time>
      </trkpt>
      <trkpt lat="46.6617" lon="5.54144">
        <ele>330</ele>
        <time>2023-08-30T09:59:18Z</time>
      </trkpt>
      <trkpt lat="46.66165" lon="5.54141">
        <ele>330</ele>
        <time>2023-08-30T09:59:19Z</time>
      </trkpt>
      <trkpt lat="46.6616" lon="5.54139">
        <ele>330.6</ele>
        <time>2023-08-30T09:59:20Z</time>
      </trkpt>
      <trkpt lat="46.66152" lon="5.54135">
        <ele>330.6</ele>
        <time>2023-08-30T09:59:21Z</time>
      </trkpt>
      <trkpt lat="46.6615" lon="5.54133">
        <ele>330.6</ele>
        <time>2023-08-30T09:59:22Z</time>
      </trkpt>
      <trkpt lat="46.66142" lon="5.54129">
        <ele>330.6</ele>
        <time>2023-08-30T09:59:23Z</time>
      </trkpt>
      <trkpt lat="46.66139" lon="5.54127">
        <ele>330.6</ele>
        <time>2023-08-30T09:59:24Z</time>
      </trkpt>
      <trkpt lat="46.66133" lon="5.54124">
        <ele>330.8</ele>
        <time>2023-08-30T09:59:25Z</time>
      </trkpt>
      <trkpt lat="46.66127" lon="5.5412">
        <ele>330.8</ele>
        <time>2023-08-30T09:59:26Z</time>
      </trkpt>
      <trkpt lat="46.66122" lon="5.54116">
        <ele>330.8</ele>
        <time>2023-08-30T09:59:27Z</time>
      </trkpt>
      <trkpt lat="46.66115" lon="5.54112">
        <ele>330.8</ele>
        <time>2023-08-30T09:59:28Z</time>
      </trkpt>
      <trkpt lat="46.66109" lon="5.54108">
        <ele>330.8</ele>
        <time>2023-08-30T09:59:29Z</time>
      </trkpt>
      <trkpt lat="46.66102" lon="5.54104">
        <ele>330.8</ele>
        <time>2023-08-30T09:59:30Z</time>
      </trkpt>
      <trkpt lat="46.66095" lon="5.541">
        <ele>330.8</ele>
        <time>2023-08-30T09:59:31Z</time>
      </trkpt>
      <trkpt lat="46.66088" lon="5.54096">
        <ele>330.8</ele>
        <time>2023-08-30T09:59:32Z</time>
      </trkpt>
      <trkpt lat="46.66082" lon="5.54092">
        <ele>330.4</ele>
        <time>2023-08-30T09:59:33Z</time>
      </trkpt>
      <trkpt lat="46.66075" lon="5.54088">
        <ele>330.4</ele>
        <time>2023-08-30T09:59:34Z</time>
      </trkpt>
      <trkpt lat="46.66067" lon="5.54084">
        <ele>330.4</ele>
        <time>2023-08-30T09:59:35Z</time>
      </trkpt>
      <trkpt lat="46.6606" lon="5.5408">
        <ele>330.4</ele>
        <time>2023-08-30T09:59:36Z</time>
      </trkpt>
      <trkpt lat="46.66053" lon="5.54077">
        <ele>330</ele>
        <time>2023-08-30T09:59:37Z</time>
      </trkpt>
      <trkpt lat="46.66046" lon="5.54074">
        <ele>330</ele>
        <time>2023-08-30T09:59:38Z</time>
      </trkpt>
      <trkpt lat="46.66039" lon="5.54071">
        <ele>329.8</ele>
        <time>2023-08-30T09:59:39Z</time>
      </trkpt>
      <trkpt lat="46.66031" lon="5.54069">
        <ele>329.8</ele>
        <time>2023-08-30T09:59:40Z</time>
      </trkpt>
      <trkpt lat="46.66024" lon="5.54066">
        <ele>329.8</ele>
        <time>2023-08-30T09:59:41Z</time>
      </trkpt>
      <trkpt lat="46.66017" lon="5.54063">
        <ele>329.4</ele>
        <time>2023-08-30T09:59:42Z</time>
      </trkpt>
      <trkpt lat="46.66009" lon="5.54061">
        <ele>329.4</ele>
        <time>2023-08-30T09:59:43Z</time>
      </trkpt>
      <trkpt lat="46.66002" lon="5.54058">
        <ele>329.4</ele>
        <time>2023-08-30T09:59:44Z</time>
      </trkpt>
      <trkpt lat="46.65994" lon="5.54056">
        <ele>329.4</ele>
        <time>2023-08-30T09:59:45Z</time>
      </trkpt>
      <trkpt lat="46.65987" lon="5.54054">
        <ele>328.6</ele>
        <time>2023-08-30T09:59:46Z</time>
      </trkpt>
      <trkpt lat="46.65977" lon="5.54051">
        <ele>328.6</ele>
        <time>2023-08-30T09:59:47Z</time>
      </trkpt>
      <trkpt lat="46.65973" lon="5.5405">
        <ele>328.6</ele>
        <time>2023-08-30T09:59:48Z</time>
      </trkpt>
      <trkpt lat="46.65966" lon="5.54047">
        <ele>328.6</ele>
        <time>2023-08-30T09:59:49Z</time>
      </trkpt>
      <trkpt lat="46.65959" lon="5.54045">
        <ele>328.6</ele>
        <time>2023-08-30T09:59:50Z</time>
      </trkpt>
      <trkpt lat="46.65951" lon="5.54042">
        <ele>327.8</ele>
        <time>2023-08-30T09:59:51Z</time>
      </trkpt>
      <trkpt lat="46.65944" lon="5.54039">
        <ele>327.8</ele>
        <time>2023-08-30T09:59:52Z</time>
      </trkpt>
      <trkpt lat="46.65933" lon="5.54035">
        <ele>327.6</ele>
        <time>2023-08-30T09:59:53Z</time>
      </trkpt>
      <trkpt lat="46.6593" lon="5.54034">
        <ele>327.6</ele>
        <time>2023-08-30T09:59:54Z</time>
      </trkpt>
      <trkpt lat="46.65922" lon="5.54031">
        <ele>327.6</ele>
        <time>2023-08-30T09:59:55Z</time>
      </trkpt>
      <trkpt lat="46.65915" lon="5.54028">
        <ele>326.6</ele>
        <time>2023-08-30T09:59:56Z</time>
      </trkpt>
      <trkpt lat="46.65908" lon="5.54024">
        <ele>326.6</ele>
        <time>2023-08-30T09:59:57Z</time>
      </trkpt>
      <trkpt lat="46.659" lon="5.5402">
        <ele>326.6</ele>
        <time>2023-08-30T09:59:58Z</time>
      </trkpt>
      <trkpt lat="46.65893" lon="5.54016">
        <ele>326.6</ele>
        <time>2023-08-30T09:59:59Z</time>
      </trkpt>
      <trkpt lat="46.65886" lon="5.54011">
        <ele>326.6</ele>
        <time>2023-08-30T10:00:00Z</time>
      </trkpt>
      <trkpt lat="46.65879" lon="5.54007">
        <ele>326.2</ele>
        <time>2023-08-30T10:00:01Z</time>
      </trkpt>
      <trkpt lat="46.65873" lon="5.54002">
        <ele>325.8</ele>
        <time>2023-08-30T10:00:02Z</time>
      </trkpt>
      <trkpt lat="46.65866" lon="5.53996">
        <ele>325.8</ele>
        <time>2023-08-30T10:00:03Z</time>
      </trkpt>
      <trkpt lat="46.65859" lon="5.53991">
        <ele>325.8</ele>
        <time>2023-08-30T10:00:04Z</time>
      </trkpt>
      <trkpt lat="46.65853" lon="5.53986">
        <ele>325</ele>
        <time>2023-08-30T10:00:05Z</time>
      </trkpt>
      <trkpt lat="46.65846" lon="5.53981">
        <ele>324.8</ele>
        <time>2023-08-30T10:00:06Z</time>
      </trkpt>
      <trkpt lat="46.65839" lon="5.53977">
        <ele>324.8</ele>
        <time>2023-08-30T10:00:07Z</time>
      </trkpt>
      <trkpt lat="46.65831" lon="5.53974">
        <ele>324.8</ele>
        <time>2023-08-30T10:00:08Z</time>
      </trkpt>
      <trkpt lat="46.65823" lon="5.5397">
        <ele>324.8</ele>
        <time>2023-08-30T10:00:09Z</time>
      </trkpt>
      <trkpt lat="46.65816" lon="5.53967">
        <ele>323.8</ele>
        <time>2023-08-30T10:00:10Z</time>
      </trkpt>
      <trkpt lat="46.65808" lon="5.53964">
        <ele>323.4</ele>
        <time>2023-08-30T10:00:11Z</time>
      </trkpt>
      <trkpt lat="46.658" lon="5.53962">
        <ele>323.4</ele>
        <time>2023-08-30T10:00:12Z</time>
      </trkpt>
      <trkpt lat="46.65793" lon="5.5396">
        <ele>323.4</ele>
        <time>2023-08-30T10:00:13Z</time>
      </trkpt>
      <trkpt lat="46.65785" lon="5.5396">
        <ele>322.8</ele>
        <time>2023-08-30T10:00:14Z</time>
      </trkpt>
      <trkpt lat="46.65777" lon="5.53961">
        <ele>322.4</ele>
        <time>2023-08-30T10:00:15Z</time>
      </trkpt>
      <trkpt lat="46.65769" lon="5.53962">
        <ele>322.4</ele>
        <time>2023-08-30T10:00:16Z</time>
      </trkpt>
      <trkpt lat="46.65761" lon="5.53963">
        <ele>322.4</ele>
        <time>2023-08-30T10:00:17Z</time>
      </trkpt>
      <trkpt lat="46.65752" lon="5.53964">
        <ele>321.6</ele>
        <time>2023-08-30T10:00:18Z</time>
      </trkpt>
      <trkpt lat="46.65744" lon="5.53966">
        <ele>321</ele>
        <time>2023-08-30T10:00:19Z</time>
      </trkpt>
      <trkpt lat="46.65736" lon="5.53968">
        <ele>321</ele>
        <time>2023-08-30T10:00:20Z</time>
      </trkpt>
      <trkpt lat="46.65727" lon="5.53969">
        <ele>321</ele>
        <time>2023-08-30T10:00:21Z</time>
      </trkpt>
      <trkpt lat="46.65719" lon="5.5397">
        <ele>321</ele>
        <time>2023-08-30T10:00:22Z</time>
      </trkpt>
      <trkpt lat="46.65711" lon="5.5397">
        <ele>320.4</ele>
        <time>2023-08-30T10:00:23Z</time>
      </trkpt>
      <trkpt lat="46.65703" lon="5.53969">
        <ele>319.8</ele>
        <time>2023-08-30T10:00:24Z</time>
      </trkpt>
      <trkpt lat="46.65695" lon="5.53966">
        <ele>319.8</ele>
        <time>2023-08-30T10:00:25Z</time>
      </trkpt>
      <trkpt lat="46.65687" lon="5.53963">
        <ele>319.8</ele>
        <time>2023-08-30T10:00:26Z</time>
      </trkpt>
      <trkpt lat="46.6568" lon="5.53959">
        <ele>319.4</ele>
        <time>2023-08-30T10:00:27Z</time>
      </trkpt>
      <trkpt lat="46.65672" lon="5.53956">
        <ele>319</ele>
        <time>2023-08-30T10:00:28Z</time>
      </trkpt>
      <trkpt lat="46.65664" lon="5.53953">
        <ele>319</ele>
        <time>2023-08-30T10:00:29Z</time>
      </trkpt>
      <trkpt lat="46.65654" lon="5.53949">
        <ele>319</ele>
        <time>2023-08-30T10:00:30Z</time>
      </trkpt>
      <trkpt lat="46.6565" lon="5.53947">
        <ele>319</ele>
        <time>2023-08-30T10:00:31Z</time>
      </trkpt>
      <trkpt lat="46.65643" lon="5.53944">
        <ele>318.2</ele>
        <time>2023-08-30T10:00:32Z</time>
      </trkpt>
      <trkpt lat="46.65636" lon="5.53941">
        <ele>318</ele>
        <time>2023-08-30T10:00:33Z</time>
      </trkpt>
      <trkpt lat="46.6563" lon="5.53938">
        <ele>318</ele>
        <time>2023-08-30T10:00:34Z</time>
      </trkpt>
      <trkpt lat="46.65623" lon="5.53935">
        <ele>318</ele>
        <time>2023-08-30T10:00:35Z</time>
      </trkpt>
      <trkpt lat="46.65614" lon="5.53931">
        <ele>317.2</ele>
        <time>2023-08-30T10:00:36Z</time>
      </trkpt>
      <trkpt lat="46.6561" lon="5.53929">
        <ele>316.8</ele>
        <time>2023-08-30T10:00:37Z</time>
      </trkpt>
      <trkpt lat="46.65604" lon="5.53926">
        <ele>316.8</ele>
        <time>2023-08-30T10:00:38Z</time>
      </trkpt>
      <trkpt lat="46.65598" lon="5.53923">
        <ele>316.8</ele>
        <time>2023-08-30T10:00:39Z</time>
      </trkpt>
      <trkpt lat="46.65592" lon="5.5392">
        <ele>316.8</ele>
        <time>2023-08-30T10:00:40Z</time>
      </trkpt>
      <trkpt lat="46.65586" lon="5.53916">
        <ele>316.8</ele>
        <time>2023-08-30T10:00:41Z</time>
      </trkpt>
      <trkpt lat="46.6558" lon="5.53912">
        <ele>316.4</ele>
        <time>2023-08-30T10:00:42Z</time>
      </trkpt>
      <trkpt lat="46.65575" lon="5.53908">
        <ele>316.2</ele>
        <time>2023-08-30T10:00:43Z</time>
      </trkpt>
      <trkpt lat="46.65569" lon="5.53903">
        <ele>316.2</ele>
        <time>2023-08-30T10:00:44Z</time>
      </trkpt>
      <trkpt lat="46.65564" lon="5.53899">
        <ele>316.2</ele>
        <time>2023-08-30T10:00:45Z</time>
      </trkpt>
      <trkpt lat="46.65558" lon="5.53894">
        <ele>315.6</ele>
        <time>2023-08-30T10:00:46Z</time>
      </trkpt>
      <trkpt lat="46.65553" lon="5.5389">
        <ele>315.4</ele>
        <time>2023-08-30T10:00:47Z</time>
      </trkpt>
      <trkpt lat="46.65547" lon="5.53886">
        <ele>315.4</ele>
        <time>2023-08-30T10:00:48Z</time>
      </trkpt>
      <trkpt lat="46.65541" lon="5.53881">
        <ele>315.4</ele>
        <time>2023-08-30T10:00:49Z</time>
      </trkpt>
      <trkpt lat="46.65535" lon="5.53877">
        <ele>314.8</ele>
        <time>2023-08-30T10:00:50Z</time>
      </trkpt>
      <trkpt lat="46.65529" lon="5.53872">
        <ele>314.4</ele>
        <time>2023-08-30T10:00:51Z</time>
      </trkpt>
      <trkpt lat="46.65523" lon="5.53868">
        <ele>314.4</ele>
        <time>2023-08-30T10:00:52Z</time>
      </trkpt>
      <trkpt lat="46.65517" lon="5.53863">
        <ele>314.4</ele>
        <time>2023-08-30T10:00:53Z</time>
      </trkpt>
      <trkpt lat="46.65511" lon="5.53859">
        <ele>314.4</ele>
        <time>2023-08-30T10:00:54Z</time>
      </trkpt>
      <trkpt lat="46.65504" lon="5.53856">
        <ele>313.6</ele>
        <time>2023-08-30T10:00:55Z</time>
      </trkpt>
      <trkpt lat="46.65497" lon="5.53852">
        <ele>313.4</ele>
        <time>2023-08-30T10:00:56Z</time>
      </trkpt>
      <trkpt lat="46.6549" lon="5.53848">
        <ele>313.4</ele>
        <time>2023-08-30T10:00:57Z</time>
      </trkpt>
      <trkpt lat="46.65483" lon="5.53844">
        <ele>313.4</ele>
        <time>2023-08-30T10:00:58Z</time>
      </trkpt>
      <trkpt lat="46.65476" lon="5.53841">
        <ele>313.4</ele>
        <time>2023-08-30T10:00:59Z</time>
      </trkpt>
      <trkpt lat="46.65468" lon="5.53837">
        <ele>312.2</ele>
        <time>2023-08-30T10:01:00Z</time>
      </trkpt>
      <trkpt lat="46.65461" lon="5.53833">
        <ele>312.2</ele>
        <time>2023-08-30T10:01:01Z</time>
      </trkpt>
      <trkpt lat="46.65453" lon="5.5383">
        <ele>312.2</ele>
        <time>2023-08-30T10:01:02Z</time>
      </trkpt>
      <trkpt lat="46.65445" lon="5.53826">
        <ele>312.2</ele>
        <time>2023-08-30T10:01:03Z</time>
      </trkpt>
      <trkpt lat="46.65437" lon="5.53823">
        <ele>311.6</ele>
        <time>2023-08-30T10:01:04Z</time>
      </trkpt>
      <trkpt lat="46.65429" lon="5.53819">
        <ele>311</ele>
        <time>2023-08-30T10:01:05Z</time>
      </trkpt>
      <trkpt lat="46.65421" lon="5.53816">
        <ele>311</ele>
        <time>2023-08-30T10:01:06Z</time>
      </trkpt>
      <trkpt lat="46.65413" lon="5.53814">
        <ele>311</ele>
        <time>2023-08-30T10:01:07Z</time>
      </trkpt>
      <trkpt lat="46.65405" lon="5.53811">
        <ele>310.4</ele>
        <time>2023-08-30T10:01:08Z</time>
      </trkpt>
      <trkpt lat="46.65396" lon="5.53809">
        <ele>310.4</ele>
        <time>2023-08-30T10:01:09Z</time>
      </trkpt>
      <trkpt lat="46.65388" lon="5.53808">
        <ele>310.2</ele>
        <time>2023-08-30T10:01:10Z</time>
      </trkpt>
      <trkpt lat="46.65375" lon="5.53805">
        <ele>310.2</ele>
        <time>2023-08-30T10:01:11Z</time>
      </trkpt>
      <trkpt lat="46.65371" lon="5.53804">
        <ele>310.2</ele>
        <time>2023-08-30T10:01:12Z</time>
      </trkpt>
      <trkpt lat="46.65362" lon="5.53803">
        <ele>309.2</ele>
        <time>2023-08-30T10:01:13Z</time>
      </trkpt>
      <trkpt lat="46.65354" lon="5.53801">
        <ele>308.4</ele>
        <time>2023-08-30T10:01:14Z</time>
      </trkpt>
      <trkpt lat="46.65346" lon="5.53799">
        <ele>308.4</ele>
        <time>2023-08-30T10:01:15Z</time>
      </trkpt>
      <trkpt lat="46.65337" lon="5.53798">
        <ele>308.4</ele>
        <time>2023-08-30T10:01:16Z</time>
      </trkpt>
      <trkpt lat="46.65325" lon="5.53796">
        <ele>307.6</ele>
        <time>2023-08-30T10:01:17Z</time>
      </trkpt>
      <trkpt lat="46.6532" lon="5.53795">
        <ele>307.6</ele>
        <time>2023-08-30T10:01:18Z</time>
      </trkpt>
      <trkpt lat="46.65308" lon="5.53793">
        <ele>307.4</ele>
        <time>2023-08-30T10:01:19Z</time>
      </trkpt>
      <trkpt lat="46.65303" lon="5.53793">
        <ele>307.4</ele>
        <time>2023-08-30T10:01:20Z</time>
      </trkpt>
      <trkpt lat="46.65295" lon="5.53792">
        <ele>306.6</ele>
        <time>2023-08-30T10:01:21Z</time>
      </trkpt>
      <trkpt lat="46.65287" lon="5.5379">
        <ele>306.6</ele>
        <time>2023-08-30T10:01:22Z</time>
      </trkpt>
      <trkpt lat="46.65279" lon="5.53789">
        <ele>306.6</ele>
        <time>2023-08-30T10:01:23Z</time>
      </trkpt>
      <trkpt lat="46.6527" lon="5.53789">
        <ele>306</ele>
        <time>2023-08-30T10:01:24Z</time>
      </trkpt>
      <trkpt lat="46.65262" lon="5.53788">
        <ele>306</ele>
        <time>2023-08-30T10:01:25Z</time>
      </trkpt>
      <trkpt lat="46.65254" lon="5.53788">
        <ele>306</ele>
        <time>2023-08-30T10:01:26Z</time>
      </trkpt>
      <trkpt lat="46.65246" lon="5.53788">
        <ele>305.2</ele>
        <time>2023-08-30T10:01:27Z</time>
      </trkpt>
      <trkpt lat="46.65238" lon="5.53789">
        <ele>305.2</ele>
        <time>2023-08-30T10:01:28Z</time>
      </trkpt>
      <trkpt lat="46.6523" lon="5.5379">
        <ele>305.2</ele>
        <time>2023-08-30T10:01:29Z</time>
      </trkpt>
      <trkpt lat="46.65222" lon="5.53792">
        <ele>305.2</ele>
        <time>2023-08-30T10:01:30Z</time>
      </trkpt>
      <trkpt lat="46.65214" lon="5.53794">
        <ele>304.2</ele>
        <time>2023-08-30T10:01:31Z</time>
      </trkpt>
      <trkpt lat="46.65206" lon="5.53797">
        <ele>304.2</ele>
        <time>2023-08-30T10:01:32Z</time>
      </trkpt>
      <trkpt lat="46.65199" lon="5.53799">
        <ele>303.8</ele>
        <time>2023-08-30T10:01:33Z</time>
      </trkpt>
      <trkpt lat="46.65191" lon="5.53802">
        <ele>303.8</ele>
        <time>2023-08-30T10:01:34Z</time>
      </trkpt>
      <trkpt lat="46.65184" lon="5.53805">
        <ele>303.8</ele>
        <time>2023-08-30T10:01:35Z</time>
      </trkpt>
      <trkpt lat="46.65176" lon="5.53807">
        <ele>303</ele>
        <time>2023-08-30T10:01:36Z</time>
      </trkpt>
      <trkpt lat="46.65169" lon="5.5381">
        <ele>302.8</ele>
        <time>2023-08-30T10:01:37Z</time>
      </trkpt>
      <trkpt lat="46.65161" lon="5.53812">
        <ele>302.8</ele>
        <time>2023-08-30T10:01:38Z</time>
      </trkpt>
      <trkpt lat="46.65154" lon="5.53815">
        <ele>302.8</ele>
        <time>2023-08-30T10:01:39Z</time>
      </trkpt>
      <trkpt lat="46.65146" lon="5.53818">
        <ele>302.2</ele>
        <time>2023-08-30T10:01:40Z</time>
      </trkpt>
      <trkpt lat="46.65139" lon="5.5382">
        <ele>301.8</ele>
        <time>2023-08-30T10:01:41Z</time>
      </trkpt>
      <trkpt lat="46.65132" lon="5.53822">
        <ele>301.8</ele>
        <time>2023-08-30T10:01:42Z</time>
      </trkpt>
      <trkpt lat="46.65124" lon="5.53825">
        <ele>301.8</ele>
        <time>2023-08-30T10:01:43Z</time>
      </trkpt>
      <trkpt lat="46.65117" lon="5.53827">
        <ele>301.8</ele>
        <time>2023-08-30T10:01:44Z</time>
      </trkpt>
      <trkpt lat="46.65109" lon="5.5383">
        <ele>301.8</ele>
        <time>2023-08-30T10:01:45Z</time>
      </trkpt>
      <trkpt lat="46.65102" lon="5.53832">
        <ele>301.4</ele>
        <time>2023-08-30T10:01:46Z</time>
      </trkpt>
      <trkpt lat="46.65095" lon="5.53834">
        <ele>301.4</ele>
        <time>2023-08-30T10:01:47Z</time>
      </trkpt>
      <trkpt lat="46.65087" lon="5.53837">
        <ele>301.4</ele>
        <time>2023-08-30T10:01:48Z</time>
      </trkpt>
      <trkpt lat="46.6508" lon="5.53839">
        <ele>300.8</ele>
        <time>2023-08-30T10:01:49Z</time>
      </trkpt>
      <trkpt lat="46.65073" lon="5.53841">
        <ele>300.8</ele>
        <time>2023-08-30T10:01:50Z</time>
      </trkpt>
      <trkpt lat="46.65066" lon="5.53844">
        <ele>300.8</ele>
        <time>2023-08-30T10:01:51Z</time>
      </trkpt>
      <trkpt lat="46.65059" lon="5.53846">
        <ele>300.8</ele>
        <time>2023-08-30T10:01:52Z</time>
      </trkpt>
      <trkpt lat="46.65051" lon="5.53849">
        <ele>300.2</ele>
        <time>2023-08-30T10:01:53Z</time>
      </trkpt>
      <trkpt lat="46.65044" lon="5.53851">
        <ele>299.8</ele>
        <time>2023-08-30T10:01:54Z</time>
      </trkpt>
      <trkpt lat="46.65033" lon="5.53854">
        <ele>299.8</ele>
        <time>2023-08-30T10:01:55Z</time>
      </trkpt>
      <trkpt lat="46.65029" lon="5.53855">
        <ele>299.8</ele>
        <time>2023-08-30T10:01:56Z</time>
      </trkpt>
      <trkpt lat="46.65022" lon="5.53857">
        <ele>299.8</ele>
        <time>2023-08-30T10:01:57Z</time>
      </trkpt>
      <trkpt lat="46.65014" lon="5.53859">
        <ele>299</ele>
        <time>2023-08-30T10:01:58Z</time>
      </trkpt>
      <trkpt lat="46.65007" lon="5.5386">
        <ele>298.8</ele>
        <time>2023-08-30T10:01:59Z</time>
      </trkpt>
      <trkpt lat="46.65" lon="5.53862">
        <ele>298.8</ele>
        <time>2023-08-30T10:02:00Z</time>
      </trkpt>
      <trkpt lat="46.64989" lon="5.53865">
        <ele>298.8</ele>
        <time>2023-08-30T10:02:01Z</time>
      </trkpt>
      <trkpt lat="46.64985" lon="5.53865">
        <ele>298.2</ele>
        <time>2023-08-30T10:02:02Z</time>
      </trkpt>
      <trkpt lat="46.64978" lon="5.53867">
        <ele>297.8</ele>
        <time>2023-08-30T10:02:03Z</time>
      </trkpt>
      <trkpt lat="46.6497" lon="5.53868">
        <ele>297.8</ele>
        <time>2023-08-30T10:02:04Z</time>
      </trkpt>
      <trkpt lat="46.64963" lon="5.5387">
        <ele>297.8</ele>
        <time>2023-08-30T10:02:05Z</time>
      </trkpt>
      <trkpt lat="46.64955" lon="5.53871">
        <ele>297.8</ele>
        <time>2023-08-30T10:02:06Z</time>
      </trkpt>
      <trkpt lat="46.64948" lon="5.53872">
        <ele>297.8</ele>
        <time>2023-08-30T10:02:07Z</time>
      </trkpt>
      <trkpt lat="46.64941" lon="5.53874">
        <ele>297.4</ele>
        <time>2023-08-30T10:02:08Z</time>
      </trkpt>
      <trkpt lat="46.64934" lon="5.53877">
        <ele>297.2</ele>
        <time>2023-08-30T10:02:09Z</time>
      </trkpt>
      <trkpt lat="46.64927" lon="5.5388">
        <ele>297.2</ele>
        <time>2023-08-30T10:02:10Z</time>
      </trkpt>
      <trkpt lat="46.6492" lon="5.53885">
        <ele>297.2</ele>
        <time>2023-08-30T10:02:11Z</time>
      </trkpt>
      <trkpt lat="46.64914" lon="5.53889">
        <ele>297</ele>
        <time>2023-08-30T10:02:12Z</time>
      </trkpt>
      <trkpt lat="46.64908" lon="5.53894">
        <ele>296.8</ele>
        <time>2023-08-30T10:02:13Z</time>
      </trkpt>
      <trkpt lat="46.64902" lon="5.53899">
        <ele>296.8</ele>
        <time>2023-08-30T10:02:14Z</time>
      </trkpt>
      <trkpt lat="46.64896" lon="5.53904">
        <ele>296.8</ele>
        <time>2023-08-30T10:02:15Z</time>
      </trkpt>
      <trkpt lat="46.6489" lon="5.53909">
        <ele>296.8</ele>
        <time>2023-08-30T10:02:16Z</time>
      </trkpt>
      <trkpt lat="46.64884" lon="5.53914">
        <ele>296.8</ele>
        <time>2023-08-30T10:02:17Z</time>
      </trkpt>
      <trkpt lat="46.64878" lon="5.53918">
        <ele>296.6</ele>
        <time>2023-08-30T10:02:18Z</time>
      </trkpt>
      <trkpt lat="46.64872" lon="5.53923">
        <ele>296.6</ele>
        <time>2023-08-30T10:02:19Z</time>
      </trkpt>
      <trkpt lat="46.64866" lon="5.53928">
        <ele>296.6</ele>
        <time>2023-08-30T10:02:20Z</time>
      </trkpt>
      <trkpt lat="46.64861" lon="5.53932">
        <ele>296.4</ele>
        <time>2023-08-30T10:02:21Z</time>
      </trkpt>
      <trkpt lat="46.64855" lon="5.53937">
        <ele>296.4</ele>
        <time>2023-08-30T10:02:22Z</time>
      </trkpt>
      <trkpt lat="46.64849" lon="5.53942">
        <ele>296.4</ele>
        <time>2023-08-30T10:02:23Z</time>
      </trkpt>
      <trkpt lat="46.64844" lon="5.53946">
        <ele>296.4</ele>
        <time>2023-08-30T10:02:24Z</time>
      </trkpt>
      <trkpt lat="46.64838" lon="5.53951">
        <ele>296.4</ele>
        <time>2023-08-30T10:02:25Z</time>
      </trkpt>
      <trkpt lat="46.6483" lon="5.53956">
        <ele>296.4</ele>
        <time>2023-08-30T10:02:26Z</time>
      </trkpt>
      <trkpt lat="46.64827" lon="5.53958">
        <ele>296.2</ele>
        <time>2023-08-30T10:02:27Z</time>
      </trkpt>
      <trkpt lat="46.64822" lon="5.53962">
        <ele>296.2</ele>
        <time>2023-08-30T10:02:28Z</time>
      </trkpt>
      <trkpt lat="46.64817" lon="5.53966">
        <ele>296.2</ele>
        <time>2023-08-30T10:02:29Z</time>
      </trkpt>
      <trkpt lat="46.64812" lon="5.53969">
        <ele>296.2</ele>
        <time>2023-08-30T10:02:30Z</time>
      </trkpt>
      <trkpt lat="46.64807" lon="5.53973">
        <ele>296.4</ele>
        <time>2023-08-30T10:02:31Z</time>
      </trkpt>
      <trkpt lat="46.64802" lon="5.53976">
        <ele>296.4</ele>
        <time>2023-08-30T10:02:32Z</time>
      </trkpt>
      <trkpt lat="46.64798" lon="5.53979">
        <ele>296.4</ele>
        <time>2023-08-30T10:02:33Z</time>
      </trkpt>
      <trkpt lat="46.64794" lon="5.53982">
        <ele>296.4</ele>
        <time>2023-08-30T10:02:34Z</time>
      </trkpt>
      <trkpt lat="46.6479" lon="5.53986">
        <ele>296.6</ele>
        <time>2023-08-30T10:02:35Z</time>
      </trkpt>
      <trkpt lat="46.64785" lon="5.5399">
        <ele>296.6</ele>
        <time>2023-08-30T10:02:36Z</time>
      </trkpt>
      <trkpt lat="46.64783" lon="5.53992">
        <ele>296.6</ele>
        <time>2023-08-30T10:02:37Z</time>
      </trkpt>
      <trkpt lat="46.64779" lon="5.53994">
        <ele>296.6</ele>
        <time>2023-08-30T10:02:38Z</time>
      </trkpt>
      <trkpt lat="46.64775" lon="5.53997">
        <ele>296.8</ele>
        <time>2023-08-30T10:02:39Z</time>
      </trkpt>
      <trkpt lat="46.64771" lon="5.53999">
        <ele>296.8</ele>
        <time>2023-08-30T10:02:40Z</time>
      </trkpt>
      <trkpt lat="46.64767" lon="5.54002">
        <ele>296.8</ele>
        <time>2023-08-30T10:02:41Z</time>
      </trkpt>
      <trkpt lat="46.6476" lon="5.54006">
        <ele>296.8</ele>
        <time>2023-08-30T10:02:42Z</time>
      </trkpt>
      <trkpt lat="46.64758" lon="5.54007">
        <ele>296.8</ele>
        <time>2023-08-30T10:02:43Z</time>
      </trkpt>
      <trkpt lat="46.64752" lon="5.54011">
        <ele>297</ele>
        <time>2023-08-30T10:02:44Z</time>
      </trkpt>
      <trkpt lat="46.6475" lon="5.54012">
        <ele>297</ele>
        <time>2023-08-30T10:02:45Z</time>
      </trkpt>
      <trkpt lat="46.64747" lon="5.54015">
        <ele>297</ele>
        <time>2023-08-30T10:02:46Z</time>
      </trkpt>
      <trkpt lat="46.64743" lon="5.54018">
        <ele>297</ele>
        <time>2023-08-30T10:02:47Z</time>
      </trkpt>
      <trkpt lat="46.64738" lon="5.5402">
        <ele>297</ele>
        <time>2023-08-30T10:02:48Z</time>
      </trkpt>
      <trkpt lat="46.64734" lon="5.54022">
        <ele>297</ele>
        <time>2023-08-30T10:02:49Z</time>
      </trkpt>
      <trkpt lat="46.6473" lon="5.54024">
        <ele>297</ele>
        <time>2023-08-30T10:02:50Z</time>
      </trkpt>
      <trkpt lat="46.64726" lon="5.54026">
        <ele>297</ele>
        <time>2023-08-30T10:02:51Z</time>
      </trkpt>
      <trkpt lat="46.64722" lon="5.54028">
        <ele>297</ele>
        <time>2023-08-30T10:02:52Z</time>
      </trkpt>
      <trkpt lat="46.64718" lon="5.54031">
        <ele>297</ele>
        <time>2023-08-30T10:02:53Z</time>
      </trkpt>
      <trkpt lat="46.64713" lon="5.54033">
        <ele>297.2</ele>
        <time>2023-08-30T10:02:54Z</time>
      </trkpt>
      <trkpt lat="46.64707" lon="5.54036">
        <ele>297.2</ele>
        <time>2023-08-30T10:02:55Z</time>
      </trkpt>
      <trkpt lat="46.64705" lon="5.54037">
        <ele>297.2</ele>
        <time>2023-08-30T10:02:56Z</time>
      </trkpt>
      <trkpt lat="46.64701" lon="5.54038">
        <ele>297.4</ele>
        <time>2023-08-30T10:02:57Z</time>
      </trkpt>
      <trkpt lat="46.64697" lon="5.5404">
        <ele>297.4</ele>
        <time>2023-08-30T10:02:58Z</time>
      </trkpt>
      <trkpt lat="46.64693" lon="5.54042">
        <ele>297.4</ele>
        <time>2023-08-30T10:02:59Z</time>
      </trkpt>
      <trkpt lat="46.64688" lon="5.54044">
        <ele>297.4</ele>
        <time>2023-08-30T10:03:00Z</time>
      </trkpt>
      <trkpt lat="46.64684" lon="5.54045">
        <ele>297.4</ele>
        <time>2023-08-30T10:03:01Z</time>
      </trkpt>
      <trkpt lat="46.64677" lon="5.54046">
        <ele>297.4</ele>
        <time>2023-08-30T10:03:02Z</time>
      </trkpt>
      <trkpt lat="46.64675" lon="5.54046">
        <ele>297.4</ele>
        <time>2023-08-30T10:03:03Z</time>
      </trkpt>
      <trkpt lat="46.64668" lon="5.54046">
        <ele>297.4</ele>
        <time>2023-08-30T10:03:04Z</time>
      </trkpt>
      <trkpt lat="46.64666" lon="5.54046">
        <ele>297.4</ele>
        <time>2023-08-30T10:03:05Z</time>
      </trkpt>
      <trkpt lat="46.64661" lon="5.54047">
        <ele>297.6</ele>
        <time>2023-08-30T10:03:06Z</time>
      </trkpt>
      <trkpt lat="46.64657" lon="5.54048">
        <ele>297.6</ele>
        <time>2023-08-30T10:03:07Z</time>
      </trkpt>
      <trkpt lat="46.64653" lon="5.5405">
        <ele>297.6</ele>
        <time>2023-08-30T10:03:08Z</time>
      </trkpt>
      <trkpt lat="46.64648" lon="5.54052">
        <ele>297.6</ele>
        <time>2023-08-30T10:03:09Z</time>
      </trkpt>
      <trkpt lat="46.64644" lon="5.54055">
        <ele>297.6</ele>
        <time>2023-08-30T10:03:10Z</time>
      </trkpt>
      <trkpt lat="46.64639" lon="5.54057">
        <ele>297.6</ele>
        <time>2023-08-30T10:03:11Z</time>
      </trkpt>
      <trkpt lat="46.64635" lon="5.54059">
        <ele>297.8</ele>
        <time>2023-08-30T10:03:12Z</time>
      </trkpt>
      <trkpt lat="46.6463" lon="5.54062">
        <ele>297.8</ele>
        <time>2023-08-30T10:03:13Z</time>
      </trkpt>
      <trkpt lat="46.64625" lon="5.54065">
        <ele>297.8</ele>
        <time>2023-08-30T10:03:14Z</time>
      </trkpt>
      <trkpt lat="46.64621" lon="5.54068">
        <ele>297.8</ele>
        <time>2023-08-30T10:03:15Z</time>
      </trkpt>
      <trkpt lat="46.64617" lon="5.54072">
        <ele>297.8</ele>
        <time>2023-08-30T10:03:16Z</time>
      </trkpt>
      <trkpt lat="46.64612" lon="5.54075">
        <ele>298.2</ele>
        <time>2023-08-30T10:03:17Z</time>
      </trkpt>
      <trkpt lat="46.64608" lon="5.54079">
        <ele>298.2</ele>
        <time>2023-08-30T10:03:18Z</time>
      </trkpt>
      <trkpt lat="46.64604" lon="5.54083">
        <ele>298.2</ele>
        <time>2023-08-30T10:03:19Z</time>
      </trkpt>
      <trkpt lat="46.646" lon="5.54087">
        <ele>298.2</ele>
        <time>2023-08-30T10:03:20Z</time>
      </trkpt>
      <trkpt lat="46.64595" lon="5.5409">
        <ele>297.8</ele>
        <time>2023-08-30T10:03:21Z</time>
      </trkpt>
      <trkpt lat="46.64591" lon="5.54094">
        <ele>297.8</ele>
        <time>2023-08-30T10:03:22Z</time>
      </trkpt>
      <trkpt lat="46.64587" lon="5.54097">
        <ele>297.8</ele>
        <time>2023-08-30T10:03:23Z</time>
      </trkpt>
      <trkpt lat="46.64584" lon="5.54101">
        <ele>297.8</ele>
        <time>2023-08-30T10:03:24Z</time>
      </trkpt>
      <trkpt lat="46.6458" lon="5.54104">
        <ele>298.6</ele>
        <time>2023-08-30T10:03:25Z</time>
      </trkpt>
      <trkpt lat="46.64576" lon="5.54106">
        <ele>298.6</ele>
        <time>2023-08-30T10:03:26Z</time>
      </trkpt>
      <trkpt lat="46.64572" lon="5.54109">
        <ele>298.6</ele>
        <time>2023-08-30T10:03:27Z</time>
      </trkpt>
      <trkpt lat="46.64568" lon="5.54112">
        <ele>298.6</ele>
        <time>2023-08-30T10:03:28Z</time>
      </trkpt>
      <trkpt lat="46.64564" lon="5.54115">
        <ele>298.6</ele>
        <time>2023-08-30T10:03:29Z</time>
      </trkpt>
      <trkpt lat="46.6456" lon="5.54117">
        <ele>298.8</ele>
        <time>2023-08-30T10:03:30Z</time>
      </trkpt>
      <trkpt lat="46.64556" lon="5.54119">
        <ele>299</ele>
        <time>2023-08-30T10:03:31Z</time>
      </trkpt>
      <trkpt lat="46.64551" lon="5.5412">
        <ele>299</ele>
        <time>2023-08-30T10:03:32Z</time>
      </trkpt>
      <trkpt lat="46.64547" lon="5.54121">
        <ele>299</ele>
        <time>2023-08-30T10:03:33Z</time>
      </trkpt>
      <trkpt lat="46.64542" lon="5.54122">
        <ele>299</ele>
        <time>2023-08-30T10:03:34Z</time>
      </trkpt>
      <trkpt lat="46.64538" lon="5.54122">
        <ele>299</ele>
        <time>2023-08-30T10:03:35Z</time>
      </trkpt>
      <trkpt lat="46.64533" lon="5.54123">
        <ele>299</ele>
        <time>2023-08-30T10:03:36Z</time>
      </trkpt>
      <trkpt lat="46.64528" lon="5.54123">
        <ele>299</ele>
        <time>2023-08-30T10:03:37Z</time>
      </trkpt>
      <trkpt lat="46.64524" lon="5.54122">
        <ele>299</ele>
        <time>2023-08-30T10:03:38Z</time>
      </trkpt>
      <trkpt lat="46.64519" lon="5.54122">
        <ele>299</ele>
        <time>2023-08-30T10:03:39Z</time>
      </trkpt>
      <trkpt lat="46.64514" lon="5.54122">
        <ele>298.8</ele>
        <time>2023-08-30T10:03:40Z</time>
      </trkpt>
      <trkpt lat="46.64509" lon="5.5412">
        <ele>298.8</ele>
        <time>2023-08-30T10:03:41Z</time>
      </trkpt>
      <trkpt lat="46.64504" lon="5.54118">
        <ele>298.8</ele>
        <time>2023-08-30T10:03:42Z</time>
      </trkpt>
      <trkpt lat="46.64499" lon="5.54116">
        <ele>298.8</ele>
        <time>2023-08-30T10:03:43Z</time>
      </trkpt>
      <trkpt lat="46.64492" lon="5.54112">
        <ele>298.6</ele>
        <time>2023-08-30T10:03:44Z</time>
      </trkpt>
      <trkpt lat="46.6449" lon="5.54111">
        <ele>298.6</ele>
        <time>2023-08-30T10:03:45Z</time>
      </trkpt>
      <trkpt lat="46.64485" lon="5.54109">
        <ele>298.6</ele>
        <time>2023-08-30T10:03:46Z</time>
      </trkpt>
      <trkpt lat="46.6448" lon="5.54107">
        <ele>298.6</ele>
        <time>2023-08-30T10:03:47Z</time>
      </trkpt>
      <trkpt lat="46.64475" lon="5.54106">
        <ele>298.6</ele>
        <time>2023-08-30T10:03:48Z</time>
      </trkpt>
      <trkpt lat="46.64471" lon="5.54104">
        <ele>298.2</ele>
        <time>2023-08-30T10:03:49Z</time>
      </trkpt>
      <trkpt lat="46.64467" lon="5.54102">
        <ele>298.2</ele>
        <time>2023-08-30T10:03:50Z</time>
      </trkpt>
      <trkpt lat="46.64462" lon="5.54101">
        <ele>298.2</ele>
        <time>2023-08-30T10:03:51Z</time>
      </trkpt>
      <trkpt lat="46.64456" lon="5.54097">
        <ele>298.2</ele>
        <time>2023-08-30T10:03:52Z</time>
      </trkpt>
      <trkpt lat="46.64454" lon="5.54096">
        <ele>298.2</ele>
        <time>2023-08-30T10:03:53Z</time>
      </trkpt>
      <trkpt lat="46.6445" lon="5.54094">
        <ele>298</ele>
        <time>2023-08-30T10:03:54Z</time>
      </trkpt>
      <trkpt lat="46.64446" lon="5.54092">
        <ele>298</ele>
        <time>2023-08-30T10:03:55Z</time>
      </trkpt>
      <trkpt lat="46.64443" lon="5.54089">
        <ele>298</ele>
        <time>2023-08-30T10:03:56Z</time>
      </trkpt>
      <trkpt lat="46.64439" lon="5.54087">
        <ele>298</ele>
        <time>2023-08-30T10:03:57Z</time>
      </trkpt>
      <trkpt lat="46.64435" lon="5.54085">
        <ele>298</ele>
        <time>2023-08-30T10:03:58Z</time>
      </trkpt>
      <trkpt lat="46.64432" lon="5.54083">
        <ele>298</ele>
        <time>2023-08-30T10:03:59Z</time>
      </trkpt>
      <trkpt lat="46.64429" lon="5.54081">
        <ele>298</ele>
        <time>2023-08-30T10:04:00Z</time>
      </trkpt>
      <trkpt lat="46.64426" lon="5.54079">
        <ele>298</ele>
        <time>2023-08-30T10:04:01Z</time>
      </trkpt>
      <trkpt lat="46.64423" lon="5.54079">
        <ele>298</ele>
        <time>2023-08-30T10:04:02Z</time>
      </trkpt>
      <trkpt lat="46.64419" lon="5.5408">
        <ele>297.6</ele>
        <time>2023-08-30T10:04:03Z</time>
      </trkpt>
      <trkpt lat="46.64416" lon="5.54082">
        <ele>297.6</ele>
        <time>2023-08-30T10:04:04Z</time>
      </trkpt>
      <trkpt lat="46.64414" lon="5.54083">
        <ele>297.6</ele>
        <time>2023-08-30T10:04:05Z</time>
      </trkpt>
      <trkpt lat="46.64411" lon="5.54084">
        <ele>297.6</ele>
        <time>2023-08-30T10:04:06Z</time>
      </trkpt>
      <trkpt lat="46.6441" lon="5.54085">
        <ele>298</ele>
        <time>2023-08-30T10:04:07Z</time>
      </trkpt>
      <trkpt lat="46.64409" lon="5.54085">
        <ele>298</ele>
        <time>2023-08-30T10:04:08Z</time>
      </trkpt>
      <trkpt lat="46.64409" lon="5.54086">
        <ele>298</ele>
        <time>2023-08-30T10:04:09Z</time>
      </trkpt>
      <trkpt lat="46.64408" lon="5.54087">
        <ele>298</ele>
        <time>2023-08-30T10:04:10Z</time>
      </trkpt>
      <trkpt lat="46.64408" lon="5.54088">
        <ele>298</ele>
        <time>2023-08-30T10:04:11Z</time>
      </trkpt>
      <trkpt lat="46.64405" lon="5.54082">
        <ele>297.4</ele>
        <time>2023-08-30T10:06:25Z</time>
      </trkpt>
      <trkpt lat="46.64404" lon="5.54082">
        <ele>297.4</ele>
        <time>2023-08-30T10:06:26Z</time>
      </trkpt>
      <trkpt lat="46.64403" lon="5.54084">
        <ele>297.4</ele>
        <time>2023-08-30T10:06:27Z</time>
      </trkpt>
      <trkpt lat="46.64402" lon="5.54086">
        <ele>297.4</ele>
        <time>2023-08-30T10:06:28Z</time>
      </trkpt>
      <trkpt lat="46.64402" lon="5.54089">
        <ele>297.4</ele>
        <time>2023-08-30T10:06:29Z</time>
      </trkpt>
      <trkpt lat="46.64401" lon="5.54092">
        <ele>297.4</ele>
        <time>2023-08-30T10:06:30Z</time>
      </trkpt>
      <trkpt lat="46.64401" lon="5.54096">
        <ele>297.2</ele>
        <time>2023-08-30T10:06:31Z</time>
      </trkpt>
      <trkpt lat="46.644" lon="5.541">
        <ele>297.6</ele>
        <time>2023-08-30T10:06:32Z</time>
      </trkpt>
      <trkpt lat="46.64399" lon="5.54104">
        <ele>297.6</ele>
        <time>2023-08-30T10:06:33Z</time>
      </trkpt>
      <trkpt lat="46.64398" lon="5.54108">
        <ele>297.6</ele>
        <time>2023-08-30T10:06:34Z</time>
      </trkpt>
      <trkpt lat="46.64396" lon="5.54111">
        <ele>297.6</ele>
        <time>2023-08-30T10:06:35Z</time>
      </trkpt>
      <trkpt lat="46.64394" lon="5.54114">
        <ele>297.4</ele>
        <time>2023-08-30T10:06:36Z</time>
      </trkpt>
      <trkpt lat="46.64393" lon="5.54117">
        <ele>297.4</ele>
        <time>2023-08-30T10:06:37Z</time>
      </trkpt>
      <trkpt lat="46.64391" lon="5.5412">
        <ele>297.4</ele>
        <time>2023-08-30T10:06:38Z</time>
      </trkpt>
      <trkpt lat="46.64389" lon="5.54123">
        <ele>297.4</ele>
        <time>2023-08-30T10:06:39Z</time>
      </trkpt>
      <trkpt lat="46.64387" lon="5.54126">
        <ele>297.4</ele>
        <time>2023-08-30T10:06:40Z</time>
      </trkpt>
      <trkpt lat="46.64385" lon="5.54129">
        <ele>298</ele>
        <time>2023-08-30T10:06:41Z</time>
      </trkpt>
      <trkpt lat="46.64383" lon="5.54131">
        <ele>298</ele>
        <time>2023-08-30T10:06:42Z</time>
      </trkpt>
      <trkpt lat="46.64382" lon="5.54133">
        <ele>298</ele>
        <time>2023-08-30T10:06:43Z</time>
      </trkpt>
      <trkpt lat="46.64379" lon="5.54134">
        <ele>298</ele>
        <time>2023-08-30T10:06:44Z</time>
      </trkpt>
      <trkpt lat="46.64377" lon="5.54136">
        <ele>298.8</ele>
        <time>2023-08-30T10:06:45Z</time>
      </trkpt>
      <trkpt lat="46.64375" lon="5.54137">
        <ele>298.6</ele>
        <time>2023-08-30T10:06:46Z</time>
      </trkpt>
      <trkpt lat="46.64373" lon="5.54138">
        <ele>298.6</ele>
        <time>2023-08-30T10:06:47Z</time>
      </trkpt>
      <trkpt lat="46.64371" lon="5.54138">
        <ele>298.6</ele>
        <time>2023-08-30T10:06:48Z</time>
      </trkpt>
      <trkpt lat="46.64369" lon="5.54139">
        <ele>299.2</ele>
        <time>2023-08-30T10:06:49Z</time>
      </trkpt>
      <trkpt lat="46.64366" lon="5.5414">
        <ele>299.2</ele>
        <time>2023-08-30T10:06:50Z</time>
      </trkpt>
      <trkpt lat="46.64364" lon="5.54141">
        <ele>299.2</ele>
        <time>2023-08-30T10:06:51Z</time>
      </trkpt>
      <trkpt lat="46.64361" lon="5.54142">
        <ele>299.2</ele>
        <time>2023-08-30T10:06:52Z</time>
      </trkpt>
      <trkpt lat="46.64357" lon="5.54143">
        <ele>299.2</ele>
        <time>2023-08-30T10:06:53Z</time>
      </trkpt>
      <trkpt lat="46.64355" lon="5.54143">
        <ele>299.2</ele>
        <time>2023-08-30T10:06:54Z</time>
      </trkpt>
      <trkpt lat="46.64352" lon="5.54144">
        <ele>299.4</ele>
        <time>2023-08-30T10:06:55Z</time>
      </trkpt>
      <trkpt lat="46.64349" lon="5.54145">
        <ele>299.4</ele>
        <time>2023-08-30T10:06:56Z</time>
      </trkpt>
      <trkpt lat="46.64346" lon="5.54146">
        <ele>299.4</ele>
        <time>2023-08-30T10:06:57Z</time>
      </trkpt>
      <trkpt lat="46.64343" lon="5.54147">
        <ele>299.8</ele>
        <time>2023-08-30T10:06:58Z</time>
      </trkpt>
      <trkpt lat="46.6434" lon="5.54148">
        <ele>299.6</ele>
        <time>2023-08-30T10:06:59Z</time>
      </trkpt>
      <trkpt lat="46.64337" lon="5.54148">
        <ele>299.6</ele>
        <time>2023-08-30T10:07:00Z</time>
      </trkpt>
      <trkpt lat="46.64335" lon="5.5415">
        <ele>299.6</ele>
        <time>2023-08-30T10:07:01Z</time>
      </trkpt>
      <trkpt lat="46.64332" lon="5.54151">
        <ele>299.6</ele>
        <time>2023-08-30T10:07:02Z</time>
      </trkpt>
      <trkpt lat="46.64329" lon="5.54151">
        <ele>299.6</ele>
        <time>2023-08-30T10:07:03Z</time>
      </trkpt>
      <trkpt lat="46.64326" lon="5.54151">
        <ele>299.6</ele>
        <time>2023-08-30T10:07:04Z</time>
      </trkpt>
      <trkpt lat="46.64323" lon="5.5415">
        <ele>299.6</ele>
        <time>2023-08-30T10:07:05Z</time>
      </trkpt>
      <trkpt lat="46.6432" lon="5.5415">
        <ele>299.6</ele>
        <time>2023-08-30T10:07:06Z</time>
      </trkpt>
      <trkpt lat="46.64316" lon="5.54149">
        <ele>299.6</ele>
        <time>2023-08-30T10:07:07Z</time>
      </trkpt>
      <trkpt lat="46.64313" lon="5.54149">
        <ele>300</ele>
        <time>2023-08-30T10:07:08Z</time>
      </trkpt>
      <trkpt lat="46.64311" lon="5.54149">
        <ele>299.8</ele>
        <time>2023-08-30T10:07:09Z</time>
      </trkpt>
      <trkpt lat="46.64308" lon="5.54148">
        <ele>299.8</ele>
        <time>2023-08-30T10:07:10Z</time>
      </trkpt>
      <trkpt lat="46.64306" lon="5.54148">
        <ele>299.8</ele>
        <time>2023-08-30T10:07:11Z</time>
      </trkpt>
      <trkpt lat="46.64304" lon="5.54147">
        <ele>299.8</ele>
        <time>2023-08-30T10:07:12Z</time>
      </trkpt>
      <trkpt lat="46.64301" lon="5.54147">
        <ele>300</ele>
        <time>2023-08-30T10:07:13Z</time>
      </trkpt>
      <trkpt lat="46.64298" lon="5.54147">
        <ele>300</ele>
        <time>2023-08-30T10:07:14Z</time>
      </trkpt>
      <trkpt lat="46.64296" lon="5.54147">
        <ele>300</ele>
        <time>2023-08-30T10:07:15Z</time>
      </trkpt>
      <trkpt lat="46.64293" lon="5.54147">
        <ele>300.4</ele>
        <time>2023-08-30T10:07:16Z</time>
      </trkpt>
      <trkpt lat="46.6429" lon="5.54147">
        <ele>300.8</ele>
        <time>2023-08-30T10:07:17Z</time>
      </trkpt>
      <trkpt lat="46.64287" lon="5.54148">
        <ele>300.8</ele>
        <time>2023-08-30T10:07:18Z</time>
      </trkpt>
      <trkpt lat="46.64285" lon="5.54149">
        <ele>300.8</ele>
        <time>2023-08-30T10:07:19Z</time>
      </trkpt>
      <trkpt lat="46.64282" lon="5.54151">
        <ele>300.8</ele>
        <time>2023-08-30T10:07:20Z</time>
      </trkpt>
      <trkpt lat="46.6428" lon="5.54152">
        <ele>301.2</ele>
        <time>2023-08-30T10:07:21Z</time>
      </trkpt>
      <trkpt lat="46.64277" lon="5.54154">
        <ele>301.2</ele>
        <time>2023-08-30T10:07:22Z</time>
      </trkpt>
      <trkpt lat="46.64275" lon="5.54157">
        <ele>301.4</ele>
        <time>2023-08-30T10:07:23Z</time>
      </trkpt>
      <trkpt lat="46.64272" lon="5.54159">
        <ele>301.4</ele>
        <time>2023-08-30T10:07:24Z</time>
      </trkpt>
      <trkpt lat="46.6427" lon="5.54162">
        <ele>301.4</ele>
        <time>2023-08-30T10:07:25Z</time>
      </trkpt>
      <trkpt lat="46.64269" lon="5.54165">
        <ele>301.6</ele>
        <time>2023-08-30T10:07:26Z</time>
      </trkpt>
      <trkpt lat="46.64267" lon="5.54168">
        <ele>301.6</ele>
        <time>2023-08-30T10:07:27Z</time>
      </trkpt>
      <trkpt lat="46.64265" lon="5.54171">
        <ele>301.6</ele>
        <time>2023-08-30T10:07:28Z</time>
      </trkpt>
      <trkpt lat="46.64263" lon="5.54174">
        <ele>301.6</ele>
        <time>2023-08-30T10:07:29Z</time>
      </trkpt>
      <trkpt lat="46.64261" lon="5.54176">
        <ele>302</ele>
        <time>2023-08-30T10:07:30Z</time>
      </trkpt>
      <trkpt lat="46.64258" lon="5.54179">
        <ele>302.2</ele>
        <time>2023-08-30T10:07:31Z</time>
      </trkpt>
      <trkpt lat="46.64255" lon="5.54181">
        <ele>302.2</ele>
        <time>2023-08-30T10:07:32Z</time>
      </trkpt>
      <trkpt lat="46.64252" lon="5.54182">
        <ele>302.2</ele>
        <time>2023-08-30T10:07:33Z</time>
      </trkpt>
      <trkpt lat="46.64249" lon="5.54183">
        <ele>302.2</ele>
        <time>2023-08-30T10:07:34Z</time>
      </trkpt>
      <trkpt lat="46.64247" lon="5.54184">
        <ele>302.4</ele>
        <time>2023-08-30T10:07:35Z</time>
      </trkpt>
      <trkpt lat="46.64244" lon="5.54185">
        <ele>302.2</ele>
        <time>2023-08-30T10:07:36Z</time>
      </trkpt>
      <trkpt lat="46.6424" lon="5.54185">
        <ele>302.2</ele>
        <time>2023-08-30T10:07:37Z</time>
      </trkpt>
      <trkpt lat="46.64237" lon="5.54186">
        <ele>302.2</ele>
        <time>2023-08-30T10:07:38Z</time>
      </trkpt>
      <trkpt lat="46.64234" lon="5.54186">
        <ele>302.2</ele>
        <time>2023-08-30T10:07:39Z</time>
      </trkpt>
      <trkpt lat="46.64231" lon="5.54187">
        <ele>302.4</ele>
        <time>2023-08-30T10:07:40Z</time>
      </trkpt>
      <trkpt lat="46.64227" lon="5.54187">
        <ele>302.4</ele>
        <time>2023-08-30T10:07:41Z</time>
      </trkpt>
      <trkpt lat="46.64222" lon="5.54188">
        <ele>302.4</ele>
        <time>2023-08-30T10:07:42Z</time>
      </trkpt>
      <trkpt lat="46.64221" lon="5.54188">
        <ele>302.4</ele>
        <time>2023-08-30T10:07:43Z</time>
      </trkpt>
      <trkpt lat="46.64217" lon="5.54188">
        <ele>302.2</ele>
        <time>2023-08-30T10:07:44Z</time>
      </trkpt>
      <trkpt lat="46.64213" lon="5.54189">
        <ele>302.2</ele>
        <time>2023-08-30T10:07:45Z</time>
      </trkpt>
      <trkpt lat="46.6421" lon="5.54189">
        <ele>302.2</ele>
        <time>2023-08-30T10:07:46Z</time>
      </trkpt>
      <trkpt lat="46.64206" lon="5.54189">
        <ele>302.2</ele>
        <time>2023-08-30T10:07:47Z</time>
      </trkpt>
      <trkpt lat="46.64202" lon="5.5419">
        <ele>302.2</ele>
        <time>2023-08-30T10:07:48Z</time>
      </trkpt>
      <trkpt lat="46.64199" lon="5.5419">
        <ele>302.2</ele>
        <time>2023-08-30T10:07:49Z</time>
      </trkpt>
      <trkpt lat="46.64195" lon="5.54191">
        <ele>302.2</ele>
        <time>2023-08-30T10:07:50Z</time>
      </trkpt>
      <trkpt lat="46.64191" lon="5.54192">
        <ele>302.2</ele>
        <time>2023-08-30T10:07:51Z</time>
      </trkpt>
      <trkpt lat="46.64188" lon="5.54192">
        <ele>302.2</ele>
        <time>2023-08-30T10:07:52Z</time>
      </trkpt>
      <trkpt lat="46.64184" lon="5.54193">
        <ele>302.2</ele>
        <time>2023-08-30T10:07:53Z</time>
      </trkpt>
      <trkpt lat="46.6418" lon="5.54194">
        <ele>302.2</ele>
        <time>2023-08-30T10:07:54Z</time>
      </trkpt>
      <trkpt lat="46.64177" lon="5.54194">
        <ele>302.2</ele>
        <time>2023-08-30T10:07:55Z</time>
      </trkpt>
      <trkpt lat="46.64173" lon="5.54195">
        <ele>302.2</ele>
        <time>2023-08-30T10:07:56Z</time>
      </trkpt>
      <trkpt lat="46.64169" lon="5.54196">
        <ele>302.2</ele>
        <time>2023-08-30T10:07:57Z</time>
      </trkpt>
      <trkpt lat="46.64165" lon="5.54197">
        <ele>302.2</ele>
        <time>2023-08-30T10:07:58Z</time>
      </trkpt>
      <trkpt lat="46.64161" lon="5.54198">
        <ele>302.6</ele>
        <time>2023-08-30T10:07:59Z</time>
      </trkpt>
      <trkpt lat="46.64158" lon="5.542">
        <ele>302.6</ele>
        <time>2023-08-30T10:08:00Z</time>
      </trkpt>
      <trkpt lat="46.64154" lon="5.54201">
        <ele>302.6</ele>
        <time>2023-08-30T10:08:01Z</time>
      </trkpt>
      <trkpt lat="46.64151" lon="5.54203">
        <ele>303.2</ele>
        <time>2023-08-30T10:08:02Z</time>
      </trkpt>
      <trkpt lat="46.64147" lon="5.54204">
        <ele>303.2</ele>
        <time>2023-08-30T10:08:03Z</time>
      </trkpt>
      <trkpt lat="46.64144" lon="5.54206">
        <ele>303.2</ele>
        <time>2023-08-30T10:08:04Z</time>
      </trkpt>
      <trkpt lat="46.64141" lon="5.54208">
        <ele>303.2</ele>
        <time>2023-08-30T10:08:05Z</time>
      </trkpt>
      <trkpt lat="46.64137" lon="5.54211">
        <ele>303.2</ele>
        <time>2023-08-30T10:08:06Z</time>
      </trkpt>
      <trkpt lat="46.64134" lon="5.54213">
        <ele>303.2</ele>
        <time>2023-08-30T10:08:07Z</time>
      </trkpt>
      <trkpt lat="46.64131" lon="5.54216">
        <ele>303.6</ele>
        <time>2023-08-30T10:08:08Z</time>
      </trkpt>
      <trkpt lat="46.64128" lon="5.54219">
        <ele>303.6</ele>
        <time>2023-08-30T10:08:09Z</time>
      </trkpt>
      <trkpt lat="46.64125" lon="5.54222">
        <ele>303.6</ele>
        <time>2023-08-30T10:08:10Z</time>
      </trkpt>
      <trkpt lat="46.64122" lon="5.54224">
        <ele>303.6</ele>
        <time>2023-08-30T10:08:11Z</time>
      </trkpt>
      <trkpt lat="46.64119" lon="5.54227">
        <ele>304.4</ele>
        <time>2023-08-30T10:08:12Z</time>
      </trkpt>
      <trkpt lat="46.64116" lon="5.54229">
        <ele>304.6</ele>
        <time>2023-08-30T10:08:13Z</time>
      </trkpt>
      <trkpt lat="46.64113" lon="5.54231">
        <ele>304.6</ele>
        <time>2023-08-30T10:08:14Z</time>
      </trkpt>
      <trkpt lat="46.6411" lon="5.54233">
        <ele>304.6</ele>
        <time>2023-08-30T10:08:15Z</time>
      </trkpt>
      <trkpt lat="46.64107" lon="5.54236">
        <ele>304.6</ele>
        <time>2023-08-30T10:08:16Z</time>
      </trkpt>
      <trkpt lat="46.64103" lon="5.54237">
        <ele>304.6</ele>
        <time>2023-08-30T10:08:17Z</time>
      </trkpt>
      <trkpt lat="46.641" lon="5.54239">
        <ele>305.2</ele>
        <time>2023-08-30T10:08:18Z</time>
      </trkpt>
      <trkpt lat="46.64097" lon="5.5424">
        <ele>305.2</ele>
        <time>2023-08-30T10:08:19Z</time>
      </trkpt>
      <trkpt lat="46.64095" lon="5.54241">
        <ele>305.2</ele>
        <time>2023-08-30T10:08:20Z</time>
      </trkpt>
      <trkpt lat="46.64092" lon="5.54242">
        <ele>305.6</ele>
        <time>2023-08-30T10:08:21Z</time>
      </trkpt>
      <trkpt lat="46.6409" lon="5.54243">
        <ele>305.6</ele>
        <time>2023-08-30T10:08:22Z</time>
      </trkpt>
      <trkpt lat="46.64088" lon="5.54243">
        <ele>305.6</ele>
        <time>2023-08-30T10:08:23Z</time>
      </trkpt>
      <trkpt lat="46.64088" lon="5.54243">
        <ele>305.6</ele>
        <time>2023-08-30T10:08:24Z</time>
      </trkpt>
      <trkpt lat="46.64089" lon="5.54245">
        <ele>302.6</ele>
        <time>2023-08-30T10:10:11Z</time>
      </trkpt>
      <trkpt lat="46.6409" lon="5.54246">
        <ele>302.6</ele>
        <time>2023-08-30T10:10:12Z</time>
      </trkpt>
      <trkpt lat="46.64091" lon="5.54246">
        <ele>303</ele>
        <time>2023-08-30T10:10:13Z</time>
      </trkpt>
      <trkpt lat="46.64093" lon="5.54245">
        <ele>303</ele>
        <time>2023-08-30T10:10:14Z</time>
      </trkpt>
      <trkpt lat="46.64094" lon="5.54244">
        <ele>303</ele>
        <time>2023-08-30T10:10:15Z</time>
      </trkpt>
      <trkpt lat="46.64096" lon="5.54243">
        <ele>303</ele>
        <time>2023-08-30T10:10:16Z</time>
      </trkpt>
      <trkpt lat="46.64099" lon="5.54241">
        <ele>303.4</ele>
        <time>2023-08-30T10:10:17Z</time>
      </trkpt>
      <trkpt lat="46.64101" lon="5.54239">
        <ele>303.4</ele>
        <time>2023-08-30T10:10:18Z</time>
      </trkpt>
      <trkpt lat="46.64104" lon="5.54237">
        <ele>303.4</ele>
        <time>2023-08-30T10:10:19Z</time>
      </trkpt>
      <trkpt lat="46.64108" lon="5.54235">
        <ele>303.4</ele>
        <time>2023-08-30T10:10:20Z</time>
      </trkpt>
      <trkpt lat="46.64111" lon="5.54232">
        <ele>303.4</ele>
        <time>2023-08-30T10:10:21Z</time>
      </trkpt>
      <trkpt lat="46.64115" lon="5.54229">
        <ele>304</ele>
        <time>2023-08-30T10:10:22Z</time>
      </trkpt>
      <trkpt lat="46.64118" lon="5.54226">
        <ele>304</ele>
        <time>2023-08-30T10:10:23Z</time>
      </trkpt>
      <trkpt lat="46.64122" lon="5.54223">
        <ele>304</ele>
        <time>2023-08-30T10:10:24Z</time>
      </trkpt>
      <trkpt lat="46.64128" lon="5.54219">
        <ele>304</ele>
        <time>2023-08-30T10:10:25Z</time>
      </trkpt>
      <trkpt lat="46.6413" lon="5.54217">
        <ele>304.6</ele>
        <time>2023-08-30T10:10:26Z</time>
      </trkpt>
      <trkpt lat="46.64134" lon="5.54214">
        <ele>304.8</ele>
        <time>2023-08-30T10:10:27Z</time>
      </trkpt>
      <trkpt lat="46.64138" lon="5.54211">
        <ele>304.8</ele>
        <time>2023-08-30T10:10:28Z</time>
      </trkpt>
      <trkpt lat="46.64142" lon="5.54208">
        <ele>304.8</ele>
        <time>2023-08-30T10:10:29Z</time>
      </trkpt>
      <trkpt lat="46.64145" lon="5.54205">
        <ele>304.8</ele>
        <time>2023-08-30T10:10:30Z</time>
      </trkpt>
      <trkpt lat="46.64147" lon="5.54205">
        <ele>305.2</ele>
        <time>2023-08-30T10:10:31Z</time>
      </trkpt>
      <trkpt lat="46.64149" lon="5.54207">
        <ele>305.2</ele>
        <time>2023-08-30T10:10:32Z</time>
      </trkpt>
      <trkpt lat="46.6415" lon="5.54211">
        <ele>305.2</ele>
        <time>2023-08-30T10:10:33Z</time>
      </trkpt>
      <trkpt lat="46.64148" lon="5.54213">
        <ele>305.2</ele>
        <time>2023-08-30T10:10:34Z</time>
      </trkpt>
      <trkpt lat="46.64146" lon="5.54215">
        <ele>305.8</ele>
        <time>2023-08-30T10:10:35Z</time>
      </trkpt>
      <trkpt lat="46.64144" lon="5.54217">
        <ele>306</ele>
        <time>2023-08-30T10:10:36Z</time>
      </trkpt>
      <trkpt lat="46.6414" lon="5.5422">
        <ele>306</ele>
        <time>2023-08-30T10:10:37Z</time>
      </trkpt>
      <trkpt lat="46.64139" lon="5.54221">
        <ele>306</ele>
        <time>2023-08-30T10:10:38Z</time>
      </trkpt>
      <trkpt lat="46.64136" lon="5.54224">
        <ele>306.8</ele>
        <time>2023-08-30T10:10:39Z</time>
      </trkpt>
      <trkpt lat="46.64133" lon="5.54226">
        <ele>306.8</ele>
        <time>2023-08-30T10:10:40Z</time>
      </trkpt>
      <trkpt lat="46.64131" lon="5.54229">
        <ele>306.8</ele>
        <time>2023-08-30T10:10:41Z</time>
      </trkpt>
      <trkpt lat="46.64129" lon="5.54231">
        <ele>306.8</ele>
        <time>2023-08-30T10:10:42Z</time>
      </trkpt>
      <trkpt lat="46.64127" lon="5.54234">
        <ele>306.8</ele>
        <time>2023-08-30T10:10:43Z</time>
      </trkpt>
      <trkpt lat="46.64125" lon="5.54236">
        <ele>307.6</ele>
        <time>2023-08-30T10:10:44Z</time>
      </trkpt>
      <trkpt lat="46.64124" lon="5.54238">
        <ele>307.6</ele>
        <time>2023-08-30T10:10:45Z</time>
      </trkpt>
      <trkpt lat="46.64122" lon="5.5424">
        <ele>307.6</ele>
        <time>2023-08-30T10:10:46Z</time>
      </trkpt>
      <trkpt lat="46.6412" lon="5.54242">
        <ele>307.6</ele>
        <time>2023-08-30T10:10:47Z</time>
      </trkpt>
      <trkpt lat="46.64118" lon="5.54244">
        <ele>308</ele>
        <time>2023-08-30T10:10:48Z</time>
      </trkpt>
      <trkpt lat="46.64116" lon="5.54246">
        <ele>308.2</ele>
        <time>2023-08-30T10:10:49Z</time>
      </trkpt>
      <trkpt lat="46.64114" lon="5.54247">
        <ele>308.2</ele>
        <time>2023-08-30T10:10:50Z</time>
      </trkpt>
      <trkpt lat="46.64112" lon="5.54249">
        <ele>308.2</ele>
        <time>2023-08-30T10:10:51Z</time>
      </trkpt>
      <trkpt lat="46.6411" lon="5.5425">
        <ele>308.8</ele>
        <time>2023-08-30T10:10:52Z</time>
      </trkpt>
      <trkpt lat="46.64108" lon="5.54252">
        <ele>308.8</ele>
        <time>2023-08-30T10:10:53Z</time>
      </trkpt>
      <trkpt lat="46.64106" lon="5.54254">
        <ele>308.8</ele>
        <time>2023-08-30T10:10:54Z</time>
      </trkpt>
      <trkpt lat="46.64105" lon="5.54256">
        <ele>308.8</ele>
        <time>2023-08-30T10:10:55Z</time>
      </trkpt>
      <trkpt lat="46.64103" lon="5.54258">
        <ele>309.4</ele>
        <time>2023-08-30T10:10:56Z</time>
      </trkpt>
      <trkpt lat="46.64101" lon="5.5426">
        <ele>309.4</ele>
        <time>2023-08-30T10:10:57Z</time>
      </trkpt>
      <trkpt lat="46.64099" lon="5.54261">
        <ele>309.6</ele>
        <time>2023-08-30T10:10:58Z</time>
      </trkpt>
      <trkpt lat="46.64098" lon="5.54263">
        <ele>309.6</ele>
        <time>2023-08-30T10:10:59Z</time>
      </trkpt>
      <trkpt lat="46.64096" lon="5.54265">
        <ele>309.6</ele>
        <time>2023-08-30T10:11:00Z</time>
      </trkpt>
      <trkpt lat="46.64094" lon="5.54267">
        <ele>310</ele>
        <time>2023-08-30T10:11:01Z</time>
      </trkpt>
      <trkpt lat="46.64093" lon="5.54269">
        <ele>310.2</ele>
        <time>2023-08-30T10:11:02Z</time>
      </trkpt>
      <trkpt lat="46.64091" lon="5.5427">
        <ele>310.2</ele>
        <time>2023-08-30T10:11:03Z</time>
      </trkpt>
      <trkpt lat="46.64089" lon="5.54272">
        <ele>310.2</ele>
        <time>2023-08-30T10:11:04Z</time>
      </trkpt>
      <trkpt lat="46.64088" lon="5.54274">
        <ele>310.2</ele>
        <time>2023-08-30T10:11:05Z</time>
      </trkpt>
      <trkpt lat="46.64086" lon="5.54275">
        <ele>310.8</ele>
        <time>2023-08-30T10:11:06Z</time>
      </trkpt>
      <trkpt lat="46.64084" lon="5.54277">
        <ele>311</ele>
        <time>2023-08-30T10:11:07Z</time>
      </trkpt>
      <trkpt lat="46.64082" lon="5.54279">
        <ele>311</ele>
        <time>2023-08-30T10:11:08Z</time>
      </trkpt>
      <trkpt lat="46.6408" lon="5.5428">
        <ele>311</ele>
        <time>2023-08-30T10:11:09Z</time>
      </trkpt>
      <trkpt lat="46.64078" lon="5.54282">
        <ele>311</ele>
        <time>2023-08-30T10:11:10Z</time>
      </trkpt>
      <trkpt lat="46.64076" lon="5.54283">
        <ele>311.6</ele>
        <time>2023-08-30T10:11:11Z</time>
      </trkpt>
      <trkpt lat="46.64074" lon="5.54285">
        <ele>311.6</ele>
        <time>2023-08-30T10:11:12Z</time>
      </trkpt>
      <trkpt lat="46.64072" lon="5.54287">
        <ele>311.6</ele>
        <time>2023-08-30T10:11:13Z</time>
      </trkpt>
      <trkpt lat="46.6407" lon="5.54288">
        <ele>311.6</ele>
        <time>2023-08-30T10:11:14Z</time>
      </trkpt>
      <trkpt lat="46.64068" lon="5.5429">
        <ele>311.6</ele>
        <time>2023-08-30T10:11:15Z</time>
      </trkpt>
      <trkpt lat="46.64067" lon="5.54291">
        <ele>312.4</ele>
        <time>2023-08-30T10:11:16Z</time>
      </trkpt>
      <trkpt lat="46.64065" lon="5.54292">
        <ele>312.4</ele>
        <time>2023-08-30T10:11:17Z</time>
      </trkpt>
      <trkpt lat="46.64063" lon="5.54293">
        <ele>312.4</ele>
        <time>2023-08-30T10:11:18Z</time>
      </trkpt>
      <trkpt lat="46.64061" lon="5.54295">
        <ele>312.4</ele>
        <time>2023-08-30T10:11:19Z</time>
      </trkpt>
      <trkpt lat="46.64059" lon="5.54295">
        <ele>313.2</ele>
        <time>2023-08-30T10:11:20Z</time>
      </trkpt>
      <trkpt lat="46.64057" lon="5.54296">
        <ele>313.2</ele>
        <time>2023-08-30T10:11:21Z</time>
      </trkpt>
      <trkpt lat="46.64055" lon="5.54297">
        <ele>313.2</ele>
        <time>2023-08-30T10:11:22Z</time>
      </trkpt>
      <trkpt lat="46.64053" lon="5.54298">
        <ele>313.2</ele>
        <time>2023-08-30T10:11:23Z</time>
      </trkpt>
      <trkpt lat="46.64051" lon="5.54298">
        <ele>313.6</ele>
        <time>2023-08-30T10:11:24Z</time>
      </trkpt>
      <trkpt lat="46.64049" lon="5.54299">
        <ele>313.6</ele>
        <time>2023-08-30T10:11:25Z</time>
      </trkpt>
      <trkpt lat="46.64047" lon="5.543">
        <ele>313.6</ele>
        <time>2023-08-30T10:11:26Z</time>
      </trkpt>
      <trkpt lat="46.64045" lon="5.543">
        <ele>313.6</ele>
        <time>2023-08-30T10:11:27Z</time>
      </trkpt>
      <trkpt lat="46.64043" lon="5.54301">
        <ele>314</ele>
        <time>2023-08-30T10:11:28Z</time>
      </trkpt>
      <trkpt lat="46.64041" lon="5.54301">
        <ele>314.2</ele>
        <time>2023-08-30T10:11:29Z</time>
      </trkpt>
      <trkpt lat="46.64039" lon="5.54301">
        <ele>314.2</ele>
        <time>2023-08-30T10:11:30Z</time>
      </trkpt>
      <trkpt lat="46.64037" lon="5.54302">
        <ele>314.2</ele>
        <time>2023-08-30T10:11:31Z</time>
      </trkpt>
      <trkpt lat="46.64035" lon="5.54302">
        <ele>314.6</ele>
        <time>2023-08-30T10:11:32Z</time>
      </trkpt>
      <trkpt lat="46.64033" lon="5.54303">
        <ele>314.6</ele>
        <time>2023-08-30T10:11:33Z</time>
      </trkpt>
      <trkpt lat="46.64031" lon="5.54303">
        <ele>314.8</ele>
        <time>2023-08-30T10:11:34Z</time>
      </trkpt>
      <trkpt lat="46.64029" lon="5.54304">
        <ele>314.8</ele>
        <time>2023-08-30T10:11:35Z</time>
      </trkpt>
      <trkpt lat="46.64027" lon="5.54304">
        <ele>314.8</ele>
        <time>2023-08-30T10:11:36Z</time>
      </trkpt>
      <trkpt lat="46.64025" lon="5.54305">
        <ele>315</ele>
        <time>2023-08-30T10:11:37Z</time>
      </trkpt>
      <trkpt lat="46.64023" lon="5.54305">
        <ele>315.2</ele>
        <time>2023-08-30T10:11:38Z</time>
      </trkpt>
      <trkpt lat="46.64021" lon="5.54306">
        <ele>315.2</ele>
        <time>2023-08-30T10:11:39Z</time>
      </trkpt>
      <trkpt lat="46.64019" lon="5.54306">
        <ele>315.2</ele>
        <time>2023-08-30T10:11:40Z</time>
      </trkpt>
      <trkpt lat="46.64017" lon="5.54307">
        <ele>315.4</ele>
        <time>2023-08-30T10:11:41Z</time>
      </trkpt>
      <trkpt lat="46.64015" lon="5.54307">
        <ele>315.4</ele>
        <time>2023-08-30T10:11:42Z</time>
      </trkpt>
      <trkpt lat="46.64013" lon="5.54307">
        <ele>315.4</ele>
        <time>2023-08-30T10:11:43Z</time>
      </trkpt>
      <trkpt lat="46.64011" lon="5.54308">
        <ele>315.4</ele>
        <time>2023-08-30T10:11:44Z</time>
      </trkpt>
      <trkpt lat="46.64008" lon="5.54308">
        <ele>315.4</ele>
        <time>2023-08-30T10:11:45Z</time>
      </trkpt>
      <trkpt lat="46.64006" lon="5.54308">
        <ele>315.4</ele>
        <time>2023-08-30T10:11:46Z</time>
      </trkpt>
      <trkpt lat="46.64004" lon="5.54309">
        <ele>315.6</ele>
        <time>2023-08-30T10:11:47Z</time>
      </trkpt>
      <trkpt lat="46.64002" lon="5.54309">
        <ele>315.6</ele>
        <time>2023-08-30T10:11:48Z</time>
      </trkpt>
      <trkpt lat="46.64" lon="5.5431">
        <ele>315.6</ele>
        <time>2023-08-30T10:11:49Z</time>
      </trkpt>
      <trkpt lat="46.63998" lon="5.54311">
        <ele>315.6</ele>
        <time>2023-08-30T10:11:50Z</time>
      </trkpt>
      <trkpt lat="46.63996" lon="5.54311">
        <ele>315.8</ele>
        <time>2023-08-30T10:11:51Z</time>
      </trkpt>
      <trkpt lat="46.63994" lon="5.54311">
        <ele>315.8</ele>
        <time>2023-08-30T10:11:52Z</time>
      </trkpt>
      <trkpt lat="46.63992" lon="5.54312">
        <ele>315.8</ele>
        <time>2023-08-30T10:11:53Z</time>
      </trkpt>
      <trkpt lat="46.6399" lon="5.54313">
        <ele>315.8</ele>
        <time>2023-08-30T10:11:54Z</time>
      </trkpt>
      <trkpt lat="46.63988" lon="5.54314">
        <ele>316</ele>
        <time>2023-08-30T10:11:55Z</time>
      </trkpt>
      <trkpt lat="46.63985" lon="5.54315">
        <ele>316.4</ele>
        <time>2023-08-30T10:11:56Z</time>
      </trkpt>
      <trkpt lat="46.63984" lon="5.54316">
        <ele>316.4</ele>
        <time>2023-08-30T10:11:57Z</time>
      </trkpt>
      <trkpt lat="46.63982" lon="5.54316">
        <ele>316.4</ele>
        <time>2023-08-30T10:11:58Z</time>
      </trkpt>
      <trkpt lat="46.63979" lon="5.54317">
        <ele>316.4</ele>
        <time>2023-08-30T10:11:59Z</time>
      </trkpt>
      <trkpt lat="46.63977" lon="5.54318">
        <ele>316.4</ele>
        <time>2023-08-30T10:12:00Z</time>
      </trkpt>
      <trkpt lat="46.63975" lon="5.54319">
        <ele>316.8</ele>
        <time>2023-08-30T10:12:01Z</time>
      </trkpt>
      <trkpt lat="46.63973" lon="5.5432">
        <ele>316.8</ele>
        <time>2023-08-30T10:12:02Z</time>
      </trkpt>
      <trkpt lat="46.63971" lon="5.5432">
        <ele>316.8</ele>
        <time>2023-08-30T10:12:03Z</time>
      </trkpt>
      <trkpt lat="46.63969" lon="5.54321">
        <ele>316.8</ele>
        <time>2023-08-30T10:12:04Z</time>
      </trkpt>
      <trkpt lat="46.63967" lon="5.54322">
        <ele>317.6</ele>
        <time>2023-08-30T10:12:05Z</time>
      </trkpt>
      <trkpt lat="46.63965" lon="5.54323">
        <ele>317.6</ele>
        <time>2023-08-30T10:12:06Z</time>
      </trkpt>
      <trkpt lat="46.63963" lon="5.54324">
        <ele>317.6</ele>
        <time>2023-08-30T10:12:07Z</time>
      </trkpt>
      <trkpt lat="46.63961" lon="5.54325">
        <ele>317.6</ele>
        <time>2023-08-30T10:12:08Z</time>
      </trkpt>
      <trkpt lat="46.63959" lon="5.54326">
        <ele>317.6</ele>
        <time>2023-08-30T10:12:09Z</time>
      </trkpt>
      <trkpt lat="46.63957" lon="5.54327">
        <ele>317.6</ele>
        <time>2023-08-30T10:12:10Z</time>
      </trkpt>
      <trkpt lat="46.63955" lon="5.54328">
        <ele>318.2</ele>
        <time>2023-08-30T10:12:11Z</time>
      </trkpt>
      <trkpt lat="46.63953" lon="5.54328">
        <ele>318.2</ele>
        <time>2023-08-30T10:12:12Z</time>
      </trkpt>
      <trkpt lat="46.63951" lon="5.5433">
        <ele>318.6</ele>
        <time>2023-08-30T10:12:13Z</time>
      </trkpt>
      <trkpt lat="46.63949" lon="5.54331">
        <ele>318.6</ele>
        <time>2023-08-30T10:12:14Z</time>
      </trkpt>
      <trkpt lat="46.63947" lon="5.54332">
        <ele>318.6</ele>
        <time>2023-08-30T10:12:15Z</time>
      </trkpt>
      <trkpt lat="46.63945" lon="5.54333">
        <ele>318.6</ele>
        <time>2023-08-30T10:12:16Z</time>
      </trkpt>
      <trkpt lat="46.63943" lon="5.54334">
        <ele>318.6</ele>
        <time>2023-08-30T10:12:17Z</time>
      </trkpt>
      <trkpt lat="46.63941" lon="5.54336">
        <ele>319.4</ele>
        <time>2023-08-30T10:12:18Z</time>
      </trkpt>
      <trkpt lat="46.63939" lon="5.54337">
        <ele>319.6</ele>
        <time>2023-08-30T10:12:19Z</time>
      </trkpt>
      <trkpt lat="46.63937" lon="5.54338">
        <ele>319.6</ele>
        <time>2023-08-30T10:12:20Z</time>
      </trkpt>
      <trkpt lat="46.63935" lon="5.5434">
        <ele>319.6</ele>
        <time>2023-08-30T10:12:21Z</time>
      </trkpt>
      <trkpt lat="46.63933" lon="5.54341">
        <ele>320.2</ele>
        <time>2023-08-30T10:12:22Z</time>
      </trkpt>
      <trkpt lat="46.63931" lon="5.54342">
        <ele>320.2</ele>
        <time>2023-08-30T10:12:23Z</time>
      </trkpt>
      <trkpt lat="46.63929" lon="5.54344">
        <ele>320.2</ele>
        <time>2023-08-30T10:12:24Z</time>
      </trkpt>
      <trkpt lat="46.63927" lon="5.54345">
        <ele>320.2</ele>
        <time>2023-08-30T10:12:25Z</time>
      </trkpt>
      <trkpt lat="46.63925" lon="5.54346">
        <ele>320.8</ele>
        <time>2023-08-30T10:12:26Z</time>
      </trkpt>
      <trkpt lat="46.63923" lon="5.54348">
        <ele>321</ele>
        <time>2023-08-30T10:12:27Z</time>
      </trkpt>
      <trkpt lat="46.63921" lon="5.54349">
        <ele>321</ele>
        <time>2023-08-30T10:12:28Z</time>
      </trkpt>
      <trkpt lat="46.63919" lon="5.54351">
        <ele>321</ele>
        <time>2023-08-30T10:12:29Z</time>
      </trkpt>
      <trkpt lat="46.63917" lon="5.54353">
        <ele>321</ele>
        <time>2023-08-30T10:12:30Z</time>
      </trkpt>
      <trkpt lat="46.63915" lon="5.54354">
        <ele>321</ele>
        <time>2023-08-30T10:12:31Z</time>
      </trkpt>
      <trkpt lat="46.63914" lon="5.54355">
        <ele>321.6</ele>
        <time>2023-08-30T10:12:32Z</time>
      </trkpt>
      <trkpt lat="46.63912" lon="5.54356">
        <ele>321.6</ele>
        <time>2023-08-30T10:12:33Z</time>
      </trkpt>
      <trkpt lat="46.6391" lon="5.54358">
        <ele>321.6</ele>
        <time>2023-08-30T10:12:34Z</time>
      </trkpt>
      <trkpt lat="46.63908" lon="5.54359">
        <ele>321.6</ele>
        <time>2023-08-30T10:12:35Z</time>
      </trkpt>
      <trkpt lat="46.63906" lon="5.5436">
        <ele>322.2</ele>
        <time>2023-08-30T10:12:36Z</time>
      </trkpt>
      <trkpt lat="46.63904" lon="5.54362">
        <ele>322.2</ele>
        <time>2023-08-30T10:12:37Z</time>
      </trkpt>
      <trkpt lat="46.63903" lon="5.54363">
        <ele>322.4</ele>
        <time>2023-08-30T10:12:38Z</time>
      </trkpt>
      <trkpt lat="46.63901" lon="5.54365">
        <ele>322.4</ele>
        <time>2023-08-30T10:12:39Z</time>
      </trkpt>
      <trkpt lat="46.63899" lon="5.54366">
        <ele>322.4</ele>
        <time>2023-08-30T10:12:40Z</time>
      </trkpt>
      <trkpt lat="46.63897" lon="5.54368">
        <ele>322.6</ele>
        <time>2023-08-30T10:12:41Z</time>
      </trkpt>
      <trkpt lat="46.63896" lon="5.54369">
        <ele>322.8</ele>
        <time>2023-08-30T10:12:42Z</time>
      </trkpt>
      <trkpt lat="46.63894" lon="5.54371">
        <ele>322.8</ele>
        <time>2023-08-30T10:12:43Z</time>
      </trkpt>
      <trkpt lat="46.63892" lon="5.54372">
        <ele>322.8</ele>
        <time>2023-08-30T10:12:44Z</time>
      </trkpt>
      <trkpt lat="46.63891" lon="5.54374">
        <ele>323.4</ele>
        <time>2023-08-30T10:12:45Z</time>
      </trkpt>
      <trkpt lat="46.63889" lon="5.54376">
        <ele>323.4</ele>
        <time>2023-08-30T10:12:46Z</time>
      </trkpt>
      <trkpt lat="46.63888" lon="5.54378">
        <ele>323.6</ele>
        <time>2023-08-30T10:12:47Z</time>
      </trkpt>
      <trkpt lat="46.63886" lon="5.54381">
        <ele>323.6</ele>
        <time>2023-08-30T10:12:48Z</time>
      </trkpt>
      <trkpt lat="46.63884" lon="5.54383">
        <ele>323.6</ele>
        <time>2023-08-30T10:12:49Z</time>
      </trkpt>
      <trkpt lat="46.63883" lon="5.54384">
        <ele>323.6</ele>
        <time>2023-08-30T10:12:50Z</time>
      </trkpt>
      <trkpt lat="46.63881" lon="5.54386">
        <ele>324.4</ele>
        <time>2023-08-30T10:12:51Z</time>
      </trkpt>
      <trkpt lat="46.63879" lon="5.54388">
        <ele>324.4</ele>
        <time>2023-08-30T10:12:52Z</time>
      </trkpt>
      <trkpt lat="46.63877" lon="5.5439">
        <ele>324.4</ele>
        <time>2023-08-30T10:12:53Z</time>
      </trkpt>
      <trkpt lat="46.63875" lon="5.54391">
        <ele>324.4</ele>
        <time>2023-08-30T10:12:54Z</time>
      </trkpt>
      <trkpt lat="46.63874" lon="5.54393">
        <ele>325</ele>
        <time>2023-08-30T10:12:55Z</time>
      </trkpt>
      <trkpt lat="46.63872" lon="5.54394">
        <ele>325</ele>
        <time>2023-08-30T10:12:56Z</time>
      </trkpt>
      <trkpt lat="46.6387" lon="5.54396">
        <ele>325</ele>
        <time>2023-08-30T10:12:57Z</time>
      </trkpt>
      <trkpt lat="46.63869" lon="5.54398">
        <ele>325</ele>
        <time>2023-08-30T10:12:58Z</time>
      </trkpt>
      <trkpt lat="46.63867" lon="5.544">
        <ele>325.6</ele>
        <time>2023-08-30T10:12:59Z</time>
      </trkpt>
      <trkpt lat="46.63865" lon="5.54401">
        <ele>325.6</ele>
        <time>2023-08-30T10:13:00Z</time>
      </trkpt>
      <trkpt lat="46.63864" lon="5.54403">
        <ele>325.6</ele>
        <time>2023-08-30T10:13:01Z</time>
      </trkpt>
      <trkpt lat="46.63862" lon="5.54405">
        <ele>325.6</ele>
        <time>2023-08-30T10:13:02Z</time>
      </trkpt>
      <trkpt lat="46.6386" lon="5.54407">
        <ele>325.6</ele>
        <time>2023-08-30T10:13:03Z</time>
      </trkpt>
      <trkpt lat="46.63859" lon="5.54409">
        <ele>326.6</ele>
        <time>2023-08-30T10:13:04Z</time>
      </trkpt>
      <trkpt lat="46.63857" lon="5.54411">
        <ele>326.6</ele>
        <time>2023-08-30T10:13:05Z</time>
      </trkpt>
      <trkpt lat="46.63855" lon="5.54413">
        <ele>326.6</ele>
        <time>2023-08-30T10:13:06Z</time>
      </trkpt>
      <trkpt lat="46.63854" lon="5.54415">
        <ele>326.6</ele>
        <time>2023-08-30T10:13:07Z</time>
      </trkpt>
      <trkpt lat="46.63852" lon="5.54417">
        <ele>327</ele>
        <time>2023-08-30T10:13:08Z</time>
      </trkpt>
      <trkpt lat="46.6385" lon="5.54419">
        <ele>327</ele>
        <time>2023-08-30T10:13:09Z</time>
      </trkpt>
      <trkpt lat="46.63849" lon="5.5442">
        <ele>327</ele>
        <time>2023-08-30T10:13:10Z</time>
      </trkpt>
      <trkpt lat="46.63847" lon="5.54422">
        <ele>327</ele>
        <time>2023-08-30T10:13:11Z</time>
      </trkpt>
      <trkpt lat="46.63845" lon="5.54424">
        <ele>327.8</ele>
        <time>2023-08-30T10:13:12Z</time>
      </trkpt>
      <trkpt lat="46.63844" lon="5.54426">
        <ele>327.8</ele>
        <time>2023-08-30T10:13:13Z</time>
      </trkpt>
      <trkpt lat="46.63842" lon="5.54428">
        <ele>327.8</ele>
        <time>2023-08-30T10:13:14Z</time>
      </trkpt>
      <trkpt lat="46.63841" lon="5.54429">
        <ele>327.8</ele>
        <time>2023-08-30T10:13:15Z</time>
      </trkpt>
      <trkpt lat="46.63839" lon="5.54431">
        <ele>327.8</ele>
        <time>2023-08-30T10:13:16Z</time>
      </trkpt>
      <trkpt lat="46.63838" lon="5.54433">
        <ele>328.6</ele>
        <time>2023-08-30T10:13:17Z</time>
      </trkpt>
      <trkpt lat="46.63836" lon="5.54435">
        <ele>328.6</ele>
        <time>2023-08-30T10:13:18Z</time>
      </trkpt>
      <trkpt lat="46.63834" lon="5.54437">
        <ele>328.6</ele>
        <time>2023-08-30T10:13:19Z</time>
      </trkpt>
      <trkpt lat="46.63833" lon="5.54439">
        <ele>328.6</ele>
        <time>2023-08-30T10:13:20Z</time>
      </trkpt>
      <trkpt lat="46.63831" lon="5.54441">
        <ele>328.6</ele>
        <time>2023-08-30T10:13:21Z</time>
      </trkpt>
      <trkpt lat="46.63829" lon="5.54443">
        <ele>328.6</ele>
        <time>2023-08-30T10:13:22Z</time>
      </trkpt>
      <trkpt lat="46.63828" lon="5.54445">
        <ele>329.4</ele>
        <time>2023-08-30T10:13:23Z</time>
      </trkpt>
      <trkpt lat="46.63826" lon="5.54447">
        <ele>329.4</ele>
        <time>2023-08-30T10:13:24Z</time>
      </trkpt>
      <trkpt lat="46.63824" lon="5.54449">
        <ele>329.4</ele>
        <time>2023-08-30T10:13:25Z</time>
      </trkpt>
      <trkpt lat="46.63823" lon="5.5445">
        <ele>330</ele>
        <time>2023-08-30T10:13:26Z</time>
      </trkpt>
      <trkpt lat="46.63821" lon="5.54452">
        <ele>330.2</ele>
        <time>2023-08-30T10:13:27Z</time>
      </trkpt>
      <trkpt lat="46.63819" lon="5.54454">
        <ele>330.2</ele>
        <time>2023-08-30T10:13:28Z</time>
      </trkpt>
      <trkpt lat="46.63818" lon="5.54456">
        <ele>330.2</ele>
        <time>2023-08-30T10:13:29Z</time>
      </trkpt>
      <trkpt lat="46.63816" lon="5.54458">
        <ele>330.2</ele>
        <time>2023-08-30T10:13:30Z</time>
      </trkpt>
      <trkpt lat="46.63815" lon="5.5446">
        <ele>330.8</ele>
        <time>2023-08-30T10:13:31Z</time>
      </trkpt>
      <trkpt lat="46.63813" lon="5.54462">
        <ele>330.8</ele>
        <time>2023-08-30T10:13:32Z</time>
      </trkpt>
      <trkpt lat="46.63811" lon="5.54463">
        <ele>330.8</ele>
        <time>2023-08-30T10:13:33Z</time>
      </trkpt>
      <trkpt lat="46.63809" lon="5.54464">
        <ele>330.8</ele>
        <time>2023-08-30T10:13:34Z</time>
      </trkpt>
      <trkpt lat="46.63807" lon="5.54465">
        <ele>331.6</ele>
        <time>2023-08-30T10:13:35Z</time>
      </trkpt>
      <trkpt lat="46.63806" lon="5.54467">
        <ele>331.6</ele>
        <time>2023-08-30T10:13:36Z</time>
      </trkpt>
      <trkpt lat="46.63804" lon="5.54468">
        <ele>332</ele>
        <time>2023-08-30T10:13:37Z</time>
      </trkpt>
      <trkpt lat="46.63802" lon="5.5447">
        <ele>332</ele>
        <time>2023-08-30T10:13:38Z</time>
      </trkpt>
      <trkpt lat="46.638" lon="5.54471">
        <ele>332</ele>
        <time>2023-08-30T10:13:39Z</time>
      </trkpt>
      <trkpt lat="46.63798" lon="5.54472">
        <ele>332</ele>
        <time>2023-08-30T10:13:40Z</time>
      </trkpt>
      <trkpt lat="46.63796" lon="5.54473">
        <ele>332.4</ele>
        <time>2023-08-30T10:13:41Z</time>
      </trkpt>
      <trkpt lat="46.63794" lon="5.54475">
        <ele>332.4</ele>
        <time>2023-08-30T10:13:42Z</time>
      </trkpt>
      <trkpt lat="46.63792" lon="5.54476">
        <ele>332.4</ele>
        <time>2023-08-30T10:13:43Z</time>
      </trkpt>
      <trkpt lat="46.6379" lon="5.54477">
        <ele>333</ele>
        <time>2023-08-30T10:13:44Z</time>
      </trkpt>
      <trkpt lat="46.63788" lon="5.54478">
        <ele>333</ele>
        <time>2023-08-30T10:13:45Z</time>
      </trkpt>
      <trkpt lat="46.63786" lon="5.54479">
        <ele>333.2</ele>
        <time>2023-08-30T10:13:46Z</time>
      </trkpt>
      <trkpt lat="46.63784" lon="5.5448">
        <ele>333.2</ele>
        <time>2023-08-30T10:13:47Z</time>
      </trkpt>
      <trkpt lat="46.63782" lon="5.54481">
        <ele>333.2</ele>
        <time>2023-08-30T10:13:48Z</time>
      </trkpt>
      <trkpt lat="46.6378" lon="5.54481">
        <ele>334</ele>
        <time>2023-08-30T10:13:49Z</time>
      </trkpt>
      <trkpt lat="46.63778" lon="5.54482">
        <ele>334.2</ele>
        <time>2023-08-30T10:13:50Z</time>
      </trkpt>
      <trkpt lat="46.63776" lon="5.54483">
        <ele>334.2</ele>
        <time>2023-08-30T10:13:51Z</time>
      </trkpt>
      <trkpt lat="46.63774" lon="5.54484">
        <ele>334.2</ele>
        <time>2023-08-30T10:13:52Z</time>
      </trkpt>
      <trkpt lat="46.63772" lon="5.54484">
        <ele>335</ele>
        <time>2023-08-30T10:13:53Z</time>
      </trkpt>
      <trkpt lat="46.6377" lon="5.54485">
        <ele>335</ele>
        <time>2023-08-30T10:13:54Z</time>
      </trkpt>
      <trkpt lat="46.63768" lon="5.54486">
        <ele>335</ele>
        <time>2023-08-30T10:13:55Z</time>
      </trkpt>
      <trkpt lat="46.63766" lon="5.54488">
        <ele>335</ele>
        <time>2023-08-30T10:13:56Z</time>
      </trkpt>
      <trkpt lat="46.63764" lon="5.54488">
        <ele>335</ele>
        <time>2023-08-30T10:13:57Z</time>
      </trkpt>
      <trkpt lat="46.63762" lon="5.54489">
        <ele>335.8</ele>
        <time>2023-08-30T10:13:58Z</time>
      </trkpt>
      <trkpt lat="46.6376" lon="5.5449">
        <ele>335.8</ele>
        <time>2023-08-30T10:13:59Z</time>
      </trkpt>
      <trkpt lat="46.63758" lon="5.54491">
        <ele>335.8</ele>
        <time>2023-08-30T10:14:00Z</time>
      </trkpt>
      <trkpt lat="46.63756" lon="5.54492">
        <ele>335.8</ele>
        <time>2023-08-30T10:14:01Z</time>
      </trkpt>
      <trkpt lat="46.63754" lon="5.54493">
        <ele>335.8</ele>
        <time>2023-08-30T10:14:02Z</time>
      </trkpt>
      <trkpt lat="46.63752" lon="5.54494">
        <ele>336.4</ele>
        <time>2023-08-30T10:14:03Z</time>
      </trkpt>
      <trkpt lat="46.6375" lon="5.54495">
        <ele>336.4</ele>
        <time>2023-08-30T10:14:04Z</time>
      </trkpt>
      <trkpt lat="46.63748" lon="5.54496">
        <ele>336.6</ele>
        <time>2023-08-30T10:14:05Z</time>
      </trkpt>
      <trkpt lat="46.63746" lon="5.54497">
        <ele>336.6</ele>
        <time>2023-08-30T10:14:06Z</time>
      </trkpt>
      <trkpt lat="46.63744" lon="5.54498">
        <ele>336.8</ele>
        <time>2023-08-30T10:14:07Z</time>
      </trkpt>
      <trkpt lat="46.63742" lon="5.54499">
        <ele>337</ele>
        <time>2023-08-30T10:14:08Z</time>
      </trkpt>
      <trkpt lat="46.6374" lon="5.54501">
        <ele>337</ele>
        <time>2023-08-30T10:14:09Z</time>
      </trkpt>
      <trkpt lat="46.63738" lon="5.54502">
        <ele>337</ele>
        <time>2023-08-30T10:14:10Z</time>
      </trkpt>
      <trkpt lat="46.63737" lon="5.54503">
        <ele>337.6</ele>
        <time>2023-08-30T10:14:11Z</time>
      </trkpt>
      <trkpt lat="46.63735" lon="5.54505">
        <ele>337.6</ele>
        <time>2023-08-30T10:14:12Z</time>
      </trkpt>
      <trkpt lat="46.63734" lon="5.54507">
        <ele>337.6</ele>
        <time>2023-08-30T10:14:13Z</time>
      </trkpt>
      <trkpt lat="46.63733" lon="5.5451">
        <ele>337.6</ele>
        <time>2023-08-30T10:14:14Z</time>
      </trkpt>
      <trkpt lat="46.63731" lon="5.54513">
        <ele>337.6</ele>
        <time>2023-08-30T10:14:15Z</time>
      </trkpt>
      <trkpt lat="46.6373" lon="5.54515">
        <ele>337.8</ele>
        <time>2023-08-30T10:14:16Z</time>
      </trkpt>
      <trkpt lat="46.63729" lon="5.54517">
        <ele>338.2</ele>
        <time>2023-08-30T10:14:17Z</time>
      </trkpt>
      <trkpt lat="46.63727" lon="5.54519">
        <ele>338.2</ele>
        <time>2023-08-30T10:14:18Z</time>
      </trkpt>
      <trkpt lat="46.63726" lon="5.54522">
        <ele>338.2</ele>
        <time>2023-08-30T10:14:19Z</time>
      </trkpt>
      <trkpt lat="46.63725" lon="5.54524">
        <ele>338.8</ele>
        <time>2023-08-30T10:14:20Z</time>
      </trkpt>
      <trkpt lat="46.63724" lon="5.54526">
        <ele>338.8</ele>
        <time>2023-08-30T10:14:21Z</time>
      </trkpt>
      <trkpt lat="46.63723" lon="5.54529">
        <ele>338.8</ele>
        <time>2023-08-30T10:14:22Z</time>
      </trkpt>
      <trkpt lat="46.63722" lon="5.54531">
        <ele>338.8</ele>
        <time>2023-08-30T10:14:23Z</time>
      </trkpt>
      <trkpt lat="46.63722" lon="5.54534">
        <ele>338.8</ele>
        <time>2023-08-30T10:14:24Z</time>
      </trkpt>
      <trkpt lat="46.63721" lon="5.54536">
        <ele>339.4</ele>
        <time>2023-08-30T10:14:25Z</time>
      </trkpt>
      <trkpt lat="46.6372" lon="5.54539">
        <ele>339.6</ele>
        <time>2023-08-30T10:14:26Z</time>
      </trkpt>
      <trkpt lat="46.63719" lon="5.54542">
        <ele>339.6</ele>
        <time>2023-08-30T10:14:27Z</time>
      </trkpt>
      <trkpt lat="46.63718" lon="5.54545">
        <ele>339.6</ele>
        <time>2023-08-30T10:14:28Z</time>
      </trkpt>
      <trkpt lat="46.63718" lon="5.54548">
        <ele>339.6</ele>
        <time>2023-08-30T10:14:29Z</time>
      </trkpt>
      <trkpt lat="46.63717" lon="5.54551">
        <ele>339.6</ele>
        <time>2023-08-30T10:14:30Z</time>
      </trkpt>
      <trkpt lat="46.63717" lon="5.54553">
        <ele>340</ele>
        <time>2023-08-30T10:14:31Z</time>
      </trkpt>
      <trkpt lat="46.63716" lon="5.54556">
        <ele>340</ele>
        <time>2023-08-30T10:14:32Z</time>
      </trkpt>
      <trkpt lat="46.63715" lon="5.54559">
        <ele>340</ele>
        <time>2023-08-30T10:14:33Z</time>
      </trkpt>
      <trkpt lat="46.63714" lon="5.54562">
        <ele>340.2</ele>
        <time>2023-08-30T10:14:34Z</time>
      </trkpt>
      <trkpt lat="46.63713" lon="5.54564">
        <ele>340.4</ele>
        <time>2023-08-30T10:14:35Z</time>
      </trkpt>
      <trkpt lat="46.63712" lon="5.54568">
        <ele>340.4</ele>
        <time>2023-08-30T10:14:36Z</time>
      </trkpt>
      <trkpt lat="46.63712" lon="5.54571">
        <ele>340.4</ele>
        <time>2023-08-30T10:14:37Z</time>
      </trkpt>
      <trkpt lat="46.63711" lon="5.54574">
        <ele>340.4</ele>
        <time>2023-08-30T10:14:38Z</time>
      </trkpt>
      <trkpt lat="46.6371" lon="5.54576">
        <ele>341</ele>
        <time>2023-08-30T10:14:39Z</time>
      </trkpt>
      <trkpt lat="46.63708" lon="5.54579">
        <ele>341.2</ele>
        <time>2023-08-30T10:14:40Z</time>
      </trkpt>
      <trkpt lat="46.63707" lon="5.54581">
        <ele>341.2</ele>
        <time>2023-08-30T10:14:41Z</time>
      </trkpt>
      <trkpt lat="46.63706" lon="5.54583">
        <ele>341.2</ele>
        <time>2023-08-30T10:14:42Z</time>
      </trkpt>
      <trkpt lat="46.63705" lon="5.54585">
        <ele>341.2</ele>
        <time>2023-08-30T10:14:43Z</time>
      </trkpt>
      <trkpt lat="46.63704" lon="5.54588">
        <ele>341.4</ele>
        <time>2023-08-30T10:14:44Z</time>
      </trkpt>
      <trkpt lat="46.63703" lon="5.5459">
        <ele>341.4</ele>
        <time>2023-08-30T10:14:45Z</time>
      </trkpt>
      <trkpt lat="46.63702" lon="5.54593">
        <ele>341.4</ele>
        <time>2023-08-30T10:14:46Z</time>
      </trkpt>
      <trkpt lat="46.63701" lon="5.54596">
        <ele>341.4</ele>
        <time>2023-08-30T10:14:47Z</time>
      </trkpt>
      <trkpt lat="46.637" lon="5.54598">
        <ele>341.8</ele>
        <time>2023-08-30T10:14:48Z</time>
      </trkpt>
      <trkpt lat="46.63699" lon="5.54601">
        <ele>342</ele>
        <time>2023-08-30T10:14:49Z</time>
      </trkpt>
      <trkpt lat="46.63697" lon="5.54603">
        <ele>342</ele>
        <time>2023-08-30T10:14:50Z</time>
      </trkpt>
      <trkpt lat="46.63696" lon="5.54605">
        <ele>342</ele>
        <time>2023-08-30T10:14:51Z</time>
      </trkpt>
      <trkpt lat="46.63695" lon="5.54608">
        <ele>342.4</ele>
        <time>2023-08-30T10:14:52Z</time>
      </trkpt>
      <trkpt lat="46.63693" lon="5.54611">
        <ele>342.4</ele>
        <time>2023-08-30T10:14:53Z</time>
      </trkpt>
      <trkpt lat="46.63692" lon="5.54614">
        <ele>342.4</ele>
        <time>2023-08-30T10:14:54Z</time>
      </trkpt>
      <trkpt lat="46.63691" lon="5.54616">
        <ele>342.4</ele>
        <time>2023-08-30T10:14:55Z</time>
      </trkpt>
      <trkpt lat="46.63689" lon="5.54619">
        <ele>342.4</ele>
        <time>2023-08-30T10:14:56Z</time>
      </trkpt>
      <trkpt lat="46.63688" lon="5.54621">
        <ele>342.8</ele>
        <time>2023-08-30T10:14:57Z</time>
      </trkpt>
      <trkpt lat="46.63686" lon="5.54624">
        <ele>343</ele>
        <time>2023-08-30T10:14:58Z</time>
      </trkpt>
      <trkpt lat="46.63685" lon="5.54626">
        <ele>343</ele>
        <time>2023-08-30T10:14:59Z</time>
      </trkpt>
      <trkpt lat="46.63684" lon="5.54629">
        <ele>343</ele>
        <time>2023-08-30T10:15:00Z</time>
      </trkpt>
      <trkpt lat="46.63682" lon="5.54631">
        <ele>343</ele>
        <time>2023-08-30T10:15:01Z</time>
      </trkpt>
      <trkpt lat="46.63681" lon="5.54633">
        <ele>343</ele>
        <time>2023-08-30T10:15:02Z</time>
      </trkpt>
      <trkpt lat="46.6368" lon="5.54635">
        <ele>343.6</ele>
        <time>2023-08-30T10:15:03Z</time>
      </trkpt>
      <trkpt lat="46.63679" lon="5.54637">
        <ele>343.6</ele>
        <time>2023-08-30T10:15:04Z</time>
      </trkpt>
      <trkpt lat="46.63677" lon="5.54638">
        <ele>343.6</ele>
        <time>2023-08-30T10:15:05Z</time>
      </trkpt>
      <trkpt lat="46.63676" lon="5.54641">
        <ele>344.4</ele>
        <time>2023-08-30T10:15:06Z</time>
      </trkpt>
      <trkpt lat="46.63674" lon="5.54643">
        <ele>344.4</ele>
        <time>2023-08-30T10:15:07Z</time>
      </trkpt>
      <trkpt lat="46.63672" lon="5.54644">
        <ele>344.4</ele>
        <time>2023-08-30T10:15:08Z</time>
      </trkpt>
      <trkpt lat="46.63669" lon="5.54646">
        <ele>344.4</ele>
        <time>2023-08-30T10:15:09Z</time>
      </trkpt>
      <trkpt lat="46.63667" lon="5.54648">
        <ele>345</ele>
        <time>2023-08-30T10:15:10Z</time>
      </trkpt>
      <trkpt lat="46.63665" lon="5.54649">
        <ele>345.4</ele>
        <time>2023-08-30T10:15:11Z</time>
      </trkpt>
      <trkpt lat="46.63663" lon="5.54651">
        <ele>345.4</ele>
        <time>2023-08-30T10:15:12Z</time>
      </trkpt>
      <trkpt lat="46.63661" lon="5.54652">
        <ele>345.4</ele>
        <time>2023-08-30T10:15:13Z</time>
      </trkpt>
      <trkpt lat="46.63659" lon="5.54653">
        <ele>346</ele>
        <time>2023-08-30T10:15:14Z</time>
      </trkpt>
      <trkpt lat="46.63656" lon="5.54654">
        <ele>346</ele>
        <time>2023-08-30T10:15:15Z</time>
      </trkpt>
      <trkpt lat="46.63654" lon="5.54655">
        <ele>346</ele>
        <time>2023-08-30T10:15:16Z</time>
      </trkpt>
      <trkpt lat="46.63652" lon="5.54655">
        <ele>346</ele>
        <time>2023-08-30T10:15:17Z</time>
      </trkpt>
      <trkpt lat="46.6365" lon="5.54657">
        <ele>347</ele>
        <time>2023-08-30T10:15:18Z</time>
      </trkpt>
      <trkpt lat="46.63647" lon="5.54657">
        <ele>347.4</ele>
        <time>2023-08-30T10:15:19Z</time>
      </trkpt>
      <trkpt lat="46.63645" lon="5.54658">
        <ele>347.4</ele>
        <time>2023-08-30T10:15:20Z</time>
      </trkpt>
      <trkpt lat="46.63643" lon="5.54659">
        <ele>347.4</ele>
        <time>2023-08-30T10:15:21Z</time>
      </trkpt>
      <trkpt lat="46.63641" lon="5.54659">
        <ele>347.4</ele>
        <time>2023-08-30T10:15:22Z</time>
      </trkpt>
      <trkpt lat="46.63639" lon="5.5466">
        <ele>347.4</ele>
        <time>2023-08-30T10:15:23Z</time>
      </trkpt>
      <trkpt lat="46.63636" lon="5.5466">
        <ele>347.8</ele>
        <time>2023-08-30T10:15:24Z</time>
      </trkpt>
      <trkpt lat="46.63634" lon="5.54661">
        <ele>348</ele>
        <time>2023-08-30T10:15:25Z</time>
      </trkpt>
      <trkpt lat="46.63632" lon="5.54661">
        <ele>348</ele>
        <time>2023-08-30T10:15:26Z</time>
      </trkpt>
      <trkpt lat="46.63629" lon="5.54662">
        <ele>348</ele>
        <time>2023-08-30T10:15:27Z</time>
      </trkpt>
      <trkpt lat="46.63627" lon="5.54662">
        <ele>349</ele>
        <time>2023-08-30T10:15:28Z</time>
      </trkpt>
      <trkpt lat="46.63625" lon="5.54663">
        <ele>349</ele>
        <time>2023-08-30T10:15:29Z</time>
      </trkpt>
      <trkpt lat="46.63622" lon="5.54663">
        <ele>349</ele>
        <time>2023-08-30T10:15:30Z</time>
      </trkpt>
      <trkpt lat="46.6362" lon="5.54663">
        <ele>349</ele>
        <time>2023-08-30T10:15:31Z</time>
      </trkpt>
      <trkpt lat="46.63618" lon="5.54663">
        <ele>349.8</ele>
        <time>2023-08-30T10:15:32Z</time>
      </trkpt>
      <trkpt lat="46.63616" lon="5.54664">
        <ele>349.8</ele>
        <time>2023-08-30T10:15:33Z</time>
      </trkpt>
      <trkpt lat="46.63614" lon="5.54664">
        <ele>350</ele>
        <time>2023-08-30T10:15:34Z</time>
      </trkpt>
      <trkpt lat="46.63612" lon="5.54664">
        <ele>350</ele>
        <time>2023-08-30T10:15:35Z</time>
      </trkpt>
      <trkpt lat="46.63611" lon="5.54665">
        <ele>350</ele>
        <time>2023-08-30T10:15:36Z</time>
      </trkpt>
      <trkpt lat="46.63608" lon="5.54665">
        <ele>350.6</ele>
        <time>2023-08-30T10:15:37Z</time>
      </trkpt>
      <trkpt lat="46.63606" lon="5.54665">
        <ele>350.6</ele>
        <time>2023-08-30T10:15:38Z</time>
      </trkpt>
      <trkpt lat="46.63604" lon="5.54666">
        <ele>350.6</ele>
        <time>2023-08-30T10:15:39Z</time>
      </trkpt>
      <trkpt lat="46.63602" lon="5.54666">
        <ele>350.6</ele>
        <time>2023-08-30T10:15:40Z</time>
      </trkpt>
      <trkpt lat="46.636" lon="5.54666">
        <ele>351.4</ele>
        <time>2023-08-30T10:15:41Z</time>
      </trkpt>
      <trkpt lat="46.63598" lon="5.54667">
        <ele>351.4</ele>
        <time>2023-08-30T10:15:42Z</time>
      </trkpt>
      <trkpt lat="46.63596" lon="5.54667">
        <ele>351.4</ele>
        <time>2023-08-30T10:15:43Z</time>
      </trkpt>
      <trkpt lat="46.63593" lon="5.54667">
        <ele>351.4</ele>
        <time>2023-08-30T10:15:44Z</time>
      </trkpt>
      <trkpt lat="46.63591" lon="5.54667">
        <ele>351.4</ele>
        <time>2023-08-30T10:15:45Z</time>
      </trkpt>
      <trkpt lat="46.63589" lon="5.54668">
        <ele>352</ele>
        <time>2023-08-30T10:15:46Z</time>
      </trkpt>
      <trkpt lat="46.63587" lon="5.54669">
        <ele>352.2</ele>
        <time>2023-08-30T10:15:47Z</time>
      </trkpt>
      <trkpt lat="46.63584" lon="5.54669">
        <ele>352.2</ele>
        <time>2023-08-30T10:15:48Z</time>
      </trkpt>
      <trkpt lat="46.63582" lon="5.5467">
        <ele>352.2</ele>
        <time>2023-08-30T10:15:49Z</time>
      </trkpt>
      <trkpt lat="46.6358" lon="5.5467">
        <ele>352.6</ele>
        <time>2023-08-30T10:15:50Z</time>
      </trkpt>
      <trkpt lat="46.63578" lon="5.5467">
        <ele>352.8</ele>
        <time>2023-08-30T10:15:51Z</time>
      </trkpt>
      <trkpt lat="46.63576" lon="5.5467">
        <ele>352.8</ele>
        <time>2023-08-30T10:15:52Z</time>
      </trkpt>
      <trkpt lat="46.63574" lon="5.54671">
        <ele>352.8</ele>
        <time>2023-08-30T10:15:53Z</time>
      </trkpt>
      <trkpt lat="46.63571" lon="5.5467">
        <ele>352.8</ele>
        <time>2023-08-30T10:15:54Z</time>
      </trkpt>
      <trkpt lat="46.63569" lon="5.54671">
        <ele>352.8</ele>
        <time>2023-08-30T10:15:55Z</time>
      </trkpt>
      <trkpt lat="46.63567" lon="5.54671">
        <ele>353.4</ele>
        <time>2023-08-30T10:15:56Z</time>
      </trkpt>
      <trkpt lat="46.63565" lon="5.54672">
        <ele>353.4</ele>
        <time>2023-08-30T10:15:57Z</time>
      </trkpt>
      <trkpt lat="46.63563" lon="5.54672">
        <ele>353.4</ele>
        <time>2023-08-30T10:15:58Z</time>
      </trkpt>
      <trkpt lat="46.63561" lon="5.54673">
        <ele>353.4</ele>
        <time>2023-08-30T10:15:59Z</time>
      </trkpt>
      <trkpt lat="46.63559" lon="5.54674">
        <ele>353.6</ele>
        <time>2023-08-30T10:16:00Z</time>
      </trkpt>
      <trkpt lat="46.63556" lon="5.54674">
        <ele>354</ele>
        <time>2023-08-30T10:16:01Z</time>
      </trkpt>
      <trkpt lat="46.63554" lon="5.54675">
        <ele>354</ele>
        <time>2023-08-30T10:16:02Z</time>
      </trkpt>
      <trkpt lat="46.63552" lon="5.54675">
        <ele>354</ele>
        <time>2023-08-30T10:16:03Z</time>
      </trkpt>
      <trkpt lat="46.6355" lon="5.54676">
        <ele>354.4</ele>
        <time>2023-08-30T10:16:04Z</time>
      </trkpt>
      <trkpt lat="46.63548" lon="5.54677">
        <ele>354.2</ele>
        <time>2023-08-30T10:16:05Z</time>
      </trkpt>
      <trkpt lat="46.63546" lon="5.54678">
        <ele>354.2</ele>
        <time>2023-08-30T10:16:06Z</time>
      </trkpt>
      <trkpt lat="46.63544" lon="5.54679">
        <ele>354.2</ele>
        <time>2023-08-30T10:16:07Z</time>
      </trkpt>
      <trkpt lat="46.63542" lon="5.5468">
        <ele>354.2</ele>
        <time>2023-08-30T10:16:08Z</time>
      </trkpt>
      <trkpt lat="46.6354" lon="5.54682">
        <ele>355.2</ele>
        <time>2023-08-30T10:16:09Z</time>
      </trkpt>
      <trkpt lat="46.63538" lon="5.54682">
        <ele>355.2</ele>
        <time>2023-08-30T10:16:10Z</time>
      </trkpt>
      <trkpt lat="46.63536" lon="5.54683">
        <ele>355.2</ele>
        <time>2023-08-30T10:16:11Z</time>
      </trkpt>
      <trkpt lat="46.63534" lon="5.54684">
        <ele>355.2</ele>
        <time>2023-08-30T10:16:12Z</time>
      </trkpt>
      <trkpt lat="46.63532" lon="5.54684">
        <ele>355.2</ele>
        <time>2023-08-30T10:16:13Z</time>
      </trkpt>
      <trkpt lat="46.63529" lon="5.54685">
        <ele>355.2</ele>
        <time>2023-08-30T10:16:14Z</time>
      </trkpt>
      <trkpt lat="46.63527" lon="5.54686">
        <ele>355.2</ele>
        <time>2023-08-30T10:16:15Z</time>
      </trkpt>
      <trkpt lat="46.63525" lon="5.54687">
        <ele>355.6</ele>
        <time>2023-08-30T10:16:16Z</time>
      </trkpt>
      <trkpt lat="46.63524" lon="5.54688">
        <ele>355.6</ele>
        <time>2023-08-30T10:16:17Z</time>
      </trkpt>
      <trkpt lat="46.63522" lon="5.54689">
        <ele>355.8</ele>
        <time>2023-08-30T10:16:18Z</time>
      </trkpt>
      <trkpt lat="46.6352" lon="5.5469">
        <ele>355.8</ele>
        <time>2023-08-30T10:16:19Z</time>
      </trkpt>
      <trkpt lat="46.63518" lon="5.5469">
        <ele>355.8</ele>
        <time>2023-08-30T10:16:20Z</time>
      </trkpt>
      <trkpt lat="46.63516" lon="5.54691">
        <ele>355.8</ele>
        <time>2023-08-30T10:16:21Z</time>
      </trkpt>
      <trkpt lat="46.63515" lon="5.54692">
        <ele>356</ele>
        <time>2023-08-30T10:16:22Z</time>
      </trkpt>
      <trkpt lat="46.63513" lon="5.54693">
        <ele>356</ele>
        <time>2023-08-30T10:16:23Z</time>
      </trkpt>
      <trkpt lat="46.63511" lon="5.54694">
        <ele>356</ele>
        <time>2023-08-30T10:16:24Z</time>
      </trkpt>
      <trkpt lat="46.63508" lon="5.54694">
        <ele>356</ele>
        <time>2023-08-30T10:16:25Z</time>
      </trkpt>
      <trkpt lat="46.63506" lon="5.54695">
        <ele>356</ele>
        <time>2023-08-30T10:16:26Z</time>
      </trkpt>
      <trkpt lat="46.63504" lon="5.54696">
        <ele>356.4</ele>
        <time>2023-08-30T10:16:27Z</time>
      </trkpt>
      <trkpt lat="46.63502" lon="5.54696">
        <ele>356.2</ele>
        <time>2023-08-30T10:16:28Z</time>
      </trkpt>
      <trkpt lat="46.635" lon="5.54697">
        <ele>356.2</ele>
        <time>2023-08-30T10:16:29Z</time>
      </trkpt>
      <trkpt lat="46.63498" lon="5.54698">
        <ele>356.2</ele>
        <time>2023-08-30T10:16:30Z</time>
      </trkpt>
      <trkpt lat="46.63496" lon="5.54699">
        <ele>356.4</ele>
        <time>2023-08-30T10:16:31Z</time>
      </trkpt>
      <trkpt lat="46.63494" lon="5.54699">
        <ele>356.8</ele>
        <time>2023-08-30T10:16:32Z</time>
      </trkpt>
      <trkpt lat="46.63492" lon="5.547">
        <ele>356.8</ele>
        <time>2023-08-30T10:16:33Z</time>
      </trkpt>
      <trkpt lat="46.6349" lon="5.54701">
        <ele>356.8</ele>
        <time>2023-08-30T10:16:34Z</time>
      </trkpt>
      <trkpt lat="46.63488" lon="5.54702">
        <ele>356.8</ele>
        <time>2023-08-30T10:16:35Z</time>
      </trkpt>
      <trkpt lat="46.63486" lon="5.54704">
        <ele>356.8</ele>
        <time>2023-08-30T10:16:36Z</time>
      </trkpt>
      <trkpt lat="46.63485" lon="5.54705">
        <ele>356.8</ele>
        <time>2023-08-30T10:16:37Z</time>
      </trkpt>
      <trkpt lat="46.63483" lon="5.54707">
        <ele>357.4</ele>
        <time>2023-08-30T10:16:38Z</time>
      </trkpt>
      <trkpt lat="46.63481" lon="5.54708">
        <ele>357.4</ele>
        <time>2023-08-30T10:16:39Z</time>
      </trkpt>
      <trkpt lat="46.63479" lon="5.54709">
        <ele>357.4</ele>
        <time>2023-08-30T10:16:40Z</time>
      </trkpt>
      <trkpt lat="46.63477" lon="5.5471">
        <ele>357.4</ele>
        <time>2023-08-30T10:16:41Z</time>
      </trkpt>
      <trkpt lat="46.63475" lon="5.54711">
        <ele>358.2</ele>
        <time>2023-08-30T10:16:42Z</time>
      </trkpt>
      <trkpt lat="46.63473" lon="5.54712">
        <ele>358.2</ele>
        <time>2023-08-30T10:16:43Z</time>
      </trkpt>
      <trkpt lat="46.63472" lon="5.54713">
        <ele>358.2</ele>
        <time>2023-08-30T10:16:44Z</time>
      </trkpt>
      <trkpt lat="46.6347" lon="5.54714">
        <ele>358.6</ele>
        <time>2023-08-30T10:16:45Z</time>
      </trkpt>
      <trkpt lat="46.63468" lon="5.54716">
        <ele>358.4</ele>
        <time>2023-08-30T10:16:46Z</time>
      </trkpt>
      <trkpt lat="46.63465" lon="5.54717">
        <ele>358.4</ele>
        <time>2023-08-30T10:16:47Z</time>
      </trkpt>
      <trkpt lat="46.63463" lon="5.54718">
        <ele>358.4</ele>
        <time>2023-08-30T10:16:48Z</time>
      </trkpt>
      <trkpt lat="46.63461" lon="5.5472">
        <ele>359.4</ele>
        <time>2023-08-30T10:16:49Z</time>
      </trkpt>
      <trkpt lat="46.63459" lon="5.54721">
        <ele>359.6</ele>
        <time>2023-08-30T10:16:50Z</time>
      </trkpt>
      <trkpt lat="46.63457" lon="5.54723">
        <ele>359.6</ele>
        <time>2023-08-30T10:16:51Z</time>
      </trkpt>
      <trkpt lat="46.63455" lon="5.54724">
        <ele>359.6</ele>
        <time>2023-08-30T10:16:52Z</time>
      </trkpt>
      <trkpt lat="46.63453" lon="5.54726">
        <ele>359.6</ele>
        <time>2023-08-30T10:16:53Z</time>
      </trkpt>
      <trkpt lat="46.63451" lon="5.54727">
        <ele>359.6</ele>
        <time>2023-08-30T10:16:54Z</time>
      </trkpt>
      <trkpt lat="46.63449" lon="5.54728">
        <ele>360</ele>
        <time>2023-08-30T10:16:55Z</time>
      </trkpt>
      <trkpt lat="46.63446" lon="5.54729">
        <ele>360</ele>
        <time>2023-08-30T10:16:56Z</time>
      </trkpt>
      <trkpt lat="46.63444" lon="5.5473">
        <ele>360</ele>
        <time>2023-08-30T10:16:57Z</time>
      </trkpt>
      <trkpt lat="46.63442" lon="5.54732">
        <ele>360.2</ele>
        <time>2023-08-30T10:16:58Z</time>
      </trkpt>
      <trkpt lat="46.6344" lon="5.54733">
        <ele>360.2</ele>
        <time>2023-08-30T10:16:59Z</time>
      </trkpt>
      <trkpt lat="46.63438" lon="5.54734">
        <ele>360.4</ele>
        <time>2023-08-30T10:17:00Z</time>
      </trkpt>
      <trkpt lat="46.63436" lon="5.54735">
        <ele>360.4</ele>
        <time>2023-08-30T10:17:01Z</time>
      </trkpt>
      <trkpt lat="46.63434" lon="5.54737">
        <ele>360.4</ele>
        <time>2023-08-30T10:17:02Z</time>
      </trkpt>
      <trkpt lat="46.63432" lon="5.54738">
        <ele>360.8</ele>
        <time>2023-08-30T10:17:03Z</time>
      </trkpt>
      <trkpt lat="46.6343" lon="5.54739">
        <ele>360.8</ele>
        <time>2023-08-30T10:17:04Z</time>
      </trkpt>
      <trkpt lat="46.63428" lon="5.5474">
        <ele>361</ele>
        <time>2023-08-30T10:17:05Z</time>
      </trkpt>
      <trkpt lat="46.63426" lon="5.54742">
        <ele>361</ele>
        <time>2023-08-30T10:17:06Z</time>
      </trkpt>
      <trkpt lat="46.63424" lon="5.54743">
        <ele>361</ele>
        <time>2023-08-30T10:17:07Z</time>
      </trkpt>
      <trkpt lat="46.63422" lon="5.54744">
        <ele>361</ele>
        <time>2023-08-30T10:17:08Z</time>
      </trkpt>
      <trkpt lat="46.6342" lon="5.54745">
        <ele>361.2</ele>
        <time>2023-08-30T10:17:09Z</time>
      </trkpt>
      <trkpt lat="46.63418" lon="5.54747">
        <ele>361.4</ele>
        <time>2023-08-30T10:17:10Z</time>
      </trkpt>
      <trkpt lat="46.63416" lon="5.54748">
        <ele>361.4</ele>
        <time>2023-08-30T10:17:11Z</time>
      </trkpt>
      <trkpt lat="46.63414" lon="5.54749">
        <ele>361.4</ele>
        <time>2023-08-30T10:17:12Z</time>
      </trkpt>
      <trkpt lat="46.63412" lon="5.54749">
        <ele>361.4</ele>
        <time>2023-08-30T10:17:13Z</time>
      </trkpt>
      <trkpt lat="46.6341" lon="5.5475">
        <ele>361.2</ele>
        <time>2023-08-30T10:17:14Z</time>
      </trkpt>
      <trkpt lat="46.63408" lon="5.5475">
        <ele>361.2</ele>
        <time>2023-08-30T10:17:15Z</time>
      </trkpt>
      <trkpt lat="46.63405" lon="5.54751">
        <ele>361.2</ele>
        <time>2023-08-30T10:17:16Z</time>
      </trkpt>
      <trkpt lat="46.63403" lon="5.54751">
        <ele>361.8</ele>
        <time>2023-08-30T10:17:17Z</time>
      </trkpt>
      <trkpt lat="46.63401" lon="5.54752">
        <ele>361.8</ele>
        <time>2023-08-30T10:17:18Z</time>
      </trkpt>
      <trkpt lat="46.63399" lon="5.54752">
        <ele>361.8</ele>
        <time>2023-08-30T10:17:19Z</time>
      </trkpt>
      <trkpt lat="46.63397" lon="5.54752">
        <ele>361.8</ele>
        <time>2023-08-30T10:17:20Z</time>
      </trkpt>
      <trkpt lat="46.63394" lon="5.54752">
        <ele>361.8</ele>
        <time>2023-08-30T10:17:21Z</time>
      </trkpt>
      <trkpt lat="46.63392" lon="5.54752">
        <ele>362.4</ele>
        <time>2023-08-30T10:17:22Z</time>
      </trkpt>
      <trkpt lat="46.6339" lon="5.54752">
        <ele>362.8</ele>
        <time>2023-08-30T10:17:23Z</time>
      </trkpt>
      <trkpt lat="46.63387" lon="5.54751">
        <ele>362.8</ele>
        <time>2023-08-30T10:17:24Z</time>
      </trkpt>
      <trkpt lat="46.63385" lon="5.54751">
        <ele>362.8</ele>
        <time>2023-08-30T10:17:25Z</time>
      </trkpt>
      <trkpt lat="46.63383" lon="5.54751">
        <ele>363.2</ele>
        <time>2023-08-30T10:17:26Z</time>
      </trkpt>
      <trkpt lat="46.6338" lon="5.54751">
        <ele>363.4</ele>
        <time>2023-08-30T10:17:27Z</time>
      </trkpt>
      <trkpt lat="46.63378" lon="5.54751">
        <ele>363.4</ele>
        <time>2023-08-30T10:17:28Z</time>
      </trkpt>
      <trkpt lat="46.63375" lon="5.54751">
        <ele>363.4</ele>
        <time>2023-08-30T10:17:29Z</time>
      </trkpt>
      <trkpt lat="46.63373" lon="5.54751">
        <ele>364</ele>
        <time>2023-08-30T10:17:30Z</time>
      </trkpt>
      <trkpt lat="46.63371" lon="5.54751">
        <ele>364</ele>
        <time>2023-08-30T10:17:31Z</time>
      </trkpt>
      <trkpt lat="46.63369" lon="5.54751">
        <ele>364.4</ele>
        <time>2023-08-30T10:17:32Z</time>
      </trkpt>
      <trkpt lat="46.63366" lon="5.54751">
        <ele>364.4</ele>
        <time>2023-08-30T10:17:33Z</time>
      </trkpt>
      <trkpt lat="46.63364" lon="5.54752">
        <ele>364.4</ele>
        <time>2023-08-30T10:17:34Z</time>
      </trkpt>
      <trkpt lat="46.63362" lon="5.54752">
        <ele>364.8</ele>
        <time>2023-08-30T10:17:35Z</time>
      </trkpt>
      <trkpt lat="46.6336" lon="5.54752">
        <ele>365</ele>
        <time>2023-08-30T10:17:36Z</time>
      </trkpt>
      <trkpt lat="46.63358" lon="5.54753">
        <ele>365</ele>
        <time>2023-08-30T10:17:37Z</time>
      </trkpt>
      <trkpt lat="46.63356" lon="5.54753">
        <ele>365</ele>
        <time>2023-08-30T10:17:38Z</time>
      </trkpt>
      <trkpt lat="46.63353" lon="5.54754">
        <ele>365.6</ele>
        <time>2023-08-30T10:17:39Z</time>
      </trkpt>
      <trkpt lat="46.63351" lon="5.54754">
        <ele>365.8</ele>
        <time>2023-08-30T10:17:40Z</time>
      </trkpt>
      <trkpt lat="46.63349" lon="5.54755">
        <ele>365.8</ele>
        <time>2023-08-30T10:17:41Z</time>
      </trkpt>
      <trkpt lat="46.63347" lon="5.54755">
        <ele>365.8</ele>
        <time>2023-08-30T10:17:42Z</time>
      </trkpt>
      <trkpt lat="46.63344" lon="5.54756">
        <ele>365.8</ele>
        <time>2023-08-30T10:17:43Z</time>
      </trkpt>
      <trkpt lat="46.63342" lon="5.54757">
        <ele>366.4</ele>
        <time>2023-08-30T10:17:44Z</time>
      </trkpt>
      <trkpt lat="46.6334" lon="5.54757">
        <ele>366.6</ele>
        <time>2023-08-30T10:17:45Z</time>
      </trkpt>
      <trkpt lat="46.63338" lon="5.54757">
        <ele>366.6</ele>
        <time>2023-08-30T10:17:46Z</time>
      </trkpt>
      <trkpt lat="46.63335" lon="5.54758">
        <ele>366.6</ele>
        <time>2023-08-30T10:17:47Z</time>
      </trkpt>
      <trkpt lat="46.63333" lon="5.54758">
        <ele>367.2</ele>
        <time>2023-08-30T10:17:48Z</time>
      </trkpt>
      <trkpt lat="46.63331" lon="5.54759">
        <ele>367.2</ele>
        <time>2023-08-30T10:17:49Z</time>
      </trkpt>
      <trkpt lat="46.63329" lon="5.5476">
        <ele>367.6</ele>
        <time>2023-08-30T10:17:50Z</time>
      </trkpt>
      <trkpt lat="46.63326" lon="5.5476">
        <ele>367.6</ele>
        <time>2023-08-30T10:17:51Z</time>
      </trkpt>
      <trkpt lat="46.63324" lon="5.54761">
        <ele>367.6</ele>
        <time>2023-08-30T10:17:52Z</time>
      </trkpt>
      <trkpt lat="46.63322" lon="5.54762">
        <ele>367.6</ele>
        <time>2023-08-30T10:17:53Z</time>
      </trkpt>
      <trkpt lat="46.63319" lon="5.54763">
        <ele>368</ele>
        <time>2023-08-30T10:17:54Z</time>
      </trkpt>
      <trkpt lat="46.63317" lon="5.54764">
        <ele>368</ele>
        <time>2023-08-30T10:17:55Z</time>
      </trkpt>
      <trkpt lat="46.63315" lon="5.54765">
        <ele>368.2</ele>
        <time>2023-08-30T10:17:56Z</time>
      </trkpt>
      <trkpt lat="46.63312" lon="5.54765">
        <ele>368.2</ele>
        <time>2023-08-30T10:17:57Z</time>
      </trkpt>
      <trkpt lat="46.63309" lon="5.54766">
        <ele>368.8</ele>
        <time>2023-08-30T10:17:58Z</time>
      </trkpt>
      <trkpt lat="46.63307" lon="5.54767">
        <ele>368.8</ele>
        <time>2023-08-30T10:17:59Z</time>
      </trkpt>
      <trkpt lat="46.63304" lon="5.54768">
        <ele>368.8</ele>
        <time>2023-08-30T10:18:00Z</time>
      </trkpt>
      <trkpt lat="46.63301" lon="5.54768">
        <ele>368.8</ele>
        <time>2023-08-30T10:18:01Z</time>
      </trkpt>
      <trkpt lat="46.63299" lon="5.54768">
        <ele>368.8</ele>
        <time>2023-08-30T10:18:02Z</time>
      </trkpt>
      <trkpt lat="46.63296" lon="5.54768">
        <ele>368.8</ele>
        <time>2023-08-30T10:18:03Z</time>
      </trkpt>
      <trkpt lat="46.63293" lon="5.54768">
        <ele>369</ele>
        <time>2023-08-30T10:18:04Z</time>
      </trkpt>
      <trkpt lat="46.63291" lon="5.54768">
        <ele>369</ele>
        <time>2023-08-30T10:18:05Z</time>
      </trkpt>
      <trkpt lat="46.63288" lon="5.54768">
        <ele>369</ele>
        <time>2023-08-30T10:18:06Z</time>
      </trkpt>
      <trkpt lat="46.63285" lon="5.54768">
        <ele>369</ele>
        <time>2023-08-30T10:18:07Z</time>
      </trkpt>
      <trkpt lat="46.63282" lon="5.54769">
        <ele>369.8</ele>
        <time>2023-08-30T10:18:08Z</time>
      </trkpt>
      <trkpt lat="46.6328" lon="5.54769">
        <ele>369.8</ele>
        <time>2023-08-30T10:18:09Z</time>
      </trkpt>
      <trkpt lat="46.63277" lon="5.5477">
        <ele>369.8</ele>
        <time>2023-08-30T10:18:10Z</time>
      </trkpt>
      <trkpt lat="46.63275" lon="5.5477">
        <ele>369.8</ele>
        <time>2023-08-30T10:18:11Z</time>
      </trkpt>
      <trkpt lat="46.63272" lon="5.54771">
        <ele>370.4</ele>
        <time>2023-08-30T10:18:12Z</time>
      </trkpt>
      <trkpt lat="46.6327" lon="5.54771">
        <ele>370.4</ele>
        <time>2023-08-30T10:18:13Z</time>
      </trkpt>
      <trkpt lat="46.63267" lon="5.54771">
        <ele>370.4</ele>
        <time>2023-08-30T10:18:14Z</time>
      </trkpt>
      <trkpt lat="46.63264" lon="5.54771">
        <ele>370.4</ele>
        <time>2023-08-30T10:18:15Z</time>
      </trkpt>
      <trkpt lat="46.63262" lon="5.54771">
        <ele>370.4</ele>
        <time>2023-08-30T10:18:16Z</time>
      </trkpt>
      <trkpt lat="46.63259" lon="5.54771">
        <ele>371</ele>
        <time>2023-08-30T10:18:17Z</time>
      </trkpt>
      <trkpt lat="46.63257" lon="5.54771">
        <ele>371</ele>
        <time>2023-08-30T10:18:18Z</time>
      </trkpt>
      <trkpt lat="46.63254" lon="5.54771">
        <ele>371</ele>
        <time>2023-08-30T10:18:19Z</time>
      </trkpt>
      <trkpt lat="46.63251" lon="5.54772">
        <ele>371</ele>
        <time>2023-08-30T10:18:20Z</time>
      </trkpt>
      <trkpt lat="46.63249" lon="5.54773">
        <ele>371.8</ele>
        <time>2023-08-30T10:18:21Z</time>
      </trkpt>
      <trkpt lat="46.63246" lon="5.54773">
        <ele>371.8</ele>
        <time>2023-08-30T10:18:22Z</time>
      </trkpt>
      <trkpt lat="46.63244" lon="5.54774">
        <ele>371.8</ele>
        <time>2023-08-30T10:18:23Z</time>
      </trkpt>
      <trkpt lat="46.63241" lon="5.54774">
        <ele>371.8</ele>
        <time>2023-08-30T10:18:24Z</time>
      </trkpt>
      <trkpt lat="46.63238" lon="5.54775">
        <ele>372</ele>
        <time>2023-08-30T10:18:25Z</time>
      </trkpt>
      <trkpt lat="46.63235" lon="5.54776">
        <ele>372.2</ele>
        <time>2023-08-30T10:18:26Z</time>
      </trkpt>
      <trkpt lat="46.63232" lon="5.54777">
        <ele>372.2</ele>
        <time>2023-08-30T10:18:27Z</time>
      </trkpt>
      <trkpt lat="46.6323" lon="5.54777">
        <ele>372.2</ele>
        <time>2023-08-30T10:18:28Z</time>
      </trkpt>
      <trkpt lat="46.63227" lon="5.54777">
        <ele>372.4</ele>
        <time>2023-08-30T10:18:29Z</time>
      </trkpt>
      <trkpt lat="46.63224" lon="5.54778">
        <ele>372.8</ele>
        <time>2023-08-30T10:18:30Z</time>
      </trkpt>
      <trkpt lat="46.63222" lon="5.54778">
        <ele>372.8</ele>
        <time>2023-08-30T10:18:31Z</time>
      </trkpt>
      <trkpt lat="46.63219" lon="5.54778">
        <ele>372.8</ele>
        <time>2023-08-30T10:18:32Z</time>
      </trkpt>
      <trkpt lat="46.63216" lon="5.54778">
        <ele>372.8</ele>
        <time>2023-08-30T10:18:33Z</time>
      </trkpt>
      <trkpt lat="46.63213" lon="5.54778">
        <ele>373.2</ele>
        <time>2023-08-30T10:18:34Z</time>
      </trkpt>
      <trkpt lat="46.63211" lon="5.54779">
        <ele>373.2</ele>
        <time>2023-08-30T10:18:35Z</time>
      </trkpt>
      <trkpt lat="46.63207" lon="5.54778">
        <ele>373.4</ele>
        <time>2023-08-30T10:18:36Z</time>
      </trkpt>
      <trkpt lat="46.63204" lon="5.54778">
        <ele>373.4</ele>
        <time>2023-08-30T10:18:37Z</time>
      </trkpt>
      <trkpt lat="46.63201" lon="5.54778">
        <ele>373.4</ele>
        <time>2023-08-30T10:18:38Z</time>
      </trkpt>
      <trkpt lat="46.63199" lon="5.54778">
        <ele>373.4</ele>
        <time>2023-08-30T10:18:39Z</time>
      </trkpt>
      <trkpt lat="46.63196" lon="5.54777">
        <ele>374.2</ele>
        <time>2023-08-30T10:18:40Z</time>
      </trkpt>
      <trkpt lat="46.63193" lon="5.54776">
        <ele>374.2</ele>
        <time>2023-08-30T10:18:41Z</time>
      </trkpt>
      <trkpt lat="46.6319" lon="5.54775">
        <ele>374.2</ele>
        <time>2023-08-30T10:18:42Z</time>
      </trkpt>
      <trkpt lat="46.63187" lon="5.54774">
        <ele>374.2</ele>
        <time>2023-08-30T10:18:43Z</time>
      </trkpt>
      <trkpt lat="46.63185" lon="5.54773">
        <ele>374.4</ele>
        <time>2023-08-30T10:18:44Z</time>
      </trkpt>
      <trkpt lat="46.63182" lon="5.54773">
        <ele>374.4</ele>
        <time>2023-08-30T10:18:45Z</time>
      </trkpt>
      <trkpt lat="46.63179" lon="5.54772">
        <ele>374.4</ele>
        <time>2023-08-30T10:18:46Z</time>
      </trkpt>
      <trkpt lat="46.63176" lon="5.54771">
        <ele>374.4</ele>
        <time>2023-08-30T10:18:47Z</time>
      </trkpt>
      <trkpt lat="46.63174" lon="5.54771">
        <ele>374.4</ele>
        <time>2023-08-30T10:18:48Z</time>
      </trkpt>
      <trkpt lat="46.63171" lon="5.5477">
        <ele>375.4</ele>
        <time>2023-08-30T10:18:49Z</time>
      </trkpt>
      <trkpt lat="46.63168" lon="5.5477">
        <ele>375.4</ele>
        <time>2023-08-30T10:18:50Z</time>
      </trkpt>
      <trkpt lat="46.63165" lon="5.54769">
        <ele>375.4</ele>
        <time>2023-08-30T10:18:51Z</time>
      </trkpt>
      <trkpt lat="46.63162" lon="5.54768">
        <ele>375.8</ele>
        <time>2023-08-30T10:18:52Z</time>
      </trkpt>
      <trkpt lat="46.6316" lon="5.54768">
        <ele>375.8</ele>
        <time>2023-08-30T10:18:53Z</time>
      </trkpt>
      <trkpt lat="46.63157" lon="5.54768">
        <ele>375.8</ele>
        <time>2023-08-30T10:18:54Z</time>
      </trkpt>
      <trkpt lat="46.63154" lon="5.54767">
        <ele>375.8</ele>
        <time>2023-08-30T10:18:55Z</time>
      </trkpt>
      <trkpt lat="46.63152" lon="5.54767">
        <ele>376.2</ele>
        <time>2023-08-30T10:18:56Z</time>
      </trkpt>
      <trkpt lat="46.63149" lon="5.54766">
        <ele>376.2</ele>
        <time>2023-08-30T10:18:57Z</time>
      </trkpt>
      <trkpt lat="46.63147" lon="5.54765">
        <ele>376.6</ele>
        <time>2023-08-30T10:18:58Z</time>
      </trkpt>
      <trkpt lat="46.63144" lon="5.54765">
        <ele>376.6</ele>
        <time>2023-08-30T10:18:59Z</time>
      </trkpt>
      <trkpt lat="46.63142" lon="5.54764">
        <ele>376.6</ele>
        <time>2023-08-30T10:19:00Z</time>
      </trkpt>
      <trkpt lat="46.63139" lon="5.54764">
        <ele>377</ele>
        <time>2023-08-30T10:19:01Z</time>
      </trkpt>
      <trkpt lat="46.63137" lon="5.54763">
        <ele>377</ele>
        <time>2023-08-30T10:19:02Z</time>
      </trkpt>
      <trkpt lat="46.63134" lon="5.54763">
        <ele>377</ele>
        <time>2023-08-30T10:19:03Z</time>
      </trkpt>
      <trkpt lat="46.63132" lon="5.54762">
        <ele>377</ele>
        <time>2023-08-30T10:19:04Z</time>
      </trkpt>
      <trkpt lat="46.63129" lon="5.54761">
        <ele>377</ele>
        <time>2023-08-30T10:19:05Z</time>
      </trkpt>
      <trkpt lat="46.63126" lon="5.54761">
        <ele>377.4</ele>
        <time>2023-08-30T10:19:06Z</time>
      </trkpt>
      <trkpt lat="46.63124" lon="5.5476">
        <ele>377.4</ele>
        <time>2023-08-30T10:19:07Z</time>
      </trkpt>
      <trkpt lat="46.63121" lon="5.5476">
        <ele>377.4</ele>
        <time>2023-08-30T10:19:08Z</time>
      </trkpt>
      <trkpt lat="46.63117" lon="5.54759">
        <ele>377.4</ele>
        <time>2023-08-30T10:19:09Z</time>
      </trkpt>
      <trkpt lat="46.63115" lon="5.54759">
        <ele>377.8</ele>
        <time>2023-08-30T10:19:10Z</time>
      </trkpt>
      <trkpt lat="46.63112" lon="5.54758">
        <ele>378</ele>
        <time>2023-08-30T10:19:11Z</time>
      </trkpt>
      <trkpt lat="46.63109" lon="5.54757">
        <ele>378</ele>
        <time>2023-08-30T10:19:12Z</time>
      </trkpt>
      <trkpt lat="46.63106" lon="5.54756">
        <ele>378</ele>
        <time>2023-08-30T10:19:13Z</time>
      </trkpt>
      <trkpt lat="46.63104" lon="5.54756">
        <ele>378.2</ele>
        <time>2023-08-30T10:19:14Z</time>
      </trkpt>
      <trkpt lat="46.631" lon="5.54755">
        <ele>378.2</ele>
        <time>2023-08-30T10:19:15Z</time>
      </trkpt>
      <trkpt lat="46.63097" lon="5.54755">
        <ele>378.4</ele>
        <time>2023-08-30T10:19:16Z</time>
      </trkpt>
      <trkpt lat="46.63094" lon="5.54755">
        <ele>378.4</ele>
        <time>2023-08-30T10:19:17Z</time>
      </trkpt>
      <trkpt lat="46.63091" lon="5.54754">
        <ele>378.4</ele>
        <time>2023-08-30T10:19:18Z</time>
      </trkpt>
      <trkpt lat="46.63088" lon="5.54753">
        <ele>379</ele>
        <time>2023-08-30T10:19:19Z</time>
      </trkpt>
      <trkpt lat="46.63085" lon="5.54753">
        <ele>379</ele>
        <time>2023-08-30T10:19:20Z</time>
      </trkpt>
      <trkpt lat="46.63082" lon="5.54753">
        <ele>379</ele>
        <time>2023-08-30T10:19:21Z</time>
      </trkpt>
      <trkpt lat="46.6308" lon="5.54753">
        <ele>379</ele>
        <time>2023-08-30T10:19:22Z</time>
      </trkpt>
      <trkpt lat="46.63076" lon="5.54753">
        <ele>379</ele>
        <time>2023-08-30T10:19:23Z</time>
      </trkpt>
      <trkpt lat="46.63073" lon="5.54753">
        <ele>379</ele>
        <time>2023-08-30T10:19:24Z</time>
      </trkpt>
      <trkpt lat="46.63071" lon="5.54753">
        <ele>379.4</ele>
        <time>2023-08-30T10:19:25Z</time>
      </trkpt>
      <trkpt lat="46.63068" lon="5.54753">
        <ele>379.4</ele>
        <time>2023-08-30T10:19:26Z</time>
      </trkpt>
      <trkpt lat="46.63065" lon="5.54754">
        <ele>379.4</ele>
        <time>2023-08-30T10:19:27Z</time>
      </trkpt>
      <trkpt lat="46.63062" lon="5.54754">
        <ele>379.4</ele>
        <time>2023-08-30T10:19:28Z</time>
      </trkpt>
      <trkpt lat="46.63059" lon="5.54754">
        <ele>379.8</ele>
        <time>2023-08-30T10:19:29Z</time>
      </trkpt>
      <trkpt lat="46.63056" lon="5.54755">
        <ele>379.8</ele>
        <time>2023-08-30T10:19:30Z</time>
      </trkpt>
      <trkpt lat="46.63053" lon="5.54755">
        <ele>379.8</ele>
        <time>2023-08-30T10:19:31Z</time>
      </trkpt>
      <trkpt lat="46.6305" lon="5.54756">
        <ele>379.8</ele>
        <time>2023-08-30T10:19:32Z</time>
      </trkpt>
      <trkpt lat="46.63047" lon="5.54757">
        <ele>379.8</ele>
        <time>2023-08-30T10:19:33Z</time>
      </trkpt>
      <trkpt lat="46.63044" lon="5.54757">
        <ele>380.4</ele>
        <time>2023-08-30T10:19:34Z</time>
      </trkpt>
      <trkpt lat="46.63042" lon="5.54758">
        <ele>380.4</ele>
        <time>2023-08-30T10:19:35Z</time>
      </trkpt>
      <trkpt lat="46.63039" lon="5.54759">
        <ele>380.4</ele>
        <time>2023-08-30T10:19:36Z</time>
      </trkpt>
      <trkpt lat="46.63036" lon="5.54759">
        <ele>380.4</ele>
        <time>2023-08-30T10:19:37Z</time>
      </trkpt>
      <trkpt lat="46.63034" lon="5.5476">
        <ele>380.4</ele>
        <time>2023-08-30T10:19:38Z</time>
      </trkpt>
      <trkpt lat="46.63031" lon="5.5476">
        <ele>380.8</ele>
        <time>2023-08-30T10:19:39Z</time>
      </trkpt>
      <trkpt lat="46.63029" lon="5.54761">
        <ele>380.8</ele>
        <time>2023-08-30T10:19:40Z</time>
      </trkpt>
      <trkpt lat="46.63026" lon="5.54762">
        <ele>380.8</ele>
        <time>2023-08-30T10:19:41Z</time>
      </trkpt>
      <trkpt lat="46.63023" lon="5.54762">
        <ele>380.8</ele>
        <time>2023-08-30T10:19:42Z</time>
      </trkpt>
      <trkpt lat="46.63021" lon="5.54763">
        <ele>381.2</ele>
        <time>2023-08-30T10:19:43Z</time>
      </trkpt>
      <trkpt lat="46.63018" lon="5.54763">
        <ele>381.2</ele>
        <time>2023-08-30T10:19:44Z</time>
      </trkpt>
      <trkpt lat="46.63015" lon="5.54764">
        <ele>381.2</ele>
        <time>2023-08-30T10:19:45Z</time>
      </trkpt>
      <trkpt lat="46.63013" lon="5.54765">
        <ele>381.6</ele>
        <time>2023-08-30T10:19:46Z</time>
      </trkpt>
      <trkpt lat="46.6301" lon="5.54766">
        <ele>381.8</ele>
        <time>2023-08-30T10:19:47Z</time>
      </trkpt>
      <trkpt lat="46.63007" lon="5.54767">
        <ele>381.8</ele>
        <time>2023-08-30T10:19:48Z</time>
      </trkpt>
      <trkpt lat="46.63005" lon="5.54768">
        <ele>381.8</ele>
        <time>2023-08-30T10:19:49Z</time>
      </trkpt>
      <trkpt lat="46.63002" lon="5.54769">
        <ele>382.2</ele>
        <time>2023-08-30T10:19:50Z</time>
      </trkpt>
      <trkpt lat="46.63" lon="5.5477">
        <ele>382.4</ele>
        <time>2023-08-30T10:19:51Z</time>
      </trkpt>
      <trkpt lat="46.62997" lon="5.54771">
        <ele>382.4</ele>
        <time>2023-08-30T10:19:52Z</time>
      </trkpt>
      <trkpt lat="46.62995" lon="5.54772">
        <ele>382.4</ele>
        <time>2023-08-30T10:19:53Z</time>
      </trkpt>
      <trkpt lat="46.62992" lon="5.54773">
        <ele>382.4</ele>
        <time>2023-08-30T10:19:54Z</time>
      </trkpt>
      <trkpt lat="46.6299" lon="5.54774">
        <ele>382.8</ele>
        <time>2023-08-30T10:19:55Z</time>
      </trkpt>
      <trkpt lat="46.62988" lon="5.54775">
        <ele>382.8</ele>
        <time>2023-08-30T10:19:56Z</time>
      </trkpt>
      <trkpt lat="46.62986" lon="5.54777">
        <ele>382.8</ele>
        <time>2023-08-30T10:19:57Z</time>
      </trkpt>
      <trkpt lat="46.62984" lon="5.54778">
        <ele>382.8</ele>
        <time>2023-08-30T10:19:58Z</time>
      </trkpt>
      <trkpt lat="46.62982" lon="5.5478">
        <ele>382.8</ele>
        <time>2023-08-30T10:19:59Z</time>
      </trkpt>
      <trkpt lat="46.6298" lon="5.54781">
        <ele>383.2</ele>
        <time>2023-08-30T10:20:00Z</time>
      </trkpt>
      <trkpt lat="46.62978" lon="5.54782">
        <ele>383.4</ele>
        <time>2023-08-30T10:20:01Z</time>
      </trkpt>
      <trkpt lat="46.62976" lon="5.54784">
        <ele>383.4</ele>
        <time>2023-08-30T10:20:02Z</time>
      </trkpt>
      <trkpt lat="46.62973" lon="5.54785">
        <ele>383.4</ele>
        <time>2023-08-30T10:20:03Z</time>
      </trkpt>
      <trkpt lat="46.62971" lon="5.54786">
        <ele>383.4</ele>
        <time>2023-08-30T10:20:04Z</time>
      </trkpt>
      <trkpt lat="46.62969" lon="5.54787">
        <ele>383.8</ele>
        <time>2023-08-30T10:20:05Z</time>
      </trkpt>
      <trkpt lat="46.62966" lon="5.54789">
        <ele>384.2</ele>
        <time>2023-08-30T10:20:06Z</time>
      </trkpt>
      <trkpt lat="46.62964" lon="5.54791">
        <ele>384.2</ele>
        <time>2023-08-30T10:20:07Z</time>
      </trkpt>
      <trkpt lat="46.62961" lon="5.54792">
        <ele>384.2</ele>
        <time>2023-08-30T10:20:08Z</time>
      </trkpt>
      <trkpt lat="46.62959" lon="5.54794">
        <ele>384.4</ele>
        <time>2023-08-30T10:20:09Z</time>
      </trkpt>
      <trkpt lat="46.62957" lon="5.54795">
        <ele>384.8</ele>
        <time>2023-08-30T10:20:10Z</time>
      </trkpt>
      <trkpt lat="46.62954" lon="5.54796">
        <ele>384.8</ele>
        <time>2023-08-30T10:20:11Z</time>
      </trkpt>
      <trkpt lat="46.62952" lon="5.54797">
        <ele>384.8</ele>
        <time>2023-08-30T10:20:12Z</time>
      </trkpt>
      <trkpt lat="46.6295" lon="5.54798">
        <ele>385.2</ele>
        <time>2023-08-30T10:20:13Z</time>
      </trkpt>
      <trkpt lat="46.62947" lon="5.54799">
        <ele>385.2</ele>
        <time>2023-08-30T10:20:14Z</time>
      </trkpt>
      <trkpt lat="46.62945" lon="5.548">
        <ele>385.2</ele>
        <time>2023-08-30T10:20:15Z</time>
      </trkpt>
      <trkpt lat="46.62942" lon="5.54801">
        <ele>385.2</ele>
        <time>2023-08-30T10:20:16Z</time>
      </trkpt>
      <trkpt lat="46.6294" lon="5.54803">
        <ele>385.2</ele>
        <time>2023-08-30T10:20:17Z</time>
      </trkpt>
      <trkpt lat="46.62938" lon="5.54804">
        <ele>386</ele>
        <time>2023-08-30T10:20:18Z</time>
      </trkpt>
      <trkpt lat="46.62936" lon="5.54805">
        <ele>386</ele>
        <time>2023-08-30T10:20:19Z</time>
      </trkpt>
      <trkpt lat="46.62934" lon="5.54805">
        <ele>385.8</ele>
        <time>2023-08-30T10:20:20Z</time>
      </trkpt>
      <trkpt lat="46.62932" lon="5.54807">
        <ele>385.8</ele>
        <time>2023-08-30T10:20:21Z</time>
      </trkpt>
      <trkpt lat="46.6293" lon="5.54808">
        <ele>386.4</ele>
        <time>2023-08-30T10:20:22Z</time>
      </trkpt>
      <trkpt lat="46.62928" lon="5.5481">
        <ele>386.4</ele>
        <time>2023-08-30T10:20:23Z</time>
      </trkpt>
      <trkpt lat="46.62925" lon="5.54811">
        <ele>386.4</ele>
        <time>2023-08-30T10:20:24Z</time>
      </trkpt>
      <trkpt lat="46.62922" lon="5.54813">
        <ele>386.4</ele>
        <time>2023-08-30T10:20:25Z</time>
      </trkpt>
      <trkpt lat="46.62921" lon="5.54814">
        <ele>386.4</ele>
        <time>2023-08-30T10:20:26Z</time>
      </trkpt>
      <trkpt lat="46.62919" lon="5.54816">
        <ele>387.2</ele>
        <time>2023-08-30T10:20:27Z</time>
      </trkpt>
      <trkpt lat="46.62916" lon="5.54817">
        <ele>387.2</ele>
        <time>2023-08-30T10:20:28Z</time>
      </trkpt>
      <trkpt lat="46.62914" lon="5.54818">
        <ele>387.2</ele>
        <time>2023-08-30T10:20:29Z</time>
      </trkpt>
      <trkpt lat="46.62913" lon="5.5482">
        <ele>387.2</ele>
        <time>2023-08-30T10:20:30Z</time>
      </trkpt>
      <trkpt lat="46.62911" lon="5.54822">
        <ele>387.2</ele>
        <time>2023-08-30T10:20:31Z</time>
      </trkpt>
      <trkpt lat="46.62908" lon="5.54823">
        <ele>388</ele>
        <time>2023-08-30T10:20:32Z</time>
      </trkpt>
      <trkpt lat="46.62906" lon="5.54825">
        <ele>388</ele>
        <time>2023-08-30T10:20:33Z</time>
      </trkpt>
      <trkpt lat="46.62904" lon="5.54827">
        <ele>388</ele>
        <time>2023-08-30T10:20:34Z</time>
      </trkpt>
      <trkpt lat="46.62902" lon="5.54828">
        <ele>388.4</ele>
        <time>2023-08-30T10:20:35Z</time>
      </trkpt>
      <trkpt lat="46.62901" lon="5.5483">
        <ele>388.6</ele>
        <time>2023-08-30T10:20:36Z</time>
      </trkpt>
      <trkpt lat="46.62899" lon="5.54831">
        <ele>388.6</ele>
        <time>2023-08-30T10:20:37Z</time>
      </trkpt>
      <trkpt lat="46.62897" lon="5.54833">
        <ele>388.6</ele>
        <time>2023-08-30T10:20:38Z</time>
      </trkpt>
      <trkpt lat="46.62896" lon="5.54834">
        <ele>388.6</ele>
        <time>2023-08-30T10:20:39Z</time>
      </trkpt>
      <trkpt lat="46.62894" lon="5.54835">
        <ele>389</ele>
        <time>2023-08-30T10:20:40Z</time>
      </trkpt>
      <trkpt lat="46.62892" lon="5.54836">
        <ele>389</ele>
        <time>2023-08-30T10:20:41Z</time>
      </trkpt>
      <trkpt lat="46.62889" lon="5.54838">
        <ele>389.2</ele>
        <time>2023-08-30T10:20:42Z</time>
      </trkpt>
      <trkpt lat="46.62887" lon="5.54839">
        <ele>389.2</ele>
        <time>2023-08-30T10:20:43Z</time>
      </trkpt>
      <trkpt lat="46.62885" lon="5.54841">
        <ele>389.2</ele>
        <time>2023-08-30T10:20:44Z</time>
      </trkpt>
      <trkpt lat="46.62883" lon="5.54842">
        <ele>389.4</ele>
        <time>2023-08-30T10:20:45Z</time>
      </trkpt>
      <trkpt lat="46.62881" lon="5.54844">
        <ele>389.8</ele>
        <time>2023-08-30T10:20:46Z</time>
      </trkpt>
      <trkpt lat="46.62879" lon="5.54846">
        <ele>389.8</ele>
        <time>2023-08-30T10:20:47Z</time>
      </trkpt>
      <trkpt lat="46.62877" lon="5.54848">
        <ele>389.8</ele>
        <time>2023-08-30T10:20:48Z</time>
      </trkpt>
      <trkpt lat="46.62875" lon="5.54849">
        <ele>390</ele>
        <time>2023-08-30T10:20:49Z</time>
      </trkpt>
      <trkpt lat="46.62874" lon="5.54851">
        <ele>390</ele>
        <time>2023-08-30T10:20:50Z</time>
      </trkpt>
      <trkpt lat="46.62872" lon="5.54854">
        <ele>390.4</ele>
        <time>2023-08-30T10:20:51Z</time>
      </trkpt>
      <trkpt lat="46.6287" lon="5.54856">
        <ele>390.4</ele>
        <time>2023-08-30T10:20:52Z</time>
      </trkpt>
      <trkpt lat="46.62868" lon="5.54858">
        <ele>390.4</ele>
        <time>2023-08-30T10:20:53Z</time>
      </trkpt>
      <trkpt lat="46.62867" lon="5.54859">
        <ele>390.4</ele>
        <time>2023-08-30T10:20:54Z</time>
      </trkpt>
      <trkpt lat="46.62865" lon="5.54861">
        <ele>390.8</ele>
        <time>2023-08-30T10:20:55Z</time>
      </trkpt>
      <trkpt lat="46.62863" lon="5.54862">
        <ele>390.8</ele>
        <time>2023-08-30T10:20:56Z</time>
      </trkpt>
      <trkpt lat="46.6286" lon="5.54864">
        <ele>390.8</ele>
        <time>2023-08-30T10:20:57Z</time>
      </trkpt>
      <trkpt lat="46.62858" lon="5.54865">
        <ele>391</ele>
        <time>2023-08-30T10:20:58Z</time>
      </trkpt>
      <trkpt lat="46.62856" lon="5.54867">
        <ele>391.2</ele>
        <time>2023-08-30T10:20:59Z</time>
      </trkpt>
      <trkpt lat="46.62854" lon="5.54869">
        <ele>391.2</ele>
        <time>2023-08-30T10:21:00Z</time>
      </trkpt>
      <trkpt lat="46.62852" lon="5.54871">
        <ele>391.2</ele>
        <time>2023-08-30T10:21:01Z</time>
      </trkpt>
      <trkpt lat="46.6285" lon="5.54873">
        <ele>391.2</ele>
        <time>2023-08-30T10:21:02Z</time>
      </trkpt>
      <trkpt lat="46.62848" lon="5.54874">
        <ele>391.2</ele>
        <time>2023-08-30T10:21:03Z</time>
      </trkpt>
      <trkpt lat="46.62847" lon="5.54877">
        <ele>391.8</ele>
        <time>2023-08-30T10:21:04Z</time>
      </trkpt>
      <trkpt lat="46.62845" lon="5.54879">
        <ele>391.8</ele>
        <time>2023-08-30T10:21:05Z</time>
      </trkpt>
      <trkpt lat="46.62843" lon="5.5488">
        <ele>391.8</ele>
        <time>2023-08-30T10:21:06Z</time>
      </trkpt>
      <trkpt lat="46.62841" lon="5.54882">
        <ele>392.2</ele>
        <time>2023-08-30T10:21:07Z</time>
      </trkpt>
      <trkpt lat="46.62839" lon="5.54884">
        <ele>392.4</ele>
        <time>2023-08-30T10:21:08Z</time>
      </trkpt>
      <trkpt lat="46.62837" lon="5.54887">
        <ele>392.4</ele>
        <time>2023-08-30T10:21:09Z</time>
      </trkpt>
      <trkpt lat="46.62836" lon="5.54889">
        <ele>392.4</ele>
        <time>2023-08-30T10:21:10Z</time>
      </trkpt>
      <trkpt lat="46.62834" lon="5.54891">
        <ele>392.8</ele>
        <time>2023-08-30T10:21:11Z</time>
      </trkpt>
      <trkpt lat="46.62833" lon="5.54894">
        <ele>392.8</ele>
        <time>2023-08-30T10:21:12Z</time>
      </trkpt>
      <trkpt lat="46.62831" lon="5.54896">
        <ele>392.8</ele>
        <time>2023-08-30T10:21:13Z</time>
      </trkpt>
      <trkpt lat="46.62829" lon="5.54899">
        <ele>392.8</ele>
        <time>2023-08-30T10:21:14Z</time>
      </trkpt>
      <trkpt lat="46.62827" lon="5.54901">
        <ele>392.8</ele>
        <time>2023-08-30T10:21:15Z</time>
      </trkpt>
      <trkpt lat="46.62825" lon="5.54903">
        <ele>393.4</ele>
        <time>2023-08-30T10:21:16Z</time>
      </trkpt>
      <trkpt lat="46.62823" lon="5.54905">
        <ele>393.6</ele>
        <time>2023-08-30T10:21:17Z</time>
      </trkpt>
      <trkpt lat="46.62821" lon="5.54907">
        <ele>393.6</ele>
        <time>2023-08-30T10:21:18Z</time>
      </trkpt>
      <trkpt lat="46.62819" lon="5.5491">
        <ele>393.6</ele>
        <time>2023-08-30T10:21:19Z</time>
      </trkpt>
      <trkpt lat="46.62818" lon="5.54912">
        <ele>393.6</ele>
        <time>2023-08-30T10:21:20Z</time>
      </trkpt>
      <trkpt lat="46.62816" lon="5.54913">
        <ele>394.2</ele>
        <time>2023-08-30T10:21:21Z</time>
      </trkpt>
      <trkpt lat="46.62814" lon="5.54915">
        <ele>394.2</ele>
        <time>2023-08-30T10:21:22Z</time>
      </trkpt>
      <trkpt lat="46.62812" lon="5.54918">
        <ele>394.2</ele>
        <time>2023-08-30T10:21:23Z</time>
      </trkpt>
      <trkpt lat="46.6281" lon="5.5492">
        <ele>394.2</ele>
        <time>2023-08-30T10:21:24Z</time>
      </trkpt>
      <trkpt lat="46.62808" lon="5.54922">
        <ele>394.2</ele>
        <time>2023-08-30T10:21:25Z</time>
      </trkpt>
      <trkpt lat="46.62806" lon="5.54924">
        <ele>394.4</ele>
        <time>2023-08-30T10:21:26Z</time>
      </trkpt>
      <trkpt lat="46.62804" lon="5.54926">
        <ele>394.6</ele>
        <time>2023-08-30T10:21:27Z</time>
      </trkpt>
      <trkpt lat="46.62802" lon="5.54928">
        <ele>394.6</ele>
        <time>2023-08-30T10:21:28Z</time>
      </trkpt>
      <trkpt lat="46.628" lon="5.54931">
        <ele>394.6</ele>
        <time>2023-08-30T10:21:29Z</time>
      </trkpt>
      <trkpt lat="46.62798" lon="5.54933">
        <ele>394.6</ele>
        <time>2023-08-30T10:21:30Z</time>
      </trkpt>
      <trkpt lat="46.62796" lon="5.54935">
        <ele>395.2</ele>
        <time>2023-08-30T10:21:31Z</time>
      </trkpt>
      <trkpt lat="46.62794" lon="5.54937">
        <ele>395.2</ele>
        <time>2023-08-30T10:21:32Z</time>
      </trkpt>
      <trkpt lat="46.62792" lon="5.54938">
        <ele>395.2</ele>
        <time>2023-08-30T10:21:33Z</time>
      </trkpt>
      <trkpt lat="46.6279" lon="5.5494">
        <ele>395.6</ele>
        <time>2023-08-30T10:21:34Z</time>
      </trkpt>
      <trkpt lat="46.62788" lon="5.54941">
        <ele>395.6</ele>
        <time>2023-08-30T10:21:35Z</time>
      </trkpt>
      <trkpt lat="46.62786" lon="5.54943">
        <ele>395.8</ele>
        <time>2023-08-30T10:21:36Z</time>
      </trkpt>
      <trkpt lat="46.62783" lon="5.54944">
        <ele>395.8</ele>
        <time>2023-08-30T10:21:37Z</time>
      </trkpt>
      <trkpt lat="46.62781" lon="5.54945">
        <ele>395.8</ele>
        <time>2023-08-30T10:21:38Z</time>
      </trkpt>
      <trkpt lat="46.62779" lon="5.54947">
        <ele>396</ele>
        <time>2023-08-30T10:21:39Z</time>
      </trkpt>
      <trkpt lat="46.62777" lon="5.54948">
        <ele>396.4</ele>
        <time>2023-08-30T10:21:40Z</time>
      </trkpt>
      <trkpt lat="46.62775" lon="5.54949">
        <ele>396.4</ele>
        <time>2023-08-30T10:21:41Z</time>
      </trkpt>
      <trkpt lat="46.62773" lon="5.5495">
        <ele>396.4</ele>
        <time>2023-08-30T10:21:42Z</time>
      </trkpt>
      <trkpt lat="46.6277" lon="5.54952">
        <ele>396.8</ele>
        <time>2023-08-30T10:21:43Z</time>
      </trkpt>
      <trkpt lat="46.62768" lon="5.54953">
        <ele>396.6</ele>
        <time>2023-08-30T10:21:44Z</time>
      </trkpt>
      <trkpt lat="46.62765" lon="5.54955">
        <ele>396.6</ele>
        <time>2023-08-30T10:21:45Z</time>
      </trkpt>
      <trkpt lat="46.62763" lon="5.54957">
        <ele>396.6</ele>
        <time>2023-08-30T10:21:46Z</time>
      </trkpt>
      <trkpt lat="46.62761" lon="5.54958">
        <ele>396.6</ele>
        <time>2023-08-30T10:21:47Z</time>
      </trkpt>
      <trkpt lat="46.62759" lon="5.54959">
        <ele>397.4</ele>
        <time>2023-08-30T10:21:48Z</time>
      </trkpt>
      <trkpt lat="46.62756" lon="5.5496">
        <ele>397.6</ele>
        <time>2023-08-30T10:21:49Z</time>
      </trkpt>
      <trkpt lat="46.62754" lon="5.54961">
        <ele>397.6</ele>
        <time>2023-08-30T10:21:50Z</time>
      </trkpt>
      <trkpt lat="46.6275" lon="5.54962">
        <ele>397.6</ele>
        <time>2023-08-30T10:21:51Z</time>
      </trkpt>
      <trkpt lat="46.62749" lon="5.54963">
        <ele>398.2</ele>
        <time>2023-08-30T10:21:52Z</time>
      </trkpt>
      <trkpt lat="46.62747" lon="5.54964">
        <ele>398.6</ele>
        <time>2023-08-30T10:21:53Z</time>
      </trkpt>
      <trkpt lat="46.62745" lon="5.54965">
        <ele>398.6</ele>
        <time>2023-08-30T10:21:54Z</time>
      </trkpt>
      <trkpt lat="46.62743" lon="5.54966">
        <ele>398.6</ele>
        <time>2023-08-30T10:21:55Z</time>
      </trkpt>
      <trkpt lat="46.6274" lon="5.54966">
        <ele>398.6</ele>
        <time>2023-08-30T10:21:56Z</time>
      </trkpt>
      <trkpt lat="46.62738" lon="5.54968">
        <ele>399.2</ele>
        <time>2023-08-30T10:21:57Z</time>
      </trkpt>
      <trkpt lat="46.62736" lon="5.54969">
        <ele>399.2</ele>
        <time>2023-08-30T10:21:58Z</time>
      </trkpt>
      <trkpt lat="46.62734" lon="5.54969">
        <ele>399.2</ele>
        <time>2023-08-30T10:21:59Z</time>
      </trkpt>
      <trkpt lat="46.62731" lon="5.5497">
        <ele>399.2</ele>
        <time>2023-08-30T10:22:00Z</time>
      </trkpt>
      <trkpt lat="46.62729" lon="5.54971">
        <ele>400</ele>
        <time>2023-08-30T10:22:01Z</time>
      </trkpt>
      <trkpt lat="46.62726" lon="5.54971">
        <ele>400</ele>
        <time>2023-08-30T10:22:02Z</time>
      </trkpt>
      <trkpt lat="46.62724" lon="5.54972">
        <ele>400</ele>
        <time>2023-08-30T10:22:03Z</time>
      </trkpt>
      <trkpt lat="46.62722" lon="5.54972">
        <ele>400</ele>
        <time>2023-08-30T10:22:04Z</time>
      </trkpt>
      <trkpt lat="46.6272" lon="5.54973">
        <ele>400.6</ele>
        <time>2023-08-30T10:22:05Z</time>
      </trkpt>
      <trkpt lat="46.62717" lon="5.54974">
        <ele>400.6</ele>
        <time>2023-08-30T10:22:06Z</time>
      </trkpt>
      <trkpt lat="46.62715" lon="5.54974">
        <ele>400.6</ele>
        <time>2023-08-30T10:22:07Z</time>
      </trkpt>
      <trkpt lat="46.62713" lon="5.54975">
        <ele>400.6</ele>
        <time>2023-08-30T10:22:08Z</time>
      </trkpt>
      <trkpt lat="46.6271" lon="5.54976">
        <ele>400.6</ele>
        <time>2023-08-30T10:22:09Z</time>
      </trkpt>
      <trkpt lat="46.62708" lon="5.54977">
        <ele>400.6</ele>
        <time>2023-08-30T10:22:10Z</time>
      </trkpt>
      <trkpt lat="46.62706" lon="5.54978">
        <ele>401.2</ele>
        <time>2023-08-30T10:22:11Z</time>
      </trkpt>
      <trkpt lat="46.62703" lon="5.54978">
        <ele>401.4</ele>
        <time>2023-08-30T10:22:12Z</time>
      </trkpt>
      <trkpt lat="46.62701" lon="5.54979">
        <ele>401.4</ele>
        <time>2023-08-30T10:22:13Z</time>
      </trkpt>
      <trkpt lat="46.62698" lon="5.54979">
        <ele>401.4</ele>
        <time>2023-08-30T10:22:14Z</time>
      </trkpt>
      <trkpt lat="46.62696" lon="5.5498">
        <ele>401.8</ele>
        <time>2023-08-30T10:22:15Z</time>
      </trkpt>
      <trkpt lat="46.62694" lon="5.5498">
        <ele>402.2</ele>
        <time>2023-08-30T10:22:16Z</time>
      </trkpt>
      <trkpt lat="46.62691" lon="5.5498">
        <ele>402.2</ele>
        <time>2023-08-30T10:22:17Z</time>
      </trkpt>
      <trkpt lat="46.62689" lon="5.54981">
        <ele>402.2</ele>
        <time>2023-08-30T10:22:18Z</time>
      </trkpt>
      <trkpt lat="46.62687" lon="5.54981">
        <ele>402.2</ele>
        <time>2023-08-30T10:22:19Z</time>
      </trkpt>
      <trkpt lat="46.62684" lon="5.54981">
        <ele>402.6</ele>
        <time>2023-08-30T10:22:20Z</time>
      </trkpt>
      <trkpt lat="46.62682" lon="5.54981">
        <ele>402.8</ele>
        <time>2023-08-30T10:22:21Z</time>
      </trkpt>
      <trkpt lat="46.6268" lon="5.54981">
        <ele>402.8</ele>
        <time>2023-08-30T10:22:22Z</time>
      </trkpt>
      <trkpt lat="46.62677" lon="5.54981">
        <ele>402.8</ele>
        <time>2023-08-30T10:22:23Z</time>
      </trkpt>
      <trkpt lat="46.62675" lon="5.54981">
        <ele>402.8</ele>
        <time>2023-08-30T10:22:24Z</time>
      </trkpt>
      <trkpt lat="46.62673" lon="5.54981">
        <ele>403.6</ele>
        <time>2023-08-30T10:22:25Z</time>
      </trkpt>
      <trkpt lat="46.6267" lon="5.54981">
        <ele>403.6</ele>
        <time>2023-08-30T10:22:26Z</time>
      </trkpt>
      <trkpt lat="46.62668" lon="5.54981">
        <ele>403.6</ele>
        <time>2023-08-30T10:22:27Z</time>
      </trkpt>
      <trkpt lat="46.62666" lon="5.54981">
        <ele>403.6</ele>
        <time>2023-08-30T10:22:28Z</time>
      </trkpt>
      <trkpt lat="46.62664" lon="5.54981">
        <ele>404.2</ele>
        <time>2023-08-30T10:22:29Z</time>
      </trkpt>
      <trkpt lat="46.62662" lon="5.54981">
        <ele>404.4</ele>
        <time>2023-08-30T10:22:30Z</time>
      </trkpt>
      <trkpt lat="46.62659" lon="5.54981">
        <ele>404.4</ele>
        <time>2023-08-30T10:22:31Z</time>
      </trkpt>
      <trkpt lat="46.62657" lon="5.54981">
        <ele>404.4</ele>
        <time>2023-08-30T10:22:32Z</time>
      </trkpt>
      <trkpt lat="46.62653" lon="5.5498">
        <ele>405</ele>
        <time>2023-08-30T10:22:33Z</time>
      </trkpt>
      <trkpt lat="46.62652" lon="5.5498">
        <ele>405.2</ele>
        <time>2023-08-30T10:22:34Z</time>
      </trkpt>
      <trkpt lat="46.62648" lon="5.5498">
        <ele>405.2</ele>
        <time>2023-08-30T10:22:35Z</time>
      </trkpt>
      <trkpt lat="46.62647" lon="5.5498">
        <ele>405.2</ele>
        <time>2023-08-30T10:22:36Z</time>
      </trkpt>
      <trkpt lat="46.62645" lon="5.5498">
        <ele>406</ele>
        <time>2023-08-30T10:22:37Z</time>
      </trkpt>
      <trkpt lat="46.62642" lon="5.5498">
        <ele>406</ele>
        <time>2023-08-30T10:22:38Z</time>
      </trkpt>
      <trkpt lat="46.6264" lon="5.54979">
        <ele>405.8</ele>
        <time>2023-08-30T10:22:39Z</time>
      </trkpt>
      <trkpt lat="46.62637" lon="5.54979">
        <ele>405.8</ele>
        <time>2023-08-30T10:22:40Z</time>
      </trkpt>
      <trkpt lat="46.62635" lon="5.54979">
        <ele>405.8</ele>
        <time>2023-08-30T10:22:41Z</time>
      </trkpt>
      <trkpt lat="46.62632" lon="5.54979">
        <ele>406.6</ele>
        <time>2023-08-30T10:22:42Z</time>
      </trkpt>
      <trkpt lat="46.6263" lon="5.5498">
        <ele>406.8</ele>
        <time>2023-08-30T10:22:43Z</time>
      </trkpt>
      <trkpt lat="46.62628" lon="5.5498">
        <ele>406.8</ele>
        <time>2023-08-30T10:22:44Z</time>
      </trkpt>
      <trkpt lat="46.62626" lon="5.5498">
        <ele>406.8</ele>
        <time>2023-08-30T10:22:45Z</time>
      </trkpt>
      <trkpt lat="46.62623" lon="5.54981">
        <ele>407.4</ele>
        <time>2023-08-30T10:22:46Z</time>
      </trkpt>
      <trkpt lat="46.62621" lon="5.54981">
        <ele>407.6</ele>
        <time>2023-08-30T10:22:47Z</time>
      </trkpt>
      <trkpt lat="46.62619" lon="5.54982">
        <ele>407.6</ele>
        <time>2023-08-30T10:22:48Z</time>
      </trkpt>
      <trkpt lat="46.62616" lon="5.54982">
        <ele>407.6</ele>
        <time>2023-08-30T10:22:49Z</time>
      </trkpt>
      <trkpt lat="46.62614" lon="5.54983">
        <ele>407.6</ele>
        <time>2023-08-30T10:22:50Z</time>
      </trkpt>
      <trkpt lat="46.62612" lon="5.54984">
        <ele>408</ele>
        <time>2023-08-30T10:22:51Z</time>
      </trkpt>
      <trkpt lat="46.6261" lon="5.54984">
        <ele>408</ele>
        <time>2023-08-30T10:22:52Z</time>
      </trkpt>
      <trkpt lat="46.62607" lon="5.54985">
        <ele>408.2</ele>
        <time>2023-08-30T10:22:53Z</time>
      </trkpt>
      <trkpt lat="46.62605" lon="5.54986">
        <ele>408.2</ele>
        <time>2023-08-30T10:22:54Z</time>
      </trkpt>
      <trkpt lat="46.62603" lon="5.54987">
        <ele>408.2</ele>
        <time>2023-08-30T10:22:55Z</time>
      </trkpt>
      <trkpt lat="46.62601" lon="5.54988">
        <ele>408.2</ele>
        <time>2023-08-30T10:22:56Z</time>
      </trkpt>
      <trkpt lat="46.62599" lon="5.5499">
        <ele>408.8</ele>
        <time>2023-08-30T10:22:57Z</time>
      </trkpt>
      <trkpt lat="46.62597" lon="5.54991">
        <ele>408.8</ele>
        <time>2023-08-30T10:22:58Z</time>
      </trkpt>
      <trkpt lat="46.62595" lon="5.54993">
        <ele>408.8</ele>
        <time>2023-08-30T10:22:59Z</time>
      </trkpt>
      <trkpt lat="46.62593" lon="5.54994">
        <ele>409.4</ele>
        <time>2023-08-30T10:23:00Z</time>
      </trkpt>
      <trkpt lat="46.62591" lon="5.54996">
        <ele>409.4</ele>
        <time>2023-08-30T10:23:01Z</time>
      </trkpt>
      <trkpt lat="46.62589" lon="5.54998">
        <ele>409.4</ele>
        <time>2023-08-30T10:23:02Z</time>
      </trkpt>
      <trkpt lat="46.62587" lon="5.55001">
        <ele>409.4</ele>
        <time>2023-08-30T10:23:03Z</time>
      </trkpt>
      <trkpt lat="46.62586" lon="5.55004">
        <ele>409.4</ele>
        <time>2023-08-30T10:23:04Z</time>
      </trkpt>
      <trkpt lat="46.62584" lon="5.55007">
        <ele>410.4</ele>
        <time>2023-08-30T10:23:05Z</time>
      </trkpt>
      <trkpt lat="46.62583" lon="5.55009">
        <ele>410.4</ele>
        <time>2023-08-30T10:23:06Z</time>
      </trkpt>
      <trkpt lat="46.62581" lon="5.55011">
        <ele>410.4</ele>
        <time>2023-08-30T10:23:07Z</time>
      </trkpt>
      <trkpt lat="46.62579" lon="5.55013">
        <ele>410.4</ele>
        <time>2023-08-30T10:23:08Z</time>
      </trkpt>
      <trkpt lat="46.62577" lon="5.55015">
        <ele>410.4</ele>
        <time>2023-08-30T10:23:09Z</time>
      </trkpt>
      <trkpt lat="46.62576" lon="5.55017">
        <ele>410.8</ele>
        <time>2023-08-30T10:23:10Z</time>
      </trkpt>
      <trkpt lat="46.62574" lon="5.5502">
        <ele>410.8</ele>
        <time>2023-08-30T10:23:11Z</time>
      </trkpt>
      <trkpt lat="46.62572" lon="5.55021">
        <ele>410.8</ele>
        <time>2023-08-30T10:23:12Z</time>
      </trkpt>
      <trkpt lat="46.6257" lon="5.55023">
        <ele>411.2</ele>
        <time>2023-08-30T10:23:13Z</time>
      </trkpt>
      <trkpt lat="46.62569" lon="5.55025">
        <ele>411.4</ele>
        <time>2023-08-30T10:23:14Z</time>
      </trkpt>
      <trkpt lat="46.62567" lon="5.55027">
        <ele>411.4</ele>
        <time>2023-08-30T10:23:15Z</time>
      </trkpt>
      <trkpt lat="46.62565" lon="5.55029">
        <ele>411.4</ele>
        <time>2023-08-30T10:23:16Z</time>
      </trkpt>
      <trkpt lat="46.62563" lon="5.55032">
        <ele>411.4</ele>
        <time>2023-08-30T10:23:17Z</time>
      </trkpt>
      <trkpt lat="46.62562" lon="5.55034">
        <ele>411.4</ele>
        <time>2023-08-30T10:23:18Z</time>
      </trkpt>
      <trkpt lat="46.6256" lon="5.55035">
        <ele>411.4</ele>
        <time>2023-08-30T10:23:19Z</time>
      </trkpt>
      <trkpt lat="46.62558" lon="5.55037">
        <ele>412.4</ele>
        <time>2023-08-30T10:23:20Z</time>
      </trkpt>
      <trkpt lat="46.62556" lon="5.55039">
        <ele>412.4</ele>
        <time>2023-08-30T10:23:21Z</time>
      </trkpt>
      <trkpt lat="46.62554" lon="5.5504">
        <ele>412.4</ele>
        <time>2023-08-30T10:23:22Z</time>
      </trkpt>
      <trkpt lat="46.62552" lon="5.55042">
        <ele>412.4</ele>
        <time>2023-08-30T10:23:23Z</time>
      </trkpt>
      <trkpt lat="46.6255" lon="5.55044">
        <ele>412.4</ele>
        <time>2023-08-30T10:23:24Z</time>
      </trkpt>
      <trkpt lat="46.62548" lon="5.55045">
        <ele>412.6</ele>
        <time>2023-08-30T10:23:25Z</time>
      </trkpt>
      <trkpt lat="46.62546" lon="5.55047">
        <ele>412.6</ele>
        <time>2023-08-30T10:23:26Z</time>
      </trkpt>
      <trkpt lat="46.62545" lon="5.55048">
        <ele>413.2</ele>
        <time>2023-08-30T10:23:27Z</time>
      </trkpt>
      <trkpt lat="46.62543" lon="5.5505">
        <ele>413.4</ele>
        <time>2023-08-30T10:23:28Z</time>
      </trkpt>
      <trkpt lat="46.62541" lon="5.55051">
        <ele>413.4</ele>
        <time>2023-08-30T10:23:29Z</time>
      </trkpt>
      <trkpt lat="46.62539" lon="5.55053">
        <ele>413.4</ele>
        <time>2023-08-30T10:23:30Z</time>
      </trkpt>
      <trkpt lat="46.62537" lon="5.55055">
        <ele>414.2</ele>
        <time>2023-08-30T10:23:31Z</time>
      </trkpt>
      <trkpt lat="46.62535" lon="5.55056">
        <ele>414.2</ele>
        <time>2023-08-30T10:23:32Z</time>
      </trkpt>
      <trkpt lat="46.62533" lon="5.55057">
        <ele>413.8</ele>
        <time>2023-08-30T10:23:33Z</time>
      </trkpt>
      <trkpt lat="46.62531" lon="5.55058">
        <ele>413.8</ele>
        <time>2023-08-30T10:23:34Z</time>
      </trkpt>
      <trkpt lat="46.62529" lon="5.5506">
        <ele>413.8</ele>
        <time>2023-08-30T10:23:35Z</time>
      </trkpt>
      <trkpt lat="46.62527" lon="5.55061">
        <ele>414.6</ele>
        <time>2023-08-30T10:23:36Z</time>
      </trkpt>
      <trkpt lat="46.62524" lon="5.55062">
        <ele>414.6</ele>
        <time>2023-08-30T10:23:37Z</time>
      </trkpt>
      <trkpt lat="46.62522" lon="5.55063">
        <ele>414.6</ele>
        <time>2023-08-30T10:23:38Z</time>
      </trkpt>
      <trkpt lat="46.62519" lon="5.55064">
        <ele>414.8</ele>
        <time>2023-08-30T10:23:39Z</time>
      </trkpt>
      <trkpt lat="46.62516" lon="5.55064">
        <ele>414.8</ele>
        <time>2023-08-30T10:23:40Z</time>
      </trkpt>
      <trkpt lat="46.62514" lon="5.55065">
        <ele>415.2</ele>
        <time>2023-08-30T10:23:41Z</time>
      </trkpt>
      <trkpt lat="46.62512" lon="5.55066">
        <ele>415.2</ele>
        <time>2023-08-30T10:23:42Z</time>
      </trkpt>
      <trkpt lat="46.6251" lon="5.55067">
        <ele>415.4</ele>
        <time>2023-08-30T10:23:43Z</time>
      </trkpt>
      <trkpt lat="46.62507" lon="5.55067">
        <ele>415.4</ele>
        <time>2023-08-30T10:23:44Z</time>
      </trkpt>
      <trkpt lat="46.62505" lon="5.55068">
        <ele>415.4</ele>
        <time>2023-08-30T10:23:45Z</time>
      </trkpt>
      <trkpt lat="46.62502" lon="5.55069">
        <ele>415.6</ele>
        <time>2023-08-30T10:23:46Z</time>
      </trkpt>
      <trkpt lat="46.625" lon="5.5507">
        <ele>415.8</ele>
        <time>2023-08-30T10:23:47Z</time>
      </trkpt>
      <trkpt lat="46.62498" lon="5.55071">
        <ele>415.8</ele>
        <time>2023-08-30T10:23:48Z</time>
      </trkpt>
      <trkpt lat="46.62496" lon="5.55072">
        <ele>415.8</ele>
        <time>2023-08-30T10:23:49Z</time>
      </trkpt>
      <trkpt lat="46.62494" lon="5.55074">
        <ele>416</ele>
        <time>2023-08-30T10:23:50Z</time>
      </trkpt>
      <trkpt lat="46.62492" lon="5.55075">
        <ele>416.2</ele>
        <time>2023-08-30T10:23:51Z</time>
      </trkpt>
      <trkpt lat="46.6249" lon="5.55076">
        <ele>416.2</ele>
        <time>2023-08-30T10:23:52Z</time>
      </trkpt>
      <trkpt lat="46.62488" lon="5.55078">
        <ele>416.2</ele>
        <time>2023-08-30T10:23:53Z</time>
      </trkpt>
      <trkpt lat="46.62485" lon="5.55079">
        <ele>416.4</ele>
        <time>2023-08-30T10:23:54Z</time>
      </trkpt>
      <trkpt lat="46.62483" lon="5.55081">
        <ele>416.4</ele>
        <time>2023-08-30T10:23:55Z</time>
      </trkpt>
      <trkpt lat="46.62482" lon="5.55083">
        <ele>416.4</ele>
        <time>2023-08-30T10:23:56Z</time>
      </trkpt>
      <trkpt lat="46.6248" lon="5.55085">
        <ele>416.4</ele>
        <time>2023-08-30T10:23:57Z</time>
      </trkpt>
      <trkpt lat="46.62479" lon="5.55087">
        <ele>416.4</ele>
        <time>2023-08-30T10:23:58Z</time>
      </trkpt>
      <trkpt lat="46.62477" lon="5.5509">
        <ele>416.4</ele>
        <time>2023-08-30T10:23:59Z</time>
      </trkpt>
      <trkpt lat="46.62476" lon="5.55092">
        <ele>416.6</ele>
        <time>2023-08-30T10:24:00Z</time>
      </trkpt>
      <trkpt lat="46.62474" lon="5.55095">
        <ele>416.8</ele>
        <time>2023-08-30T10:24:01Z</time>
      </trkpt>
      <trkpt lat="46.62473" lon="5.55098">
        <ele>416.8</ele>
        <time>2023-08-30T10:24:02Z</time>
      </trkpt>
      <trkpt lat="46.62471" lon="5.551">
        <ele>416.8</ele>
        <time>2023-08-30T10:24:03Z</time>
      </trkpt>
      <trkpt lat="46.62469" lon="5.55103">
        <ele>417</ele>
        <time>2023-08-30T10:24:04Z</time>
      </trkpt>
      <trkpt lat="46.62468" lon="5.55105">
        <ele>417</ele>
        <time>2023-08-30T10:24:05Z</time>
      </trkpt>
      <trkpt lat="46.62467" lon="5.55107">
        <ele>417</ele>
        <time>2023-08-30T10:24:06Z</time>
      </trkpt>
      <trkpt lat="46.62465" lon="5.5511">
        <ele>417</ele>
        <time>2023-08-30T10:24:07Z</time>
      </trkpt>
      <trkpt lat="46.62463" lon="5.55112">
        <ele>417.2</ele>
        <time>2023-08-30T10:24:08Z</time>
      </trkpt>
      <trkpt lat="46.62461" lon="5.55114">
        <ele>417.6</ele>
        <time>2023-08-30T10:24:09Z</time>
      </trkpt>
      <trkpt lat="46.6246" lon="5.55116">
        <ele>417.6</ele>
        <time>2023-08-30T10:24:10Z</time>
      </trkpt>
      <trkpt lat="46.62458" lon="5.55118">
        <ele>417.6</ele>
        <time>2023-08-30T10:24:11Z</time>
      </trkpt>
      <trkpt lat="46.62456" lon="5.55121">
        <ele>417.6</ele>
        <time>2023-08-30T10:24:12Z</time>
      </trkpt>
      <trkpt lat="46.62455" lon="5.55123">
        <ele>417.8</ele>
        <time>2023-08-30T10:24:13Z</time>
      </trkpt>
      <trkpt lat="46.62453" lon="5.55124">
        <ele>417.8</ele>
        <time>2023-08-30T10:24:14Z</time>
      </trkpt>
      <trkpt lat="46.6245" lon="5.55126">
        <ele>417.8</ele>
        <time>2023-08-30T10:24:15Z</time>
      </trkpt>
      <trkpt lat="46.62448" lon="5.55127">
        <ele>417.8</ele>
        <time>2023-08-30T10:24:16Z</time>
      </trkpt>
      <trkpt lat="46.62447" lon="5.55129">
        <ele>418.4</ele>
        <time>2023-08-30T10:24:17Z</time>
      </trkpt>
      <trkpt lat="46.62445" lon="5.55131">
        <ele>418.4</ele>
        <time>2023-08-30T10:24:18Z</time>
      </trkpt>
      <trkpt lat="46.62443" lon="5.55133">
        <ele>418.4</ele>
        <time>2023-08-30T10:24:19Z</time>
      </trkpt>
      <trkpt lat="46.62441" lon="5.55134">
        <ele>418.4</ele>
        <time>2023-08-30T10:24:20Z</time>
      </trkpt>
      <trkpt lat="46.62439" lon="5.55136">
        <ele>418.4</ele>
        <time>2023-08-30T10:24:21Z</time>
      </trkpt>
      <trkpt lat="46.62437" lon="5.55138">
        <ele>418.8</ele>
        <time>2023-08-30T10:24:22Z</time>
      </trkpt>
      <trkpt lat="46.62435" lon="5.55139">
        <ele>419.2</ele>
        <time>2023-08-30T10:24:23Z</time>
      </trkpt>
      <trkpt lat="46.62432" lon="5.55141">
        <ele>419.2</ele>
        <time>2023-08-30T10:24:24Z</time>
      </trkpt>
      <trkpt lat="46.62431" lon="5.55142">
        <ele>419.2</ele>
        <time>2023-08-30T10:24:25Z</time>
      </trkpt>
      <trkpt lat="46.62427" lon="5.55144">
        <ele>419.2</ele>
        <time>2023-08-30T10:24:26Z</time>
      </trkpt>
      <trkpt lat="46.62426" lon="5.55144">
        <ele>419.2</ele>
        <time>2023-08-30T10:24:27Z</time>
      </trkpt>
      <trkpt lat="46.62423" lon="5.55146">
        <ele>419.6</ele>
        <time>2023-08-30T10:24:28Z</time>
      </trkpt>
      <trkpt lat="46.62422" lon="5.55147">
        <ele>419.6</ele>
        <time>2023-08-30T10:24:29Z</time>
      </trkpt>
      <trkpt lat="46.6242" lon="5.55149">
        <ele>419.6</ele>
        <time>2023-08-30T10:24:30Z</time>
      </trkpt>
      <trkpt lat="46.62418" lon="5.55149">
        <ele>420.4</ele>
        <time>2023-08-30T10:24:31Z</time>
      </trkpt>
      <trkpt lat="46.62416" lon="5.5515">
        <ele>420.6</ele>
        <time>2023-08-30T10:24:32Z</time>
      </trkpt>
      <trkpt lat="46.62414" lon="5.5515">
        <ele>420.6</ele>
        <time>2023-08-30T10:24:33Z</time>
      </trkpt>
      <trkpt lat="46.62411" lon="5.55151">
        <ele>420.6</ele>
        <time>2023-08-30T10:24:34Z</time>
      </trkpt>
      <trkpt lat="46.62409" lon="5.55152">
        <ele>421.2</ele>
        <time>2023-08-30T10:24:35Z</time>
      </trkpt>
      <trkpt lat="46.62407" lon="5.55152">
        <ele>421.4</ele>
        <time>2023-08-30T10:24:36Z</time>
      </trkpt>
      <trkpt lat="46.62405" lon="5.55152">
        <ele>421.4</ele>
        <time>2023-08-30T10:24:37Z</time>
      </trkpt>
      <trkpt lat="46.62403" lon="5.55151">
        <ele>421.4</ele>
        <time>2023-08-30T10:24:38Z</time>
      </trkpt>
      <trkpt lat="46.624" lon="5.55151">
        <ele>421.4</ele>
        <time>2023-08-30T10:24:39Z</time>
      </trkpt>
      <trkpt lat="46.62399" lon="5.55151">
        <ele>422</ele>
        <time>2023-08-30T10:24:40Z</time>
      </trkpt>
      <trkpt lat="46.62396" lon="5.55151">
        <ele>421.8</ele>
        <time>2023-08-30T10:24:41Z</time>
      </trkpt>
      <trkpt lat="46.62393" lon="5.55151">
        <ele>421.8</ele>
        <time>2023-08-30T10:24:42Z</time>
      </trkpt>
      <trkpt lat="46.6239" lon="5.5515">
        <ele>421.8</ele>
        <time>2023-08-30T10:24:43Z</time>
      </trkpt>
      <trkpt lat="46.62387" lon="5.5515">
        <ele>422.6</ele>
        <time>2023-08-30T10:24:44Z</time>
      </trkpt>
      <trkpt lat="46.62384" lon="5.55149">
        <ele>422.6</ele>
        <time>2023-08-30T10:24:45Z</time>
      </trkpt>
      <trkpt lat="46.62381" lon="5.55148">
        <ele>423</ele>
        <time>2023-08-30T10:24:46Z</time>
      </trkpt>
      <trkpt lat="46.62379" lon="5.55147">
        <ele>423</ele>
        <time>2023-08-30T10:24:47Z</time>
      </trkpt>
      <trkpt lat="46.62376" lon="5.55147">
        <ele>423</ele>
        <time>2023-08-30T10:24:48Z</time>
      </trkpt>
      <trkpt lat="46.62373" lon="5.55146">
        <ele>423.8</ele>
        <time>2023-08-30T10:24:49Z</time>
      </trkpt>
      <trkpt lat="46.62371" lon="5.55144">
        <ele>424</ele>
        <time>2023-08-30T10:24:50Z</time>
      </trkpt>
      <trkpt lat="46.62369" lon="5.55143">
        <ele>424</ele>
        <time>2023-08-30T10:24:51Z</time>
      </trkpt>
      <trkpt lat="46.62367" lon="5.55142">
        <ele>424</ele>
        <time>2023-08-30T10:24:52Z</time>
      </trkpt>
      <trkpt lat="46.62365" lon="5.55141">
        <ele>424</ele>
        <time>2023-08-30T10:24:53Z</time>
      </trkpt>
      <trkpt lat="46.62363" lon="5.5514">
        <ele>425</ele>
        <time>2023-08-30T10:24:54Z</time>
      </trkpt>
      <trkpt lat="46.6236" lon="5.55139">
        <ele>425</ele>
        <time>2023-08-30T10:24:55Z</time>
      </trkpt>
      <trkpt lat="46.62358" lon="5.55138">
        <ele>425.2</ele>
        <time>2023-08-30T10:24:56Z</time>
      </trkpt>
      <trkpt lat="46.62355" lon="5.55136">
        <ele>425.2</ele>
        <time>2023-08-30T10:24:57Z</time>
      </trkpt>
      <trkpt lat="46.62353" lon="5.55135">
        <ele>425.8</ele>
        <time>2023-08-30T10:24:58Z</time>
      </trkpt>
      <trkpt lat="46.62351" lon="5.55133">
        <ele>426</ele>
        <time>2023-08-30T10:24:59Z</time>
      </trkpt>
      <trkpt lat="46.62349" lon="5.55132">
        <ele>426</ele>
        <time>2023-08-30T10:25:00Z</time>
      </trkpt>
      <trkpt lat="46.62347" lon="5.5513">
        <ele>426</ele>
        <time>2023-08-30T10:25:01Z</time>
      </trkpt>
      <trkpt lat="46.62345" lon="5.55127">
        <ele>426</ele>
        <time>2023-08-30T10:25:02Z</time>
      </trkpt>
      <trkpt lat="46.62343" lon="5.55125">
        <ele>426.6</ele>
        <time>2023-08-30T10:25:03Z</time>
      </trkpt>
      <trkpt lat="46.62341" lon="5.55123">
        <ele>426.8</ele>
        <time>2023-08-30T10:25:04Z</time>
      </trkpt>
      <trkpt lat="46.62338" lon="5.55119">
        <ele>426.8</ele>
        <time>2023-08-30T10:25:05Z</time>
      </trkpt>
      <trkpt lat="46.62338" lon="5.55117">
        <ele>426.8</ele>
        <time>2023-08-30T10:25:06Z</time>
      </trkpt>
      <trkpt lat="46.62335" lon="5.55112">
        <ele>426.8</ele>
        <time>2023-08-30T10:25:07Z</time>
      </trkpt>
      <trkpt lat="46.62334" lon="5.55111">
        <ele>427.6</ele>
        <time>2023-08-30T10:25:08Z</time>
      </trkpt>
      <trkpt lat="46.62332" lon="5.55106">
        <ele>427.6</ele>
        <time>2023-08-30T10:25:09Z</time>
      </trkpt>
      <trkpt lat="46.62331" lon="5.55104">
        <ele>427.6</ele>
        <time>2023-08-30T10:25:10Z</time>
      </trkpt>
      <trkpt lat="46.6233" lon="5.551">
        <ele>428</ele>
        <time>2023-08-30T10:25:11Z</time>
      </trkpt>
      <trkpt lat="46.62329" lon="5.55098">
        <ele>428.2</ele>
        <time>2023-08-30T10:25:12Z</time>
      </trkpt>
      <trkpt lat="46.62327" lon="5.55094">
        <ele>428.2</ele>
        <time>2023-08-30T10:25:13Z</time>
      </trkpt>
      <trkpt lat="46.62326" lon="5.55093">
        <ele>428.2</ele>
        <time>2023-08-30T10:25:14Z</time>
      </trkpt>
      <trkpt lat="46.62325" lon="5.55092">
        <ele>428.8</ele>
        <time>2023-08-30T10:25:15Z</time>
      </trkpt>
      <trkpt lat="46.62323" lon="5.5509">
        <ele>428.8</ele>
        <time>2023-08-30T10:25:16Z</time>
      </trkpt>
      <trkpt lat="46.62321" lon="5.55088">
        <ele>429</ele>
        <time>2023-08-30T10:25:17Z</time>
      </trkpt>
      <trkpt lat="46.62319" lon="5.55086">
        <ele>429</ele>
        <time>2023-08-30T10:25:18Z</time>
      </trkpt>
      <trkpt lat="46.62317" lon="5.55085">
        <ele>429</ele>
        <time>2023-08-30T10:25:19Z</time>
      </trkpt>
      <trkpt lat="46.62315" lon="5.55083">
        <ele>429.6</ele>
        <time>2023-08-30T10:25:20Z</time>
      </trkpt>
      <trkpt lat="46.62313" lon="5.55081">
        <ele>429.8</ele>
        <time>2023-08-30T10:25:21Z</time>
      </trkpt>
      <trkpt lat="46.62311" lon="5.5508">
        <ele>429.8</ele>
        <time>2023-08-30T10:25:22Z</time>
      </trkpt>
      <trkpt lat="46.62309" lon="5.55079">
        <ele>429.8</ele>
        <time>2023-08-30T10:25:23Z</time>
      </trkpt>
      <trkpt lat="46.62307" lon="5.55078">
        <ele>430.4</ele>
        <time>2023-08-30T10:25:24Z</time>
      </trkpt>
      <trkpt lat="46.62305" lon="5.55078">
        <ele>430.4</ele>
        <time>2023-08-30T10:25:25Z</time>
      </trkpt>
      <trkpt lat="46.62303" lon="5.55077">
        <ele>430.4</ele>
        <time>2023-08-30T10:25:26Z</time>
      </trkpt>
      <trkpt lat="46.62301" lon="5.55077">
        <ele>430.4</ele>
        <time>2023-08-30T10:25:27Z</time>
      </trkpt>
      <trkpt lat="46.62298" lon="5.55077">
        <ele>430.4</ele>
        <time>2023-08-30T10:25:28Z</time>
      </trkpt>
      <trkpt lat="46.62296" lon="5.55078">
        <ele>430.4</ele>
        <time>2023-08-30T10:25:29Z</time>
      </trkpt>
      <trkpt lat="46.62295" lon="5.55078">
        <ele>430.4</ele>
        <time>2023-08-30T10:25:30Z</time>
      </trkpt>
      <trkpt lat="46.62293" lon="5.55079">
        <ele>431.4</ele>
        <time>2023-08-30T10:25:31Z</time>
      </trkpt>
      <trkpt lat="46.62291" lon="5.5508">
        <ele>431.4</ele>
        <time>2023-08-30T10:25:32Z</time>
      </trkpt>
      <trkpt lat="46.62289" lon="5.55081">
        <ele>431.4</ele>
        <time>2023-08-30T10:25:33Z</time>
      </trkpt>
      <trkpt lat="46.62287" lon="5.55082">
        <ele>432</ele>
        <time>2023-08-30T10:25:34Z</time>
      </trkpt>
      <trkpt lat="46.62285" lon="5.55083">
        <ele>432</ele>
        <time>2023-08-30T10:25:35Z</time>
      </trkpt>
      <trkpt lat="46.62283" lon="5.55085">
        <ele>432</ele>
        <time>2023-08-30T10:25:36Z</time>
      </trkpt>
      <trkpt lat="46.62282" lon="5.55086">
        <ele>432</ele>
        <time>2023-08-30T10:25:37Z</time>
      </trkpt>
      <trkpt lat="46.6228" lon="5.55088">
        <ele>432</ele>
        <time>2023-08-30T10:25:38Z</time>
      </trkpt>
      <trkpt lat="46.62278" lon="5.5509">
        <ele>432.6</ele>
        <time>2023-08-30T10:25:39Z</time>
      </trkpt>
      <trkpt lat="46.62276" lon="5.55092">
        <ele>433</ele>
        <time>2023-08-30T10:25:40Z</time>
      </trkpt>
      <trkpt lat="46.62274" lon="5.55093">
        <ele>433</ele>
        <time>2023-08-30T10:25:41Z</time>
      </trkpt>
      <trkpt lat="46.62272" lon="5.55095">
        <ele>433</ele>
        <time>2023-08-30T10:25:42Z</time>
      </trkpt>
      <trkpt lat="46.6227" lon="5.55097">
        <ele>433</ele>
        <time>2023-08-30T10:25:43Z</time>
      </trkpt>
      <trkpt lat="46.62269" lon="5.55098">
        <ele>433.6</ele>
        <time>2023-08-30T10:25:44Z</time>
      </trkpt>
      <trkpt lat="46.62268" lon="5.551">
        <ele>433.6</ele>
        <time>2023-08-30T10:25:45Z</time>
      </trkpt>
      <trkpt lat="46.62266" lon="5.55101">
        <ele>433.6</ele>
        <time>2023-08-30T10:25:46Z</time>
      </trkpt>
      <trkpt lat="46.62264" lon="5.55102">
        <ele>433.6</ele>
        <time>2023-08-30T10:25:47Z</time>
      </trkpt>
      <trkpt lat="46.62262" lon="5.55104">
        <ele>434.4</ele>
        <time>2023-08-30T10:25:48Z</time>
      </trkpt>
      <trkpt lat="46.62261" lon="5.55105">
        <ele>434.4</ele>
        <time>2023-08-30T10:25:49Z</time>
      </trkpt>
      <trkpt lat="46.62259" lon="5.55107">
        <ele>434.4</ele>
        <time>2023-08-30T10:25:50Z</time>
      </trkpt>
      <trkpt lat="46.62257" lon="5.55108">
        <ele>434.4</ele>
        <time>2023-08-30T10:25:51Z</time>
      </trkpt>
      <trkpt lat="46.62255" lon="5.5511">
        <ele>434.8</ele>
        <time>2023-08-30T10:25:52Z</time>
      </trkpt>
      <trkpt lat="46.62253" lon="5.55111">
        <ele>435</ele>
        <time>2023-08-30T10:25:53Z</time>
      </trkpt>
      <trkpt lat="46.62251" lon="5.55113">
        <ele>435</ele>
        <time>2023-08-30T10:25:54Z</time>
      </trkpt>
      <trkpt lat="46.62249" lon="5.55115">
        <ele>435</ele>
        <time>2023-08-30T10:25:55Z</time>
      </trkpt>
      <trkpt lat="46.62248" lon="5.55116">
        <ele>435.4</ele>
        <time>2023-08-30T10:25:56Z</time>
      </trkpt>
      <trkpt lat="46.62247" lon="5.55117">
        <ele>435.8</ele>
        <time>2023-08-30T10:25:57Z</time>
      </trkpt>
      <trkpt lat="46.62245" lon="5.55118">
        <ele>435.8</ele>
        <time>2023-08-30T10:25:58Z</time>
      </trkpt>
      <trkpt lat="46.62243" lon="5.55119">
        <ele>435.8</ele>
        <time>2023-08-30T10:25:59Z</time>
      </trkpt>
      <trkpt lat="46.62241" lon="5.55119">
        <ele>435.8</ele>
        <time>2023-08-30T10:26:00Z</time>
      </trkpt>
      <trkpt lat="46.62239" lon="5.5512">
        <ele>436.2</ele>
        <time>2023-08-30T10:26:01Z</time>
      </trkpt>
      <trkpt lat="46.62237" lon="5.55121">
        <ele>436.4</ele>
        <time>2023-08-30T10:26:02Z</time>
      </trkpt>
      <trkpt lat="46.62235" lon="5.55121">
        <ele>436.4</ele>
        <time>2023-08-30T10:26:03Z</time>
      </trkpt>
      <trkpt lat="46.62233" lon="5.55121">
        <ele>436.4</ele>
        <time>2023-08-30T10:26:04Z</time>
      </trkpt>
      <trkpt lat="46.62231" lon="5.55122">
        <ele>436.8</ele>
        <time>2023-08-30T10:26:05Z</time>
      </trkpt>
      <trkpt lat="46.62229" lon="5.55122">
        <ele>437</ele>
        <time>2023-08-30T10:26:06Z</time>
      </trkpt>
      <trkpt lat="46.62226" lon="5.55122">
        <ele>437</ele>
        <time>2023-08-30T10:26:07Z</time>
      </trkpt>
      <trkpt lat="46.62224" lon="5.55123">
        <ele>437</ele>
        <time>2023-08-30T10:26:08Z</time>
      </trkpt>
      <trkpt lat="46.62222" lon="5.55123">
        <ele>437</ele>
        <time>2023-08-30T10:26:09Z</time>
      </trkpt>
      <trkpt lat="46.62219" lon="5.55123">
        <ele>437.6</ele>
        <time>2023-08-30T10:26:10Z</time>
      </trkpt>
      <trkpt lat="46.62218" lon="5.55123">
        <ele>437.6</ele>
        <time>2023-08-30T10:26:11Z</time>
      </trkpt>
      <trkpt lat="46.62216" lon="5.55124">
        <ele>437.6</ele>
        <time>2023-08-30T10:26:12Z</time>
      </trkpt>
      <trkpt lat="46.62214" lon="5.55124">
        <ele>437.6</ele>
        <time>2023-08-30T10:26:13Z</time>
      </trkpt>
      <trkpt lat="46.62212" lon="5.55124">
        <ele>437.6</ele>
        <time>2023-08-30T10:26:14Z</time>
      </trkpt>
      <trkpt lat="46.6221" lon="5.55124">
        <ele>438.4</ele>
        <time>2023-08-30T10:26:15Z</time>
      </trkpt>
      <trkpt lat="46.62208" lon="5.55125">
        <ele>438.4</ele>
        <time>2023-08-30T10:26:16Z</time>
      </trkpt>
      <trkpt lat="46.62206" lon="5.55125">
        <ele>438.4</ele>
        <time>2023-08-30T10:26:17Z</time>
      </trkpt>
      <trkpt lat="46.62205" lon="5.55125">
        <ele>438.4</ele>
        <time>2023-08-30T10:26:18Z</time>
      </trkpt>
      <trkpt lat="46.62203" lon="5.55126">
        <ele>438.8</ele>
        <time>2023-08-30T10:26:19Z</time>
      </trkpt>
      <trkpt lat="46.62201" lon="5.55126">
        <ele>439</ele>
        <time>2023-08-30T10:26:20Z</time>
      </trkpt>
      <trkpt lat="46.622" lon="5.55126">
        <ele>439</ele>
        <time>2023-08-30T10:26:21Z</time>
      </trkpt>
      <trkpt lat="46.62198" lon="5.55127">
        <ele>439</ele>
        <time>2023-08-30T10:26:22Z</time>
      </trkpt>
      <trkpt lat="46.62197" lon="5.55127">
        <ele>439.8</ele>
        <time>2023-08-30T10:26:23Z</time>
      </trkpt>
      <trkpt lat="46.62195" lon="5.55126">
        <ele>439.8</ele>
        <time>2023-08-30T10:26:24Z</time>
      </trkpt>
      <trkpt lat="46.62193" lon="5.55127">
        <ele>439.8</ele>
        <time>2023-08-30T10:26:25Z</time>
      </trkpt>
      <trkpt lat="46.62191" lon="5.55127">
        <ele>439.8</ele>
        <time>2023-08-30T10:26:26Z</time>
      </trkpt>
      <trkpt lat="46.62189" lon="5.55127">
        <ele>439.8</ele>
        <time>2023-08-30T10:26:27Z</time>
      </trkpt>
      <trkpt lat="46.62187" lon="5.55127">
        <ele>440.2</ele>
        <time>2023-08-30T10:26:28Z</time>
      </trkpt>
      <trkpt lat="46.62185" lon="5.55128">
        <ele>440.4</ele>
        <time>2023-08-30T10:26:29Z</time>
      </trkpt>
      <trkpt lat="46.62184" lon="5.55128">
        <ele>440.4</ele>
        <time>2023-08-30T10:26:30Z</time>
      </trkpt>
      <trkpt lat="46.62182" lon="5.55128">
        <ele>440.4</ele>
        <time>2023-08-30T10:26:31Z</time>
      </trkpt>
      <trkpt lat="46.6218" lon="5.55128">
        <ele>441</ele>
        <time>2023-08-30T10:26:32Z</time>
      </trkpt>
      <trkpt lat="46.62178" lon="5.55128">
        <ele>441.2</ele>
        <time>2023-08-30T10:26:33Z</time>
      </trkpt>
      <trkpt lat="46.62175" lon="5.55129">
        <ele>441.2</ele>
        <time>2023-08-30T10:26:34Z</time>
      </trkpt>
      <trkpt lat="46.62175" lon="5.55129">
        <ele>441.2</ele>
        <time>2023-08-30T10:26:35Z</time>
      </trkpt>
      <trkpt lat="46.62173" lon="5.55129">
        <ele>441.2</ele>
        <time>2023-08-30T10:26:36Z</time>
      </trkpt>
      <trkpt lat="46.62171" lon="5.5513">
        <ele>441.4</ele>
        <time>2023-08-30T10:26:37Z</time>
      </trkpt>
      <trkpt lat="46.62169" lon="5.5513">
        <ele>441.6</ele>
        <time>2023-08-30T10:26:38Z</time>
      </trkpt>
      <trkpt lat="46.62168" lon="5.55131">
        <ele>441.6</ele>
        <time>2023-08-30T10:26:39Z</time>
      </trkpt>
      <trkpt lat="46.62166" lon="5.55131">
        <ele>441.6</ele>
        <time>2023-08-30T10:26:40Z</time>
      </trkpt>
      <trkpt lat="46.62164" lon="5.55132">
        <ele>442</ele>
        <time>2023-08-30T10:26:41Z</time>
      </trkpt>
      <trkpt lat="46.62162" lon="5.55132">
        <ele>442.2</ele>
        <time>2023-08-30T10:26:42Z</time>
      </trkpt>
      <trkpt lat="46.62161" lon="5.55133">
        <ele>442.2</ele>
        <time>2023-08-30T10:26:43Z</time>
      </trkpt>
      <trkpt lat="46.62159" lon="5.55134">
        <ele>442.2</ele>
        <time>2023-08-30T10:26:44Z</time>
      </trkpt>
      <trkpt lat="46.62158" lon="5.55134">
        <ele>442.4</ele>
        <time>2023-08-30T10:26:45Z</time>
      </trkpt>
      <trkpt lat="46.62156" lon="5.55134">
        <ele>442.6</ele>
        <time>2023-08-30T10:26:46Z</time>
      </trkpt>
      <trkpt lat="46.62154" lon="5.55134">
        <ele>442.6</ele>
        <time>2023-08-30T10:26:47Z</time>
      </trkpt>
      <trkpt lat="46.62153" lon="5.55134">
        <ele>442.6</ele>
        <time>2023-08-30T10:26:48Z</time>
      </trkpt>
      <trkpt lat="46.62151" lon="5.55134">
        <ele>442.6</ele>
        <time>2023-08-30T10:26:49Z</time>
      </trkpt>
      <trkpt lat="46.62149" lon="5.55134">
        <ele>442.6</ele>
        <time>2023-08-30T10:26:50Z</time>
      </trkpt>
      <trkpt lat="46.62147" lon="5.55134">
        <ele>442.8</ele>
        <time>2023-08-30T10:26:51Z</time>
      </trkpt>
      <trkpt lat="46.62146" lon="5.55135">
        <ele>442.8</ele>
        <time>2023-08-30T10:26:52Z</time>
      </trkpt>
      <trkpt lat="46.62145" lon="5.55135">
        <ele>442.8</ele>
        <time>2023-08-30T10:26:53Z</time>
      </trkpt>
      <trkpt lat="46.62145" lon="5.55135">
        <ele>442.8</ele>
        <time>2023-08-30T10:26:54Z</time>
      </trkpt>
      <trkpt lat="46.62145" lon="5.55138">
        <ele>443.2</ele>
        <time>2023-08-30T10:27:25Z</time>
      </trkpt>
      <trkpt lat="46.62145" lon="5.55139">
        <ele>443</ele>
        <time>2023-08-30T10:27:26Z</time>
      </trkpt>
      <trkpt lat="46.62144" lon="5.5514">
        <ele>443</ele>
        <time>2023-08-30T10:27:27Z</time>
      </trkpt>
      <trkpt lat="46.62142" lon="5.5514">
        <ele>443</ele>
        <time>2023-08-30T10:27:28Z</time>
      </trkpt>
      <trkpt lat="46.62141" lon="5.5514">
        <ele>443.4</ele>
        <time>2023-08-30T10:27:29Z</time>
      </trkpt>
      <trkpt lat="46.62139" lon="5.5514">
        <ele>443.6</ele>
        <time>2023-08-30T10:27:30Z</time>
      </trkpt>
      <trkpt lat="46.62137" lon="5.55141">
        <ele>443.6</ele>
        <time>2023-08-30T10:27:31Z</time>
      </trkpt>
      <trkpt lat="46.62135" lon="5.55141">
        <ele>443.6</ele>
        <time>2023-08-30T10:27:32Z</time>
      </trkpt>
      <trkpt lat="46.62134" lon="5.55142">
        <ele>443.6</ele>
        <time>2023-08-30T10:27:33Z</time>
      </trkpt>
      <trkpt lat="46.62132" lon="5.55142">
        <ele>443.6</ele>
        <time>2023-08-30T10:27:34Z</time>
      </trkpt>
      <trkpt lat="46.6213" lon="5.55142">
        <ele>443.6</ele>
        <time>2023-08-30T10:27:35Z</time>
      </trkpt>
      <trkpt lat="46.62128" lon="5.55142">
        <ele>443.6</ele>
        <time>2023-08-30T10:27:36Z</time>
      </trkpt>
      <trkpt lat="46.62126" lon="5.55143">
        <ele>443.6</ele>
        <time>2023-08-30T10:27:37Z</time>
      </trkpt>
      <trkpt lat="46.62125" lon="5.55144">
        <ele>444</ele>
        <time>2023-08-30T10:27:38Z</time>
      </trkpt>
      <trkpt lat="46.62123" lon="5.55145">
        <ele>444</ele>
        <time>2023-08-30T10:27:39Z</time>
      </trkpt>
      <trkpt lat="46.62122" lon="5.55146">
        <ele>444</ele>
        <time>2023-08-30T10:27:40Z</time>
      </trkpt>
      <trkpt lat="46.6212" lon="5.55146">
        <ele>444</ele>
        <time>2023-08-30T10:27:41Z</time>
      </trkpt>
      <trkpt lat="46.62118" lon="5.55147">
        <ele>444.4</ele>
        <time>2023-08-30T10:27:42Z</time>
      </trkpt>
      <trkpt lat="46.62116" lon="5.55148">
        <ele>444.6</ele>
        <time>2023-08-30T10:27:43Z</time>
      </trkpt>
      <trkpt lat="46.62115" lon="5.55148">
        <ele>444.6</ele>
        <time>2023-08-30T10:27:44Z</time>
      </trkpt>
      <trkpt lat="46.62113" lon="5.55148">
        <ele>444.6</ele>
        <time>2023-08-30T10:27:45Z</time>
      </trkpt>
      <trkpt lat="46.62111" lon="5.55148">
        <ele>444.6</ele>
        <time>2023-08-30T10:27:46Z</time>
      </trkpt>
      <trkpt lat="46.62109" lon="5.55148">
        <ele>445</ele>
        <time>2023-08-30T10:27:47Z</time>
      </trkpt>
      <trkpt lat="46.62107" lon="5.55149">
        <ele>445</ele>
        <time>2023-08-30T10:27:48Z</time>
      </trkpt>
      <trkpt lat="46.62105" lon="5.55149">
        <ele>445</ele>
        <time>2023-08-30T10:27:49Z</time>
      </trkpt>
      <trkpt lat="46.62103" lon="5.55149">
        <ele>445</ele>
        <time>2023-08-30T10:27:50Z</time>
      </trkpt>
      <trkpt lat="46.62101" lon="5.55149">
        <ele>445.4</ele>
        <time>2023-08-30T10:27:51Z</time>
      </trkpt>
      <trkpt lat="46.62098" lon="5.55149">
        <ele>445.6</ele>
        <time>2023-08-30T10:27:52Z</time>
      </trkpt>
      <trkpt lat="46.62096" lon="5.55149">
        <ele>445.6</ele>
        <time>2023-08-30T10:27:53Z</time>
      </trkpt>
      <trkpt lat="46.62094" lon="5.5515">
        <ele>445.6</ele>
        <time>2023-08-30T10:27:54Z</time>
      </trkpt>
      <trkpt lat="46.62092" lon="5.5515">
        <ele>446</ele>
        <time>2023-08-30T10:27:55Z</time>
      </trkpt>
      <trkpt lat="46.6209" lon="5.55151">
        <ele>446</ele>
        <time>2023-08-30T10:27:56Z</time>
      </trkpt>
      <trkpt lat="46.62088" lon="5.55151">
        <ele>446</ele>
        <time>2023-08-30T10:27:57Z</time>
      </trkpt>
      <trkpt lat="46.62086" lon="5.55151">
        <ele>446</ele>
        <time>2023-08-30T10:27:58Z</time>
      </trkpt>
      <trkpt lat="46.62084" lon="5.55151">
        <ele>446</ele>
        <time>2023-08-30T10:27:59Z</time>
      </trkpt>
      <trkpt lat="46.62081" lon="5.55151">
        <ele>446</ele>
        <time>2023-08-30T10:28:00Z</time>
      </trkpt>
      <trkpt lat="46.62079" lon="5.55151">
        <ele>446.6</ele>
        <time>2023-08-30T10:28:01Z</time>
      </trkpt>
      <trkpt lat="46.62077" lon="5.55151">
        <ele>446.4</ele>
        <time>2023-08-30T10:28:02Z</time>
      </trkpt>
      <trkpt lat="46.62076" lon="5.55152">
        <ele>446.4</ele>
        <time>2023-08-30T10:28:03Z</time>
      </trkpt>
      <trkpt lat="46.62074" lon="5.55152">
        <ele>446.4</ele>
        <time>2023-08-30T10:28:04Z</time>
      </trkpt>
      <trkpt lat="46.62071" lon="5.55152">
        <ele>446.4</ele>
        <time>2023-08-30T10:28:05Z</time>
      </trkpt>
      <trkpt lat="46.62069" lon="5.55153">
        <ele>447.6</ele>
        <time>2023-08-30T10:28:06Z</time>
      </trkpt>
      <trkpt lat="46.62068" lon="5.55153">
        <ele>447.6</ele>
        <time>2023-08-30T10:28:07Z</time>
      </trkpt>
      <trkpt lat="46.62066" lon="5.55153">
        <ele>447.6</ele>
        <time>2023-08-30T10:28:08Z</time>
      </trkpt>
      <trkpt lat="46.62063" lon="5.55154">
        <ele>447.6</ele>
        <time>2023-08-30T10:28:09Z</time>
      </trkpt>
      <trkpt lat="46.62062" lon="5.55154">
        <ele>447.6</ele>
        <time>2023-08-30T10:28:10Z</time>
      </trkpt>
      <trkpt lat="46.62059" lon="5.55155">
        <ele>448</ele>
        <time>2023-08-30T10:28:11Z</time>
      </trkpt>
      <trkpt lat="46.62058" lon="5.55156">
        <ele>448</ele>
        <time>2023-08-30T10:28:12Z</time>
      </trkpt>
      <trkpt lat="46.62054" lon="5.55156">
        <ele>448</ele>
        <time>2023-08-30T10:28:13Z</time>
      </trkpt>
      <trkpt lat="46.62053" lon="5.55156">
        <ele>448.4</ele>
        <time>2023-08-30T10:28:14Z</time>
      </trkpt>
      <trkpt lat="46.6205" lon="5.55157">
        <ele>448.6</ele>
        <time>2023-08-30T10:28:15Z</time>
      </trkpt>
      <trkpt lat="46.62049" lon="5.55157">
        <ele>448.6</ele>
        <time>2023-08-30T10:28:16Z</time>
      </trkpt>
      <trkpt lat="46.62047" lon="5.55158">
        <ele>448.6</ele>
        <time>2023-08-30T10:28:17Z</time>
      </trkpt>
      <trkpt lat="46.62045" lon="5.55159">
        <ele>449.2</ele>
        <time>2023-08-30T10:28:18Z</time>
      </trkpt>
      <trkpt lat="46.62044" lon="5.5516">
        <ele>449.2</ele>
        <time>2023-08-30T10:28:19Z</time>
      </trkpt>
      <trkpt lat="46.62042" lon="5.55161">
        <ele>449.2</ele>
        <time>2023-08-30T10:28:20Z</time>
      </trkpt>
      <trkpt lat="46.6204" lon="5.55161">
        <ele>449.2</ele>
        <time>2023-08-30T10:28:21Z</time>
      </trkpt>
      <trkpt lat="46.62039" lon="5.55162">
        <ele>449.2</ele>
        <time>2023-08-30T10:28:22Z</time>
      </trkpt>
      <trkpt lat="46.62036" lon="5.55163">
        <ele>449.4</ele>
        <time>2023-08-30T10:28:23Z</time>
      </trkpt>
      <trkpt lat="46.62035" lon="5.55163">
        <ele>449.4</ele>
        <time>2023-08-30T10:28:24Z</time>
      </trkpt>
      <trkpt lat="46.62032" lon="5.55164">
        <ele>449.4</ele>
        <time>2023-08-30T10:28:25Z</time>
      </trkpt>
      <trkpt lat="46.62031" lon="5.55165">
        <ele>449.4</ele>
        <time>2023-08-30T10:28:26Z</time>
      </trkpt>
      <trkpt lat="46.62027" lon="5.55165">
        <ele>449.4</ele>
        <time>2023-08-30T10:28:27Z</time>
      </trkpt>
      <trkpt lat="46.62026" lon="5.55165">
        <ele>449.6</ele>
        <time>2023-08-30T10:28:28Z</time>
      </trkpt>
      <trkpt lat="46.62024" lon="5.55166">
        <ele>449.6</ele>
        <time>2023-08-30T10:28:29Z</time>
      </trkpt>
      <trkpt lat="46.62022" lon="5.55166">
        <ele>449.6</ele>
        <time>2023-08-30T10:28:30Z</time>
      </trkpt>
      <trkpt lat="46.6202" lon="5.55167">
        <ele>450.2</ele>
        <time>2023-08-30T10:28:31Z</time>
      </trkpt>
      <trkpt lat="46.62018" lon="5.55167">
        <ele>450.2</ele>
        <time>2023-08-30T10:28:32Z</time>
      </trkpt>
      <trkpt lat="46.62016" lon="5.55167">
        <ele>450.4</ele>
        <time>2023-08-30T10:28:33Z</time>
      </trkpt>
      <trkpt lat="46.62014" lon="5.55167">
        <ele>450.4</ele>
        <time>2023-08-30T10:28:34Z</time>
      </trkpt>
      <trkpt lat="46.62012" lon="5.55168">
        <ele>450.4</ele>
        <time>2023-08-30T10:28:35Z</time>
      </trkpt>
      <trkpt lat="46.6201" lon="5.55169">
        <ele>450.8</ele>
        <time>2023-08-30T10:28:36Z</time>
      </trkpt>
      <trkpt lat="46.62009" lon="5.55169">
        <ele>451.2</ele>
        <time>2023-08-30T10:28:37Z</time>
      </trkpt>
      <trkpt lat="46.62007" lon="5.5517">
        <ele>451.2</ele>
        <time>2023-08-30T10:28:38Z</time>
      </trkpt>
      <trkpt lat="46.62005" lon="5.55171">
        <ele>451.2</ele>
        <time>2023-08-30T10:28:39Z</time>
      </trkpt>
      <trkpt lat="46.62003" lon="5.55171">
        <ele>452</ele>
        <time>2023-08-30T10:28:40Z</time>
      </trkpt>
      <trkpt lat="46.62001" lon="5.55171">
        <ele>452</ele>
        <time>2023-08-30T10:28:41Z</time>
      </trkpt>
      <trkpt lat="46.61998" lon="5.55171">
        <ele>452</ele>
        <time>2023-08-30T10:28:42Z</time>
      </trkpt>
      <trkpt lat="46.61996" lon="5.55171">
        <ele>452</ele>
        <time>2023-08-30T10:28:43Z</time>
      </trkpt>
      <trkpt lat="46.61994" lon="5.55171">
        <ele>452</ele>
        <time>2023-08-30T10:28:44Z</time>
      </trkpt>
      <trkpt lat="46.61992" lon="5.55171">
        <ele>452.6</ele>
        <time>2023-08-30T10:28:45Z</time>
      </trkpt>
      <trkpt lat="46.6199" lon="5.55171">
        <ele>452.6</ele>
        <time>2023-08-30T10:28:46Z</time>
      </trkpt>
      <trkpt lat="46.61988" lon="5.55171">
        <ele>452.8</ele>
        <time>2023-08-30T10:28:47Z</time>
      </trkpt>
      <trkpt lat="46.61987" lon="5.55172">
        <ele>452.8</ele>
        <time>2023-08-30T10:28:48Z</time>
      </trkpt>
      <trkpt lat="46.61985" lon="5.55173">
        <ele>452.8</ele>
        <time>2023-08-30T10:28:49Z</time>
      </trkpt>
      <trkpt lat="46.61984" lon="5.55175">
        <ele>452.8</ele>
        <time>2023-08-30T10:28:50Z</time>
      </trkpt>
      <trkpt lat="46.61983" lon="5.55178">
        <ele>453.4</ele>
        <time>2023-08-30T10:28:51Z</time>
      </trkpt>
      <trkpt lat="46.61983" lon="5.55181">
        <ele>453.4</ele>
        <time>2023-08-30T10:28:52Z</time>
      </trkpt>
      <trkpt lat="46.61983" lon="5.55184">
        <ele>453.4</ele>
        <time>2023-08-30T10:28:53Z</time>
      </trkpt>
      <trkpt lat="46.61983" lon="5.55188">
        <ele>454.2</ele>
        <time>2023-08-30T10:28:54Z</time>
      </trkpt>
      <trkpt lat="46.61983" lon="5.55191">
        <ele>454.2</ele>
        <time>2023-08-30T10:28:55Z</time>
      </trkpt>
      <trkpt lat="46.61984" lon="5.55194">
        <ele>454.4</ele>
        <time>2023-08-30T10:28:56Z</time>
      </trkpt>
      <trkpt lat="46.61985" lon="5.55196">
        <ele>454.4</ele>
        <time>2023-08-30T10:28:57Z</time>
      </trkpt>
      <trkpt lat="46.61987" lon="5.55197">
        <ele>454.4</ele>
        <time>2023-08-30T10:28:58Z</time>
      </trkpt>
      <trkpt lat="46.61988" lon="5.55198">
        <ele>455.2</ele>
        <time>2023-08-30T10:28:59Z</time>
      </trkpt>
      <trkpt lat="46.6199" lon="5.55199">
        <ele>455.2</ele>
        <time>2023-08-30T10:29:00Z</time>
      </trkpt>
      <trkpt lat="46.61991" lon="5.55199">
        <ele>455.2</ele>
        <time>2023-08-30T10:29:01Z</time>
      </trkpt>
      <trkpt lat="46.61993" lon="5.552">
        <ele>455.2</ele>
        <time>2023-08-30T10:29:02Z</time>
      </trkpt>
      <trkpt lat="46.61995" lon="5.552">
        <ele>455.8</ele>
        <time>2023-08-30T10:29:03Z</time>
      </trkpt>
      <trkpt lat="46.61998" lon="5.552">
        <ele>456.2</ele>
        <time>2023-08-30T10:29:04Z</time>
      </trkpt>
      <trkpt lat="46.62" lon="5.552">
        <ele>456.2</ele>
        <time>2023-08-30T10:29:05Z</time>
      </trkpt>
      <trkpt lat="46.62002" lon="5.552">
        <ele>456.2</ele>
        <time>2023-08-30T10:29:06Z</time>
      </trkpt>
      <trkpt lat="46.62004" lon="5.55199">
        <ele>456.2</ele>
        <time>2023-08-30T10:29:07Z</time>
      </trkpt>
      <trkpt lat="46.62006" lon="5.55199">
        <ele>456.6</ele>
        <time>2023-08-30T10:29:08Z</time>
      </trkpt>
      <trkpt lat="46.62008" lon="5.55198">
        <ele>457</ele>
        <time>2023-08-30T10:29:09Z</time>
      </trkpt>
      <trkpt lat="46.62011" lon="5.55197">
        <ele>457</ele>
        <time>2023-08-30T10:29:10Z</time>
      </trkpt>
      <trkpt lat="46.62013" lon="5.55197">
        <ele>457</ele>
        <time>2023-08-30T10:29:11Z</time>
      </trkpt>
      <trkpt lat="46.62016" lon="5.55196">
        <ele>457.2</ele>
        <time>2023-08-30T10:29:12Z</time>
      </trkpt>
      <trkpt lat="46.62019" lon="5.55196">
        <ele>457.6</ele>
        <time>2023-08-30T10:29:13Z</time>
      </trkpt>
      <trkpt lat="46.62021" lon="5.55196">
        <ele>457.6</ele>
        <time>2023-08-30T10:29:14Z</time>
      </trkpt>
      <trkpt lat="46.62023" lon="5.55196">
        <ele>457.6</ele>
        <time>2023-08-30T10:29:15Z</time>
      </trkpt>
      <trkpt lat="46.62025" lon="5.55196">
        <ele>458</ele>
        <time>2023-08-30T10:29:16Z</time>
      </trkpt>
      <trkpt lat="46.62027" lon="5.55196">
        <ele>458.2</ele>
        <time>2023-08-30T10:29:17Z</time>
      </trkpt>
      <trkpt lat="46.62029" lon="5.55195">
        <ele>458.2</ele>
        <time>2023-08-30T10:29:18Z</time>
      </trkpt>
      <trkpt lat="46.62031" lon="5.55194">
        <ele>458.2</ele>
        <time>2023-08-30T10:29:19Z</time>
      </trkpt>
      <trkpt lat="46.62034" lon="5.55193">
        <ele>458.2</ele>
        <time>2023-08-30T10:29:20Z</time>
      </trkpt>
      <trkpt lat="46.62036" lon="5.55192">
        <ele>458.6</ele>
        <time>2023-08-30T10:29:21Z</time>
      </trkpt>
      <trkpt lat="46.62038" lon="5.55192">
        <ele>458.6</ele>
        <time>2023-08-30T10:29:22Z</time>
      </trkpt>
      <trkpt lat="46.6204" lon="5.55192">
        <ele>458.6</ele>
        <time>2023-08-30T10:29:23Z</time>
      </trkpt>
      <trkpt lat="46.62042" lon="5.55191">
        <ele>458.6</ele>
        <time>2023-08-30T10:29:24Z</time>
      </trkpt>
      <trkpt lat="46.62044" lon="5.55191">
        <ele>458.6</ele>
        <time>2023-08-30T10:29:25Z</time>
      </trkpt>
      <trkpt lat="46.62046" lon="5.5519">
        <ele>459</ele>
        <time>2023-08-30T10:29:26Z</time>
      </trkpt>
      <trkpt lat="46.62048" lon="5.5519">
        <ele>459.2</ele>
        <time>2023-08-30T10:29:27Z</time>
      </trkpt>
      <trkpt lat="46.6205" lon="5.55189">
        <ele>459.2</ele>
        <time>2023-08-30T10:29:28Z</time>
      </trkpt>
      <trkpt lat="46.62052" lon="5.55188">
        <ele>459.2</ele>
        <time>2023-08-30T10:29:29Z</time>
      </trkpt>
      <trkpt lat="46.62054" lon="5.55188">
        <ele>459.6</ele>
        <time>2023-08-30T10:29:30Z</time>
      </trkpt>
      <trkpt lat="46.62056" lon="5.55187">
        <ele>459.6</ele>
        <time>2023-08-30T10:29:31Z</time>
      </trkpt>
      <trkpt lat="46.62059" lon="5.55187">
        <ele>459.8</ele>
        <time>2023-08-30T10:29:32Z</time>
      </trkpt>
      <trkpt lat="46.62061" lon="5.55187">
        <ele>459.8</ele>
        <time>2023-08-30T10:29:33Z</time>
      </trkpt>
      <trkpt lat="46.62063" lon="5.55186">
        <ele>459.8</ele>
        <time>2023-08-30T10:29:34Z</time>
      </trkpt>
      <trkpt lat="46.62065" lon="5.55185">
        <ele>460.2</ele>
        <time>2023-08-30T10:29:35Z</time>
      </trkpt>
      <trkpt lat="46.62067" lon="5.55184">
        <ele>460.2</ele>
        <time>2023-08-30T10:29:36Z</time>
      </trkpt>
      <trkpt lat="46.62069" lon="5.55183">
        <ele>460.2</ele>
        <time>2023-08-30T10:29:37Z</time>
      </trkpt>
      <trkpt lat="46.6207" lon="5.55183">
        <ele>460.2</ele>
        <time>2023-08-30T10:29:38Z</time>
      </trkpt>
      <trkpt lat="46.62072" lon="5.55183">
        <ele>460.8</ele>
        <time>2023-08-30T10:29:39Z</time>
      </trkpt>
      <trkpt lat="46.62074" lon="5.55183">
        <ele>460.8</ele>
        <time>2023-08-30T10:29:40Z</time>
      </trkpt>
      <trkpt lat="46.62076" lon="5.55183">
        <ele>460.8</ele>
        <time>2023-08-30T10:29:41Z</time>
      </trkpt>
      <trkpt lat="46.62078" lon="5.55183">
        <ele>460.8</ele>
        <time>2023-08-30T10:29:42Z</time>
      </trkpt>
      <trkpt lat="46.62079" lon="5.55183">
        <ele>460.8</ele>
        <time>2023-08-30T10:29:43Z</time>
      </trkpt>
      <trkpt lat="46.62081" lon="5.55184">
        <ele>461.2</ele>
        <time>2023-08-30T10:29:44Z</time>
      </trkpt>
      <trkpt lat="46.62083" lon="5.55184">
        <ele>461.4</ele>
        <time>2023-08-30T10:29:45Z</time>
      </trkpt>
      <trkpt lat="46.62085" lon="5.55184">
        <ele>461.4</ele>
        <time>2023-08-30T10:29:46Z</time>
      </trkpt>
      <trkpt lat="46.62087" lon="5.55183">
        <ele>461.4</ele>
        <time>2023-08-30T10:29:47Z</time>
      </trkpt>
      <trkpt lat="46.62089" lon="5.55183">
        <ele>461.8</ele>
        <time>2023-08-30T10:29:48Z</time>
      </trkpt>
      <trkpt lat="46.6209" lon="5.55183">
        <ele>462</ele>
        <time>2023-08-30T10:29:49Z</time>
      </trkpt>
      <trkpt lat="46.62092" lon="5.55182">
        <ele>462</ele>
        <time>2023-08-30T10:29:50Z</time>
      </trkpt>
      <trkpt lat="46.62094" lon="5.55181">
        <ele>462</ele>
        <time>2023-08-30T10:29:51Z</time>
      </trkpt>
      <trkpt lat="46.62096" lon="5.55181">
        <ele>462.4</ele>
        <time>2023-08-30T10:29:52Z</time>
      </trkpt>
      <trkpt lat="46.62098" lon="5.5518">
        <ele>462.6</ele>
        <time>2023-08-30T10:29:53Z</time>
      </trkpt>
      <trkpt lat="46.621" lon="5.5518">
        <ele>462.6</ele>
        <time>2023-08-30T10:29:54Z</time>
      </trkpt>
      <trkpt lat="46.62102" lon="5.55179">
        <ele>462.6</ele>
        <time>2023-08-30T10:29:55Z</time>
      </trkpt>
      <trkpt lat="46.62104" lon="5.55179">
        <ele>462.6</ele>
        <time>2023-08-30T10:29:56Z</time>
      </trkpt>
      <trkpt lat="46.62106" lon="5.55179">
        <ele>463</ele>
        <time>2023-08-30T10:29:57Z</time>
      </trkpt>
      <trkpt lat="46.62108" lon="5.55179">
        <ele>463.2</ele>
        <time>2023-08-30T10:29:58Z</time>
      </trkpt>
      <trkpt lat="46.62109" lon="5.55179">
        <ele>463.2</ele>
        <time>2023-08-30T10:29:59Z</time>
      </trkpt>
      <trkpt lat="46.62111" lon="5.55179">
        <ele>463.2</ele>
        <time>2023-08-30T10:30:00Z</time>
      </trkpt>
      <trkpt lat="46.62113" lon="5.55179">
        <ele>463.4</ele>
        <time>2023-08-30T10:30:01Z</time>
      </trkpt>
      <trkpt lat="46.62115" lon="5.55179">
        <ele>463.6</ele>
        <time>2023-08-30T10:30:02Z</time>
      </trkpt>
      <trkpt lat="46.62117" lon="5.55179">
        <ele>463.6</ele>
        <time>2023-08-30T10:30:03Z</time>
      </trkpt>
      <trkpt lat="46.62119" lon="5.5518">
        <ele>463.6</ele>
        <time>2023-08-30T10:30:04Z</time>
      </trkpt>
      <trkpt lat="46.62121" lon="5.55181">
        <ele>464</ele>
        <time>2023-08-30T10:30:05Z</time>
      </trkpt>
      <trkpt lat="46.62123" lon="5.55181">
        <ele>463.8</ele>
        <time>2023-08-30T10:30:06Z</time>
      </trkpt>
      <trkpt lat="46.62124" lon="5.55182">
        <ele>463.8</ele>
        <time>2023-08-30T10:30:07Z</time>
      </trkpt>
      <trkpt lat="46.62126" lon="5.55183">
        <ele>463.8</ele>
        <time>2023-08-30T10:30:08Z</time>
      </trkpt>
      <trkpt lat="46.62128" lon="5.55183">
        <ele>463.8</ele>
        <time>2023-08-30T10:30:09Z</time>
      </trkpt>
      <trkpt lat="46.6213" lon="5.55184">
        <ele>463.8</ele>
        <time>2023-08-30T10:30:10Z</time>
      </trkpt>
      <trkpt lat="46.62132" lon="5.55184">
        <ele>464.2</ele>
        <time>2023-08-30T10:30:11Z</time>
      </trkpt>
      <trkpt lat="46.62134" lon="5.55185">
        <ele>464.2</ele>
        <time>2023-08-30T10:30:12Z</time>
      </trkpt>
      <trkpt lat="46.62135" lon="5.55185">
        <ele>464.2</ele>
        <time>2023-08-30T10:30:13Z</time>
      </trkpt>
      <trkpt lat="46.62137" lon="5.55186">
        <ele>464.2</ele>
        <time>2023-08-30T10:30:14Z</time>
      </trkpt>
      <trkpt lat="46.62139" lon="5.55187">
        <ele>464.2</ele>
        <time>2023-08-30T10:30:15Z</time>
      </trkpt>
      <trkpt lat="46.62141" lon="5.55188">
        <ele>464.2</ele>
        <time>2023-08-30T10:30:16Z</time>
      </trkpt>
      <trkpt lat="46.62143" lon="5.55189">
        <ele>464.2</ele>
        <time>2023-08-30T10:30:17Z</time>
      </trkpt>
      <trkpt lat="46.62145" lon="5.55191">
        <ele>464.2</ele>
        <time>2023-08-30T10:30:18Z</time>
      </trkpt>
      <trkpt lat="46.62147" lon="5.55192">
        <ele>464.2</ele>
        <time>2023-08-30T10:30:19Z</time>
      </trkpt>
      <trkpt lat="46.62149" lon="5.55193">
        <ele>464.4</ele>
        <time>2023-08-30T10:30:20Z</time>
      </trkpt>
      <trkpt lat="46.6215" lon="5.55195">
        <ele>464.4</ele>
        <time>2023-08-30T10:30:21Z</time>
      </trkpt>
      <trkpt lat="46.62153" lon="5.55197">
        <ele>464.4</ele>
        <time>2023-08-30T10:30:22Z</time>
      </trkpt>
      <trkpt lat="46.62154" lon="5.55197">
        <ele>464.4</ele>
        <time>2023-08-30T10:30:23Z</time>
      </trkpt>
      <trkpt lat="46.62157" lon="5.55198">
        <ele>464.8</ele>
        <time>2023-08-30T10:30:24Z</time>
      </trkpt>
      <trkpt lat="46.62159" lon="5.55199">
        <ele>464.8</ele>
        <time>2023-08-30T10:30:25Z</time>
      </trkpt>
      <trkpt lat="46.62161" lon="5.552">
        <ele>464.8</ele>
        <time>2023-08-30T10:30:26Z</time>
      </trkpt>
      <trkpt lat="46.62163" lon="5.55201">
        <ele>464.8</ele>
        <time>2023-08-30T10:30:27Z</time>
      </trkpt>
      <trkpt lat="46.62165" lon="5.55202">
        <ele>464.8</ele>
        <time>2023-08-30T10:30:28Z</time>
      </trkpt>
      <trkpt lat="46.62168" lon="5.55202">
        <ele>465.2</ele>
        <time>2023-08-30T10:30:29Z</time>
      </trkpt>
      <trkpt lat="46.6217" lon="5.55203">
        <ele>465.2</ele>
        <time>2023-08-30T10:30:30Z</time>
      </trkpt>
      <trkpt lat="46.62172" lon="5.55204">
        <ele>465.2</ele>
        <time>2023-08-30T10:30:31Z</time>
      </trkpt>
      <trkpt lat="46.62174" lon="5.55206">
        <ele>465.2</ele>
        <time>2023-08-30T10:30:32Z</time>
      </trkpt>
      <trkpt lat="46.62177" lon="5.55207">
        <ele>465.6</ele>
        <time>2023-08-30T10:30:33Z</time>
      </trkpt>
      <trkpt lat="46.62179" lon="5.55208">
        <ele>465.6</ele>
        <time>2023-08-30T10:30:34Z</time>
      </trkpt>
      <trkpt lat="46.62181" lon="5.55209">
        <ele>465.6</ele>
        <time>2023-08-30T10:30:35Z</time>
      </trkpt>
      <trkpt lat="46.62183" lon="5.55209">
        <ele>465.6</ele>
        <time>2023-08-30T10:30:36Z</time>
      </trkpt>
      <trkpt lat="46.62185" lon="5.55209">
        <ele>465.6</ele>
        <time>2023-08-30T10:30:37Z</time>
      </trkpt>
      <trkpt lat="46.62187" lon="5.55209">
        <ele>466</ele>
        <time>2023-08-30T10:30:38Z</time>
      </trkpt>
      <trkpt lat="46.62189" lon="5.5521">
        <ele>466</ele>
        <time>2023-08-30T10:30:39Z</time>
      </trkpt>
      <trkpt lat="46.62192" lon="5.5521">
        <ele>466</ele>
        <time>2023-08-30T10:30:40Z</time>
      </trkpt>
      <trkpt lat="46.62194" lon="5.55211">
        <ele>466</ele>
        <time>2023-08-30T10:30:41Z</time>
      </trkpt>
      <trkpt lat="46.62196" lon="5.55211">
        <ele>466.2</ele>
        <time>2023-08-30T10:30:42Z</time>
      </trkpt>
      <trkpt lat="46.62198" lon="5.55211">
        <ele>466.4</ele>
        <time>2023-08-30T10:30:43Z</time>
      </trkpt>
      <trkpt lat="46.62201" lon="5.55211">
        <ele>466.4</ele>
        <time>2023-08-30T10:30:44Z</time>
      </trkpt>
      <trkpt lat="46.62203" lon="5.55211">
        <ele>466.4</ele>
        <time>2023-08-30T10:30:45Z</time>
      </trkpt>
      <trkpt lat="46.62206" lon="5.55211">
        <ele>466.8</ele>
        <time>2023-08-30T10:30:46Z</time>
      </trkpt>
      <trkpt lat="46.62208" lon="5.55211">
        <ele>466.8</ele>
        <time>2023-08-30T10:30:47Z</time>
      </trkpt>
      <trkpt lat="46.6221" lon="5.55212">
        <ele>466.8</ele>
        <time>2023-08-30T10:30:48Z</time>
      </trkpt>
      <trkpt lat="46.62212" lon="5.55212">
        <ele>466.8</ele>
        <time>2023-08-30T10:30:49Z</time>
      </trkpt>
      <trkpt lat="46.62214" lon="5.55212">
        <ele>466.8</ele>
        <time>2023-08-30T10:30:50Z</time>
      </trkpt>
      <trkpt lat="46.62216" lon="5.55213">
        <ele>467.2</ele>
        <time>2023-08-30T10:30:51Z</time>
      </trkpt>
      <trkpt lat="46.62219" lon="5.55213">
        <ele>467.2</ele>
        <time>2023-08-30T10:30:52Z</time>
      </trkpt>
      <trkpt lat="46.62221" lon="5.55214">
        <ele>467.2</ele>
        <time>2023-08-30T10:30:53Z</time>
      </trkpt>
      <trkpt lat="46.62223" lon="5.55215">
        <ele>467.2</ele>
        <time>2023-08-30T10:30:54Z</time>
      </trkpt>
      <trkpt lat="46.62225" lon="5.55215">
        <ele>467.2</ele>
        <time>2023-08-30T10:30:55Z</time>
      </trkpt>
      <trkpt lat="46.62228" lon="5.55216">
        <ele>467.2</ele>
        <time>2023-08-30T10:30:56Z</time>
      </trkpt>
      <trkpt lat="46.6223" lon="5.55216">
        <ele>467.4</ele>
        <time>2023-08-30T10:30:57Z</time>
      </trkpt>
      <trkpt lat="46.62232" lon="5.55216">
        <ele>467.4</ele>
        <time>2023-08-30T10:30:58Z</time>
      </trkpt>
      <trkpt lat="46.62235" lon="5.55217">
        <ele>467.4</ele>
        <time>2023-08-30T10:30:59Z</time>
      </trkpt>
      <trkpt lat="46.62237" lon="5.55217">
        <ele>467.6</ele>
        <time>2023-08-30T10:31:00Z</time>
      </trkpt>
      <trkpt lat="46.62239" lon="5.55218">
        <ele>467.8</ele>
        <time>2023-08-30T10:31:01Z</time>
      </trkpt>
      <trkpt lat="46.62241" lon="5.55218">
        <ele>467.8</ele>
        <time>2023-08-30T10:31:02Z</time>
      </trkpt>
      <trkpt lat="46.62243" lon="5.55219">
        <ele>467.8</ele>
        <time>2023-08-30T10:31:03Z</time>
      </trkpt>
      <trkpt lat="46.62246" lon="5.55219">
        <ele>468.2</ele>
        <time>2023-08-30T10:31:04Z</time>
      </trkpt>
      <trkpt lat="46.62248" lon="5.5522">
        <ele>468.6</ele>
        <time>2023-08-30T10:31:05Z</time>
      </trkpt>
      <trkpt lat="46.6225" lon="5.5522">
        <ele>468.6</ele>
        <time>2023-08-30T10:31:06Z</time>
      </trkpt>
      <trkpt lat="46.62252" lon="5.5522">
        <ele>468.6</ele>
        <time>2023-08-30T10:31:07Z</time>
      </trkpt>
      <trkpt lat="46.62254" lon="5.5522">
        <ele>468.6</ele>
        <time>2023-08-30T10:31:08Z</time>
      </trkpt>
      <trkpt lat="46.62257" lon="5.5522">
        <ele>469</ele>
        <time>2023-08-30T10:31:09Z</time>
      </trkpt>
      <trkpt lat="46.62259" lon="5.5522">
        <ele>469.2</ele>
        <time>2023-08-30T10:31:10Z</time>
      </trkpt>
      <trkpt lat="46.62261" lon="5.55219">
        <ele>469.2</ele>
        <time>2023-08-30T10:31:11Z</time>
      </trkpt>
      <trkpt lat="46.62263" lon="5.55219">
        <ele>469.2</ele>
        <time>2023-08-30T10:31:12Z</time>
      </trkpt>
      <trkpt lat="46.62266" lon="5.55219">
        <ele>469.2</ele>
        <time>2023-08-30T10:31:13Z</time>
      </trkpt>
      <trkpt lat="46.62268" lon="5.55219">
        <ele>469.6</ele>
        <time>2023-08-30T10:31:14Z</time>
      </trkpt>
      <trkpt lat="46.6227" lon="5.55219">
        <ele>469.8</ele>
        <time>2023-08-30T10:31:15Z</time>
      </trkpt>
      <trkpt lat="46.62273" lon="5.55219">
        <ele>469.8</ele>
        <time>2023-08-30T10:31:16Z</time>
      </trkpt>
      <trkpt lat="46.62275" lon="5.55219">
        <ele>469.8</ele>
        <time>2023-08-30T10:31:17Z</time>
      </trkpt>
      <trkpt lat="46.62278" lon="5.55219">
        <ele>470.2</ele>
        <time>2023-08-30T10:31:18Z</time>
      </trkpt>
      <trkpt lat="46.6228" lon="5.55219">
        <ele>470.2</ele>
        <time>2023-08-30T10:31:19Z</time>
      </trkpt>
      <trkpt lat="46.62283" lon="5.55219">
        <ele>470.4</ele>
        <time>2023-08-30T10:31:20Z</time>
      </trkpt>
      <trkpt lat="46.62285" lon="5.5522">
        <ele>470.4</ele>
        <time>2023-08-30T10:31:21Z</time>
      </trkpt>
      <trkpt lat="46.62288" lon="5.5522">
        <ele>470.4</ele>
        <time>2023-08-30T10:31:22Z</time>
      </trkpt>
      <trkpt lat="46.6229" lon="5.55221">
        <ele>470.8</ele>
        <time>2023-08-30T10:31:23Z</time>
      </trkpt>
      <trkpt lat="46.62292" lon="5.55222">
        <ele>471</ele>
        <time>2023-08-30T10:31:24Z</time>
      </trkpt>
      <trkpt lat="46.62295" lon="5.55223">
        <ele>471</ele>
        <time>2023-08-30T10:31:25Z</time>
      </trkpt>
      <trkpt lat="46.62297" lon="5.55224">
        <ele>471</ele>
        <time>2023-08-30T10:31:26Z</time>
      </trkpt>
      <trkpt lat="46.62299" lon="5.55225">
        <ele>471.6</ele>
        <time>2023-08-30T10:31:27Z</time>
      </trkpt>
      <trkpt lat="46.62301" lon="5.55226">
        <ele>471.8</ele>
        <time>2023-08-30T10:31:28Z</time>
      </trkpt>
      <trkpt lat="46.62304" lon="5.55228">
        <ele>471.8</ele>
        <time>2023-08-30T10:31:29Z</time>
      </trkpt>
      <trkpt lat="46.62306" lon="5.55229">
        <ele>471.8</ele>
        <time>2023-08-30T10:31:30Z</time>
      </trkpt>
      <trkpt lat="46.62308" lon="5.55231">
        <ele>471.8</ele>
        <time>2023-08-30T10:31:31Z</time>
      </trkpt>
      <trkpt lat="46.6231" lon="5.55233">
        <ele>472.2</ele>
        <time>2023-08-30T10:31:32Z</time>
      </trkpt>
      <trkpt lat="46.62312" lon="5.55236">
        <ele>472.2</ele>
        <time>2023-08-30T10:31:33Z</time>
      </trkpt>
      <trkpt lat="46.62314" lon="5.55238">
        <ele>472.2</ele>
        <time>2023-08-30T10:31:34Z</time>
      </trkpt>
      <trkpt lat="46.62316" lon="5.55241">
        <ele>472.6</ele>
        <time>2023-08-30T10:31:35Z</time>
      </trkpt>
      <trkpt lat="46.62318" lon="5.55243">
        <ele>472.6</ele>
        <time>2023-08-30T10:31:36Z</time>
      </trkpt>
      <trkpt lat="46.6232" lon="5.55246">
        <ele>472.8</ele>
        <time>2023-08-30T10:31:37Z</time>
      </trkpt>
      <trkpt lat="46.62322" lon="5.55249">
        <ele>472.8</ele>
        <time>2023-08-30T10:31:38Z</time>
      </trkpt>
      <trkpt lat="46.62324" lon="5.55251">
        <ele>472.8</ele>
        <time>2023-08-30T10:31:39Z</time>
      </trkpt>
      <trkpt lat="46.62326" lon="5.55254">
        <ele>472.8</ele>
        <time>2023-08-30T10:31:40Z</time>
      </trkpt>
      <trkpt lat="46.62328" lon="5.55257">
        <ele>472.8</ele>
        <time>2023-08-30T10:31:41Z</time>
      </trkpt>
      <trkpt lat="46.62329" lon="5.55259">
        <ele>473.8</ele>
        <time>2023-08-30T10:31:42Z</time>
      </trkpt>
      <trkpt lat="46.62331" lon="5.55262">
        <ele>473.8</ele>
        <time>2023-08-30T10:31:43Z</time>
      </trkpt>
      <trkpt lat="46.62333" lon="5.55264">
        <ele>473.8</ele>
        <time>2023-08-30T10:31:44Z</time>
      </trkpt>
      <trkpt lat="46.62335" lon="5.55267">
        <ele>474</ele>
        <time>2023-08-30T10:31:45Z</time>
      </trkpt>
      <trkpt lat="46.62337" lon="5.5527">
        <ele>474</ele>
        <time>2023-08-30T10:31:46Z</time>
      </trkpt>
      <trkpt lat="46.62339" lon="5.55275">
        <ele>474.2</ele>
        <time>2023-08-30T10:31:47Z</time>
      </trkpt>
      <trkpt lat="46.6234" lon="5.55276">
        <ele>474.2</ele>
        <time>2023-08-30T10:31:48Z</time>
      </trkpt>
      <trkpt lat="46.62341" lon="5.55279">
        <ele>474.4</ele>
        <time>2023-08-30T10:31:49Z</time>
      </trkpt>
      <trkpt lat="46.62343" lon="5.55283">
        <ele>474.6</ele>
        <time>2023-08-30T10:31:50Z</time>
      </trkpt>
      <trkpt lat="46.62344" lon="5.55286">
        <ele>474.6</ele>
        <time>2023-08-30T10:31:51Z</time>
      </trkpt>
      <trkpt lat="46.62346" lon="5.55289">
        <ele>474.6</ele>
        <time>2023-08-30T10:31:52Z</time>
      </trkpt>
      <trkpt lat="46.62348" lon="5.55293">
        <ele>474.6</ele>
        <time>2023-08-30T10:31:53Z</time>
      </trkpt>
      <trkpt lat="46.62349" lon="5.55296">
        <ele>474.8</ele>
        <time>2023-08-30T10:31:54Z</time>
      </trkpt>
      <trkpt lat="46.62351" lon="5.553">
        <ele>475</ele>
        <time>2023-08-30T10:31:55Z</time>
      </trkpt>
      <trkpt lat="46.62353" lon="5.55304">
        <ele>475</ele>
        <time>2023-08-30T10:31:56Z</time>
      </trkpt>
      <trkpt lat="46.62354" lon="5.55307">
        <ele>475</ele>
        <time>2023-08-30T10:31:57Z</time>
      </trkpt>
      <trkpt lat="46.62356" lon="5.5531">
        <ele>475</ele>
        <time>2023-08-30T10:31:58Z</time>
      </trkpt>
      <trkpt lat="46.62357" lon="5.55314">
        <ele>475</ele>
        <time>2023-08-30T10:31:59Z</time>
      </trkpt>
      <trkpt lat="46.62357" lon="5.55318">
        <ele>475.4</ele>
        <time>2023-08-30T10:32:00Z</time>
      </trkpt>
      <trkpt lat="46.62358" lon="5.55322">
        <ele>475.4</ele>
        <time>2023-08-30T10:32:01Z</time>
      </trkpt>
      <trkpt lat="46.62358" lon="5.55326">
        <ele>475.4</ele>
        <time>2023-08-30T10:32:02Z</time>
      </trkpt>
      <trkpt lat="46.62358" lon="5.55331">
        <ele>475.4</ele>
        <time>2023-08-30T10:32:03Z</time>
      </trkpt>
      <trkpt lat="46.62358" lon="5.55335">
        <ele>476</ele>
        <time>2023-08-30T10:32:04Z</time>
      </trkpt>
      <trkpt lat="46.62357" lon="5.55339">
        <ele>476</ele>
        <time>2023-08-30T10:32:05Z</time>
      </trkpt>
      <trkpt lat="46.62356" lon="5.55342">
        <ele>476</ele>
        <time>2023-08-30T10:32:06Z</time>
      </trkpt>
      <trkpt lat="46.62354" lon="5.55345">
        <ele>476</ele>
        <time>2023-08-30T10:32:07Z</time>
      </trkpt>
      <trkpt lat="46.62353" lon="5.55349">
        <ele>476</ele>
        <time>2023-08-30T10:32:08Z</time>
      </trkpt>
      <trkpt lat="46.62351" lon="5.55351">
        <ele>476.4</ele>
        <time>2023-08-30T10:32:09Z</time>
      </trkpt>
      <trkpt lat="46.62349" lon="5.55353">
        <ele>476.4</ele>
        <time>2023-08-30T10:32:10Z</time>
      </trkpt>
      <trkpt lat="46.62347" lon="5.55355">
        <ele>476.4</ele>
        <time>2023-08-30T10:32:11Z</time>
      </trkpt>
      <trkpt lat="46.62345" lon="5.55356">
        <ele>477</ele>
        <time>2023-08-30T10:32:12Z</time>
      </trkpt>
      <trkpt lat="46.62343" lon="5.55357">
        <ele>477.2</ele>
        <time>2023-08-30T10:32:13Z</time>
      </trkpt>
      <trkpt lat="46.6234" lon="5.55358">
        <ele>477.2</ele>
        <time>2023-08-30T10:32:14Z</time>
      </trkpt>
      <trkpt lat="46.62338" lon="5.55358">
        <ele>477.2</ele>
        <time>2023-08-30T10:32:15Z</time>
      </trkpt>
      <trkpt lat="46.62335" lon="5.55359">
        <ele>477.8</ele>
        <time>2023-08-30T10:32:16Z</time>
      </trkpt>
      <trkpt lat="46.62332" lon="5.5536">
        <ele>477.8</ele>
        <time>2023-08-30T10:32:17Z</time>
      </trkpt>
      <trkpt lat="46.6233" lon="5.55361">
        <ele>478.2</ele>
        <time>2023-08-30T10:32:18Z</time>
      </trkpt>
      <trkpt lat="46.62327" lon="5.55362">
        <ele>478.2</ele>
        <time>2023-08-30T10:32:19Z</time>
      </trkpt>
      <trkpt lat="46.62324" lon="5.55363">
        <ele>478.2</ele>
        <time>2023-08-30T10:32:20Z</time>
      </trkpt>
      <trkpt lat="46.62321" lon="5.55364">
        <ele>478.2</ele>
        <time>2023-08-30T10:32:21Z</time>
      </trkpt>
      <trkpt lat="46.62318" lon="5.55364">
        <ele>478.2</ele>
        <time>2023-08-30T10:32:22Z</time>
      </trkpt>
      <trkpt lat="46.62315" lon="5.55364">
        <ele>478.8</ele>
        <time>2023-08-30T10:32:23Z</time>
      </trkpt>
      <trkpt lat="46.62313" lon="5.55365">
        <ele>478.8</ele>
        <time>2023-08-30T10:32:24Z</time>
      </trkpt>
      <trkpt lat="46.6231" lon="5.55365">
        <ele>478.8</ele>
        <time>2023-08-30T10:32:25Z</time>
      </trkpt>
      <trkpt lat="46.62307" lon="5.55366">
        <ele>479.4</ele>
        <time>2023-08-30T10:32:26Z</time>
      </trkpt>
      <trkpt lat="46.62305" lon="5.55366">
        <ele>479.6</ele>
        <time>2023-08-30T10:32:27Z</time>
      </trkpt>
      <trkpt lat="46.62302" lon="5.55367">
        <ele>479.6</ele>
        <time>2023-08-30T10:32:28Z</time>
      </trkpt>
      <trkpt lat="46.62299" lon="5.55368">
        <ele>479.6</ele>
        <time>2023-08-30T10:32:29Z</time>
      </trkpt>
      <trkpt lat="46.62297" lon="5.55369">
        <ele>480.2</ele>
        <time>2023-08-30T10:32:30Z</time>
      </trkpt>
      <trkpt lat="46.62294" lon="5.55369">
        <ele>480.4</ele>
        <time>2023-08-30T10:32:31Z</time>
      </trkpt>
      <trkpt lat="46.62291" lon="5.5537">
        <ele>480.4</ele>
        <time>2023-08-30T10:32:32Z</time>
      </trkpt>
      <trkpt lat="46.6229" lon="5.55371">
        <ele>480.4</ele>
        <time>2023-08-30T10:32:33Z</time>
      </trkpt>
      <trkpt lat="46.62287" lon="5.55372">
        <ele>480.4</ele>
        <time>2023-08-30T10:32:34Z</time>
      </trkpt>
      <trkpt lat="46.62285" lon="5.55373">
        <ele>481</ele>
        <time>2023-08-30T10:32:35Z</time>
      </trkpt>
      <trkpt lat="46.62282" lon="5.55374">
        <ele>481.2</ele>
        <time>2023-08-30T10:32:36Z</time>
      </trkpt>
      <trkpt lat="46.62279" lon="5.55376">
        <ele>481.2</ele>
        <time>2023-08-30T10:32:37Z</time>
      </trkpt>
      <trkpt lat="46.62276" lon="5.55376">
        <ele>481.2</ele>
        <time>2023-08-30T10:32:38Z</time>
      </trkpt>
      <trkpt lat="46.62274" lon="5.55377">
        <ele>481.6</ele>
        <time>2023-08-30T10:32:39Z</time>
      </trkpt>
      <trkpt lat="46.62271" lon="5.55377">
        <ele>481.8</ele>
        <time>2023-08-30T10:32:40Z</time>
      </trkpt>
      <trkpt lat="46.62268" lon="5.55378">
        <ele>481.8</ele>
        <time>2023-08-30T10:32:41Z</time>
      </trkpt>
      <trkpt lat="46.62266" lon="5.55378">
        <ele>481.8</ele>
        <time>2023-08-30T10:32:42Z</time>
      </trkpt>
      <trkpt lat="46.62263" lon="5.55378">
        <ele>482.4</ele>
        <time>2023-08-30T10:32:43Z</time>
      </trkpt>
      <trkpt lat="46.62261" lon="5.55379">
        <ele>482.4</ele>
        <time>2023-08-30T10:32:44Z</time>
      </trkpt>
      <trkpt lat="46.62258" lon="5.5538">
        <ele>482.4</ele>
        <time>2023-08-30T10:32:45Z</time>
      </trkpt>
      <trkpt lat="46.62256" lon="5.55381">
        <ele>482.4</ele>
        <time>2023-08-30T10:32:46Z</time>
      </trkpt>
      <trkpt lat="46.62254" lon="5.55383">
        <ele>482.4</ele>
        <time>2023-08-30T10:32:47Z</time>
      </trkpt>
      <trkpt lat="46.62251" lon="5.55384">
        <ele>483.2</ele>
        <time>2023-08-30T10:32:48Z</time>
      </trkpt>
      <trkpt lat="46.62249" lon="5.55384">
        <ele>483.6</ele>
        <time>2023-08-30T10:32:49Z</time>
      </trkpt>
      <trkpt lat="46.62247" lon="5.55385">
        <ele>483.6</ele>
        <time>2023-08-30T10:32:50Z</time>
      </trkpt>
      <trkpt lat="46.62244" lon="5.55385">
        <ele>483.6</ele>
        <time>2023-08-30T10:32:51Z</time>
      </trkpt>
      <trkpt lat="46.62242" lon="5.55384">
        <ele>483.8</ele>
        <time>2023-08-30T10:32:52Z</time>
      </trkpt>
      <trkpt lat="46.6224" lon="5.55384">
        <ele>483.8</ele>
        <time>2023-08-30T10:32:53Z</time>
      </trkpt>
      <trkpt lat="46.62237" lon="5.55383">
        <ele>483.8</ele>
        <time>2023-08-30T10:32:54Z</time>
      </trkpt>
      <trkpt lat="46.62235" lon="5.55382">
        <ele>483.8</ele>
        <time>2023-08-30T10:32:55Z</time>
      </trkpt>
      <trkpt lat="46.62233" lon="5.55381">
        <ele>483.8</ele>
        <time>2023-08-30T10:32:56Z</time>
      </trkpt>
      <trkpt lat="46.62231" lon="5.55381">
        <ele>484.2</ele>
        <time>2023-08-30T10:32:57Z</time>
      </trkpt>
      <trkpt lat="46.62229" lon="5.55381">
        <ele>484</ele>
        <time>2023-08-30T10:32:58Z</time>
      </trkpt>
      <trkpt lat="46.62227" lon="5.55381">
        <ele>484</ele>
        <time>2023-08-30T10:32:59Z</time>
      </trkpt>
      <trkpt lat="46.62225" lon="5.55382">
        <ele>484</ele>
        <time>2023-08-30T10:33:00Z</time>
      </trkpt>
      <trkpt lat="46.62223" lon="5.55382">
        <ele>484</ele>
        <time>2023-08-30T10:33:01Z</time>
      </trkpt>
      <trkpt lat="46.62221" lon="5.55381">
        <ele>484.4</ele>
        <time>2023-08-30T10:33:02Z</time>
      </trkpt>
      <trkpt lat="46.62219" lon="5.55381">
        <ele>484.4</ele>
        <time>2023-08-30T10:33:03Z</time>
      </trkpt>
      <trkpt lat="46.62217" lon="5.55381">
        <ele>484.4</ele>
        <time>2023-08-30T10:33:04Z</time>
      </trkpt>
      <trkpt lat="46.62215" lon="5.55381">
        <ele>484.4</ele>
        <time>2023-08-30T10:33:05Z</time>
      </trkpt>
      <trkpt lat="46.62213" lon="5.55382">
        <ele>484.4</ele>
        <time>2023-08-30T10:33:06Z</time>
      </trkpt>
      <trkpt lat="46.62211" lon="5.55382">
        <ele>484.4</ele>
        <time>2023-08-30T10:33:07Z</time>
      </trkpt>
      <trkpt lat="46.62209" lon="5.55382">
        <ele>484.4</ele>
        <time>2023-08-30T10:33:08Z</time>
      </trkpt>
      <trkpt lat="46.62207" lon="5.55381">
        <ele>484.4</ele>
        <time>2023-08-30T10:33:09Z</time>
      </trkpt>
      <trkpt lat="46.62205" lon="5.55381">
        <ele>484.4</ele>
        <time>2023-08-30T10:33:10Z</time>
      </trkpt>
      <trkpt lat="46.62203" lon="5.55381">
        <ele>484.6</ele>
        <time>2023-08-30T10:33:11Z</time>
      </trkpt>
      <trkpt lat="46.62201" lon="5.55382">
        <ele>484.6</ele>
        <time>2023-08-30T10:33:12Z</time>
      </trkpt>
      <trkpt lat="46.622" lon="5.55382">
        <ele>484.6</ele>
        <time>2023-08-30T10:33:13Z</time>
      </trkpt>
      <trkpt lat="46.62198" lon="5.55381">
        <ele>484.6</ele>
        <time>2023-08-30T10:33:14Z</time>
      </trkpt>
      <trkpt lat="46.62196" lon="5.55381">
        <ele>485</ele>
        <time>2023-08-30T10:33:15Z</time>
      </trkpt>
      <trkpt lat="46.62194" lon="5.55381">
        <ele>484.8</ele>
        <time>2023-08-30T10:33:16Z</time>
      </trkpt>
      <trkpt lat="46.62192" lon="5.55381">
        <ele>484.8</ele>
        <time>2023-08-30T10:33:17Z</time>
      </trkpt>
      <trkpt lat="46.6219" lon="5.55381">
        <ele>484.8</ele>
        <time>2023-08-30T10:33:18Z</time>
      </trkpt>
      <trkpt lat="46.62188" lon="5.55381">
        <ele>484.8</ele>
        <time>2023-08-30T10:33:19Z</time>
      </trkpt>
      <trkpt lat="46.62186" lon="5.55381">
        <ele>484.8</ele>
        <time>2023-08-30T10:33:20Z</time>
      </trkpt>
      <trkpt lat="46.62184" lon="5.55381">
        <ele>485.2</ele>
        <time>2023-08-30T10:33:21Z</time>
      </trkpt>
      <trkpt lat="46.62182" lon="5.5538">
        <ele>485.2</ele>
        <time>2023-08-30T10:33:22Z</time>
      </trkpt>
      <trkpt lat="46.6218" lon="5.5538">
        <ele>485.2</ele>
        <time>2023-08-30T10:33:23Z</time>
      </trkpt>
      <trkpt lat="46.62178" lon="5.5538">
        <ele>485.2</ele>
        <time>2023-08-30T10:33:24Z</time>
      </trkpt>
      <trkpt lat="46.62176" lon="5.5538">
        <ele>485.4</ele>
        <time>2023-08-30T10:33:25Z</time>
      </trkpt>
      <trkpt lat="46.62174" lon="5.5538">
        <ele>485.4</ele>
        <time>2023-08-30T10:33:26Z</time>
      </trkpt>
      <trkpt lat="46.62171" lon="5.5538">
        <ele>485.4</ele>
        <time>2023-08-30T10:33:27Z</time>
      </trkpt>
      <trkpt lat="46.62169" lon="5.5538">
        <ele>485.4</ele>
        <time>2023-08-30T10:33:28Z</time>
      </trkpt>
      <trkpt lat="46.62167" lon="5.55379">
        <ele>486</ele>
        <time>2023-08-30T10:33:29Z</time>
      </trkpt>
      <trkpt lat="46.62165" lon="5.55379">
        <ele>486</ele>
        <time>2023-08-30T10:33:30Z</time>
      </trkpt>
      <trkpt lat="46.62163" lon="5.55379">
        <ele>486</ele>
        <time>2023-08-30T10:33:31Z</time>
      </trkpt>
      <trkpt lat="46.62161" lon="5.55379">
        <ele>486</ele>
        <time>2023-08-30T10:33:32Z</time>
      </trkpt>
      <trkpt lat="46.62159" lon="5.55379">
        <ele>486</ele>
        <time>2023-08-30T10:33:33Z</time>
      </trkpt>
      <trkpt lat="46.62156" lon="5.55378">
        <ele>486.4</ele>
        <time>2023-08-30T10:33:34Z</time>
      </trkpt>
      <trkpt lat="46.62154" lon="5.55378">
        <ele>486.4</ele>
        <time>2023-08-30T10:33:35Z</time>
      </trkpt>
      <trkpt lat="46.62152" lon="5.55378">
        <ele>486.4</ele>
        <time>2023-08-30T10:33:36Z</time>
      </trkpt>
      <trkpt lat="46.6215" lon="5.55377">
        <ele>486.8</ele>
        <time>2023-08-30T10:33:37Z</time>
      </trkpt>
      <trkpt lat="46.62148" lon="5.55377">
        <ele>486.8</ele>
        <time>2023-08-30T10:33:38Z</time>
      </trkpt>
      <trkpt lat="46.62146" lon="5.55376">
        <ele>486.8</ele>
        <time>2023-08-30T10:33:39Z</time>
      </trkpt>
      <trkpt lat="46.62144" lon="5.55376">
        <ele>486.8</ele>
        <time>2023-08-30T10:33:40Z</time>
      </trkpt>
      <trkpt lat="46.62142" lon="5.55375">
        <ele>486.8</ele>
        <time>2023-08-30T10:33:41Z</time>
      </trkpt>
      <trkpt lat="46.62139" lon="5.55375">
        <ele>486.8</ele>
        <time>2023-08-30T10:33:42Z</time>
      </trkpt>
      <trkpt lat="46.62137" lon="5.55374">
        <ele>486.8</ele>
        <time>2023-08-30T10:33:43Z</time>
      </trkpt>
      <trkpt lat="46.62135" lon="5.55373">
        <ele>487.2</ele>
        <time>2023-08-30T10:33:44Z</time>
      </trkpt>
      <trkpt lat="46.62133" lon="5.55372">
        <ele>487.2</ele>
        <time>2023-08-30T10:33:45Z</time>
      </trkpt>
      <trkpt lat="46.6213" lon="5.55371">
        <ele>487.2</ele>
        <time>2023-08-30T10:33:46Z</time>
      </trkpt>
      <trkpt lat="46.62128" lon="5.5537">
        <ele>487.2</ele>
        <time>2023-08-30T10:33:47Z</time>
      </trkpt>
      <trkpt lat="46.62126" lon="5.55369">
        <ele>487.4</ele>
        <time>2023-08-30T10:33:48Z</time>
      </trkpt>
      <trkpt lat="46.62124" lon="5.55368">
        <ele>487.4</ele>
        <time>2023-08-30T10:33:49Z</time>
      </trkpt>
      <trkpt lat="46.62122" lon="5.55367">
        <ele>487.4</ele>
        <time>2023-08-30T10:33:50Z</time>
      </trkpt>
      <trkpt lat="46.62119" lon="5.55366">
        <ele>487.4</ele>
        <time>2023-08-30T10:33:51Z</time>
      </trkpt>
      <trkpt lat="46.62117" lon="5.55365">
        <ele>487.4</ele>
        <time>2023-08-30T10:33:52Z</time>
      </trkpt>
      <trkpt lat="46.62115" lon="5.55364">
        <ele>487.6</ele>
        <time>2023-08-30T10:33:53Z</time>
      </trkpt>
      <trkpt lat="46.62113" lon="5.55364">
        <ele>487.6</ele>
        <time>2023-08-30T10:33:54Z</time>
      </trkpt>
      <trkpt lat="46.62111" lon="5.55363">
        <ele>487.6</ele>
        <time>2023-08-30T10:33:55Z</time>
      </trkpt>
      <trkpt lat="46.62109" lon="5.55363">
        <ele>487.8</ele>
        <time>2023-08-30T10:33:56Z</time>
      </trkpt>
      <trkpt lat="46.62107" lon="5.55362">
        <ele>487.8</ele>
        <time>2023-08-30T10:33:57Z</time>
      </trkpt>
      <trkpt lat="46.62104" lon="5.55361">
        <ele>487.8</ele>
        <time>2023-08-30T10:33:58Z</time>
      </trkpt>
      <trkpt lat="46.62102" lon="5.5536">
        <ele>487.8</ele>
        <time>2023-08-30T10:33:59Z</time>
      </trkpt>
      <trkpt lat="46.621" lon="5.55359">
        <ele>488</ele>
        <time>2023-08-30T10:34:00Z</time>
      </trkpt>
      <trkpt lat="46.62098" lon="5.55359">
        <ele>488.4</ele>
        <time>2023-08-30T10:34:01Z</time>
      </trkpt>
      <trkpt lat="46.62096" lon="5.55358">
        <ele>488.4</ele>
        <time>2023-08-30T10:34:02Z</time>
      </trkpt>
      <trkpt lat="46.62094" lon="5.55357">
        <ele>488.4</ele>
        <time>2023-08-30T10:34:03Z</time>
      </trkpt>
      <trkpt lat="46.62092" lon="5.55356">
        <ele>488.4</ele>
        <time>2023-08-30T10:34:04Z</time>
      </trkpt>
      <trkpt lat="46.62089" lon="5.55356">
        <ele>488.4</ele>
        <time>2023-08-30T10:34:05Z</time>
      </trkpt>
      <trkpt lat="46.62087" lon="5.55355">
        <ele>488.6</ele>
        <time>2023-08-30T10:34:06Z</time>
      </trkpt>
      <trkpt lat="46.62085" lon="5.55354">
        <ele>488.6</ele>
        <time>2023-08-30T10:34:07Z</time>
      </trkpt>
      <trkpt lat="46.62083" lon="5.55354">
        <ele>488.6</ele>
        <time>2023-08-30T10:34:08Z</time>
      </trkpt>
      <trkpt lat="46.62081" lon="5.55353">
        <ele>488.6</ele>
        <time>2023-08-30T10:34:09Z</time>
      </trkpt>
      <trkpt lat="46.62078" lon="5.55352">
        <ele>488.6</ele>
        <time>2023-08-30T10:34:10Z</time>
      </trkpt>
      <trkpt lat="46.62076" lon="5.55352">
        <ele>488.6</ele>
        <time>2023-08-30T10:34:11Z</time>
      </trkpt>
      <trkpt lat="46.62074" lon="5.55351">
        <ele>488.6</ele>
        <time>2023-08-30T10:34:12Z</time>
      </trkpt>
      <trkpt lat="46.62071" lon="5.55351">
        <ele>488.6</ele>
        <time>2023-08-30T10:34:13Z</time>
      </trkpt>
      <trkpt lat="46.62069" lon="5.55351">
        <ele>488.6</ele>
        <time>2023-08-30T10:34:14Z</time>
      </trkpt>
      <trkpt lat="46.62066" lon="5.5535">
        <ele>489</ele>
        <time>2023-08-30T10:34:15Z</time>
      </trkpt>
      <trkpt lat="46.62064" lon="5.5535">
        <ele>489</ele>
        <time>2023-08-30T10:34:16Z</time>
      </trkpt>
      <trkpt lat="46.62061" lon="5.55349">
        <ele>489</ele>
        <time>2023-08-30T10:34:17Z</time>
      </trkpt>
      <trkpt lat="46.62059" lon="5.55349">
        <ele>489.6</ele>
        <time>2023-08-30T10:34:18Z</time>
      </trkpt>
      <trkpt lat="46.62056" lon="5.55349">
        <ele>489.6</ele>
        <time>2023-08-30T10:34:19Z</time>
      </trkpt>
      <trkpt lat="46.62053" lon="5.55349">
        <ele>489.6</ele>
        <time>2023-08-30T10:34:20Z</time>
      </trkpt>
      <trkpt lat="46.62051" lon="5.5535">
        <ele>489.6</ele>
        <time>2023-08-30T10:34:21Z</time>
      </trkpt>
      <trkpt lat="46.62048" lon="5.5535">
        <ele>489.6</ele>
        <time>2023-08-30T10:34:22Z</time>
      </trkpt>
      <trkpt lat="46.62045" lon="5.55351">
        <ele>490.6</ele>
        <time>2023-08-30T10:34:23Z</time>
      </trkpt>
      <trkpt lat="46.62043" lon="5.55352">
        <ele>490.8</ele>
        <time>2023-08-30T10:34:24Z</time>
      </trkpt>
      <trkpt lat="46.6204" lon="5.55353">
        <ele>490.8</ele>
        <time>2023-08-30T10:34:25Z</time>
      </trkpt>
      <trkpt lat="46.62037" lon="5.55354">
        <ele>490.8</ele>
        <time>2023-08-30T10:34:26Z</time>
      </trkpt>
      <trkpt lat="46.62035" lon="5.55354">
        <ele>490.8</ele>
        <time>2023-08-30T10:34:27Z</time>
      </trkpt>
      <trkpt lat="46.62032" lon="5.55356">
        <ele>491.8</ele>
        <time>2023-08-30T10:34:28Z</time>
      </trkpt>
      <trkpt lat="46.6203" lon="5.55357">
        <ele>491.8</ele>
        <time>2023-08-30T10:34:29Z</time>
      </trkpt>
      <trkpt lat="46.62027" lon="5.55357">
        <ele>491.8</ele>
        <time>2023-08-30T10:34:30Z</time>
      </trkpt>
      <trkpt lat="46.62024" lon="5.55358">
        <ele>491.8</ele>
        <time>2023-08-30T10:34:31Z</time>
      </trkpt>
      <trkpt lat="46.62022" lon="5.55359">
        <ele>491.8</ele>
        <time>2023-08-30T10:34:32Z</time>
      </trkpt>
      <trkpt lat="46.62019" lon="5.55359">
        <ele>492.8</ele>
        <time>2023-08-30T10:34:33Z</time>
      </trkpt>
      <trkpt lat="46.62017" lon="5.5536">
        <ele>493.2</ele>
        <time>2023-08-30T10:34:34Z</time>
      </trkpt>
      <trkpt lat="46.62014" lon="5.55361">
        <ele>493.2</ele>
        <time>2023-08-30T10:34:35Z</time>
      </trkpt>
      <trkpt lat="46.62012" lon="5.55362">
        <ele>493.2</ele>
        <time>2023-08-30T10:34:36Z</time>
      </trkpt>
      <trkpt lat="46.62009" lon="5.55364">
        <ele>494</ele>
        <time>2023-08-30T10:34:37Z</time>
      </trkpt>
      <trkpt lat="46.62006" lon="5.55366">
        <ele>494.4</ele>
        <time>2023-08-30T10:34:38Z</time>
      </trkpt>
      <trkpt lat="46.62004" lon="5.55366">
        <ele>494.4</ele>
        <time>2023-08-30T10:34:39Z</time>
      </trkpt>
      <trkpt lat="46.62002" lon="5.55368">
        <ele>494.4</ele>
        <time>2023-08-30T10:34:40Z</time>
      </trkpt>
      <trkpt lat="46.61999" lon="5.55369">
        <ele>495.2</ele>
        <time>2023-08-30T10:34:41Z</time>
      </trkpt>
      <trkpt lat="46.61997" lon="5.55371">
        <ele>495.6</ele>
        <time>2023-08-30T10:34:42Z</time>
      </trkpt>
      <trkpt lat="46.61994" lon="5.55372">
        <ele>495.6</ele>
        <time>2023-08-30T10:34:43Z</time>
      </trkpt>
      <trkpt lat="46.61992" lon="5.55374">
        <ele>495.6</ele>
        <time>2023-08-30T10:34:44Z</time>
      </trkpt>
      <trkpt lat="46.61989" lon="5.55375">
        <ele>495.6</ele>
        <time>2023-08-30T10:34:45Z</time>
      </trkpt>
      <trkpt lat="46.61987" lon="5.55376">
        <ele>496.4</ele>
        <time>2023-08-30T10:34:46Z</time>
      </trkpt>
      <trkpt lat="46.61985" lon="5.55377">
        <ele>496.8</ele>
        <time>2023-08-30T10:34:47Z</time>
      </trkpt>
      <trkpt lat="46.61982" lon="5.55378">
        <ele>496.8</ele>
        <time>2023-08-30T10:34:48Z</time>
      </trkpt>
      <trkpt lat="46.6198" lon="5.5538">
        <ele>496.8</ele>
        <time>2023-08-30T10:34:49Z</time>
      </trkpt>
      <trkpt lat="46.61977" lon="5.55381">
        <ele>497.8</ele>
        <time>2023-08-30T10:34:50Z</time>
      </trkpt>
      <trkpt lat="46.61975" lon="5.55382">
        <ele>497.8</ele>
        <time>2023-08-30T10:34:51Z</time>
      </trkpt>
      <trkpt lat="46.61973" lon="5.55384">
        <ele>497.8</ele>
        <time>2023-08-30T10:34:52Z</time>
      </trkpt>
      <trkpt lat="46.6197" lon="5.55385">
        <ele>497.8</ele>
        <time>2023-08-30T10:34:53Z</time>
      </trkpt>
      <trkpt lat="46.61968" lon="5.55386">
        <ele>498.8</ele>
        <time>2023-08-30T10:34:54Z</time>
      </trkpt>
      <trkpt lat="46.61966" lon="5.55388">
        <ele>499.4</ele>
        <time>2023-08-30T10:34:55Z</time>
      </trkpt>
      <trkpt lat="46.61963" lon="5.55389">
        <ele>499.4</ele>
        <time>2023-08-30T10:34:56Z</time>
      </trkpt>
      <trkpt lat="46.61961" lon="5.5539">
        <ele>499.4</ele>
        <time>2023-08-30T10:34:57Z</time>
      </trkpt>
      <trkpt lat="46.61959" lon="5.55391">
        <ele>499.4</ele>
        <time>2023-08-30T10:34:58Z</time>
      </trkpt>
      <trkpt lat="46.61957" lon="5.55392">
        <ele>500.4</ele>
        <time>2023-08-30T10:34:59Z</time>
      </trkpt>
      <trkpt lat="46.61954" lon="5.55393">
        <ele>501</ele>
        <time>2023-08-30T10:35:00Z</time>
      </trkpt>
      <trkpt lat="46.61951" lon="5.55395">
        <ele>501</ele>
        <time>2023-08-30T10:35:01Z</time>
      </trkpt>
      <trkpt lat="46.61949" lon="5.55397">
        <ele>501</ele>
        <time>2023-08-30T10:35:02Z</time>
      </trkpt>
      <trkpt lat="46.61946" lon="5.55398">
        <ele>502</ele>
        <time>2023-08-30T10:35:03Z</time>
      </trkpt>
      <trkpt lat="46.61944" lon="5.55399">
        <ele>502.8</ele>
        <time>2023-08-30T10:35:04Z</time>
      </trkpt>
      <trkpt lat="46.61942" lon="5.554">
        <ele>502.8</ele>
        <time>2023-08-30T10:35:05Z</time>
      </trkpt>
      <trkpt lat="46.6194" lon="5.55401">
        <ele>502.8</ele>
        <time>2023-08-30T10:35:06Z</time>
      </trkpt>
      <trkpt lat="46.61938" lon="5.55403">
        <ele>502.8</ele>
        <time>2023-08-30T10:35:07Z</time>
      </trkpt>
      <trkpt lat="46.61935" lon="5.55404">
        <ele>503.8</ele>
        <time>2023-08-30T10:35:08Z</time>
      </trkpt>
      <trkpt lat="46.61933" lon="5.55405">
        <ele>504</ele>
        <time>2023-08-30T10:35:09Z</time>
      </trkpt>
      <trkpt lat="46.61931" lon="5.55406">
        <ele>504</ele>
        <time>2023-08-30T10:35:10Z</time>
      </trkpt>
      <trkpt lat="46.61929" lon="5.55407">
        <ele>504</ele>
        <time>2023-08-30T10:35:11Z</time>
      </trkpt>
      <trkpt lat="46.61926" lon="5.55408">
        <ele>504</ele>
        <time>2023-08-30T10:35:12Z</time>
      </trkpt>
      <trkpt lat="46.61924" lon="5.5541">
        <ele>504.6</ele>
        <time>2023-08-30T10:35:13Z</time>
      </trkpt>
      <trkpt lat="46.61922" lon="5.55411">
        <ele>505.4</ele>
        <time>2023-08-30T10:35:14Z</time>
      </trkpt>
      <trkpt lat="46.6192" lon="5.55411">
        <ele>505.4</ele>
        <time>2023-08-30T10:35:15Z</time>
      </trkpt>
      <trkpt lat="46.61918" lon="5.55412">
        <ele>505.4</ele>
        <time>2023-08-30T10:35:16Z</time>
      </trkpt>
      <trkpt lat="46.61916" lon="5.55413">
        <ele>505.4</ele>
        <time>2023-08-30T10:35:17Z</time>
      </trkpt>
      <trkpt lat="46.61913" lon="5.55414">
        <ele>505.4</ele>
        <time>2023-08-30T10:35:18Z</time>
      </trkpt>
      <trkpt lat="46.61911" lon="5.55415">
        <ele>506</ele>
        <time>2023-08-30T10:35:19Z</time>
      </trkpt>
      <trkpt lat="46.61909" lon="5.55416">
        <ele>506</ele>
        <time>2023-08-30T10:35:20Z</time>
      </trkpt>
      <trkpt lat="46.61907" lon="5.55416">
        <ele>506</ele>
        <time>2023-08-30T10:35:21Z</time>
      </trkpt>
      <trkpt lat="46.61905" lon="5.55417">
        <ele>507</ele>
        <time>2023-08-30T10:35:22Z</time>
      </trkpt>
      <trkpt lat="46.61902" lon="5.55418">
        <ele>507.4</ele>
        <time>2023-08-30T10:35:23Z</time>
      </trkpt>
      <trkpt lat="46.619" lon="5.55418">
        <ele>507.4</ele>
        <time>2023-08-30T10:35:24Z</time>
      </trkpt>
      <trkpt lat="46.61898" lon="5.55419">
        <ele>507.4</ele>
        <time>2023-08-30T10:35:25Z</time>
      </trkpt>
      <trkpt lat="46.61895" lon="5.55419">
        <ele>507.4</ele>
        <time>2023-08-30T10:35:26Z</time>
      </trkpt>
      <trkpt lat="46.61893" lon="5.5542">
        <ele>508.2</ele>
        <time>2023-08-30T10:35:27Z</time>
      </trkpt>
      <trkpt lat="46.6189" lon="5.55421">
        <ele>508.2</ele>
        <time>2023-08-30T10:35:28Z</time>
      </trkpt>
      <trkpt lat="46.61888" lon="5.55422">
        <ele>508.2</ele>
        <time>2023-08-30T10:35:29Z</time>
      </trkpt>
      <trkpt lat="46.61885" lon="5.55422">
        <ele>508.8</ele>
        <time>2023-08-30T10:35:30Z</time>
      </trkpt>
      <trkpt lat="46.61883" lon="5.55423">
        <ele>508.8</ele>
        <time>2023-08-30T10:35:31Z</time>
      </trkpt>
      <trkpt lat="46.6188" lon="5.55424">
        <ele>508.8</ele>
        <time>2023-08-30T10:35:32Z</time>
      </trkpt>
      <trkpt lat="46.61878" lon="5.55424">
        <ele>508.8</ele>
        <time>2023-08-30T10:35:33Z</time>
      </trkpt>
      <trkpt lat="46.61875" lon="5.55425">
        <ele>508.8</ele>
        <time>2023-08-30T10:35:34Z</time>
      </trkpt>
      <trkpt lat="46.61873" lon="5.55426">
        <ele>509.6</ele>
        <time>2023-08-30T10:35:35Z</time>
      </trkpt>
      <trkpt lat="46.6187" lon="5.55427">
        <ele>509.8</ele>
        <time>2023-08-30T10:35:36Z</time>
      </trkpt>
      <trkpt lat="46.61868" lon="5.55428">
        <ele>509.8</ele>
        <time>2023-08-30T10:35:37Z</time>
      </trkpt>
      <trkpt lat="46.61866" lon="5.55429">
        <ele>509.8</ele>
        <time>2023-08-30T10:35:38Z</time>
      </trkpt>
      <trkpt lat="46.61863" lon="5.5543">
        <ele>510</ele>
        <time>2023-08-30T10:35:39Z</time>
      </trkpt>
      <trkpt lat="46.61861" lon="5.5543">
        <ele>510.6</ele>
        <time>2023-08-30T10:35:40Z</time>
      </trkpt>
      <trkpt lat="46.61858" lon="5.55431">
        <ele>510.6</ele>
        <time>2023-08-30T10:35:41Z</time>
      </trkpt>
      <trkpt lat="46.61855" lon="5.55431">
        <ele>510.6</ele>
        <time>2023-08-30T10:35:42Z</time>
      </trkpt>
      <trkpt lat="46.61853" lon="5.55432">
        <ele>510.6</ele>
        <time>2023-08-30T10:35:43Z</time>
      </trkpt>
      <trkpt lat="46.6185" lon="5.55432">
        <ele>510.6</ele>
        <time>2023-08-30T10:35:44Z</time>
      </trkpt>
      <trkpt lat="46.61848" lon="5.55433">
        <ele>511</ele>
        <time>2023-08-30T10:35:45Z</time>
      </trkpt>
      <trkpt lat="46.61845" lon="5.55433">
        <ele>511</ele>
        <time>2023-08-30T10:35:46Z</time>
      </trkpt>
      <trkpt lat="46.61842" lon="5.55434">
        <ele>511</ele>
        <time>2023-08-30T10:35:47Z</time>
      </trkpt>
      <trkpt lat="46.6184" lon="5.55434">
        <ele>511</ele>
        <time>2023-08-30T10:35:48Z</time>
      </trkpt>
      <trkpt lat="46.61837" lon="5.55434">
        <ele>511</ele>
        <time>2023-08-30T10:35:49Z</time>
      </trkpt>
      <trkpt lat="46.61834" lon="5.55434">
        <ele>511.2</ele>
        <time>2023-08-30T10:35:50Z</time>
      </trkpt>
      <trkpt lat="46.61831" lon="5.55435">
        <ele>511.2</ele>
        <time>2023-08-30T10:35:51Z</time>
      </trkpt>
      <trkpt lat="46.61828" lon="5.55435">
        <ele>511.2</ele>
        <time>2023-08-30T10:35:52Z</time>
      </trkpt>
      <trkpt lat="46.61825" lon="5.55435">
        <ele>511</ele>
        <time>2023-08-30T10:35:53Z</time>
      </trkpt>
      <trkpt lat="46.61823" lon="5.55436">
        <ele>511</ele>
        <time>2023-08-30T10:35:54Z</time>
      </trkpt>
      <trkpt lat="46.6182" lon="5.55436">
        <ele>511</ele>
        <time>2023-08-30T10:35:55Z</time>
      </trkpt>
      <trkpt lat="46.61817" lon="5.55437">
        <ele>511</ele>
        <time>2023-08-30T10:35:56Z</time>
      </trkpt>
      <trkpt lat="46.61812" lon="5.55438">
        <ele>511</ele>
        <time>2023-08-30T10:35:57Z</time>
      </trkpt>
      <trkpt lat="46.61811" lon="5.55438">
        <ele>511</ele>
        <time>2023-08-30T10:35:58Z</time>
      </trkpt>
      <trkpt lat="46.61808" lon="5.55438">
        <ele>511</ele>
        <time>2023-08-30T10:35:59Z</time>
      </trkpt>
      <trkpt lat="46.61805" lon="5.55439">
        <ele>511</ele>
        <time>2023-08-30T10:36:00Z</time>
      </trkpt>
      <trkpt lat="46.61802" lon="5.5544">
        <ele>511</ele>
        <time>2023-08-30T10:36:01Z</time>
      </trkpt>
      <trkpt lat="46.61799" lon="5.5544">
        <ele>511</ele>
        <time>2023-08-30T10:36:02Z</time>
      </trkpt>
      <trkpt lat="46.61796" lon="5.5544">
        <ele>510.8</ele>
        <time>2023-08-30T10:36:03Z</time>
      </trkpt>
      <trkpt lat="46.61793" lon="5.55441">
        <ele>510.8</ele>
        <time>2023-08-30T10:36:04Z</time>
      </trkpt>
      <trkpt lat="46.6179" lon="5.55441">
        <ele>510.8</ele>
        <time>2023-08-30T10:36:05Z</time>
      </trkpt>
      <trkpt lat="46.61786" lon="5.55442">
        <ele>510.8</ele>
        <time>2023-08-30T10:36:06Z</time>
      </trkpt>
      <trkpt lat="46.61783" lon="5.55443">
        <ele>510.8</ele>
        <time>2023-08-30T10:36:07Z</time>
      </trkpt>
      <trkpt lat="46.6178" lon="5.55443">
        <ele>511</ele>
        <time>2023-08-30T10:36:08Z</time>
      </trkpt>
      <trkpt lat="46.61777" lon="5.55443">
        <ele>511</ele>
        <time>2023-08-30T10:36:09Z</time>
      </trkpt>
      <trkpt lat="46.61774" lon="5.55444">
        <ele>511</ele>
        <time>2023-08-30T10:36:10Z</time>
      </trkpt>
      <trkpt lat="46.61771" lon="5.55444">
        <ele>511</ele>
        <time>2023-08-30T10:36:11Z</time>
      </trkpt>
      <trkpt lat="46.61768" lon="5.55445">
        <ele>510.8</ele>
        <time>2023-08-30T10:36:12Z</time>
      </trkpt>
      <trkpt lat="46.61765" lon="5.55445">
        <ele>510.8</ele>
        <time>2023-08-30T10:36:13Z</time>
      </trkpt>
      <trkpt lat="46.61763" lon="5.55446">
        <ele>511</ele>
        <time>2023-08-30T10:36:14Z</time>
      </trkpt>
      <trkpt lat="46.6176" lon="5.55447">
        <ele>511</ele>
        <time>2023-08-30T10:36:15Z</time>
      </trkpt>
      <trkpt lat="46.61757" lon="5.55448">
        <ele>511</ele>
        <time>2023-08-30T10:36:16Z</time>
      </trkpt>
      <trkpt lat="46.61755" lon="5.55448">
        <ele>511.2</ele>
        <time>2023-08-30T10:36:17Z</time>
      </trkpt>
      <trkpt lat="46.61752" lon="5.55448">
        <ele>511.2</ele>
        <time>2023-08-30T10:36:18Z</time>
      </trkpt>
      <trkpt lat="46.6175" lon="5.55449">
        <ele>511.2</ele>
        <time>2023-08-30T10:36:19Z</time>
      </trkpt>
      <trkpt lat="46.61748" lon="5.5545">
        <ele>511.2</ele>
        <time>2023-08-30T10:36:20Z</time>
      </trkpt>
      <trkpt lat="46.61745" lon="5.55451">
        <ele>511.2</ele>
        <time>2023-08-30T10:36:21Z</time>
      </trkpt>
      <trkpt lat="46.61743" lon="5.55451">
        <ele>511.2</ele>
        <time>2023-08-30T10:36:22Z</time>
      </trkpt>
      <trkpt lat="46.61741" lon="5.55452">
        <ele>511.2</ele>
        <time>2023-08-30T10:36:23Z</time>
      </trkpt>
      <trkpt lat="46.61738" lon="5.55452">
        <ele>511.2</ele>
        <time>2023-08-30T10:36:24Z</time>
      </trkpt>
      <trkpt lat="46.61737" lon="5.55452">
        <ele>511.2</ele>
        <time>2023-08-30T10:36:25Z</time>
      </trkpt>
      <trkpt lat="46.61735" lon="5.55453">
        <ele>511.4</ele>
        <time>2023-08-30T10:36:26Z</time>
      </trkpt>
      <trkpt lat="46.61732" lon="5.55453">
        <ele>511.4</ele>
        <time>2023-08-30T10:36:27Z</time>
      </trkpt>
      <trkpt lat="46.6173" lon="5.55454">
        <ele>511.4</ele>
        <time>2023-08-30T10:36:28Z</time>
      </trkpt>
      <trkpt lat="46.61728" lon="5.55454">
        <ele>511.4</ele>
        <time>2023-08-30T10:36:29Z</time>
      </trkpt>
      <trkpt lat="46.61725" lon="5.55455">
        <ele>511.4</ele>
        <time>2023-08-30T10:36:30Z</time>
      </trkpt>
      <trkpt lat="46.61723" lon="5.55455">
        <ele>511.4</ele>
        <time>2023-08-30T10:36:31Z</time>
      </trkpt>
      <trkpt lat="46.61721" lon="5.55455">
        <ele>511.4</ele>
        <time>2023-08-30T10:36:32Z</time>
      </trkpt>
      <trkpt lat="46.61719" lon="5.55455">
        <ele>511.4</ele>
        <time>2023-08-30T10:36:33Z</time>
      </trkpt>
      <trkpt lat="46.61716" lon="5.55455">
        <ele>511.6</ele>
        <time>2023-08-30T10:36:34Z</time>
      </trkpt>
      <trkpt lat="46.61714" lon="5.55456">
        <ele>511.6</ele>
        <time>2023-08-30T10:36:35Z</time>
      </trkpt>
      <trkpt lat="46.61712" lon="5.55456">
        <ele>511.8</ele>
        <time>2023-08-30T10:36:36Z</time>
      </trkpt>
      <trkpt lat="46.6171" lon="5.55457">
        <ele>511.8</ele>
        <time>2023-08-30T10:36:37Z</time>
      </trkpt>
      <trkpt lat="46.61708" lon="5.55458">
        <ele>511.8</ele>
        <time>2023-08-30T10:36:38Z</time>
      </trkpt>
      <trkpt lat="46.61706" lon="5.55458">
        <ele>512</ele>
        <time>2023-08-30T10:36:39Z</time>
      </trkpt>
      <trkpt lat="46.61704" lon="5.55458">
        <ele>512</ele>
        <time>2023-08-30T10:36:40Z</time>
      </trkpt>
      <trkpt lat="46.61702" lon="5.55459">
        <ele>512</ele>
        <time>2023-08-30T10:36:41Z</time>
      </trkpt>
      <trkpt lat="46.617" lon="5.55459">
        <ele>512</ele>
        <time>2023-08-30T10:36:42Z</time>
      </trkpt>
      <trkpt lat="46.61698" lon="5.55459">
        <ele>512</ele>
        <time>2023-08-30T10:36:43Z</time>
      </trkpt>
      <trkpt lat="46.61696" lon="5.55459">
        <ele>512.6</ele>
        <time>2023-08-30T10:36:44Z</time>
      </trkpt>
      <trkpt lat="46.61694" lon="5.55459">
        <ele>512.6</ele>
        <time>2023-08-30T10:36:45Z</time>
      </trkpt>
      <trkpt lat="46.61692" lon="5.55458">
        <ele>512.6</ele>
        <time>2023-08-30T10:36:46Z</time>
      </trkpt>
      <trkpt lat="46.6169" lon="5.55457">
        <ele>512.8</ele>
        <time>2023-08-30T10:36:47Z</time>
      </trkpt>
      <trkpt lat="46.61688" lon="5.55456">
        <ele>512.8</ele>
        <time>2023-08-30T10:36:48Z</time>
      </trkpt>
      <trkpt lat="46.61685" lon="5.55455">
        <ele>512.8</ele>
        <time>2023-08-30T10:36:49Z</time>
      </trkpt>
      <trkpt lat="46.61683" lon="5.55454">
        <ele>513</ele>
        <time>2023-08-30T10:36:50Z</time>
      </trkpt>
      <trkpt lat="46.61682" lon="5.55453">
        <ele>513</ele>
        <time>2023-08-30T10:36:51Z</time>
      </trkpt>
      <trkpt lat="46.6168" lon="5.55452">
        <ele>513</ele>
        <time>2023-08-30T10:36:52Z</time>
      </trkpt>
      <trkpt lat="46.61678" lon="5.55451">
        <ele>512.8</ele>
        <time>2023-08-30T10:36:53Z</time>
      </trkpt>
      <trkpt lat="46.61675" lon="5.55449">
        <ele>512.8</ele>
        <time>2023-08-30T10:36:54Z</time>
      </trkpt>
      <trkpt lat="46.61673" lon="5.55448">
        <ele>512.8</ele>
        <time>2023-08-30T10:36:55Z</time>
      </trkpt>
      <trkpt lat="46.61671" lon="5.55446">
        <ele>512.8</ele>
        <time>2023-08-30T10:36:56Z</time>
      </trkpt>
      <trkpt lat="46.61669" lon="5.55444">
        <ele>512.8</ele>
        <time>2023-08-30T10:36:57Z</time>
      </trkpt>
      <trkpt lat="46.61666" lon="5.55443">
        <ele>512.8</ele>
        <time>2023-08-30T10:36:58Z</time>
      </trkpt>
      <trkpt lat="46.61664" lon="5.55441">
        <ele>513</ele>
        <time>2023-08-30T10:36:59Z</time>
      </trkpt>
      <trkpt lat="46.61661" lon="5.5544">
        <ele>513</ele>
        <time>2023-08-30T10:37:00Z</time>
      </trkpt>
      <trkpt lat="46.61659" lon="5.55438">
        <ele>512.8</ele>
        <time>2023-08-30T10:37:01Z</time>
      </trkpt>
      <trkpt lat="46.61657" lon="5.55436">
        <ele>513</ele>
        <time>2023-08-30T10:37:02Z</time>
      </trkpt>
      <trkpt lat="46.61654" lon="5.55434">
        <ele>513</ele>
        <time>2023-08-30T10:37:03Z</time>
      </trkpt>
      <trkpt lat="46.61651" lon="5.55432">
        <ele>513</ele>
        <time>2023-08-30T10:37:04Z</time>
      </trkpt>
      <trkpt lat="46.61648" lon="5.5543">
        <ele>513</ele>
        <time>2023-08-30T10:37:05Z</time>
      </trkpt>
      <trkpt lat="46.61646" lon="5.55428">
        <ele>513</ele>
        <time>2023-08-30T10:37:06Z</time>
      </trkpt>
      <trkpt lat="46.61642" lon="5.55426">
        <ele>512.8</ele>
        <time>2023-08-30T10:37:07Z</time>
      </trkpt>
      <trkpt lat="46.61639" lon="5.55424">
        <ele>513</ele>
        <time>2023-08-30T10:37:08Z</time>
      </trkpt>
      <trkpt lat="46.61637" lon="5.55423">
        <ele>513</ele>
        <time>2023-08-30T10:37:09Z</time>
      </trkpt>
      <trkpt lat="46.61634" lon="5.5542">
        <ele>513</ele>
        <time>2023-08-30T10:37:10Z</time>
      </trkpt>
      <trkpt lat="46.61631" lon="5.55418">
        <ele>513</ele>
        <time>2023-08-30T10:37:11Z</time>
      </trkpt>
      <trkpt lat="46.61629" lon="5.55416">
        <ele>513</ele>
        <time>2023-08-30T10:37:12Z</time>
      </trkpt>
      <trkpt lat="46.61626" lon="5.55415">
        <ele>513</ele>
        <time>2023-08-30T10:37:13Z</time>
      </trkpt>
      <trkpt lat="46.61623" lon="5.55413">
        <ele>513</ele>
        <time>2023-08-30T10:37:14Z</time>
      </trkpt>
      <trkpt lat="46.61621" lon="5.55412">
        <ele>512.8</ele>
        <time>2023-08-30T10:37:15Z</time>
      </trkpt>
      <trkpt lat="46.61618" lon="5.5541">
        <ele>512.8</ele>
        <time>2023-08-30T10:37:16Z</time>
      </trkpt>
      <trkpt lat="46.61615" lon="5.5541">
        <ele>512.8</ele>
        <time>2023-08-30T10:37:17Z</time>
      </trkpt>
      <trkpt lat="46.61611" lon="5.5541">
        <ele>512.8</ele>
        <time>2023-08-30T10:37:18Z</time>
      </trkpt>
      <trkpt lat="46.61608" lon="5.5541">
        <ele>512.8</ele>
        <time>2023-08-30T10:37:19Z</time>
      </trkpt>
      <trkpt lat="46.61604" lon="5.55411">
        <ele>512.4</ele>
        <time>2023-08-30T10:37:20Z</time>
      </trkpt>
      <trkpt lat="46.616" lon="5.55412">
        <ele>512.4</ele>
        <time>2023-08-30T10:37:21Z</time>
      </trkpt>
      <trkpt lat="46.61596" lon="5.55413">
        <ele>512.6</ele>
        <time>2023-08-30T10:37:22Z</time>
      </trkpt>
      <trkpt lat="46.61592" lon="5.55414">
        <ele>512.6</ele>
        <time>2023-08-30T10:37:23Z</time>
      </trkpt>
      <trkpt lat="46.61586" lon="5.55415">
        <ele>512.6</ele>
        <time>2023-08-30T10:37:24Z</time>
      </trkpt>
      <trkpt lat="46.61584" lon="5.55415">
        <ele>512.6</ele>
        <time>2023-08-30T10:37:25Z</time>
      </trkpt>
      <trkpt lat="46.6158" lon="5.55416">
        <ele>513</ele>
        <time>2023-08-30T10:37:26Z</time>
      </trkpt>
      <trkpt lat="46.61574" lon="5.55417">
        <ele>513</ele>
        <time>2023-08-30T10:37:27Z</time>
      </trkpt>
      <trkpt lat="46.61573" lon="5.55417">
        <ele>513</ele>
        <time>2023-08-30T10:37:28Z</time>
      </trkpt>
      <trkpt lat="46.6157" lon="5.55418">
        <ele>513</ele>
        <time>2023-08-30T10:37:29Z</time>
      </trkpt>
      <trkpt lat="46.61567" lon="5.55418">
        <ele>513</ele>
        <time>2023-08-30T10:37:30Z</time>
      </trkpt>
      <trkpt lat="46.61564" lon="5.55418">
        <ele>513.2</ele>
        <time>2023-08-30T10:37:31Z</time>
      </trkpt>
      <trkpt lat="46.61561" lon="5.55419">
        <ele>513.2</ele>
        <time>2023-08-30T10:37:32Z</time>
      </trkpt>
      <trkpt lat="46.61559" lon="5.55418">
        <ele>513.2</ele>
        <time>2023-08-30T10:37:33Z</time>
      </trkpt>
      <trkpt lat="46.61556" lon="5.55418">
        <ele>513.2</ele>
        <time>2023-08-30T10:37:34Z</time>
      </trkpt>
      <trkpt lat="46.61554" lon="5.55418">
        <ele>513.4</ele>
        <time>2023-08-30T10:37:35Z</time>
      </trkpt>
      <trkpt lat="46.61552" lon="5.55417">
        <ele>513.4</ele>
        <time>2023-08-30T10:37:36Z</time>
      </trkpt>
      <trkpt lat="46.61552" lon="5.55417">
        <ele>513.4</ele>
        <time>2023-08-30T10:37:37Z</time>
      </trkpt>
      <trkpt lat="46.61552" lon="5.55417">
        <ele>513.4</ele>
        <time>2023-08-30T10:37:38Z</time>
      </trkpt>
      <trkpt lat="46.61552" lon="5.55417">
        <ele>514</ele>
        <time>2023-08-30T10:37:39Z</time>
      </trkpt>
      <trkpt lat="46.61551" lon="5.55417">
        <ele>514</ele>
        <time>2023-08-30T10:37:40Z</time>
      </trkpt>
      <trkpt lat="46.61549" lon="5.55418">
        <ele>514</ele>
        <time>2023-08-30T10:37:41Z</time>
      </trkpt>
      <trkpt lat="46.61549" lon="5.5542">
        <ele>514</ele>
        <time>2023-08-30T10:37:42Z</time>
      </trkpt>
      <trkpt lat="46.61549" lon="5.55423">
        <ele>514</ele>
        <time>2023-08-30T10:37:43Z</time>
      </trkpt>
      <trkpt lat="46.61549" lon="5.55426">
        <ele>514.2</ele>
        <time>2023-08-30T10:37:44Z</time>
      </trkpt>
      <trkpt lat="46.61548" lon="5.55429">
        <ele>514.2</ele>
        <time>2023-08-30T10:37:45Z</time>
      </trkpt>
      <trkpt lat="46.61548" lon="5.55433">
        <ele>514.2</ele>
        <time>2023-08-30T10:37:46Z</time>
      </trkpt>
      <trkpt lat="46.61547" lon="5.55436">
        <ele>514.4</ele>
        <time>2023-08-30T10:37:47Z</time>
      </trkpt>
      <trkpt lat="46.61546" lon="5.5544">
        <ele>514.6</ele>
        <time>2023-08-30T10:37:48Z</time>
      </trkpt>
      <trkpt lat="46.61546" lon="5.55443">
        <ele>514.6</ele>
        <time>2023-08-30T10:37:49Z</time>
      </trkpt>
      <trkpt lat="46.61545" lon="5.55446">
        <ele>514.6</ele>
        <time>2023-08-30T10:37:50Z</time>
      </trkpt>
      <trkpt lat="46.61544" lon="5.55449">
        <ele>514.6</ele>
        <time>2023-08-30T10:37:51Z</time>
      </trkpt>
      <trkpt lat="46.61543" lon="5.55452">
        <ele>515.2</ele>
        <time>2023-08-30T10:37:52Z</time>
      </trkpt>
      <trkpt lat="46.61542" lon="5.55456">
        <ele>515.4</ele>
        <time>2023-08-30T10:37:53Z</time>
      </trkpt>
      <trkpt lat="46.61541" lon="5.55459">
        <ele>515.4</ele>
        <time>2023-08-30T10:37:54Z</time>
      </trkpt>
      <trkpt lat="46.6154" lon="5.55463">
        <ele>515.4</ele>
        <time>2023-08-30T10:37:55Z</time>
      </trkpt>
      <trkpt lat="46.61539" lon="5.55466">
        <ele>516</ele>
        <time>2023-08-30T10:37:56Z</time>
      </trkpt>
      <trkpt lat="46.61538" lon="5.5547">
        <ele>516.2</ele>
        <time>2023-08-30T10:37:57Z</time>
      </trkpt>
      <trkpt lat="46.61537" lon="5.55474">
        <ele>516.2</ele>
        <time>2023-08-30T10:37:58Z</time>
      </trkpt>
      <trkpt lat="46.61536" lon="5.55477">
        <ele>516.2</ele>
        <time>2023-08-30T10:37:59Z</time>
      </trkpt>
      <trkpt lat="46.61535" lon="5.5548">
        <ele>516.2</ele>
        <time>2023-08-30T10:38:00Z</time>
      </trkpt>
      <trkpt lat="46.61534" lon="5.55483">
        <ele>516.2</ele>
        <time>2023-08-30T10:38:01Z</time>
      </trkpt>
      <trkpt lat="46.61533" lon="5.55485">
        <ele>516.2</ele>
        <time>2023-08-30T10:38:02Z</time>
      </trkpt>
      <trkpt lat="46.61532" lon="5.55488">
        <ele>516.6</ele>
        <time>2023-08-30T10:38:03Z</time>
      </trkpt>
      <trkpt lat="46.61531" lon="5.55492">
        <ele>516.6</ele>
        <time>2023-08-30T10:38:04Z</time>
      </trkpt>
      <trkpt lat="46.6153" lon="5.55496">
        <ele>516.6</ele>
        <time>2023-08-30T10:38:05Z</time>
      </trkpt>
      <trkpt lat="46.61529" lon="5.55499">
        <ele>516.8</ele>
        <time>2023-08-30T10:38:06Z</time>
      </trkpt>
      <trkpt lat="46.61529" lon="5.55503">
        <ele>516.8</ele>
        <time>2023-08-30T10:38:07Z</time>
      </trkpt>
      <trkpt lat="46.61528" lon="5.55507">
        <ele>516.8</ele>
        <time>2023-08-30T10:38:08Z</time>
      </trkpt>
      <trkpt lat="46.61527" lon="5.55511">
        <ele>516.8</ele>
        <time>2023-08-30T10:38:09Z</time>
      </trkpt>
      <trkpt lat="46.61526" lon="5.55514">
        <ele>516.6</ele>
        <time>2023-08-30T10:38:10Z</time>
      </trkpt>
      <trkpt lat="46.61526" lon="5.55519">
        <ele>516.6</ele>
        <time>2023-08-30T10:38:11Z</time>
      </trkpt>
      <trkpt lat="46.61525" lon="5.55523">
        <ele>516.6</ele>
        <time>2023-08-30T10:38:12Z</time>
      </trkpt>
      <trkpt lat="46.61525" lon="5.55527">
        <ele>516.6</ele>
        <time>2023-08-30T10:38:13Z</time>
      </trkpt>
      <trkpt lat="46.61525" lon="5.55531">
        <ele>516.6</ele>
        <time>2023-08-30T10:38:14Z</time>
      </trkpt>
      <trkpt lat="46.61524" lon="5.55535">
        <ele>516.6</ele>
        <time>2023-08-30T10:38:15Z</time>
      </trkpt>
      <trkpt lat="46.61524" lon="5.55539">
        <ele>517</ele>
        <time>2023-08-30T10:38:16Z</time>
      </trkpt>
      <trkpt lat="46.61524" lon="5.55543">
        <ele>517</ele>
        <time>2023-08-30T10:38:17Z</time>
      </trkpt>
      <trkpt lat="46.61524" lon="5.55548">
        <ele>517</ele>
        <time>2023-08-30T10:38:18Z</time>
      </trkpt>
      <trkpt lat="46.61525" lon="5.55552">
        <ele>517.2</ele>
        <time>2023-08-30T10:38:19Z</time>
      </trkpt>
      <trkpt lat="46.61525" lon="5.55557">
        <ele>517.2</ele>
        <time>2023-08-30T10:38:20Z</time>
      </trkpt>
      <trkpt lat="46.61525" lon="5.55561">
        <ele>517.2</ele>
        <time>2023-08-30T10:38:21Z</time>
      </trkpt>
      <trkpt lat="46.61525" lon="5.55566">
        <ele>517.2</ele>
        <time>2023-08-30T10:38:22Z</time>
      </trkpt>
      <trkpt lat="46.61525" lon="5.55571">
        <ele>517.2</ele>
        <time>2023-08-30T10:38:23Z</time>
      </trkpt>
      <trkpt lat="46.61526" lon="5.55576">
        <ele>517.4</ele>
        <time>2023-08-30T10:38:24Z</time>
      </trkpt>
      <trkpt lat="46.61526" lon="5.5558">
        <ele>517.4</ele>
        <time>2023-08-30T10:38:25Z</time>
      </trkpt>
      <trkpt lat="46.61526" lon="5.55585">
        <ele>517.4</ele>
        <time>2023-08-30T10:38:26Z</time>
      </trkpt>
      <trkpt lat="46.61526" lon="5.5559">
        <ele>517.4</ele>
        <time>2023-08-30T10:38:27Z</time>
      </trkpt>
      <trkpt lat="46.61526" lon="5.55595">
        <ele>517.4</ele>
        <time>2023-08-30T10:38:28Z</time>
      </trkpt>
      <trkpt lat="46.61526" lon="5.556">
        <ele>517.4</ele>
        <time>2023-08-30T10:38:29Z</time>
      </trkpt>
      <trkpt lat="46.61526" lon="5.55604">
        <ele>517.6</ele>
        <time>2023-08-30T10:38:30Z</time>
      </trkpt>
      <trkpt lat="46.61525" lon="5.55609">
        <ele>517.6</ele>
        <time>2023-08-30T10:38:31Z</time>
      </trkpt>
      <trkpt lat="46.61525" lon="5.55614">
        <ele>517.6</ele>
        <time>2023-08-30T10:38:32Z</time>
      </trkpt>
      <trkpt lat="46.61525" lon="5.55619">
        <ele>517.8</ele>
        <time>2023-08-30T10:38:33Z</time>
      </trkpt>
      <trkpt lat="46.61524" lon="5.55624">
        <ele>518</ele>
        <time>2023-08-30T10:38:34Z</time>
      </trkpt>
      <trkpt lat="46.61524" lon="5.55629">
        <ele>518</ele>
        <time>2023-08-30T10:38:35Z</time>
      </trkpt>
      <trkpt lat="46.61524" lon="5.55634">
        <ele>518</ele>
        <time>2023-08-30T10:38:36Z</time>
      </trkpt>
      <trkpt lat="46.61523" lon="5.55639">
        <ele>518</ele>
        <time>2023-08-30T10:38:37Z</time>
      </trkpt>
      <trkpt lat="46.61522" lon="5.55644">
        <ele>518</ele>
        <time>2023-08-30T10:38:38Z</time>
      </trkpt>
      <trkpt lat="46.61522" lon="5.55648">
        <ele>518.2</ele>
        <time>2023-08-30T10:38:39Z</time>
      </trkpt>
      <trkpt lat="46.61521" lon="5.55653">
        <ele>518.2</ele>
        <time>2023-08-30T10:38:40Z</time>
      </trkpt>
      <trkpt lat="46.6152" lon="5.55657">
        <ele>518.2</ele>
        <time>2023-08-30T10:38:41Z</time>
      </trkpt>
      <trkpt lat="46.6152" lon="5.55661">
        <ele>518.6</ele>
        <time>2023-08-30T10:38:42Z</time>
      </trkpt>
      <trkpt lat="46.61519" lon="5.55664">
        <ele>518.4</ele>
        <time>2023-08-30T10:38:43Z</time>
      </trkpt>
      <trkpt lat="46.61518" lon="5.55668">
        <ele>518.4</ele>
        <time>2023-08-30T10:38:44Z</time>
      </trkpt>
      <trkpt lat="46.61517" lon="5.55673">
        <ele>518.4</ele>
        <time>2023-08-30T10:38:45Z</time>
      </trkpt>
      <trkpt lat="46.61516" lon="5.55677">
        <ele>518.4</ele>
        <time>2023-08-30T10:38:46Z</time>
      </trkpt>
      <trkpt lat="46.61515" lon="5.55681">
        <ele>519.4</ele>
        <time>2023-08-30T10:38:47Z</time>
      </trkpt>
      <trkpt lat="46.61514" lon="5.55685">
        <ele>519.6</ele>
        <time>2023-08-30T10:38:48Z</time>
      </trkpt>
      <trkpt lat="46.61513" lon="5.55688">
        <ele>519.6</ele>
        <time>2023-08-30T10:38:49Z</time>
      </trkpt>
      <trkpt lat="46.61512" lon="5.55692">
        <ele>519.6</ele>
        <time>2023-08-30T10:38:50Z</time>
      </trkpt>
      <trkpt lat="46.61511" lon="5.55698">
        <ele>520.6</ele>
        <time>2023-08-30T10:38:51Z</time>
      </trkpt>
      <trkpt lat="46.6151" lon="5.557">
        <ele>520.6</ele>
        <time>2023-08-30T10:38:52Z</time>
      </trkpt>
      <trkpt lat="46.6151" lon="5.55704">
        <ele>521</ele>
        <time>2023-08-30T10:38:53Z</time>
      </trkpt>
      <trkpt lat="46.61509" lon="5.55708">
        <ele>521</ele>
        <time>2023-08-30T10:38:54Z</time>
      </trkpt>
      <trkpt lat="46.61508" lon="5.55712">
        <ele>521</ele>
        <time>2023-08-30T10:38:55Z</time>
      </trkpt>
      <trkpt lat="46.61507" lon="5.55716">
        <ele>522</ele>
        <time>2023-08-30T10:38:56Z</time>
      </trkpt>
      <trkpt lat="46.61506" lon="5.55719">
        <ele>522.2</ele>
        <time>2023-08-30T10:38:57Z</time>
      </trkpt>
      <trkpt lat="46.61506" lon="5.55723">
        <ele>522.2</ele>
        <time>2023-08-30T10:38:58Z</time>
      </trkpt>
      <trkpt lat="46.61505" lon="5.55728">
        <ele>522.2</ele>
        <time>2023-08-30T10:38:59Z</time>
      </trkpt>
      <trkpt lat="46.61505" lon="5.55732">
        <ele>522.2</ele>
        <time>2023-08-30T10:39:00Z</time>
      </trkpt>
      <trkpt lat="46.61505" lon="5.55737">
        <ele>523.2</ele>
        <time>2023-08-30T10:39:01Z</time>
      </trkpt>
      <trkpt lat="46.61505" lon="5.55741">
        <ele>523.4</ele>
        <time>2023-08-30T10:39:02Z</time>
      </trkpt>
      <trkpt lat="46.61506" lon="5.55746">
        <ele>523.4</ele>
        <time>2023-08-30T10:39:03Z</time>
      </trkpt>
      <trkpt lat="46.61506" lon="5.5575">
        <ele>523.4</ele>
        <time>2023-08-30T10:39:04Z</time>
      </trkpt>
      <trkpt lat="46.61507" lon="5.55755">
        <ele>523.4</ele>
        <time>2023-08-30T10:39:05Z</time>
      </trkpt>
      <trkpt lat="46.61508" lon="5.55759">
        <ele>524.4</ele>
        <time>2023-08-30T10:39:06Z</time>
      </trkpt>
      <trkpt lat="46.61509" lon="5.55763">
        <ele>524.8</ele>
        <time>2023-08-30T10:39:07Z</time>
      </trkpt>
      <trkpt lat="46.6151" lon="5.55767">
        <ele>524.8</ele>
        <time>2023-08-30T10:39:08Z</time>
      </trkpt>
      <trkpt lat="46.61511" lon="5.5577">
        <ele>524.8</ele>
        <time>2023-08-30T10:39:09Z</time>
      </trkpt>
      <trkpt lat="46.61512" lon="5.55775">
        <ele>525.8</ele>
        <time>2023-08-30T10:39:10Z</time>
      </trkpt>
      <trkpt lat="46.61513" lon="5.55777">
        <ele>526.2</ele>
        <time>2023-08-30T10:39:11Z</time>
      </trkpt>
      <trkpt lat="46.61516" lon="5.55781">
        <ele>526.2</ele>
        <time>2023-08-30T10:39:12Z</time>
      </trkpt>
      <trkpt lat="46.61517" lon="5.55782">
        <ele>526.2</ele>
        <time>2023-08-30T10:39:13Z</time>
      </trkpt>
      <trkpt lat="46.6152" lon="5.55786">
        <ele>526.2</ele>
        <time>2023-08-30T10:39:14Z</time>
      </trkpt>
      <trkpt lat="46.61521" lon="5.55788">
        <ele>526.6</ele>
        <time>2023-08-30T10:39:15Z</time>
      </trkpt>
      <trkpt lat="46.61524" lon="5.5579">
        <ele>526.6</ele>
        <time>2023-08-30T10:39:16Z</time>
      </trkpt>
      <trkpt lat="46.61527" lon="5.55792">
        <ele>526.6</ele>
        <time>2023-08-30T10:39:17Z</time>
      </trkpt>
      <trkpt lat="46.61529" lon="5.55794">
        <ele>526.6</ele>
        <time>2023-08-30T10:39:18Z</time>
      </trkpt>
      <trkpt lat="46.61532" lon="5.55796">
        <ele>526.6</ele>
        <time>2023-08-30T10:39:19Z</time>
      </trkpt>
      <trkpt lat="46.61535" lon="5.55798">
        <ele>527.6</ele>
        <time>2023-08-30T10:39:20Z</time>
      </trkpt>
      <trkpt lat="46.61538" lon="5.55799">
        <ele>527.8</ele>
        <time>2023-08-30T10:39:21Z</time>
      </trkpt>
      <trkpt lat="46.61541" lon="5.55802">
        <ele>527.8</ele>
        <time>2023-08-30T10:39:22Z</time>
      </trkpt>
      <trkpt lat="46.61544" lon="5.55804">
        <ele>527.8</ele>
        <time>2023-08-30T10:39:23Z</time>
      </trkpt>
      <trkpt lat="46.61547" lon="5.55807">
        <ele>528.6</ele>
        <time>2023-08-30T10:39:24Z</time>
      </trkpt>
      <trkpt lat="46.6155" lon="5.55809">
        <ele>529</ele>
        <time>2023-08-30T10:39:25Z</time>
      </trkpt>
      <trkpt lat="46.61553" lon="5.55812">
        <ele>529</ele>
        <time>2023-08-30T10:39:26Z</time>
      </trkpt>
      <trkpt lat="46.61556" lon="5.55815">
        <ele>529</ele>
        <time>2023-08-30T10:39:27Z</time>
      </trkpt>
      <trkpt lat="46.61559" lon="5.55818">
        <ele>529</ele>
        <time>2023-08-30T10:39:28Z</time>
      </trkpt>
      <trkpt lat="46.61562" lon="5.55821">
        <ele>529</ele>
        <time>2023-08-30T10:39:29Z</time>
      </trkpt>
      <trkpt lat="46.61565" lon="5.55825">
        <ele>529</ele>
        <time>2023-08-30T10:39:30Z</time>
      </trkpt>
      <trkpt lat="46.61568" lon="5.55829">
        <ele>529</ele>
        <time>2023-08-30T10:39:31Z</time>
      </trkpt>
      <trkpt lat="46.61572" lon="5.55835">
        <ele>529</ele>
        <time>2023-08-30T10:39:32Z</time>
      </trkpt>
      <trkpt lat="46.61574" lon="5.55837">
        <ele>529</ele>
        <time>2023-08-30T10:39:33Z</time>
      </trkpt>
      <trkpt lat="46.61578" lon="5.55843">
        <ele>529</ele>
        <time>2023-08-30T10:39:34Z</time>
      </trkpt>
      <trkpt lat="46.6158" lon="5.55845">
        <ele>529</ele>
        <time>2023-08-30T10:39:35Z</time>
      </trkpt>
      <trkpt lat="46.61584" lon="5.55851">
        <ele>529</ele>
        <time>2023-08-30T10:39:36Z</time>
      </trkpt>
      <trkpt lat="46.61585" lon="5.55853">
        <ele>529</ele>
        <time>2023-08-30T10:39:37Z</time>
      </trkpt>
      <trkpt lat="46.61589" lon="5.5586">
        <ele>529</ele>
        <time>2023-08-30T10:39:38Z</time>
      </trkpt>
      <trkpt lat="46.61591" lon="5.55862">
        <ele>529</ele>
        <time>2023-08-30T10:39:39Z</time>
      </trkpt>
      <trkpt lat="46.61593" lon="5.55867">
        <ele>529</ele>
        <time>2023-08-30T10:39:40Z</time>
      </trkpt>
      <trkpt lat="46.61596" lon="5.55871">
        <ele>529</ele>
        <time>2023-08-30T10:39:41Z</time>
      </trkpt>
      <trkpt lat="46.61597" lon="5.55876">
        <ele>529</ele>
        <time>2023-08-30T10:39:42Z</time>
      </trkpt>
      <trkpt lat="46.61599" lon="5.55881">
        <ele>528.8</ele>
        <time>2023-08-30T10:39:43Z</time>
      </trkpt>
      <trkpt lat="46.616" lon="5.55886">
        <ele>528.8</ele>
        <time>2023-08-30T10:39:44Z</time>
      </trkpt>
      <trkpt lat="46.61601" lon="5.55891">
        <ele>528.8</ele>
        <time>2023-08-30T10:39:45Z</time>
      </trkpt>
      <trkpt lat="46.61602" lon="5.55896">
        <ele>528.8</ele>
        <time>2023-08-30T10:39:46Z</time>
      </trkpt>
      <trkpt lat="46.61603" lon="5.55903">
        <ele>528.8</ele>
        <time>2023-08-30T10:39:47Z</time>
      </trkpt>
      <trkpt lat="46.61603" lon="5.55906">
        <ele>528.8</ele>
        <time>2023-08-30T10:39:48Z</time>
      </trkpt>
      <trkpt lat="46.61604" lon="5.55914">
        <ele>528.8</ele>
        <time>2023-08-30T10:39:49Z</time>
      </trkpt>
      <trkpt lat="46.61604" lon="5.55917">
        <ele>528.8</ele>
        <time>2023-08-30T10:39:50Z</time>
      </trkpt>
      <trkpt lat="46.61604" lon="5.55922">
        <ele>528.8</ele>
        <time>2023-08-30T10:39:51Z</time>
      </trkpt>
      <trkpt lat="46.61604" lon="5.55927">
        <ele>529</ele>
        <time>2023-08-30T10:39:52Z</time>
      </trkpt>
      <trkpt lat="46.61604" lon="5.55931">
        <ele>529.2</ele>
        <time>2023-08-30T10:39:53Z</time>
      </trkpt>
      <trkpt lat="46.61603" lon="5.55936">
        <ele>529.2</ele>
        <time>2023-08-30T10:39:54Z</time>
      </trkpt>
      <trkpt lat="46.61602" lon="5.55942">
        <ele>529.2</ele>
        <time>2023-08-30T10:39:55Z</time>
      </trkpt>
      <trkpt lat="46.61602" lon="5.55947">
        <ele>529.2</ele>
        <time>2023-08-30T10:39:56Z</time>
      </trkpt>
      <trkpt lat="46.61601" lon="5.55952">
        <ele>530</ele>
        <time>2023-08-30T10:39:57Z</time>
      </trkpt>
      <trkpt lat="46.61601" lon="5.55957">
        <ele>530</ele>
        <time>2023-08-30T10:39:58Z</time>
      </trkpt>
      <trkpt lat="46.61601" lon="5.55961">
        <ele>530</ele>
        <time>2023-08-30T10:39:59Z</time>
      </trkpt>
      <trkpt lat="46.61601" lon="5.55966">
        <ele>530</ele>
        <time>2023-08-30T10:40:00Z</time>
      </trkpt>
      <trkpt lat="46.61601" lon="5.5597">
        <ele>530.6</ele>
        <time>2023-08-30T10:40:01Z</time>
      </trkpt>
      <trkpt lat="46.61601" lon="5.55975">
        <ele>531</ele>
        <time>2023-08-30T10:40:02Z</time>
      </trkpt>
      <trkpt lat="46.61602" lon="5.5598">
        <ele>531</ele>
        <time>2023-08-30T10:40:03Z</time>
      </trkpt>
      <trkpt lat="46.61602" lon="5.55984">
        <ele>531</ele>
        <time>2023-08-30T10:40:04Z</time>
      </trkpt>
      <trkpt lat="46.61602" lon="5.55989">
        <ele>531.2</ele>
        <time>2023-08-30T10:40:05Z</time>
      </trkpt>
      <trkpt lat="46.61602" lon="5.55993">
        <ele>531.4</ele>
        <time>2023-08-30T10:40:06Z</time>
      </trkpt>
      <trkpt lat="46.61602" lon="5.55998">
        <ele>531.4</ele>
        <time>2023-08-30T10:40:07Z</time>
      </trkpt>
      <trkpt lat="46.61602" lon="5.56002">
        <ele>531.4</ele>
        <time>2023-08-30T10:40:08Z</time>
      </trkpt>
      <trkpt lat="46.61602" lon="5.56006">
        <ele>531.8</ele>
        <time>2023-08-30T10:40:09Z</time>
      </trkpt>
      <trkpt lat="46.61602" lon="5.5601">
        <ele>531.6</ele>
        <time>2023-08-30T10:40:10Z</time>
      </trkpt>
      <trkpt lat="46.61602" lon="5.56015">
        <ele>531.6</ele>
        <time>2023-08-30T10:40:11Z</time>
      </trkpt>
      <trkpt lat="46.61603" lon="5.56019">
        <ele>531.6</ele>
        <time>2023-08-30T10:40:12Z</time>
      </trkpt>
      <trkpt lat="46.61603" lon="5.56023">
        <ele>531.6</ele>
        <time>2023-08-30T10:40:13Z</time>
      </trkpt>
      <trkpt lat="46.61603" lon="5.56027">
        <ele>531.8</ele>
        <time>2023-08-30T10:40:14Z</time>
      </trkpt>
      <trkpt lat="46.61603" lon="5.56031">
        <ele>532</ele>
        <time>2023-08-30T10:40:15Z</time>
      </trkpt>
      <trkpt lat="46.61603" lon="5.56036">
        <ele>532</ele>
        <time>2023-08-30T10:40:16Z</time>
      </trkpt>
      <trkpt lat="46.61603" lon="5.5604">
        <ele>532</ele>
        <time>2023-08-30T10:40:17Z</time>
      </trkpt>
      <trkpt lat="46.61602" lon="5.56044">
        <ele>532</ele>
        <time>2023-08-30T10:40:18Z</time>
      </trkpt>
      <trkpt lat="46.61603" lon="5.56048">
        <ele>532.2</ele>
        <time>2023-08-30T10:40:19Z</time>
      </trkpt>
      <trkpt lat="46.61603" lon="5.56052">
        <ele>532.2</ele>
        <time>2023-08-30T10:40:20Z</time>
      </trkpt>
      <trkpt lat="46.61603" lon="5.56056">
        <ele>532.2</ele>
        <time>2023-08-30T10:40:21Z</time>
      </trkpt>
      <trkpt lat="46.61603" lon="5.5606">
        <ele>532.6</ele>
        <time>2023-08-30T10:40:22Z</time>
      </trkpt>
      <trkpt lat="46.61603" lon="5.56064">
        <ele>532.6</ele>
        <time>2023-08-30T10:40:23Z</time>
      </trkpt>
      <trkpt lat="46.61603" lon="5.56068">
        <ele>533</ele>
        <time>2023-08-30T10:40:24Z</time>
      </trkpt>
      <trkpt lat="46.61603" lon="5.56072">
        <ele>533</ele>
        <time>2023-08-30T10:40:25Z</time>
      </trkpt>
      <trkpt lat="46.61603" lon="5.56076">
        <ele>533</ele>
        <time>2023-08-30T10:40:26Z</time>
      </trkpt>
      <trkpt lat="46.61603" lon="5.56081">
        <ele>533.4</ele>
        <time>2023-08-30T10:40:27Z</time>
      </trkpt>
      <trkpt lat="46.61604" lon="5.56085">
        <ele>533.4</ele>
        <time>2023-08-30T10:40:28Z</time>
      </trkpt>
      <trkpt lat="46.61604" lon="5.56089">
        <ele>533.6</ele>
        <time>2023-08-30T10:40:29Z</time>
      </trkpt>
      <trkpt lat="46.61604" lon="5.56093">
        <ele>533.6</ele>
        <time>2023-08-30T10:40:30Z</time>
      </trkpt>
      <trkpt lat="46.61604" lon="5.56097">
        <ele>533.6</ele>
        <time>2023-08-30T10:40:31Z</time>
      </trkpt>
      <trkpt lat="46.61605" lon="5.56101">
        <ele>534</ele>
        <time>2023-08-30T10:40:32Z</time>
      </trkpt>
      <trkpt lat="46.61605" lon="5.56106">
        <ele>534.2</ele>
        <time>2023-08-30T10:40:33Z</time>
      </trkpt>
      <trkpt lat="46.61605" lon="5.5611">
        <ele>534.2</ele>
        <time>2023-08-30T10:40:34Z</time>
      </trkpt>
      <trkpt lat="46.61605" lon="5.56114">
        <ele>534.2</ele>
        <time>2023-08-30T10:40:35Z</time>
      </trkpt>
      <trkpt lat="46.61604" lon="5.56118">
        <ele>534.2</ele>
        <time>2023-08-30T10:40:36Z</time>
      </trkpt>
      <trkpt lat="46.61604" lon="5.56123">
        <ele>534.4</ele>
        <time>2023-08-30T10:40:37Z</time>
      </trkpt>
      <trkpt lat="46.61605" lon="5.56127">
        <ele>534.6</ele>
        <time>2023-08-30T10:40:38Z</time>
      </trkpt>
      <trkpt lat="46.61605" lon="5.56132">
        <ele>534.6</ele>
        <time>2023-08-30T10:40:39Z</time>
      </trkpt>
      <trkpt lat="46.61605" lon="5.56136">
        <ele>534.6</ele>
        <time>2023-08-30T10:40:40Z</time>
      </trkpt>
      <trkpt lat="46.61605" lon="5.56141">
        <ele>534.6</ele>
        <time>2023-08-30T10:40:41Z</time>
      </trkpt>
      <trkpt lat="46.61605" lon="5.56146">
        <ele>534.6</ele>
        <time>2023-08-30T10:40:42Z</time>
      </trkpt>
      <trkpt lat="46.61605" lon="5.56151">
        <ele>534.6</ele>
        <time>2023-08-30T10:40:43Z</time>
      </trkpt>
      <trkpt lat="46.61606" lon="5.56155">
        <ele>534.6</ele>
        <time>2023-08-30T10:40:44Z</time>
      </trkpt>
      <trkpt lat="46.61606" lon="5.5616">
        <ele>534.8</ele>
        <time>2023-08-30T10:40:45Z</time>
      </trkpt>
      <trkpt lat="46.61607" lon="5.56164">
        <ele>534.8</ele>
        <time>2023-08-30T10:40:46Z</time>
      </trkpt>
      <trkpt lat="46.61608" lon="5.56168">
        <ele>534.6</ele>
        <time>2023-08-30T10:40:47Z</time>
      </trkpt>
      <trkpt lat="46.61608" lon="5.56173">
        <ele>534.6</ele>
        <time>2023-08-30T10:40:48Z</time>
      </trkpt>
      <trkpt lat="46.61609" lon="5.56177">
        <ele>534.6</ele>
        <time>2023-08-30T10:40:49Z</time>
      </trkpt>
      <trkpt lat="46.6161" lon="5.56182">
        <ele>534.6</ele>
        <time>2023-08-30T10:40:50Z</time>
      </trkpt>
      <trkpt lat="46.61611" lon="5.56186">
        <ele>534.6</ele>
        <time>2023-08-30T10:40:51Z</time>
      </trkpt>
      <trkpt lat="46.61612" lon="5.5619">
        <ele>534.6</ele>
        <time>2023-08-30T10:40:52Z</time>
      </trkpt>
      <trkpt lat="46.61613" lon="5.56194">
        <ele>534.6</ele>
        <time>2023-08-30T10:40:53Z</time>
      </trkpt>
      <trkpt lat="46.61614" lon="5.56198">
        <ele>534.6</ele>
        <time>2023-08-30T10:40:54Z</time>
      </trkpt>
      <trkpt lat="46.61615" lon="5.56202">
        <ele>534.6</ele>
        <time>2023-08-30T10:40:55Z</time>
      </trkpt>
      <trkpt lat="46.61616" lon="5.56206">
        <ele>534.6</ele>
        <time>2023-08-30T10:40:56Z</time>
      </trkpt>
      <trkpt lat="46.61617" lon="5.5621">
        <ele>534.6</ele>
        <time>2023-08-30T10:40:57Z</time>
      </trkpt>
      <trkpt lat="46.61618" lon="5.56213">
        <ele>534.6</ele>
        <time>2023-08-30T10:40:58Z</time>
      </trkpt>
      <trkpt lat="46.61619" lon="5.56217">
        <ele>534.6</ele>
        <time>2023-08-30T10:40:59Z</time>
      </trkpt>
      <trkpt lat="46.6162" lon="5.56221">
        <ele>535</ele>
        <time>2023-08-30T10:41:00Z</time>
      </trkpt>
      <trkpt lat="46.61621" lon="5.56225">
        <ele>535</ele>
        <time>2023-08-30T10:41:01Z</time>
      </trkpt>
      <trkpt lat="46.61622" lon="5.56229">
        <ele>535</ele>
        <time>2023-08-30T10:41:02Z</time>
      </trkpt>
      <trkpt lat="46.61624" lon="5.56233">
        <ele>535</ele>
        <time>2023-08-30T10:41:03Z</time>
      </trkpt>
      <trkpt lat="46.61625" lon="5.56237">
        <ele>535.8</ele>
        <time>2023-08-30T10:41:04Z</time>
      </trkpt>
      <trkpt lat="46.61627" lon="5.56241">
        <ele>535.8</ele>
        <time>2023-08-30T10:41:05Z</time>
      </trkpt>
      <trkpt lat="46.61628" lon="5.56245">
        <ele>535.8</ele>
        <time>2023-08-30T10:41:06Z</time>
      </trkpt>
      <trkpt lat="46.61629" lon="5.56248">
        <ele>536.6</ele>
        <time>2023-08-30T10:41:07Z</time>
      </trkpt>
      <trkpt lat="46.6163" lon="5.56252">
        <ele>537</ele>
        <time>2023-08-30T10:41:08Z</time>
      </trkpt>
      <trkpt lat="46.61631" lon="5.56256">
        <ele>537</ele>
        <time>2023-08-30T10:41:09Z</time>
      </trkpt>
      <trkpt lat="46.61633" lon="5.56261">
        <ele>537</ele>
        <time>2023-08-30T10:41:10Z</time>
      </trkpt>
      <trkpt lat="46.61634" lon="5.56265">
        <ele>537</ele>
        <time>2023-08-30T10:41:11Z</time>
      </trkpt>
      <trkpt lat="46.61635" lon="5.56268">
        <ele>537</ele>
        <time>2023-08-30T10:41:12Z</time>
      </trkpt>
      <trkpt lat="46.61636" lon="5.56272">
        <ele>537.4</ele>
        <time>2023-08-30T10:41:13Z</time>
      </trkpt>
      <trkpt lat="46.61637" lon="5.56276">
        <ele>537.8</ele>
        <time>2023-08-30T10:41:14Z</time>
      </trkpt>
      <trkpt lat="46.61638" lon="5.5628">
        <ele>537.8</ele>
        <time>2023-08-30T10:41:15Z</time>
      </trkpt>
      <trkpt lat="46.6164" lon="5.56284">
        <ele>537.8</ele>
        <time>2023-08-30T10:41:16Z</time>
      </trkpt>
      <trkpt lat="46.6164" lon="5.56288">
        <ele>538</ele>
        <time>2023-08-30T10:41:17Z</time>
      </trkpt>
      <trkpt lat="46.61641" lon="5.56292">
        <ele>538.2</ele>
        <time>2023-08-30T10:41:18Z</time>
      </trkpt>
      <trkpt lat="46.61642" lon="5.56297">
        <ele>538.2</ele>
        <time>2023-08-30T10:41:19Z</time>
      </trkpt>
      <trkpt lat="46.61642" lon="5.56301">
        <ele>538.2</ele>
        <time>2023-08-30T10:41:20Z</time>
      </trkpt>
      <trkpt lat="46.61643" lon="5.56305">
        <ele>538.2</ele>
        <time>2023-08-30T10:41:21Z</time>
      </trkpt>
      <trkpt lat="46.61643" lon="5.56309">
        <ele>538.4</ele>
        <time>2023-08-30T10:41:22Z</time>
      </trkpt>
      <trkpt lat="46.61643" lon="5.56314">
        <ele>538.4</ele>
        <time>2023-08-30T10:41:23Z</time>
      </trkpt>
      <trkpt lat="46.61644" lon="5.56318">
        <ele>538.4</ele>
        <time>2023-08-30T10:41:24Z</time>
      </trkpt>
      <trkpt lat="46.61644" lon="5.56322">
        <ele>538.4</ele>
        <time>2023-08-30T10:41:25Z</time>
      </trkpt>
      <trkpt lat="46.61644" lon="5.56327">
        <ele>538.4</ele>
        <time>2023-08-30T10:41:26Z</time>
      </trkpt>
      <trkpt lat="46.61644" lon="5.56332">
        <ele>538.6</ele>
        <time>2023-08-30T10:41:27Z</time>
      </trkpt>
      <trkpt lat="46.61644" lon="5.56337">
        <ele>538.6</ele>
        <time>2023-08-30T10:41:28Z</time>
      </trkpt>
      <trkpt lat="46.61644" lon="5.56342">
        <ele>538.6</ele>
        <time>2023-08-30T10:41:29Z</time>
      </trkpt>
      <trkpt lat="46.61644" lon="5.56347">
        <ele>538.6</ele>
        <time>2023-08-30T10:41:30Z</time>
      </trkpt>
      <trkpt lat="46.61645" lon="5.56353">
        <ele>538.6</ele>
        <time>2023-08-30T10:41:31Z</time>
      </trkpt>
      <trkpt lat="46.61645" lon="5.56361">
        <ele>539</ele>
        <time>2023-08-30T10:41:32Z</time>
      </trkpt>
      <trkpt lat="46.61645" lon="5.56365">
        <ele>539</ele>
        <time>2023-08-30T10:41:33Z</time>
      </trkpt>
      <trkpt lat="46.61645" lon="5.56371">
        <ele>539</ele>
        <time>2023-08-30T10:41:34Z</time>
      </trkpt>
      <trkpt lat="46.61645" lon="5.56381">
        <ele>539</ele>
        <time>2023-08-30T10:41:35Z</time>
      </trkpt>
      <trkpt lat="46.61645" lon="5.56385">
        <ele>539.2</ele>
        <time>2023-08-30T10:41:36Z</time>
      </trkpt>
      <trkpt lat="46.61645" lon="5.56393">
        <ele>539.2</ele>
        <time>2023-08-30T10:41:37Z</time>
      </trkpt>
      <trkpt lat="46.61645" lon="5.56401">
        <ele>539.2</ele>
        <time>2023-08-30T10:41:38Z</time>
      </trkpt>
      <trkpt lat="46.61646" lon="5.5641">
        <ele>539.2</ele>
        <time>2023-08-30T10:41:39Z</time>
      </trkpt>
      <trkpt lat="46.61646" lon="5.56419">
        <ele>539.8</ele>
        <time>2023-08-30T10:41:40Z</time>
      </trkpt>
      <trkpt lat="46.61646" lon="5.56429">
        <ele>539.8</ele>
        <time>2023-08-30T10:41:41Z</time>
      </trkpt>
      <trkpt lat="46.61647" lon="5.56439">
        <ele>539.8</ele>
        <time>2023-08-30T10:41:42Z</time>
      </trkpt>
      <trkpt lat="46.61648" lon="5.56453">
        <ele>539.8</ele>
        <time>2023-08-30T10:41:43Z</time>
      </trkpt>
      <trkpt lat="46.61649" lon="5.56458">
        <ele>539.8</ele>
        <time>2023-08-30T10:41:44Z</time>
      </trkpt>
      <trkpt lat="46.61651" lon="5.56468">
        <ele>540</ele>
        <time>2023-08-30T10:41:45Z</time>
      </trkpt>
      <trkpt lat="46.61653" lon="5.56477">
        <ele>540</ele>
        <time>2023-08-30T10:41:46Z</time>
      </trkpt>
      <trkpt lat="46.61656" lon="5.56486">
        <ele>540</ele>
        <time>2023-08-30T10:41:47Z</time>
      </trkpt>
      <trkpt lat="46.6166" lon="5.56502">
        <ele>540</ele>
        <time>2023-08-30T10:41:48Z</time>
      </trkpt>
      <trkpt lat="46.61661" lon="5.56507">
        <ele>539.6</ele>
        <time>2023-08-30T10:41:49Z</time>
      </trkpt>
      <trkpt lat="46.61663" lon="5.56518">
        <ele>539.6</ele>
        <time>2023-08-30T10:41:50Z</time>
      </trkpt>
      <trkpt lat="46.61665" lon="5.56529">
        <ele>539.6</ele>
        <time>2023-08-30T10:41:51Z</time>
      </trkpt>
      <trkpt lat="46.61667" lon="5.56541">
        <ele>539.6</ele>
        <time>2023-08-30T10:41:52Z</time>
      </trkpt>
      <trkpt lat="46.61667" lon="5.56553">
        <ele>539.6</ele>
        <time>2023-08-30T10:41:53Z</time>
      </trkpt>
      <trkpt lat="46.61667" lon="5.56566">
        <ele>539.4</ele>
        <time>2023-08-30T10:41:54Z</time>
      </trkpt>
      <trkpt lat="46.61664" lon="5.56578">
        <ele>539.4</ele>
        <time>2023-08-30T10:41:55Z</time>
      </trkpt>
      <trkpt lat="46.61661" lon="5.56589">
        <ele>539.4</ele>
        <time>2023-08-30T10:41:56Z</time>
      </trkpt>
      <trkpt lat="46.61657" lon="5.56599">
        <ele>539.4</ele>
        <time>2023-08-30T10:41:57Z</time>
      </trkpt>
      <trkpt lat="46.61653" lon="5.56608">
        <ele>539.4</ele>
        <time>2023-08-30T10:41:58Z</time>
      </trkpt>
      <trkpt lat="46.61648" lon="5.56617">
        <ele>539.4</ele>
        <time>2023-08-30T10:41:59Z</time>
      </trkpt>
      <trkpt lat="46.61641" lon="5.5663">
        <ele>539.4</ele>
        <time>2023-08-30T10:42:00Z</time>
      </trkpt>
      <trkpt lat="46.61638" lon="5.56635">
        <ele>539.4</ele>
        <time>2023-08-30T10:42:01Z</time>
      </trkpt>
      <trkpt lat="46.61633" lon="5.56644">
        <ele>539.6</ele>
        <time>2023-08-30T10:42:02Z</time>
      </trkpt>
      <trkpt lat="46.61629" lon="5.56653">
        <ele>539.6</ele>
        <time>2023-08-30T10:42:03Z</time>
      </trkpt>
      <trkpt lat="46.61624" lon="5.56661">
        <ele>539.4</ele>
        <time>2023-08-30T10:42:04Z</time>
      </trkpt>
      <trkpt lat="46.6162" lon="5.5667">
        <ele>539.4</ele>
        <time>2023-08-30T10:42:05Z</time>
      </trkpt>
      <trkpt lat="46.61616" lon="5.56678">
        <ele>539.4</ele>
        <time>2023-08-30T10:42:06Z</time>
      </trkpt>
      <trkpt lat="46.61612" lon="5.56687">
        <ele>539.8</ele>
        <time>2023-08-30T10:42:07Z</time>
      </trkpt>
      <trkpt lat="46.61608" lon="5.56696">
        <ele>539.8</ele>
        <time>2023-08-30T10:42:08Z</time>
      </trkpt>
      <trkpt lat="46.61604" lon="5.56705">
        <ele>539.8</ele>
        <time>2023-08-30T10:42:09Z</time>
      </trkpt>
      <trkpt lat="46.616" lon="5.56714">
        <ele>539.8</ele>
        <time>2023-08-30T10:42:10Z</time>
      </trkpt>
      <trkpt lat="46.61597" lon="5.56723">
        <ele>539.8</ele>
        <time>2023-08-30T10:42:11Z</time>
      </trkpt>
      <trkpt lat="46.61593" lon="5.56733">
        <ele>539.6</ele>
        <time>2023-08-30T10:42:12Z</time>
      </trkpt>
      <trkpt lat="46.6159" lon="5.56743">
        <ele>539.6</ele>
        <time>2023-08-30T10:42:13Z</time>
      </trkpt>
      <trkpt lat="46.61588" lon="5.56754">
        <ele>539.6</ele>
        <time>2023-08-30T10:42:14Z</time>
      </trkpt>
      <trkpt lat="46.61587" lon="5.56764">
        <ele>539.4</ele>
        <time>2023-08-30T10:42:15Z</time>
      </trkpt>
      <trkpt lat="46.61585" lon="5.5678">
        <ele>539.4</ele>
        <time>2023-08-30T10:42:16Z</time>
      </trkpt>
      <trkpt lat="46.61584" lon="5.56786">
        <ele>539.2</ele>
        <time>2023-08-30T10:42:17Z</time>
      </trkpt>
      <trkpt lat="46.61583" lon="5.56796">
        <ele>539.2</ele>
        <time>2023-08-30T10:42:18Z</time>
      </trkpt>
      <trkpt lat="46.61582" lon="5.56806">
        <ele>539.2</ele>
        <time>2023-08-30T10:42:19Z</time>
      </trkpt>
      <trkpt lat="46.61581" lon="5.56815">
        <ele>539.2</ele>
        <time>2023-08-30T10:42:20Z</time>
      </trkpt>
      <trkpt lat="46.6158" lon="5.56824">
        <ele>539</ele>
        <time>2023-08-30T10:42:21Z</time>
      </trkpt>
      <trkpt lat="46.61579" lon="5.56834">
        <ele>539</ele>
        <time>2023-08-30T10:42:22Z</time>
      </trkpt>
      <trkpt lat="46.61579" lon="5.56843">
        <ele>539</ele>
        <time>2023-08-30T10:42:23Z</time>
      </trkpt>
      <trkpt lat="46.61578" lon="5.56852">
        <ele>539</ele>
        <time>2023-08-30T10:42:24Z</time>
      </trkpt>
      <trkpt lat="46.61578" lon="5.56861">
        <ele>538.4</ele>
        <time>2023-08-30T10:42:25Z</time>
      </trkpt>
      <trkpt lat="46.61577" lon="5.56871">
        <ele>538.4</ele>
        <time>2023-08-30T10:42:26Z</time>
      </trkpt>
      <trkpt lat="46.61577" lon="5.5688">
        <ele>538.4</ele>
        <time>2023-08-30T10:42:27Z</time>
      </trkpt>
      <trkpt lat="46.61576" lon="5.5689">
        <ele>538.4</ele>
        <time>2023-08-30T10:42:28Z</time>
      </trkpt>
      <trkpt lat="46.61576" lon="5.569">
        <ele>538.2</ele>
        <time>2023-08-30T10:42:29Z</time>
      </trkpt>
      <trkpt lat="46.61576" lon="5.56911">
        <ele>538</ele>
        <time>2023-08-30T10:42:30Z</time>
      </trkpt>
      <trkpt lat="46.61576" lon="5.56921">
        <ele>538</ele>
        <time>2023-08-30T10:42:31Z</time>
      </trkpt>
      <trkpt lat="46.61577" lon="5.56937">
        <ele>538</ele>
        <time>2023-08-30T10:42:32Z</time>
      </trkpt>
      <trkpt lat="46.61577" lon="5.56942">
        <ele>538</ele>
        <time>2023-08-30T10:42:33Z</time>
      </trkpt>
      <trkpt lat="46.61578" lon="5.56953">
        <ele>537.6</ele>
        <time>2023-08-30T10:42:34Z</time>
      </trkpt>
      <trkpt lat="46.61579" lon="5.56963">
        <ele>537.6</ele>
        <time>2023-08-30T10:42:35Z</time>
      </trkpt>
      <trkpt lat="46.61581" lon="5.56974">
        <ele>537.6</ele>
        <time>2023-08-30T10:42:36Z</time>
      </trkpt>
      <trkpt lat="46.61582" lon="5.56986">
        <ele>537.2</ele>
        <time>2023-08-30T10:42:37Z</time>
      </trkpt>
      <trkpt lat="46.61583" lon="5.56997">
        <ele>537.2</ele>
        <time>2023-08-30T10:42:38Z</time>
      </trkpt>
      <trkpt lat="46.61584" lon="5.57008">
        <ele>536.8</ele>
        <time>2023-08-30T10:42:39Z</time>
      </trkpt>
      <trkpt lat="46.61584" lon="5.57019">
        <ele>536.8</ele>
        <time>2023-08-30T10:42:40Z</time>
      </trkpt>
      <trkpt lat="46.61584" lon="5.57031">
        <ele>536.8</ele>
        <time>2023-08-30T10:42:41Z</time>
      </trkpt>
      <trkpt lat="46.61584" lon="5.57042">
        <ele>536.8</ele>
        <time>2023-08-30T10:42:42Z</time>
      </trkpt>
      <trkpt lat="46.61583" lon="5.57053">
        <ele>536.6</ele>
        <time>2023-08-30T10:42:43Z</time>
      </trkpt>
      <trkpt lat="46.61582" lon="5.57069">
        <ele>536.4</ele>
        <time>2023-08-30T10:42:44Z</time>
      </trkpt>
      <trkpt lat="46.61582" lon="5.57074">
        <ele>536.4</ele>
        <time>2023-08-30T10:42:45Z</time>
      </trkpt>
      <trkpt lat="46.61581" lon="5.57085">
        <ele>536.4</ele>
        <time>2023-08-30T10:42:46Z</time>
      </trkpt>
      <trkpt lat="46.6158" lon="5.57095">
        <ele>536.4</ele>
        <time>2023-08-30T10:42:47Z</time>
      </trkpt>
      <trkpt lat="46.61578" lon="5.57105">
        <ele>535.8</ele>
        <time>2023-08-30T10:42:48Z</time>
      </trkpt>
      <trkpt lat="46.61577" lon="5.57114">
        <ele>535.8</ele>
        <time>2023-08-30T10:42:49Z</time>
      </trkpt>
      <trkpt lat="46.61576" lon="5.57124">
        <ele>535.8</ele>
        <time>2023-08-30T10:42:50Z</time>
      </trkpt>
      <trkpt lat="46.61574" lon="5.57133">
        <ele>535.8</ele>
        <time>2023-08-30T10:42:51Z</time>
      </trkpt>
      <trkpt lat="46.61573" lon="5.57147">
        <ele>535.8</ele>
        <time>2023-08-30T10:42:52Z</time>
      </trkpt>
      <trkpt lat="46.61572" lon="5.57151">
        <ele>535.4</ele>
        <time>2023-08-30T10:42:53Z</time>
      </trkpt>
      <trkpt lat="46.61571" lon="5.57161">
        <ele>535.4</ele>
        <time>2023-08-30T10:42:54Z</time>
      </trkpt>
      <trkpt lat="46.61569" lon="5.5717">
        <ele>535.4</ele>
        <time>2023-08-30T10:42:55Z</time>
      </trkpt>
      <trkpt lat="46.61567" lon="5.57179">
        <ele>535.2</ele>
        <time>2023-08-30T10:42:56Z</time>
      </trkpt>
      <trkpt lat="46.61565" lon="5.57187">
        <ele>535.2</ele>
        <time>2023-08-30T10:42:57Z</time>
      </trkpt>
      <trkpt lat="46.61564" lon="5.57196">
        <ele>535.2</ele>
        <time>2023-08-30T10:42:58Z</time>
      </trkpt>
      <trkpt lat="46.61561" lon="5.5721">
        <ele>535.2</ele>
        <time>2023-08-30T10:42:59Z</time>
      </trkpt>
      <trkpt lat="46.61561" lon="5.57215">
        <ele>535.2</ele>
        <time>2023-08-30T10:43:00Z</time>
      </trkpt>
      <trkpt lat="46.6156" lon="5.57224">
        <ele>535.2</ele>
        <time>2023-08-30T10:43:01Z</time>
      </trkpt>
      <trkpt lat="46.61559" lon="5.57232">
        <ele>535.2</ele>
        <time>2023-08-30T10:43:02Z</time>
      </trkpt>
      <trkpt lat="46.61558" lon="5.57241">
        <ele>535.2</ele>
        <time>2023-08-30T10:43:03Z</time>
      </trkpt>
      <trkpt lat="46.61558" lon="5.5725">
        <ele>535.2</ele>
        <time>2023-08-30T10:43:04Z</time>
      </trkpt>
      <trkpt lat="46.61557" lon="5.57259">
        <ele>535</ele>
        <time>2023-08-30T10:43:05Z</time>
      </trkpt>
      <trkpt lat="46.61557" lon="5.57268">
        <ele>534.6</ele>
        <time>2023-08-30T10:43:06Z</time>
      </trkpt>
      <trkpt lat="46.61555" lon="5.57276">
        <ele>534.6</ele>
        <time>2023-08-30T10:43:07Z</time>
      </trkpt>
      <trkpt lat="46.61553" lon="5.57284">
        <ele>534.6</ele>
        <time>2023-08-30T10:43:08Z</time>
      </trkpt>
      <trkpt lat="46.61549" lon="5.5729">
        <ele>535</ele>
        <time>2023-08-30T10:43:09Z</time>
      </trkpt>
      <trkpt lat="46.61544" lon="5.57294">
        <ele>534.8</ele>
        <time>2023-08-30T10:43:10Z</time>
      </trkpt>
      <trkpt lat="46.61539" lon="5.57295">
        <ele>534.8</ele>
        <time>2023-08-30T10:43:11Z</time>
      </trkpt>
      <trkpt lat="46.61535" lon="5.57294">
        <ele>534.8</ele>
        <time>2023-08-30T10:43:12Z</time>
      </trkpt>
      <trkpt lat="46.6153" lon="5.57293">
        <ele>534.8</ele>
        <time>2023-08-30T10:43:13Z</time>
      </trkpt>
      <trkpt lat="46.61526" lon="5.57291">
        <ele>535.4</ele>
        <time>2023-08-30T10:43:14Z</time>
      </trkpt>
      <trkpt lat="46.61522" lon="5.57289">
        <ele>535.4</ele>
        <time>2023-08-30T10:43:15Z</time>
      </trkpt>
      <trkpt lat="46.61519" lon="5.57288">
        <ele>535.4</ele>
        <time>2023-08-30T10:43:16Z</time>
      </trkpt>
      <trkpt lat="46.61516" lon="5.57287">
        <ele>535.4</ele>
        <time>2023-08-30T10:43:17Z</time>
      </trkpt>
      <trkpt lat="46.61515" lon="5.57286">
        <ele>535.6</ele>
        <time>2023-08-30T10:43:18Z</time>
      </trkpt>
      <trkpt lat="46.61515" lon="5.57286">
        <ele>535.6</ele>
        <time>2023-08-30T10:43:19Z</time>
      </trkpt>
      <trkpt lat="46.61515" lon="5.57286">
        <ele>538</ele>
        <time>2023-08-30T10:46:01Z</time>
      </trkpt>
      <trkpt lat="46.61513" lon="5.57286">
        <ele>538</ele>
        <time>2023-08-30T10:46:02Z</time>
      </trkpt>
      <trkpt lat="46.61511" lon="5.57286">
        <ele>538</ele>
        <time>2023-08-30T10:46:03Z</time>
      </trkpt>
      <trkpt lat="46.61509" lon="5.57285">
        <ele>538</ele>
        <time>2023-08-30T10:46:04Z</time>
      </trkpt>
      <trkpt lat="46.61506" lon="5.57285">
        <ele>538.2</ele>
        <time>2023-08-30T10:46:05Z</time>
      </trkpt>
      <trkpt lat="46.61504" lon="5.57284">
        <ele>538.2</ele>
        <time>2023-08-30T10:46:06Z</time>
      </trkpt>
      <trkpt lat="46.61501" lon="5.57282">
        <ele>538.2</ele>
        <time>2023-08-30T10:46:07Z</time>
      </trkpt>
      <trkpt lat="46.61498" lon="5.57281">
        <ele>538.2</ele>
        <time>2023-08-30T10:46:08Z</time>
      </trkpt>
      <trkpt lat="46.61495" lon="5.5728">
        <ele>538.2</ele>
        <time>2023-08-30T10:46:09Z</time>
      </trkpt>
      <trkpt lat="46.61492" lon="5.57279">
        <ele>538.4</ele>
        <time>2023-08-30T10:46:10Z</time>
      </trkpt>
      <trkpt lat="46.61489" lon="5.57278">
        <ele>538.4</ele>
        <time>2023-08-30T10:46:11Z</time>
      </trkpt>
      <trkpt lat="46.61485" lon="5.57277">
        <ele>538.4</ele>
        <time>2023-08-30T10:46:12Z</time>
      </trkpt>
      <trkpt lat="46.61482" lon="5.57276">
        <ele>538.4</ele>
        <time>2023-08-30T10:46:13Z</time>
      </trkpt>
      <trkpt lat="46.61478" lon="5.57274">
        <ele>538.6</ele>
        <time>2023-08-30T10:46:14Z</time>
      </trkpt>
      <trkpt lat="46.61474" lon="5.57273">
        <ele>538.6</ele>
        <time>2023-08-30T10:46:15Z</time>
      </trkpt>
      <trkpt lat="46.61471" lon="5.57272">
        <ele>538.6</ele>
        <time>2023-08-30T10:46:16Z</time>
      </trkpt>
      <trkpt lat="46.61467" lon="5.5727">
        <ele>538.6</ele>
        <time>2023-08-30T10:46:17Z</time>
      </trkpt>
      <trkpt lat="46.61463" lon="5.57269">
        <ele>539</ele>
        <time>2023-08-30T10:46:18Z</time>
      </trkpt>
      <trkpt lat="46.6146" lon="5.57267">
        <ele>539.2</ele>
        <time>2023-08-30T10:46:19Z</time>
      </trkpt>
      <trkpt lat="46.61456" lon="5.57266">
        <ele>539.2</ele>
        <time>2023-08-30T10:46:20Z</time>
      </trkpt>
      <trkpt lat="46.61452" lon="5.57265">
        <ele>539.2</ele>
        <time>2023-08-30T10:46:21Z</time>
      </trkpt>
      <trkpt lat="46.61448" lon="5.57264">
        <ele>539.2</ele>
        <time>2023-08-30T10:46:22Z</time>
      </trkpt>
      <trkpt lat="46.61444" lon="5.57262">
        <ele>539.8</ele>
        <time>2023-08-30T10:46:23Z</time>
      </trkpt>
      <trkpt lat="46.6144" lon="5.57261">
        <ele>539.8</ele>
        <time>2023-08-30T10:46:24Z</time>
      </trkpt>
      <trkpt lat="46.61436" lon="5.5726">
        <ele>539.8</ele>
        <time>2023-08-30T10:46:25Z</time>
      </trkpt>
      <trkpt lat="46.61433" lon="5.57259">
        <ele>539.8</ele>
        <time>2023-08-30T10:46:26Z</time>
      </trkpt>
      <trkpt lat="46.61429" lon="5.57257">
        <ele>539.8</ele>
        <time>2023-08-30T10:46:27Z</time>
      </trkpt>
      <trkpt lat="46.61425" lon="5.57256">
        <ele>540.2</ele>
        <time>2023-08-30T10:46:28Z</time>
      </trkpt>
      <trkpt lat="46.61422" lon="5.57254">
        <ele>540.4</ele>
        <time>2023-08-30T10:46:29Z</time>
      </trkpt>
      <trkpt lat="46.61419" lon="5.57253">
        <ele>540.4</ele>
        <time>2023-08-30T10:46:30Z</time>
      </trkpt>
      <trkpt lat="46.61416" lon="5.57252">
        <ele>540.4</ele>
        <time>2023-08-30T10:46:31Z</time>
      </trkpt>
      <trkpt lat="46.61413" lon="5.57251">
        <ele>540.6</ele>
        <time>2023-08-30T10:46:32Z</time>
      </trkpt>
      <trkpt lat="46.6141" lon="5.5725">
        <ele>540.8</ele>
        <time>2023-08-30T10:46:33Z</time>
      </trkpt>
      <trkpt lat="46.61407" lon="5.57249">
        <ele>540.8</ele>
        <time>2023-08-30T10:46:34Z</time>
      </trkpt>
      <trkpt lat="46.61404" lon="5.57248">
        <ele>540.8</ele>
        <time>2023-08-30T10:46:35Z</time>
      </trkpt>
      <trkpt lat="46.61401" lon="5.57248">
        <ele>540.8</ele>
        <time>2023-08-30T10:46:36Z</time>
      </trkpt>
      <trkpt lat="46.61398" lon="5.57247">
        <ele>540.8</ele>
        <time>2023-08-30T10:46:37Z</time>
      </trkpt>
      <trkpt lat="46.61395" lon="5.57246">
        <ele>541.2</ele>
        <time>2023-08-30T10:46:38Z</time>
      </trkpt>
      <trkpt lat="46.61392" lon="5.57245">
        <ele>541.2</ele>
        <time>2023-08-30T10:46:39Z</time>
      </trkpt>
      <trkpt lat="46.61389" lon="5.57244">
        <ele>541.2</ele>
        <time>2023-08-30T10:46:40Z</time>
      </trkpt>
      <trkpt lat="46.61386" lon="5.57243">
        <ele>542</ele>
        <time>2023-08-30T10:46:41Z</time>
      </trkpt>
      <trkpt lat="46.61383" lon="5.57242">
        <ele>541.8</ele>
        <time>2023-08-30T10:46:42Z</time>
      </trkpt>
      <trkpt lat="46.6138" lon="5.57241">
        <ele>541.8</ele>
        <time>2023-08-30T10:46:43Z</time>
      </trkpt>
      <trkpt lat="46.61377" lon="5.5724">
        <ele>541.8</ele>
        <time>2023-08-30T10:46:44Z</time>
      </trkpt>
      <trkpt lat="46.61374" lon="5.57239">
        <ele>542.6</ele>
        <time>2023-08-30T10:46:45Z</time>
      </trkpt>
      <trkpt lat="46.61371" lon="5.57238">
        <ele>542.6</ele>
        <time>2023-08-30T10:46:46Z</time>
      </trkpt>
      <trkpt lat="46.61367" lon="5.57237">
        <ele>542.6</ele>
        <time>2023-08-30T10:46:47Z</time>
      </trkpt>
      <trkpt lat="46.61364" lon="5.57236">
        <ele>542.6</ele>
        <time>2023-08-30T10:46:48Z</time>
      </trkpt>
      <trkpt lat="46.61361" lon="5.57236">
        <ele>543.2</ele>
        <time>2023-08-30T10:46:49Z</time>
      </trkpt>
      <trkpt lat="46.61358" lon="5.57235">
        <ele>543.2</ele>
        <time>2023-08-30T10:46:50Z</time>
      </trkpt>
      <trkpt lat="46.61354" lon="5.57234">
        <ele>543.2</ele>
        <time>2023-08-30T10:46:51Z</time>
      </trkpt>
      <trkpt lat="46.61351" lon="5.57233">
        <ele>543.2</ele>
        <time>2023-08-30T10:46:52Z</time>
      </trkpt>
      <trkpt lat="46.61347" lon="5.57232">
        <ele>543.2</ele>
        <time>2023-08-30T10:46:53Z</time>
      </trkpt>
      <trkpt lat="46.61344" lon="5.57231">
        <ele>543.2</ele>
        <time>2023-08-30T10:46:54Z</time>
      </trkpt>
      <trkpt lat="46.61341" lon="5.5723">
        <ele>543.2</ele>
        <time>2023-08-30T10:46:55Z</time>
      </trkpt>
      <trkpt lat="46.61337" lon="5.57229">
        <ele>543.2</ele>
        <time>2023-08-30T10:46:56Z</time>
      </trkpt>
      <trkpt lat="46.61333" lon="5.57228">
        <ele>543.2</ele>
        <time>2023-08-30T10:46:57Z</time>
      </trkpt>
      <trkpt lat="46.61329" lon="5.57227">
        <ele>543.4</ele>
        <time>2023-08-30T10:46:58Z</time>
      </trkpt>
      <trkpt lat="46.61325" lon="5.57226">
        <ele>543.4</ele>
        <time>2023-08-30T10:46:59Z</time>
      </trkpt>
      <trkpt lat="46.61319" lon="5.57225">
        <ele>543.2</ele>
        <time>2023-08-30T10:47:00Z</time>
      </trkpt>
      <trkpt lat="46.61316" lon="5.57224">
        <ele>543.2</ele>
        <time>2023-08-30T10:47:01Z</time>
      </trkpt>
      <trkpt lat="46.61312" lon="5.57223">
        <ele>543.2</ele>
        <time>2023-08-30T10:47:02Z</time>
      </trkpt>
      <trkpt lat="46.61307" lon="5.57222">
        <ele>543.4</ele>
        <time>2023-08-30T10:47:03Z</time>
      </trkpt>
      <trkpt lat="46.61302" lon="5.57221">
        <ele>543.4</ele>
        <time>2023-08-30T10:47:04Z</time>
      </trkpt>
      <trkpt lat="46.61297" lon="5.57219">
        <ele>543.4</ele>
        <time>2023-08-30T10:47:05Z</time>
      </trkpt>
      <trkpt lat="46.61293" lon="5.57218">
        <ele>543.4</ele>
        <time>2023-08-30T10:47:06Z</time>
      </trkpt>
      <trkpt lat="46.61288" lon="5.57217">
        <ele>543.4</ele>
        <time>2023-08-30T10:47:07Z</time>
      </trkpt>
      <trkpt lat="46.61281" lon="5.57215">
        <ele>543.4</ele>
        <time>2023-08-30T10:47:08Z</time>
      </trkpt>
      <trkpt lat="46.61279" lon="5.57214">
        <ele>543.4</ele>
        <time>2023-08-30T10:47:09Z</time>
      </trkpt>
      <trkpt lat="46.61275" lon="5.57212">
        <ele>543.4</ele>
        <time>2023-08-30T10:47:10Z</time>
      </trkpt>
      <trkpt lat="46.6127" lon="5.57211">
        <ele>543.4</ele>
        <time>2023-08-30T10:47:11Z</time>
      </trkpt>
      <trkpt lat="46.61266" lon="5.57209">
        <ele>543.4</ele>
        <time>2023-08-30T10:47:12Z</time>
      </trkpt>
      <trkpt lat="46.61259" lon="5.57206">
        <ele>543.4</ele>
        <time>2023-08-30T10:47:13Z</time>
      </trkpt>
      <trkpt lat="46.61257" lon="5.57206">
        <ele>543.4</ele>
        <time>2023-08-30T10:47:14Z</time>
      </trkpt>
      <trkpt lat="46.61253" lon="5.57204">
        <ele>543.4</ele>
        <time>2023-08-30T10:47:15Z</time>
      </trkpt>
      <trkpt lat="46.61248" lon="5.57203">
        <ele>543.4</ele>
        <time>2023-08-30T10:47:16Z</time>
      </trkpt>
      <trkpt lat="46.61244" lon="5.57201">
        <ele>543.4</ele>
        <time>2023-08-30T10:47:17Z</time>
      </trkpt>
      <trkpt lat="46.6124" lon="5.572">
        <ele>543.4</ele>
        <time>2023-08-30T10:47:18Z</time>
      </trkpt>
      <trkpt lat="46.61235" lon="5.57198">
        <ele>543.4</ele>
        <time>2023-08-30T10:47:19Z</time>
      </trkpt>
      <trkpt lat="46.61229" lon="5.57196">
        <ele>543.4</ele>
        <time>2023-08-30T10:47:20Z</time>
      </trkpt>
      <trkpt lat="46.61227" lon="5.57195">
        <ele>543.6</ele>
        <time>2023-08-30T10:47:21Z</time>
      </trkpt>
      <trkpt lat="46.61223" lon="5.57193">
        <ele>543.6</ele>
        <time>2023-08-30T10:47:22Z</time>
      </trkpt>
      <trkpt lat="46.61219" lon="5.57192">
        <ele>543.8</ele>
        <time>2023-08-30T10:47:23Z</time>
      </trkpt>
      <trkpt lat="46.61215" lon="5.5719">
        <ele>543.8</ele>
        <time>2023-08-30T10:47:24Z</time>
      </trkpt>
      <trkpt lat="46.61211" lon="5.57189">
        <ele>543.8</ele>
        <time>2023-08-30T10:47:25Z</time>
      </trkpt>
      <trkpt lat="46.61207" lon="5.57188">
        <ele>543.8</ele>
        <time>2023-08-30T10:47:26Z</time>
      </trkpt>
      <trkpt lat="46.61203" lon="5.57186">
        <ele>544.2</ele>
        <time>2023-08-30T10:47:27Z</time>
      </trkpt>
      <trkpt lat="46.61199" lon="5.57184">
        <ele>544.2</ele>
        <time>2023-08-30T10:47:28Z</time>
      </trkpt>
      <trkpt lat="46.61193" lon="5.57182">
        <ele>544.2</ele>
        <time>2023-08-30T10:47:29Z</time>
      </trkpt>
      <trkpt lat="46.61191" lon="5.57181">
        <ele>544.2</ele>
        <time>2023-08-30T10:47:30Z</time>
      </trkpt>
      <trkpt lat="46.61187" lon="5.5718">
        <ele>544.6</ele>
        <time>2023-08-30T10:47:31Z</time>
      </trkpt>
      <trkpt lat="46.61183" lon="5.57179">
        <ele>544.6</ele>
        <time>2023-08-30T10:47:32Z</time>
      </trkpt>
      <trkpt lat="46.61179" lon="5.57177">
        <ele>544.6</ele>
        <time>2023-08-30T10:47:33Z</time>
      </trkpt>
      <trkpt lat="46.61176" lon="5.57176">
        <ele>544.8</ele>
        <time>2023-08-30T10:47:34Z</time>
      </trkpt>
      <trkpt lat="46.61172" lon="5.57175">
        <ele>544.8</ele>
        <time>2023-08-30T10:47:35Z</time>
      </trkpt>
      <trkpt lat="46.61169" lon="5.57174">
        <ele>545</ele>
        <time>2023-08-30T10:47:36Z</time>
      </trkpt>
      <trkpt lat="46.61165" lon="5.57173">
        <ele>545</ele>
        <time>2023-08-30T10:47:37Z</time>
      </trkpt>
      <trkpt lat="46.61161" lon="5.57171">
        <ele>545</ele>
        <time>2023-08-30T10:47:38Z</time>
      </trkpt>
      <trkpt lat="46.61158" lon="5.5717">
        <ele>545</ele>
        <time>2023-08-30T10:47:39Z</time>
      </trkpt>
      <trkpt lat="46.61154" lon="5.57168">
        <ele>545.2</ele>
        <time>2023-08-30T10:47:40Z</time>
      </trkpt>
      <trkpt lat="46.6115" lon="5.57167">
        <ele>545.2</ele>
        <time>2023-08-30T10:47:41Z</time>
      </trkpt>
      <trkpt lat="46.61145" lon="5.57166">
        <ele>545.2</ele>
        <time>2023-08-30T10:47:42Z</time>
      </trkpt>
      <trkpt lat="46.61141" lon="5.57164">
        <ele>545.2</ele>
        <time>2023-08-30T10:47:43Z</time>
      </trkpt>
      <trkpt lat="46.61137" lon="5.57162">
        <ele>545.2</ele>
        <time>2023-08-30T10:47:44Z</time>
      </trkpt>
      <trkpt lat="46.61133" lon="5.5716">
        <ele>545.2</ele>
        <time>2023-08-30T10:47:45Z</time>
      </trkpt>
      <trkpt lat="46.61129" lon="5.57158">
        <ele>545.2</ele>
        <time>2023-08-30T10:47:46Z</time>
      </trkpt>
      <trkpt lat="46.61125" lon="5.57155">
        <ele>545.2</ele>
        <time>2023-08-30T10:47:47Z</time>
      </trkpt>
      <trkpt lat="46.61121" lon="5.57152">
        <ele>545.4</ele>
        <time>2023-08-30T10:47:48Z</time>
      </trkpt>
      <trkpt lat="46.61117" lon="5.57149">
        <ele>545.6</ele>
        <time>2023-08-30T10:47:49Z</time>
      </trkpt>
      <trkpt lat="46.61113" lon="5.57147">
        <ele>545.6</ele>
        <time>2023-08-30T10:47:50Z</time>
      </trkpt>
      <trkpt lat="46.61108" lon="5.57144">
        <ele>545.6</ele>
        <time>2023-08-30T10:47:51Z</time>
      </trkpt>
      <trkpt lat="46.61104" lon="5.57141">
        <ele>545.6</ele>
        <time>2023-08-30T10:47:52Z</time>
      </trkpt>
      <trkpt lat="46.611" lon="5.57138">
        <ele>545.6</ele>
        <time>2023-08-30T10:47:53Z</time>
      </trkpt>
      <trkpt lat="46.61096" lon="5.57135">
        <ele>545.6</ele>
        <time>2023-08-30T10:47:54Z</time>
      </trkpt>
      <trkpt lat="46.61092" lon="5.57132">
        <ele>545.8</ele>
        <time>2023-08-30T10:47:55Z</time>
      </trkpt>
      <trkpt lat="46.61088" lon="5.57128">
        <ele>545.8</ele>
        <time>2023-08-30T10:47:56Z</time>
      </trkpt>
      <trkpt lat="46.61084" lon="5.57125">
        <ele>545.8</ele>
        <time>2023-08-30T10:47:57Z</time>
      </trkpt>
      <trkpt lat="46.61078" lon="5.5712">
        <ele>545.8</ele>
        <time>2023-08-30T10:47:58Z</time>
      </trkpt>
      <trkpt lat="46.61076" lon="5.57118">
        <ele>545.8</ele>
        <time>2023-08-30T10:47:59Z</time>
      </trkpt>
      <trkpt lat="46.61072" lon="5.57115">
        <ele>545.8</ele>
        <time>2023-08-30T10:48:00Z</time>
      </trkpt>
      <trkpt lat="46.61068" lon="5.57112">
        <ele>545.8</ele>
        <time>2023-08-30T10:48:01Z</time>
      </trkpt>
      <trkpt lat="46.61064" lon="5.57109">
        <ele>545.8</ele>
        <time>2023-08-30T10:48:02Z</time>
      </trkpt>
      <trkpt lat="46.6106" lon="5.57106">
        <ele>545.8</ele>
        <time>2023-08-30T10:48:03Z</time>
      </trkpt>
      <trkpt lat="46.61056" lon="5.57103">
        <ele>545.8</ele>
        <time>2023-08-30T10:48:04Z</time>
      </trkpt>
      <trkpt lat="46.61052" lon="5.571">
        <ele>545.8</ele>
        <time>2023-08-30T10:48:05Z</time>
      </trkpt>
      <trkpt lat="46.61048" lon="5.57097">
        <ele>545.8</ele>
        <time>2023-08-30T10:48:06Z</time>
      </trkpt>
      <trkpt lat="46.61044" lon="5.57095">
        <ele>545.8</ele>
        <time>2023-08-30T10:48:07Z</time>
      </trkpt>
      <trkpt lat="46.6104" lon="5.57092">
        <ele>545.4</ele>
        <time>2023-08-30T10:48:08Z</time>
      </trkpt>
      <trkpt lat="46.61037" lon="5.57089">
        <ele>545.4</ele>
        <time>2023-08-30T10:48:09Z</time>
      </trkpt>
      <trkpt lat="46.61033" lon="5.57087">
        <ele>545.4</ele>
        <time>2023-08-30T10:48:10Z</time>
      </trkpt>
      <trkpt lat="46.61029" lon="5.57084">
        <ele>545</ele>
        <time>2023-08-30T10:48:11Z</time>
      </trkpt>
      <trkpt lat="46.61026" lon="5.57082">
        <ele>544.6</ele>
        <time>2023-08-30T10:48:12Z</time>
      </trkpt>
      <trkpt lat="46.61022" lon="5.57079">
        <ele>544.6</ele>
        <time>2023-08-30T10:48:13Z</time>
      </trkpt>
      <trkpt lat="46.61016" lon="5.57076">
        <ele>544.6</ele>
        <time>2023-08-30T10:48:14Z</time>
      </trkpt>
      <trkpt lat="46.61014" lon="5.57074">
        <ele>544.6</ele>
        <time>2023-08-30T10:48:15Z</time>
      </trkpt>
      <trkpt lat="46.6101" lon="5.57072">
        <ele>543.8</ele>
        <time>2023-08-30T10:48:16Z</time>
      </trkpt>
      <trkpt lat="46.61006" lon="5.5707">
        <ele>543.8</ele>
        <time>2023-08-30T10:48:17Z</time>
      </trkpt>
      <trkpt lat="46.61002" lon="5.57068">
        <ele>543.8</ele>
        <time>2023-08-30T10:48:18Z</time>
      </trkpt>
      <trkpt lat="46.60998" lon="5.57066">
        <ele>543.8</ele>
        <time>2023-08-30T10:48:19Z</time>
      </trkpt>
      <trkpt lat="46.60994" lon="5.57064">
        <ele>543.8</ele>
        <time>2023-08-30T10:48:20Z</time>
      </trkpt>
      <trkpt lat="46.60991" lon="5.57062">
        <ele>543.8</ele>
        <time>2023-08-30T10:48:21Z</time>
      </trkpt>
      <trkpt lat="46.60987" lon="5.5706">
        <ele>543.8</ele>
        <time>2023-08-30T10:48:22Z</time>
      </trkpt>
      <trkpt lat="46.60983" lon="5.57058">
        <ele>543.8</ele>
        <time>2023-08-30T10:48:23Z</time>
      </trkpt>
      <trkpt lat="46.6098" lon="5.57056">
        <ele>543.8</ele>
        <time>2023-08-30T10:48:24Z</time>
      </trkpt>
      <trkpt lat="46.60976" lon="5.57054">
        <ele>543.6</ele>
        <time>2023-08-30T10:48:25Z</time>
      </trkpt>
      <trkpt lat="46.60972" lon="5.57052">
        <ele>543.6</ele>
        <time>2023-08-30T10:48:26Z</time>
      </trkpt>
      <trkpt lat="46.60969" lon="5.5705">
        <ele>543.6</ele>
        <time>2023-08-30T10:48:27Z</time>
      </trkpt>
      <trkpt lat="46.60965" lon="5.57048">
        <ele>543.4</ele>
        <time>2023-08-30T10:48:28Z</time>
      </trkpt>
      <trkpt lat="46.60961" lon="5.57045">
        <ele>543.4</ele>
        <time>2023-08-30T10:48:29Z</time>
      </trkpt>
      <trkpt lat="46.60957" lon="5.57043">
        <ele>543.4</ele>
        <time>2023-08-30T10:48:30Z</time>
      </trkpt>
      <trkpt lat="46.60953" lon="5.57041">
        <ele>543.4</ele>
        <time>2023-08-30T10:48:31Z</time>
      </trkpt>
      <trkpt lat="46.60949" lon="5.57039">
        <ele>543.6</ele>
        <time>2023-08-30T10:48:32Z</time>
      </trkpt>
      <trkpt lat="46.60946" lon="5.57037">
        <ele>543.6</ele>
        <time>2023-08-30T10:48:33Z</time>
      </trkpt>
      <trkpt lat="46.60942" lon="5.57035">
        <ele>543.8</ele>
        <time>2023-08-30T10:48:34Z</time>
      </trkpt>
      <trkpt lat="46.60938" lon="5.57033">
        <ele>543.8</ele>
        <time>2023-08-30T10:48:35Z</time>
      </trkpt>
      <trkpt lat="46.60934" lon="5.57031">
        <ele>543.8</ele>
        <time>2023-08-30T10:48:36Z</time>
      </trkpt>
      <trkpt lat="46.6093" lon="5.5703">
        <ele>543.8</ele>
        <time>2023-08-30T10:48:37Z</time>
      </trkpt>
      <trkpt lat="46.60926" lon="5.57029">
        <ele>543.8</ele>
        <time>2023-08-30T10:48:38Z</time>
      </trkpt>
      <trkpt lat="46.60922" lon="5.57027">
        <ele>544</ele>
        <time>2023-08-30T10:48:39Z</time>
      </trkpt>
      <trkpt lat="46.60918" lon="5.57026">
        <ele>544</ele>
        <time>2023-08-30T10:48:40Z</time>
      </trkpt>
      <trkpt lat="46.60912" lon="5.57023">
        <ele>544</ele>
        <time>2023-08-30T10:48:41Z</time>
      </trkpt>
      <trkpt lat="46.6091" lon="5.57022">
        <ele>544</ele>
        <time>2023-08-30T10:48:42Z</time>
      </trkpt>
      <trkpt lat="46.60906" lon="5.5702">
        <ele>544.2</ele>
        <time>2023-08-30T10:48:43Z</time>
      </trkpt>
      <trkpt lat="46.60902" lon="5.57019">
        <ele>544.2</ele>
        <time>2023-08-30T10:48:44Z</time>
      </trkpt>
      <trkpt lat="46.60898" lon="5.57017">
        <ele>544.2</ele>
        <time>2023-08-30T10:48:45Z</time>
      </trkpt>
      <trkpt lat="46.60893" lon="5.57015">
        <ele>544.2</ele>
        <time>2023-08-30T10:48:46Z</time>
      </trkpt>
      <trkpt lat="46.60889" lon="5.57014">
        <ele>544.2</ele>
        <time>2023-08-30T10:48:47Z</time>
      </trkpt>
      <trkpt lat="46.60885" lon="5.57012">
        <ele>544.4</ele>
        <time>2023-08-30T10:48:48Z</time>
      </trkpt>
      <trkpt lat="46.6088" lon="5.57011">
        <ele>544.4</ele>
        <time>2023-08-30T10:48:49Z</time>
      </trkpt>
      <trkpt lat="46.60875" lon="5.57009">
        <ele>544.4</ele>
        <time>2023-08-30T10:48:50Z</time>
      </trkpt>
      <trkpt lat="46.60871" lon="5.57007">
        <ele>544.4</ele>
        <time>2023-08-30T10:48:51Z</time>
      </trkpt>
      <trkpt lat="46.60866" lon="5.57004">
        <ele>544.4</ele>
        <time>2023-08-30T10:48:52Z</time>
      </trkpt>
      <trkpt lat="46.60859" lon="5.57001">
        <ele>544.4</ele>
        <time>2023-08-30T10:48:53Z</time>
      </trkpt>
      <trkpt lat="46.60856" lon="5.57">
        <ele>544.4</ele>
        <time>2023-08-30T10:48:54Z</time>
      </trkpt>
      <trkpt lat="46.60851" lon="5.56998">
        <ele>544</ele>
        <time>2023-08-30T10:48:55Z</time>
      </trkpt>
      <trkpt lat="46.60843" lon="5.56996">
        <ele>544</ele>
        <time>2023-08-30T10:48:56Z</time>
      </trkpt>
      <trkpt lat="46.60841" lon="5.56995">
        <ele>544.2</ele>
        <time>2023-08-30T10:48:57Z</time>
      </trkpt>
      <trkpt lat="46.60835" lon="5.56993">
        <ele>544.2</ele>
        <time>2023-08-30T10:48:58Z</time>
      </trkpt>
      <trkpt lat="46.6083" lon="5.56991">
        <ele>544.2</ele>
        <time>2023-08-30T10:48:59Z</time>
      </trkpt>
      <trkpt lat="46.60824" lon="5.56989">
        <ele>544</ele>
        <time>2023-08-30T10:49:00Z</time>
      </trkpt>
      <trkpt lat="46.60819" lon="5.56987">
        <ele>544.2</ele>
        <time>2023-08-30T10:49:01Z</time>
      </trkpt>
      <trkpt lat="46.60814" lon="5.56984">
        <ele>544.2</ele>
        <time>2023-08-30T10:49:02Z</time>
      </trkpt>
      <trkpt lat="46.60808" lon="5.56982">
        <ele>544.2</ele>
        <time>2023-08-30T10:49:03Z</time>
      </trkpt>
      <trkpt lat="46.60803" lon="5.5698">
        <ele>544.2</ele>
        <time>2023-08-30T10:49:04Z</time>
      </trkpt>
      <trkpt lat="46.60798" lon="5.56978">
        <ele>544.2</ele>
        <time>2023-08-30T10:49:05Z</time>
      </trkpt>
      <trkpt lat="46.60792" lon="5.56976">
        <ele>544.2</ele>
        <time>2023-08-30T10:49:06Z</time>
      </trkpt>
      <trkpt lat="46.60787" lon="5.56975">
        <ele>544.2</ele>
        <time>2023-08-30T10:49:07Z</time>
      </trkpt>
      <trkpt lat="46.60782" lon="5.56973">
        <ele>544.2</ele>
        <time>2023-08-30T10:49:08Z</time>
      </trkpt>
      <trkpt lat="46.60776" lon="5.56971">
        <ele>544</ele>
        <time>2023-08-30T10:49:09Z</time>
      </trkpt>
      <trkpt lat="46.60771" lon="5.56969">
        <ele>544</ele>
        <time>2023-08-30T10:49:10Z</time>
      </trkpt>
      <trkpt lat="46.60766" lon="5.56968">
        <ele>544</ele>
        <time>2023-08-30T10:49:11Z</time>
      </trkpt>
      <trkpt lat="46.60761" lon="5.56966">
        <ele>544</ele>
        <time>2023-08-30T10:49:12Z</time>
      </trkpt>
      <trkpt lat="46.60757" lon="5.56965">
        <ele>544</ele>
        <time>2023-08-30T10:49:13Z</time>
      </trkpt>
      <trkpt lat="46.60752" lon="5.56964">
        <ele>544</ele>
        <time>2023-08-30T10:49:14Z</time>
      </trkpt>
      <trkpt lat="46.60748" lon="5.56962">
        <ele>544</ele>
        <time>2023-08-30T10:49:15Z</time>
      </trkpt>
      <trkpt lat="46.60744" lon="5.56961">
        <ele>544</ele>
        <time>2023-08-30T10:49:16Z</time>
      </trkpt>
      <trkpt lat="46.6074" lon="5.5696">
        <ele>544</ele>
        <time>2023-08-30T10:49:17Z</time>
      </trkpt>
      <trkpt lat="46.60735" lon="5.56958">
        <ele>544</ele>
        <time>2023-08-30T10:49:18Z</time>
      </trkpt>
      <trkpt lat="46.60731" lon="5.56956">
        <ele>544</ele>
        <time>2023-08-30T10:49:19Z</time>
      </trkpt>
      <trkpt lat="46.60726" lon="5.56954">
        <ele>543.8</ele>
        <time>2023-08-30T10:49:20Z</time>
      </trkpt>
      <trkpt lat="46.60721" lon="5.56952">
        <ele>543.8</ele>
        <time>2023-08-30T10:49:21Z</time>
      </trkpt>
      <trkpt lat="46.60717" lon="5.5695">
        <ele>543.8</ele>
        <time>2023-08-30T10:49:22Z</time>
      </trkpt>
      <trkpt lat="46.6071" lon="5.56947">
        <ele>544.4</ele>
        <time>2023-08-30T10:49:23Z</time>
      </trkpt>
      <trkpt lat="46.60708" lon="5.56946">
        <ele>544.6</ele>
        <time>2023-08-30T10:49:24Z</time>
      </trkpt>
      <trkpt lat="46.60703" lon="5.56944">
        <ele>544.6</ele>
        <time>2023-08-30T10:49:25Z</time>
      </trkpt>
      <trkpt lat="46.60699" lon="5.56941">
        <ele>544.6</ele>
        <time>2023-08-30T10:49:26Z</time>
      </trkpt>
      <trkpt lat="46.60695" lon="5.56939">
        <ele>544.4</ele>
        <time>2023-08-30T10:49:27Z</time>
      </trkpt>
      <trkpt lat="46.60691" lon="5.56937">
        <ele>544.2</ele>
        <time>2023-08-30T10:49:28Z</time>
      </trkpt>
      <trkpt lat="46.60687" lon="5.56934">
        <ele>544.2</ele>
        <time>2023-08-30T10:49:29Z</time>
      </trkpt>
      <trkpt lat="46.60683" lon="5.56932">
        <ele>544.2</ele>
        <time>2023-08-30T10:49:30Z</time>
      </trkpt>
      <trkpt lat="46.60679" lon="5.5693">
        <ele>544.2</ele>
        <time>2023-08-30T10:49:31Z</time>
      </trkpt>
      <trkpt lat="46.60674" lon="5.56927">
        <ele>544.2</ele>
        <time>2023-08-30T10:49:32Z</time>
      </trkpt>
      <trkpt lat="46.6067" lon="5.56925">
        <ele>544</ele>
        <time>2023-08-30T10:49:33Z</time>
      </trkpt>
      <trkpt lat="46.60665" lon="5.56924">
        <ele>544</ele>
        <time>2023-08-30T10:49:34Z</time>
      </trkpt>
      <trkpt lat="46.6066" lon="5.56922">
        <ele>544</ele>
        <time>2023-08-30T10:49:35Z</time>
      </trkpt>
      <trkpt lat="46.60655" lon="5.56921">
        <ele>543.4</ele>
        <time>2023-08-30T10:49:36Z</time>
      </trkpt>
      <trkpt lat="46.60651" lon="5.5692">
        <ele>543.6</ele>
        <time>2023-08-30T10:49:37Z</time>
      </trkpt>
      <trkpt lat="46.60646" lon="5.56919">
        <ele>543.6</ele>
        <time>2023-08-30T10:49:38Z</time>
      </trkpt>
      <trkpt lat="46.60641" lon="5.56918">
        <ele>543.6</ele>
        <time>2023-08-30T10:49:39Z</time>
      </trkpt>
      <trkpt lat="46.60636" lon="5.56917">
        <ele>543.4</ele>
        <time>2023-08-30T10:49:40Z</time>
      </trkpt>
      <trkpt lat="46.60631" lon="5.56917">
        <ele>543.4</ele>
        <time>2023-08-30T10:49:41Z</time>
      </trkpt>
      <trkpt lat="46.60626" lon="5.56916">
        <ele>543.4</ele>
        <time>2023-08-30T10:49:42Z</time>
      </trkpt>
      <trkpt lat="46.60622" lon="5.56915">
        <ele>543.4</ele>
        <time>2023-08-30T10:49:43Z</time>
      </trkpt>
      <trkpt lat="46.60617" lon="5.56914">
        <ele>543.4</ele>
        <time>2023-08-30T10:49:44Z</time>
      </trkpt>
      <trkpt lat="46.60612" lon="5.56913">
        <ele>543.4</ele>
        <time>2023-08-30T10:49:45Z</time>
      </trkpt>
      <trkpt lat="46.60608" lon="5.56912">
        <ele>543.4</ele>
        <time>2023-08-30T10:49:46Z</time>
      </trkpt>
      <trkpt lat="46.60603" lon="5.56911">
        <ele>543.4</ele>
        <time>2023-08-30T10:49:47Z</time>
      </trkpt>
      <trkpt lat="46.60599" lon="5.56911">
        <ele>543.4</ele>
        <time>2023-08-30T10:49:48Z</time>
      </trkpt>
      <trkpt lat="46.60595" lon="5.5691">
        <ele>543.4</ele>
        <time>2023-08-30T10:49:49Z</time>
      </trkpt>
      <trkpt lat="46.60591" lon="5.5691">
        <ele>544</ele>
        <time>2023-08-30T10:49:50Z</time>
      </trkpt>
      <trkpt lat="46.60587" lon="5.5691">
        <ele>544</ele>
        <time>2023-08-30T10:49:51Z</time>
      </trkpt>
      <trkpt lat="46.60583" lon="5.5691">
        <ele>544</ele>
        <time>2023-08-30T10:49:52Z</time>
      </trkpt>
      <trkpt lat="46.60579" lon="5.5691">
        <ele>544</ele>
        <time>2023-08-30T10:49:53Z</time>
      </trkpt>
      <trkpt lat="46.60575" lon="5.5691">
        <ele>544.4</ele>
        <time>2023-08-30T10:49:54Z</time>
      </trkpt>
      <trkpt lat="46.60571" lon="5.56911">
        <ele>544.8</ele>
        <time>2023-08-30T10:49:55Z</time>
      </trkpt>
      <trkpt lat="46.60568" lon="5.56911">
        <ele>544.8</ele>
        <time>2023-08-30T10:49:56Z</time>
      </trkpt>
      <trkpt lat="46.60564" lon="5.56912">
        <ele>544.8</ele>
        <time>2023-08-30T10:49:57Z</time>
      </trkpt>
      <trkpt lat="46.60561" lon="5.56912">
        <ele>545.6</ele>
        <time>2023-08-30T10:49:58Z</time>
      </trkpt>
      <trkpt lat="46.60558" lon="5.56913">
        <ele>545.8</ele>
        <time>2023-08-30T10:49:59Z</time>
      </trkpt>
      <trkpt lat="46.60555" lon="5.56913">
        <ele>545.8</ele>
        <time>2023-08-30T10:50:00Z</time>
      </trkpt>
      <trkpt lat="46.60553" lon="5.56914">
        <ele>545.8</ele>
        <time>2023-08-30T10:50:01Z</time>
      </trkpt>
      <trkpt lat="46.6055" lon="5.56915">
        <ele>545.8</ele>
        <time>2023-08-30T10:50:02Z</time>
      </trkpt>
      <trkpt lat="46.60547" lon="5.56915">
        <ele>546.6</ele>
        <time>2023-08-30T10:50:03Z</time>
      </trkpt>
      <trkpt lat="46.60544" lon="5.56916">
        <ele>546.6</ele>
        <time>2023-08-30T10:50:04Z</time>
      </trkpt>
      <trkpt lat="46.60542" lon="5.56917">
        <ele>547</ele>
        <time>2023-08-30T10:50:05Z</time>
      </trkpt>
      <trkpt lat="46.60539" lon="5.56917">
        <ele>547</ele>
        <time>2023-08-30T10:50:06Z</time>
      </trkpt>
      <trkpt lat="46.60536" lon="5.56918">
        <ele>547</ele>
        <time>2023-08-30T10:50:07Z</time>
      </trkpt>
      <trkpt lat="46.60533" lon="5.56918">
        <ele>547.8</ele>
        <time>2023-08-30T10:50:08Z</time>
      </trkpt>
      <trkpt lat="46.6053" lon="5.56918">
        <ele>548</ele>
        <time>2023-08-30T10:50:09Z</time>
      </trkpt>
      <trkpt lat="46.60528" lon="5.56918">
        <ele>548</ele>
        <time>2023-08-30T10:50:10Z</time>
      </trkpt>
      <trkpt lat="46.60525" lon="5.56919">
        <ele>548</ele>
        <time>2023-08-30T10:50:11Z</time>
      </trkpt>
      <trkpt lat="46.60522" lon="5.56919">
        <ele>549</ele>
        <time>2023-08-30T10:50:12Z</time>
      </trkpt>
      <trkpt lat="46.60519" lon="5.56919">
        <ele>549.2</ele>
        <time>2023-08-30T10:50:13Z</time>
      </trkpt>
      <trkpt lat="46.60517" lon="5.5692">
        <ele>549.2</ele>
        <time>2023-08-30T10:50:14Z</time>
      </trkpt>
      <trkpt lat="46.60514" lon="5.5692">
        <ele>549.2</ele>
        <time>2023-08-30T10:50:15Z</time>
      </trkpt>
      <trkpt lat="46.60512" lon="5.56921">
        <ele>549.2</ele>
        <time>2023-08-30T10:50:16Z</time>
      </trkpt>
      <trkpt lat="46.6051" lon="5.56922">
        <ele>550.2</ele>
        <time>2023-08-30T10:50:17Z</time>
      </trkpt>
      <trkpt lat="46.60507" lon="5.56923">
        <ele>550.6</ele>
        <time>2023-08-30T10:50:18Z</time>
      </trkpt>
      <trkpt lat="46.60505" lon="5.56923">
        <ele>550.6</ele>
        <time>2023-08-30T10:50:19Z</time>
      </trkpt>
      <trkpt lat="46.60502" lon="5.56923">
        <ele>550.6</ele>
        <time>2023-08-30T10:50:20Z</time>
      </trkpt>
      <trkpt lat="46.605" lon="5.56924">
        <ele>551.4</ele>
        <time>2023-08-30T10:50:21Z</time>
      </trkpt>
      <trkpt lat="46.60497" lon="5.56924">
        <ele>551.8</ele>
        <time>2023-08-30T10:50:22Z</time>
      </trkpt>
      <trkpt lat="46.60494" lon="5.56925">
        <ele>551.8</ele>
        <time>2023-08-30T10:50:23Z</time>
      </trkpt>
      <trkpt lat="46.60491" lon="5.56925">
        <ele>551.8</ele>
        <time>2023-08-30T10:50:24Z</time>
      </trkpt>
      <trkpt lat="46.60488" lon="5.56926">
        <ele>552.2</ele>
        <time>2023-08-30T10:50:25Z</time>
      </trkpt>
      <trkpt lat="46.60485" lon="5.56927">
        <ele>552.2</ele>
        <time>2023-08-30T10:50:26Z</time>
      </trkpt>
      <trkpt lat="46.60482" lon="5.56928">
        <ele>552.6</ele>
        <time>2023-08-30T10:50:27Z</time>
      </trkpt>
      <trkpt lat="46.60479" lon="5.56929">
        <ele>552.6</ele>
        <time>2023-08-30T10:50:28Z</time>
      </trkpt>
      <trkpt lat="46.60476" lon="5.56929">
        <ele>552.6</ele>
        <time>2023-08-30T10:50:29Z</time>
      </trkpt>
      <trkpt lat="46.60474" lon="5.56928">
        <ele>552.8</ele>
        <time>2023-08-30T10:50:30Z</time>
      </trkpt>
      <trkpt lat="46.60471" lon="5.56928">
        <ele>553</ele>
        <time>2023-08-30T10:50:31Z</time>
      </trkpt>
      <trkpt lat="46.60468" lon="5.56927">
        <ele>553</ele>
        <time>2023-08-30T10:50:32Z</time>
      </trkpt>
      <trkpt lat="46.60465" lon="5.56927">
        <ele>553</ele>
        <time>2023-08-30T10:50:33Z</time>
      </trkpt>
      <trkpt lat="46.60462" lon="5.56927">
        <ele>553.4</ele>
        <time>2023-08-30T10:50:34Z</time>
      </trkpt>
      <trkpt lat="46.60459" lon="5.56927">
        <ele>553.4</ele>
        <time>2023-08-30T10:50:35Z</time>
      </trkpt>
      <trkpt lat="46.60456" lon="5.56926">
        <ele>553.4</ele>
        <time>2023-08-30T10:50:36Z</time>
      </trkpt>
      <trkpt lat="46.60452" lon="5.56926">
        <ele>553.4</ele>
        <time>2023-08-30T10:50:37Z</time>
      </trkpt>
      <trkpt lat="46.60449" lon="5.56925">
        <ele>553.8</ele>
        <time>2023-08-30T10:50:38Z</time>
      </trkpt>
      <trkpt lat="46.60446" lon="5.56925">
        <ele>553.8</ele>
        <time>2023-08-30T10:50:39Z</time>
      </trkpt>
      <trkpt lat="46.60443" lon="5.56924">
        <ele>553.8</ele>
        <time>2023-08-30T10:50:40Z</time>
      </trkpt>
      <trkpt lat="46.60439" lon="5.56923">
        <ele>553.8</ele>
        <time>2023-08-30T10:50:41Z</time>
      </trkpt>
      <trkpt lat="46.60436" lon="5.56922">
        <ele>553.8</ele>
        <time>2023-08-30T10:50:42Z</time>
      </trkpt>
      <trkpt lat="46.60433" lon="5.5692">
        <ele>553.8</ele>
        <time>2023-08-30T10:50:43Z</time>
      </trkpt>
      <trkpt lat="46.6043" lon="5.56919">
        <ele>553.8</ele>
        <time>2023-08-30T10:50:44Z</time>
      </trkpt>
      <trkpt lat="46.60426" lon="5.56918">
        <ele>553.8</ele>
        <time>2023-08-30T10:50:45Z</time>
      </trkpt>
      <trkpt lat="46.60423" lon="5.56916">
        <ele>553.8</ele>
        <time>2023-08-30T10:50:46Z</time>
      </trkpt>
      <trkpt lat="46.6042" lon="5.56914">
        <ele>553.8</ele>
        <time>2023-08-30T10:50:47Z</time>
      </trkpt>
      <trkpt lat="46.60417" lon="5.56912">
        <ele>554.2</ele>
        <time>2023-08-30T10:50:48Z</time>
      </trkpt>
      <trkpt lat="46.60414" lon="5.5691">
        <ele>554</ele>
        <time>2023-08-30T10:50:49Z</time>
      </trkpt>
      <trkpt lat="46.60411" lon="5.56909">
        <ele>554</ele>
        <time>2023-08-30T10:50:50Z</time>
      </trkpt>
      <trkpt lat="46.60408" lon="5.56907">
        <ele>554</ele>
        <time>2023-08-30T10:50:51Z</time>
      </trkpt>
      <trkpt lat="46.60403" lon="5.56904">
        <ele>554</ele>
        <time>2023-08-30T10:50:52Z</time>
      </trkpt>
      <trkpt lat="46.60402" lon="5.56904">
        <ele>554.2</ele>
        <time>2023-08-30T10:50:53Z</time>
      </trkpt>
      <trkpt lat="46.60399" lon="5.56902">
        <ele>554.6</ele>
        <time>2023-08-30T10:50:54Z</time>
      </trkpt>
      <trkpt lat="46.60396" lon="5.569">
        <ele>554.6</ele>
        <time>2023-08-30T10:50:55Z</time>
      </trkpt>
      <trkpt lat="46.60394" lon="5.56898">
        <ele>554.6</ele>
        <time>2023-08-30T10:50:56Z</time>
      </trkpt>
      <trkpt lat="46.60391" lon="5.56895">
        <ele>555</ele>
        <time>2023-08-30T10:50:57Z</time>
      </trkpt>
      <trkpt lat="46.60389" lon="5.56894">
        <ele>555.6</ele>
        <time>2023-08-30T10:50:58Z</time>
      </trkpt>
      <trkpt lat="46.60386" lon="5.56892">
        <ele>555.6</ele>
        <time>2023-08-30T10:50:59Z</time>
      </trkpt>
      <trkpt lat="46.60384" lon="5.5689">
        <ele>555.6</ele>
        <time>2023-08-30T10:51:00Z</time>
      </trkpt>
      <trkpt lat="46.60381" lon="5.56888">
        <ele>555.6</ele>
        <time>2023-08-30T10:51:01Z</time>
      </trkpt>
      <trkpt lat="46.60379" lon="5.56886">
        <ele>556.6</ele>
        <time>2023-08-30T10:51:02Z</time>
      </trkpt>
      <trkpt lat="46.60376" lon="5.56885">
        <ele>556.6</ele>
        <time>2023-08-30T10:51:03Z</time>
      </trkpt>
      <trkpt lat="46.60373" lon="5.56883">
        <ele>556.6</ele>
        <time>2023-08-30T10:51:04Z</time>
      </trkpt>
      <trkpt lat="46.60371" lon="5.56881">
        <ele>556.6</ele>
        <time>2023-08-30T10:51:05Z</time>
      </trkpt>
      <trkpt lat="46.60369" lon="5.56879">
        <ele>557.6</ele>
        <time>2023-08-30T10:51:06Z</time>
      </trkpt>
      <trkpt lat="46.60366" lon="5.56876">
        <ele>558</ele>
        <time>2023-08-30T10:51:07Z</time>
      </trkpt>
      <trkpt lat="46.60364" lon="5.56875">
        <ele>558</ele>
        <time>2023-08-30T10:51:08Z</time>
      </trkpt>
      <trkpt lat="46.60362" lon="5.56873">
        <ele>558</ele>
        <time>2023-08-30T10:51:09Z</time>
      </trkpt>
      <trkpt lat="46.60359" lon="5.56871">
        <ele>559</ele>
        <time>2023-08-30T10:51:10Z</time>
      </trkpt>
      <trkpt lat="46.60357" lon="5.56869">
        <ele>559.2</ele>
        <time>2023-08-30T10:51:11Z</time>
      </trkpt>
      <trkpt lat="46.60355" lon="5.56867">
        <ele>559.2</ele>
        <time>2023-08-30T10:51:12Z</time>
      </trkpt>
      <trkpt lat="46.60353" lon="5.56865">
        <ele>559.2</ele>
        <time>2023-08-30T10:51:13Z</time>
      </trkpt>
      <trkpt lat="46.6035" lon="5.56863">
        <ele>559.2</ele>
        <time>2023-08-30T10:51:14Z</time>
      </trkpt>
      <trkpt lat="46.60348" lon="5.56861">
        <ele>559.8</ele>
        <time>2023-08-30T10:51:15Z</time>
      </trkpt>
      <trkpt lat="46.60345" lon="5.56859">
        <ele>560</ele>
        <time>2023-08-30T10:51:16Z</time>
      </trkpt>
      <trkpt lat="46.60342" lon="5.56858">
        <ele>560</ele>
        <time>2023-08-30T10:51:17Z</time>
      </trkpt>
      <trkpt lat="46.60339" lon="5.56856">
        <ele>560</ele>
        <time>2023-08-30T10:51:18Z</time>
      </trkpt>
      <trkpt lat="46.60337" lon="5.56854">
        <ele>560.6</ele>
        <time>2023-08-30T10:51:19Z</time>
      </trkpt>
      <trkpt lat="46.60334" lon="5.56853">
        <ele>561</ele>
        <time>2023-08-30T10:51:20Z</time>
      </trkpt>
      <trkpt lat="46.60331" lon="5.56852">
        <ele>561</ele>
        <time>2023-08-30T10:51:21Z</time>
      </trkpt>
      <trkpt lat="46.60328" lon="5.56851">
        <ele>561</ele>
        <time>2023-08-30T10:51:22Z</time>
      </trkpt>
      <trkpt lat="46.60325" lon="5.5685">
        <ele>561.6</ele>
        <time>2023-08-30T10:51:23Z</time>
      </trkpt>
      <trkpt lat="46.60322" lon="5.56849">
        <ele>561.6</ele>
        <time>2023-08-30T10:51:24Z</time>
      </trkpt>
      <trkpt lat="46.60319" lon="5.56848">
        <ele>561.8</ele>
        <time>2023-08-30T10:51:25Z</time>
      </trkpt>
      <trkpt lat="46.60316" lon="5.56847">
        <ele>561.8</ele>
        <time>2023-08-30T10:51:26Z</time>
      </trkpt>
      <trkpt lat="46.60313" lon="5.56846">
        <ele>561.8</ele>
        <time>2023-08-30T10:51:27Z</time>
      </trkpt>
      <trkpt lat="46.60309" lon="5.56845">
        <ele>561.8</ele>
        <time>2023-08-30T10:51:28Z</time>
      </trkpt>
      <trkpt lat="46.60306" lon="5.56844">
        <ele>561.8</ele>
        <time>2023-08-30T10:51:29Z</time>
      </trkpt>
      <trkpt lat="46.60302" lon="5.56843">
        <ele>562.4</ele>
        <time>2023-08-30T10:51:30Z</time>
      </trkpt>
      <trkpt lat="46.60299" lon="5.56843">
        <ele>562.4</ele>
        <time>2023-08-30T10:51:31Z</time>
      </trkpt>
      <trkpt lat="46.60295" lon="5.56842">
        <ele>562.4</ele>
        <time>2023-08-30T10:51:32Z</time>
      </trkpt>
      <trkpt lat="46.60292" lon="5.56841">
        <ele>562.8</ele>
        <time>2023-08-30T10:51:33Z</time>
      </trkpt>
      <trkpt lat="46.60288" lon="5.56841">
        <ele>563</ele>
        <time>2023-08-30T10:51:34Z</time>
      </trkpt>
      <trkpt lat="46.60285" lon="5.5684">
        <ele>563</ele>
        <time>2023-08-30T10:51:35Z</time>
      </trkpt>
      <trkpt lat="46.60281" lon="5.56839">
        <ele>563</ele>
        <time>2023-08-30T10:51:36Z</time>
      </trkpt>
      <trkpt lat="46.60278" lon="5.56839">
        <ele>563</ele>
        <time>2023-08-30T10:51:37Z</time>
      </trkpt>
      <trkpt lat="46.60274" lon="5.56839">
        <ele>563.6</ele>
        <time>2023-08-30T10:51:38Z</time>
      </trkpt>
      <trkpt lat="46.60271" lon="5.56838">
        <ele>563.6</ele>
        <time>2023-08-30T10:51:39Z</time>
      </trkpt>
      <trkpt lat="46.60267" lon="5.56837">
        <ele>563.6</ele>
        <time>2023-08-30T10:51:40Z</time>
      </trkpt>
      <trkpt lat="46.60264" lon="5.56836">
        <ele>563.6</ele>
        <time>2023-08-30T10:51:41Z</time>
      </trkpt>
      <trkpt lat="46.6026" lon="5.56835">
        <ele>563.8</ele>
        <time>2023-08-30T10:51:42Z</time>
      </trkpt>
      <trkpt lat="46.60257" lon="5.56835">
        <ele>564</ele>
        <time>2023-08-30T10:51:43Z</time>
      </trkpt>
      <trkpt lat="46.60253" lon="5.56833">
        <ele>564</ele>
        <time>2023-08-30T10:51:44Z</time>
      </trkpt>
      <trkpt lat="46.60249" lon="5.56832">
        <ele>564</ele>
        <time>2023-08-30T10:51:45Z</time>
      </trkpt>
      <trkpt lat="46.60246" lon="5.56831">
        <ele>564.4</ele>
        <time>2023-08-30T10:51:46Z</time>
      </trkpt>
      <trkpt lat="46.60242" lon="5.5683">
        <ele>564.4</ele>
        <time>2023-08-30T10:51:47Z</time>
      </trkpt>
      <trkpt lat="46.60237" lon="5.56828">
        <ele>564.4</ele>
        <time>2023-08-30T10:51:48Z</time>
      </trkpt>
      <trkpt lat="46.60235" lon="5.56828">
        <ele>564.4</ele>
        <time>2023-08-30T10:51:49Z</time>
      </trkpt>
      <trkpt lat="46.60231" lon="5.56826">
        <ele>565.2</ele>
        <time>2023-08-30T10:51:50Z</time>
      </trkpt>
      <trkpt lat="46.60227" lon="5.56825">
        <ele>565.2</ele>
        <time>2023-08-30T10:51:51Z</time>
      </trkpt>
      <trkpt lat="46.60224" lon="5.56824">
        <ele>565.2</ele>
        <time>2023-08-30T10:51:52Z</time>
      </trkpt>
      <trkpt lat="46.6022" lon="5.56823">
        <ele>565.2</ele>
        <time>2023-08-30T10:51:53Z</time>
      </trkpt>
      <trkpt lat="46.60216" lon="5.56823">
        <ele>565.2</ele>
        <time>2023-08-30T10:51:54Z</time>
      </trkpt>
      <trkpt lat="46.60212" lon="5.56822">
        <ele>565.2</ele>
        <time>2023-08-30T10:51:55Z</time>
      </trkpt>
      <trkpt lat="46.60208" lon="5.56821">
        <ele>565.4</ele>
        <time>2023-08-30T10:51:56Z</time>
      </trkpt>
      <trkpt lat="46.60204" lon="5.5682">
        <ele>565.4</ele>
        <time>2023-08-30T10:51:57Z</time>
      </trkpt>
      <trkpt lat="46.602" lon="5.56818">
        <ele>565.4</ele>
        <time>2023-08-30T10:51:58Z</time>
      </trkpt>
      <trkpt lat="46.60196" lon="5.56817">
        <ele>565.6</ele>
        <time>2023-08-30T10:51:59Z</time>
      </trkpt>
      <trkpt lat="46.60192" lon="5.56815">
        <ele>565.8</ele>
        <time>2023-08-30T10:52:00Z</time>
      </trkpt>
      <trkpt lat="46.60188" lon="5.56814">
        <ele>565.8</ele>
        <time>2023-08-30T10:52:01Z</time>
      </trkpt>
      <trkpt lat="46.60184" lon="5.56812">
        <ele>565.8</ele>
        <time>2023-08-30T10:52:02Z</time>
      </trkpt>
      <trkpt lat="46.6018" lon="5.56811">
        <ele>565.8</ele>
        <time>2023-08-30T10:52:03Z</time>
      </trkpt>
      <trkpt lat="46.60176" lon="5.56809">
        <ele>566.4</ele>
        <time>2023-08-30T10:52:04Z</time>
      </trkpt>
      <trkpt lat="46.60172" lon="5.56808">
        <ele>566.6</ele>
        <time>2023-08-30T10:52:05Z</time>
      </trkpt>
      <trkpt lat="46.60169" lon="5.56806">
        <ele>566.6</ele>
        <time>2023-08-30T10:52:06Z</time>
      </trkpt>
      <trkpt lat="46.60165" lon="5.56805">
        <ele>566.6</ele>
        <time>2023-08-30T10:52:07Z</time>
      </trkpt>
      <trkpt lat="46.60161" lon="5.56804">
        <ele>566.8</ele>
        <time>2023-08-30T10:52:08Z</time>
      </trkpt>
      <trkpt lat="46.60157" lon="5.56803">
        <ele>567</ele>
        <time>2023-08-30T10:52:09Z</time>
      </trkpt>
      <trkpt lat="46.60152" lon="5.56802">
        <ele>567</ele>
        <time>2023-08-30T10:52:10Z</time>
      </trkpt>
      <trkpt lat="46.60148" lon="5.56801">
        <ele>567</ele>
        <time>2023-08-30T10:52:11Z</time>
      </trkpt>
      <trkpt lat="46.60144" lon="5.56801">
        <ele>567</ele>
        <time>2023-08-30T10:52:12Z</time>
      </trkpt>
      <trkpt lat="46.6014" lon="5.56802">
        <ele>567</ele>
        <time>2023-08-30T10:52:13Z</time>
      </trkpt>
      <trkpt lat="46.60136" lon="5.56802">
        <ele>567.6</ele>
        <time>2023-08-30T10:52:14Z</time>
      </trkpt>
      <trkpt lat="46.6013" lon="5.56802">
        <ele>567.6</ele>
        <time>2023-08-30T10:52:15Z</time>
      </trkpt>
      <trkpt lat="46.60128" lon="5.56802">
        <ele>567.6</ele>
        <time>2023-08-30T10:52:16Z</time>
      </trkpt>
      <trkpt lat="46.60124" lon="5.56803">
        <ele>567.6</ele>
        <time>2023-08-30T10:52:17Z</time>
      </trkpt>
      <trkpt lat="46.6012" lon="5.56804">
        <ele>567.6</ele>
        <time>2023-08-30T10:52:18Z</time>
      </trkpt>
      <trkpt lat="46.60117" lon="5.56805">
        <ele>567.6</ele>
        <time>2023-08-30T10:52:19Z</time>
      </trkpt>
      <trkpt lat="46.60113" lon="5.56806">
        <ele>567.6</ele>
        <time>2023-08-30T10:52:20Z</time>
      </trkpt>
      <trkpt lat="46.6011" lon="5.56806">
        <ele>567.6</ele>
        <time>2023-08-30T10:52:21Z</time>
      </trkpt>
      <trkpt lat="46.60106" lon="5.56806">
        <ele>567.8</ele>
        <time>2023-08-30T10:52:22Z</time>
      </trkpt>
      <trkpt lat="46.60103" lon="5.56806">
        <ele>568.2</ele>
        <time>2023-08-30T10:52:23Z</time>
      </trkpt>
      <trkpt lat="46.60099" lon="5.56807">
        <ele>568.2</ele>
        <time>2023-08-30T10:52:24Z</time>
      </trkpt>
      <trkpt lat="46.60095" lon="5.56807">
        <ele>568.2</ele>
        <time>2023-08-30T10:52:25Z</time>
      </trkpt>
      <trkpt lat="46.60092" lon="5.56806">
        <ele>568.2</ele>
        <time>2023-08-30T10:52:26Z</time>
      </trkpt>
      <trkpt lat="46.60088" lon="5.56806">
        <ele>568.2</ele>
        <time>2023-08-30T10:52:27Z</time>
      </trkpt>
      <trkpt lat="46.60085" lon="5.56806">
        <ele>568</ele>
        <time>2023-08-30T10:52:28Z</time>
      </trkpt>
      <trkpt lat="46.60081" lon="5.56806">
        <ele>568</ele>
        <time>2023-08-30T10:52:29Z</time>
      </trkpt>
      <trkpt lat="46.60077" lon="5.56806">
        <ele>568</ele>
        <time>2023-08-30T10:52:30Z</time>
      </trkpt>
      <trkpt lat="46.60073" lon="5.56806">
        <ele>568</ele>
        <time>2023-08-30T10:52:31Z</time>
      </trkpt>
      <trkpt lat="46.6007" lon="5.56806">
        <ele>568</ele>
        <time>2023-08-30T10:52:32Z</time>
      </trkpt>
      <trkpt lat="46.60066" lon="5.56806">
        <ele>568</ele>
        <time>2023-08-30T10:52:33Z</time>
      </trkpt>
      <trkpt lat="46.60062" lon="5.56806">
        <ele>568</ele>
        <time>2023-08-30T10:52:34Z</time>
      </trkpt>
      <trkpt lat="46.60059" lon="5.56806">
        <ele>567.6</ele>
        <time>2023-08-30T10:52:35Z</time>
      </trkpt>
      <trkpt lat="46.60055" lon="5.56805">
        <ele>567.2</ele>
        <time>2023-08-30T10:52:36Z</time>
      </trkpt>
      <trkpt lat="46.60052" lon="5.56805">
        <ele>567.2</ele>
        <time>2023-08-30T10:52:37Z</time>
      </trkpt>
      <trkpt lat="46.60048" lon="5.56804">
        <ele>567.2</ele>
        <time>2023-08-30T10:52:38Z</time>
      </trkpt>
      <trkpt lat="46.60045" lon="5.56804">
        <ele>567.2</ele>
        <time>2023-08-30T10:52:39Z</time>
      </trkpt>
      <trkpt lat="46.60041" lon="5.56804">
        <ele>567.6</ele>
        <time>2023-08-30T10:52:40Z</time>
      </trkpt>
      <trkpt lat="46.60038" lon="5.56804">
        <ele>567.6</ele>
        <time>2023-08-30T10:52:41Z</time>
      </trkpt>
      <trkpt lat="46.60035" lon="5.56804">
        <ele>567.6</ele>
        <time>2023-08-30T10:52:42Z</time>
      </trkpt>
      <trkpt lat="46.60032" lon="5.56804">
        <ele>567.6</ele>
        <time>2023-08-30T10:52:43Z</time>
      </trkpt>
      <trkpt lat="46.60029" lon="5.56803">
        <ele>567.6</ele>
        <time>2023-08-30T10:52:44Z</time>
      </trkpt>
      <trkpt lat="46.60026" lon="5.56803">
        <ele>567.4</ele>
        <time>2023-08-30T10:52:45Z</time>
      </trkpt>
      <trkpt lat="46.60023" lon="5.56802">
        <ele>567.4</ele>
        <time>2023-08-30T10:52:46Z</time>
      </trkpt>
      <trkpt lat="46.60019" lon="5.56802">
        <ele>567.4</ele>
        <time>2023-08-30T10:52:47Z</time>
      </trkpt>
      <trkpt lat="46.60016" lon="5.56802">
        <ele>567.4</ele>
        <time>2023-08-30T10:52:48Z</time>
      </trkpt>
      <trkpt lat="46.60013" lon="5.56802">
        <ele>567.6</ele>
        <time>2023-08-30T10:52:49Z</time>
      </trkpt>
      <trkpt lat="46.60009" lon="5.56801">
        <ele>567.6</ele>
        <time>2023-08-30T10:52:50Z</time>
      </trkpt>
      <trkpt lat="46.60006" lon="5.56801">
        <ele>567.6</ele>
        <time>2023-08-30T10:52:51Z</time>
      </trkpt>
      <trkpt lat="46.60003" lon="5.56801">
        <ele>567.6</ele>
        <time>2023-08-30T10:52:52Z</time>
      </trkpt>
      <trkpt lat="46.60001" lon="5.56801">
        <ele>567.8</ele>
        <time>2023-08-30T10:52:53Z</time>
      </trkpt>
      <trkpt lat="46.59998" lon="5.56802">
        <ele>567.8</ele>
        <time>2023-08-30T10:52:54Z</time>
      </trkpt>
      <trkpt lat="46.59998" lon="5.56802">
        <ele>568</ele>
        <time>2023-08-30T10:52:55Z</time>
      </trkpt>
      <trkpt lat="46.59997" lon="5.56803">
        <ele>568</ele>
        <time>2023-08-30T10:52:56Z</time>
      </trkpt>
      <trkpt lat="46.59996" lon="5.56803">
        <ele>568</ele>
        <time>2023-08-30T10:52:57Z</time>
      </trkpt>
      <trkpt lat="46.59995" lon="5.56804">
        <ele>568.4</ele>
        <time>2023-08-30T10:52:58Z</time>
      </trkpt>
      <trkpt lat="46.59994" lon="5.56804">
        <ele>565.6</ele>
        <time>2023-08-30T10:53:31Z</time>
      </trkpt>
      <trkpt lat="46.59994" lon="5.56804">
        <ele>565.6</ele>
        <time>2023-08-30T10:53:32Z</time>
      </trkpt>
      <trkpt lat="46.59992" lon="5.56803">
        <ele>565.6</ele>
        <time>2023-08-30T10:53:33Z</time>
      </trkpt>
      <trkpt lat="46.59991" lon="5.56802">
        <ele>565.6</ele>
        <time>2023-08-30T10:53:34Z</time>
      </trkpt>
      <trkpt lat="46.59989" lon="5.56801">
        <ele>565.8</ele>
        <time>2023-08-30T10:53:35Z</time>
      </trkpt>
      <trkpt lat="46.59986" lon="5.56801">
        <ele>565.8</ele>
        <time>2023-08-30T10:53:36Z</time>
      </trkpt>
      <trkpt lat="46.59984" lon="5.56801">
        <ele>565.8</ele>
        <time>2023-08-30T10:53:37Z</time>
      </trkpt>
      <trkpt lat="46.59981" lon="5.56801">
        <ele>565.8</ele>
        <time>2023-08-30T10:53:38Z</time>
      </trkpt>
      <trkpt lat="46.59979" lon="5.56802">
        <ele>565.8</ele>
        <time>2023-08-30T10:53:39Z</time>
      </trkpt>
      <trkpt lat="46.59976" lon="5.56802">
        <ele>566</ele>
        <time>2023-08-30T10:53:40Z</time>
      </trkpt>
      <trkpt lat="46.59973" lon="5.56802">
        <ele>566</ele>
        <time>2023-08-30T10:53:41Z</time>
      </trkpt>
      <trkpt lat="46.59969" lon="5.56802">
        <ele>566</ele>
        <time>2023-08-30T10:53:42Z</time>
      </trkpt>
      <trkpt lat="46.59966" lon="5.56802">
        <ele>566</ele>
        <time>2023-08-30T10:53:43Z</time>
      </trkpt>
      <trkpt lat="46.59963" lon="5.56803">
        <ele>566</ele>
        <time>2023-08-30T10:53:44Z</time>
      </trkpt>
      <trkpt lat="46.5996" lon="5.56804">
        <ele>567</ele>
        <time>2023-08-30T10:53:45Z</time>
      </trkpt>
      <trkpt lat="46.59957" lon="5.56804">
        <ele>567</ele>
        <time>2023-08-30T10:53:46Z</time>
      </trkpt>
      <trkpt lat="46.59954" lon="5.56805">
        <ele>567</ele>
        <time>2023-08-30T10:53:47Z</time>
      </trkpt>
      <trkpt lat="46.59951" lon="5.56806">
        <ele>567</ele>
        <time>2023-08-30T10:53:48Z</time>
      </trkpt>
      <trkpt lat="46.59948" lon="5.56806">
        <ele>567.6</ele>
        <time>2023-08-30T10:53:49Z</time>
      </trkpt>
      <trkpt lat="46.59945" lon="5.56807">
        <ele>567.6</ele>
        <time>2023-08-30T10:53:50Z</time>
      </trkpt>
      <trkpt lat="46.59941" lon="5.56808">
        <ele>567.6</ele>
        <time>2023-08-30T10:53:51Z</time>
      </trkpt>
      <trkpt lat="46.59938" lon="5.56808">
        <ele>568</ele>
        <time>2023-08-30T10:53:52Z</time>
      </trkpt>
      <trkpt lat="46.59935" lon="5.56809">
        <ele>568</ele>
        <time>2023-08-30T10:53:53Z</time>
      </trkpt>
      <trkpt lat="46.59932" lon="5.5681">
        <ele>568</ele>
        <time>2023-08-30T10:53:54Z</time>
      </trkpt>
      <trkpt lat="46.59929" lon="5.56812">
        <ele>568</ele>
        <time>2023-08-30T10:53:55Z</time>
      </trkpt>
      <trkpt lat="46.59925" lon="5.56813">
        <ele>568</ele>
        <time>2023-08-30T10:53:56Z</time>
      </trkpt>
      <trkpt lat="46.59922" lon="5.56815">
        <ele>568.4</ele>
        <time>2023-08-30T10:53:57Z</time>
      </trkpt>
      <trkpt lat="46.59919" lon="5.56817">
        <ele>568.6</ele>
        <time>2023-08-30T10:53:58Z</time>
      </trkpt>
      <trkpt lat="46.59916" lon="5.56819">
        <ele>568.6</ele>
        <time>2023-08-30T10:53:59Z</time>
      </trkpt>
      <trkpt lat="46.59912" lon="5.56821">
        <ele>568.6</ele>
        <time>2023-08-30T10:54:00Z</time>
      </trkpt>
      <trkpt lat="46.59909" lon="5.56823">
        <ele>568.6</ele>
        <time>2023-08-30T10:54:01Z</time>
      </trkpt>
      <trkpt lat="46.59905" lon="5.56824">
        <ele>569.2</ele>
        <time>2023-08-30T10:54:02Z</time>
      </trkpt>
      <trkpt lat="46.59902" lon="5.56826">
        <ele>569.2</ele>
        <time>2023-08-30T10:54:03Z</time>
      </trkpt>
      <trkpt lat="46.59898" lon="5.56828">
        <ele>569.2</ele>
        <time>2023-08-30T10:54:04Z</time>
      </trkpt>
      <trkpt lat="46.59895" lon="5.56831">
        <ele>569.2</ele>
        <time>2023-08-30T10:54:05Z</time>
      </trkpt>
      <trkpt lat="46.59892" lon="5.56834">
        <ele>569.2</ele>
        <time>2023-08-30T10:54:06Z</time>
      </trkpt>
      <trkpt lat="46.59889" lon="5.56836">
        <ele>569.4</ele>
        <time>2023-08-30T10:54:07Z</time>
      </trkpt>
      <trkpt lat="46.59886" lon="5.56838">
        <ele>569.4</ele>
        <time>2023-08-30T10:54:08Z</time>
      </trkpt>
      <trkpt lat="46.59882" lon="5.5684">
        <ele>569.4</ele>
        <time>2023-08-30T10:54:09Z</time>
      </trkpt>
      <trkpt lat="46.59879" lon="5.56842">
        <ele>569.4</ele>
        <time>2023-08-30T10:54:10Z</time>
      </trkpt>
      <trkpt lat="46.59876" lon="5.56845">
        <ele>569.8</ele>
        <time>2023-08-30T10:54:11Z</time>
      </trkpt>
      <trkpt lat="46.59874" lon="5.56847">
        <ele>570</ele>
        <time>2023-08-30T10:54:12Z</time>
      </trkpt>
      <trkpt lat="46.59871" lon="5.5685">
        <ele>570</ele>
        <time>2023-08-30T10:54:13Z</time>
      </trkpt>
      <trkpt lat="46.59868" lon="5.56853">
        <ele>570</ele>
        <time>2023-08-30T10:54:14Z</time>
      </trkpt>
      <trkpt lat="46.59865" lon="5.56855">
        <ele>570.6</ele>
        <time>2023-08-30T10:54:15Z</time>
      </trkpt>
      <trkpt lat="46.59861" lon="5.56857">
        <ele>570.8</ele>
        <time>2023-08-30T10:54:16Z</time>
      </trkpt>
      <trkpt lat="46.59858" lon="5.5686">
        <ele>570.8</ele>
        <time>2023-08-30T10:54:17Z</time>
      </trkpt>
      <trkpt lat="46.59855" lon="5.56862">
        <ele>570.8</ele>
        <time>2023-08-30T10:54:18Z</time>
      </trkpt>
      <trkpt lat="46.59852" lon="5.56865">
        <ele>571.6</ele>
        <time>2023-08-30T10:54:19Z</time>
      </trkpt>
      <trkpt lat="46.59847" lon="5.56868">
        <ele>571.2</ele>
        <time>2023-08-30T10:54:20Z</time>
      </trkpt>
      <trkpt lat="46.59845" lon="5.56869">
        <ele>571.2</ele>
        <time>2023-08-30T10:54:21Z</time>
      </trkpt>
      <trkpt lat="46.59839" lon="5.56872">
        <ele>571.2</ele>
        <time>2023-08-30T10:54:22Z</time>
      </trkpt>
      <trkpt lat="46.59838" lon="5.56873">
        <ele>572</ele>
        <time>2023-08-30T10:54:23Z</time>
      </trkpt>
      <trkpt lat="46.59834" lon="5.56874">
        <ele>572</ele>
        <time>2023-08-30T10:54:24Z</time>
      </trkpt>
      <trkpt lat="46.59829" lon="5.56876">
        <ele>572.2</ele>
        <time>2023-08-30T10:54:25Z</time>
      </trkpt>
      <trkpt lat="46.59825" lon="5.56877">
        <ele>572.2</ele>
        <time>2023-08-30T10:54:26Z</time>
      </trkpt>
      <trkpt lat="46.59821" lon="5.56878">
        <ele>572.2</ele>
        <time>2023-08-30T10:54:27Z</time>
      </trkpt>
      <trkpt lat="46.59816" lon="5.5688">
        <ele>572.2</ele>
        <time>2023-08-30T10:54:28Z</time>
      </trkpt>
      <trkpt lat="46.59811" lon="5.56881">
        <ele>573</ele>
        <time>2023-08-30T10:54:29Z</time>
      </trkpt>
      <trkpt lat="46.59806" lon="5.56881">
        <ele>572.6</ele>
        <time>2023-08-30T10:54:30Z</time>
      </trkpt>
      <trkpt lat="46.59801" lon="5.56882">
        <ele>572.6</ele>
        <time>2023-08-30T10:54:31Z</time>
      </trkpt>
      <trkpt lat="46.59796" lon="5.56883">
        <ele>572.6</ele>
        <time>2023-08-30T10:54:32Z</time>
      </trkpt>
      <trkpt lat="46.59791" lon="5.56884">
        <ele>572.8</ele>
        <time>2023-08-30T10:54:33Z</time>
      </trkpt>
      <trkpt lat="46.59785" lon="5.56884">
        <ele>573.2</ele>
        <time>2023-08-30T10:54:34Z</time>
      </trkpt>
      <trkpt lat="46.5978" lon="5.56884">
        <ele>573.2</ele>
        <time>2023-08-30T10:54:35Z</time>
      </trkpt>
      <trkpt lat="46.59774" lon="5.56883">
        <ele>573.2</ele>
        <time>2023-08-30T10:54:36Z</time>
      </trkpt>
      <trkpt lat="46.59768" lon="5.56883">
        <ele>573.2</ele>
        <time>2023-08-30T10:54:37Z</time>
      </trkpt>
      <trkpt lat="46.59762" lon="5.56882">
        <ele>572.6</ele>
        <time>2023-08-30T10:54:38Z</time>
      </trkpt>
      <trkpt lat="46.59756" lon="5.56879">
        <ele>572.6</ele>
        <time>2023-08-30T10:54:39Z</time>
      </trkpt>
      <trkpt lat="46.59751" lon="5.56874">
        <ele>572.6</ele>
        <time>2023-08-30T10:54:40Z</time>
      </trkpt>
      <trkpt lat="46.59748" lon="5.56867">
        <ele>572.6</ele>
        <time>2023-08-30T10:54:41Z</time>
      </trkpt>
      <trkpt lat="46.59745" lon="5.56859">
        <ele>571.8</ele>
        <time>2023-08-30T10:54:42Z</time>
      </trkpt>
      <trkpt lat="46.59743" lon="5.56851">
        <ele>571.6</ele>
        <time>2023-08-30T10:54:43Z</time>
      </trkpt>
      <trkpt lat="46.59741" lon="5.56843">
        <ele>571.6</ele>
        <time>2023-08-30T10:54:44Z</time>
      </trkpt>
      <trkpt lat="46.59738" lon="5.56835">
        <ele>571.6</ele>
        <time>2023-08-30T10:54:45Z</time>
      </trkpt>
      <trkpt lat="46.59734" lon="5.56829">
        <ele>571.6</ele>
        <time>2023-08-30T10:54:46Z</time>
      </trkpt>
      <trkpt lat="46.5973" lon="5.56823">
        <ele>571.6</ele>
        <time>2023-08-30T10:54:47Z</time>
      </trkpt>
      <trkpt lat="46.59725" lon="5.56818">
        <ele>571.6</ele>
        <time>2023-08-30T10:54:48Z</time>
      </trkpt>
      <trkpt lat="46.59721" lon="5.56814">
        <ele>571.6</ele>
        <time>2023-08-30T10:54:49Z</time>
      </trkpt>
      <trkpt lat="46.59716" lon="5.5681">
        <ele>571.6</ele>
        <time>2023-08-30T10:54:50Z</time>
      </trkpt>
      <trkpt lat="46.5971" lon="5.56806">
        <ele>571.6</ele>
        <time>2023-08-30T10:54:51Z</time>
      </trkpt>
      <trkpt lat="46.59705" lon="5.56803">
        <ele>571.4</ele>
        <time>2023-08-30T10:54:52Z</time>
      </trkpt>
      <trkpt lat="46.597" lon="5.56799">
        <ele>571.2</ele>
        <time>2023-08-30T10:54:53Z</time>
      </trkpt>
      <trkpt lat="46.59694" lon="5.56796">
        <ele>571.2</ele>
        <time>2023-08-30T10:54:54Z</time>
      </trkpt>
      <trkpt lat="46.59688" lon="5.56794">
        <ele>571.2</ele>
        <time>2023-08-30T10:54:55Z</time>
      </trkpt>
      <trkpt lat="46.59682" lon="5.56791">
        <ele>571</ele>
        <time>2023-08-30T10:54:56Z</time>
      </trkpt>
      <trkpt lat="46.59676" lon="5.5679">
        <ele>570.6</ele>
        <time>2023-08-30T10:54:57Z</time>
      </trkpt>
      <trkpt lat="46.5967" lon="5.5679">
        <ele>570.6</ele>
        <time>2023-08-30T10:54:58Z</time>
      </trkpt>
      <trkpt lat="46.59663" lon="5.56791">
        <ele>570.6</ele>
        <time>2023-08-30T10:54:59Z</time>
      </trkpt>
      <trkpt lat="46.59657" lon="5.56791">
        <ele>570.6</ele>
        <time>2023-08-30T10:55:00Z</time>
      </trkpt>
      <trkpt lat="46.59647" lon="5.56795">
        <ele>570.2</ele>
        <time>2023-08-30T10:55:01Z</time>
      </trkpt>
      <trkpt lat="46.59644" lon="5.56796">
        <ele>570.2</ele>
        <time>2023-08-30T10:55:02Z</time>
      </trkpt>
      <trkpt lat="46.59637" lon="5.568">
        <ele>570.2</ele>
        <time>2023-08-30T10:55:03Z</time>
      </trkpt>
      <trkpt lat="46.59631" lon="5.56804">
        <ele>570.2</ele>
        <time>2023-08-30T10:55:04Z</time>
      </trkpt>
      <trkpt lat="46.59624" lon="5.56809">
        <ele>569.4</ele>
        <time>2023-08-30T10:55:05Z</time>
      </trkpt>
      <trkpt lat="46.59617" lon="5.56814">
        <ele>569.6</ele>
        <time>2023-08-30T10:55:06Z</time>
      </trkpt>
      <trkpt lat="46.5961" lon="5.56818">
        <ele>569.6</ele>
        <time>2023-08-30T10:55:07Z</time>
      </trkpt>
      <trkpt lat="46.59604" lon="5.56823">
        <ele>569.6</ele>
        <time>2023-08-30T10:55:08Z</time>
      </trkpt>
      <trkpt lat="46.59593" lon="5.5683">
        <ele>569</ele>
        <time>2023-08-30T10:55:09Z</time>
      </trkpt>
      <trkpt lat="46.59589" lon="5.56832">
        <ele>568.4</ele>
        <time>2023-08-30T10:55:10Z</time>
      </trkpt>
      <trkpt lat="46.59582" lon="5.56835">
        <ele>568.4</ele>
        <time>2023-08-30T10:55:11Z</time>
      </trkpt>
      <trkpt lat="46.59574" lon="5.56836">
        <ele>568.4</ele>
        <time>2023-08-30T10:55:12Z</time>
      </trkpt>
      <trkpt lat="46.59566" lon="5.56837">
        <ele>568</ele>
        <time>2023-08-30T10:55:13Z</time>
      </trkpt>
      <trkpt lat="46.59559" lon="5.56836">
        <ele>568</ele>
        <time>2023-08-30T10:55:14Z</time>
      </trkpt>
      <trkpt lat="46.59552" lon="5.56835">
        <ele>568</ele>
        <time>2023-08-30T10:55:15Z</time>
      </trkpt>
      <trkpt lat="46.59545" lon="5.56833">
        <ele>568</ele>
        <time>2023-08-30T10:55:16Z</time>
      </trkpt>
      <trkpt lat="46.59537" lon="5.56832">
        <ele>568</ele>
        <time>2023-08-30T10:55:17Z</time>
      </trkpt>
      <trkpt lat="46.5953" lon="5.5683">
        <ele>568</ele>
        <time>2023-08-30T10:55:18Z</time>
      </trkpt>
      <trkpt lat="46.59523" lon="5.56829">
        <ele>568</ele>
        <time>2023-08-30T10:55:19Z</time>
      </trkpt>
      <trkpt lat="46.59517" lon="5.56828">
        <ele>568</ele>
        <time>2023-08-30T10:55:20Z</time>
      </trkpt>
      <trkpt lat="46.5951" lon="5.56827">
        <ele>568</ele>
        <time>2023-08-30T10:55:21Z</time>
      </trkpt>
      <trkpt lat="46.59504" lon="5.56827">
        <ele>568</ele>
        <time>2023-08-30T10:55:22Z</time>
      </trkpt>
      <trkpt lat="46.59497" lon="5.56827">
        <ele>568</ele>
        <time>2023-08-30T10:55:23Z</time>
      </trkpt>
      <trkpt lat="46.59491" lon="5.56828">
        <ele>568</ele>
        <time>2023-08-30T10:55:24Z</time>
      </trkpt>
      <trkpt lat="46.59484" lon="5.56829">
        <ele>568</ele>
        <time>2023-08-30T10:55:25Z</time>
      </trkpt>
      <trkpt lat="46.59478" lon="5.5683">
        <ele>568</ele>
        <time>2023-08-30T10:55:26Z</time>
      </trkpt>
      <trkpt lat="46.59471" lon="5.56832">
        <ele>567.4</ele>
        <time>2023-08-30T10:55:27Z</time>
      </trkpt>
      <trkpt lat="46.59463" lon="5.56833">
        <ele>567.4</ele>
        <time>2023-08-30T10:55:28Z</time>
      </trkpt>
      <trkpt lat="46.59456" lon="5.56834">
        <ele>567.2</ele>
        <time>2023-08-30T10:55:29Z</time>
      </trkpt>
      <trkpt lat="46.59449" lon="5.56835">
        <ele>567.2</ele>
        <time>2023-08-30T10:55:30Z</time>
      </trkpt>
      <trkpt lat="46.59441" lon="5.56835">
        <ele>567.2</ele>
        <time>2023-08-30T10:55:31Z</time>
      </trkpt>
      <trkpt lat="46.59434" lon="5.56834">
        <ele>567</ele>
        <time>2023-08-30T10:55:32Z</time>
      </trkpt>
      <trkpt lat="46.59427" lon="5.56833">
        <ele>567</ele>
        <time>2023-08-30T10:55:33Z</time>
      </trkpt>
      <trkpt lat="46.5942" lon="5.56832">
        <ele>567</ele>
        <time>2023-08-30T10:55:34Z</time>
      </trkpt>
      <trkpt lat="46.59414" lon="5.5683">
        <ele>567</ele>
        <time>2023-08-30T10:55:35Z</time>
      </trkpt>
      <trkpt lat="46.59407" lon="5.56828">
        <ele>567</ele>
        <time>2023-08-30T10:55:36Z</time>
      </trkpt>
      <trkpt lat="46.59398" lon="5.56825">
        <ele>566.8</ele>
        <time>2023-08-30T10:55:37Z</time>
      </trkpt>
      <trkpt lat="46.59395" lon="5.56823">
        <ele>566.8</ele>
        <time>2023-08-30T10:55:38Z</time>
      </trkpt>
      <trkpt lat="46.5939" lon="5.56821">
        <ele>566.8</ele>
        <time>2023-08-30T10:55:39Z</time>
      </trkpt>
      <trkpt lat="46.59385" lon="5.56819">
        <ele>566.8</ele>
        <time>2023-08-30T10:55:40Z</time>
      </trkpt>
      <trkpt lat="46.59378" lon="5.56815">
        <ele>566.8</ele>
        <time>2023-08-30T10:55:41Z</time>
      </trkpt>
      <trkpt lat="46.59375" lon="5.56814">
        <ele>566.8</ele>
        <time>2023-08-30T10:55:42Z</time>
      </trkpt>
      <trkpt lat="46.59369" lon="5.5681">
        <ele>566.8</ele>
        <time>2023-08-30T10:55:43Z</time>
      </trkpt>
      <trkpt lat="46.59366" lon="5.56809">
        <ele>566.8</ele>
        <time>2023-08-30T10:55:44Z</time>
      </trkpt>
      <trkpt lat="46.59362" lon="5.56807">
        <ele>567.2</ele>
        <time>2023-08-30T10:55:45Z</time>
      </trkpt>
      <trkpt lat="46.59359" lon="5.56805">
        <ele>567.2</ele>
        <time>2023-08-30T10:55:46Z</time>
      </trkpt>
      <trkpt lat="46.59356" lon="5.56803">
        <ele>567.2</ele>
        <time>2023-08-30T10:55:47Z</time>
      </trkpt>
      <trkpt lat="46.59353" lon="5.56802">
        <ele>567.2</ele>
        <time>2023-08-30T10:55:48Z</time>
      </trkpt>
      <trkpt lat="46.5935" lon="5.568">
        <ele>567.2</ele>
        <time>2023-08-30T10:55:49Z</time>
      </trkpt>
      <trkpt lat="46.59347" lon="5.568">
        <ele>567.4</ele>
        <time>2023-08-30T10:55:50Z</time>
      </trkpt>
      <trkpt lat="46.59343" lon="5.56799">
        <ele>567.4</ele>
        <time>2023-08-30T10:55:51Z</time>
      </trkpt>
      <trkpt lat="46.5934" lon="5.56798">
        <ele>567.4</ele>
        <time>2023-08-30T10:55:52Z</time>
      </trkpt>
      <trkpt lat="46.59337" lon="5.56797">
        <ele>567.4</ele>
        <time>2023-08-30T10:55:53Z</time>
      </trkpt>
      <trkpt lat="46.59334" lon="5.56796">
        <ele>567.4</ele>
        <time>2023-08-30T10:55:54Z</time>
      </trkpt>
      <trkpt lat="46.59331" lon="5.56794">
        <ele>567.4</ele>
        <time>2023-08-30T10:55:55Z</time>
      </trkpt>
      <trkpt lat="46.59328" lon="5.56793">
        <ele>567.4</ele>
        <time>2023-08-30T10:55:56Z</time>
      </trkpt>
      <trkpt lat="46.59325" lon="5.56792">
        <ele>567.4</ele>
        <time>2023-08-30T10:55:57Z</time>
      </trkpt>
      <trkpt lat="46.59323" lon="5.56791">
        <ele>567.4</ele>
        <time>2023-08-30T10:55:58Z</time>
      </trkpt>
      <trkpt lat="46.5932" lon="5.5679">
        <ele>567.4</ele>
        <time>2023-08-30T10:55:59Z</time>
      </trkpt>
      <trkpt lat="46.59317" lon="5.56788">
        <ele>567.2</ele>
        <time>2023-08-30T10:56:00Z</time>
      </trkpt>
      <trkpt lat="46.59314" lon="5.56787">
        <ele>567.2</ele>
        <time>2023-08-30T10:56:01Z</time>
      </trkpt>
      <trkpt lat="46.59312" lon="5.56785">
        <ele>567.2</ele>
        <time>2023-08-30T10:56:02Z</time>
      </trkpt>
      <trkpt lat="46.59309" lon="5.56784">
        <ele>567.4</ele>
        <time>2023-08-30T10:56:03Z</time>
      </trkpt>
      <trkpt lat="46.59306" lon="5.56783">
        <ele>567.4</ele>
        <time>2023-08-30T10:56:04Z</time>
      </trkpt>
      <trkpt lat="46.59304" lon="5.56782">
        <ele>567.4</ele>
        <time>2023-08-30T10:56:05Z</time>
      </trkpt>
      <trkpt lat="46.59301" lon="5.56782">
        <ele>567.4</ele>
        <time>2023-08-30T10:56:06Z</time>
      </trkpt>
      <trkpt lat="46.59298" lon="5.56781">
        <ele>567.4</ele>
        <time>2023-08-30T10:56:07Z</time>
      </trkpt>
      <trkpt lat="46.59295" lon="5.56779">
        <ele>567.4</ele>
        <time>2023-08-30T10:56:08Z</time>
      </trkpt>
      <trkpt lat="46.59293" lon="5.56778">
        <ele>567.4</ele>
        <time>2023-08-30T10:56:09Z</time>
      </trkpt>
      <trkpt lat="46.5929" lon="5.56777">
        <ele>567.4</ele>
        <time>2023-08-30T10:56:10Z</time>
      </trkpt>
      <trkpt lat="46.59288" lon="5.56775">
        <ele>567.4</ele>
        <time>2023-08-30T10:56:11Z</time>
      </trkpt>
      <trkpt lat="46.59285" lon="5.56774">
        <ele>567.4</ele>
        <time>2023-08-30T10:56:12Z</time>
      </trkpt>
      <trkpt lat="46.59282" lon="5.56772">
        <ele>567.4</ele>
        <time>2023-08-30T10:56:13Z</time>
      </trkpt>
      <trkpt lat="46.5928" lon="5.56771">
        <ele>567.4</ele>
        <time>2023-08-30T10:56:14Z</time>
      </trkpt>
      <trkpt lat="46.59278" lon="5.56769">
        <ele>567.4</ele>
        <time>2023-08-30T10:56:15Z</time>
      </trkpt>
      <trkpt lat="46.59276" lon="5.56767">
        <ele>567.4</ele>
        <time>2023-08-30T10:56:16Z</time>
      </trkpt>
      <trkpt lat="46.59273" lon="5.56765">
        <ele>567.4</ele>
        <time>2023-08-30T10:56:17Z</time>
      </trkpt>
      <trkpt lat="46.59271" lon="5.56762">
        <ele>567.4</ele>
        <time>2023-08-30T10:56:18Z</time>
      </trkpt>
      <trkpt lat="46.59269" lon="5.5676">
        <ele>567.4</ele>
        <time>2023-08-30T10:56:19Z</time>
      </trkpt>
      <trkpt lat="46.59267" lon="5.56757">
        <ele>567.4</ele>
        <time>2023-08-30T10:56:20Z</time>
      </trkpt>
      <trkpt lat="46.59266" lon="5.56755">
        <ele>567.2</ele>
        <time>2023-08-30T10:56:21Z</time>
      </trkpt>
      <trkpt lat="46.59264" lon="5.56752">
        <ele>567.2</ele>
        <time>2023-08-30T10:56:22Z</time>
      </trkpt>
      <trkpt lat="46.59262" lon="5.5675">
        <ele>567.2</ele>
        <time>2023-08-30T10:56:23Z</time>
      </trkpt>
      <trkpt lat="46.5926" lon="5.56747">
        <ele>567.2</ele>
        <time>2023-08-30T10:56:24Z</time>
      </trkpt>
      <trkpt lat="46.59258" lon="5.56744">
        <ele>567.2</ele>
        <time>2023-08-30T10:56:25Z</time>
      </trkpt>
      <trkpt lat="46.59257" lon="5.56741">
        <ele>567</ele>
        <time>2023-08-30T10:56:26Z</time>
      </trkpt>
      <trkpt lat="46.59255" lon="5.56737">
        <ele>567.2</ele>
        <time>2023-08-30T10:56:27Z</time>
      </trkpt>
      <trkpt lat="46.59253" lon="5.56733">
        <ele>567.2</ele>
        <time>2023-08-30T10:56:28Z</time>
      </trkpt>
      <trkpt lat="46.59252" lon="5.56731">
        <ele>567.2</ele>
        <time>2023-08-30T10:56:29Z</time>
      </trkpt>
      <trkpt lat="46.59251" lon="5.56728">
        <ele>567</ele>
        <time>2023-08-30T10:56:30Z</time>
      </trkpt>
      <trkpt lat="46.59249" lon="5.56724">
        <ele>567</ele>
        <time>2023-08-30T10:56:31Z</time>
      </trkpt>
      <trkpt lat="46.59248" lon="5.56721">
        <ele>567.2</ele>
        <time>2023-08-30T10:56:32Z</time>
      </trkpt>
      <trkpt lat="46.59247" lon="5.56717">
        <ele>567.2</ele>
        <time>2023-08-30T10:56:33Z</time>
      </trkpt>
      <trkpt lat="46.59246" lon="5.56713">
        <ele>567.2</ele>
        <time>2023-08-30T10:56:34Z</time>
      </trkpt>
      <trkpt lat="46.59245" lon="5.56709">
        <ele>566.8</ele>
        <time>2023-08-30T10:56:35Z</time>
      </trkpt>
      <trkpt lat="46.59244" lon="5.56705">
        <ele>566.8</ele>
        <time>2023-08-30T10:56:36Z</time>
      </trkpt>
      <trkpt lat="46.59242" lon="5.56701">
        <ele>566.8</ele>
        <time>2023-08-30T10:56:37Z</time>
      </trkpt>
      <trkpt lat="46.59241" lon="5.56697">
        <ele>566.8</ele>
        <time>2023-08-30T10:56:38Z</time>
      </trkpt>
      <trkpt lat="46.59239" lon="5.56694">
        <ele>566.8</ele>
        <time>2023-08-30T10:56:39Z</time>
      </trkpt>
      <trkpt lat="46.59237" lon="5.5669">
        <ele>566.8</ele>
        <time>2023-08-30T10:56:40Z</time>
      </trkpt>
      <trkpt lat="46.59235" lon="5.56686">
        <ele>566.8</ele>
        <time>2023-08-30T10:56:41Z</time>
      </trkpt>
      <trkpt lat="46.59232" lon="5.56682">
        <ele>566.8</ele>
        <time>2023-08-30T10:56:42Z</time>
      </trkpt>
      <trkpt lat="46.59229" lon="5.56679">
        <ele>566.8</ele>
        <time>2023-08-30T10:56:43Z</time>
      </trkpt>
      <trkpt lat="46.59226" lon="5.56675">
        <ele>566.8</ele>
        <time>2023-08-30T10:56:44Z</time>
      </trkpt>
      <trkpt lat="46.59222" lon="5.56673">
        <ele>566.8</ele>
        <time>2023-08-30T10:56:45Z</time>
      </trkpt>
      <trkpt lat="46.59216" lon="5.56669">
        <ele>566.6</ele>
        <time>2023-08-30T10:56:46Z</time>
      </trkpt>
      <trkpt lat="46.59214" lon="5.56668">
        <ele>566.6</ele>
        <time>2023-08-30T10:56:47Z</time>
      </trkpt>
      <trkpt lat="46.59208" lon="5.56665">
        <ele>566.6</ele>
        <time>2023-08-30T10:56:48Z</time>
      </trkpt>
      <trkpt lat="46.59205" lon="5.56665">
        <ele>566.8</ele>
        <time>2023-08-30T10:56:49Z</time>
      </trkpt>
      <trkpt lat="46.59198" lon="5.56665">
        <ele>567</ele>
        <time>2023-08-30T10:56:50Z</time>
      </trkpt>
      <trkpt lat="46.59196" lon="5.56665">
        <ele>567</ele>
        <time>2023-08-30T10:56:51Z</time>
      </trkpt>
      <trkpt lat="46.59191" lon="5.56665">
        <ele>567</ele>
        <time>2023-08-30T10:56:52Z</time>
      </trkpt>
      <trkpt lat="46.59187" lon="5.56665">
        <ele>567.2</ele>
        <time>2023-08-30T10:56:53Z</time>
      </trkpt>
      <trkpt lat="46.59182" lon="5.56666">
        <ele>567.4</ele>
        <time>2023-08-30T10:56:54Z</time>
      </trkpt>
      <trkpt lat="46.59177" lon="5.56666">
        <ele>567.4</ele>
        <time>2023-08-30T10:56:55Z</time>
      </trkpt>
      <trkpt lat="46.59173" lon="5.56666">
        <ele>567.4</ele>
        <time>2023-08-30T10:56:56Z</time>
      </trkpt>
      <trkpt lat="46.59168" lon="5.56667">
        <ele>567.4</ele>
        <time>2023-08-30T10:56:57Z</time>
      </trkpt>
      <trkpt lat="46.59164" lon="5.56667">
        <ele>567.8</ele>
        <time>2023-08-30T10:56:58Z</time>
      </trkpt>
      <trkpt lat="46.59159" lon="5.56668">
        <ele>568</ele>
        <time>2023-08-30T10:56:59Z</time>
      </trkpt>
      <trkpt lat="46.59154" lon="5.56668">
        <ele>568</ele>
        <time>2023-08-30T10:57:00Z</time>
      </trkpt>
      <trkpt lat="46.5915" lon="5.56667">
        <ele>568</ele>
        <time>2023-08-30T10:57:01Z</time>
      </trkpt>
      <trkpt lat="46.59146" lon="5.56666">
        <ele>568.6</ele>
        <time>2023-08-30T10:57:02Z</time>
      </trkpt>
      <trkpt lat="46.59142" lon="5.56666">
        <ele>568.6</ele>
        <time>2023-08-30T10:57:03Z</time>
      </trkpt>
      <trkpt lat="46.59139" lon="5.56665">
        <ele>568.6</ele>
        <time>2023-08-30T10:57:04Z</time>
      </trkpt>
      <trkpt lat="46.59135" lon="5.56665">
        <ele>568.6</ele>
        <time>2023-08-30T10:57:05Z</time>
      </trkpt>
      <trkpt lat="46.59131" lon="5.56665">
        <ele>568.6</ele>
        <time>2023-08-30T10:57:06Z</time>
      </trkpt>
      <trkpt lat="46.59127" lon="5.56665">
        <ele>568.8</ele>
        <time>2023-08-30T10:57:07Z</time>
      </trkpt>
      <trkpt lat="46.59123" lon="5.56664">
        <ele>568.8</ele>
        <time>2023-08-30T10:57:08Z</time>
      </trkpt>
      <trkpt lat="46.59119" lon="5.56664">
        <ele>568.8</ele>
        <time>2023-08-30T10:57:09Z</time>
      </trkpt>
      <trkpt lat="46.59115" lon="5.56663">
        <ele>568.8</ele>
        <time>2023-08-30T10:57:10Z</time>
      </trkpt>
      <trkpt lat="46.59111" lon="5.56663">
        <ele>569.2</ele>
        <time>2023-08-30T10:57:11Z</time>
      </trkpt>
      <trkpt lat="46.59108" lon="5.56662">
        <ele>569.2</ele>
        <time>2023-08-30T10:57:12Z</time>
      </trkpt>
      <trkpt lat="46.59104" lon="5.56661">
        <ele>569.2</ele>
        <time>2023-08-30T10:57:13Z</time>
      </trkpt>
      <trkpt lat="46.591" lon="5.56661">
        <ele>569.2</ele>
        <time>2023-08-30T10:57:14Z</time>
      </trkpt>
      <trkpt lat="46.59095" lon="5.5666">
        <ele>569.2</ele>
        <time>2023-08-30T10:57:15Z</time>
      </trkpt>
      <trkpt lat="46.59091" lon="5.56659">
        <ele>569.2</ele>
        <time>2023-08-30T10:57:16Z</time>
      </trkpt>
      <trkpt lat="46.59086" lon="5.56658">
        <ele>569.2</ele>
        <time>2023-08-30T10:57:17Z</time>
      </trkpt>
      <trkpt lat="46.59081" lon="5.56656">
        <ele>569.2</ele>
        <time>2023-08-30T10:57:18Z</time>
      </trkpt>
      <trkpt lat="46.59076" lon="5.56655">
        <ele>569.2</ele>
        <time>2023-08-30T10:57:19Z</time>
      </trkpt>
      <trkpt lat="46.59071" lon="5.56654">
        <ele>569.2</ele>
        <time>2023-08-30T10:57:20Z</time>
      </trkpt>
      <trkpt lat="46.59066" lon="5.56653">
        <ele>569.2</ele>
        <time>2023-08-30T10:57:21Z</time>
      </trkpt>
      <trkpt lat="46.5906" lon="5.56652">
        <ele>569.2</ele>
        <time>2023-08-30T10:57:22Z</time>
      </trkpt>
      <trkpt lat="46.59055" lon="5.5665">
        <ele>569.2</ele>
        <time>2023-08-30T10:57:23Z</time>
      </trkpt>
      <trkpt lat="46.5905" lon="5.56647">
        <ele>569.2</ele>
        <time>2023-08-30T10:57:24Z</time>
      </trkpt>
      <trkpt lat="46.59044" lon="5.56645">
        <ele>569.6</ele>
        <time>2023-08-30T10:57:25Z</time>
      </trkpt>
      <trkpt lat="46.59039" lon="5.56643">
        <ele>569.6</ele>
        <time>2023-08-30T10:57:26Z</time>
      </trkpt>
      <trkpt lat="46.59033" lon="5.5664">
        <ele>569.6</ele>
        <time>2023-08-30T10:57:27Z</time>
      </trkpt>
      <trkpt lat="46.59028" lon="5.56638">
        <ele>569.6</ele>
        <time>2023-08-30T10:57:28Z</time>
      </trkpt>
      <trkpt lat="46.5902" lon="5.56635">
        <ele>569.6</ele>
        <time>2023-08-30T10:57:29Z</time>
      </trkpt>
      <trkpt lat="46.59017" lon="5.56634">
        <ele>569.8</ele>
        <time>2023-08-30T10:57:30Z</time>
      </trkpt>
      <trkpt lat="46.59011" lon="5.56631">
        <ele>569.8</ele>
        <time>2023-08-30T10:57:31Z</time>
      </trkpt>
      <trkpt lat="46.59005" lon="5.56629">
        <ele>569.8</ele>
        <time>2023-08-30T10:57:32Z</time>
      </trkpt>
      <trkpt lat="46.58999" lon="5.56627">
        <ele>569.8</ele>
        <time>2023-08-30T10:57:33Z</time>
      </trkpt>
      <trkpt lat="46.58993" lon="5.56625">
        <ele>569.6</ele>
        <time>2023-08-30T10:57:34Z</time>
      </trkpt>
      <trkpt lat="46.58986" lon="5.56624">
        <ele>569.6</ele>
        <time>2023-08-30T10:57:35Z</time>
      </trkpt>
      <trkpt lat="46.58979" lon="5.56622">
        <ele>569.6</ele>
        <time>2023-08-30T10:57:36Z</time>
      </trkpt>
      <trkpt lat="46.58972" lon="5.56621">
        <ele>569.6</ele>
        <time>2023-08-30T10:57:37Z</time>
      </trkpt>
      <trkpt lat="46.58965" lon="5.5662">
        <ele>570.4</ele>
        <time>2023-08-30T10:57:38Z</time>
      </trkpt>
      <trkpt lat="46.58957" lon="5.5662">
        <ele>570.2</ele>
        <time>2023-08-30T10:57:39Z</time>
      </trkpt>
      <trkpt lat="46.5895" lon="5.56619">
        <ele>570.2</ele>
        <time>2023-08-30T10:57:40Z</time>
      </trkpt>
      <trkpt lat="46.58942" lon="5.56619">
        <ele>570.2</ele>
        <time>2023-08-30T10:57:41Z</time>
      </trkpt>
      <trkpt lat="46.58935" lon="5.56618">
        <ele>570.2</ele>
        <time>2023-08-30T10:57:42Z</time>
      </trkpt>
      <trkpt lat="46.58927" lon="5.56617">
        <ele>570.2</ele>
        <time>2023-08-30T10:57:43Z</time>
      </trkpt>
      <trkpt lat="46.58919" lon="5.56617">
        <ele>570.2</ele>
        <time>2023-08-30T10:57:44Z</time>
      </trkpt>
      <trkpt lat="46.58912" lon="5.56617">
        <ele>570.2</ele>
        <time>2023-08-30T10:57:45Z</time>
      </trkpt>
      <trkpt lat="46.58904" lon="5.56617">
        <ele>570.2</ele>
        <time>2023-08-30T10:57:46Z</time>
      </trkpt>
      <trkpt lat="46.58897" lon="5.56617">
        <ele>570</ele>
        <time>2023-08-30T10:57:47Z</time>
      </trkpt>
      <trkpt lat="46.5889" lon="5.56617">
        <ele>570</ele>
        <time>2023-08-30T10:57:48Z</time>
      </trkpt>
      <trkpt lat="46.58883" lon="5.56617">
        <ele>570</ele>
        <time>2023-08-30T10:57:49Z</time>
      </trkpt>
      <trkpt lat="46.58876" lon="5.56618">
        <ele>570</ele>
        <time>2023-08-30T10:57:50Z</time>
      </trkpt>
      <trkpt lat="46.58869" lon="5.56619">
        <ele>569</ele>
        <time>2023-08-30T10:57:51Z</time>
      </trkpt>
      <trkpt lat="46.58863" lon="5.5662">
        <ele>569.8</ele>
        <time>2023-08-30T10:57:52Z</time>
      </trkpt>
      <trkpt lat="46.58856" lon="5.56621">
        <ele>569.8</ele>
        <time>2023-08-30T10:57:53Z</time>
      </trkpt>
      <trkpt lat="46.58847" lon="5.56622">
        <ele>569.8</ele>
        <time>2023-08-30T10:57:54Z</time>
      </trkpt>
      <trkpt lat="46.58843" lon="5.56623">
        <ele>569.6</ele>
        <time>2023-08-30T10:57:55Z</time>
      </trkpt>
      <trkpt lat="46.58837" lon="5.56623">
        <ele>569.6</ele>
        <time>2023-08-30T10:57:56Z</time>
      </trkpt>
      <trkpt lat="46.58831" lon="5.56621">
        <ele>569.8</ele>
        <time>2023-08-30T10:57:57Z</time>
      </trkpt>
      <trkpt lat="46.58824" lon="5.5662">
        <ele>569.8</ele>
        <time>2023-08-30T10:57:58Z</time>
      </trkpt>
      <trkpt lat="46.58814" lon="5.56617">
        <ele>569.8</ele>
        <time>2023-08-30T10:57:59Z</time>
      </trkpt>
      <trkpt lat="46.58811" lon="5.56616">
        <ele>569.8</ele>
        <time>2023-08-30T10:58:00Z</time>
      </trkpt>
      <trkpt lat="46.58801" lon="5.56613">
        <ele>570</ele>
        <time>2023-08-30T10:58:01Z</time>
      </trkpt>
      <trkpt lat="46.58798" lon="5.56612">
        <ele>570</ele>
        <time>2023-08-30T10:58:02Z</time>
      </trkpt>
      <trkpt lat="46.58792" lon="5.56609">
        <ele>570</ele>
        <time>2023-08-30T10:58:03Z</time>
      </trkpt>
      <trkpt lat="46.58785" lon="5.56606">
        <ele>570</ele>
        <time>2023-08-30T10:58:04Z</time>
      </trkpt>
      <trkpt lat="46.58779" lon="5.56604">
        <ele>569.8</ele>
        <time>2023-08-30T10:58:05Z</time>
      </trkpt>
      <trkpt lat="46.58773" lon="5.56601">
        <ele>570</ele>
        <time>2023-08-30T10:58:06Z</time>
      </trkpt>
      <trkpt lat="46.58763" lon="5.56598">
        <ele>570</ele>
        <time>2023-08-30T10:58:07Z</time>
      </trkpt>
      <trkpt lat="46.58759" lon="5.56597">
        <ele>570</ele>
        <time>2023-08-30T10:58:08Z</time>
      </trkpt>
      <trkpt lat="46.58753" lon="5.56594">
        <ele>569.6</ele>
        <time>2023-08-30T10:58:09Z</time>
      </trkpt>
      <trkpt lat="46.58746" lon="5.56591">
        <ele>569.6</ele>
        <time>2023-08-30T10:58:10Z</time>
      </trkpt>
      <trkpt lat="46.5874" lon="5.56588">
        <ele>569.6</ele>
        <time>2023-08-30T10:58:11Z</time>
      </trkpt>
      <trkpt lat="46.58734" lon="5.56586">
        <ele>569.6</ele>
        <time>2023-08-30T10:58:12Z</time>
      </trkpt>
      <trkpt lat="46.58724" lon="5.56582">
        <ele>569.6</ele>
        <time>2023-08-30T10:58:13Z</time>
      </trkpt>
      <trkpt lat="46.58721" lon="5.56581">
        <ele>569.6</ele>
        <time>2023-08-30T10:58:14Z</time>
      </trkpt>
      <trkpt lat="46.58715" lon="5.56579">
        <ele>569.4</ele>
        <time>2023-08-30T10:58:15Z</time>
      </trkpt>
      <trkpt lat="46.58709" lon="5.56576">
        <ele>569.4</ele>
        <time>2023-08-30T10:58:16Z</time>
      </trkpt>
      <trkpt lat="46.58702" lon="5.56574">
        <ele>569.4</ele>
        <time>2023-08-30T10:58:17Z</time>
      </trkpt>
      <trkpt lat="46.58696" lon="5.56571">
        <ele>569.2</ele>
        <time>2023-08-30T10:58:18Z</time>
      </trkpt>
      <trkpt lat="46.58689" lon="5.56569">
        <ele>569.2</ele>
        <time>2023-08-30T10:58:19Z</time>
      </trkpt>
      <trkpt lat="46.58683" lon="5.56567">
        <ele>569.2</ele>
        <time>2023-08-30T10:58:20Z</time>
      </trkpt>
      <trkpt lat="46.58677" lon="5.56564">
        <ele>569.2</ele>
        <time>2023-08-30T10:58:21Z</time>
      </trkpt>
      <trkpt lat="46.5867" lon="5.56562">
        <ele>569</ele>
        <time>2023-08-30T10:58:22Z</time>
      </trkpt>
      <trkpt lat="46.58664" lon="5.5656">
        <ele>569</ele>
        <time>2023-08-30T10:58:23Z</time>
      </trkpt>
      <trkpt lat="46.58658" lon="5.56558">
        <ele>569</ele>
        <time>2023-08-30T10:58:24Z</time>
      </trkpt>
      <trkpt lat="46.58651" lon="5.56556">
        <ele>569</ele>
        <time>2023-08-30T10:58:25Z</time>
      </trkpt>
      <trkpt lat="46.58645" lon="5.56553">
        <ele>569</ele>
        <time>2023-08-30T10:58:26Z</time>
      </trkpt>
      <trkpt lat="46.58639" lon="5.56551">
        <ele>569</ele>
        <time>2023-08-30T10:58:27Z</time>
      </trkpt>
      <trkpt lat="46.58633" lon="5.56549">
        <ele>569.2</ele>
        <time>2023-08-30T10:58:28Z</time>
      </trkpt>
      <trkpt lat="46.58627" lon="5.56546">
        <ele>569.2</ele>
        <time>2023-08-30T10:58:29Z</time>
      </trkpt>
      <trkpt lat="46.58618" lon="5.56542">
        <ele>569.2</ele>
        <time>2023-08-30T10:58:30Z</time>
      </trkpt>
      <trkpt lat="46.58615" lon="5.56541">
        <ele>569.2</ele>
        <time>2023-08-30T10:58:31Z</time>
      </trkpt>
      <trkpt lat="46.58608" lon="5.56539">
        <ele>569</ele>
        <time>2023-08-30T10:58:32Z</time>
      </trkpt>
      <trkpt lat="46.58602" lon="5.56537">
        <ele>569</ele>
        <time>2023-08-30T10:58:33Z</time>
      </trkpt>
      <trkpt lat="46.58596" lon="5.56535">
        <ele>569</ele>
        <time>2023-08-30T10:58:34Z</time>
      </trkpt>
      <trkpt lat="46.5859" lon="5.56532">
        <ele>569.6</ele>
        <time>2023-08-30T10:58:35Z</time>
      </trkpt>
      <trkpt lat="46.58584" lon="5.5653">
        <ele>569.6</ele>
        <time>2023-08-30T10:58:36Z</time>
      </trkpt>
      <trkpt lat="46.58578" lon="5.56528">
        <ele>569.4</ele>
        <time>2023-08-30T10:58:37Z</time>
      </trkpt>
      <trkpt lat="46.58573" lon="5.56525">
        <ele>569.4</ele>
        <time>2023-08-30T10:58:38Z</time>
      </trkpt>
      <trkpt lat="46.58566" lon="5.56523">
        <ele>569.4</ele>
        <time>2023-08-30T10:58:39Z</time>
      </trkpt>
      <trkpt lat="46.5856" lon="5.56522">
        <ele>569.4</ele>
        <time>2023-08-30T10:58:40Z</time>
      </trkpt>
      <trkpt lat="46.58554" lon="5.5652">
        <ele>569.4</ele>
        <time>2023-08-30T10:58:41Z</time>
      </trkpt>
      <trkpt lat="46.58547" lon="5.56518">
        <ele>569.6</ele>
        <time>2023-08-30T10:58:42Z</time>
      </trkpt>
      <trkpt lat="46.5854" lon="5.56517">
        <ele>569.6</ele>
        <time>2023-08-30T10:58:43Z</time>
      </trkpt>
      <trkpt lat="46.58534" lon="5.56516">
        <ele>569.6</ele>
        <time>2023-08-30T10:58:44Z</time>
      </trkpt>
      <trkpt lat="46.58523" lon="5.56516">
        <ele>569.2</ele>
        <time>2023-08-30T10:58:45Z</time>
      </trkpt>
      <trkpt lat="46.5852" lon="5.56515">
        <ele>569.2</ele>
        <time>2023-08-30T10:58:46Z</time>
      </trkpt>
      <trkpt lat="46.58512" lon="5.56515">
        <ele>569.2</ele>
        <time>2023-08-30T10:58:47Z</time>
      </trkpt>
      <trkpt lat="46.58505" lon="5.56515">
        <ele>569.2</ele>
        <time>2023-08-30T10:58:48Z</time>
      </trkpt>
      <trkpt lat="46.58498" lon="5.56515">
        <ele>568.8</ele>
        <time>2023-08-30T10:58:49Z</time>
      </trkpt>
      <trkpt lat="46.5849" lon="5.56515">
        <ele>568.8</ele>
        <time>2023-08-30T10:58:50Z</time>
      </trkpt>
      <trkpt lat="46.58478" lon="5.56515">
        <ele>568.4</ele>
        <time>2023-08-30T10:58:51Z</time>
      </trkpt>
      <trkpt lat="46.58474" lon="5.56515">
        <ele>568.4</ele>
        <time>2023-08-30T10:58:52Z</time>
      </trkpt>
      <trkpt lat="46.58461" lon="5.56515">
        <ele>568.4</ele>
        <time>2023-08-30T10:58:53Z</time>
      </trkpt>
      <trkpt lat="46.58457" lon="5.56515">
        <ele>568.4</ele>
        <time>2023-08-30T10:58:54Z</time>
      </trkpt>
      <trkpt lat="46.58444" lon="5.56515">
        <ele>567.8</ele>
        <time>2023-08-30T10:58:55Z</time>
      </trkpt>
      <trkpt lat="46.5844" lon="5.56514">
        <ele>567.8</ele>
        <time>2023-08-30T10:58:56Z</time>
      </trkpt>
      <trkpt lat="46.58427" lon="5.56514">
        <ele>567.8</ele>
        <time>2023-08-30T10:58:57Z</time>
      </trkpt>
      <trkpt lat="46.58423" lon="5.56514">
        <ele>568</ele>
        <time>2023-08-30T10:58:58Z</time>
      </trkpt>
      <trkpt lat="46.58414" lon="5.56513">
        <ele>567.8</ele>
        <time>2023-08-30T10:58:59Z</time>
      </trkpt>
      <trkpt lat="46.58407" lon="5.56512">
        <ele>567.8</ele>
        <time>2023-08-30T10:59:00Z</time>
      </trkpt>
      <trkpt lat="46.58399" lon="5.56511">
        <ele>567.8</ele>
        <time>2023-08-30T10:59:01Z</time>
      </trkpt>
      <trkpt lat="46.58392" lon="5.5651">
        <ele>567.8</ele>
        <time>2023-08-30T10:59:02Z</time>
      </trkpt>
      <trkpt lat="46.58385" lon="5.56509">
        <ele>567.8</ele>
        <time>2023-08-30T10:59:03Z</time>
      </trkpt>
      <trkpt lat="46.58379" lon="5.56508">
        <ele>567.8</ele>
        <time>2023-08-30T10:59:04Z</time>
      </trkpt>
      <trkpt lat="46.58372" lon="5.56507">
        <ele>567.8</ele>
        <time>2023-08-30T10:59:05Z</time>
      </trkpt>
      <trkpt lat="46.58366" lon="5.56505">
        <ele>567.8</ele>
        <time>2023-08-30T10:59:06Z</time>
      </trkpt>
      <trkpt lat="46.5836" lon="5.56503">
        <ele>567.8</ele>
        <time>2023-08-30T10:59:07Z</time>
      </trkpt>
      <trkpt lat="46.58353" lon="5.565">
        <ele>567.8</ele>
        <time>2023-08-30T10:59:08Z</time>
      </trkpt>
      <trkpt lat="46.58347" lon="5.56498">
        <ele>567.6</ele>
        <time>2023-08-30T10:59:09Z</time>
      </trkpt>
      <trkpt lat="46.58341" lon="5.56495">
        <ele>567.6</ele>
        <time>2023-08-30T10:59:10Z</time>
      </trkpt>
      <trkpt lat="46.58334" lon="5.56492">
        <ele>567.6</ele>
        <time>2023-08-30T10:59:11Z</time>
      </trkpt>
      <trkpt lat="46.58324" lon="5.56487">
        <ele>567.6</ele>
        <time>2023-08-30T10:59:12Z</time>
      </trkpt>
      <trkpt lat="46.58321" lon="5.56486">
        <ele>567.4</ele>
        <time>2023-08-30T10:59:13Z</time>
      </trkpt>
      <trkpt lat="46.58314" lon="5.56483">
        <ele>567.4</ele>
        <time>2023-08-30T10:59:14Z</time>
      </trkpt>
      <trkpt lat="46.58307" lon="5.56481">
        <ele>567.4</ele>
        <time>2023-08-30T10:59:15Z</time>
      </trkpt>
      <trkpt lat="46.583" lon="5.56479">
        <ele>566.8</ele>
        <time>2023-08-30T10:59:16Z</time>
      </trkpt>
      <trkpt lat="46.58293" lon="5.56477">
        <ele>566.8</ele>
        <time>2023-08-30T10:59:17Z</time>
      </trkpt>
      <trkpt lat="46.58285" lon="5.56476">
        <ele>566.8</ele>
        <time>2023-08-30T10:59:18Z</time>
      </trkpt>
      <trkpt lat="46.58278" lon="5.56474">
        <ele>566.8</ele>
        <time>2023-08-30T10:59:19Z</time>
      </trkpt>
      <trkpt lat="46.58271" lon="5.56473">
        <ele>566.8</ele>
        <time>2023-08-30T10:59:20Z</time>
      </trkpt>
      <trkpt lat="46.58264" lon="5.56472">
        <ele>566.8</ele>
        <time>2023-08-30T10:59:21Z</time>
      </trkpt>
      <trkpt lat="46.58257" lon="5.5647">
        <ele>566.8</ele>
        <time>2023-08-30T10:59:22Z</time>
      </trkpt>
      <trkpt lat="46.5825" lon="5.56469">
        <ele>566.8</ele>
        <time>2023-08-30T10:59:23Z</time>
      </trkpt>
      <trkpt lat="46.58242" lon="5.56467">
        <ele>566.8</ele>
        <time>2023-08-30T10:59:24Z</time>
      </trkpt>
      <trkpt lat="46.58235" lon="5.56466">
        <ele>566.8</ele>
        <time>2023-08-30T10:59:25Z</time>
      </trkpt>
      <trkpt lat="46.58228" lon="5.56465">
        <ele>566.8</ele>
        <time>2023-08-30T10:59:26Z</time>
      </trkpt>
      <trkpt lat="46.58222" lon="5.56463">
        <ele>566.6</ele>
        <time>2023-08-30T10:59:27Z</time>
      </trkpt>
      <trkpt lat="46.58215" lon="5.56461">
        <ele>566.6</ele>
        <time>2023-08-30T10:59:28Z</time>
      </trkpt>
      <trkpt lat="46.58208" lon="5.5646">
        <ele>566.6</ele>
        <time>2023-08-30T10:59:29Z</time>
      </trkpt>
      <trkpt lat="46.58201" lon="5.56459">
        <ele>566.6</ele>
        <time>2023-08-30T10:59:30Z</time>
      </trkpt>
      <trkpt lat="46.58194" lon="5.56458">
        <ele>566.6</ele>
        <time>2023-08-30T10:59:31Z</time>
      </trkpt>
      <trkpt lat="46.58187" lon="5.56456">
        <ele>566.6</ele>
        <time>2023-08-30T10:59:32Z</time>
      </trkpt>
      <trkpt lat="46.58178" lon="5.56454">
        <ele>566.6</ele>
        <time>2023-08-30T10:59:33Z</time>
      </trkpt>
      <trkpt lat="46.58175" lon="5.56453">
        <ele>566.6</ele>
        <time>2023-08-30T10:59:34Z</time>
      </trkpt>
      <trkpt lat="46.58166" lon="5.56451">
        <ele>566.2</ele>
        <time>2023-08-30T10:59:35Z</time>
      </trkpt>
      <trkpt lat="46.58162" lon="5.5645">
        <ele>566.4</ele>
        <time>2023-08-30T10:59:36Z</time>
      </trkpt>
      <trkpt lat="46.58153" lon="5.56448">
        <ele>566.4</ele>
        <time>2023-08-30T10:59:37Z</time>
      </trkpt>
      <trkpt lat="46.5815" lon="5.56447">
        <ele>566.4</ele>
        <time>2023-08-30T10:59:38Z</time>
      </trkpt>
      <trkpt lat="46.58141" lon="5.56444">
        <ele>566</ele>
        <time>2023-08-30T10:59:39Z</time>
      </trkpt>
      <trkpt lat="46.58138" lon="5.56443">
        <ele>566.2</ele>
        <time>2023-08-30T10:59:40Z</time>
      </trkpt>
      <trkpt lat="46.58132" lon="5.56441">
        <ele>566.2</ele>
        <time>2023-08-30T10:59:41Z</time>
      </trkpt>
      <trkpt lat="46.58126" lon="5.56439">
        <ele>566.2</ele>
        <time>2023-08-30T10:59:42Z</time>
      </trkpt>
      <trkpt lat="46.5812" lon="5.56437">
        <ele>565.8</ele>
        <time>2023-08-30T10:59:43Z</time>
      </trkpt>
      <trkpt lat="46.58114" lon="5.56434">
        <ele>565.8</ele>
        <time>2023-08-30T10:59:44Z</time>
      </trkpt>
      <trkpt lat="46.58108" lon="5.56432">
        <ele>565.8</ele>
        <time>2023-08-30T10:59:45Z</time>
      </trkpt>
      <trkpt lat="46.58102" lon="5.56429">
        <ele>565.8</ele>
        <time>2023-08-30T10:59:46Z</time>
      </trkpt>
      <trkpt lat="46.58097" lon="5.56426">
        <ele>565.8</ele>
        <time>2023-08-30T10:59:47Z</time>
      </trkpt>
      <trkpt lat="46.58091" lon="5.56423">
        <ele>565.8</ele>
        <time>2023-08-30T10:59:48Z</time>
      </trkpt>
      <trkpt lat="46.58085" lon="5.56419">
        <ele>565.6</ele>
        <time>2023-08-30T10:59:49Z</time>
      </trkpt>
      <trkpt lat="46.58076" lon="5.56415">
        <ele>565.6</ele>
        <time>2023-08-30T10:59:50Z</time>
      </trkpt>
      <trkpt lat="46.58074" lon="5.56413">
        <ele>565.6</ele>
        <time>2023-08-30T10:59:51Z</time>
      </trkpt>
      <trkpt lat="46.58068" lon="5.56409">
        <ele>565.4</ele>
        <time>2023-08-30T10:59:52Z</time>
      </trkpt>
      <trkpt lat="46.58062" lon="5.56406">
        <ele>565.4</ele>
        <time>2023-08-30T10:59:53Z</time>
      </trkpt>
      <trkpt lat="46.58053" lon="5.56402">
        <ele>565.4</ele>
        <time>2023-08-30T10:59:54Z</time>
      </trkpt>
      <trkpt lat="46.5805" lon="5.564">
        <ele>565.4</ele>
        <time>2023-08-30T10:59:55Z</time>
      </trkpt>
      <trkpt lat="46.58042" lon="5.56396">
        <ele>565.8</ele>
        <time>2023-08-30T10:59:56Z</time>
      </trkpt>
      <trkpt lat="46.58039" lon="5.56395">
        <ele>565.8</ele>
        <time>2023-08-30T10:59:57Z</time>
      </trkpt>
      <trkpt lat="46.58033" lon="5.56393">
        <ele>565.6</ele>
        <time>2023-08-30T10:59:58Z</time>
      </trkpt>
      <trkpt lat="46.58028" lon="5.56391">
        <ele>565.6</ele>
        <time>2023-08-30T10:59:59Z</time>
      </trkpt>
      <trkpt lat="46.58023" lon="5.56389">
        <ele>565.6</ele>
        <time>2023-08-30T11:00:00Z</time>
      </trkpt>
      <trkpt lat="46.58018" lon="5.56387">
        <ele>566</ele>
        <time>2023-08-30T11:00:01Z</time>
      </trkpt>
      <trkpt lat="46.58012" lon="5.56385">
        <ele>566.4</ele>
        <time>2023-08-30T11:00:02Z</time>
      </trkpt>
      <trkpt lat="46.58007" lon="5.56383">
        <ele>566.4</ele>
        <time>2023-08-30T11:00:03Z</time>
      </trkpt>
      <trkpt lat="46.58002" lon="5.56381">
        <ele>566.4</ele>
        <time>2023-08-30T11:00:04Z</time>
      </trkpt>
      <trkpt lat="46.57997" lon="5.5638">
        <ele>566.4</ele>
        <time>2023-08-30T11:00:05Z</time>
      </trkpt>
      <trkpt lat="46.57992" lon="5.56378">
        <ele>567.2</ele>
        <time>2023-08-30T11:00:06Z</time>
      </trkpt>
      <trkpt lat="46.57986" lon="5.56377">
        <ele>567.2</ele>
        <time>2023-08-30T11:00:07Z</time>
      </trkpt>
      <trkpt lat="46.57981" lon="5.56375">
        <ele>567.2</ele>
        <time>2023-08-30T11:00:08Z</time>
      </trkpt>
      <trkpt lat="46.57976" lon="5.56373">
        <ele>567.2</ele>
        <time>2023-08-30T11:00:09Z</time>
      </trkpt>
      <trkpt lat="46.57971" lon="5.56372">
        <ele>567.6</ele>
        <time>2023-08-30T11:00:10Z</time>
      </trkpt>
      <trkpt lat="46.57965" lon="5.56371">
        <ele>567.6</ele>
        <time>2023-08-30T11:00:11Z</time>
      </trkpt>
      <trkpt lat="46.5796" lon="5.5637">
        <ele>567.6</ele>
        <time>2023-08-30T11:00:12Z</time>
      </trkpt>
      <trkpt lat="46.57955" lon="5.56368">
        <ele>567.6</ele>
        <time>2023-08-30T11:00:13Z</time>
      </trkpt>
      <trkpt lat="46.57949" lon="5.56367">
        <ele>567.6</ele>
        <time>2023-08-30T11:00:14Z</time>
      </trkpt>
      <trkpt lat="46.57943" lon="5.56365">
        <ele>568.4</ele>
        <time>2023-08-30T11:00:15Z</time>
      </trkpt>
      <trkpt lat="46.57937" lon="5.56363">
        <ele>568.4</ele>
        <time>2023-08-30T11:00:16Z</time>
      </trkpt>
      <trkpt lat="46.57931" lon="5.56362">
        <ele>568.4</ele>
        <time>2023-08-30T11:00:17Z</time>
      </trkpt>
      <trkpt lat="46.57925" lon="5.56361">
        <ele>568.4</ele>
        <time>2023-08-30T11:00:18Z</time>
      </trkpt>
      <trkpt lat="46.57916" lon="5.56359">
        <ele>568.4</ele>
        <time>2023-08-30T11:00:19Z</time>
      </trkpt>
      <trkpt lat="46.57912" lon="5.56358">
        <ele>568.8</ele>
        <time>2023-08-30T11:00:20Z</time>
      </trkpt>
      <trkpt lat="46.57903" lon="5.56356">
        <ele>568.8</ele>
        <time>2023-08-30T11:00:21Z</time>
      </trkpt>
      <trkpt lat="46.57899" lon="5.56355">
        <ele>568.8</ele>
        <time>2023-08-30T11:00:22Z</time>
      </trkpt>
      <trkpt lat="46.57889" lon="5.56354">
        <ele>568.8</ele>
        <time>2023-08-30T11:00:23Z</time>
      </trkpt>
      <trkpt lat="46.57886" lon="5.56353">
        <ele>569.2</ele>
        <time>2023-08-30T11:00:24Z</time>
      </trkpt>
      <trkpt lat="46.5788" lon="5.56352">
        <ele>569.4</ele>
        <time>2023-08-30T11:00:25Z</time>
      </trkpt>
      <trkpt lat="46.57873" lon="5.56351">
        <ele>569.4</ele>
        <time>2023-08-30T11:00:26Z</time>
      </trkpt>
      <trkpt lat="46.57866" lon="5.56351">
        <ele>569.4</ele>
        <time>2023-08-30T11:00:27Z</time>
      </trkpt>
      <trkpt lat="46.5786" lon="5.5635">
        <ele>569.4</ele>
        <time>2023-08-30T11:00:28Z</time>
      </trkpt>
      <trkpt lat="46.57853" lon="5.5635">
        <ele>569.8</ele>
        <time>2023-08-30T11:00:29Z</time>
      </trkpt>
      <trkpt lat="46.57847" lon="5.56349">
        <ele>569.8</ele>
        <time>2023-08-30T11:00:30Z</time>
      </trkpt>
      <trkpt lat="46.5784" lon="5.56348">
        <ele>569.8</ele>
        <time>2023-08-30T11:00:31Z</time>
      </trkpt>
      <trkpt lat="46.57834" lon="5.56348">
        <ele>569.8</ele>
        <time>2023-08-30T11:00:32Z</time>
      </trkpt>
      <trkpt lat="46.57827" lon="5.56347">
        <ele>570</ele>
        <time>2023-08-30T11:00:33Z</time>
      </trkpt>
      <trkpt lat="46.57821" lon="5.56347">
        <ele>570</ele>
        <time>2023-08-30T11:00:34Z</time>
      </trkpt>
      <trkpt lat="46.57815" lon="5.56346">
        <ele>570</ele>
        <time>2023-08-30T11:00:35Z</time>
      </trkpt>
      <trkpt lat="46.57809" lon="5.56345">
        <ele>570</ele>
        <time>2023-08-30T11:00:36Z</time>
      </trkpt>
      <trkpt lat="46.57803" lon="5.56344">
        <ele>570.4</ele>
        <time>2023-08-30T11:00:37Z</time>
      </trkpt>
      <trkpt lat="46.57798" lon="5.56343">
        <ele>570.4</ele>
        <time>2023-08-30T11:00:38Z</time>
      </trkpt>
      <trkpt lat="46.5779" lon="5.56341">
        <ele>570.4</ele>
        <time>2023-08-30T11:00:39Z</time>
      </trkpt>
      <trkpt lat="46.57787" lon="5.56341">
        <ele>570.4</ele>
        <time>2023-08-30T11:00:40Z</time>
      </trkpt>
      <trkpt lat="46.57782" lon="5.56339">
        <ele>570.8</ele>
        <time>2023-08-30T11:00:41Z</time>
      </trkpt>
      <trkpt lat="46.57777" lon="5.56338">
        <ele>570.8</ele>
        <time>2023-08-30T11:00:42Z</time>
      </trkpt>
      <trkpt lat="46.57772" lon="5.56336">
        <ele>571</ele>
        <time>2023-08-30T11:00:43Z</time>
      </trkpt>
      <trkpt lat="46.57767" lon="5.56334">
        <ele>571</ele>
        <time>2023-08-30T11:00:44Z</time>
      </trkpt>
      <trkpt lat="46.57762" lon="5.56332">
        <ele>571</ele>
        <time>2023-08-30T11:00:45Z</time>
      </trkpt>
      <trkpt lat="46.57758" lon="5.56329">
        <ele>571</ele>
        <time>2023-08-30T11:00:46Z</time>
      </trkpt>
      <trkpt lat="46.57753" lon="5.56327">
        <ele>571.4</ele>
        <time>2023-08-30T11:00:47Z</time>
      </trkpt>
      <trkpt lat="46.57749" lon="5.56325">
        <ele>571.4</ele>
        <time>2023-08-30T11:00:48Z</time>
      </trkpt>
      <trkpt lat="46.57744" lon="5.56323">
        <ele>571.4</ele>
        <time>2023-08-30T11:00:49Z</time>
      </trkpt>
      <trkpt lat="46.57739" lon="5.5632">
        <ele>571.4</ele>
        <time>2023-08-30T11:00:50Z</time>
      </trkpt>
      <trkpt lat="46.57734" lon="5.56318">
        <ele>571.4</ele>
        <time>2023-08-30T11:00:51Z</time>
      </trkpt>
      <trkpt lat="46.57729" lon="5.56316">
        <ele>571.8</ele>
        <time>2023-08-30T11:00:52Z</time>
      </trkpt>
      <trkpt lat="46.57724" lon="5.56314">
        <ele>571.8</ele>
        <time>2023-08-30T11:00:53Z</time>
      </trkpt>
      <trkpt lat="46.57715" lon="5.56311">
        <ele>571.8</ele>
        <time>2023-08-30T11:00:54Z</time>
      </trkpt>
      <trkpt lat="46.57712" lon="5.56311">
        <ele>571.8</ele>
        <time>2023-08-30T11:00:55Z</time>
      </trkpt>
      <trkpt lat="46.57707" lon="5.56309">
        <ele>571.6</ele>
        <time>2023-08-30T11:00:56Z</time>
      </trkpt>
      <trkpt lat="46.57701" lon="5.56307">
        <ele>571.6</ele>
        <time>2023-08-30T11:00:57Z</time>
      </trkpt>
      <trkpt lat="46.57695" lon="5.56305">
        <ele>571.6</ele>
        <time>2023-08-30T11:00:58Z</time>
      </trkpt>
      <trkpt lat="46.57689" lon="5.56303">
        <ele>571.6</ele>
        <time>2023-08-30T11:00:59Z</time>
      </trkpt>
      <trkpt lat="46.57684" lon="5.56301">
        <ele>571.6</ele>
        <time>2023-08-30T11:01:00Z</time>
      </trkpt>
      <trkpt lat="46.57678" lon="5.56299">
        <ele>571</ele>
        <time>2023-08-30T11:01:01Z</time>
      </trkpt>
      <trkpt lat="46.57671" lon="5.56297">
        <ele>571</ele>
        <time>2023-08-30T11:01:02Z</time>
      </trkpt>
      <trkpt lat="46.57665" lon="5.56295">
        <ele>571</ele>
        <time>2023-08-30T11:01:03Z</time>
      </trkpt>
      <trkpt lat="46.57659" lon="5.56292">
        <ele>570.4</ele>
        <time>2023-08-30T11:01:04Z</time>
      </trkpt>
      <trkpt lat="46.57649" lon="5.56289">
        <ele>570.4</ele>
        <time>2023-08-30T11:01:05Z</time>
      </trkpt>
      <trkpt lat="46.57646" lon="5.56288">
        <ele>570.2</ele>
        <time>2023-08-30T11:01:06Z</time>
      </trkpt>
      <trkpt lat="46.5764" lon="5.56286">
        <ele>570.2</ele>
        <time>2023-08-30T11:01:07Z</time>
      </trkpt>
      <trkpt lat="46.57633" lon="5.56284">
        <ele>570.2</ele>
        <time>2023-08-30T11:01:08Z</time>
      </trkpt>
      <trkpt lat="46.57627" lon="5.56282">
        <ele>569.2</ele>
        <time>2023-08-30T11:01:09Z</time>
      </trkpt>
      <trkpt lat="46.57621" lon="5.5628">
        <ele>569</ele>
        <time>2023-08-30T11:01:10Z</time>
      </trkpt>
      <trkpt lat="46.57614" lon="5.56278">
        <ele>569</ele>
        <time>2023-08-30T11:01:11Z</time>
      </trkpt>
      <trkpt lat="46.57608" lon="5.56275">
        <ele>569</ele>
        <time>2023-08-30T11:01:12Z</time>
      </trkpt>
      <trkpt lat="46.57602" lon="5.56273">
        <ele>569</ele>
        <time>2023-08-30T11:01:13Z</time>
      </trkpt>
      <trkpt lat="46.57596" lon="5.5627">
        <ele>568</ele>
        <time>2023-08-30T11:01:14Z</time>
      </trkpt>
      <trkpt lat="46.5759" lon="5.56267">
        <ele>568</ele>
        <time>2023-08-30T11:01:15Z</time>
      </trkpt>
      <trkpt lat="46.57584" lon="5.56265">
        <ele>568</ele>
        <time>2023-08-30T11:01:16Z</time>
      </trkpt>
      <trkpt lat="46.57579" lon="5.56262">
        <ele>567</ele>
        <time>2023-08-30T11:01:17Z</time>
      </trkpt>
      <trkpt lat="46.57573" lon="5.5626">
        <ele>566.6</ele>
        <time>2023-08-30T11:01:18Z</time>
      </trkpt>
      <trkpt lat="46.57567" lon="5.56258">
        <ele>566.6</ele>
        <time>2023-08-30T11:01:19Z</time>
      </trkpt>
      <trkpt lat="46.57561" lon="5.56256">
        <ele>566.6</ele>
        <time>2023-08-30T11:01:20Z</time>
      </trkpt>
      <trkpt lat="46.57555" lon="5.56254">
        <ele>566.6</ele>
        <time>2023-08-30T11:01:21Z</time>
      </trkpt>
      <trkpt lat="46.57549" lon="5.56252">
        <ele>565.8</ele>
        <time>2023-08-30T11:01:22Z</time>
      </trkpt>
      <trkpt lat="46.57543" lon="5.5625">
        <ele>565.6</ele>
        <time>2023-08-30T11:01:23Z</time>
      </trkpt>
      <trkpt lat="46.57536" lon="5.56248">
        <ele>565.6</ele>
        <time>2023-08-30T11:01:24Z</time>
      </trkpt>
      <trkpt lat="46.5753" lon="5.56246">
        <ele>565.6</ele>
        <time>2023-08-30T11:01:25Z</time>
      </trkpt>
      <trkpt lat="46.57524" lon="5.56244">
        <ele>564.6</ele>
        <time>2023-08-30T11:01:26Z</time>
      </trkpt>
      <trkpt lat="46.57517" lon="5.56241">
        <ele>564.2</ele>
        <time>2023-08-30T11:01:27Z</time>
      </trkpt>
      <trkpt lat="46.57511" lon="5.56239">
        <ele>564.2</ele>
        <time>2023-08-30T11:01:28Z</time>
      </trkpt>
      <trkpt lat="46.57504" lon="5.56237">
        <ele>564.2</ele>
        <time>2023-08-30T11:01:29Z</time>
      </trkpt>
      <trkpt lat="46.57497" lon="5.56235">
        <ele>563.6</ele>
        <time>2023-08-30T11:01:30Z</time>
      </trkpt>
      <trkpt lat="46.57491" lon="5.56232">
        <ele>563.6</ele>
        <time>2023-08-30T11:01:31Z</time>
      </trkpt>
      <trkpt lat="46.57484" lon="5.5623">
        <ele>563</ele>
        <time>2023-08-30T11:01:32Z</time>
      </trkpt>
      <trkpt lat="46.57478" lon="5.56228">
        <ele>563</ele>
        <time>2023-08-30T11:01:33Z</time>
      </trkpt>
      <trkpt lat="46.57471" lon="5.56226">
        <ele>563</ele>
        <time>2023-08-30T11:01:34Z</time>
      </trkpt>
      <trkpt lat="46.57465" lon="5.56224">
        <ele>563</ele>
        <time>2023-08-30T11:01:35Z</time>
      </trkpt>
      <trkpt lat="46.57458" lon="5.56222">
        <ele>562.6</ele>
        <time>2023-08-30T11:01:36Z</time>
      </trkpt>
      <trkpt lat="46.57452" lon="5.56221">
        <ele>562.6</ele>
        <time>2023-08-30T11:01:37Z</time>
      </trkpt>
      <trkpt lat="46.57446" lon="5.5622">
        <ele>562.6</ele>
        <time>2023-08-30T11:01:38Z</time>
      </trkpt>
      <trkpt lat="46.5744" lon="5.5622">
        <ele>562.6</ele>
        <time>2023-08-30T11:01:39Z</time>
      </trkpt>
      <trkpt lat="46.57435" lon="5.56219">
        <ele>561.8</ele>
        <time>2023-08-30T11:01:40Z</time>
      </trkpt>
      <trkpt lat="46.5743" lon="5.56219">
        <ele>561.6</ele>
        <time>2023-08-30T11:01:41Z</time>
      </trkpt>
      <trkpt lat="46.57424" lon="5.56218">
        <ele>561.6</ele>
        <time>2023-08-30T11:01:42Z</time>
      </trkpt>
      <trkpt lat="46.57419" lon="5.56217">
        <ele>561.6</ele>
        <time>2023-08-30T11:01:43Z</time>
      </trkpt>
      <trkpt lat="46.57414" lon="5.56217">
        <ele>561.6</ele>
        <time>2023-08-30T11:01:44Z</time>
      </trkpt>
      <trkpt lat="46.5741" lon="5.56216">
        <ele>561.6</ele>
        <time>2023-08-30T11:01:45Z</time>
      </trkpt>
      <trkpt lat="46.57405" lon="5.56216">
        <ele>561.6</ele>
        <time>2023-08-30T11:01:46Z</time>
      </trkpt>
      <trkpt lat="46.57398" lon="5.56215">
        <ele>561.6</ele>
        <time>2023-08-30T11:01:47Z</time>
      </trkpt>
      <trkpt lat="46.57396" lon="5.56214">
        <ele>561.6</ele>
        <time>2023-08-30T11:01:48Z</time>
      </trkpt>
      <trkpt lat="46.57391" lon="5.56214">
        <ele>561.2</ele>
        <time>2023-08-30T11:01:49Z</time>
      </trkpt>
      <trkpt lat="46.57386" lon="5.56214">
        <ele>561.2</ele>
        <time>2023-08-30T11:01:50Z</time>
      </trkpt>
      <trkpt lat="46.57381" lon="5.56213">
        <ele>561.2</ele>
        <time>2023-08-30T11:01:51Z</time>
      </trkpt>
      <trkpt lat="46.57377" lon="5.56213">
        <ele>561.2</ele>
        <time>2023-08-30T11:01:52Z</time>
      </trkpt>
      <trkpt lat="46.57372" lon="5.56213">
        <ele>561</ele>
        <time>2023-08-30T11:01:53Z</time>
      </trkpt>
      <trkpt lat="46.57367" lon="5.56213">
        <ele>561</ele>
        <time>2023-08-30T11:01:54Z</time>
      </trkpt>
      <trkpt lat="46.57363" lon="5.56212">
        <ele>561</ele>
        <time>2023-08-30T11:01:55Z</time>
      </trkpt>
      <trkpt lat="46.57358" lon="5.56212">
        <ele>561</ele>
        <time>2023-08-30T11:01:56Z</time>
      </trkpt>
      <trkpt lat="46.57353" lon="5.56212">
        <ele>560.6</ele>
        <time>2023-08-30T11:01:57Z</time>
      </trkpt>
      <trkpt lat="46.57348" lon="5.56211">
        <ele>560.6</ele>
        <time>2023-08-30T11:01:58Z</time>
      </trkpt>
      <trkpt lat="46.57343" lon="5.5621">
        <ele>560.8</ele>
        <time>2023-08-30T11:01:59Z</time>
      </trkpt>
      <trkpt lat="46.57338" lon="5.56209">
        <ele>560.8</ele>
        <time>2023-08-30T11:02:00Z</time>
      </trkpt>
      <trkpt lat="46.57333" lon="5.56208">
        <ele>560.8</ele>
        <time>2023-08-30T11:02:01Z</time>
      </trkpt>
      <trkpt lat="46.57328" lon="5.56208">
        <ele>560.6</ele>
        <time>2023-08-30T11:02:02Z</time>
      </trkpt>
      <trkpt lat="46.57322" lon="5.56207">
        <ele>560.4</ele>
        <time>2023-08-30T11:02:03Z</time>
      </trkpt>
      <trkpt lat="46.57314" lon="5.56207">
        <ele>560.4</ele>
        <time>2023-08-30T11:02:04Z</time>
      </trkpt>
      <trkpt lat="46.57311" lon="5.56206">
        <ele>560.4</ele>
        <time>2023-08-30T11:02:05Z</time>
      </trkpt>
      <trkpt lat="46.57306" lon="5.56206">
        <ele>560.4</ele>
        <time>2023-08-30T11:02:06Z</time>
      </trkpt>
      <trkpt lat="46.573" lon="5.56205">
        <ele>560.4</ele>
        <time>2023-08-30T11:02:07Z</time>
      </trkpt>
      <trkpt lat="46.57294" lon="5.56205">
        <ele>560.4</ele>
        <time>2023-08-30T11:02:08Z</time>
      </trkpt>
      <trkpt lat="46.57289" lon="5.56204">
        <ele>560.4</ele>
        <time>2023-08-30T11:02:09Z</time>
      </trkpt>
      <trkpt lat="46.57283" lon="5.56204">
        <ele>560.4</ele>
        <time>2023-08-30T11:02:10Z</time>
      </trkpt>
      <trkpt lat="46.57278" lon="5.56203">
        <ele>560.2</ele>
        <time>2023-08-30T11:02:11Z</time>
      </trkpt>
      <trkpt lat="46.57272" lon="5.56203">
        <ele>560</ele>
        <time>2023-08-30T11:02:12Z</time>
      </trkpt>
      <trkpt lat="46.57267" lon="5.56202">
        <ele>560</ele>
        <time>2023-08-30T11:02:13Z</time>
      </trkpt>
      <trkpt lat="46.57261" lon="5.56202">
        <ele>560</ele>
        <time>2023-08-30T11:02:14Z</time>
      </trkpt>
      <trkpt lat="46.57255" lon="5.56201">
        <ele>560</ele>
        <time>2023-08-30T11:02:15Z</time>
      </trkpt>
      <trkpt lat="46.57249" lon="5.56201">
        <ele>559.8</ele>
        <time>2023-08-30T11:02:16Z</time>
      </trkpt>
      <trkpt lat="46.57243" lon="5.562">
        <ele>559.8</ele>
        <time>2023-08-30T11:02:17Z</time>
      </trkpt>
      <trkpt lat="46.57237" lon="5.562">
        <ele>559.8</ele>
        <time>2023-08-30T11:02:18Z</time>
      </trkpt>
      <trkpt lat="46.5723" lon="5.56199">
        <ele>559.8</ele>
        <time>2023-08-30T11:02:19Z</time>
      </trkpt>
      <trkpt lat="46.57224" lon="5.56199">
        <ele>559.4</ele>
        <time>2023-08-30T11:02:20Z</time>
      </trkpt>
      <trkpt lat="46.57218" lon="5.56198">
        <ele>559.4</ele>
        <time>2023-08-30T11:02:21Z</time>
      </trkpt>
      <trkpt lat="46.57211" lon="5.56197">
        <ele>559.4</ele>
        <time>2023-08-30T11:02:22Z</time>
      </trkpt>
      <trkpt lat="46.57205" lon="5.56197">
        <ele>559.4</ele>
        <time>2023-08-30T11:02:23Z</time>
      </trkpt>
      <trkpt lat="46.57199" lon="5.56196">
        <ele>559.4</ele>
        <time>2023-08-30T11:02:24Z</time>
      </trkpt>
      <trkpt lat="46.57192" lon="5.56196">
        <ele>559.4</ele>
        <time>2023-08-30T11:02:25Z</time>
      </trkpt>
      <trkpt lat="46.57186" lon="5.56195">
        <ele>559.2</ele>
        <time>2023-08-30T11:02:26Z</time>
      </trkpt>
      <trkpt lat="46.5718" lon="5.56195">
        <ele>559.2</ele>
        <time>2023-08-30T11:02:27Z</time>
      </trkpt>
      <trkpt lat="46.57174" lon="5.56194">
        <ele>559.2</ele>
        <time>2023-08-30T11:02:28Z</time>
      </trkpt>
      <trkpt lat="46.57169" lon="5.56194">
        <ele>558.8</ele>
        <time>2023-08-30T11:02:29Z</time>
      </trkpt>
      <trkpt lat="46.57163" lon="5.56194">
        <ele>559</ele>
        <time>2023-08-30T11:02:30Z</time>
      </trkpt>
      <trkpt lat="46.57157" lon="5.56193">
        <ele>559</ele>
        <time>2023-08-30T11:02:31Z</time>
      </trkpt>
      <trkpt lat="46.57152" lon="5.56192">
        <ele>559</ele>
        <time>2023-08-30T11:02:32Z</time>
      </trkpt>
      <trkpt lat="46.57146" lon="5.56191">
        <ele>558.6</ele>
        <time>2023-08-30T11:02:33Z</time>
      </trkpt>
      <trkpt lat="46.57141" lon="5.56189">
        <ele>558.6</ele>
        <time>2023-08-30T11:02:34Z</time>
      </trkpt>
      <trkpt lat="46.57135" lon="5.56187">
        <ele>558.6</ele>
        <time>2023-08-30T11:02:35Z</time>
      </trkpt>
      <trkpt lat="46.57129" lon="5.56184">
        <ele>558.6</ele>
        <time>2023-08-30T11:02:36Z</time>
      </trkpt>
      <trkpt lat="46.57124" lon="5.56181">
        <ele>558.6</ele>
        <time>2023-08-30T11:02:37Z</time>
      </trkpt>
      <trkpt lat="46.57118" lon="5.56178">
        <ele>558.6</ele>
        <time>2023-08-30T11:02:38Z</time>
      </trkpt>
      <trkpt lat="46.57113" lon="5.56175">
        <ele>558.6</ele>
        <time>2023-08-30T11:02:39Z</time>
      </trkpt>
      <trkpt lat="46.57107" lon="5.56172">
        <ele>558.6</ele>
        <time>2023-08-30T11:02:40Z</time>
      </trkpt>
      <trkpt lat="46.57101" lon="5.56169">
        <ele>558.6</ele>
        <time>2023-08-30T11:02:41Z</time>
      </trkpt>
      <trkpt lat="46.57096" lon="5.56166">
        <ele>558.4</ele>
        <time>2023-08-30T11:02:42Z</time>
      </trkpt>
      <trkpt lat="46.57089" lon="5.56164">
        <ele>558.4</ele>
        <time>2023-08-30T11:02:43Z</time>
      </trkpt>
      <trkpt lat="46.57083" lon="5.56162">
        <ele>558.4</ele>
        <time>2023-08-30T11:02:44Z</time>
      </trkpt>
      <trkpt lat="46.57077" lon="5.5616">
        <ele>558.4</ele>
        <time>2023-08-30T11:02:45Z</time>
      </trkpt>
      <trkpt lat="46.57071" lon="5.56157">
        <ele>558.4</ele>
        <time>2023-08-30T11:02:46Z</time>
      </trkpt>
      <trkpt lat="46.57063" lon="5.56153">
        <ele>557.8</ele>
        <time>2023-08-30T11:02:47Z</time>
      </trkpt>
      <trkpt lat="46.5706" lon="5.56151">
        <ele>557.8</ele>
        <time>2023-08-30T11:02:48Z</time>
      </trkpt>
      <trkpt lat="46.57054" lon="5.56149">
        <ele>557.8</ele>
        <time>2023-08-30T11:02:49Z</time>
      </trkpt>
      <trkpt lat="46.57048" lon="5.56146">
        <ele>557.8</ele>
        <time>2023-08-30T11:02:50Z</time>
      </trkpt>
      <trkpt lat="46.57042" lon="5.56144">
        <ele>557.6</ele>
        <time>2023-08-30T11:02:51Z</time>
      </trkpt>
      <trkpt lat="46.57036" lon="5.56141">
        <ele>557.6</ele>
        <time>2023-08-30T11:02:52Z</time>
      </trkpt>
      <trkpt lat="46.57031" lon="5.56139">
        <ele>557.6</ele>
        <time>2023-08-30T11:02:53Z</time>
      </trkpt>
      <trkpt lat="46.57025" lon="5.56138">
        <ele>557.6</ele>
        <time>2023-08-30T11:02:54Z</time>
      </trkpt>
      <trkpt lat="46.5702" lon="5.56136">
        <ele>557.2</ele>
        <time>2023-08-30T11:02:55Z</time>
      </trkpt>
      <trkpt lat="46.57015" lon="5.56134">
        <ele>557.2</ele>
        <time>2023-08-30T11:02:56Z</time>
      </trkpt>
      <trkpt lat="46.57009" lon="5.56131">
        <ele>557.4</ele>
        <time>2023-08-30T11:02:57Z</time>
      </trkpt>
      <trkpt lat="46.57004" lon="5.56129">
        <ele>557.4</ele>
        <time>2023-08-30T11:02:58Z</time>
      </trkpt>
      <trkpt lat="46.56998" lon="5.56127">
        <ele>557.4</ele>
        <time>2023-08-30T11:02:59Z</time>
      </trkpt>
      <trkpt lat="46.56993" lon="5.56125">
        <ele>557.4</ele>
        <time>2023-08-30T11:03:00Z</time>
      </trkpt>
      <trkpt lat="46.56987" lon="5.56123">
        <ele>557</ele>
        <time>2023-08-30T11:03:01Z</time>
      </trkpt>
      <trkpt lat="46.56981" lon="5.56121">
        <ele>557.2</ele>
        <time>2023-08-30T11:03:02Z</time>
      </trkpt>
      <trkpt lat="46.56974" lon="5.56119">
        <ele>557.2</ele>
        <time>2023-08-30T11:03:03Z</time>
      </trkpt>
      <trkpt lat="46.56968" lon="5.56118">
        <ele>557.2</ele>
        <time>2023-08-30T11:03:04Z</time>
      </trkpt>
      <trkpt lat="46.56961" lon="5.56116">
        <ele>556.8</ele>
        <time>2023-08-30T11:03:05Z</time>
      </trkpt>
      <trkpt lat="46.56955" lon="5.56114">
        <ele>556.6</ele>
        <time>2023-08-30T11:03:06Z</time>
      </trkpt>
      <trkpt lat="46.56948" lon="5.56112">
        <ele>556.6</ele>
        <time>2023-08-30T11:03:07Z</time>
      </trkpt>
      <trkpt lat="46.56941" lon="5.5611">
        <ele>556.6</ele>
        <time>2023-08-30T11:03:08Z</time>
      </trkpt>
      <trkpt lat="46.56934" lon="5.56107">
        <ele>556.4</ele>
        <time>2023-08-30T11:03:09Z</time>
      </trkpt>
      <trkpt lat="46.56927" lon="5.56105">
        <ele>556.4</ele>
        <time>2023-08-30T11:03:10Z</time>
      </trkpt>
      <trkpt lat="46.56919" lon="5.56102">
        <ele>556.2</ele>
        <time>2023-08-30T11:03:11Z</time>
      </trkpt>
      <trkpt lat="46.56912" lon="5.56099">
        <ele>556.2</ele>
        <time>2023-08-30T11:03:12Z</time>
      </trkpt>
      <trkpt lat="46.56905" lon="5.56096">
        <ele>556.2</ele>
        <time>2023-08-30T11:03:13Z</time>
      </trkpt>
      <trkpt lat="46.56898" lon="5.56093">
        <ele>556.2</ele>
        <time>2023-08-30T11:03:14Z</time>
      </trkpt>
      <trkpt lat="46.5689" lon="5.56088">
        <ele>555.4</ele>
        <time>2023-08-30T11:03:15Z</time>
      </trkpt>
      <trkpt lat="46.56883" lon="5.56084">
        <ele>555.4</ele>
        <time>2023-08-30T11:03:16Z</time>
      </trkpt>
      <trkpt lat="46.56876" lon="5.56078">
        <ele>555.4</ele>
        <time>2023-08-30T11:03:17Z</time>
      </trkpt>
      <trkpt lat="46.56869" lon="5.56072">
        <ele>555.4</ele>
        <time>2023-08-30T11:03:18Z</time>
      </trkpt>
      <trkpt lat="46.56862" lon="5.56065">
        <ele>555.4</ele>
        <time>2023-08-30T11:03:19Z</time>
      </trkpt>
      <trkpt lat="46.56855" lon="5.56058">
        <ele>554.6</ele>
        <time>2023-08-30T11:03:20Z</time>
      </trkpt>
      <trkpt lat="46.56848" lon="5.56051">
        <ele>554.6</ele>
        <time>2023-08-30T11:03:21Z</time>
      </trkpt>
      <trkpt lat="46.56841" lon="5.56043">
        <ele>554.6</ele>
        <time>2023-08-30T11:03:22Z</time>
      </trkpt>
      <trkpt lat="46.56834" lon="5.56036">
        <ele>554.6</ele>
        <time>2023-08-30T11:03:23Z</time>
      </trkpt>
      <trkpt lat="46.56827" lon="5.56029">
        <ele>553.6</ele>
        <time>2023-08-30T11:03:24Z</time>
      </trkpt>
      <trkpt lat="46.56819" lon="5.56022">
        <ele>553.2</ele>
        <time>2023-08-30T11:03:25Z</time>
      </trkpt>
      <trkpt lat="46.56813" lon="5.56015">
        <ele>553.2</ele>
        <time>2023-08-30T11:03:26Z</time>
      </trkpt>
      <trkpt lat="46.56806" lon="5.56008">
        <ele>553.2</ele>
        <time>2023-08-30T11:03:27Z</time>
      </trkpt>
      <trkpt lat="46.56799" lon="5.56002">
        <ele>552.6</ele>
        <time>2023-08-30T11:03:28Z</time>
      </trkpt>
      <trkpt lat="46.56791" lon="5.55997">
        <ele>552.4</ele>
        <time>2023-08-30T11:03:29Z</time>
      </trkpt>
      <trkpt lat="46.56784" lon="5.55993">
        <ele>552.4</ele>
        <time>2023-08-30T11:03:30Z</time>
      </trkpt>
      <trkpt lat="46.56773" lon="5.5599">
        <ele>552.4</ele>
        <time>2023-08-30T11:03:31Z</time>
      </trkpt>
      <trkpt lat="46.5677" lon="5.55988">
        <ele>552.4</ele>
        <time>2023-08-30T11:03:32Z</time>
      </trkpt>
      <trkpt lat="46.56759" lon="5.55984">
        <ele>552</ele>
        <time>2023-08-30T11:03:33Z</time>
      </trkpt>
      <trkpt lat="46.56755" lon="5.55983">
        <ele>551.8</ele>
        <time>2023-08-30T11:03:34Z</time>
      </trkpt>
      <trkpt lat="46.56745" lon="5.55979">
        <ele>551.8</ele>
        <time>2023-08-30T11:03:35Z</time>
      </trkpt>
      <trkpt lat="46.56741" lon="5.55978">
        <ele>551.8</ele>
        <time>2023-08-30T11:03:36Z</time>
      </trkpt>
      <trkpt lat="46.56734" lon="5.55975">
        <ele>551.8</ele>
        <time>2023-08-30T11:03:37Z</time>
      </trkpt>
      <trkpt lat="46.56727" lon="5.55973">
        <ele>551.8</ele>
        <time>2023-08-30T11:03:38Z</time>
      </trkpt>
      <trkpt lat="46.5672" lon="5.55971">
        <ele>551.6</ele>
        <time>2023-08-30T11:03:39Z</time>
      </trkpt>
      <trkpt lat="46.56713" lon="5.55968">
        <ele>551.6</ele>
        <time>2023-08-30T11:03:40Z</time>
      </trkpt>
      <trkpt lat="46.56706" lon="5.55966">
        <ele>551.6</ele>
        <time>2023-08-30T11:03:41Z</time>
      </trkpt>
      <trkpt lat="46.56698" lon="5.55964">
        <ele>551.8</ele>
        <time>2023-08-30T11:03:42Z</time>
      </trkpt>
      <trkpt lat="46.56691" lon="5.55961">
        <ele>551.6</ele>
        <time>2023-08-30T11:03:43Z</time>
      </trkpt>
      <trkpt lat="46.56684" lon="5.55959">
        <ele>551.6</ele>
        <time>2023-08-30T11:03:44Z</time>
      </trkpt>
      <trkpt lat="46.56677" lon="5.55956">
        <ele>551.6</ele>
        <time>2023-08-30T11:03:45Z</time>
      </trkpt>
      <trkpt lat="46.56669" lon="5.55954">
        <ele>551.6</ele>
        <time>2023-08-30T11:03:46Z</time>
      </trkpt>
      <trkpt lat="46.56662" lon="5.55951">
        <ele>551.6</ele>
        <time>2023-08-30T11:03:47Z</time>
      </trkpt>
      <trkpt lat="46.56654" lon="5.55949">
        <ele>551.4</ele>
        <time>2023-08-30T11:03:48Z</time>
      </trkpt>
      <trkpt lat="46.56647" lon="5.55947">
        <ele>551.4</ele>
        <time>2023-08-30T11:03:49Z</time>
      </trkpt>
      <trkpt lat="46.56639" lon="5.55944">
        <ele>551.4</ele>
        <time>2023-08-30T11:03:50Z</time>
      </trkpt>
      <trkpt lat="46.56631" lon="5.55941">
        <ele>550.8</ele>
        <time>2023-08-30T11:03:51Z</time>
      </trkpt>
      <trkpt lat="46.5662" lon="5.55938">
        <ele>550.8</ele>
        <time>2023-08-30T11:03:52Z</time>
      </trkpt>
      <trkpt lat="46.56616" lon="5.55936">
        <ele>550.8</ele>
        <time>2023-08-30T11:03:53Z</time>
      </trkpt>
      <trkpt lat="46.56608" lon="5.55934">
        <ele>550.8</ele>
        <time>2023-08-30T11:03:54Z</time>
      </trkpt>
      <trkpt lat="46.566" lon="5.55931">
        <ele>550.8</ele>
        <time>2023-08-30T11:03:55Z</time>
      </trkpt>
      <trkpt lat="46.56592" lon="5.55928">
        <ele>550.2</ele>
        <time>2023-08-30T11:03:56Z</time>
      </trkpt>
      <trkpt lat="46.56584" lon="5.55926">
        <ele>550</ele>
        <time>2023-08-30T11:03:57Z</time>
      </trkpt>
      <trkpt lat="46.56576" lon="5.55924">
        <ele>550</ele>
        <time>2023-08-30T11:03:58Z</time>
      </trkpt>
      <trkpt lat="46.56568" lon="5.55921">
        <ele>550</ele>
        <time>2023-08-30T11:03:59Z</time>
      </trkpt>
      <trkpt lat="46.56561" lon="5.55918">
        <ele>549.6</ele>
        <time>2023-08-30T11:04:00Z</time>
      </trkpt>
      <trkpt lat="46.56553" lon="5.55915">
        <ele>549.6</ele>
        <time>2023-08-30T11:04:01Z</time>
      </trkpt>
      <trkpt lat="46.56545" lon="5.55912">
        <ele>549.2</ele>
        <time>2023-08-30T11:04:02Z</time>
      </trkpt>
      <trkpt lat="46.56537" lon="5.5591">
        <ele>549.2</ele>
        <time>2023-08-30T11:04:03Z</time>
      </trkpt>
      <trkpt lat="46.56529" lon="5.55907">
        <ele>549.2</ele>
        <time>2023-08-30T11:04:04Z</time>
      </trkpt>
      <trkpt lat="46.56522" lon="5.55904">
        <ele>548.2</ele>
        <time>2023-08-30T11:04:05Z</time>
      </trkpt>
      <trkpt lat="46.56514" lon="5.55901">
        <ele>548.2</ele>
        <time>2023-08-30T11:04:06Z</time>
      </trkpt>
      <trkpt lat="46.56506" lon="5.55899">
        <ele>548.2</ele>
        <time>2023-08-30T11:04:07Z</time>
      </trkpt>
      <trkpt lat="46.56499" lon="5.55896">
        <ele>548.2</ele>
        <time>2023-08-30T11:04:08Z</time>
      </trkpt>
      <trkpt lat="46.56491" lon="5.55894">
        <ele>547.2</ele>
        <time>2023-08-30T11:04:09Z</time>
      </trkpt>
      <trkpt lat="46.56483" lon="5.55892">
        <ele>547.2</ele>
        <time>2023-08-30T11:04:10Z</time>
      </trkpt>
      <trkpt lat="46.56475" lon="5.55891">
        <ele>547.2</ele>
        <time>2023-08-30T11:04:11Z</time>
      </trkpt>
      <trkpt lat="46.56467" lon="5.55891">
        <ele>547.2</ele>
        <time>2023-08-30T11:04:12Z</time>
      </trkpt>
      <trkpt lat="46.56459" lon="5.55891">
        <ele>547.2</ele>
        <time>2023-08-30T11:04:13Z</time>
      </trkpt>
      <trkpt lat="46.5645" lon="5.55892">
        <ele>546.6</ele>
        <time>2023-08-30T11:04:14Z</time>
      </trkpt>
      <trkpt lat="46.56442" lon="5.55894">
        <ele>546.2</ele>
        <time>2023-08-30T11:04:15Z</time>
      </trkpt>
      <trkpt lat="46.56433" lon="5.55896">
        <ele>546.2</ele>
        <time>2023-08-30T11:04:16Z</time>
      </trkpt>
      <trkpt lat="46.56425" lon="5.55898">
        <ele>546.2</ele>
        <time>2023-08-30T11:04:17Z</time>
      </trkpt>
      <trkpt lat="46.56416" lon="5.55901">
        <ele>545.8</ele>
        <time>2023-08-30T11:04:18Z</time>
      </trkpt>
      <trkpt lat="46.56403" lon="5.55903">
        <ele>545.6</ele>
        <time>2023-08-30T11:04:19Z</time>
      </trkpt>
      <trkpt lat="46.56399" lon="5.55904">
        <ele>545.6</ele>
        <time>2023-08-30T11:04:20Z</time>
      </trkpt>
      <trkpt lat="46.56386" lon="5.55906">
        <ele>545.6</ele>
        <time>2023-08-30T11:04:21Z</time>
      </trkpt>
      <trkpt lat="46.56382" lon="5.55906">
        <ele>545.6</ele>
        <time>2023-08-30T11:04:22Z</time>
      </trkpt>
      <trkpt lat="46.56373" lon="5.55906">
        <ele>545.6</ele>
        <time>2023-08-30T11:04:23Z</time>
      </trkpt>
      <trkpt lat="46.56365" lon="5.55906">
        <ele>544.8</ele>
        <time>2023-08-30T11:04:24Z</time>
      </trkpt>
      <trkpt lat="46.56353" lon="5.55905">
        <ele>544.8</ele>
        <time>2023-08-30T11:04:25Z</time>
      </trkpt>
      <trkpt lat="46.56349" lon="5.55905">
        <ele>544.8</ele>
        <time>2023-08-30T11:04:26Z</time>
      </trkpt>
      <trkpt lat="46.5634" lon="5.55904">
        <ele>544.6</ele>
        <time>2023-08-30T11:04:27Z</time>
      </trkpt>
      <trkpt lat="46.56332" lon="5.55901">
        <ele>544.8</ele>
        <time>2023-08-30T11:04:28Z</time>
      </trkpt>
      <trkpt lat="46.56325" lon="5.55897">
        <ele>544.8</ele>
        <time>2023-08-30T11:04:29Z</time>
      </trkpt>
      <trkpt lat="46.56317" lon="5.55892">
        <ele>544.8</ele>
        <time>2023-08-30T11:04:30Z</time>
      </trkpt>
      <trkpt lat="46.5631" lon="5.55886">
        <ele>544</ele>
        <time>2023-08-30T11:04:31Z</time>
      </trkpt>
      <trkpt lat="46.56304" lon="5.55879">
        <ele>544</ele>
        <time>2023-08-30T11:04:32Z</time>
      </trkpt>
      <trkpt lat="46.56298" lon="5.55871">
        <ele>544</ele>
        <time>2023-08-30T11:04:33Z</time>
      </trkpt>
      <trkpt lat="46.56292" lon="5.55863">
        <ele>544</ele>
        <time>2023-08-30T11:04:34Z</time>
      </trkpt>
      <trkpt lat="46.56286" lon="5.55855">
        <ele>544</ele>
        <time>2023-08-30T11:04:35Z</time>
      </trkpt>
      <trkpt lat="46.56277" lon="5.55844">
        <ele>543.6</ele>
        <time>2023-08-30T11:04:36Z</time>
      </trkpt>
      <trkpt lat="46.56274" lon="5.5584">
        <ele>543.4</ele>
        <time>2023-08-30T11:04:37Z</time>
      </trkpt>
      <trkpt lat="46.56265" lon="5.5583">
        <ele>543.4</ele>
        <time>2023-08-30T11:04:38Z</time>
      </trkpt>
      <trkpt lat="46.56261" lon="5.55826">
        <ele>543.4</ele>
        <time>2023-08-30T11:04:39Z</time>
      </trkpt>
      <trkpt lat="46.56251" lon="5.55816">
        <ele>542.6</ele>
        <time>2023-08-30T11:04:40Z</time>
      </trkpt>
      <trkpt lat="46.56248" lon="5.55813">
        <ele>542.6</ele>
        <time>2023-08-30T11:04:41Z</time>
      </trkpt>
      <trkpt lat="46.56238" lon="5.55804">
        <ele>542.4</ele>
        <time>2023-08-30T11:04:42Z</time>
      </trkpt>
      <trkpt lat="46.56234" lon="5.55801">
        <ele>542.4</ele>
        <time>2023-08-30T11:04:43Z</time>
      </trkpt>
      <trkpt lat="46.56228" lon="5.55794">
        <ele>542.4</ele>
        <time>2023-08-30T11:04:44Z</time>
      </trkpt>
      <trkpt lat="46.56221" lon="5.55788">
        <ele>542</ele>
        <time>2023-08-30T11:04:45Z</time>
      </trkpt>
      <trkpt lat="46.56214" lon="5.55782">
        <ele>541.6</ele>
        <time>2023-08-30T11:04:46Z</time>
      </trkpt>
      <trkpt lat="46.56208" lon="5.55775">
        <ele>541.6</ele>
        <time>2023-08-30T11:04:47Z</time>
      </trkpt>
      <trkpt lat="46.56202" lon="5.55769">
        <ele>541.6</ele>
        <time>2023-08-30T11:04:48Z</time>
      </trkpt>
      <trkpt lat="46.56195" lon="5.55764">
        <ele>541</ele>
        <time>2023-08-30T11:04:49Z</time>
      </trkpt>
      <trkpt lat="46.56185" lon="5.55757">
        <ele>541</ele>
        <time>2023-08-30T11:04:50Z</time>
      </trkpt>
      <trkpt lat="46.56181" lon="5.55755">
        <ele>540.6</ele>
        <time>2023-08-30T11:04:51Z</time>
      </trkpt>
      <trkpt lat="46.56171" lon="5.55748">
        <ele>540.6</ele>
        <time>2023-08-30T11:04:52Z</time>
      </trkpt>
      <trkpt lat="46.56167" lon="5.55746">
        <ele>540.6</ele>
        <time>2023-08-30T11:04:53Z</time>
      </trkpt>
      <trkpt lat="46.56157" lon="5.5574">
        <ele>540.6</ele>
        <time>2023-08-30T11:04:54Z</time>
      </trkpt>
      <trkpt lat="46.56153" lon="5.55738">
        <ele>540.6</ele>
        <time>2023-08-30T11:04:55Z</time>
      </trkpt>
      <trkpt lat="46.56146" lon="5.55734">
        <ele>539.8</ele>
        <time>2023-08-30T11:04:56Z</time>
      </trkpt>
      <trkpt lat="46.56139" lon="5.5573">
        <ele>539.8</ele>
        <time>2023-08-30T11:04:57Z</time>
      </trkpt>
      <trkpt lat="46.56132" lon="5.55727">
        <ele>539.8</ele>
        <time>2023-08-30T11:04:58Z</time>
      </trkpt>
      <trkpt lat="46.56125" lon="5.55724">
        <ele>539.4</ele>
        <time>2023-08-30T11:04:59Z</time>
      </trkpt>
      <trkpt lat="46.56119" lon="5.5572">
        <ele>539.4</ele>
        <time>2023-08-30T11:05:00Z</time>
      </trkpt>
      <trkpt lat="46.56112" lon="5.55717">
        <ele>539.4</ele>
        <time>2023-08-30T11:05:01Z</time>
      </trkpt>
      <trkpt lat="46.56105" lon="5.55715">
        <ele>539.4</ele>
        <time>2023-08-30T11:05:02Z</time>
      </trkpt>
      <trkpt lat="46.56098" lon="5.55713">
        <ele>539.4</ele>
        <time>2023-08-30T11:05:03Z</time>
      </trkpt>
      <trkpt lat="46.56091" lon="5.55712">
        <ele>538.6</ele>
        <time>2023-08-30T11:05:04Z</time>
      </trkpt>
      <trkpt lat="46.5608" lon="5.55711">
        <ele>538.6</ele>
        <time>2023-08-30T11:05:05Z</time>
      </trkpt>
      <trkpt lat="46.56077" lon="5.55711">
        <ele>538.6</ele>
        <time>2023-08-30T11:05:06Z</time>
      </trkpt>
      <trkpt lat="46.5607" lon="5.55711">
        <ele>537.6</ele>
        <time>2023-08-30T11:05:07Z</time>
      </trkpt>
      <trkpt lat="46.56063" lon="5.55711">
        <ele>537.4</ele>
        <time>2023-08-30T11:05:08Z</time>
      </trkpt>
      <trkpt lat="46.56056" lon="5.55712">
        <ele>537.4</ele>
        <time>2023-08-30T11:05:09Z</time>
      </trkpt>
      <trkpt lat="46.56049" lon="5.55712">
        <ele>537.4</ele>
        <time>2023-08-30T11:05:10Z</time>
      </trkpt>
      <trkpt lat="46.56042" lon="5.55711">
        <ele>537.4</ele>
        <time>2023-08-30T11:05:11Z</time>
      </trkpt>
      <trkpt lat="46.56035" lon="5.55711">
        <ele>537.4</ele>
        <time>2023-08-30T11:05:12Z</time>
      </trkpt>
      <trkpt lat="46.56028" lon="5.55711">
        <ele>537</ele>
        <time>2023-08-30T11:05:13Z</time>
      </trkpt>
      <trkpt lat="46.56022" lon="5.55711">
        <ele>536.8</ele>
        <time>2023-08-30T11:05:14Z</time>
      </trkpt>
      <trkpt lat="46.56015" lon="5.55711">
        <ele>536.8</ele>
        <time>2023-08-30T11:05:15Z</time>
      </trkpt>
      <trkpt lat="46.56009" lon="5.55711">
        <ele>536.8</ele>
        <time>2023-08-30T11:05:16Z</time>
      </trkpt>
      <trkpt lat="46.56003" lon="5.55711">
        <ele>536.8</ele>
        <time>2023-08-30T11:05:17Z</time>
      </trkpt>
      <trkpt lat="46.55997" lon="5.55711">
        <ele>536.2</ele>
        <time>2023-08-30T11:05:18Z</time>
      </trkpt>
      <trkpt lat="46.55991" lon="5.55711">
        <ele>536.2</ele>
        <time>2023-08-30T11:05:19Z</time>
      </trkpt>
      <trkpt lat="46.55985" lon="5.55712">
        <ele>536.2</ele>
        <time>2023-08-30T11:05:20Z</time>
      </trkpt>
      <trkpt lat="46.55978" lon="5.55712">
        <ele>536.2</ele>
        <time>2023-08-30T11:05:21Z</time>
      </trkpt>
      <trkpt lat="46.55972" lon="5.55713">
        <ele>535.4</ele>
        <time>2023-08-30T11:05:22Z</time>
      </trkpt>
      <trkpt lat="46.55966" lon="5.55713">
        <ele>535</ele>
        <time>2023-08-30T11:05:23Z</time>
      </trkpt>
      <trkpt lat="46.5596" lon="5.55712">
        <ele>535</ele>
        <time>2023-08-30T11:05:24Z</time>
      </trkpt>
      <trkpt lat="46.55953" lon="5.55711">
        <ele>535</ele>
        <time>2023-08-30T11:05:25Z</time>
      </trkpt>
      <trkpt lat="46.55948" lon="5.55707">
        <ele>535</ele>
        <time>2023-08-30T11:05:26Z</time>
      </trkpt>
      <trkpt lat="46.55943" lon="5.55702">
        <ele>534</ele>
        <time>2023-08-30T11:05:27Z</time>
      </trkpt>
      <trkpt lat="46.55938" lon="5.55696">
        <ele>534</ele>
        <time>2023-08-30T11:05:28Z</time>
      </trkpt>
      <trkpt lat="46.5593" lon="5.55687">
        <ele>534</ele>
        <time>2023-08-30T11:05:29Z</time>
      </trkpt>
      <trkpt lat="46.55928" lon="5.55684">
        <ele>534</ele>
        <time>2023-08-30T11:05:30Z</time>
      </trkpt>
      <trkpt lat="46.55923" lon="5.55679">
        <ele>533</ele>
        <time>2023-08-30T11:05:31Z</time>
      </trkpt>
      <trkpt lat="46.55918" lon="5.55674">
        <ele>532.4</ele>
        <time>2023-08-30T11:05:32Z</time>
      </trkpt>
      <trkpt lat="46.55909" lon="5.55668">
        <ele>532.4</ele>
        <time>2023-08-30T11:05:33Z</time>
      </trkpt>
      <trkpt lat="46.55906" lon="5.55666">
        <ele>532.4</ele>
        <time>2023-08-30T11:05:34Z</time>
      </trkpt>
      <trkpt lat="46.559" lon="5.55662">
        <ele>532.4</ele>
        <time>2023-08-30T11:05:35Z</time>
      </trkpt>
      <trkpt lat="46.55894" lon="5.55656">
        <ele>531</ele>
        <time>2023-08-30T11:05:36Z</time>
      </trkpt>
      <trkpt lat="46.55888" lon="5.55651">
        <ele>531</ele>
        <time>2023-08-30T11:05:37Z</time>
      </trkpt>
      <trkpt lat="46.55882" lon="5.55644">
        <ele>531</ele>
        <time>2023-08-30T11:05:38Z</time>
      </trkpt>
      <trkpt lat="46.55876" lon="5.55638">
        <ele>531</ele>
        <time>2023-08-30T11:05:39Z</time>
      </trkpt>
      <trkpt lat="46.55871" lon="5.55632">
        <ele>531</ele>
        <time>2023-08-30T11:05:40Z</time>
      </trkpt>
      <trkpt lat="46.55865" lon="5.55625">
        <ele>530</ele>
        <time>2023-08-30T11:05:41Z</time>
      </trkpt>
      <trkpt lat="46.55859" lon="5.55618">
        <ele>530</ele>
        <time>2023-08-30T11:05:42Z</time>
      </trkpt>
      <trkpt lat="46.55854" lon="5.55612">
        <ele>530</ele>
        <time>2023-08-30T11:05:43Z</time>
      </trkpt>
      <trkpt lat="46.55848" lon="5.55607">
        <ele>529.2</ele>
        <time>2023-08-30T11:05:44Z</time>
      </trkpt>
      <trkpt lat="46.55842" lon="5.55602">
        <ele>529</ele>
        <time>2023-08-30T11:05:45Z</time>
      </trkpt>
      <trkpt lat="46.55837" lon="5.55598">
        <ele>529</ele>
        <time>2023-08-30T11:05:46Z</time>
      </trkpt>
      <trkpt lat="46.55831" lon="5.55595">
        <ele>529</ele>
        <time>2023-08-30T11:05:47Z</time>
      </trkpt>
      <trkpt lat="46.55824" lon="5.55591">
        <ele>529</ele>
        <time>2023-08-30T11:05:48Z</time>
      </trkpt>
      <trkpt lat="46.55818" lon="5.55588">
        <ele>528.4</ele>
        <time>2023-08-30T11:05:49Z</time>
      </trkpt>
      <trkpt lat="46.55813" lon="5.55585">
        <ele>527.8</ele>
        <time>2023-08-30T11:05:50Z</time>
      </trkpt>
      <trkpt lat="46.55807" lon="5.55582">
        <ele>527.8</ele>
        <time>2023-08-30T11:05:51Z</time>
      </trkpt>
      <trkpt lat="46.55801" lon="5.55579">
        <ele>527.8</ele>
        <time>2023-08-30T11:05:52Z</time>
      </trkpt>
      <trkpt lat="46.55795" lon="5.55575">
        <ele>527.8</ele>
        <time>2023-08-30T11:05:53Z</time>
      </trkpt>
      <trkpt lat="46.55789" lon="5.55572">
        <ele>527.2</ele>
        <time>2023-08-30T11:05:54Z</time>
      </trkpt>
      <trkpt lat="46.55783" lon="5.55568">
        <ele>527.2</ele>
        <time>2023-08-30T11:05:55Z</time>
      </trkpt>
      <trkpt lat="46.55775" lon="5.55563">
        <ele>527.2</ele>
        <time>2023-08-30T11:05:56Z</time>
      </trkpt>
      <trkpt lat="46.55772" lon="5.55561">
        <ele>526.8</ele>
        <time>2023-08-30T11:05:57Z</time>
      </trkpt>
      <trkpt lat="46.55767" lon="5.55557">
        <ele>526.6</ele>
        <time>2023-08-30T11:05:58Z</time>
      </trkpt>
      <trkpt lat="46.55761" lon="5.55554">
        <ele>526.6</ele>
        <time>2023-08-30T11:05:59Z</time>
      </trkpt>
      <trkpt lat="46.55755" lon="5.55551">
        <ele>526.6</ele>
        <time>2023-08-30T11:06:00Z</time>
      </trkpt>
      <trkpt lat="46.55749" lon="5.55548">
        <ele>526.6</ele>
        <time>2023-08-30T11:06:01Z</time>
      </trkpt>
      <trkpt lat="46.55743" lon="5.55545">
        <ele>526.6</ele>
        <time>2023-08-30T11:06:02Z</time>
      </trkpt>
      <trkpt lat="46.55738" lon="5.55543">
        <ele>525.6</ele>
        <time>2023-08-30T11:06:03Z</time>
      </trkpt>
      <trkpt lat="46.55732" lon="5.55541">
        <ele>525.4</ele>
        <time>2023-08-30T11:06:04Z</time>
      </trkpt>
      <trkpt lat="46.55726" lon="5.55539">
        <ele>525.4</ele>
        <time>2023-08-30T11:06:05Z</time>
      </trkpt>
      <trkpt lat="46.55721" lon="5.55538">
        <ele>525.4</ele>
        <time>2023-08-30T11:06:06Z</time>
      </trkpt>
      <trkpt lat="46.55716" lon="5.55537">
        <ele>525.4</ele>
        <time>2023-08-30T11:06:07Z</time>
      </trkpt>
      <trkpt lat="46.5571" lon="5.55536">
        <ele>524.8</ele>
        <time>2023-08-30T11:06:08Z</time>
      </trkpt>
      <trkpt lat="46.55705" lon="5.55536">
        <ele>524.8</ele>
        <time>2023-08-30T11:06:09Z</time>
      </trkpt>
      <trkpt lat="46.55696" lon="5.55535">
        <ele>524.8</ele>
        <time>2023-08-30T11:06:10Z</time>
      </trkpt>
      <trkpt lat="46.55694" lon="5.55535">
        <ele>524.8</ele>
        <time>2023-08-30T11:06:11Z</time>
      </trkpt>
      <trkpt lat="46.55685" lon="5.55536">
        <ele>524.8</ele>
        <time>2023-08-30T11:06:12Z</time>
      </trkpt>
      <trkpt lat="46.55683" lon="5.55536">
        <ele>524.8</ele>
        <time>2023-08-30T11:06:13Z</time>
      </trkpt>
      <trkpt lat="46.55675" lon="5.55537">
        <ele>524.8</ele>
        <time>2023-08-30T11:06:14Z</time>
      </trkpt>
      <trkpt lat="46.55672" lon="5.55537">
        <ele>524.8</ele>
        <time>2023-08-30T11:06:15Z</time>
      </trkpt>
      <trkpt lat="46.55664" lon="5.55538">
        <ele>524.2</ele>
        <time>2023-08-30T11:06:16Z</time>
      </trkpt>
      <trkpt lat="46.55662" lon="5.55538">
        <ele>524.2</ele>
        <time>2023-08-30T11:06:17Z</time>
      </trkpt>
      <trkpt lat="46.55654" lon="5.55538">
        <ele>524.2</ele>
        <time>2023-08-30T11:06:18Z</time>
      </trkpt>
      <trkpt lat="46.55652" lon="5.55538">
        <ele>524.2</ele>
        <time>2023-08-30T11:06:19Z</time>
      </trkpt>
      <trkpt lat="46.55646" lon="5.55538">
        <ele>523.8</ele>
        <time>2023-08-30T11:06:20Z</time>
      </trkpt>
      <trkpt lat="46.55641" lon="5.55537">
        <ele>524</ele>
        <time>2023-08-30T11:06:21Z</time>
      </trkpt>
      <trkpt lat="46.55637" lon="5.55536">
        <ele>524</ele>
        <time>2023-08-30T11:06:22Z</time>
      </trkpt>
      <trkpt lat="46.55632" lon="5.55535">
        <ele>524</ele>
        <time>2023-08-30T11:06:23Z</time>
      </trkpt>
      <trkpt lat="46.55627" lon="5.55535">
        <ele>523.4</ele>
        <time>2023-08-30T11:06:24Z</time>
      </trkpt>
      <trkpt lat="46.55622" lon="5.55534">
        <ele>523.4</ele>
        <time>2023-08-30T11:06:25Z</time>
      </trkpt>
      <trkpt lat="46.55618" lon="5.55533">
        <ele>523.4</ele>
        <time>2023-08-30T11:06:26Z</time>
      </trkpt>
      <trkpt lat="46.55613" lon="5.55533">
        <ele>523.4</ele>
        <time>2023-08-30T11:06:27Z</time>
      </trkpt>
      <trkpt lat="46.55609" lon="5.55532">
        <ele>523.4</ele>
        <time>2023-08-30T11:06:28Z</time>
      </trkpt>
      <trkpt lat="46.55605" lon="5.55531">
        <ele>523.4</ele>
        <time>2023-08-30T11:06:29Z</time>
      </trkpt>
      <trkpt lat="46.55601" lon="5.55531">
        <ele>523.4</ele>
        <time>2023-08-30T11:06:30Z</time>
      </trkpt>
      <trkpt lat="46.55597" lon="5.5553">
        <ele>523.4</ele>
        <time>2023-08-30T11:06:31Z</time>
      </trkpt>
      <trkpt lat="46.55592" lon="5.55529">
        <ele>523.4</ele>
        <time>2023-08-30T11:06:32Z</time>
      </trkpt>
      <trkpt lat="46.55588" lon="5.55528">
        <ele>523.2</ele>
        <time>2023-08-30T11:06:33Z</time>
      </trkpt>
      <trkpt lat="46.55584" lon="5.55527">
        <ele>523.2</ele>
        <time>2023-08-30T11:06:34Z</time>
      </trkpt>
      <trkpt lat="46.5558" lon="5.55526">
        <ele>523.2</ele>
        <time>2023-08-30T11:06:35Z</time>
      </trkpt>
      <trkpt lat="46.55575" lon="5.55525">
        <ele>523.2</ele>
        <time>2023-08-30T11:06:36Z</time>
      </trkpt>
      <trkpt lat="46.55571" lon="5.55523">
        <ele>523.2</ele>
        <time>2023-08-30T11:06:37Z</time>
      </trkpt>
      <trkpt lat="46.55566" lon="5.55521">
        <ele>523.2</ele>
        <time>2023-08-30T11:06:38Z</time>
      </trkpt>
      <trkpt lat="46.55562" lon="5.55518">
        <ele>523</ele>
        <time>2023-08-30T11:06:39Z</time>
      </trkpt>
      <trkpt lat="46.55557" lon="5.55515">
        <ele>523</ele>
        <time>2023-08-30T11:06:40Z</time>
      </trkpt>
      <trkpt lat="46.55551" lon="5.5551">
        <ele>523</ele>
        <time>2023-08-30T11:06:41Z</time>
      </trkpt>
      <trkpt lat="46.55548" lon="5.55508">
        <ele>523</ele>
        <time>2023-08-30T11:06:42Z</time>
      </trkpt>
      <trkpt lat="46.55542" lon="5.55503">
        <ele>523</ele>
        <time>2023-08-30T11:06:43Z</time>
      </trkpt>
      <trkpt lat="46.55539" lon="5.55501">
        <ele>522.8</ele>
        <time>2023-08-30T11:06:44Z</time>
      </trkpt>
      <trkpt lat="46.55533" lon="5.55494">
        <ele>522.8</ele>
        <time>2023-08-30T11:06:45Z</time>
      </trkpt>
      <trkpt lat="46.5553" lon="5.55492">
        <ele>522.8</ele>
        <time>2023-08-30T11:06:46Z</time>
      </trkpt>
      <trkpt lat="46.55526" lon="5.55488">
        <ele>522.8</ele>
        <time>2023-08-30T11:06:47Z</time>
      </trkpt>
      <trkpt lat="46.55521" lon="5.55484">
        <ele>523.6</ele>
        <time>2023-08-30T11:06:48Z</time>
      </trkpt>
      <trkpt lat="46.55517" lon="5.55481">
        <ele>523.2</ele>
        <time>2023-08-30T11:06:49Z</time>
      </trkpt>
      <trkpt lat="46.55512" lon="5.55477">
        <ele>523.2</ele>
        <time>2023-08-30T11:06:50Z</time>
      </trkpt>
      <trkpt lat="46.55507" lon="5.55474">
        <ele>523.2</ele>
        <time>2023-08-30T11:06:51Z</time>
      </trkpt>
      <trkpt lat="46.55502" lon="5.55471">
        <ele>523.4</ele>
        <time>2023-08-30T11:06:52Z</time>
      </trkpt>
      <trkpt lat="46.55497" lon="5.55468">
        <ele>523.6</ele>
        <time>2023-08-30T11:06:53Z</time>
      </trkpt>
      <trkpt lat="46.55492" lon="5.55465">
        <ele>523.6</ele>
        <time>2023-08-30T11:06:54Z</time>
      </trkpt>
      <trkpt lat="46.55484" lon="5.55462">
        <ele>523.6</ele>
        <time>2023-08-30T11:06:55Z</time>
      </trkpt>
      <trkpt lat="46.55482" lon="5.5546">
        <ele>523.6</ele>
        <time>2023-08-30T11:06:56Z</time>
      </trkpt>
      <trkpt lat="46.55477" lon="5.55458">
        <ele>523.8</ele>
        <time>2023-08-30T11:06:57Z</time>
      </trkpt>
      <trkpt lat="46.55472" lon="5.55456">
        <ele>523.8</ele>
        <time>2023-08-30T11:06:58Z</time>
      </trkpt>
      <trkpt lat="46.55465" lon="5.55452">
        <ele>523.8</ele>
        <time>2023-08-30T11:06:59Z</time>
      </trkpt>
      <trkpt lat="46.55463" lon="5.5545">
        <ele>523.8</ele>
        <time>2023-08-30T11:07:00Z</time>
      </trkpt>
      <trkpt lat="46.55456" lon="5.55446">
        <ele>523.8</ele>
        <time>2023-08-30T11:07:01Z</time>
      </trkpt>
      <trkpt lat="46.55454" lon="5.55444">
        <ele>524.6</ele>
        <time>2023-08-30T11:07:02Z</time>
      </trkpt>
      <trkpt lat="46.55449" lon="5.55441">
        <ele>524.6</ele>
        <time>2023-08-30T11:07:03Z</time>
      </trkpt>
      <trkpt lat="46.55445" lon="5.55439">
        <ele>524.6</ele>
        <time>2023-08-30T11:07:04Z</time>
      </trkpt>
      <trkpt lat="46.5544" lon="5.55437">
        <ele>524.2</ele>
        <time>2023-08-30T11:07:05Z</time>
      </trkpt>
      <trkpt lat="46.55435" lon="5.55434">
        <ele>524.4</ele>
        <time>2023-08-30T11:07:06Z</time>
      </trkpt>
      <trkpt lat="46.5543" lon="5.55432">
        <ele>524.4</ele>
        <time>2023-08-30T11:07:07Z</time>
      </trkpt>
      <trkpt lat="46.55425" lon="5.5543">
        <ele>524.4</ele>
        <time>2023-08-30T11:07:08Z</time>
      </trkpt>
      <trkpt lat="46.5542" lon="5.55428">
        <ele>524.4</ele>
        <time>2023-08-30T11:07:09Z</time>
      </trkpt>
      <trkpt lat="46.55415" lon="5.55426">
        <ele>524.4</ele>
        <time>2023-08-30T11:07:10Z</time>
      </trkpt>
      <trkpt lat="46.5541" lon="5.55424">
        <ele>524.6</ele>
        <time>2023-08-30T11:07:11Z</time>
      </trkpt>
      <trkpt lat="46.55404" lon="5.55421">
        <ele>524.6</ele>
        <time>2023-08-30T11:07:12Z</time>
      </trkpt>
      <trkpt lat="46.55398" lon="5.55419">
        <ele>524.6</ele>
        <time>2023-08-30T11:07:13Z</time>
      </trkpt>
      <trkpt lat="46.55393" lon="5.55417">
        <ele>524.6</ele>
        <time>2023-08-30T11:07:14Z</time>
      </trkpt>
      <trkpt lat="46.55387" lon="5.55415">
        <ele>524.4</ele>
        <time>2023-08-30T11:07:15Z</time>
      </trkpt>
      <trkpt lat="46.55382" lon="5.55412">
        <ele>524.4</ele>
        <time>2023-08-30T11:07:16Z</time>
      </trkpt>
      <trkpt lat="46.55376" lon="5.5541">
        <ele>524.4</ele>
        <time>2023-08-30T11:07:17Z</time>
      </trkpt>
      <trkpt lat="46.55371" lon="5.55408">
        <ele>524.4</ele>
        <time>2023-08-30T11:07:18Z</time>
      </trkpt>
      <trkpt lat="46.55365" lon="5.55406">
        <ele>524.4</ele>
        <time>2023-08-30T11:07:19Z</time>
      </trkpt>
      <trkpt lat="46.55359" lon="5.55404">
        <ele>524.4</ele>
        <time>2023-08-30T11:07:20Z</time>
      </trkpt>
      <trkpt lat="46.55354" lon="5.55402">
        <ele>524.4</ele>
        <time>2023-08-30T11:07:21Z</time>
      </trkpt>
      <trkpt lat="46.55348" lon="5.55399">
        <ele>524.4</ele>
        <time>2023-08-30T11:07:22Z</time>
      </trkpt>
      <trkpt lat="46.55342" lon="5.55397">
        <ele>524.4</ele>
        <time>2023-08-30T11:07:23Z</time>
      </trkpt>
      <trkpt lat="46.55334" lon="5.55393">
        <ele>524.8</ele>
        <time>2023-08-30T11:07:24Z</time>
      </trkpt>
      <trkpt lat="46.55331" lon="5.55392">
        <ele>524.8</ele>
        <time>2023-08-30T11:07:25Z</time>
      </trkpt>
      <trkpt lat="46.55322" lon="5.55389">
        <ele>524.8</ele>
        <time>2023-08-30T11:07:26Z</time>
      </trkpt>
      <trkpt lat="46.55319" lon="5.55388">
        <ele>524.8</ele>
        <time>2023-08-30T11:07:27Z</time>
      </trkpt>
      <trkpt lat="46.55311" lon="5.55385">
        <ele>524.8</ele>
        <time>2023-08-30T11:07:28Z</time>
      </trkpt>
      <trkpt lat="46.55308" lon="5.55383">
        <ele>524.8</ele>
        <time>2023-08-30T11:07:29Z</time>
      </trkpt>
      <trkpt lat="46.553" lon="5.5538">
        <ele>524.8</ele>
        <time>2023-08-30T11:07:30Z</time>
      </trkpt>
      <trkpt lat="46.55297" lon="5.55378">
        <ele>524.8</ele>
        <time>2023-08-30T11:07:31Z</time>
      </trkpt>
      <trkpt lat="46.55292" lon="5.55376">
        <ele>525.2</ele>
        <time>2023-08-30T11:07:32Z</time>
      </trkpt>
      <trkpt lat="46.55286" lon="5.55374">
        <ele>525.2</ele>
        <time>2023-08-30T11:07:33Z</time>
      </trkpt>
      <trkpt lat="46.55281" lon="5.55372">
        <ele>525.2</ele>
        <time>2023-08-30T11:07:34Z</time>
      </trkpt>
      <trkpt lat="46.55276" lon="5.5537">
        <ele>525.2</ele>
        <time>2023-08-30T11:07:35Z</time>
      </trkpt>
      <trkpt lat="46.5527" lon="5.55368">
        <ele>525.2</ele>
        <time>2023-08-30T11:07:36Z</time>
      </trkpt>
      <trkpt lat="46.55265" lon="5.55366">
        <ele>525.6</ele>
        <time>2023-08-30T11:07:37Z</time>
      </trkpt>
      <trkpt lat="46.5526" lon="5.55364">
        <ele>525.8</ele>
        <time>2023-08-30T11:07:38Z</time>
      </trkpt>
      <trkpt lat="46.55254" lon="5.55362">
        <ele>525.8</ele>
        <time>2023-08-30T11:07:39Z</time>
      </trkpt>
      <trkpt lat="46.55249" lon="5.5536">
        <ele>525.8</ele>
        <time>2023-08-30T11:07:40Z</time>
      </trkpt>
      <trkpt lat="46.55244" lon="5.55358">
        <ele>525.8</ele>
        <time>2023-08-30T11:07:41Z</time>
      </trkpt>
      <trkpt lat="46.55238" lon="5.55355">
        <ele>526.2</ele>
        <time>2023-08-30T11:07:42Z</time>
      </trkpt>
      <trkpt lat="46.55233" lon="5.55353">
        <ele>526.2</ele>
        <time>2023-08-30T11:07:43Z</time>
      </trkpt>
      <trkpt lat="46.55228" lon="5.55351">
        <ele>526.2</ele>
        <time>2023-08-30T11:07:44Z</time>
      </trkpt>
      <trkpt lat="46.55223" lon="5.55349">
        <ele>526.2</ele>
        <time>2023-08-30T11:07:45Z</time>
      </trkpt>
      <trkpt lat="46.55218" lon="5.55347">
        <ele>526</ele>
        <time>2023-08-30T11:07:46Z</time>
      </trkpt>
      <trkpt lat="46.55213" lon="5.55345">
        <ele>525.6</ele>
        <time>2023-08-30T11:07:47Z</time>
      </trkpt>
      <trkpt lat="46.55208" lon="5.55343">
        <ele>525.6</ele>
        <time>2023-08-30T11:07:48Z</time>
      </trkpt>
      <trkpt lat="46.55202" lon="5.55342">
        <ele>525.6</ele>
        <time>2023-08-30T11:07:49Z</time>
      </trkpt>
      <trkpt lat="46.55197" lon="5.5534">
        <ele>525.8</ele>
        <time>2023-08-30T11:07:50Z</time>
      </trkpt>
      <trkpt lat="46.55192" lon="5.5534">
        <ele>526</ele>
        <time>2023-08-30T11:07:51Z</time>
      </trkpt>
      <trkpt lat="46.55186" lon="5.55339">
        <ele>526</ele>
        <time>2023-08-30T11:07:52Z</time>
      </trkpt>
      <trkpt lat="46.55181" lon="5.55339">
        <ele>526</ele>
        <time>2023-08-30T11:07:53Z</time>
      </trkpt>
      <trkpt lat="46.55176" lon="5.55339">
        <ele>525.4</ele>
        <time>2023-08-30T11:07:54Z</time>
      </trkpt>
      <trkpt lat="46.5517" lon="5.55339">
        <ele>525.4</ele>
        <time>2023-08-30T11:07:55Z</time>
      </trkpt>
      <trkpt lat="46.55165" lon="5.55339">
        <ele>525.6</ele>
        <time>2023-08-30T11:07:56Z</time>
      </trkpt>
      <trkpt lat="46.5516" lon="5.55339">
        <ele>525.6</ele>
        <time>2023-08-30T11:07:57Z</time>
      </trkpt>
      <trkpt lat="46.55154" lon="5.55339">
        <ele>525.6</ele>
        <time>2023-08-30T11:07:58Z</time>
      </trkpt>
      <trkpt lat="46.55149" lon="5.55339">
        <ele>525.8</ele>
        <time>2023-08-30T11:07:59Z</time>
      </trkpt>
      <trkpt lat="46.55143" lon="5.55339">
        <ele>525.8</ele>
        <time>2023-08-30T11:08:00Z</time>
      </trkpt>
      <trkpt lat="46.55138" lon="5.55339">
        <ele>525.8</ele>
        <time>2023-08-30T11:08:01Z</time>
      </trkpt>
      <trkpt lat="46.55132" lon="5.55339">
        <ele>525.8</ele>
        <time>2023-08-30T11:08:02Z</time>
      </trkpt>
      <trkpt lat="46.55126" lon="5.5534">
        <ele>525.6</ele>
        <time>2023-08-30T11:08:03Z</time>
      </trkpt>
      <trkpt lat="46.5512" lon="5.5534">
        <ele>525.4</ele>
        <time>2023-08-30T11:08:04Z</time>
      </trkpt>
      <trkpt lat="46.55114" lon="5.5534">
        <ele>525.4</ele>
        <time>2023-08-30T11:08:05Z</time>
      </trkpt>
      <trkpt lat="46.55109" lon="5.5534">
        <ele>525.4</ele>
        <time>2023-08-30T11:08:06Z</time>
      </trkpt>
      <trkpt lat="46.55103" lon="5.5534">
        <ele>525.4</ele>
        <time>2023-08-30T11:08:07Z</time>
      </trkpt>
      <trkpt lat="46.55097" lon="5.55341">
        <ele>525.6</ele>
        <time>2023-08-30T11:08:08Z</time>
      </trkpt>
      <trkpt lat="46.55089" lon="5.55341">
        <ele>525.6</ele>
        <time>2023-08-30T11:08:09Z</time>
      </trkpt>
      <trkpt lat="46.55087" lon="5.5534">
        <ele>525.2</ele>
        <time>2023-08-30T11:08:10Z</time>
      </trkpt>
      <trkpt lat="46.55079" lon="5.5534">
        <ele>525.2</ele>
        <time>2023-08-30T11:08:11Z</time>
      </trkpt>
      <trkpt lat="46.55076" lon="5.55341">
        <ele>525.2</ele>
        <time>2023-08-30T11:08:12Z</time>
      </trkpt>
      <trkpt lat="46.55071" lon="5.55341">
        <ele>525.4</ele>
        <time>2023-08-30T11:08:13Z</time>
      </trkpt>
      <trkpt lat="46.55067" lon="5.55341">
        <ele>525.8</ele>
        <time>2023-08-30T11:08:14Z</time>
      </trkpt>
      <trkpt lat="46.55062" lon="5.55341">
        <ele>525.8</ele>
        <time>2023-08-30T11:08:15Z</time>
      </trkpt>
      <trkpt lat="46.55057" lon="5.55341">
        <ele>525.8</ele>
        <time>2023-08-30T11:08:16Z</time>
      </trkpt>
      <trkpt lat="46.55052" lon="5.55341">
        <ele>525.6</ele>
        <time>2023-08-30T11:08:17Z</time>
      </trkpt>
      <trkpt lat="46.55048" lon="5.55342">
        <ele>525.6</ele>
        <time>2023-08-30T11:08:18Z</time>
      </trkpt>
      <trkpt lat="46.55043" lon="5.55342">
        <ele>525.6</ele>
        <time>2023-08-30T11:08:19Z</time>
      </trkpt>
      <trkpt lat="46.55038" lon="5.55342">
        <ele>525.6</ele>
        <time>2023-08-30T11:08:20Z</time>
      </trkpt>
      <trkpt lat="46.55033" lon="5.55343">
        <ele>525.6</ele>
        <time>2023-08-30T11:08:21Z</time>
      </trkpt>
      <trkpt lat="46.55027" lon="5.55343">
        <ele>525.6</ele>
        <time>2023-08-30T11:08:22Z</time>
      </trkpt>
      <trkpt lat="46.55022" lon="5.55344">
        <ele>525</ele>
        <time>2023-08-30T11:08:23Z</time>
      </trkpt>
      <trkpt lat="46.55016" lon="5.55345">
        <ele>525</ele>
        <time>2023-08-30T11:08:24Z</time>
      </trkpt>
      <trkpt lat="46.5501" lon="5.55346">
        <ele>525</ele>
        <time>2023-08-30T11:08:25Z</time>
      </trkpt>
      <trkpt lat="46.55004" lon="5.55348">
        <ele>525</ele>
        <time>2023-08-30T11:08:26Z</time>
      </trkpt>
      <trkpt lat="46.54998" lon="5.55349">
        <ele>525.2</ele>
        <time>2023-08-30T11:08:27Z</time>
      </trkpt>
      <trkpt lat="46.54992" lon="5.55351">
        <ele>525.2</ele>
        <time>2023-08-30T11:08:28Z</time>
      </trkpt>
      <trkpt lat="46.54986" lon="5.55354">
        <ele>525.2</ele>
        <time>2023-08-30T11:08:29Z</time>
      </trkpt>
      <trkpt lat="46.5498" lon="5.55356">
        <ele>524.8</ele>
        <time>2023-08-30T11:08:30Z</time>
      </trkpt>
      <trkpt lat="46.54974" lon="5.55359">
        <ele>524.8</ele>
        <time>2023-08-30T11:08:31Z</time>
      </trkpt>
      <trkpt lat="46.54965" lon="5.55364">
        <ele>524.8</ele>
        <time>2023-08-30T11:08:32Z</time>
      </trkpt>
      <trkpt lat="46.54962" lon="5.55365">
        <ele>524.8</ele>
        <time>2023-08-30T11:08:33Z</time>
      </trkpt>
      <trkpt lat="46.54957" lon="5.55369">
        <ele>524.8</ele>
        <time>2023-08-30T11:08:34Z</time>
      </trkpt>
      <trkpt lat="46.54951" lon="5.55372">
        <ele>524.2</ele>
        <time>2023-08-30T11:08:35Z</time>
      </trkpt>
      <trkpt lat="46.54946" lon="5.55375">
        <ele>524.2</ele>
        <time>2023-08-30T11:08:36Z</time>
      </trkpt>
      <trkpt lat="46.5494" lon="5.55378">
        <ele>524.2</ele>
        <time>2023-08-30T11:08:37Z</time>
      </trkpt>
      <trkpt lat="46.54935" lon="5.55381">
        <ele>524.2</ele>
        <time>2023-08-30T11:08:38Z</time>
      </trkpt>
      <trkpt lat="46.5493" lon="5.55384">
        <ele>523.8</ele>
        <time>2023-08-30T11:08:39Z</time>
      </trkpt>
      <trkpt lat="46.54925" lon="5.55387">
        <ele>523.6</ele>
        <time>2023-08-30T11:08:40Z</time>
      </trkpt>
      <trkpt lat="46.5492" lon="5.55389">
        <ele>523.6</ele>
        <time>2023-08-30T11:08:41Z</time>
      </trkpt>
      <trkpt lat="46.54915" lon="5.55392">
        <ele>523.6</ele>
        <time>2023-08-30T11:08:42Z</time>
      </trkpt>
      <trkpt lat="46.54911" lon="5.55395">
        <ele>523.6</ele>
        <time>2023-08-30T11:08:43Z</time>
      </trkpt>
      <trkpt lat="46.54906" lon="5.55398">
        <ele>523.6</ele>
        <time>2023-08-30T11:08:44Z</time>
      </trkpt>
      <trkpt lat="46.54902" lon="5.554">
        <ele>523.4</ele>
        <time>2023-08-30T11:08:45Z</time>
      </trkpt>
      <trkpt lat="46.54898" lon="5.55403">
        <ele>523.4</ele>
        <time>2023-08-30T11:08:46Z</time>
      </trkpt>
      <trkpt lat="46.54894" lon="5.55405">
        <ele>523.4</ele>
        <time>2023-08-30T11:08:47Z</time>
      </trkpt>
      <trkpt lat="46.5489" lon="5.55407">
        <ele>523.4</ele>
        <time>2023-08-30T11:08:48Z</time>
      </trkpt>
      <trkpt lat="46.54886" lon="5.55409">
        <ele>523.4</ele>
        <time>2023-08-30T11:08:49Z</time>
      </trkpt>
      <trkpt lat="46.54882" lon="5.55411">
        <ele>523</ele>
        <time>2023-08-30T11:08:50Z</time>
      </trkpt>
      <trkpt lat="46.54876" lon="5.55415">
        <ele>523</ele>
        <time>2023-08-30T11:08:51Z</time>
      </trkpt>
      <trkpt lat="46.54874" lon="5.55416">
        <ele>523</ele>
        <time>2023-08-30T11:08:52Z</time>
      </trkpt>
      <trkpt lat="46.5487" lon="5.55418">
        <ele>523</ele>
        <time>2023-08-30T11:08:53Z</time>
      </trkpt>
      <trkpt lat="46.54866" lon="5.5542">
        <ele>523</ele>
        <time>2023-08-30T11:08:54Z</time>
      </trkpt>
      <trkpt lat="46.54863" lon="5.55423">
        <ele>523.4</ele>
        <time>2023-08-30T11:08:55Z</time>
      </trkpt>
      <trkpt lat="46.54859" lon="5.55425">
        <ele>523.4</ele>
        <time>2023-08-30T11:08:56Z</time>
      </trkpt>
      <trkpt lat="46.54855" lon="5.55427">
        <ele>523.4</ele>
        <time>2023-08-30T11:08:57Z</time>
      </trkpt>
      <trkpt lat="46.54851" lon="5.5543">
        <ele>523</ele>
        <time>2023-08-30T11:08:58Z</time>
      </trkpt>
      <trkpt lat="46.54847" lon="5.55432">
        <ele>522.8</ele>
        <time>2023-08-30T11:08:59Z</time>
      </trkpt>
      <trkpt lat="46.54843" lon="5.55434">
        <ele>522.8</ele>
        <time>2023-08-30T11:09:00Z</time>
      </trkpt>
      <trkpt lat="46.54839" lon="5.55436">
        <ele>522.8</ele>
        <time>2023-08-30T11:09:01Z</time>
      </trkpt>
      <trkpt lat="46.54835" lon="5.55439">
        <ele>522.8</ele>
        <time>2023-08-30T11:09:02Z</time>
      </trkpt>
      <trkpt lat="46.54831" lon="5.55441">
        <ele>523</ele>
        <time>2023-08-30T11:09:03Z</time>
      </trkpt>
      <trkpt lat="46.54825" lon="5.55445">
        <ele>523</ele>
        <time>2023-08-30T11:09:04Z</time>
      </trkpt>
      <trkpt lat="46.54823" lon="5.55446">
        <ele>523</ele>
        <time>2023-08-30T11:09:05Z</time>
      </trkpt>
      <trkpt lat="46.54816" lon="5.55449">
        <ele>523</ele>
        <time>2023-08-30T11:09:06Z</time>
      </trkpt>
      <trkpt lat="46.54814" lon="5.5545">
        <ele>522.8</ele>
        <time>2023-08-30T11:09:07Z</time>
      </trkpt>
      <trkpt lat="46.5481" lon="5.55453">
        <ele>522.6</ele>
        <time>2023-08-30T11:09:08Z</time>
      </trkpt>
      <trkpt lat="46.54805" lon="5.55455">
        <ele>522.6</ele>
        <time>2023-08-30T11:09:09Z</time>
      </trkpt>
      <trkpt lat="46.548" lon="5.55457">
        <ele>522.6</ele>
        <time>2023-08-30T11:09:10Z</time>
      </trkpt>
      <trkpt lat="46.54795" lon="5.55459">
        <ele>522.8</ele>
        <time>2023-08-30T11:09:11Z</time>
      </trkpt>
      <trkpt lat="46.5479" lon="5.5546">
        <ele>522.6</ele>
        <time>2023-08-30T11:09:12Z</time>
      </trkpt>
      <trkpt lat="46.54785" lon="5.55461">
        <ele>522.6</ele>
        <time>2023-08-30T11:09:13Z</time>
      </trkpt>
      <trkpt lat="46.5478" lon="5.55462">
        <ele>522.6</ele>
        <time>2023-08-30T11:09:14Z</time>
      </trkpt>
      <trkpt lat="46.54774" lon="5.55463">
        <ele>522.6</ele>
        <time>2023-08-30T11:09:15Z</time>
      </trkpt>
      <trkpt lat="46.54768" lon="5.55463">
        <ele>522.8</ele>
        <time>2023-08-30T11:09:16Z</time>
      </trkpt>
      <trkpt lat="46.54763" lon="5.55462">
        <ele>522.8</ele>
        <time>2023-08-30T11:09:17Z</time>
      </trkpt>
      <trkpt lat="46.54757" lon="5.55462">
        <ele>522.8</ele>
        <time>2023-08-30T11:09:18Z</time>
      </trkpt>
      <trkpt lat="46.54751" lon="5.55461">
        <ele>522.8</ele>
        <time>2023-08-30T11:09:19Z</time>
      </trkpt>
      <trkpt lat="46.54745" lon="5.5546">
        <ele>522.8</ele>
        <time>2023-08-30T11:09:20Z</time>
      </trkpt>
      <trkpt lat="46.54738" lon="5.55458">
        <ele>522.4</ele>
        <time>2023-08-30T11:09:21Z</time>
      </trkpt>
      <trkpt lat="46.54732" lon="5.55457">
        <ele>522.4</ele>
        <time>2023-08-30T11:09:22Z</time>
      </trkpt>
      <trkpt lat="46.54725" lon="5.55455">
        <ele>522.4</ele>
        <time>2023-08-30T11:09:23Z</time>
      </trkpt>
      <trkpt lat="46.54719" lon="5.55454">
        <ele>522.4</ele>
        <time>2023-08-30T11:09:24Z</time>
      </trkpt>
      <trkpt lat="46.54712" lon="5.55452">
        <ele>522</ele>
        <time>2023-08-30T11:09:25Z</time>
      </trkpt>
      <trkpt lat="46.54705" lon="5.55451">
        <ele>522</ele>
        <time>2023-08-30T11:09:26Z</time>
      </trkpt>
      <trkpt lat="46.54699" lon="5.5545">
        <ele>522</ele>
        <time>2023-08-30T11:09:27Z</time>
      </trkpt>
      <trkpt lat="46.54692" lon="5.55448">
        <ele>522</ele>
        <time>2023-08-30T11:09:28Z</time>
      </trkpt>
      <trkpt lat="46.54685" lon="5.55446">
        <ele>522</ele>
        <time>2023-08-30T11:09:29Z</time>
      </trkpt>
      <trkpt lat="46.54679" lon="5.55444">
        <ele>522</ele>
        <time>2023-08-30T11:09:30Z</time>
      </trkpt>
      <trkpt lat="46.54672" lon="5.55443">
        <ele>522</ele>
        <time>2023-08-30T11:09:31Z</time>
      </trkpt>
      <trkpt lat="46.54665" lon="5.55441">
        <ele>522</ele>
        <time>2023-08-30T11:09:32Z</time>
      </trkpt>
      <trkpt lat="46.54658" lon="5.55438">
        <ele>522</ele>
        <time>2023-08-30T11:09:33Z</time>
      </trkpt>
      <trkpt lat="46.54652" lon="5.55436">
        <ele>521.6</ele>
        <time>2023-08-30T11:09:34Z</time>
      </trkpt>
      <trkpt lat="46.54645" lon="5.55435">
        <ele>521.6</ele>
        <time>2023-08-30T11:09:35Z</time>
      </trkpt>
      <trkpt lat="46.54638" lon="5.55433">
        <ele>521.6</ele>
        <time>2023-08-30T11:09:36Z</time>
      </trkpt>
      <trkpt lat="46.54631" lon="5.55431">
        <ele>521.6</ele>
        <time>2023-08-30T11:09:37Z</time>
      </trkpt>
      <trkpt lat="46.54624" lon="5.55429">
        <ele>521.6</ele>
        <time>2023-08-30T11:09:38Z</time>
      </trkpt>
      <trkpt lat="46.54618" lon="5.55427">
        <ele>521.4</ele>
        <time>2023-08-30T11:09:39Z</time>
      </trkpt>
      <trkpt lat="46.54611" lon="5.55425">
        <ele>521.4</ele>
        <time>2023-08-30T11:09:40Z</time>
      </trkpt>
      <trkpt lat="46.54605" lon="5.55424">
        <ele>521.4</ele>
        <time>2023-08-30T11:09:41Z</time>
      </trkpt>
      <trkpt lat="46.54598" lon="5.55422">
        <ele>521.4</ele>
        <time>2023-08-30T11:09:42Z</time>
      </trkpt>
      <trkpt lat="46.54592" lon="5.55421">
        <ele>521</ele>
        <time>2023-08-30T11:09:43Z</time>
      </trkpt>
      <trkpt lat="46.54585" lon="5.55419">
        <ele>521</ele>
        <time>2023-08-30T11:09:44Z</time>
      </trkpt>
      <trkpt lat="46.54579" lon="5.55417">
        <ele>521</ele>
        <time>2023-08-30T11:09:45Z</time>
      </trkpt>
      <trkpt lat="46.54573" lon="5.55416">
        <ele>521</ele>
        <time>2023-08-30T11:09:46Z</time>
      </trkpt>
      <trkpt lat="46.54567" lon="5.55414">
        <ele>520.6</ele>
        <time>2023-08-30T11:09:47Z</time>
      </trkpt>
      <trkpt lat="46.54561" lon="5.55413">
        <ele>520.6</ele>
        <time>2023-08-30T11:09:48Z</time>
      </trkpt>
      <trkpt lat="46.54555" lon="5.55412">
        <ele>520.6</ele>
        <time>2023-08-30T11:09:49Z</time>
      </trkpt>
      <trkpt lat="46.54549" lon="5.5541">
        <ele>520.6</ele>
        <time>2023-08-30T11:09:50Z</time>
      </trkpt>
      <trkpt lat="46.54544" lon="5.55409">
        <ele>520.6</ele>
        <time>2023-08-30T11:09:51Z</time>
      </trkpt>
      <trkpt lat="46.54538" lon="5.55409">
        <ele>520.6</ele>
        <time>2023-08-30T11:09:52Z</time>
      </trkpt>
      <trkpt lat="46.54533" lon="5.55408">
        <ele>520.6</ele>
        <time>2023-08-30T11:09:53Z</time>
      </trkpt>
      <trkpt lat="46.54528" lon="5.55408">
        <ele>520.6</ele>
        <time>2023-08-30T11:09:54Z</time>
      </trkpt>
      <trkpt lat="46.54523" lon="5.55408">
        <ele>520.6</ele>
        <time>2023-08-30T11:09:55Z</time>
      </trkpt>
      <trkpt lat="46.54515" lon="5.55407">
        <ele>520.6</ele>
        <time>2023-08-30T11:09:56Z</time>
      </trkpt>
      <trkpt lat="46.54513" lon="5.55407">
        <ele>520.6</ele>
        <time>2023-08-30T11:09:57Z</time>
      </trkpt>
      <trkpt lat="46.54508" lon="5.55407">
        <ele>520.6</ele>
        <time>2023-08-30T11:09:58Z</time>
      </trkpt>
      <trkpt lat="46.54503" lon="5.55407">
        <ele>520.6</ele>
        <time>2023-08-30T11:09:59Z</time>
      </trkpt>
      <trkpt lat="46.54498" lon="5.55408">
        <ele>520.6</ele>
        <time>2023-08-30T11:10:00Z</time>
      </trkpt>
      <trkpt lat="46.54493" lon="5.55408">
        <ele>520.8</ele>
        <time>2023-08-30T11:10:01Z</time>
      </trkpt>
      <trkpt lat="46.54487" lon="5.55409">
        <ele>520.8</ele>
        <time>2023-08-30T11:10:02Z</time>
      </trkpt>
      <trkpt lat="46.54482" lon="5.5541">
        <ele>520.8</ele>
        <time>2023-08-30T11:10:03Z</time>
      </trkpt>
      <trkpt lat="46.54477" lon="5.55411">
        <ele>520.2</ele>
        <time>2023-08-30T11:10:04Z</time>
      </trkpt>
      <trkpt lat="46.54472" lon="5.55413">
        <ele>520.2</ele>
        <time>2023-08-30T11:10:05Z</time>
      </trkpt>
      <trkpt lat="46.54467" lon="5.55414">
        <ele>520.2</ele>
        <time>2023-08-30T11:10:06Z</time>
      </trkpt>
      <trkpt lat="46.5446" lon="5.55415">
        <ele>520.2</ele>
        <time>2023-08-30T11:10:07Z</time>
      </trkpt>
      <trkpt lat="46.54458" lon="5.55416">
        <ele>520</ele>
        <time>2023-08-30T11:10:08Z</time>
      </trkpt>
      <trkpt lat="46.54453" lon="5.55417">
        <ele>520</ele>
        <time>2023-08-30T11:10:09Z</time>
      </trkpt>
      <trkpt lat="46.54448" lon="5.55418">
        <ele>520</ele>
        <time>2023-08-30T11:10:10Z</time>
      </trkpt>
      <trkpt lat="46.54443" lon="5.55419">
        <ele>520</ele>
        <time>2023-08-30T11:10:11Z</time>
      </trkpt>
      <trkpt lat="46.54438" lon="5.5542">
        <ele>520</ele>
        <time>2023-08-30T11:10:12Z</time>
      </trkpt>
      <trkpt lat="46.54433" lon="5.55421">
        <ele>520</ele>
        <time>2023-08-30T11:10:13Z</time>
      </trkpt>
      <trkpt lat="46.54428" lon="5.55423">
        <ele>520.2</ele>
        <time>2023-08-30T11:10:14Z</time>
      </trkpt>
      <trkpt lat="46.54423" lon="5.55424">
        <ele>520.4</ele>
        <time>2023-08-30T11:10:15Z</time>
      </trkpt>
      <trkpt lat="46.54418" lon="5.55426">
        <ele>520.4</ele>
        <time>2023-08-30T11:10:16Z</time>
      </trkpt>
      <trkpt lat="46.54414" lon="5.55427">
        <ele>520.4</ele>
        <time>2023-08-30T11:10:17Z</time>
      </trkpt>
      <trkpt lat="46.54409" lon="5.55428">
        <ele>520.2</ele>
        <time>2023-08-30T11:10:18Z</time>
      </trkpt>
      <trkpt lat="46.54404" lon="5.5543">
        <ele>520.4</ele>
        <time>2023-08-30T11:10:19Z</time>
      </trkpt>
      <trkpt lat="46.54397" lon="5.55432">
        <ele>520.4</ele>
        <time>2023-08-30T11:10:20Z</time>
      </trkpt>
      <trkpt lat="46.54395" lon="5.55433">
        <ele>520.4</ele>
        <time>2023-08-30T11:10:21Z</time>
      </trkpt>
      <trkpt lat="46.54391" lon="5.55436">
        <ele>520.4</ele>
        <time>2023-08-30T11:10:22Z</time>
      </trkpt>
      <trkpt lat="46.54386" lon="5.55438">
        <ele>520.4</ele>
        <time>2023-08-30T11:10:23Z</time>
      </trkpt>
      <trkpt lat="46.54382" lon="5.5544">
        <ele>520.6</ele>
        <time>2023-08-30T11:10:24Z</time>
      </trkpt>
      <trkpt lat="46.54377" lon="5.55442">
        <ele>520.6</ele>
        <time>2023-08-30T11:10:25Z</time>
      </trkpt>
      <trkpt lat="46.54373" lon="5.55444">
        <ele>520.6</ele>
        <time>2023-08-30T11:10:26Z</time>
      </trkpt>
      <trkpt lat="46.54368" lon="5.55446">
        <ele>520.8</ele>
        <time>2023-08-30T11:10:27Z</time>
      </trkpt>
      <trkpt lat="46.54363" lon="5.55449">
        <ele>520.8</ele>
        <time>2023-08-30T11:10:28Z</time>
      </trkpt>
      <trkpt lat="46.54358" lon="5.55451">
        <ele>520.8</ele>
        <time>2023-08-30T11:10:29Z</time>
      </trkpt>
      <trkpt lat="46.54353" lon="5.55454">
        <ele>520.8</ele>
        <time>2023-08-30T11:10:30Z</time>
      </trkpt>
      <trkpt lat="46.54348" lon="5.55457">
        <ele>521.2</ele>
        <time>2023-08-30T11:10:31Z</time>
      </trkpt>
      <trkpt lat="46.54343" lon="5.5546">
        <ele>521</ele>
        <time>2023-08-30T11:10:32Z</time>
      </trkpt>
      <trkpt lat="46.54338" lon="5.55463">
        <ele>521</ele>
        <time>2023-08-30T11:10:33Z</time>
      </trkpt>
      <trkpt lat="46.54333" lon="5.55466">
        <ele>521</ele>
        <time>2023-08-30T11:10:34Z</time>
      </trkpt>
      <trkpt lat="46.54327" lon="5.5547">
        <ele>521</ele>
        <time>2023-08-30T11:10:35Z</time>
      </trkpt>
      <trkpt lat="46.54322" lon="5.55473">
        <ele>521.2</ele>
        <time>2023-08-30T11:10:36Z</time>
      </trkpt>
      <trkpt lat="46.54316" lon="5.55476">
        <ele>521.2</ele>
        <time>2023-08-30T11:10:37Z</time>
      </trkpt>
      <trkpt lat="46.5431" lon="5.55479">
        <ele>521.2</ele>
        <time>2023-08-30T11:10:38Z</time>
      </trkpt>
      <trkpt lat="46.54305" lon="5.55482">
        <ele>521.2</ele>
        <time>2023-08-30T11:10:39Z</time>
      </trkpt>
      <trkpt lat="46.54299" lon="5.55486">
        <ele>521.2</ele>
        <time>2023-08-30T11:10:40Z</time>
      </trkpt>
      <trkpt lat="46.54293" lon="5.55489">
        <ele>521.2</ele>
        <time>2023-08-30T11:10:41Z</time>
      </trkpt>
      <trkpt lat="46.54287" lon="5.55492">
        <ele>521.2</ele>
        <time>2023-08-30T11:10:42Z</time>
      </trkpt>
      <trkpt lat="46.54281" lon="5.55496">
        <ele>521.2</ele>
        <time>2023-08-30T11:10:43Z</time>
      </trkpt>
      <trkpt lat="46.54275" lon="5.55499">
        <ele>521.2</ele>
        <time>2023-08-30T11:10:44Z</time>
      </trkpt>
      <trkpt lat="46.54269" lon="5.55502">
        <ele>521.2</ele>
        <time>2023-08-30T11:10:45Z</time>
      </trkpt>
      <trkpt lat="46.54263" lon="5.55506">
        <ele>521.2</ele>
        <time>2023-08-30T11:10:46Z</time>
      </trkpt>
      <trkpt lat="46.54253" lon="5.55511">
        <ele>521.2</ele>
        <time>2023-08-30T11:10:47Z</time>
      </trkpt>
      <trkpt lat="46.5425" lon="5.55513">
        <ele>521.2</ele>
        <time>2023-08-30T11:10:48Z</time>
      </trkpt>
      <trkpt lat="46.54244" lon="5.55517">
        <ele>520.8</ele>
        <time>2023-08-30T11:10:49Z</time>
      </trkpt>
      <trkpt lat="46.54237" lon="5.5552">
        <ele>520.6</ele>
        <time>2023-08-30T11:10:50Z</time>
      </trkpt>
      <trkpt lat="46.54231" lon="5.55523">
        <ele>520.6</ele>
        <time>2023-08-30T11:10:51Z</time>
      </trkpt>
      <trkpt lat="46.54225" lon="5.55526">
        <ele>520.6</ele>
        <time>2023-08-30T11:10:52Z</time>
      </trkpt>
      <trkpt lat="46.54218" lon="5.55528">
        <ele>520.6</ele>
        <time>2023-08-30T11:10:53Z</time>
      </trkpt>
      <trkpt lat="46.54212" lon="5.5553">
        <ele>520.6</ele>
        <time>2023-08-30T11:10:54Z</time>
      </trkpt>
      <trkpt lat="46.54205" lon="5.55531">
        <ele>520.6</ele>
        <time>2023-08-30T11:10:55Z</time>
      </trkpt>
      <trkpt lat="46.54199" lon="5.55532">
        <ele>520.6</ele>
        <time>2023-08-30T11:10:56Z</time>
      </trkpt>
      <trkpt lat="46.54193" lon="5.55534">
        <ele>520.6</ele>
        <time>2023-08-30T11:10:57Z</time>
      </trkpt>
      <trkpt lat="46.54186" lon="5.55535">
        <ele>520.6</ele>
        <time>2023-08-30T11:10:58Z</time>
      </trkpt>
      <trkpt lat="46.5418" lon="5.55536">
        <ele>520.6</ele>
        <time>2023-08-30T11:10:59Z</time>
      </trkpt>
      <trkpt lat="46.5417" lon="5.55536">
        <ele>520.4</ele>
        <time>2023-08-30T11:11:00Z</time>
      </trkpt>
      <trkpt lat="46.54167" lon="5.55537">
        <ele>520.4</ele>
        <time>2023-08-30T11:11:01Z</time>
      </trkpt>
      <trkpt lat="46.5416" lon="5.55538">
        <ele>520.4</ele>
        <time>2023-08-30T11:11:02Z</time>
      </trkpt>
      <trkpt lat="46.54154" lon="5.55538">
        <ele>520.4</ele>
        <time>2023-08-30T11:11:03Z</time>
      </trkpt>
      <trkpt lat="46.54147" lon="5.55538">
        <ele>520.2</ele>
        <time>2023-08-30T11:11:04Z</time>
      </trkpt>
      <trkpt lat="46.54141" lon="5.55537">
        <ele>520.2</ele>
        <time>2023-08-30T11:11:05Z</time>
      </trkpt>
      <trkpt lat="46.54134" lon="5.55537">
        <ele>520.2</ele>
        <time>2023-08-30T11:11:06Z</time>
      </trkpt>
      <trkpt lat="46.54127" lon="5.55536">
        <ele>520.2</ele>
        <time>2023-08-30T11:11:07Z</time>
      </trkpt>
      <trkpt lat="46.54121" lon="5.55534">
        <ele>520.2</ele>
        <time>2023-08-30T11:11:08Z</time>
      </trkpt>
      <trkpt lat="46.54114" lon="5.55532">
        <ele>519.6</ele>
        <time>2023-08-30T11:11:09Z</time>
      </trkpt>
      <trkpt lat="46.54107" lon="5.5553">
        <ele>519.6</ele>
        <time>2023-08-30T11:11:10Z</time>
      </trkpt>
      <trkpt lat="46.541" lon="5.55528">
        <ele>519.6</ele>
        <time>2023-08-30T11:11:11Z</time>
      </trkpt>
      <trkpt lat="46.54094" lon="5.55526">
        <ele>519.6</ele>
        <time>2023-08-30T11:11:12Z</time>
      </trkpt>
      <trkpt lat="46.54084" lon="5.55523">
        <ele>519</ele>
        <time>2023-08-30T11:11:13Z</time>
      </trkpt>
      <trkpt lat="46.5408" lon="5.55521">
        <ele>519</ele>
        <time>2023-08-30T11:11:14Z</time>
      </trkpt>
      <trkpt lat="46.54074" lon="5.55519">
        <ele>519</ele>
        <time>2023-08-30T11:11:15Z</time>
      </trkpt>
      <trkpt lat="46.54067" lon="5.55516">
        <ele>519</ele>
        <time>2023-08-30T11:11:16Z</time>
      </trkpt>
      <trkpt lat="46.5406" lon="5.55514">
        <ele>519</ele>
        <time>2023-08-30T11:11:17Z</time>
      </trkpt>
      <trkpt lat="46.54054" lon="5.55512">
        <ele>519</ele>
        <time>2023-08-30T11:11:18Z</time>
      </trkpt>
      <trkpt lat="46.54047" lon="5.5551">
        <ele>519</ele>
        <time>2023-08-30T11:11:19Z</time>
      </trkpt>
      <trkpt lat="46.54041" lon="5.55508">
        <ele>519</ele>
        <time>2023-08-30T11:11:20Z</time>
      </trkpt>
      <trkpt lat="46.54034" lon="5.55507">
        <ele>519</ele>
        <time>2023-08-30T11:11:21Z</time>
      </trkpt>
      <trkpt lat="46.54027" lon="5.55506">
        <ele>519</ele>
        <time>2023-08-30T11:11:22Z</time>
      </trkpt>
      <trkpt lat="46.54021" lon="5.55505">
        <ele>519</ele>
        <time>2023-08-30T11:11:23Z</time>
      </trkpt>
      <trkpt lat="46.54014" lon="5.55505">
        <ele>519</ele>
        <time>2023-08-30T11:11:24Z</time>
      </trkpt>
      <trkpt lat="46.54007" lon="5.55505">
        <ele>518.6</ele>
        <time>2023-08-30T11:11:25Z</time>
      </trkpt>
      <trkpt lat="46.54001" lon="5.55505">
        <ele>518.6</ele>
        <time>2023-08-30T11:11:26Z</time>
      </trkpt>
      <trkpt lat="46.53994" lon="5.55506">
        <ele>518.6</ele>
        <time>2023-08-30T11:11:27Z</time>
      </trkpt>
      <trkpt lat="46.53987" lon="5.55507">
        <ele>518.6</ele>
        <time>2023-08-30T11:11:28Z</time>
      </trkpt>
      <trkpt lat="46.53981" lon="5.55508">
        <ele>518.6</ele>
        <time>2023-08-30T11:11:29Z</time>
      </trkpt>
      <trkpt lat="46.53974" lon="5.55509">
        <ele>518.4</ele>
        <time>2023-08-30T11:11:30Z</time>
      </trkpt>
      <trkpt lat="46.53967" lon="5.55511">
        <ele>518.4</ele>
        <time>2023-08-30T11:11:31Z</time>
      </trkpt>
      <trkpt lat="46.53961" lon="5.55514">
        <ele>518.4</ele>
        <time>2023-08-30T11:11:32Z</time>
      </trkpt>
      <trkpt lat="46.53954" lon="5.55516">
        <ele>518.6</ele>
        <time>2023-08-30T11:11:33Z</time>
      </trkpt>
      <trkpt lat="46.53948" lon="5.55519">
        <ele>518.6</ele>
        <time>2023-08-30T11:11:34Z</time>
      </trkpt>
      <trkpt lat="46.53941" lon="5.55522">
        <ele>518.6</ele>
        <time>2023-08-30T11:11:35Z</time>
      </trkpt>
      <trkpt lat="46.53935" lon="5.55525">
        <ele>518.6</ele>
        <time>2023-08-30T11:11:36Z</time>
      </trkpt>
      <trkpt lat="46.53928" lon="5.55528">
        <ele>518.6</ele>
        <time>2023-08-30T11:11:37Z</time>
      </trkpt>
      <trkpt lat="46.53922" lon="5.5553">
        <ele>518.6</ele>
        <time>2023-08-30T11:11:38Z</time>
      </trkpt>
      <trkpt lat="46.53915" lon="5.55533">
        <ele>518.2</ele>
        <time>2023-08-30T11:11:39Z</time>
      </trkpt>
      <trkpt lat="46.53908" lon="5.55535">
        <ele>518</ele>
        <time>2023-08-30T11:11:40Z</time>
      </trkpt>
      <trkpt lat="46.53902" lon="5.55536">
        <ele>518</ele>
        <time>2023-08-30T11:11:41Z</time>
      </trkpt>
      <trkpt lat="46.53895" lon="5.55537">
        <ele>518</ele>
        <time>2023-08-30T11:11:42Z</time>
      </trkpt>
      <trkpt lat="46.53889" lon="5.55538">
        <ele>518</ele>
        <time>2023-08-30T11:11:43Z</time>
      </trkpt>
      <trkpt lat="46.53882" lon="5.55539">
        <ele>518</ele>
        <time>2023-08-30T11:11:44Z</time>
      </trkpt>
      <trkpt lat="46.53872" lon="5.5554">
        <ele>518</ele>
        <time>2023-08-30T11:11:45Z</time>
      </trkpt>
      <trkpt lat="46.53869" lon="5.5554">
        <ele>518</ele>
        <time>2023-08-30T11:11:46Z</time>
      </trkpt>
      <trkpt lat="46.53863" lon="5.5554">
        <ele>518</ele>
        <time>2023-08-30T11:11:47Z</time>
      </trkpt>
      <trkpt lat="46.53856" lon="5.55541">
        <ele>518</ele>
        <time>2023-08-30T11:11:48Z</time>
      </trkpt>
      <trkpt lat="46.5385" lon="5.55541">
        <ele>517.6</ele>
        <time>2023-08-30T11:11:49Z</time>
      </trkpt>
      <trkpt lat="46.53844" lon="5.55541">
        <ele>517.6</ele>
        <time>2023-08-30T11:11:50Z</time>
      </trkpt>
      <trkpt lat="46.53838" lon="5.55542">
        <ele>517.6</ele>
        <time>2023-08-30T11:11:51Z</time>
      </trkpt>
      <trkpt lat="46.53831" lon="5.55542">
        <ele>517.6</ele>
        <time>2023-08-30T11:11:52Z</time>
      </trkpt>
      <trkpt lat="46.53825" lon="5.55542">
        <ele>517.6</ele>
        <time>2023-08-30T11:11:53Z</time>
      </trkpt>
      <trkpt lat="46.53819" lon="5.55541">
        <ele>517.6</ele>
        <time>2023-08-30T11:11:54Z</time>
      </trkpt>
      <trkpt lat="46.53813" lon="5.5554">
        <ele>517.6</ele>
        <time>2023-08-30T11:11:55Z</time>
      </trkpt>
      <trkpt lat="46.53807" lon="5.55539">
        <ele>517.6</ele>
        <time>2023-08-30T11:11:56Z</time>
      </trkpt>
      <trkpt lat="46.53801" lon="5.55537">
        <ele>517.6</ele>
        <time>2023-08-30T11:11:57Z</time>
      </trkpt>
      <trkpt lat="46.53795" lon="5.55535">
        <ele>517</ele>
        <time>2023-08-30T11:11:58Z</time>
      </trkpt>
      <trkpt lat="46.53789" lon="5.55533">
        <ele>517</ele>
        <time>2023-08-30T11:11:59Z</time>
      </trkpt>
      <trkpt lat="46.53783" lon="5.55531">
        <ele>517</ele>
        <time>2023-08-30T11:12:00Z</time>
      </trkpt>
      <trkpt lat="46.53778" lon="5.55529">
        <ele>517</ele>
        <time>2023-08-30T11:12:01Z</time>
      </trkpt>
      <trkpt lat="46.53772" lon="5.55527">
        <ele>516.8</ele>
        <time>2023-08-30T11:12:02Z</time>
      </trkpt>
      <trkpt lat="46.53766" lon="5.55526">
        <ele>516.8</ele>
        <time>2023-08-30T11:12:03Z</time>
      </trkpt>
      <trkpt lat="46.53757" lon="5.55523">
        <ele>516.8</ele>
        <time>2023-08-30T11:12:04Z</time>
      </trkpt>
      <trkpt lat="46.53755" lon="5.55522">
        <ele>516.8</ele>
        <time>2023-08-30T11:12:05Z</time>
      </trkpt>
      <trkpt lat="46.53749" lon="5.5552">
        <ele>516.8</ele>
        <time>2023-08-30T11:12:06Z</time>
      </trkpt>
      <trkpt lat="46.53743" lon="5.55518">
        <ele>516.8</ele>
        <time>2023-08-30T11:12:07Z</time>
      </trkpt>
      <trkpt lat="46.53737" lon="5.55517">
        <ele>516.8</ele>
        <time>2023-08-30T11:12:08Z</time>
      </trkpt>
      <trkpt lat="46.53731" lon="5.55515">
        <ele>516.8</ele>
        <time>2023-08-30T11:12:09Z</time>
      </trkpt>
      <trkpt lat="46.53725" lon="5.55514">
        <ele>516.6</ele>
        <time>2023-08-30T11:12:10Z</time>
      </trkpt>
      <trkpt lat="46.53719" lon="5.55513">
        <ele>516.8</ele>
        <time>2023-08-30T11:12:11Z</time>
      </trkpt>
      <trkpt lat="46.53713" lon="5.55511">
        <ele>516.8</ele>
        <time>2023-08-30T11:12:12Z</time>
      </trkpt>
      <trkpt lat="46.53708" lon="5.5551">
        <ele>516.8</ele>
        <time>2023-08-30T11:12:13Z</time>
      </trkpt>
      <trkpt lat="46.53702" lon="5.55508">
        <ele>516.4</ele>
        <time>2023-08-30T11:12:14Z</time>
      </trkpt>
      <trkpt lat="46.53696" lon="5.55507">
        <ele>516.2</ele>
        <time>2023-08-30T11:12:15Z</time>
      </trkpt>
      <trkpt lat="46.5369" lon="5.55505">
        <ele>516.2</ele>
        <time>2023-08-30T11:12:16Z</time>
      </trkpt>
      <trkpt lat="46.53685" lon="5.55504">
        <ele>516.2</ele>
        <time>2023-08-30T11:12:17Z</time>
      </trkpt>
      <trkpt lat="46.53679" lon="5.55503">
        <ele>516.2</ele>
        <time>2023-08-30T11:12:18Z</time>
      </trkpt>
      <trkpt lat="46.53673" lon="5.55502">
        <ele>516.2</ele>
        <time>2023-08-30T11:12:19Z</time>
      </trkpt>
      <trkpt lat="46.53667" lon="5.555">
        <ele>516.2</ele>
        <time>2023-08-30T11:12:20Z</time>
      </trkpt>
      <trkpt lat="46.53661" lon="5.55499">
        <ele>516.2</ele>
        <time>2023-08-30T11:12:21Z</time>
      </trkpt>
      <trkpt lat="46.53655" lon="5.55498">
        <ele>516.2</ele>
        <time>2023-08-30T11:12:22Z</time>
      </trkpt>
      <trkpt lat="46.53649" lon="5.55496">
        <ele>516.2</ele>
        <time>2023-08-30T11:12:23Z</time>
      </trkpt>
      <trkpt lat="46.53643" lon="5.55495">
        <ele>516</ele>
        <time>2023-08-30T11:12:24Z</time>
      </trkpt>
      <trkpt lat="46.53637" lon="5.55494">
        <ele>516.2</ele>
        <time>2023-08-30T11:12:25Z</time>
      </trkpt>
      <trkpt lat="46.53632" lon="5.55492">
        <ele>516.2</ele>
        <time>2023-08-30T11:12:26Z</time>
      </trkpt>
      <trkpt lat="46.53623" lon="5.5549">
        <ele>516.2</ele>
        <time>2023-08-30T11:12:27Z</time>
      </trkpt>
      <trkpt lat="46.5362" lon="5.55489">
        <ele>516</ele>
        <time>2023-08-30T11:12:28Z</time>
      </trkpt>
      <trkpt lat="46.53615" lon="5.55487">
        <ele>515.6</ele>
        <time>2023-08-30T11:12:29Z</time>
      </trkpt>
      <trkpt lat="46.53608" lon="5.55486">
        <ele>515.6</ele>
        <time>2023-08-30T11:12:30Z</time>
      </trkpt>
      <trkpt lat="46.53602" lon="5.55484">
        <ele>515.6</ele>
        <time>2023-08-30T11:12:31Z</time>
      </trkpt>
      <trkpt lat="46.53596" lon="5.55482">
        <ele>515.6</ele>
        <time>2023-08-30T11:12:32Z</time>
      </trkpt>
      <trkpt lat="46.5359" lon="5.5548">
        <ele>515.6</ele>
        <time>2023-08-30T11:12:33Z</time>
      </trkpt>
      <trkpt lat="46.53584" lon="5.55479">
        <ele>515.4</ele>
        <time>2023-08-30T11:12:34Z</time>
      </trkpt>
      <trkpt lat="46.53577" lon="5.55477">
        <ele>515.4</ele>
        <time>2023-08-30T11:12:35Z</time>
      </trkpt>
      <trkpt lat="46.53571" lon="5.55474">
        <ele>515.4</ele>
        <time>2023-08-30T11:12:36Z</time>
      </trkpt>
      <trkpt lat="46.53565" lon="5.55473">
        <ele>515.4</ele>
        <time>2023-08-30T11:12:37Z</time>
      </trkpt>
      <trkpt lat="46.53559" lon="5.55471">
        <ele>515.2</ele>
        <time>2023-08-30T11:12:38Z</time>
      </trkpt>
      <trkpt lat="46.53552" lon="5.55469">
        <ele>515.2</ele>
        <time>2023-08-30T11:12:39Z</time>
      </trkpt>
      <trkpt lat="46.53543" lon="5.55466">
        <ele>515.2</ele>
        <time>2023-08-30T11:12:40Z</time>
      </trkpt>
      <trkpt lat="46.5354" lon="5.55464">
        <ele>514.4</ele>
        <time>2023-08-30T11:12:41Z</time>
      </trkpt>
      <trkpt lat="46.53534" lon="5.55462">
        <ele>514.6</ele>
        <time>2023-08-30T11:12:42Z</time>
      </trkpt>
      <trkpt lat="46.53527" lon="5.5546">
        <ele>514.6</ele>
        <time>2023-08-30T11:12:43Z</time>
      </trkpt>
      <trkpt lat="46.53521" lon="5.55457">
        <ele>514.6</ele>
        <time>2023-08-30T11:12:44Z</time>
      </trkpt>
      <trkpt lat="46.53514" lon="5.55455">
        <ele>514.6</ele>
        <time>2023-08-30T11:12:45Z</time>
      </trkpt>
      <trkpt lat="46.53507" lon="5.55452">
        <ele>514.4</ele>
        <time>2023-08-30T11:12:46Z</time>
      </trkpt>
      <trkpt lat="46.53501" lon="5.55449">
        <ele>514.4</ele>
        <time>2023-08-30T11:12:47Z</time>
      </trkpt>
      <trkpt lat="46.53494" lon="5.55447">
        <ele>514.2</ele>
        <time>2023-08-30T11:12:48Z</time>
      </trkpt>
      <trkpt lat="46.53487" lon="5.55445">
        <ele>514.2</ele>
        <time>2023-08-30T11:12:49Z</time>
      </trkpt>
      <trkpt lat="46.5348" lon="5.55442">
        <ele>514.2</ele>
        <time>2023-08-30T11:12:50Z</time>
      </trkpt>
      <trkpt lat="46.53473" lon="5.5544">
        <ele>514.2</ele>
        <time>2023-08-30T11:12:51Z</time>
      </trkpt>
      <trkpt lat="46.53466" lon="5.55438">
        <ele>514.2</ele>
        <time>2023-08-30T11:12:52Z</time>
      </trkpt>
      <trkpt lat="46.53459" lon="5.55435">
        <ele>514.2</ele>
        <time>2023-08-30T11:12:53Z</time>
      </trkpt>
      <trkpt lat="46.53452" lon="5.55433">
        <ele>514.2</ele>
        <time>2023-08-30T11:12:54Z</time>
      </trkpt>
      <trkpt lat="46.53444" lon="5.55431">
        <ele>514.2</ele>
        <time>2023-08-30T11:12:55Z</time>
      </trkpt>
      <trkpt lat="46.53437" lon="5.55429">
        <ele>514.4</ele>
        <time>2023-08-30T11:12:56Z</time>
      </trkpt>
      <trkpt lat="46.5343" lon="5.55427">
        <ele>514.4</ele>
        <time>2023-08-30T11:12:57Z</time>
      </trkpt>
      <trkpt lat="46.53423" lon="5.55426">
        <ele>514.4</ele>
        <time>2023-08-30T11:12:58Z</time>
      </trkpt>
      <trkpt lat="46.53415" lon="5.55426">
        <ele>514.4</ele>
        <time>2023-08-30T11:12:59Z</time>
      </trkpt>
      <trkpt lat="46.53408" lon="5.55425">
        <ele>514.4</ele>
        <time>2023-08-30T11:13:00Z</time>
      </trkpt>
      <trkpt lat="46.53397" lon="5.55425">
        <ele>514.2</ele>
        <time>2023-08-30T11:13:01Z</time>
      </trkpt>
      <trkpt lat="46.53394" lon="5.55426">
        <ele>514.2</ele>
        <time>2023-08-30T11:13:02Z</time>
      </trkpt>
      <trkpt lat="46.53386" lon="5.55427">
        <ele>514.2</ele>
        <time>2023-08-30T11:13:03Z</time>
      </trkpt>
      <trkpt lat="46.53379" lon="5.55428">
        <ele>514.2</ele>
        <time>2023-08-30T11:13:04Z</time>
      </trkpt>
      <trkpt lat="46.53372" lon="5.55429">
        <ele>514.2</ele>
        <time>2023-08-30T11:13:05Z</time>
      </trkpt>
      <trkpt lat="46.53365" lon="5.55431">
        <ele>514.2</ele>
        <time>2023-08-30T11:13:06Z</time>
      </trkpt>
      <trkpt lat="46.53358" lon="5.55432">
        <ele>514.2</ele>
        <time>2023-08-30T11:13:07Z</time>
      </trkpt>
      <trkpt lat="46.53351" lon="5.55432">
        <ele>514.2</ele>
        <time>2023-08-30T11:13:08Z</time>
      </trkpt>
      <trkpt lat="46.53344" lon="5.55431">
        <ele>514.2</ele>
        <time>2023-08-30T11:13:09Z</time>
      </trkpt>
      <trkpt lat="46.53338" lon="5.55429">
        <ele>514.2</ele>
        <time>2023-08-30T11:13:10Z</time>
      </trkpt>
      <trkpt lat="46.53332" lon="5.55426">
        <ele>514.2</ele>
        <time>2023-08-30T11:13:11Z</time>
      </trkpt>
      <trkpt lat="46.53326" lon="5.55424">
        <ele>514.2</ele>
        <time>2023-08-30T11:13:12Z</time>
      </trkpt>
      <trkpt lat="46.5332" lon="5.55421">
        <ele>514.2</ele>
        <time>2023-08-30T11:13:13Z</time>
      </trkpt>
      <trkpt lat="46.53315" lon="5.55418">
        <ele>514.4</ele>
        <time>2023-08-30T11:13:14Z</time>
      </trkpt>
      <trkpt lat="46.53307" lon="5.55412">
        <ele>514.2</ele>
        <time>2023-08-30T11:13:15Z</time>
      </trkpt>
      <trkpt lat="46.53304" lon="5.5541">
        <ele>514.2</ele>
        <time>2023-08-30T11:13:16Z</time>
      </trkpt>
      <trkpt lat="46.53299" lon="5.55406">
        <ele>514.2</ele>
        <time>2023-08-30T11:13:17Z</time>
      </trkpt>
      <trkpt lat="46.53294" lon="5.554">
        <ele>514</ele>
        <time>2023-08-30T11:13:18Z</time>
      </trkpt>
      <trkpt lat="46.53289" lon="5.55395">
        <ele>514.2</ele>
        <time>2023-08-30T11:13:19Z</time>
      </trkpt>
      <trkpt lat="46.53284" lon="5.55389">
        <ele>514.2</ele>
        <time>2023-08-30T11:13:20Z</time>
      </trkpt>
      <trkpt lat="46.53279" lon="5.55384">
        <ele>514.2</ele>
        <time>2023-08-30T11:13:21Z</time>
      </trkpt>
      <trkpt lat="46.53274" lon="5.55378">
        <ele>514.2</ele>
        <time>2023-08-30T11:13:22Z</time>
      </trkpt>
      <trkpt lat="46.53269" lon="5.55373">
        <ele>513.4</ele>
        <time>2023-08-30T11:13:23Z</time>
      </trkpt>
      <trkpt lat="46.53264" lon="5.55368">
        <ele>513.6</ele>
        <time>2023-08-30T11:13:24Z</time>
      </trkpt>
      <trkpt lat="46.53258" lon="5.55363">
        <ele>513.6</ele>
        <time>2023-08-30T11:13:25Z</time>
      </trkpt>
      <trkpt lat="46.53253" lon="5.55358">
        <ele>513.6</ele>
        <time>2023-08-30T11:13:26Z</time>
      </trkpt>
      <trkpt lat="46.53247" lon="5.55353">
        <ele>513.2</ele>
        <time>2023-08-30T11:13:27Z</time>
      </trkpt>
      <trkpt lat="46.53241" lon="5.55348">
        <ele>513</ele>
        <time>2023-08-30T11:13:28Z</time>
      </trkpt>
      <trkpt lat="46.53236" lon="5.55343">
        <ele>513</ele>
        <time>2023-08-30T11:13:29Z</time>
      </trkpt>
      <trkpt lat="46.53231" lon="5.55338">
        <ele>513</ele>
        <time>2023-08-30T11:13:30Z</time>
      </trkpt>
      <trkpt lat="46.53225" lon="5.55332">
        <ele>513</ele>
        <time>2023-08-30T11:13:31Z</time>
      </trkpt>
      <trkpt lat="46.5322" lon="5.55326">
        <ele>513.2</ele>
        <time>2023-08-30T11:13:32Z</time>
      </trkpt>
      <trkpt lat="46.53215" lon="5.5532">
        <ele>513.2</ele>
        <time>2023-08-30T11:13:33Z</time>
      </trkpt>
      <trkpt lat="46.53209" lon="5.55311">
        <ele>513.2</ele>
        <time>2023-08-30T11:13:34Z</time>
      </trkpt>
      <trkpt lat="46.53207" lon="5.55308">
        <ele>513.2</ele>
        <time>2023-08-30T11:13:35Z</time>
      </trkpt>
      <trkpt lat="46.53202" lon="5.55302">
        <ele>513.2</ele>
        <time>2023-08-30T11:13:36Z</time>
      </trkpt>
      <trkpt lat="46.53198" lon="5.55297">
        <ele>513.4</ele>
        <time>2023-08-30T11:13:37Z</time>
      </trkpt>
      <trkpt lat="46.53193" lon="5.55292">
        <ele>513.4</ele>
        <time>2023-08-30T11:13:38Z</time>
      </trkpt>
      <trkpt lat="46.53188" lon="5.55287">
        <ele>513.4</ele>
        <time>2023-08-30T11:13:39Z</time>
      </trkpt>
      <trkpt lat="46.53184" lon="5.55282">
        <ele>513.4</ele>
        <time>2023-08-30T11:13:40Z</time>
      </trkpt>
      <trkpt lat="46.53178" lon="5.55277">
        <ele>513.4</ele>
        <time>2023-08-30T11:13:41Z</time>
      </trkpt>
      <trkpt lat="46.53173" lon="5.55272">
        <ele>513.4</ele>
        <time>2023-08-30T11:13:42Z</time>
      </trkpt>
      <trkpt lat="46.53168" lon="5.55268">
        <ele>513.4</ele>
        <time>2023-08-30T11:13:43Z</time>
      </trkpt>
      <trkpt lat="46.53163" lon="5.55264">
        <ele>513.4</ele>
        <time>2023-08-30T11:13:44Z</time>
      </trkpt>
      <trkpt lat="46.53157" lon="5.55261">
        <ele>513.4</ele>
        <time>2023-08-30T11:13:45Z</time>
      </trkpt>
      <trkpt lat="46.53152" lon="5.55258">
        <ele>513.4</ele>
        <time>2023-08-30T11:13:46Z</time>
      </trkpt>
      <trkpt lat="46.53146" lon="5.55255">
        <ele>513.4</ele>
        <time>2023-08-30T11:13:47Z</time>
      </trkpt>
      <trkpt lat="46.5314" lon="5.55251">
        <ele>513.4</ele>
        <time>2023-08-30T11:13:48Z</time>
      </trkpt>
      <trkpt lat="46.53134" lon="5.55248">
        <ele>513.4</ele>
        <time>2023-08-30T11:13:49Z</time>
      </trkpt>
      <trkpt lat="46.53128" lon="5.55244">
        <ele>513.2</ele>
        <time>2023-08-30T11:13:50Z</time>
      </trkpt>
      <trkpt lat="46.53122" lon="5.5524">
        <ele>513</ele>
        <time>2023-08-30T11:13:51Z</time>
      </trkpt>
      <trkpt lat="46.53114" lon="5.55235">
        <ele>513</ele>
        <time>2023-08-30T11:13:52Z</time>
      </trkpt>
      <trkpt lat="46.53111" lon="5.55233">
        <ele>513</ele>
        <time>2023-08-30T11:13:53Z</time>
      </trkpt>
      <trkpt lat="46.53105" lon="5.5523">
        <ele>513</ele>
        <time>2023-08-30T11:13:54Z</time>
      </trkpt>
      <trkpt lat="46.53099" lon="5.55227">
        <ele>512.8</ele>
        <time>2023-08-30T11:13:55Z</time>
      </trkpt>
      <trkpt lat="46.53093" lon="5.55223">
        <ele>512.8</ele>
        <time>2023-08-30T11:13:56Z</time>
      </trkpt>
      <trkpt lat="46.53088" lon="5.5522">
        <ele>512.8</ele>
        <time>2023-08-30T11:13:57Z</time>
      </trkpt>
      <trkpt lat="46.53082" lon="5.55217">
        <ele>512.8</ele>
        <time>2023-08-30T11:13:58Z</time>
      </trkpt>
      <trkpt lat="46.53076" lon="5.55213">
        <ele>512.8</ele>
        <time>2023-08-30T11:13:59Z</time>
      </trkpt>
      <trkpt lat="46.53071" lon="5.5521">
        <ele>512.8</ele>
        <time>2023-08-30T11:14:00Z</time>
      </trkpt>
      <trkpt lat="46.53065" lon="5.55207">
        <ele>512.8</ele>
        <time>2023-08-30T11:14:01Z</time>
      </trkpt>
      <trkpt lat="46.53059" lon="5.55204">
        <ele>512.8</ele>
        <time>2023-08-30T11:14:02Z</time>
      </trkpt>
      <trkpt lat="46.53053" lon="5.55202">
        <ele>512.8</ele>
        <time>2023-08-30T11:14:03Z</time>
      </trkpt>
      <trkpt lat="46.53048" lon="5.55199">
        <ele>512.8</ele>
        <time>2023-08-30T11:14:04Z</time>
      </trkpt>
      <trkpt lat="46.53042" lon="5.55197">
        <ele>512.8</ele>
        <time>2023-08-30T11:14:05Z</time>
      </trkpt>
      <trkpt lat="46.53036" lon="5.55194">
        <ele>512.8</ele>
        <time>2023-08-30T11:14:06Z</time>
      </trkpt>
      <trkpt lat="46.53031" lon="5.55191">
        <ele>512.8</ele>
        <time>2023-08-30T11:14:07Z</time>
      </trkpt>
      <trkpt lat="46.53025" lon="5.55189">
        <ele>512.4</ele>
        <time>2023-08-30T11:14:08Z</time>
      </trkpt>
      <trkpt lat="46.5302" lon="5.55186">
        <ele>512.4</ele>
        <time>2023-08-30T11:14:09Z</time>
      </trkpt>
      <trkpt lat="46.53014" lon="5.55184">
        <ele>512.4</ele>
        <time>2023-08-30T11:14:10Z</time>
      </trkpt>
      <trkpt lat="46.53009" lon="5.55181">
        <ele>512.4</ele>
        <time>2023-08-30T11:14:11Z</time>
      </trkpt>
      <trkpt lat="46.53003" lon="5.55178">
        <ele>513.2</ele>
        <time>2023-08-30T11:14:12Z</time>
      </trkpt>
      <trkpt lat="46.52998" lon="5.55176">
        <ele>513.2</ele>
        <time>2023-08-30T11:14:13Z</time>
      </trkpt>
      <trkpt lat="46.52992" lon="5.55173">
        <ele>513.2</ele>
        <time>2023-08-30T11:14:14Z</time>
      </trkpt>
      <trkpt lat="46.52986" lon="5.55171">
        <ele>513.2</ele>
        <time>2023-08-30T11:14:15Z</time>
      </trkpt>
      <trkpt lat="46.52981" lon="5.55169">
        <ele>513.2</ele>
        <time>2023-08-30T11:14:16Z</time>
      </trkpt>
      <trkpt lat="46.52975" lon="5.55166">
        <ele>513.2</ele>
        <time>2023-08-30T11:14:17Z</time>
      </trkpt>
      <trkpt lat="46.5297" lon="5.55164">
        <ele>513.2</ele>
        <time>2023-08-30T11:14:18Z</time>
      </trkpt>
      <trkpt lat="46.52964" lon="5.55161">
        <ele>513.2</ele>
        <time>2023-08-30T11:14:19Z</time>
      </trkpt>
      <trkpt lat="46.52959" lon="5.55159">
        <ele>513.2</ele>
        <time>2023-08-30T11:14:20Z</time>
      </trkpt>
      <trkpt lat="46.52954" lon="5.55157">
        <ele>513.2</ele>
        <time>2023-08-30T11:14:21Z</time>
      </trkpt>
      <trkpt lat="46.52948" lon="5.55154">
        <ele>513.2</ele>
        <time>2023-08-30T11:14:22Z</time>
      </trkpt>
      <trkpt lat="46.52943" lon="5.55152">
        <ele>513.2</ele>
        <time>2023-08-30T11:14:23Z</time>
      </trkpt>
      <trkpt lat="46.52937" lon="5.55149">
        <ele>513.2</ele>
        <time>2023-08-30T11:14:24Z</time>
      </trkpt>
      <trkpt lat="46.52932" lon="5.55147">
        <ele>513.2</ele>
        <time>2023-08-30T11:14:25Z</time>
      </trkpt>
      <trkpt lat="46.52927" lon="5.55145">
        <ele>513.4</ele>
        <time>2023-08-30T11:14:26Z</time>
      </trkpt>
      <trkpt lat="46.52921" lon="5.55143">
        <ele>513.4</ele>
        <time>2023-08-30T11:14:27Z</time>
      </trkpt>
      <trkpt lat="46.52916" lon="5.5514">
        <ele>513.4</ele>
        <time>2023-08-30T11:14:28Z</time>
      </trkpt>
      <trkpt lat="46.52908" lon="5.55137">
        <ele>513.4</ele>
        <time>2023-08-30T11:14:29Z</time>
      </trkpt>
      <trkpt lat="46.52906" lon="5.55136">
        <ele>513.4</ele>
        <time>2023-08-30T11:14:30Z</time>
      </trkpt>
      <trkpt lat="46.529" lon="5.55133">
        <ele>513.4</ele>
        <time>2023-08-30T11:14:31Z</time>
      </trkpt>
      <trkpt lat="46.52895" lon="5.5513">
        <ele>513.2</ele>
        <time>2023-08-30T11:14:32Z</time>
      </trkpt>
      <trkpt lat="46.52889" lon="5.55128">
        <ele>513.2</ele>
        <time>2023-08-30T11:14:33Z</time>
      </trkpt>
      <trkpt lat="46.52884" lon="5.55125">
        <ele>513.2</ele>
        <time>2023-08-30T11:14:34Z</time>
      </trkpt>
      <trkpt lat="46.52879" lon="5.55123">
        <ele>513.6</ele>
        <time>2023-08-30T11:14:35Z</time>
      </trkpt>
      <trkpt lat="46.52873" lon="5.5512">
        <ele>513.4</ele>
        <time>2023-08-30T11:14:36Z</time>
      </trkpt>
      <trkpt lat="46.52868" lon="5.55117">
        <ele>513.4</ele>
        <time>2023-08-30T11:14:37Z</time>
      </trkpt>
      <trkpt lat="46.52863" lon="5.55115">
        <ele>513.4</ele>
        <time>2023-08-30T11:14:38Z</time>
      </trkpt>
      <trkpt lat="46.52857" lon="5.55112">
        <ele>513.4</ele>
        <time>2023-08-30T11:14:39Z</time>
      </trkpt>
      <trkpt lat="46.52852" lon="5.5511">
        <ele>513.4</ele>
        <time>2023-08-30T11:14:40Z</time>
      </trkpt>
      <trkpt lat="46.52846" lon="5.55108">
        <ele>513.4</ele>
        <time>2023-08-30T11:14:41Z</time>
      </trkpt>
      <trkpt lat="46.52841" lon="5.55106">
        <ele>513.4</ele>
        <time>2023-08-30T11:14:42Z</time>
      </trkpt>
      <trkpt lat="46.52835" lon="5.55104">
        <ele>513.4</ele>
        <time>2023-08-30T11:14:43Z</time>
      </trkpt>
      <trkpt lat="46.5283" lon="5.55102">
        <ele>513.2</ele>
        <time>2023-08-30T11:14:44Z</time>
      </trkpt>
      <trkpt lat="46.52824" lon="5.55101">
        <ele>513.2</ele>
        <time>2023-08-30T11:14:45Z</time>
      </trkpt>
      <trkpt lat="46.52819" lon="5.55099">
        <ele>513.2</ele>
        <time>2023-08-30T11:14:46Z</time>
      </trkpt>
      <trkpt lat="46.52813" lon="5.55098">
        <ele>513.2</ele>
        <time>2023-08-30T11:14:47Z</time>
      </trkpt>
      <trkpt lat="46.52808" lon="5.55096">
        <ele>513.2</ele>
        <time>2023-08-30T11:14:48Z</time>
      </trkpt>
      <trkpt lat="46.52802" lon="5.55095">
        <ele>513.2</ele>
        <time>2023-08-30T11:14:49Z</time>
      </trkpt>
      <trkpt lat="46.52797" lon="5.55093">
        <ele>513.2</ele>
        <time>2023-08-30T11:14:50Z</time>
      </trkpt>
      <trkpt lat="46.52791" lon="5.55092">
        <ele>513.2</ele>
        <time>2023-08-30T11:14:51Z</time>
      </trkpt>
      <trkpt lat="46.52786" lon="5.55091">
        <ele>513.2</ele>
        <time>2023-08-30T11:14:52Z</time>
      </trkpt>
      <trkpt lat="46.5278" lon="5.5509">
        <ele>513.2</ele>
        <time>2023-08-30T11:14:53Z</time>
      </trkpt>
      <trkpt lat="46.52775" lon="5.55089">
        <ele>513.2</ele>
        <time>2023-08-30T11:14:54Z</time>
      </trkpt>
      <trkpt lat="46.5277" lon="5.55088">
        <ele>513.2</ele>
        <time>2023-08-30T11:14:55Z</time>
      </trkpt>
      <trkpt lat="46.52765" lon="5.55087">
        <ele>513.2</ele>
        <time>2023-08-30T11:14:56Z</time>
      </trkpt>
      <trkpt lat="46.52759" lon="5.55086">
        <ele>513.2</ele>
        <time>2023-08-30T11:14:57Z</time>
      </trkpt>
      <trkpt lat="46.52754" lon="5.55085">
        <ele>513.2</ele>
        <time>2023-08-30T11:14:58Z</time>
      </trkpt>
      <trkpt lat="46.52748" lon="5.55084">
        <ele>513</ele>
        <time>2023-08-30T11:14:59Z</time>
      </trkpt>
      <trkpt lat="46.52743" lon="5.55083">
        <ele>513</ele>
        <time>2023-08-30T11:15:00Z</time>
      </trkpt>
      <trkpt lat="46.52737" lon="5.55082">
        <ele>513</ele>
        <time>2023-08-30T11:15:01Z</time>
      </trkpt>
      <trkpt lat="46.52731" lon="5.55081">
        <ele>512.8</ele>
        <time>2023-08-30T11:15:02Z</time>
      </trkpt>
      <trkpt lat="46.52723" lon="5.5508">
        <ele>513</ele>
        <time>2023-08-30T11:15:03Z</time>
      </trkpt>
      <trkpt lat="46.5272" lon="5.55079">
        <ele>513</ele>
        <time>2023-08-30T11:15:04Z</time>
      </trkpt>
      <trkpt lat="46.52715" lon="5.55078">
        <ele>513</ele>
        <time>2023-08-30T11:15:05Z</time>
      </trkpt>
      <trkpt lat="46.5271" lon="5.55077">
        <ele>512.2</ele>
        <time>2023-08-30T11:15:06Z</time>
      </trkpt>
      <trkpt lat="46.52705" lon="5.55075">
        <ele>512.6</ele>
        <time>2023-08-30T11:15:07Z</time>
      </trkpt>
      <trkpt lat="46.52701" lon="5.55072">
        <ele>512.6</ele>
        <time>2023-08-30T11:15:08Z</time>
      </trkpt>
      <trkpt lat="46.52698" lon="5.55068">
        <ele>512.6</ele>
        <time>2023-08-30T11:15:09Z</time>
      </trkpt>
      <trkpt lat="46.52697" lon="5.55062">
        <ele>512.6</ele>
        <time>2023-08-30T11:15:10Z</time>
      </trkpt>
      <trkpt lat="46.52697" lon="5.55056">
        <ele>512.4</ele>
        <time>2023-08-30T11:15:11Z</time>
      </trkpt>
      <trkpt lat="46.52698" lon="5.55051">
        <ele>512.2</ele>
        <time>2023-08-30T11:15:12Z</time>
      </trkpt>
      <trkpt lat="46.52698" lon="5.55046">
        <ele>512.2</ele>
        <time>2023-08-30T11:15:13Z</time>
      </trkpt>
      <trkpt lat="46.52699" lon="5.5504">
        <ele>512.2</ele>
        <time>2023-08-30T11:15:14Z</time>
      </trkpt>
      <trkpt lat="46.527" lon="5.55035">
        <ele>512</ele>
        <time>2023-08-30T11:15:15Z</time>
      </trkpt>
      <trkpt lat="46.527" lon="5.5503">
        <ele>511.8</ele>
        <time>2023-08-30T11:15:16Z</time>
      </trkpt>
      <trkpt lat="46.52701" lon="5.55025">
        <ele>511.8</ele>
        <time>2023-08-30T11:15:17Z</time>
      </trkpt>
      <trkpt lat="46.52701" lon="5.5502">
        <ele>511.8</ele>
        <time>2023-08-30T11:15:18Z</time>
      </trkpt>
      <trkpt lat="46.52701" lon="5.55015">
        <ele>511.4</ele>
        <time>2023-08-30T11:15:19Z</time>
      </trkpt>
      <trkpt lat="46.52702" lon="5.5501">
        <ele>511.4</ele>
        <time>2023-08-30T11:15:20Z</time>
      </trkpt>
      <trkpt lat="46.52702" lon="5.55005">
        <ele>511.2</ele>
        <time>2023-08-30T11:15:21Z</time>
      </trkpt>
      <trkpt lat="46.52703" lon="5.55">
        <ele>511.2</ele>
        <time>2023-08-30T11:15:22Z</time>
      </trkpt>
      <trkpt lat="46.52704" lon="5.54995">
        <ele>511.2</ele>
        <time>2023-08-30T11:15:23Z</time>
      </trkpt>
      <trkpt lat="46.52704" lon="5.5499">
        <ele>511.2</ele>
        <time>2023-08-30T11:15:24Z</time>
      </trkpt>
      <trkpt lat="46.52705" lon="5.54985">
        <ele>511</ele>
        <time>2023-08-30T11:15:25Z</time>
      </trkpt>
      <trkpt lat="46.52705" lon="5.5498">
        <ele>511</ele>
        <time>2023-08-30T11:15:26Z</time>
      </trkpt>
      <trkpt lat="46.52705" lon="5.54975">
        <ele>511</ele>
        <time>2023-08-30T11:15:27Z</time>
      </trkpt>
      <trkpt lat="46.52706" lon="5.5497">
        <ele>511</ele>
        <time>2023-08-30T11:15:28Z</time>
      </trkpt>
      <trkpt lat="46.52706" lon="5.54966">
        <ele>510.8</ele>
        <time>2023-08-30T11:15:29Z</time>
      </trkpt>
      <trkpt lat="46.52706" lon="5.54961">
        <ele>510.8</ele>
        <time>2023-08-30T11:15:30Z</time>
      </trkpt>
      <trkpt lat="46.52707" lon="5.54957">
        <ele>510.8</ele>
        <time>2023-08-30T11:15:31Z</time>
      </trkpt>
      <trkpt lat="46.52707" lon="5.54952">
        <ele>510.8</ele>
        <time>2023-08-30T11:15:32Z</time>
      </trkpt>
      <trkpt lat="46.52708" lon="5.54948">
        <ele>510.8</ele>
        <time>2023-08-30T11:15:33Z</time>
      </trkpt>
      <trkpt lat="46.52708" lon="5.54943">
        <ele>510.6</ele>
        <time>2023-08-30T11:15:34Z</time>
      </trkpt>
      <trkpt lat="46.52708" lon="5.54939">
        <ele>510.6</ele>
        <time>2023-08-30T11:15:35Z</time>
      </trkpt>
      <trkpt lat="46.52709" lon="5.54934">
        <ele>510.6</ele>
        <time>2023-08-30T11:15:36Z</time>
      </trkpt>
      <trkpt lat="46.52709" lon="5.5493">
        <ele>510.6</ele>
        <time>2023-08-30T11:15:37Z</time>
      </trkpt>
      <trkpt lat="46.52709" lon="5.54926">
        <ele>510.8</ele>
        <time>2023-08-30T11:15:38Z</time>
      </trkpt>
      <trkpt lat="46.52709" lon="5.54922">
        <ele>510.8</ele>
        <time>2023-08-30T11:15:39Z</time>
      </trkpt>
      <trkpt lat="46.52709" lon="5.54917">
        <ele>510.8</ele>
        <time>2023-08-30T11:15:40Z</time>
      </trkpt>
      <trkpt lat="46.52709" lon="5.54913">
        <ele>510.8</ele>
        <time>2023-08-30T11:15:41Z</time>
      </trkpt>
      <trkpt lat="46.5271" lon="5.54909">
        <ele>510.6</ele>
        <time>2023-08-30T11:15:42Z</time>
      </trkpt>
      <trkpt lat="46.5271" lon="5.54905">
        <ele>511</ele>
        <time>2023-08-30T11:15:43Z</time>
      </trkpt>
      <trkpt lat="46.5271" lon="5.54901">
        <ele>511</ele>
        <time>2023-08-30T11:15:44Z</time>
      </trkpt>
      <trkpt lat="46.52711" lon="5.54897">
        <ele>511</ele>
        <time>2023-08-30T11:15:45Z</time>
      </trkpt>
      <trkpt lat="46.52711" lon="5.54893">
        <ele>511</ele>
        <time>2023-08-30T11:15:46Z</time>
      </trkpt>
      <trkpt lat="46.52711" lon="5.54889">
        <ele>511</ele>
        <time>2023-08-30T11:15:47Z</time>
      </trkpt>
      <trkpt lat="46.52712" lon="5.54885">
        <ele>511</ele>
        <time>2023-08-30T11:15:48Z</time>
      </trkpt>
      <trkpt lat="46.52712" lon="5.54881">
        <ele>511</ele>
        <time>2023-08-30T11:15:49Z</time>
      </trkpt>
      <trkpt lat="46.52713" lon="5.54877">
        <ele>511</ele>
        <time>2023-08-30T11:15:50Z</time>
      </trkpt>
      <trkpt lat="46.52713" lon="5.54873">
        <ele>511</ele>
        <time>2023-08-30T11:15:51Z</time>
      </trkpt>
      <trkpt lat="46.52713" lon="5.54868">
        <ele>511</ele>
        <time>2023-08-30T11:15:52Z</time>
      </trkpt>
      <trkpt lat="46.52713" lon="5.54864">
        <ele>511</ele>
        <time>2023-08-30T11:15:53Z</time>
      </trkpt>
      <trkpt lat="46.52714" lon="5.54859">
        <ele>511</ele>
        <time>2023-08-30T11:15:54Z</time>
      </trkpt>
      <trkpt lat="46.52714" lon="5.54855">
        <ele>511.2</ele>
        <time>2023-08-30T11:15:55Z</time>
      </trkpt>
      <trkpt lat="46.52714" lon="5.5485">
        <ele>511.2</ele>
        <time>2023-08-30T11:15:56Z</time>
      </trkpt>
      <trkpt lat="46.52715" lon="5.54846">
        <ele>511.2</ele>
        <time>2023-08-30T11:15:57Z</time>
      </trkpt>
      <trkpt lat="46.52715" lon="5.54841">
        <ele>511.2</ele>
        <time>2023-08-30T11:15:58Z</time>
      </trkpt>
      <trkpt lat="46.52715" lon="5.54837">
        <ele>511.2</ele>
        <time>2023-08-30T11:15:59Z</time>
      </trkpt>
      <trkpt lat="46.52715" lon="5.54833">
        <ele>511.2</ele>
        <time>2023-08-30T11:16:00Z</time>
      </trkpt>
      <trkpt lat="46.52716" lon="5.54828">
        <ele>511.2</ele>
        <time>2023-08-30T11:16:01Z</time>
      </trkpt>
      <trkpt lat="46.52716" lon="5.54824">
        <ele>511.2</ele>
        <time>2023-08-30T11:16:02Z</time>
      </trkpt>
      <trkpt lat="46.52716" lon="5.5482">
        <ele>511.2</ele>
        <time>2023-08-30T11:16:03Z</time>
      </trkpt>
      <trkpt lat="46.52716" lon="5.54816">
        <ele>511.2</ele>
        <time>2023-08-30T11:16:04Z</time>
      </trkpt>
      <trkpt lat="46.52716" lon="5.54812">
        <ele>511.2</ele>
        <time>2023-08-30T11:16:05Z</time>
      </trkpt>
      <trkpt lat="46.52717" lon="5.54808">
        <ele>511.2</ele>
        <time>2023-08-30T11:16:06Z</time>
      </trkpt>
      <trkpt lat="46.52717" lon="5.54803">
        <ele>511.2</ele>
        <time>2023-08-30T11:16:07Z</time>
      </trkpt>
      <trkpt lat="46.52718" lon="5.54799">
        <ele>511.2</ele>
        <time>2023-08-30T11:16:08Z</time>
      </trkpt>
      <trkpt lat="46.52718" lon="5.54795">
        <ele>511.2</ele>
        <time>2023-08-30T11:16:09Z</time>
      </trkpt>
      <trkpt lat="46.52719" lon="5.5479">
        <ele>512.2</ele>
        <time>2023-08-30T11:16:10Z</time>
      </trkpt>
      <trkpt lat="46.52719" lon="5.54786">
        <ele>512.2</ele>
        <time>2023-08-30T11:16:11Z</time>
      </trkpt>
      <trkpt lat="46.52719" lon="5.54781">
        <ele>512.2</ele>
        <time>2023-08-30T11:16:12Z</time>
      </trkpt>
      <trkpt lat="46.5272" lon="5.54777">
        <ele>512.2</ele>
        <time>2023-08-30T11:16:13Z</time>
      </trkpt>
      <trkpt lat="46.5272" lon="5.54772">
        <ele>512.2</ele>
        <time>2023-08-30T11:16:14Z</time>
      </trkpt>
      <trkpt lat="46.52721" lon="5.54768">
        <ele>512.4</ele>
        <time>2023-08-30T11:16:15Z</time>
      </trkpt>
      <trkpt lat="46.52721" lon="5.54763">
        <ele>512.4</ele>
        <time>2023-08-30T11:16:16Z</time>
      </trkpt>
      <trkpt lat="46.52721" lon="5.54758">
        <ele>512.4</ele>
        <time>2023-08-30T11:16:17Z</time>
      </trkpt>
      <trkpt lat="46.52721" lon="5.54754">
        <ele>512.6</ele>
        <time>2023-08-30T11:16:18Z</time>
      </trkpt>
      <trkpt lat="46.52722" lon="5.54749">
        <ele>512.6</ele>
        <time>2023-08-30T11:16:19Z</time>
      </trkpt>
      <trkpt lat="46.52722" lon="5.54744">
        <ele>512.6</ele>
        <time>2023-08-30T11:16:20Z</time>
      </trkpt>
      <trkpt lat="46.52723" lon="5.5474">
        <ele>512.6</ele>
        <time>2023-08-30T11:16:21Z</time>
      </trkpt>
      <trkpt lat="46.52723" lon="5.54735">
        <ele>512.8</ele>
        <time>2023-08-30T11:16:22Z</time>
      </trkpt>
      <trkpt lat="46.52723" lon="5.5473">
        <ele>512.8</ele>
        <time>2023-08-30T11:16:23Z</time>
      </trkpt>
      <trkpt lat="46.52724" lon="5.54726">
        <ele>512.8</ele>
        <time>2023-08-30T11:16:24Z</time>
      </trkpt>
      <trkpt lat="46.52724" lon="5.54722">
        <ele>512.8</ele>
        <time>2023-08-30T11:16:25Z</time>
      </trkpt>
      <trkpt lat="46.52724" lon="5.54718">
        <ele>512.8</ele>
        <time>2023-08-30T11:16:26Z</time>
      </trkpt>
      <trkpt lat="46.52724" lon="5.54714">
        <ele>512.8</ele>
        <time>2023-08-30T11:16:27Z</time>
      </trkpt>
      <trkpt lat="46.52725" lon="5.54709">
        <ele>513.2</ele>
        <time>2023-08-30T11:16:28Z</time>
      </trkpt>
      <trkpt lat="46.52725" lon="5.54705">
        <ele>513.2</ele>
        <time>2023-08-30T11:16:29Z</time>
      </trkpt>
      <trkpt lat="46.52725" lon="5.54701">
        <ele>513.2</ele>
        <time>2023-08-30T11:16:30Z</time>
      </trkpt>
      <trkpt lat="46.52725" lon="5.54696">
        <ele>513.2</ele>
        <time>2023-08-30T11:16:31Z</time>
      </trkpt>
      <trkpt lat="46.52726" lon="5.54692">
        <ele>513.4</ele>
        <time>2023-08-30T11:16:32Z</time>
      </trkpt>
      <trkpt lat="46.52726" lon="5.54687">
        <ele>513.4</ele>
        <time>2023-08-30T11:16:33Z</time>
      </trkpt>
      <trkpt lat="46.52726" lon="5.54683">
        <ele>513.4</ele>
        <time>2023-08-30T11:16:34Z</time>
      </trkpt>
      <trkpt lat="46.52727" lon="5.54679">
        <ele>513.4</ele>
        <time>2023-08-30T11:16:35Z</time>
      </trkpt>
      <trkpt lat="46.52727" lon="5.54675">
        <ele>513.8</ele>
        <time>2023-08-30T11:16:36Z</time>
      </trkpt>
      <trkpt lat="46.52727" lon="5.5467">
        <ele>513.8</ele>
        <time>2023-08-30T11:16:37Z</time>
      </trkpt>
      <trkpt lat="46.52728" lon="5.54666">
        <ele>513.8</ele>
        <time>2023-08-30T11:16:38Z</time>
      </trkpt>
      <trkpt lat="46.52728" lon="5.54662">
        <ele>513.8</ele>
        <time>2023-08-30T11:16:39Z</time>
      </trkpt>
      <trkpt lat="46.52728" lon="5.54658">
        <ele>513.8</ele>
        <time>2023-08-30T11:16:40Z</time>
      </trkpt>
      <trkpt lat="46.52728" lon="5.54654">
        <ele>514.2</ele>
        <time>2023-08-30T11:16:41Z</time>
      </trkpt>
      <trkpt lat="46.52729" lon="5.5465">
        <ele>514.4</ele>
        <time>2023-08-30T11:16:42Z</time>
      </trkpt>
      <trkpt lat="46.5273" lon="5.54646">
        <ele>514.4</ele>
        <time>2023-08-30T11:16:43Z</time>
      </trkpt>
      <trkpt lat="46.5273" lon="5.54643">
        <ele>514.4</ele>
        <time>2023-08-30T11:16:44Z</time>
      </trkpt>
      <trkpt lat="46.52731" lon="5.54639">
        <ele>514.8</ele>
        <time>2023-08-30T11:16:45Z</time>
      </trkpt>
      <trkpt lat="46.52732" lon="5.54635">
        <ele>514.8</ele>
        <time>2023-08-30T11:16:46Z</time>
      </trkpt>
      <trkpt lat="46.52732" lon="5.54631">
        <ele>515</ele>
        <time>2023-08-30T11:16:47Z</time>
      </trkpt>
      <trkpt lat="46.52732" lon="5.54627">
        <ele>515</ele>
        <time>2023-08-30T11:16:48Z</time>
      </trkpt>
      <trkpt lat="46.52732" lon="5.54623">
        <ele>515</ele>
        <time>2023-08-30T11:16:49Z</time>
      </trkpt>
      <trkpt lat="46.52732" lon="5.54619">
        <ele>515.4</ele>
        <time>2023-08-30T11:16:50Z</time>
      </trkpt>
      <trkpt lat="46.52732" lon="5.54616">
        <ele>515.6</ele>
        <time>2023-08-30T11:16:51Z</time>
      </trkpt>
      <trkpt lat="46.52731" lon="5.54612">
        <ele>515.6</ele>
        <time>2023-08-30T11:16:52Z</time>
      </trkpt>
      <trkpt lat="46.52731" lon="5.54609">
        <ele>515.6</ele>
        <time>2023-08-30T11:16:53Z</time>
      </trkpt>
      <trkpt lat="46.5273" lon="5.54606">
        <ele>515.6</ele>
        <time>2023-08-30T11:16:54Z</time>
      </trkpt>
      <trkpt lat="46.52729" lon="5.54603">
        <ele>516.2</ele>
        <time>2023-08-30T11:16:55Z</time>
      </trkpt>
      <trkpt lat="46.52728" lon="5.546">
        <ele>516.4</ele>
        <time>2023-08-30T11:16:56Z</time>
      </trkpt>
      <trkpt lat="46.52727" lon="5.54598">
        <ele>516.4</ele>
        <time>2023-08-30T11:16:57Z</time>
      </trkpt>
      <trkpt lat="46.52725" lon="5.54596">
        <ele>516.4</ele>
        <time>2023-08-30T11:16:58Z</time>
      </trkpt>
      <trkpt lat="46.52724" lon="5.54594">
        <ele>516.8</ele>
        <time>2023-08-30T11:16:59Z</time>
      </trkpt>
      <trkpt lat="46.52723" lon="5.54592">
        <ele>517</ele>
        <time>2023-08-30T11:17:00Z</time>
      </trkpt>
      <trkpt lat="46.52722" lon="5.54589">
        <ele>517</ele>
        <time>2023-08-30T11:17:01Z</time>
      </trkpt>
      <trkpt lat="46.5272" lon="5.54587">
        <ele>517</ele>
        <time>2023-08-30T11:17:02Z</time>
      </trkpt>
      <trkpt lat="46.52719" lon="5.54585">
        <ele>517.6</ele>
        <time>2023-08-30T11:17:03Z</time>
      </trkpt>
      <trkpt lat="46.52718" lon="5.54583">
        <ele>517.6</ele>
        <time>2023-08-30T11:17:04Z</time>
      </trkpt>
      <trkpt lat="46.52716" lon="5.5458">
        <ele>517.8</ele>
        <time>2023-08-30T11:17:05Z</time>
      </trkpt>
      <trkpt lat="46.52715" lon="5.54578">
        <ele>517.8</ele>
        <time>2023-08-30T11:17:06Z</time>
      </trkpt>
      <trkpt lat="46.52714" lon="5.54576">
        <ele>517.8</ele>
        <time>2023-08-30T11:17:07Z</time>
      </trkpt>
      <trkpt lat="46.52712" lon="5.54574">
        <ele>517.8</ele>
        <time>2023-08-30T11:17:08Z</time>
      </trkpt>
      <trkpt lat="46.52711" lon="5.54573">
        <ele>518.4</ele>
        <time>2023-08-30T11:17:09Z</time>
      </trkpt>
      <trkpt lat="46.52709" lon="5.54571">
        <ele>518.8</ele>
        <time>2023-08-30T11:17:10Z</time>
      </trkpt>
      <trkpt lat="46.52708" lon="5.54569">
        <ele>518.8</ele>
        <time>2023-08-30T11:17:11Z</time>
      </trkpt>
      <trkpt lat="46.52707" lon="5.54568">
        <ele>518.8</ele>
        <time>2023-08-30T11:17:12Z</time>
      </trkpt>
      <trkpt lat="46.52705" lon="5.54566">
        <ele>519.8</ele>
        <time>2023-08-30T11:17:13Z</time>
      </trkpt>
      <trkpt lat="46.52704" lon="5.54564">
        <ele>520.6</ele>
        <time>2023-08-30T11:17:14Z</time>
      </trkpt>
      <trkpt lat="46.52702" lon="5.54563">
        <ele>520.6</ele>
        <time>2023-08-30T11:17:15Z</time>
      </trkpt>
      <trkpt lat="46.52701" lon="5.54562">
        <ele>520.6</ele>
        <time>2023-08-30T11:17:16Z</time>
      </trkpt>
      <trkpt lat="46.527" lon="5.5456">
        <ele>520.6</ele>
        <time>2023-08-30T11:17:17Z</time>
      </trkpt>
      <trkpt lat="46.52698" lon="5.54558">
        <ele>521.6</ele>
        <time>2023-08-30T11:17:18Z</time>
      </trkpt>
      <trkpt lat="46.52697" lon="5.54557">
        <ele>521.8</ele>
        <time>2023-08-30T11:17:19Z</time>
      </trkpt>
      <trkpt lat="46.52696" lon="5.54555">
        <ele>521.8</ele>
        <time>2023-08-30T11:17:20Z</time>
      </trkpt>
      <trkpt lat="46.52694" lon="5.54553">
        <ele>521.8</ele>
        <time>2023-08-30T11:17:21Z</time>
      </trkpt>
      <trkpt lat="46.52693" lon="5.54552">
        <ele>522.6</ele>
        <time>2023-08-30T11:17:22Z</time>
      </trkpt>
      <trkpt lat="46.52692" lon="5.5455">
        <ele>523</ele>
        <time>2023-08-30T11:17:23Z</time>
      </trkpt>
      <trkpt lat="46.5269" lon="5.54548">
        <ele>523</ele>
        <time>2023-08-30T11:17:24Z</time>
      </trkpt>
      <trkpt lat="46.52689" lon="5.54547">
        <ele>523</ele>
        <time>2023-08-30T11:17:25Z</time>
      </trkpt>
      <trkpt lat="46.52688" lon="5.54545">
        <ele>523</ele>
        <time>2023-08-30T11:17:26Z</time>
      </trkpt>
      <trkpt lat="46.52687" lon="5.54544">
        <ele>523.8</ele>
        <time>2023-08-30T11:17:27Z</time>
      </trkpt>
      <trkpt lat="46.52685" lon="5.54542">
        <ele>524.2</ele>
        <time>2023-08-30T11:17:28Z</time>
      </trkpt>
      <trkpt lat="46.52684" lon="5.54541">
        <ele>524.2</ele>
        <time>2023-08-30T11:17:29Z</time>
      </trkpt>
      <trkpt lat="46.52683" lon="5.54539">
        <ele>524.2</ele>
        <time>2023-08-30T11:17:30Z</time>
      </trkpt>
      <trkpt lat="46.52681" lon="5.54537">
        <ele>524.6</ele>
        <time>2023-08-30T11:17:31Z</time>
      </trkpt>
      <trkpt lat="46.5268" lon="5.54535">
        <ele>524.8</ele>
        <time>2023-08-30T11:17:32Z</time>
      </trkpt>
      <trkpt lat="46.52679" lon="5.54533">
        <ele>524.8</ele>
        <time>2023-08-30T11:17:33Z</time>
      </trkpt>
      <trkpt lat="46.52677" lon="5.54532">
        <ele>524.8</ele>
        <time>2023-08-30T11:17:34Z</time>
      </trkpt>
      <trkpt lat="46.52676" lon="5.5453">
        <ele>525.6</ele>
        <time>2023-08-30T11:17:35Z</time>
      </trkpt>
      <trkpt lat="46.52675" lon="5.54528">
        <ele>525.6</ele>
        <time>2023-08-30T11:17:36Z</time>
      </trkpt>
      <trkpt lat="46.52673" lon="5.54526">
        <ele>525.8</ele>
        <time>2023-08-30T11:17:37Z</time>
      </trkpt>
      <trkpt lat="46.52672" lon="5.54525">
        <ele>525.8</ele>
        <time>2023-08-30T11:17:38Z</time>
      </trkpt>
      <trkpt lat="46.5267" lon="5.54524">
        <ele>525.8</ele>
        <time>2023-08-30T11:17:39Z</time>
      </trkpt>
      <trkpt lat="46.52669" lon="5.54522">
        <ele>526.8</ele>
        <time>2023-08-30T11:17:40Z</time>
      </trkpt>
      <trkpt lat="46.52667" lon="5.5452">
        <ele>527.6</ele>
        <time>2023-08-30T11:17:41Z</time>
      </trkpt>
      <trkpt lat="46.52666" lon="5.54519">
        <ele>527.6</ele>
        <time>2023-08-30T11:17:42Z</time>
      </trkpt>
      <trkpt lat="46.52664" lon="5.54517">
        <ele>527.6</ele>
        <time>2023-08-30T11:17:43Z</time>
      </trkpt>
      <trkpt lat="46.52663" lon="5.54515">
        <ele>528.2</ele>
        <time>2023-08-30T11:17:44Z</time>
      </trkpt>
      <trkpt lat="46.52662" lon="5.54513">
        <ele>528.4</ele>
        <time>2023-08-30T11:17:45Z</time>
      </trkpt>
      <trkpt lat="46.52661" lon="5.54512">
        <ele>528.4</ele>
        <time>2023-08-30T11:17:46Z</time>
      </trkpt>
      <trkpt lat="46.52659" lon="5.5451">
        <ele>528.4</ele>
        <time>2023-08-30T11:17:47Z</time>
      </trkpt>
      <trkpt lat="46.52657" lon="5.54509">
        <ele>528.4</ele>
        <time>2023-08-30T11:17:48Z</time>
      </trkpt>
      <trkpt lat="46.52656" lon="5.54507">
        <ele>528.4</ele>
        <time>2023-08-30T11:17:49Z</time>
      </trkpt>
      <trkpt lat="46.52654" lon="5.54506">
        <ele>529</ele>
        <time>2023-08-30T11:17:50Z</time>
      </trkpt>
      <trkpt lat="46.52653" lon="5.54505">
        <ele>529.4</ele>
        <time>2023-08-30T11:17:51Z</time>
      </trkpt>
      <trkpt lat="46.52651" lon="5.54504">
        <ele>529.4</ele>
        <time>2023-08-30T11:17:52Z</time>
      </trkpt>
      <trkpt lat="46.52649" lon="5.54502">
        <ele>529.4</ele>
        <time>2023-08-30T11:17:53Z</time>
      </trkpt>
      <trkpt lat="46.52648" lon="5.54501">
        <ele>529.8</ele>
        <time>2023-08-30T11:17:54Z</time>
      </trkpt>
      <trkpt lat="46.52646" lon="5.545">
        <ele>530.2</ele>
        <time>2023-08-30T11:17:55Z</time>
      </trkpt>
      <trkpt lat="46.52645" lon="5.54498">
        <ele>530.2</ele>
        <time>2023-08-30T11:17:56Z</time>
      </trkpt>
      <trkpt lat="46.52643" lon="5.54497">
        <ele>530.2</ele>
        <time>2023-08-30T11:17:57Z</time>
      </trkpt>
      <trkpt lat="46.52642" lon="5.54496">
        <ele>530.2</ele>
        <time>2023-08-30T11:17:58Z</time>
      </trkpt>
      <trkpt lat="46.52641" lon="5.54495">
        <ele>531</ele>
        <time>2023-08-30T11:17:59Z</time>
      </trkpt>
      <trkpt lat="46.52639" lon="5.54493">
        <ele>531.2</ele>
        <time>2023-08-30T11:18:00Z</time>
      </trkpt>
      <trkpt lat="46.52638" lon="5.54492">
        <ele>531.2</ele>
        <time>2023-08-30T11:18:01Z</time>
      </trkpt>
      <trkpt lat="46.52636" lon="5.5449">
        <ele>531.2</ele>
        <time>2023-08-30T11:18:02Z</time>
      </trkpt>
      <trkpt lat="46.52634" lon="5.54489">
        <ele>532.2</ele>
        <time>2023-08-30T11:18:03Z</time>
      </trkpt>
      <trkpt lat="46.52633" lon="5.54489">
        <ele>532.8</ele>
        <time>2023-08-30T11:18:04Z</time>
      </trkpt>
      <trkpt lat="46.52631" lon="5.54488">
        <ele>532.8</ele>
        <time>2023-08-30T11:18:05Z</time>
      </trkpt>
      <trkpt lat="46.52629" lon="5.54487">
        <ele>532.8</ele>
        <time>2023-08-30T11:18:06Z</time>
      </trkpt>
      <trkpt lat="46.52628" lon="5.54487">
        <ele>533.8</ele>
        <time>2023-08-30T11:18:07Z</time>
      </trkpt>
      <trkpt lat="46.52626" lon="5.54486">
        <ele>534.2</ele>
        <time>2023-08-30T11:18:08Z</time>
      </trkpt>
      <trkpt lat="46.52624" lon="5.54485">
        <ele>534.2</ele>
        <time>2023-08-30T11:18:09Z</time>
      </trkpt>
      <trkpt lat="46.52622" lon="5.54485">
        <ele>534.2</ele>
        <time>2023-08-30T11:18:10Z</time>
      </trkpt>
      <trkpt lat="46.52621" lon="5.54484">
        <ele>534.2</ele>
        <time>2023-08-30T11:18:11Z</time>
      </trkpt>
      <trkpt lat="46.52619" lon="5.54484">
        <ele>535.2</ele>
        <time>2023-08-30T11:18:12Z</time>
      </trkpt>
      <trkpt lat="46.52618" lon="5.54483">
        <ele>535.6</ele>
        <time>2023-08-30T11:18:13Z</time>
      </trkpt>
      <trkpt lat="46.52616" lon="5.54483">
        <ele>535.6</ele>
        <time>2023-08-30T11:18:14Z</time>
      </trkpt>
      <trkpt lat="46.52614" lon="5.54483">
        <ele>535.6</ele>
        <time>2023-08-30T11:18:15Z</time>
      </trkpt>
      <trkpt lat="46.52612" lon="5.54483">
        <ele>536.4</ele>
        <time>2023-08-30T11:18:16Z</time>
      </trkpt>
      <trkpt lat="46.52611" lon="5.54482">
        <ele>536.6</ele>
        <time>2023-08-30T11:18:17Z</time>
      </trkpt>
      <trkpt lat="46.52609" lon="5.54482">
        <ele>536.6</ele>
        <time>2023-08-30T11:18:18Z</time>
      </trkpt>
      <trkpt lat="46.52608" lon="5.54481">
        <ele>536.6</ele>
        <time>2023-08-30T11:18:19Z</time>
      </trkpt>
      <trkpt lat="46.52606" lon="5.5448">
        <ele>537.2</ele>
        <time>2023-08-30T11:18:20Z</time>
      </trkpt>
      <trkpt lat="46.52604" lon="5.5448">
        <ele>537.2</ele>
        <time>2023-08-30T11:18:21Z</time>
      </trkpt>
      <trkpt lat="46.52603" lon="5.5448">
        <ele>537.4</ele>
        <time>2023-08-30T11:18:22Z</time>
      </trkpt>
      <trkpt lat="46.52601" lon="5.5448">
        <ele>537.4</ele>
        <time>2023-08-30T11:18:23Z</time>
      </trkpt>
      <trkpt lat="46.52599" lon="5.54479">
        <ele>537.4</ele>
        <time>2023-08-30T11:18:24Z</time>
      </trkpt>
      <trkpt lat="46.52598" lon="5.54479">
        <ele>538</ele>
        <time>2023-08-30T11:18:25Z</time>
      </trkpt>
      <trkpt lat="46.52596" lon="5.54478">
        <ele>538.2</ele>
        <time>2023-08-30T11:18:26Z</time>
      </trkpt>
      <trkpt lat="46.52594" lon="5.54478">
        <ele>538.2</ele>
        <time>2023-08-30T11:18:27Z</time>
      </trkpt>
      <trkpt lat="46.52592" lon="5.54478">
        <ele>538.2</ele>
        <time>2023-08-30T11:18:28Z</time>
      </trkpt>
      <trkpt lat="46.5259" lon="5.54478">
        <ele>538.4</ele>
        <time>2023-08-30T11:18:29Z</time>
      </trkpt>
      <trkpt lat="46.52588" lon="5.54477">
        <ele>538.6</ele>
        <time>2023-08-30T11:18:30Z</time>
      </trkpt>
      <trkpt lat="46.52586" lon="5.54477">
        <ele>538.6</ele>
        <time>2023-08-30T11:18:31Z</time>
      </trkpt>
      <trkpt lat="46.52585" lon="5.54476">
        <ele>538.6</ele>
        <time>2023-08-30T11:18:32Z</time>
      </trkpt>
      <trkpt lat="46.52583" lon="5.54476">
        <ele>538.6</ele>
        <time>2023-08-30T11:18:33Z</time>
      </trkpt>
      <trkpt lat="46.52581" lon="5.54476">
        <ele>538.6</ele>
        <time>2023-08-30T11:18:34Z</time>
      </trkpt>
      <trkpt lat="46.52579" lon="5.54475">
        <ele>539</ele>
        <time>2023-08-30T11:18:35Z</time>
      </trkpt>
      <trkpt lat="46.52577" lon="5.54474">
        <ele>539</ele>
        <time>2023-08-30T11:18:36Z</time>
      </trkpt>
      <trkpt lat="46.52575" lon="5.54474">
        <ele>539</ele>
        <time>2023-08-30T11:18:37Z</time>
      </trkpt>
      <trkpt lat="46.52573" lon="5.54473">
        <ele>539</ele>
        <time>2023-08-30T11:18:38Z</time>
      </trkpt>
      <trkpt lat="46.52571" lon="5.54472">
        <ele>539.6</ele>
        <time>2023-08-30T11:18:39Z</time>
      </trkpt>
      <trkpt lat="46.5257" lon="5.54471">
        <ele>539.6</ele>
        <time>2023-08-30T11:18:40Z</time>
      </trkpt>
      <trkpt lat="46.52568" lon="5.5447">
        <ele>539.6</ele>
        <time>2023-08-30T11:18:41Z</time>
      </trkpt>
      <trkpt lat="46.52566" lon="5.54469">
        <ele>539.6</ele>
        <time>2023-08-30T11:18:42Z</time>
      </trkpt>
      <trkpt lat="46.52565" lon="5.54469">
        <ele>540.2</ele>
        <time>2023-08-30T11:18:43Z</time>
      </trkpt>
      <trkpt lat="46.52563" lon="5.54467">
        <ele>540.2</ele>
        <time>2023-08-30T11:18:44Z</time>
      </trkpt>
      <trkpt lat="46.52561" lon="5.54466">
        <ele>540.2</ele>
        <time>2023-08-30T11:18:45Z</time>
      </trkpt>
      <trkpt lat="46.52559" lon="5.54465">
        <ele>540.2</ele>
        <time>2023-08-30T11:18:46Z</time>
      </trkpt>
      <trkpt lat="46.52557" lon="5.54464">
        <ele>540.2</ele>
        <time>2023-08-30T11:18:47Z</time>
      </trkpt>
      <trkpt lat="46.52555" lon="5.54463">
        <ele>540.8</ele>
        <time>2023-08-30T11:18:48Z</time>
      </trkpt>
      <trkpt lat="46.52554" lon="5.54462">
        <ele>541</ele>
        <time>2023-08-30T11:18:49Z</time>
      </trkpt>
      <trkpt lat="46.52552" lon="5.54461">
        <ele>541</ele>
        <time>2023-08-30T11:18:50Z</time>
      </trkpt>
      <trkpt lat="46.5255" lon="5.5446">
        <ele>541</ele>
        <time>2023-08-30T11:18:51Z</time>
      </trkpt>
      <trkpt lat="46.52549" lon="5.54458">
        <ele>541</ele>
        <time>2023-08-30T11:18:52Z</time>
      </trkpt>
      <trkpt lat="46.52547" lon="5.54457">
        <ele>541.6</ele>
        <time>2023-08-30T11:18:53Z</time>
      </trkpt>
      <trkpt lat="46.52545" lon="5.54456">
        <ele>541.6</ele>
        <time>2023-08-30T11:18:54Z</time>
      </trkpt>
      <trkpt lat="46.52543" lon="5.54455">
        <ele>541.6</ele>
        <time>2023-08-30T11:18:55Z</time>
      </trkpt>
      <trkpt lat="46.52542" lon="5.54453">
        <ele>541.6</ele>
        <time>2023-08-30T11:18:56Z</time>
      </trkpt>
      <trkpt lat="46.5254" lon="5.54452">
        <ele>541.6</ele>
        <time>2023-08-30T11:18:57Z</time>
      </trkpt>
      <trkpt lat="46.52538" lon="5.54451">
        <ele>542</ele>
        <time>2023-08-30T11:18:58Z</time>
      </trkpt>
      <trkpt lat="46.52537" lon="5.54449">
        <ele>542</ele>
        <time>2023-08-30T11:18:59Z</time>
      </trkpt>
      <trkpt lat="46.52535" lon="5.54448">
        <ele>542</ele>
        <time>2023-08-30T11:19:00Z</time>
      </trkpt>
      <trkpt lat="46.52533" lon="5.54446">
        <ele>542</ele>
        <time>2023-08-30T11:19:01Z</time>
      </trkpt>
      <trkpt lat="46.52532" lon="5.54445">
        <ele>542.4</ele>
        <time>2023-08-30T11:19:02Z</time>
      </trkpt>
      <trkpt lat="46.5253" lon="5.54444">
        <ele>542.4</ele>
        <time>2023-08-30T11:19:03Z</time>
      </trkpt>
      <trkpt lat="46.52529" lon="5.54443">
        <ele>542.4</ele>
        <time>2023-08-30T11:19:04Z</time>
      </trkpt>
      <trkpt lat="46.52527" lon="5.54441">
        <ele>542.4</ele>
        <time>2023-08-30T11:19:05Z</time>
      </trkpt>
      <trkpt lat="46.52526" lon="5.54439">
        <ele>542.6</ele>
        <time>2023-08-30T11:19:06Z</time>
      </trkpt>
      <trkpt lat="46.52524" lon="5.54438">
        <ele>542.6</ele>
        <time>2023-08-30T11:19:07Z</time>
      </trkpt>
      <trkpt lat="46.52522" lon="5.54437">
        <ele>542.6</ele>
        <time>2023-08-30T11:19:08Z</time>
      </trkpt>
      <trkpt lat="46.5252" lon="5.54436">
        <ele>542.6</ele>
        <time>2023-08-30T11:19:09Z</time>
      </trkpt>
      <trkpt lat="46.52519" lon="5.54435">
        <ele>542.8</ele>
        <time>2023-08-30T11:19:10Z</time>
      </trkpt>
      <trkpt lat="46.52517" lon="5.54434">
        <ele>542.8</ele>
        <time>2023-08-30T11:19:11Z</time>
      </trkpt>
      <trkpt lat="46.52515" lon="5.54433">
        <ele>542.8</ele>
        <time>2023-08-30T11:19:12Z</time>
      </trkpt>
      <trkpt lat="46.52514" lon="5.54431">
        <ele>542.8</ele>
        <time>2023-08-30T11:19:13Z</time>
      </trkpt>
      <trkpt lat="46.52512" lon="5.5443">
        <ele>542.8</ele>
        <time>2023-08-30T11:19:14Z</time>
      </trkpt>
      <trkpt lat="46.52511" lon="5.54429">
        <ele>542.8</ele>
        <time>2023-08-30T11:19:15Z</time>
      </trkpt>
      <trkpt lat="46.52509" lon="5.54428">
        <ele>543</ele>
        <time>2023-08-30T11:19:16Z</time>
      </trkpt>
      <trkpt lat="46.52508" lon="5.54427">
        <ele>543</ele>
        <time>2023-08-30T11:19:17Z</time>
      </trkpt>
      <trkpt lat="46.52506" lon="5.54425">
        <ele>543</ele>
        <time>2023-08-30T11:19:18Z</time>
      </trkpt>
      <trkpt lat="46.52504" lon="5.54424">
        <ele>543</ele>
        <time>2023-08-30T11:19:19Z</time>
      </trkpt>
      <trkpt lat="46.52503" lon="5.54423">
        <ele>543</ele>
        <time>2023-08-30T11:19:20Z</time>
      </trkpt>
      <trkpt lat="46.52501" lon="5.54422">
        <ele>543.2</ele>
        <time>2023-08-30T11:19:21Z</time>
      </trkpt>
      <trkpt lat="46.525" lon="5.5442">
        <ele>543.2</ele>
        <time>2023-08-30T11:19:22Z</time>
      </trkpt>
      <trkpt lat="46.52498" lon="5.54419">
        <ele>543.2</ele>
        <time>2023-08-30T11:19:23Z</time>
      </trkpt>
      <trkpt lat="46.52497" lon="5.54417">
        <ele>543.4</ele>
        <time>2023-08-30T11:19:24Z</time>
      </trkpt>
      <trkpt lat="46.52495" lon="5.54416">
        <ele>543.6</ele>
        <time>2023-08-30T11:19:25Z</time>
      </trkpt>
      <trkpt lat="46.52494" lon="5.54414">
        <ele>543.6</ele>
        <time>2023-08-30T11:19:26Z</time>
      </trkpt>
      <trkpt lat="46.52492" lon="5.54413">
        <ele>543.6</ele>
        <time>2023-08-30T11:19:27Z</time>
      </trkpt>
      <trkpt lat="46.52491" lon="5.54412">
        <ele>543.8</ele>
        <time>2023-08-30T11:19:28Z</time>
      </trkpt>
      <trkpt lat="46.52489" lon="5.5441">
        <ele>544</ele>
        <time>2023-08-30T11:19:29Z</time>
      </trkpt>
      <trkpt lat="46.52488" lon="5.54409">
        <ele>544</ele>
        <time>2023-08-30T11:19:30Z</time>
      </trkpt>
      <trkpt lat="46.52487" lon="5.54408">
        <ele>544</ele>
        <time>2023-08-30T11:19:31Z</time>
      </trkpt>
      <trkpt lat="46.52485" lon="5.54406">
        <ele>544</ele>
        <time>2023-08-30T11:19:32Z</time>
      </trkpt>
      <trkpt lat="46.52484" lon="5.54405">
        <ele>544</ele>
        <time>2023-08-30T11:19:33Z</time>
      </trkpt>
      <trkpt lat="46.52482" lon="5.54403">
        <ele>544.4</ele>
        <time>2023-08-30T11:19:34Z</time>
      </trkpt>
      <trkpt lat="46.52481" lon="5.54402">
        <ele>544.4</ele>
        <time>2023-08-30T11:19:35Z</time>
      </trkpt>
      <trkpt lat="46.52479" lon="5.544">
        <ele>544.4</ele>
        <time>2023-08-30T11:19:36Z</time>
      </trkpt>
      <trkpt lat="46.52477" lon="5.54398">
        <ele>544.4</ele>
        <time>2023-08-30T11:19:37Z</time>
      </trkpt>
      <trkpt lat="46.52476" lon="5.54397">
        <ele>544.6</ele>
        <time>2023-08-30T11:19:38Z</time>
      </trkpt>
      <trkpt lat="46.52474" lon="5.54395">
        <ele>544.6</ele>
        <time>2023-08-30T11:19:39Z</time>
      </trkpt>
      <trkpt lat="46.52472" lon="5.54394">
        <ele>544.6</ele>
        <time>2023-08-30T11:19:40Z</time>
      </trkpt>
      <trkpt lat="46.5247" lon="5.54392">
        <ele>544.6</ele>
        <time>2023-08-30T11:19:41Z</time>
      </trkpt>
      <trkpt lat="46.52469" lon="5.5439">
        <ele>544.6</ele>
        <time>2023-08-30T11:19:42Z</time>
      </trkpt>
      <trkpt lat="46.52467" lon="5.54388">
        <ele>544.8</ele>
        <time>2023-08-30T11:19:43Z</time>
      </trkpt>
      <trkpt lat="46.52465" lon="5.54387">
        <ele>544.8</ele>
        <time>2023-08-30T11:19:44Z</time>
      </trkpt>
      <trkpt lat="46.52463" lon="5.54385">
        <ele>544.8</ele>
        <time>2023-08-30T11:19:45Z</time>
      </trkpt>
      <trkpt lat="46.52461" lon="5.54383">
        <ele>545</ele>
        <time>2023-08-30T11:19:46Z</time>
      </trkpt>
      <trkpt lat="46.52459" lon="5.54382">
        <ele>545</ele>
        <time>2023-08-30T11:19:47Z</time>
      </trkpt>
      <trkpt lat="46.52457" lon="5.54381">
        <ele>545</ele>
        <time>2023-08-30T11:19:48Z</time>
      </trkpt>
      <trkpt lat="46.52455" lon="5.5438">
        <ele>545</ele>
        <time>2023-08-30T11:19:49Z</time>
      </trkpt>
      <trkpt lat="46.52453" lon="5.54378">
        <ele>545</ele>
        <time>2023-08-30T11:19:50Z</time>
      </trkpt>
      <trkpt lat="46.52451" lon="5.54376">
        <ele>545</ele>
        <time>2023-08-30T11:19:51Z</time>
      </trkpt>
      <trkpt lat="46.52449" lon="5.54375">
        <ele>545.4</ele>
        <time>2023-08-30T11:19:52Z</time>
      </trkpt>
      <trkpt lat="46.52446" lon="5.54374">
        <ele>545.4</ele>
        <time>2023-08-30T11:19:53Z</time>
      </trkpt>
      <trkpt lat="46.52444" lon="5.54374">
        <ele>545.4</ele>
        <time>2023-08-30T11:19:54Z</time>
      </trkpt>
      <trkpt lat="46.52441" lon="5.54373">
        <ele>545.4</ele>
        <time>2023-08-30T11:19:55Z</time>
      </trkpt>
      <trkpt lat="46.52439" lon="5.54372">
        <ele>545.4</ele>
        <time>2023-08-30T11:19:56Z</time>
      </trkpt>
      <trkpt lat="46.52437" lon="5.54372">
        <ele>545.8</ele>
        <time>2023-08-30T11:19:57Z</time>
      </trkpt>
      <trkpt lat="46.52434" lon="5.54371">
        <ele>545.8</ele>
        <time>2023-08-30T11:19:58Z</time>
      </trkpt>
      <trkpt lat="46.52432" lon="5.5437">
        <ele>545.8</ele>
        <time>2023-08-30T11:19:59Z</time>
      </trkpt>
      <trkpt lat="46.5243" lon="5.54369">
        <ele>546.2</ele>
        <time>2023-08-30T11:20:00Z</time>
      </trkpt>
      <trkpt lat="46.52427" lon="5.54369">
        <ele>546.4</ele>
        <time>2023-08-30T11:20:01Z</time>
      </trkpt>
      <trkpt lat="46.52425" lon="5.54368">
        <ele>546.4</ele>
        <time>2023-08-30T11:20:02Z</time>
      </trkpt>
      <trkpt lat="46.52422" lon="5.54367">
        <ele>546.4</ele>
        <time>2023-08-30T11:20:03Z</time>
      </trkpt>
      <trkpt lat="46.5242" lon="5.54367">
        <ele>547.2</ele>
        <time>2023-08-30T11:20:04Z</time>
      </trkpt>
      <trkpt lat="46.52418" lon="5.54366">
        <ele>547.6</ele>
        <time>2023-08-30T11:20:05Z</time>
      </trkpt>
      <trkpt lat="46.52416" lon="5.54366">
        <ele>547.6</ele>
        <time>2023-08-30T11:20:06Z</time>
      </trkpt>
      <trkpt lat="46.52413" lon="5.54365">
        <ele>547.6</ele>
        <time>2023-08-30T11:20:07Z</time>
      </trkpt>
      <trkpt lat="46.52411" lon="5.54364">
        <ele>547.6</ele>
        <time>2023-08-30T11:20:08Z</time>
      </trkpt>
      <trkpt lat="46.52408" lon="5.54363">
        <ele>548</ele>
        <time>2023-08-30T11:20:09Z</time>
      </trkpt>
      <trkpt lat="46.52406" lon="5.54362">
        <ele>548.4</ele>
        <time>2023-08-30T11:20:10Z</time>
      </trkpt>
      <trkpt lat="46.52403" lon="5.54361">
        <ele>548.4</ele>
        <time>2023-08-30T11:20:11Z</time>
      </trkpt>
      <trkpt lat="46.524" lon="5.5436">
        <ele>548.4</ele>
        <time>2023-08-30T11:20:12Z</time>
      </trkpt>
      <trkpt lat="46.52397" lon="5.54359">
        <ele>548.4</ele>
        <time>2023-08-30T11:20:13Z</time>
      </trkpt>
      <trkpt lat="46.52394" lon="5.54358">
        <ele>549</ele>
        <time>2023-08-30T11:20:14Z</time>
      </trkpt>
      <trkpt lat="46.52391" lon="5.54357">
        <ele>549</ele>
        <time>2023-08-30T11:20:15Z</time>
      </trkpt>
      <trkpt lat="46.52388" lon="5.54356">
        <ele>549</ele>
        <time>2023-08-30T11:20:16Z</time>
      </trkpt>
      <trkpt lat="46.52386" lon="5.54356">
        <ele>549.6</ele>
        <time>2023-08-30T11:20:17Z</time>
      </trkpt>
      <trkpt lat="46.52383" lon="5.54355">
        <ele>549.6</ele>
        <time>2023-08-30T11:20:18Z</time>
      </trkpt>
      <trkpt lat="46.52381" lon="5.54354">
        <ele>549.8</ele>
        <time>2023-08-30T11:20:19Z</time>
      </trkpt>
      <trkpt lat="46.52378" lon="5.54353">
        <ele>549.8</ele>
        <time>2023-08-30T11:20:20Z</time>
      </trkpt>
      <trkpt lat="46.52376" lon="5.54352">
        <ele>549.8</ele>
        <time>2023-08-30T11:20:21Z</time>
      </trkpt>
      <trkpt lat="46.52373" lon="5.54351">
        <ele>550.4</ele>
        <time>2023-08-30T11:20:22Z</time>
      </trkpt>
      <trkpt lat="46.52371" lon="5.5435">
        <ele>550.4</ele>
        <time>2023-08-30T11:20:23Z</time>
      </trkpt>
      <trkpt lat="46.52368" lon="5.54349">
        <ele>550.6</ele>
        <time>2023-08-30T11:20:24Z</time>
      </trkpt>
      <trkpt lat="46.52366" lon="5.54348">
        <ele>550.6</ele>
        <time>2023-08-30T11:20:25Z</time>
      </trkpt>
      <trkpt lat="46.52363" lon="5.54347">
        <ele>550.6</ele>
        <time>2023-08-30T11:20:26Z</time>
      </trkpt>
      <trkpt lat="46.5236" lon="5.54346">
        <ele>551.4</ele>
        <time>2023-08-30T11:20:27Z</time>
      </trkpt>
      <trkpt lat="46.52358" lon="5.54345">
        <ele>551.4</ele>
        <time>2023-08-30T11:20:28Z</time>
      </trkpt>
      <trkpt lat="46.52355" lon="5.54344">
        <ele>551.4</ele>
        <time>2023-08-30T11:20:29Z</time>
      </trkpt>
      <trkpt lat="46.52352" lon="5.54343">
        <ele>551.4</ele>
        <time>2023-08-30T11:20:30Z</time>
      </trkpt>
      <trkpt lat="46.5235" lon="5.54342">
        <ele>551.4</ele>
        <time>2023-08-30T11:20:31Z</time>
      </trkpt>
      <trkpt lat="46.52347" lon="5.5434">
        <ele>551.8</ele>
        <time>2023-08-30T11:20:32Z</time>
      </trkpt>
      <trkpt lat="46.52344" lon="5.54339">
        <ele>551.8</ele>
        <time>2023-08-30T11:20:33Z</time>
      </trkpt>
      <trkpt lat="46.52341" lon="5.54337">
        <ele>551.8</ele>
        <time>2023-08-30T11:20:34Z</time>
      </trkpt>
      <trkpt lat="46.52338" lon="5.54336">
        <ele>552.4</ele>
        <time>2023-08-30T11:20:35Z</time>
      </trkpt>
      <trkpt lat="46.52335" lon="5.54335">
        <ele>552.4</ele>
        <time>2023-08-30T11:20:36Z</time>
      </trkpt>
      <trkpt lat="46.52332" lon="5.54333">
        <ele>552.4</ele>
        <time>2023-08-30T11:20:37Z</time>
      </trkpt>
      <trkpt lat="46.52329" lon="5.54331">
        <ele>552.6</ele>
        <time>2023-08-30T11:20:38Z</time>
      </trkpt>
      <trkpt lat="46.52326" lon="5.54329">
        <ele>552.6</ele>
        <time>2023-08-30T11:20:39Z</time>
      </trkpt>
      <trkpt lat="46.52323" lon="5.54327">
        <ele>552.6</ele>
        <time>2023-08-30T11:20:40Z</time>
      </trkpt>
      <trkpt lat="46.5232" lon="5.54326">
        <ele>552.8</ele>
        <time>2023-08-30T11:20:41Z</time>
      </trkpt>
      <trkpt lat="46.52318" lon="5.54324">
        <ele>553</ele>
        <time>2023-08-30T11:20:42Z</time>
      </trkpt>
      <trkpt lat="46.52315" lon="5.54322">
        <ele>553</ele>
        <time>2023-08-30T11:20:43Z</time>
      </trkpt>
      <trkpt lat="46.52312" lon="5.5432">
        <ele>553</ele>
        <time>2023-08-30T11:20:44Z</time>
      </trkpt>
      <trkpt lat="46.52309" lon="5.54319">
        <ele>553.4</ele>
        <time>2023-08-30T11:20:45Z</time>
      </trkpt>
      <trkpt lat="46.52306" lon="5.54317">
        <ele>553.4</ele>
        <time>2023-08-30T11:20:46Z</time>
      </trkpt>
      <trkpt lat="46.52303" lon="5.54315">
        <ele>553.6</ele>
        <time>2023-08-30T11:20:47Z</time>
      </trkpt>
      <trkpt lat="46.523" lon="5.54313">
        <ele>553.6</ele>
        <time>2023-08-30T11:20:48Z</time>
      </trkpt>
      <trkpt lat="46.52297" lon="5.54311">
        <ele>553.6</ele>
        <time>2023-08-30T11:20:49Z</time>
      </trkpt>
      <trkpt lat="46.52294" lon="5.54309">
        <ele>553.6</ele>
        <time>2023-08-30T11:20:50Z</time>
      </trkpt>
      <trkpt lat="46.52291" lon="5.54308">
        <ele>554.4</ele>
        <time>2023-08-30T11:20:51Z</time>
      </trkpt>
      <trkpt lat="46.52288" lon="5.54307">
        <ele>554.4</ele>
        <time>2023-08-30T11:20:52Z</time>
      </trkpt>
      <trkpt lat="46.52285" lon="5.54306">
        <ele>554.4</ele>
        <time>2023-08-30T11:20:53Z</time>
      </trkpt>
      <trkpt lat="46.52282" lon="5.54304">
        <ele>554.8</ele>
        <time>2023-08-30T11:20:54Z</time>
      </trkpt>
      <trkpt lat="46.5228" lon="5.54303">
        <ele>554.8</ele>
        <time>2023-08-30T11:20:55Z</time>
      </trkpt>
      <trkpt lat="46.52277" lon="5.54302">
        <ele>554.8</ele>
        <time>2023-08-30T11:20:56Z</time>
      </trkpt>
      <trkpt lat="46.52274" lon="5.543">
        <ele>554.8</ele>
        <time>2023-08-30T11:20:57Z</time>
      </trkpt>
      <trkpt lat="46.52271" lon="5.54298">
        <ele>555.4</ele>
        <time>2023-08-30T11:20:58Z</time>
      </trkpt>
      <trkpt lat="46.52268" lon="5.54297">
        <ele>555.4</ele>
        <time>2023-08-30T11:20:59Z</time>
      </trkpt>
      <trkpt lat="46.52266" lon="5.54296">
        <ele>555.4</ele>
        <time>2023-08-30T11:21:00Z</time>
      </trkpt>
      <trkpt lat="46.52263" lon="5.54295">
        <ele>555.4</ele>
        <time>2023-08-30T11:21:01Z</time>
      </trkpt>
      <trkpt lat="46.5226" lon="5.54294">
        <ele>556</ele>
        <time>2023-08-30T11:21:02Z</time>
      </trkpt>
      <trkpt lat="46.52257" lon="5.54293">
        <ele>556.4</ele>
        <time>2023-08-30T11:21:03Z</time>
      </trkpt>
      <trkpt lat="46.52254" lon="5.54292">
        <ele>556.4</ele>
        <time>2023-08-30T11:21:04Z</time>
      </trkpt>
      <trkpt lat="46.52252" lon="5.54291">
        <ele>556.4</ele>
        <time>2023-08-30T11:21:05Z</time>
      </trkpt>
      <trkpt lat="46.52249" lon="5.5429">
        <ele>556.4</ele>
        <time>2023-08-30T11:21:06Z</time>
      </trkpt>
      <trkpt lat="46.52246" lon="5.54288">
        <ele>556.8</ele>
        <time>2023-08-30T11:21:07Z</time>
      </trkpt>
      <trkpt lat="46.52243" lon="5.54288">
        <ele>557</ele>
        <time>2023-08-30T11:21:08Z</time>
      </trkpt>
      <trkpt lat="46.52241" lon="5.54287">
        <ele>557</ele>
        <time>2023-08-30T11:21:09Z</time>
      </trkpt>
      <trkpt lat="46.52238" lon="5.54286">
        <ele>557</ele>
        <time>2023-08-30T11:21:10Z</time>
      </trkpt>
      <trkpt lat="46.52235" lon="5.54284">
        <ele>557.2</ele>
        <time>2023-08-30T11:21:11Z</time>
      </trkpt>
      <trkpt lat="46.52232" lon="5.54283">
        <ele>557.4</ele>
        <time>2023-08-30T11:21:12Z</time>
      </trkpt>
      <trkpt lat="46.52229" lon="5.54282">
        <ele>557.4</ele>
        <time>2023-08-30T11:21:13Z</time>
      </trkpt>
      <trkpt lat="46.52226" lon="5.5428">
        <ele>557.4</ele>
        <time>2023-08-30T11:21:14Z</time>
      </trkpt>
      <trkpt lat="46.52223" lon="5.54279">
        <ele>557.8</ele>
        <time>2023-08-30T11:21:15Z</time>
      </trkpt>
      <trkpt lat="46.5222" lon="5.54277">
        <ele>557.8</ele>
        <time>2023-08-30T11:21:16Z</time>
      </trkpt>
      <trkpt lat="46.52217" lon="5.54275">
        <ele>557.8</ele>
        <time>2023-08-30T11:21:17Z</time>
      </trkpt>
      <trkpt lat="46.52214" lon="5.54273">
        <ele>557.8</ele>
        <time>2023-08-30T11:21:18Z</time>
      </trkpt>
      <trkpt lat="46.52211" lon="5.54271">
        <ele>557.8</ele>
        <time>2023-08-30T11:21:19Z</time>
      </trkpt>
      <trkpt lat="46.52208" lon="5.5427">
        <ele>557.8</ele>
        <time>2023-08-30T11:21:20Z</time>
      </trkpt>
      <trkpt lat="46.52205" lon="5.54268">
        <ele>558</ele>
        <time>2023-08-30T11:21:21Z</time>
      </trkpt>
      <trkpt lat="46.52202" lon="5.54266">
        <ele>558.2</ele>
        <time>2023-08-30T11:21:22Z</time>
      </trkpt>
      <trkpt lat="46.52199" lon="5.54264">
        <ele>558.2</ele>
        <time>2023-08-30T11:21:23Z</time>
      </trkpt>
      <trkpt lat="46.52195" lon="5.54262">
        <ele>558.2</ele>
        <time>2023-08-30T11:21:24Z</time>
      </trkpt>
      <trkpt lat="46.52192" lon="5.5426">
        <ele>558.2</ele>
        <time>2023-08-30T11:21:25Z</time>
      </trkpt>
      <trkpt lat="46.52189" lon="5.54257">
        <ele>558.4</ele>
        <time>2023-08-30T11:21:26Z</time>
      </trkpt>
      <trkpt lat="46.52186" lon="5.54255">
        <ele>558.4</ele>
        <time>2023-08-30T11:21:27Z</time>
      </trkpt>
      <trkpt lat="46.52182" lon="5.54252">
        <ele>558.4</ele>
        <time>2023-08-30T11:21:28Z</time>
      </trkpt>
      <trkpt lat="46.52179" lon="5.54249">
        <ele>558.4</ele>
        <time>2023-08-30T11:21:29Z</time>
      </trkpt>
      <trkpt lat="46.52176" lon="5.54246">
        <ele>558.4</ele>
        <time>2023-08-30T11:21:30Z</time>
      </trkpt>
      <trkpt lat="46.52173" lon="5.54243">
        <ele>558.6</ele>
        <time>2023-08-30T11:21:31Z</time>
      </trkpt>
      <trkpt lat="46.5217" lon="5.5424">
        <ele>558.6</ele>
        <time>2023-08-30T11:21:32Z</time>
      </trkpt>
      <trkpt lat="46.52167" lon="5.54237">
        <ele>558.6</ele>
        <time>2023-08-30T11:21:33Z</time>
      </trkpt>
      <trkpt lat="46.52164" lon="5.54234">
        <ele>558.6</ele>
        <time>2023-08-30T11:21:34Z</time>
      </trkpt>
      <trkpt lat="46.52161" lon="5.54232">
        <ele>558.4</ele>
        <time>2023-08-30T11:21:35Z</time>
      </trkpt>
      <trkpt lat="46.52158" lon="5.5423">
        <ele>558.4</ele>
        <time>2023-08-30T11:21:36Z</time>
      </trkpt>
      <trkpt lat="46.52155" lon="5.54228">
        <ele>558.4</ele>
        <time>2023-08-30T11:21:37Z</time>
      </trkpt>
      <trkpt lat="46.52152" lon="5.54226">
        <ele>558.4</ele>
        <time>2023-08-30T11:21:38Z</time>
      </trkpt>
      <trkpt lat="46.52148" lon="5.54225">
        <ele>559</ele>
        <time>2023-08-30T11:21:39Z</time>
      </trkpt>
      <trkpt lat="46.52145" lon="5.54224">
        <ele>559.2</ele>
        <time>2023-08-30T11:21:40Z</time>
      </trkpt>
      <trkpt lat="46.52141" lon="5.54223">
        <ele>559.2</ele>
        <time>2023-08-30T11:21:41Z</time>
      </trkpt>
      <trkpt lat="46.52138" lon="5.54222">
        <ele>559.2</ele>
        <time>2023-08-30T11:21:42Z</time>
      </trkpt>
      <trkpt lat="46.52134" lon="5.5422">
        <ele>559.6</ele>
        <time>2023-08-30T11:21:43Z</time>
      </trkpt>
      <trkpt lat="46.52131" lon="5.54219">
        <ele>559.4</ele>
        <time>2023-08-30T11:21:44Z</time>
      </trkpt>
      <trkpt lat="46.52127" lon="5.54217">
        <ele>559.4</ele>
        <time>2023-08-30T11:21:45Z</time>
      </trkpt>
      <trkpt lat="46.52124" lon="5.54216">
        <ele>559.4</ele>
        <time>2023-08-30T11:21:46Z</time>
      </trkpt>
      <trkpt lat="46.5212" lon="5.54214">
        <ele>559.8</ele>
        <time>2023-08-30T11:21:47Z</time>
      </trkpt>
      <trkpt lat="46.52116" lon="5.54213">
        <ele>560</ele>
        <time>2023-08-30T11:21:48Z</time>
      </trkpt>
      <trkpt lat="46.52112" lon="5.54211">
        <ele>560</ele>
        <time>2023-08-30T11:21:49Z</time>
      </trkpt>
      <trkpt lat="46.52109" lon="5.5421">
        <ele>560</ele>
        <time>2023-08-30T11:21:50Z</time>
      </trkpt>
      <trkpt lat="46.52105" lon="5.54208">
        <ele>560.4</ele>
        <time>2023-08-30T11:21:51Z</time>
      </trkpt>
      <trkpt lat="46.52102" lon="5.54207">
        <ele>560.4</ele>
        <time>2023-08-30T11:21:52Z</time>
      </trkpt>
      <trkpt lat="46.52099" lon="5.54205">
        <ele>560.6</ele>
        <time>2023-08-30T11:21:53Z</time>
      </trkpt>
      <trkpt lat="46.52095" lon="5.54203">
        <ele>560.6</ele>
        <time>2023-08-30T11:21:54Z</time>
      </trkpt>
      <trkpt lat="46.52092" lon="5.54202">
        <ele>560.6</ele>
        <time>2023-08-30T11:21:55Z</time>
      </trkpt>
      <trkpt lat="46.52089" lon="5.54201">
        <ele>561</ele>
        <time>2023-08-30T11:21:56Z</time>
      </trkpt>
      <trkpt lat="46.52086" lon="5.54199">
        <ele>561.2</ele>
        <time>2023-08-30T11:21:57Z</time>
      </trkpt>
      <trkpt lat="46.52082" lon="5.54198">
        <ele>561.2</ele>
        <time>2023-08-30T11:21:58Z</time>
      </trkpt>
      <trkpt lat="46.52079" lon="5.54196">
        <ele>561.2</ele>
        <time>2023-08-30T11:21:59Z</time>
      </trkpt>
      <trkpt lat="46.52076" lon="5.54194">
        <ele>561.8</ele>
        <time>2023-08-30T11:22:00Z</time>
      </trkpt>
      <trkpt lat="46.52073" lon="5.54193">
        <ele>562</ele>
        <time>2023-08-30T11:22:01Z</time>
      </trkpt>
      <trkpt lat="46.5207" lon="5.54191">
        <ele>562</ele>
        <time>2023-08-30T11:22:02Z</time>
      </trkpt>
      <trkpt lat="46.52067" lon="5.54189">
        <ele>562</ele>
        <time>2023-08-30T11:22:03Z</time>
      </trkpt>
      <trkpt lat="46.52064" lon="5.54188">
        <ele>562</ele>
        <time>2023-08-30T11:22:04Z</time>
      </trkpt>
      <trkpt lat="46.52061" lon="5.54187">
        <ele>562</ele>
        <time>2023-08-30T11:22:05Z</time>
      </trkpt>
      <trkpt lat="46.52058" lon="5.54185">
        <ele>562</ele>
        <time>2023-08-30T11:22:06Z</time>
      </trkpt>
      <trkpt lat="46.52055" lon="5.54184">
        <ele>562.4</ele>
        <time>2023-08-30T11:22:07Z</time>
      </trkpt>
      <trkpt lat="46.52052" lon="5.54182">
        <ele>562.4</ele>
        <time>2023-08-30T11:22:08Z</time>
      </trkpt>
      <trkpt lat="46.52049" lon="5.54181">
        <ele>562.4</ele>
        <time>2023-08-30T11:22:09Z</time>
      </trkpt>
      <trkpt lat="46.52046" lon="5.54179">
        <ele>562.8</ele>
        <time>2023-08-30T11:22:10Z</time>
      </trkpt>
      <trkpt lat="46.52043" lon="5.54178">
        <ele>562.6</ele>
        <time>2023-08-30T11:22:11Z</time>
      </trkpt>
      <trkpt lat="46.5204" lon="5.54176">
        <ele>562.6</ele>
        <time>2023-08-30T11:22:12Z</time>
      </trkpt>
      <trkpt lat="46.52037" lon="5.54174">
        <ele>562.6</ele>
        <time>2023-08-30T11:22:13Z</time>
      </trkpt>
      <trkpt lat="46.52034" lon="5.54172">
        <ele>562.8</ele>
        <time>2023-08-30T11:22:14Z</time>
      </trkpt>
      <trkpt lat="46.52031" lon="5.5417">
        <ele>562.8</ele>
        <time>2023-08-30T11:22:15Z</time>
      </trkpt>
      <trkpt lat="46.52028" lon="5.54168">
        <ele>562.8</ele>
        <time>2023-08-30T11:22:16Z</time>
      </trkpt>
      <trkpt lat="46.52024" lon="5.54166">
        <ele>562.8</ele>
        <time>2023-08-30T11:22:17Z</time>
      </trkpt>
      <trkpt lat="46.52021" lon="5.54164">
        <ele>562.8</ele>
        <time>2023-08-30T11:22:18Z</time>
      </trkpt>
      <trkpt lat="46.52018" lon="5.54162">
        <ele>562.8</ele>
        <time>2023-08-30T11:22:19Z</time>
      </trkpt>
      <trkpt lat="46.52014" lon="5.5416">
        <ele>563.2</ele>
        <time>2023-08-30T11:22:20Z</time>
      </trkpt>
      <trkpt lat="46.52011" lon="5.54158">
        <ele>563.2</ele>
        <time>2023-08-30T11:22:21Z</time>
      </trkpt>
      <trkpt lat="46.52008" lon="5.54156">
        <ele>563.2</ele>
        <time>2023-08-30T11:22:22Z</time>
      </trkpt>
      <trkpt lat="46.52005" lon="5.54154">
        <ele>563.2</ele>
        <time>2023-08-30T11:22:23Z</time>
      </trkpt>
      <trkpt lat="46.52001" lon="5.54153">
        <ele>563.6</ele>
        <time>2023-08-30T11:22:24Z</time>
      </trkpt>
      <trkpt lat="46.51998" lon="5.54151">
        <ele>563.6</ele>
        <time>2023-08-30T11:22:25Z</time>
      </trkpt>
      <trkpt lat="46.51995" lon="5.54149">
        <ele>563.6</ele>
        <time>2023-08-30T11:22:26Z</time>
      </trkpt>
      <trkpt lat="46.51991" lon="5.54148">
        <ele>563.6</ele>
        <time>2023-08-30T11:22:27Z</time>
      </trkpt>
      <trkpt lat="46.51988" lon="5.54146">
        <ele>563.6</ele>
        <time>2023-08-30T11:22:28Z</time>
      </trkpt>
      <trkpt lat="46.51985" lon="5.54145">
        <ele>563.6</ele>
        <time>2023-08-30T11:22:29Z</time>
      </trkpt>
      <trkpt lat="46.51982" lon="5.54143">
        <ele>563.6</ele>
        <time>2023-08-30T11:22:30Z</time>
      </trkpt>
      <trkpt lat="46.51979" lon="5.54142">
        <ele>563.6</ele>
        <time>2023-08-30T11:22:31Z</time>
      </trkpt>
      <trkpt lat="46.51976" lon="5.54141">
        <ele>563.6</ele>
        <time>2023-08-30T11:22:32Z</time>
      </trkpt>
      <trkpt lat="46.51973" lon="5.54139">
        <ele>564</ele>
        <time>2023-08-30T11:22:33Z</time>
      </trkpt>
      <trkpt lat="46.5197" lon="5.54137">
        <ele>564</ele>
        <time>2023-08-30T11:22:34Z</time>
      </trkpt>
      <trkpt lat="46.51967" lon="5.54135">
        <ele>564</ele>
        <time>2023-08-30T11:22:35Z</time>
      </trkpt>
      <trkpt lat="46.51964" lon="5.54134">
        <ele>564</ele>
        <time>2023-08-30T11:22:36Z</time>
      </trkpt>
      <trkpt lat="46.51962" lon="5.54132">
        <ele>564.4</ele>
        <time>2023-08-30T11:22:37Z</time>
      </trkpt>
      <trkpt lat="46.51959" lon="5.54131">
        <ele>564.4</ele>
        <time>2023-08-30T11:22:38Z</time>
      </trkpt>
      <trkpt lat="46.51956" lon="5.54129">
        <ele>564.4</ele>
        <time>2023-08-30T11:22:39Z</time>
      </trkpt>
      <trkpt lat="46.51954" lon="5.54127">
        <ele>564.4</ele>
        <time>2023-08-30T11:22:40Z</time>
      </trkpt>
      <trkpt lat="46.51951" lon="5.54126">
        <ele>564.8</ele>
        <time>2023-08-30T11:22:41Z</time>
      </trkpt>
      <trkpt lat="46.51948" lon="5.54125">
        <ele>564.8</ele>
        <time>2023-08-30T11:22:42Z</time>
      </trkpt>
      <trkpt lat="46.51946" lon="5.54124">
        <ele>564.8</ele>
        <time>2023-08-30T11:22:43Z</time>
      </trkpt>
      <trkpt lat="46.51943" lon="5.54123">
        <ele>564.8</ele>
        <time>2023-08-30T11:22:44Z</time>
      </trkpt>
      <trkpt lat="46.5194" lon="5.54121">
        <ele>564.8</ele>
        <time>2023-08-30T11:22:45Z</time>
      </trkpt>
      <trkpt lat="46.51937" lon="5.54119">
        <ele>565.2</ele>
        <time>2023-08-30T11:22:46Z</time>
      </trkpt>
      <trkpt lat="46.51935" lon="5.54117">
        <ele>565.2</ele>
        <time>2023-08-30T11:22:47Z</time>
      </trkpt>
      <trkpt lat="46.51932" lon="5.54115">
        <ele>565.2</ele>
        <time>2023-08-30T11:22:48Z</time>
      </trkpt>
      <trkpt lat="46.5193" lon="5.54113">
        <ele>565.2</ele>
        <time>2023-08-30T11:22:49Z</time>
      </trkpt>
      <trkpt lat="46.51927" lon="5.54111">
        <ele>565.2</ele>
        <time>2023-08-30T11:22:50Z</time>
      </trkpt>
      <trkpt lat="46.51924" lon="5.54109">
        <ele>565.6</ele>
        <time>2023-08-30T11:22:51Z</time>
      </trkpt>
      <trkpt lat="46.51922" lon="5.54107">
        <ele>565.4</ele>
        <time>2023-08-30T11:22:52Z</time>
      </trkpt>
      <trkpt lat="46.51919" lon="5.54105">
        <ele>565.4</ele>
        <time>2023-08-30T11:22:53Z</time>
      </trkpt>
      <trkpt lat="46.51917" lon="5.54103">
        <ele>565.4</ele>
        <time>2023-08-30T11:22:54Z</time>
      </trkpt>
      <trkpt lat="46.51914" lon="5.54101">
        <ele>565.6</ele>
        <time>2023-08-30T11:22:55Z</time>
      </trkpt>
      <trkpt lat="46.51912" lon="5.54099">
        <ele>565.8</ele>
        <time>2023-08-30T11:22:56Z</time>
      </trkpt>
      <trkpt lat="46.5191" lon="5.54096">
        <ele>565.8</ele>
        <time>2023-08-30T11:22:57Z</time>
      </trkpt>
      <trkpt lat="46.51908" lon="5.54094">
        <ele>565.8</ele>
        <time>2023-08-30T11:22:58Z</time>
      </trkpt>
      <trkpt lat="46.51906" lon="5.54092">
        <ele>566</ele>
        <time>2023-08-30T11:22:59Z</time>
      </trkpt>
      <trkpt lat="46.51904" lon="5.5409">
        <ele>566</ele>
        <time>2023-08-30T11:23:00Z</time>
      </trkpt>
      <trkpt lat="46.51902" lon="5.54087">
        <ele>565.8</ele>
        <time>2023-08-30T11:23:01Z</time>
      </trkpt>
      <trkpt lat="46.519" lon="5.54085">
        <ele>565.8</ele>
        <time>2023-08-30T11:23:02Z</time>
      </trkpt>
      <trkpt lat="46.51898" lon="5.54082">
        <ele>565.8</ele>
        <time>2023-08-30T11:23:03Z</time>
      </trkpt>
      <trkpt lat="46.51896" lon="5.54079">
        <ele>565.8</ele>
        <time>2023-08-30T11:23:04Z</time>
      </trkpt>
      <trkpt lat="46.51893" lon="5.54077">
        <ele>566</ele>
        <time>2023-08-30T11:23:05Z</time>
      </trkpt>
      <trkpt lat="46.51891" lon="5.54075">
        <ele>566</ele>
        <time>2023-08-30T11:23:06Z</time>
      </trkpt>
      <trkpt lat="46.51889" lon="5.54072">
        <ele>566</ele>
        <time>2023-08-30T11:23:07Z</time>
      </trkpt>
      <trkpt lat="46.51887" lon="5.5407">
        <ele>566.2</ele>
        <time>2023-08-30T11:23:08Z</time>
      </trkpt>
      <trkpt lat="46.51884" lon="5.54069">
        <ele>566.2</ele>
        <time>2023-08-30T11:23:09Z</time>
      </trkpt>
      <trkpt lat="46.51882" lon="5.54067">
        <ele>566.2</ele>
        <time>2023-08-30T11:23:10Z</time>
      </trkpt>
      <trkpt lat="46.5188" lon="5.54065">
        <ele>566.2</ele>
        <time>2023-08-30T11:23:11Z</time>
      </trkpt>
      <trkpt lat="46.51877" lon="5.54064">
        <ele>566</ele>
        <time>2023-08-30T11:23:12Z</time>
      </trkpt>
      <trkpt lat="46.51875" lon="5.54062">
        <ele>566</ele>
        <time>2023-08-30T11:23:13Z</time>
      </trkpt>
      <trkpt lat="46.51873" lon="5.54061">
        <ele>566</ele>
        <time>2023-08-30T11:23:14Z</time>
      </trkpt>
      <trkpt lat="46.51871" lon="5.5406">
        <ele>566</ele>
        <time>2023-08-30T11:23:15Z</time>
      </trkpt>
      <trkpt lat="46.51869" lon="5.54059">
        <ele>566</ele>
        <time>2023-08-30T11:23:16Z</time>
      </trkpt>
      <trkpt lat="46.51869" lon="5.54059">
        <ele>565.6</ele>
        <time>2023-08-30T11:23:17Z</time>
      </trkpt>
      <trkpt lat="46.51868" lon="5.54059">
        <ele>565.6</ele>
        <time>2023-08-30T11:23:18Z</time>
      </trkpt>
      <trkpt lat="46.51869" lon="5.54057">
        <ele>565.8</ele>
        <time>2023-08-30T11:23:25Z</time>
      </trkpt>
      <trkpt lat="46.5187" lon="5.54056">
        <ele>566.6</ele>
        <time>2023-08-30T11:23:26Z</time>
      </trkpt>
      <trkpt lat="46.5187" lon="5.54055">
        <ele>566.6</ele>
        <time>2023-08-30T11:23:27Z</time>
      </trkpt>
      <trkpt lat="46.5187" lon="5.54053">
        <ele>566.6</ele>
        <time>2023-08-30T11:23:28Z</time>
      </trkpt>
      <trkpt lat="46.5187" lon="5.54052">
        <ele>566.6</ele>
        <time>2023-08-30T11:23:29Z</time>
      </trkpt>
      <trkpt lat="46.5187" lon="5.54051">
        <ele>567.4</ele>
        <time>2023-08-30T11:23:30Z</time>
      </trkpt>
      <trkpt lat="46.5187" lon="5.5405">
        <ele>567.4</ele>
        <time>2023-08-30T11:23:31Z</time>
      </trkpt>
      <trkpt lat="46.51869" lon="5.54043">
        <ele>568.4</ele>
        <time>2023-08-30T11:23:36Z</time>
      </trkpt>
      <trkpt lat="46.51869" lon="5.54041">
        <ele>568.4</ele>
        <time>2023-08-30T11:23:37Z</time>
      </trkpt>
      <trkpt lat="46.51868" lon="5.54039">
        <ele>568.4</ele>
        <time>2023-08-30T11:23:38Z</time>
      </trkpt>
      <trkpt lat="46.51868" lon="5.54037">
        <ele>569.2</ele>
        <time>2023-08-30T11:23:39Z</time>
      </trkpt>
      <trkpt lat="46.51868" lon="5.54034">
        <ele>569.4</ele>
        <time>2023-08-30T11:23:40Z</time>
      </trkpt>
      <trkpt lat="46.51868" lon="5.54031">
        <ele>569.4</ele>
        <time>2023-08-30T11:23:41Z</time>
      </trkpt>
      <trkpt lat="46.51868" lon="5.54028">
        <ele>569.4</ele>
        <time>2023-08-30T11:23:42Z</time>
      </trkpt>
      <trkpt lat="46.51868" lon="5.54024">
        <ele>570.4</ele>
        <time>2023-08-30T11:23:43Z</time>
      </trkpt>
      <trkpt lat="46.51867" lon="5.5402">
        <ele>570.4</ele>
        <time>2023-08-30T11:23:44Z</time>
      </trkpt>
      <trkpt lat="46.51867" lon="5.54016">
        <ele>570.8</ele>
        <time>2023-08-30T11:23:45Z</time>
      </trkpt>
      <trkpt lat="46.51866" lon="5.54013">
        <ele>570.8</ele>
        <time>2023-08-30T11:23:46Z</time>
      </trkpt>
      <trkpt lat="46.51866" lon="5.54009">
        <ele>570.8</ele>
        <time>2023-08-30T11:23:47Z</time>
      </trkpt>
      <trkpt lat="46.51865" lon="5.54006">
        <ele>571.6</ele>
        <time>2023-08-30T11:23:48Z</time>
      </trkpt>
      <trkpt lat="46.51865" lon="5.54002">
        <ele>571.6</ele>
        <time>2023-08-30T11:23:49Z</time>
      </trkpt>
      <trkpt lat="46.51864" lon="5.53998">
        <ele>572</ele>
        <time>2023-08-30T11:23:50Z</time>
      </trkpt>
      <trkpt lat="46.51864" lon="5.53994">
        <ele>572</ele>
        <time>2023-08-30T11:23:51Z</time>
      </trkpt>
      <trkpt lat="46.51863" lon="5.5399">
        <ele>572</ele>
        <time>2023-08-30T11:23:52Z</time>
      </trkpt>
      <trkpt lat="46.51862" lon="5.53986">
        <ele>572</ele>
        <time>2023-08-30T11:23:53Z</time>
      </trkpt>
      <trkpt lat="46.51862" lon="5.53982">
        <ele>573.4</ele>
        <time>2023-08-30T11:23:54Z</time>
      </trkpt>
      <trkpt lat="46.51861" lon="5.53978">
        <ele>573.4</ele>
        <time>2023-08-30T11:23:55Z</time>
      </trkpt>
      <trkpt lat="46.5186" lon="5.53974">
        <ele>573.4</ele>
        <time>2023-08-30T11:23:56Z</time>
      </trkpt>
      <trkpt lat="46.5186" lon="5.5397">
        <ele>574.2</ele>
        <time>2023-08-30T11:23:57Z</time>
      </trkpt>
      <trkpt lat="46.51859" lon="5.53965">
        <ele>574.2</ele>
        <time>2023-08-30T11:23:58Z</time>
      </trkpt>
      <trkpt lat="46.51859" lon="5.53961">
        <ele>574.6</ele>
        <time>2023-08-30T11:23:59Z</time>
      </trkpt>
      <trkpt lat="46.5186" lon="5.53956">
        <ele>574.6</ele>
        <time>2023-08-30T11:24:00Z</time>
      </trkpt>
      <trkpt lat="46.51859" lon="5.53952">
        <ele>574.6</ele>
        <time>2023-08-30T11:24:01Z</time>
      </trkpt>
      <trkpt lat="46.51859" lon="5.53948">
        <ele>575.4</ele>
        <time>2023-08-30T11:24:02Z</time>
      </trkpt>
      <trkpt lat="46.51859" lon="5.53944">
        <ele>575.6</ele>
        <time>2023-08-30T11:24:03Z</time>
      </trkpt>
      <trkpt lat="46.51859" lon="5.5394">
        <ele>575.6</ele>
        <time>2023-08-30T11:24:04Z</time>
      </trkpt>
      <trkpt lat="46.51859" lon="5.53936">
        <ele>575.6</ele>
        <time>2023-08-30T11:24:05Z</time>
      </trkpt>
      <trkpt lat="46.51859" lon="5.53932">
        <ele>576.6</ele>
        <time>2023-08-30T11:24:06Z</time>
      </trkpt>
      <trkpt lat="46.51859" lon="5.53928">
        <ele>576.6</ele>
        <time>2023-08-30T11:24:07Z</time>
      </trkpt>
      <trkpt lat="46.51859" lon="5.53923">
        <ele>576.6</ele>
        <time>2023-08-30T11:24:08Z</time>
      </trkpt>
      <trkpt lat="46.51859" lon="5.53918">
        <ele>576.6</ele>
        <time>2023-08-30T11:24:09Z</time>
      </trkpt>
      <trkpt lat="46.51859" lon="5.53913">
        <ele>577.4</ele>
        <time>2023-08-30T11:24:10Z</time>
      </trkpt>
      <trkpt lat="46.51859" lon="5.53909">
        <ele>577.6</ele>
        <time>2023-08-30T11:24:11Z</time>
      </trkpt>
      <trkpt lat="46.51859" lon="5.53904">
        <ele>577.6</ele>
        <time>2023-08-30T11:24:12Z</time>
      </trkpt>
      <trkpt lat="46.51859" lon="5.53899">
        <ele>577.6</ele>
        <time>2023-08-30T11:24:13Z</time>
      </trkpt>
      <trkpt lat="46.51859" lon="5.53892">
        <ele>578.4</ele>
        <time>2023-08-30T11:24:14Z</time>
      </trkpt>
      <trkpt lat="46.51859" lon="5.53889">
        <ele>578.4</ele>
        <time>2023-08-30T11:24:15Z</time>
      </trkpt>
      <trkpt lat="46.51859" lon="5.53884">
        <ele>578.6</ele>
        <time>2023-08-30T11:24:16Z</time>
      </trkpt>
      <trkpt lat="46.51859" lon="5.53878">
        <ele>578.6</ele>
        <time>2023-08-30T11:24:17Z</time>
      </trkpt>
      <trkpt lat="46.51859" lon="5.53873">
        <ele>578.6</ele>
        <time>2023-08-30T11:24:18Z</time>
      </trkpt>
      <trkpt lat="46.51859" lon="5.53868">
        <ele>579.2</ele>
        <time>2023-08-30T11:24:19Z</time>
      </trkpt>
      <trkpt lat="46.51859" lon="5.53863">
        <ele>578.6</ele>
        <time>2023-08-30T11:24:20Z</time>
      </trkpt>
      <trkpt lat="46.5186" lon="5.53858">
        <ele>578.6</ele>
        <time>2023-08-30T11:24:21Z</time>
      </trkpt>
      <trkpt lat="46.51861" lon="5.53852">
        <ele>578.6</ele>
        <time>2023-08-30T11:24:22Z</time>
      </trkpt>
      <trkpt lat="46.51862" lon="5.53846">
        <ele>578.6</ele>
        <time>2023-08-30T11:24:23Z</time>
      </trkpt>
      <trkpt lat="46.51862" lon="5.5384">
        <ele>578.4</ele>
        <time>2023-08-30T11:24:24Z</time>
      </trkpt>
      <trkpt lat="46.51864" lon="5.53833">
        <ele>578.4</ele>
        <time>2023-08-30T11:24:25Z</time>
      </trkpt>
      <trkpt lat="46.51865" lon="5.53826">
        <ele>578.4</ele>
        <time>2023-08-30T11:24:26Z</time>
      </trkpt>
      <trkpt lat="46.51866" lon="5.53819">
        <ele>578.4</ele>
        <time>2023-08-30T11:24:27Z</time>
      </trkpt>
      <trkpt lat="46.51868" lon="5.53812">
        <ele>578.4</ele>
        <time>2023-08-30T11:24:28Z</time>
      </trkpt>
      <trkpt lat="46.5187" lon="5.53804">
        <ele>577.8</ele>
        <time>2023-08-30T11:24:29Z</time>
      </trkpt>
      <trkpt lat="46.51872" lon="5.53795">
        <ele>577.4</ele>
        <time>2023-08-30T11:24:30Z</time>
      </trkpt>
      <trkpt lat="46.51874" lon="5.53786">
        <ele>577.4</ele>
        <time>2023-08-30T11:24:31Z</time>
      </trkpt>
      <trkpt lat="46.51876" lon="5.53777">
        <ele>577.4</ele>
        <time>2023-08-30T11:24:32Z</time>
      </trkpt>
      <trkpt lat="46.51878" lon="5.53766">
        <ele>576.4</ele>
        <time>2023-08-30T11:24:33Z</time>
      </trkpt>
      <trkpt lat="46.5188" lon="5.53756">
        <ele>576.4</ele>
        <time>2023-08-30T11:24:34Z</time>
      </trkpt>
      <trkpt lat="46.5188" lon="5.53745">
        <ele>576</ele>
        <time>2023-08-30T11:24:35Z</time>
      </trkpt>
      <trkpt lat="46.51879" lon="5.53732">
        <ele>576</ele>
        <time>2023-08-30T11:24:36Z</time>
      </trkpt>
      <trkpt lat="46.51877" lon="5.5372">
        <ele>575</ele>
        <time>2023-08-30T11:24:37Z</time>
      </trkpt>
      <trkpt lat="46.51874" lon="5.53708">
        <ele>575</ele>
        <time>2023-08-30T11:24:38Z</time>
      </trkpt>
      <trkpt lat="46.51869" lon="5.53696">
        <ele>574.2</ele>
        <time>2023-08-30T11:24:39Z</time>
      </trkpt>
      <trkpt lat="46.51863" lon="5.53685">
        <ele>574.2</ele>
        <time>2023-08-30T11:24:40Z</time>
      </trkpt>
      <trkpt lat="46.51855" lon="5.53675">
        <ele>574.2</ele>
        <time>2023-08-30T11:24:41Z</time>
      </trkpt>
      <trkpt lat="46.51847" lon="5.53667">
        <ele>573.2</ele>
        <time>2023-08-30T11:24:42Z</time>
      </trkpt>
      <trkpt lat="46.51837" lon="5.53662">
        <ele>572.6</ele>
        <time>2023-08-30T11:24:43Z</time>
      </trkpt>
      <trkpt lat="46.51827" lon="5.53657">
        <ele>572.6</ele>
        <time>2023-08-30T11:24:44Z</time>
      </trkpt>
      <trkpt lat="46.51811" lon="5.5365">
        <ele>572.6</ele>
        <time>2023-08-30T11:24:45Z</time>
      </trkpt>
      <trkpt lat="46.51805" lon="5.53648">
        <ele>571.6</ele>
        <time>2023-08-30T11:24:46Z</time>
      </trkpt>
      <trkpt lat="46.51794" lon="5.53644">
        <ele>571.6</ele>
        <time>2023-08-30T11:24:47Z</time>
      </trkpt>
      <trkpt lat="46.51783" lon="5.53641">
        <ele>570.4</ele>
        <time>2023-08-30T11:24:48Z</time>
      </trkpt>
      <trkpt lat="46.51771" lon="5.53639">
        <ele>570.4</ele>
        <time>2023-08-30T11:24:49Z</time>
      </trkpt>
      <trkpt lat="46.5176" lon="5.53637">
        <ele>569.4</ele>
        <time>2023-08-30T11:24:50Z</time>
      </trkpt>
      <trkpt lat="46.51749" lon="5.53635">
        <ele>568.6</ele>
        <time>2023-08-30T11:24:51Z</time>
      </trkpt>
      <trkpt lat="46.51738" lon="5.53633">
        <ele>568.6</ele>
        <time>2023-08-30T11:24:52Z</time>
      </trkpt>
      <trkpt lat="46.51727" lon="5.53632">
        <ele>568.6</ele>
        <time>2023-08-30T11:24:53Z</time>
      </trkpt>
      <trkpt lat="46.51716" lon="5.5363">
        <ele>568.6</ele>
        <time>2023-08-30T11:24:54Z</time>
      </trkpt>
      <trkpt lat="46.51705" lon="5.53629">
        <ele>567.6</ele>
        <time>2023-08-30T11:24:55Z</time>
      </trkpt>
      <trkpt lat="46.51694" lon="5.53628">
        <ele>566.6</ele>
        <time>2023-08-30T11:24:56Z</time>
      </trkpt>
      <trkpt lat="46.51682" lon="5.53626">
        <ele>566.6</ele>
        <time>2023-08-30T11:24:57Z</time>
      </trkpt>
      <trkpt lat="46.51671" lon="5.53624">
        <ele>566.6</ele>
        <time>2023-08-30T11:24:58Z</time>
      </trkpt>
      <trkpt lat="46.5166" lon="5.53623">
        <ele>565.6</ele>
        <time>2023-08-30T11:24:59Z</time>
      </trkpt>
      <trkpt lat="46.51648" lon="5.53622">
        <ele>563.4</ele>
        <time>2023-08-30T11:25:00Z</time>
      </trkpt>
      <trkpt lat="46.51637" lon="5.5362">
        <ele>563.4</ele>
        <time>2023-08-30T11:25:01Z</time>
      </trkpt>
      <trkpt lat="46.5162" lon="5.53618">
        <ele>563.4</ele>
        <time>2023-08-30T11:25:02Z</time>
      </trkpt>
      <trkpt lat="46.51614" lon="5.53617">
        <ele>562.4</ele>
        <time>2023-08-30T11:25:03Z</time>
      </trkpt>
      <trkpt lat="46.51602" lon="5.53616">
        <ele>561.4</ele>
        <time>2023-08-30T11:25:04Z</time>
      </trkpt>
      <trkpt lat="46.51591" lon="5.53614">
        <ele>561.4</ele>
        <time>2023-08-30T11:25:05Z</time>
      </trkpt>
      <trkpt lat="46.5158" lon="5.53613">
        <ele>561.4</ele>
        <time>2023-08-30T11:25:06Z</time>
      </trkpt>
      <trkpt lat="46.51568" lon="5.53611">
        <ele>561.4</ele>
        <time>2023-08-30T11:25:07Z</time>
      </trkpt>
      <trkpt lat="46.51557" lon="5.5361">
        <ele>560.4</ele>
        <time>2023-08-30T11:25:08Z</time>
      </trkpt>
      <trkpt lat="46.51546" lon="5.53608">
        <ele>559</ele>
        <time>2023-08-30T11:25:09Z</time>
      </trkpt>
      <trkpt lat="46.51534" lon="5.53607">
        <ele>559</ele>
        <time>2023-08-30T11:25:10Z</time>
      </trkpt>
      <trkpt lat="46.51523" lon="5.53606">
        <ele>559</ele>
        <time>2023-08-30T11:25:11Z</time>
      </trkpt>
      <trkpt lat="46.51512" lon="5.53605">
        <ele>559</ele>
        <time>2023-08-30T11:25:12Z</time>
      </trkpt>
      <trkpt lat="46.515" lon="5.53605">
        <ele>558</ele>
        <time>2023-08-30T11:25:13Z</time>
      </trkpt>
      <trkpt lat="46.51488" lon="5.53605">
        <ele>558</ele>
        <time>2023-08-30T11:25:14Z</time>
      </trkpt>
      <trkpt lat="46.51477" lon="5.53605">
        <ele>556.6</ele>
        <time>2023-08-30T11:25:15Z</time>
      </trkpt>
      <trkpt lat="46.51465" lon="5.53605">
        <ele>556.6</ele>
        <time>2023-08-30T11:25:16Z</time>
      </trkpt>
      <trkpt lat="46.51453" lon="5.53605">
        <ele>556.6</ele>
        <time>2023-08-30T11:25:17Z</time>
      </trkpt>
      <trkpt lat="46.51441" lon="5.53605">
        <ele>556.6</ele>
        <time>2023-08-30T11:25:18Z</time>
      </trkpt>
      <trkpt lat="46.5143" lon="5.53606">
        <ele>554.6</ele>
        <time>2023-08-30T11:25:19Z</time>
      </trkpt>
      <trkpt lat="46.51418" lon="5.53607">
        <ele>554.6</ele>
        <time>2023-08-30T11:25:20Z</time>
      </trkpt>
      <trkpt lat="46.51407" lon="5.53608">
        <ele>554.6</ele>
        <time>2023-08-30T11:25:21Z</time>
      </trkpt>
      <trkpt lat="46.51396" lon="5.53609">
        <ele>553.6</ele>
        <time>2023-08-30T11:25:22Z</time>
      </trkpt>
      <trkpt lat="46.51385" lon="5.5361">
        <ele>553</ele>
        <time>2023-08-30T11:25:23Z</time>
      </trkpt>
      <trkpt lat="46.51374" lon="5.53613">
        <ele>553</ele>
        <time>2023-08-30T11:25:24Z</time>
      </trkpt>
      <trkpt lat="46.51363" lon="5.53615">
        <ele>553</ele>
        <time>2023-08-30T11:25:25Z</time>
      </trkpt>
      <trkpt lat="46.51352" lon="5.53618">
        <ele>552</ele>
        <time>2023-08-30T11:25:26Z</time>
      </trkpt>
      <trkpt lat="46.51341" lon="5.53621">
        <ele>550.8</ele>
        <time>2023-08-30T11:25:27Z</time>
      </trkpt>
      <trkpt lat="46.51331" lon="5.53624">
        <ele>550.8</ele>
        <time>2023-08-30T11:25:28Z</time>
      </trkpt>
      <trkpt lat="46.5132" lon="5.53628">
        <ele>550.8</ele>
        <time>2023-08-30T11:25:29Z</time>
      </trkpt>
      <trkpt lat="46.5131" lon="5.53631">
        <ele>549.8</ele>
        <time>2023-08-30T11:25:30Z</time>
      </trkpt>
      <trkpt lat="46.51299" lon="5.53634">
        <ele>549.8</ele>
        <time>2023-08-30T11:25:31Z</time>
      </trkpt>
      <trkpt lat="46.51289" lon="5.53637">
        <ele>549.2</ele>
        <time>2023-08-30T11:25:32Z</time>
      </trkpt>
      <trkpt lat="46.51278" lon="5.53639">
        <ele>549.2</ele>
        <time>2023-08-30T11:25:33Z</time>
      </trkpt>
      <trkpt lat="46.51268" lon="5.53641">
        <ele>549.2</ele>
        <time>2023-08-30T11:25:34Z</time>
      </trkpt>
      <trkpt lat="46.51257" lon="5.53643">
        <ele>548.2</ele>
        <time>2023-08-30T11:25:35Z</time>
      </trkpt>
      <trkpt lat="46.51246" lon="5.53644">
        <ele>547</ele>
        <time>2023-08-30T11:25:36Z</time>
      </trkpt>
      <trkpt lat="46.51235" lon="5.53645">
        <ele>547</ele>
        <time>2023-08-30T11:25:37Z</time>
      </trkpt>
      <trkpt lat="46.51224" lon="5.53645">
        <ele>547</ele>
        <time>2023-08-30T11:25:38Z</time>
      </trkpt>
      <trkpt lat="46.51214" lon="5.53644">
        <ele>546</ele>
        <time>2023-08-30T11:25:39Z</time>
      </trkpt>
      <trkpt lat="46.51203" lon="5.53643">
        <ele>544.8</ele>
        <time>2023-08-30T11:25:40Z</time>
      </trkpt>
      <trkpt lat="46.51192" lon="5.53643">
        <ele>544.8</ele>
        <time>2023-08-30T11:25:41Z</time>
      </trkpt>
      <trkpt lat="46.51182" lon="5.53643">
        <ele>544.8</ele>
        <time>2023-08-30T11:25:42Z</time>
      </trkpt>
      <trkpt lat="46.51172" lon="5.53644">
        <ele>544.8</ele>
        <time>2023-08-30T11:25:43Z</time>
      </trkpt>
      <trkpt lat="46.51161" lon="5.53644">
        <ele>543.8</ele>
        <time>2023-08-30T11:25:44Z</time>
      </trkpt>
      <trkpt lat="46.51151" lon="5.53644">
        <ele>542.2</ele>
        <time>2023-08-30T11:25:45Z</time>
      </trkpt>
      <trkpt lat="46.5114" lon="5.53643">
        <ele>542.2</ele>
        <time>2023-08-30T11:25:46Z</time>
      </trkpt>
      <trkpt lat="46.5113" lon="5.53641">
        <ele>542.2</ele>
        <time>2023-08-30T11:25:47Z</time>
      </trkpt>
      <trkpt lat="46.5112" lon="5.53639">
        <ele>541.2</ele>
        <time>2023-08-30T11:25:48Z</time>
      </trkpt>
      <trkpt lat="46.5111" lon="5.53637">
        <ele>540</ele>
        <time>2023-08-30T11:25:49Z</time>
      </trkpt>
      <trkpt lat="46.51099" lon="5.53634">
        <ele>540</ele>
        <time>2023-08-30T11:25:50Z</time>
      </trkpt>
      <trkpt lat="46.51089" lon="5.53632">
        <ele>540</ele>
        <time>2023-08-30T11:25:51Z</time>
      </trkpt>
      <trkpt lat="46.51079" lon="5.53629">
        <ele>540</ele>
        <time>2023-08-30T11:25:52Z</time>
      </trkpt>
      <trkpt lat="46.51069" lon="5.53627">
        <ele>540</ele>
        <time>2023-08-30T11:25:53Z</time>
      </trkpt>
      <trkpt lat="46.51059" lon="5.53624">
        <ele>539</ele>
        <time>2023-08-30T11:25:54Z</time>
      </trkpt>
      <trkpt lat="46.51049" lon="5.53621">
        <ele>537.8</ele>
        <time>2023-08-30T11:25:55Z</time>
      </trkpt>
      <trkpt lat="46.5104" lon="5.53618">
        <ele>537.8</ele>
        <time>2023-08-30T11:25:56Z</time>
      </trkpt>
      <trkpt lat="46.5103" lon="5.53616">
        <ele>537.8</ele>
        <time>2023-08-30T11:25:57Z</time>
      </trkpt>
      <trkpt lat="46.51021" lon="5.53613">
        <ele>536.8</ele>
        <time>2023-08-30T11:25:58Z</time>
      </trkpt>
      <trkpt lat="46.51011" lon="5.5361">
        <ele>536</ele>
        <time>2023-08-30T11:25:59Z</time>
      </trkpt>
      <trkpt lat="46.51001" lon="5.53606">
        <ele>536</ele>
        <time>2023-08-30T11:26:00Z</time>
      </trkpt>
      <trkpt lat="46.50991" lon="5.53602">
        <ele>536</ele>
        <time>2023-08-30T11:26:01Z</time>
      </trkpt>
      <trkpt lat="46.50981" lon="5.53597">
        <ele>535</ele>
        <time>2023-08-30T11:26:02Z</time>
      </trkpt>
      <trkpt lat="46.50971" lon="5.53592">
        <ele>535</ele>
        <time>2023-08-30T11:26:03Z</time>
      </trkpt>
      <trkpt lat="46.50961" lon="5.53587">
        <ele>533.4</ele>
        <time>2023-08-30T11:26:04Z</time>
      </trkpt>
      <trkpt lat="46.50951" lon="5.53582">
        <ele>533.4</ele>
        <time>2023-08-30T11:26:05Z</time>
      </trkpt>
      <trkpt lat="46.50941" lon="5.53576">
        <ele>533.4</ele>
        <time>2023-08-30T11:26:06Z</time>
      </trkpt>
      <trkpt lat="46.50931" lon="5.5357">
        <ele>532.4</ele>
        <time>2023-08-30T11:26:07Z</time>
      </trkpt>
      <trkpt lat="46.50921" lon="5.53564">
        <ele>530.2</ele>
        <time>2023-08-30T11:26:08Z</time>
      </trkpt>
      <trkpt lat="46.50911" lon="5.53557">
        <ele>530.2</ele>
        <time>2023-08-30T11:26:09Z</time>
      </trkpt>
      <trkpt lat="46.509" lon="5.5355">
        <ele>530.2</ele>
        <time>2023-08-30T11:26:10Z</time>
      </trkpt>
      <trkpt lat="46.50891" lon="5.53542">
        <ele>530.2</ele>
        <time>2023-08-30T11:26:11Z</time>
      </trkpt>
      <trkpt lat="46.50883" lon="5.53534">
        <ele>529.2</ele>
        <time>2023-08-30T11:26:12Z</time>
      </trkpt>
      <trkpt lat="46.50877" lon="5.53524">
        <ele>526.6</ele>
        <time>2023-08-30T11:26:13Z</time>
      </trkpt>
      <trkpt lat="46.50871" lon="5.53513">
        <ele>526.6</ele>
        <time>2023-08-30T11:26:14Z</time>
      </trkpt>
      <trkpt lat="46.50865" lon="5.53505">
        <ele>526.6</ele>
        <time>2023-08-30T11:26:15Z</time>
      </trkpt>
      <trkpt lat="46.50857" lon="5.53499">
        <ele>525.6</ele>
        <time>2023-08-30T11:26:16Z</time>
      </trkpt>
      <trkpt lat="46.50843" lon="5.53494">
        <ele>523.2</ele>
        <time>2023-08-30T11:26:17Z</time>
      </trkpt>
      <trkpt lat="46.50839" lon="5.53493">
        <ele>523.2</ele>
        <time>2023-08-30T11:26:18Z</time>
      </trkpt>
      <trkpt lat="46.5083" lon="5.53493">
        <ele>523.2</ele>
        <time>2023-08-30T11:26:19Z</time>
      </trkpt>
      <trkpt lat="46.50821" lon="5.53493">
        <ele>523.2</ele>
        <time>2023-08-30T11:26:20Z</time>
      </trkpt>
      <trkpt lat="46.50813" lon="5.53493">
        <ele>522.2</ele>
        <time>2023-08-30T11:26:21Z</time>
      </trkpt>
      <trkpt lat="46.50805" lon="5.53494">
        <ele>522.2</ele>
        <time>2023-08-30T11:26:22Z</time>
      </trkpt>
      <trkpt lat="46.50797" lon="5.53495">
        <ele>520.8</ele>
        <time>2023-08-30T11:26:23Z</time>
      </trkpt>
      <trkpt lat="46.50789" lon="5.53496">
        <ele>520.8</ele>
        <time>2023-08-30T11:26:24Z</time>
      </trkpt>
      <trkpt lat="46.50782" lon="5.53497">
        <ele>520.8</ele>
        <time>2023-08-30T11:26:25Z</time>
      </trkpt>
      <trkpt lat="46.50774" lon="5.53497">
        <ele>519.8</ele>
        <time>2023-08-30T11:26:26Z</time>
      </trkpt>
      <trkpt lat="46.50767" lon="5.53497">
        <ele>518.6</ele>
        <time>2023-08-30T11:26:27Z</time>
      </trkpt>
      <trkpt lat="46.50759" lon="5.53497">
        <ele>518.6</ele>
        <time>2023-08-30T11:26:28Z</time>
      </trkpt>
      <trkpt lat="46.50752" lon="5.53497">
        <ele>518.6</ele>
        <time>2023-08-30T11:26:29Z</time>
      </trkpt>
      <trkpt lat="46.50745" lon="5.53498">
        <ele>517.6</ele>
        <time>2023-08-30T11:26:30Z</time>
      </trkpt>
      <trkpt lat="46.50738" lon="5.53498">
        <ele>517</ele>
        <time>2023-08-30T11:26:31Z</time>
      </trkpt>
      <trkpt lat="46.50731" lon="5.53498">
        <ele>517</ele>
        <time>2023-08-30T11:26:32Z</time>
      </trkpt>
      <trkpt lat="46.50724" lon="5.53499">
        <ele>517</ele>
        <time>2023-08-30T11:26:33Z</time>
      </trkpt>
      <trkpt lat="46.50717" lon="5.53499">
        <ele>517</ele>
        <time>2023-08-30T11:26:34Z</time>
      </trkpt>
      <trkpt lat="46.5071" lon="5.53499">
        <ele>516</ele>
        <time>2023-08-30T11:26:35Z</time>
      </trkpt>
      <trkpt lat="46.50704" lon="5.535">
        <ele>515.2</ele>
        <time>2023-08-30T11:26:36Z</time>
      </trkpt>
      <trkpt lat="46.50697" lon="5.535">
        <ele>515.2</ele>
        <time>2023-08-30T11:26:37Z</time>
      </trkpt>
      <trkpt lat="46.5069" lon="5.535">
        <ele>515.2</ele>
        <time>2023-08-30T11:26:38Z</time>
      </trkpt>
      <trkpt lat="46.50683" lon="5.53501">
        <ele>514.2</ele>
        <time>2023-08-30T11:26:39Z</time>
      </trkpt>
      <trkpt lat="46.50673" lon="5.53502">
        <ele>513.8</ele>
        <time>2023-08-30T11:26:40Z</time>
      </trkpt>
      <trkpt lat="46.5067" lon="5.53503">
        <ele>513.8</ele>
        <time>2023-08-30T11:26:41Z</time>
      </trkpt>
      <trkpt lat="46.50663" lon="5.53504">
        <ele>513.8</ele>
        <time>2023-08-30T11:26:42Z</time>
      </trkpt>
      <trkpt lat="46.50656" lon="5.53505">
        <ele>512.8</ele>
        <time>2023-08-30T11:26:43Z</time>
      </trkpt>
      <trkpt lat="46.50649" lon="5.53505">
        <ele>512.2</ele>
        <time>2023-08-30T11:26:44Z</time>
      </trkpt>
      <trkpt lat="46.50642" lon="5.53506">
        <ele>512.2</ele>
        <time>2023-08-30T11:26:45Z</time>
      </trkpt>
      <trkpt lat="46.50636" lon="5.53507">
        <ele>512.2</ele>
        <time>2023-08-30T11:26:46Z</time>
      </trkpt>
      <trkpt lat="46.50629" lon="5.53508">
        <ele>511.2</ele>
        <time>2023-08-30T11:26:47Z</time>
      </trkpt>
      <trkpt lat="46.50622" lon="5.5351">
        <ele>511.2</ele>
        <time>2023-08-30T11:26:48Z</time>
      </trkpt>
      <trkpt lat="46.50615" lon="5.53512">
        <ele>510.8</ele>
        <time>2023-08-30T11:26:49Z</time>
      </trkpt>
      <trkpt lat="46.50608" lon="5.53513">
        <ele>510.8</ele>
        <time>2023-08-30T11:26:50Z</time>
      </trkpt>
      <trkpt lat="46.50601" lon="5.53515">
        <ele>510.8</ele>
        <time>2023-08-30T11:26:51Z</time>
      </trkpt>
      <trkpt lat="46.50594" lon="5.53517">
        <ele>510.8</ele>
        <time>2023-08-30T11:26:52Z</time>
      </trkpt>
      <trkpt lat="46.50587" lon="5.53519">
        <ele>510.2</ele>
        <time>2023-08-30T11:26:53Z</time>
      </trkpt>
      <trkpt lat="46.5058" lon="5.53521">
        <ele>510.2</ele>
        <time>2023-08-30T11:26:54Z</time>
      </trkpt>
      <trkpt lat="46.50573" lon="5.53523">
        <ele>510.2</ele>
        <time>2023-08-30T11:26:55Z</time>
      </trkpt>
      <trkpt lat="46.50566" lon="5.53524">
        <ele>509.2</ele>
        <time>2023-08-30T11:26:56Z</time>
      </trkpt>
      <trkpt lat="46.5056" lon="5.53526">
        <ele>508.4</ele>
        <time>2023-08-30T11:26:57Z</time>
      </trkpt>
      <trkpt lat="46.50553" lon="5.53527">
        <ele>508.4</ele>
        <time>2023-08-30T11:26:58Z</time>
      </trkpt>
      <trkpt lat="46.50546" lon="5.53529">
        <ele>508.4</ele>
        <time>2023-08-30T11:26:59Z</time>
      </trkpt>
      <trkpt lat="46.50539" lon="5.5353">
        <ele>508.4</ele>
        <time>2023-08-30T11:27:00Z</time>
      </trkpt>
      <trkpt lat="46.50533" lon="5.53532">
        <ele>508.2</ele>
        <time>2023-08-30T11:27:01Z</time>
      </trkpt>
      <trkpt lat="46.50526" lon="5.53533">
        <ele>508</ele>
        <time>2023-08-30T11:27:02Z</time>
      </trkpt>
      <trkpt lat="46.50519" lon="5.53535">
        <ele>508</ele>
        <time>2023-08-30T11:27:03Z</time>
      </trkpt>
      <trkpt lat="46.50512" lon="5.53536">
        <ele>508</ele>
        <time>2023-08-30T11:27:04Z</time>
      </trkpt>
      <trkpt lat="46.50505" lon="5.53537">
        <ele>508</ele>
        <time>2023-08-30T11:27:05Z</time>
      </trkpt>
      <trkpt lat="46.50499" lon="5.53537">
        <ele>507.6</ele>
        <time>2023-08-30T11:27:06Z</time>
      </trkpt>
      <trkpt lat="46.50492" lon="5.53537">
        <ele>507.4</ele>
        <time>2023-08-30T11:27:07Z</time>
      </trkpt>
      <trkpt lat="46.50485" lon="5.53537">
        <ele>507.4</ele>
        <time>2023-08-30T11:27:08Z</time>
      </trkpt>
      <trkpt lat="46.50478" lon="5.53536">
        <ele>507.4</ele>
        <time>2023-08-30T11:27:09Z</time>
      </trkpt>
      <trkpt lat="46.50471" lon="5.53534">
        <ele>506.8</ele>
        <time>2023-08-30T11:27:10Z</time>
      </trkpt>
      <trkpt lat="46.50464" lon="5.53532">
        <ele>506.8</ele>
        <time>2023-08-30T11:27:11Z</time>
      </trkpt>
      <trkpt lat="46.50457" lon="5.5353">
        <ele>506.8</ele>
        <time>2023-08-30T11:27:12Z</time>
      </trkpt>
      <trkpt lat="46.5045" lon="5.53527">
        <ele>506.8</ele>
        <time>2023-08-30T11:27:13Z</time>
      </trkpt>
      <trkpt lat="46.50443" lon="5.53524">
        <ele>506.8</ele>
        <time>2023-08-30T11:27:14Z</time>
      </trkpt>
      <trkpt lat="46.50436" lon="5.53521">
        <ele>506.2</ele>
        <time>2023-08-30T11:27:15Z</time>
      </trkpt>
      <trkpt lat="46.5043" lon="5.53518">
        <ele>506.2</ele>
        <time>2023-08-30T11:27:16Z</time>
      </trkpt>
      <trkpt lat="46.50423" lon="5.53515">
        <ele>506.2</ele>
        <time>2023-08-30T11:27:17Z</time>
      </trkpt>
      <trkpt lat="46.50417" lon="5.53514">
        <ele>506.2</ele>
        <time>2023-08-30T11:27:18Z</time>
      </trkpt>
      <trkpt lat="46.50411" lon="5.53512">
        <ele>505.8</ele>
        <time>2023-08-30T11:27:19Z</time>
      </trkpt>
      <trkpt lat="46.50405" lon="5.53511">
        <ele>505.8</ele>
        <time>2023-08-30T11:27:20Z</time>
      </trkpt>
      <trkpt lat="46.50399" lon="5.5351">
        <ele>505.8</ele>
        <time>2023-08-30T11:27:21Z</time>
      </trkpt>
      <trkpt lat="46.50394" lon="5.53509">
        <ele>505.8</ele>
        <time>2023-08-30T11:27:22Z</time>
      </trkpt>
      <trkpt lat="46.50386" lon="5.53507">
        <ele>505.8</ele>
        <time>2023-08-30T11:27:23Z</time>
      </trkpt>
      <trkpt lat="46.50383" lon="5.53507">
        <ele>505.4</ele>
        <time>2023-08-30T11:27:24Z</time>
      </trkpt>
      <trkpt lat="46.50378" lon="5.53506">
        <ele>505</ele>
        <time>2023-08-30T11:27:25Z</time>
      </trkpt>
      <trkpt lat="46.50372" lon="5.53505">
        <ele>505</ele>
        <time>2023-08-30T11:27:26Z</time>
      </trkpt>
      <trkpt lat="46.50367" lon="5.53504">
        <ele>505</ele>
        <time>2023-08-30T11:27:27Z</time>
      </trkpt>
      <trkpt lat="46.50361" lon="5.53503">
        <ele>504.6</ele>
        <time>2023-08-30T11:27:28Z</time>
      </trkpt>
      <trkpt lat="46.50355" lon="5.53503">
        <ele>504.8</ele>
        <time>2023-08-30T11:27:29Z</time>
      </trkpt>
      <trkpt lat="46.5035" lon="5.53503">
        <ele>504.8</ele>
        <time>2023-08-30T11:27:30Z</time>
      </trkpt>
      <trkpt lat="46.50344" lon="5.53503">
        <ele>504.8</ele>
        <time>2023-08-30T11:27:31Z</time>
      </trkpt>
      <trkpt lat="46.50338" lon="5.53502">
        <ele>504.4</ele>
        <time>2023-08-30T11:27:32Z</time>
      </trkpt>
      <trkpt lat="46.50333" lon="5.53502">
        <ele>504.2</ele>
        <time>2023-08-30T11:27:33Z</time>
      </trkpt>
      <trkpt lat="46.50327" lon="5.53502">
        <ele>504.2</ele>
        <time>2023-08-30T11:27:34Z</time>
      </trkpt>
      <trkpt lat="46.50321" lon="5.53501">
        <ele>504.2</ele>
        <time>2023-08-30T11:27:35Z</time>
      </trkpt>
      <trkpt lat="46.50316" lon="5.53501">
        <ele>504.2</ele>
        <time>2023-08-30T11:27:36Z</time>
      </trkpt>
      <trkpt lat="46.5031" lon="5.53501">
        <ele>503.6</ele>
        <time>2023-08-30T11:27:37Z</time>
      </trkpt>
      <trkpt lat="46.50304" lon="5.53501">
        <ele>503.4</ele>
        <time>2023-08-30T11:27:38Z</time>
      </trkpt>
      <trkpt lat="46.50299" lon="5.53501">
        <ele>503.4</ele>
        <time>2023-08-30T11:27:39Z</time>
      </trkpt>
      <trkpt lat="46.50293" lon="5.535">
        <ele>503.4</ele>
        <time>2023-08-30T11:27:40Z</time>
      </trkpt>
      <trkpt lat="46.50287" lon="5.535">
        <ele>503</ele>
        <time>2023-08-30T11:27:41Z</time>
      </trkpt>
      <trkpt lat="46.50282" lon="5.535">
        <ele>503</ele>
        <time>2023-08-30T11:27:42Z</time>
      </trkpt>
      <trkpt lat="46.50277" lon="5.535">
        <ele>502.8</ele>
        <time>2023-08-30T11:27:43Z</time>
      </trkpt>
      <trkpt lat="46.50271" lon="5.535">
        <ele>502.8</ele>
        <time>2023-08-30T11:27:44Z</time>
      </trkpt>
      <trkpt lat="46.50266" lon="5.53499">
        <ele>502.8</ele>
        <time>2023-08-30T11:27:45Z</time>
      </trkpt>
      <trkpt lat="46.50261" lon="5.53499">
        <ele>502.8</ele>
        <time>2023-08-30T11:27:46Z</time>
      </trkpt>
      <trkpt lat="46.50256" lon="5.53498">
        <ele>502</ele>
        <time>2023-08-30T11:27:47Z</time>
      </trkpt>
      <trkpt lat="46.50251" lon="5.53497">
        <ele>501.8</ele>
        <time>2023-08-30T11:27:48Z</time>
      </trkpt>
      <trkpt lat="46.50246" lon="5.53496">
        <ele>501.8</ele>
        <time>2023-08-30T11:27:49Z</time>
      </trkpt>
      <trkpt lat="46.50241" lon="5.53494">
        <ele>501.8</ele>
        <time>2023-08-30T11:27:50Z</time>
      </trkpt>
      <trkpt lat="46.50236" lon="5.53493">
        <ele>501.2</ele>
        <time>2023-08-30T11:27:51Z</time>
      </trkpt>
      <trkpt lat="46.50232" lon="5.53493">
        <ele>501</ele>
        <time>2023-08-30T11:27:52Z</time>
      </trkpt>
      <trkpt lat="46.50227" lon="5.53492">
        <ele>501</ele>
        <time>2023-08-30T11:27:53Z</time>
      </trkpt>
      <trkpt lat="46.50222" lon="5.53491">
        <ele>501</ele>
        <time>2023-08-30T11:27:54Z</time>
      </trkpt>
      <trkpt lat="46.50217" lon="5.5349">
        <ele>501</ele>
        <time>2023-08-30T11:27:55Z</time>
      </trkpt>
      <trkpt lat="46.50213" lon="5.53489">
        <ele>500.2</ele>
        <time>2023-08-30T11:27:56Z</time>
      </trkpt>
      <trkpt lat="46.50209" lon="5.53488">
        <ele>500.2</ele>
        <time>2023-08-30T11:27:57Z</time>
      </trkpt>
      <trkpt lat="46.50204" lon="5.53487">
        <ele>500.2</ele>
        <time>2023-08-30T11:27:58Z</time>
      </trkpt>
      <trkpt lat="46.502" lon="5.53485">
        <ele>500.2</ele>
        <time>2023-08-30T11:27:59Z</time>
      </trkpt>
      <trkpt lat="46.50196" lon="5.53484">
        <ele>499.6</ele>
        <time>2023-08-30T11:28:00Z</time>
      </trkpt>
      <trkpt lat="46.50192" lon="5.53482">
        <ele>499.4</ele>
        <time>2023-08-30T11:28:01Z</time>
      </trkpt>
      <trkpt lat="46.50188" lon="5.5348">
        <ele>499.4</ele>
        <time>2023-08-30T11:28:02Z</time>
      </trkpt>
      <trkpt lat="46.50184" lon="5.53478">
        <ele>499.4</ele>
        <time>2023-08-30T11:28:03Z</time>
      </trkpt>
      <trkpt lat="46.50178" lon="5.53475">
        <ele>499.2</ele>
        <time>2023-08-30T11:28:04Z</time>
      </trkpt>
      <trkpt lat="46.50176" lon="5.53474">
        <ele>499</ele>
        <time>2023-08-30T11:28:05Z</time>
      </trkpt>
      <trkpt lat="46.50173" lon="5.53473">
        <ele>499</ele>
        <time>2023-08-30T11:28:06Z</time>
      </trkpt>
      <trkpt lat="46.50169" lon="5.53471">
        <ele>499</ele>
        <time>2023-08-30T11:28:07Z</time>
      </trkpt>
      <trkpt lat="46.50166" lon="5.53469">
        <ele>499</ele>
        <time>2023-08-30T11:28:08Z</time>
      </trkpt>
      <trkpt lat="46.50162" lon="5.53467">
        <ele>498.8</ele>
        <time>2023-08-30T11:28:09Z</time>
      </trkpt>
      <trkpt lat="46.50159" lon="5.53466">
        <ele>498.8</ele>
        <time>2023-08-30T11:28:10Z</time>
      </trkpt>
      <trkpt lat="46.50156" lon="5.53465">
        <ele>498.8</ele>
        <time>2023-08-30T11:28:11Z</time>
      </trkpt>
      <trkpt lat="46.50153" lon="5.53463">
        <ele>498.8</ele>
        <time>2023-08-30T11:28:12Z</time>
      </trkpt>
      <trkpt lat="46.5015" lon="5.53461">
        <ele>498.6</ele>
        <time>2023-08-30T11:28:13Z</time>
      </trkpt>
      <trkpt lat="46.50148" lon="5.53459">
        <ele>498.4</ele>
        <time>2023-08-30T11:28:14Z</time>
      </trkpt>
      <trkpt lat="46.50145" lon="5.53458">
        <ele>498.4</ele>
        <time>2023-08-30T11:28:15Z</time>
      </trkpt>
      <trkpt lat="46.50142" lon="5.53456">
        <ele>498.4</ele>
        <time>2023-08-30T11:28:16Z</time>
      </trkpt>
      <trkpt lat="46.50139" lon="5.53455">
        <ele>498.4</ele>
        <time>2023-08-30T11:28:17Z</time>
      </trkpt>
      <trkpt lat="46.50137" lon="5.53454">
        <ele>498.4</ele>
        <time>2023-08-30T11:28:18Z</time>
      </trkpt>
      <trkpt lat="46.50134" lon="5.53453">
        <ele>498.4</ele>
        <time>2023-08-30T11:28:19Z</time>
      </trkpt>
      <trkpt lat="46.50131" lon="5.53451">
        <ele>498.4</ele>
        <time>2023-08-30T11:28:20Z</time>
      </trkpt>
      <trkpt lat="46.50128" lon="5.53449">
        <ele>498.2</ele>
        <time>2023-08-30T11:28:21Z</time>
      </trkpt>
      <trkpt lat="46.50125" lon="5.53448">
        <ele>498.2</ele>
        <time>2023-08-30T11:28:22Z</time>
      </trkpt>
      <trkpt lat="46.50122" lon="5.53446">
        <ele>498.4</ele>
        <time>2023-08-30T11:28:23Z</time>
      </trkpt>
      <trkpt lat="46.5012" lon="5.53445">
        <ele>498.4</ele>
        <time>2023-08-30T11:28:24Z</time>
      </trkpt>
      <trkpt lat="46.50117" lon="5.53443">
        <ele>498.4</ele>
        <time>2023-08-30T11:28:25Z</time>
      </trkpt>
      <trkpt lat="46.50114" lon="5.53441">
        <ele>498.2</ele>
        <time>2023-08-30T11:28:26Z</time>
      </trkpt>
      <trkpt lat="46.50111" lon="5.53439">
        <ele>498.2</ele>
        <time>2023-08-30T11:28:27Z</time>
      </trkpt>
      <trkpt lat="46.50108" lon="5.53438">
        <ele>498.2</ele>
        <time>2023-08-30T11:28:28Z</time>
      </trkpt>
      <trkpt lat="46.50105" lon="5.53436">
        <ele>498.2</ele>
        <time>2023-08-30T11:28:29Z</time>
      </trkpt>
      <trkpt lat="46.50103" lon="5.53435">
        <ele>498.2</ele>
        <time>2023-08-30T11:28:30Z</time>
      </trkpt>
      <trkpt lat="46.501" lon="5.53433">
        <ele>498</ele>
        <time>2023-08-30T11:28:31Z</time>
      </trkpt>
      <trkpt lat="46.50097" lon="5.53431">
        <ele>498</ele>
        <time>2023-08-30T11:28:32Z</time>
      </trkpt>
      <trkpt lat="46.50094" lon="5.53429">
        <ele>498</ele>
        <time>2023-08-30T11:28:33Z</time>
      </trkpt>
      <trkpt lat="46.50091" lon="5.53427">
        <ele>498</ele>
        <time>2023-08-30T11:28:34Z</time>
      </trkpt>
      <trkpt lat="46.50088" lon="5.53426">
        <ele>498</ele>
        <time>2023-08-30T11:28:35Z</time>
      </trkpt>
      <trkpt lat="46.50085" lon="5.53425">
        <ele>498.2</ele>
        <time>2023-08-30T11:28:36Z</time>
      </trkpt>
      <trkpt lat="46.50083" lon="5.53423">
        <ele>498.2</ele>
        <time>2023-08-30T11:28:37Z</time>
      </trkpt>
      <trkpt lat="46.5008" lon="5.53422">
        <ele>498</ele>
        <time>2023-08-30T11:28:38Z</time>
      </trkpt>
      <trkpt lat="46.50077" lon="5.5342">
        <ele>498</ele>
        <time>2023-08-30T11:28:39Z</time>
      </trkpt>
      <trkpt lat="46.50074" lon="5.53418">
        <ele>498.4</ele>
        <time>2023-08-30T11:28:40Z</time>
      </trkpt>
      <trkpt lat="46.50071" lon="5.53416">
        <ele>498.4</ele>
        <time>2023-08-30T11:28:41Z</time>
      </trkpt>
      <trkpt lat="46.50068" lon="5.53415">
        <ele>498.4</ele>
        <time>2023-08-30T11:28:42Z</time>
      </trkpt>
      <trkpt lat="46.50065" lon="5.53413">
        <ele>498.4</ele>
        <time>2023-08-30T11:28:43Z</time>
      </trkpt>
      <trkpt lat="46.50062" lon="5.53412">
        <ele>498.4</ele>
        <time>2023-08-30T11:28:44Z</time>
      </trkpt>
      <trkpt lat="46.50059" lon="5.5341">
        <ele>498.4</ele>
        <time>2023-08-30T11:28:45Z</time>
      </trkpt>
      <trkpt lat="46.50056" lon="5.53409">
        <ele>498.4</ele>
        <time>2023-08-30T11:28:46Z</time>
      </trkpt>
      <trkpt lat="46.50053" lon="5.53407">
        <ele>498.4</ele>
        <time>2023-08-30T11:28:47Z</time>
      </trkpt>
      <trkpt lat="46.5005" lon="5.53405">
        <ele>498.4</ele>
        <time>2023-08-30T11:28:48Z</time>
      </trkpt>
      <trkpt lat="46.50047" lon="5.53403">
        <ele>498.4</ele>
        <time>2023-08-30T11:28:49Z</time>
      </trkpt>
      <trkpt lat="46.50044" lon="5.53402">
        <ele>498.8</ele>
        <time>2023-08-30T11:28:50Z</time>
      </trkpt>
      <trkpt lat="46.50041" lon="5.53401">
        <ele>498.8</ele>
        <time>2023-08-30T11:28:51Z</time>
      </trkpt>
      <trkpt lat="46.50038" lon="5.53399">
        <ele>498.8</ele>
        <time>2023-08-30T11:28:52Z</time>
      </trkpt>
      <trkpt lat="46.50035" lon="5.53398">
        <ele>498.8</ele>
        <time>2023-08-30T11:28:53Z</time>
      </trkpt>
      <trkpt lat="46.50033" lon="5.53397">
        <ele>498.8</ele>
        <time>2023-08-30T11:28:54Z</time>
      </trkpt>
      <trkpt lat="46.5003" lon="5.53396">
        <ele>498.8</ele>
        <time>2023-08-30T11:28:55Z</time>
      </trkpt>
      <trkpt lat="46.50027" lon="5.53394">
        <ele>498.8</ele>
        <time>2023-08-30T11:28:56Z</time>
      </trkpt>
      <trkpt lat="46.50024" lon="5.53392">
        <ele>498.8</ele>
        <time>2023-08-30T11:28:57Z</time>
      </trkpt>
      <trkpt lat="46.50021" lon="5.5339">
        <ele>499</ele>
        <time>2023-08-30T11:28:58Z</time>
      </trkpt>
      <trkpt lat="46.50018" lon="5.53388">
        <ele>499</ele>
        <time>2023-08-30T11:28:59Z</time>
      </trkpt>
      <trkpt lat="46.50015" lon="5.53386">
        <ele>499</ele>
        <time>2023-08-30T11:29:00Z</time>
      </trkpt>
      <trkpt lat="46.50012" lon="5.53385">
        <ele>499</ele>
        <time>2023-08-30T11:29:01Z</time>
      </trkpt>
      <trkpt lat="46.50009" lon="5.53383">
        <ele>499</ele>
        <time>2023-08-30T11:29:02Z</time>
      </trkpt>
      <trkpt lat="46.50006" lon="5.53381">
        <ele>499.4</ele>
        <time>2023-08-30T11:29:03Z</time>
      </trkpt>
      <trkpt lat="46.50003" lon="5.53379">
        <ele>499.4</ele>
        <time>2023-08-30T11:29:04Z</time>
      </trkpt>
      <trkpt lat="46.5" lon="5.53378">
        <ele>499.4</ele>
        <time>2023-08-30T11:29:05Z</time>
      </trkpt>
      <trkpt lat="46.49998" lon="5.53376">
        <ele>499.6</ele>
        <time>2023-08-30T11:29:06Z</time>
      </trkpt>
      <trkpt lat="46.49995" lon="5.53374">
        <ele>499.6</ele>
        <time>2023-08-30T11:29:07Z</time>
      </trkpt>
      <trkpt lat="46.49993" lon="5.53373">
        <ele>499.6</ele>
        <time>2023-08-30T11:29:08Z</time>
      </trkpt>
      <trkpt lat="46.4999" lon="5.53371">
        <ele>499.6</ele>
        <time>2023-08-30T11:29:09Z</time>
      </trkpt>
      <trkpt lat="46.49987" lon="5.53369">
        <ele>499.6</ele>
        <time>2023-08-30T11:29:10Z</time>
      </trkpt>
      <trkpt lat="46.49985" lon="5.53367">
        <ele>499.6</ele>
        <time>2023-08-30T11:29:11Z</time>
      </trkpt>
      <trkpt lat="46.49982" lon="5.53365">
        <ele>500.2</ele>
        <time>2023-08-30T11:29:12Z</time>
      </trkpt>
      <trkpt lat="46.4998" lon="5.53363">
        <ele>500</ele>
        <time>2023-08-30T11:29:13Z</time>
      </trkpt>
      <trkpt lat="46.49977" lon="5.5336">
        <ele>500</ele>
        <time>2023-08-30T11:29:14Z</time>
      </trkpt>
      <trkpt lat="46.49975" lon="5.53358">
        <ele>500</ele>
        <time>2023-08-30T11:29:15Z</time>
      </trkpt>
      <trkpt lat="46.49972" lon="5.53355">
        <ele>500.4</ele>
        <time>2023-08-30T11:29:16Z</time>
      </trkpt>
      <trkpt lat="46.4997" lon="5.53353">
        <ele>500.6</ele>
        <time>2023-08-30T11:29:17Z</time>
      </trkpt>
      <trkpt lat="46.49967" lon="5.53351">
        <ele>500.6</ele>
        <time>2023-08-30T11:29:18Z</time>
      </trkpt>
      <trkpt lat="46.49964" lon="5.53349">
        <ele>500.6</ele>
        <time>2023-08-30T11:29:19Z</time>
      </trkpt>
      <trkpt lat="46.49962" lon="5.53347">
        <ele>500.6</ele>
        <time>2023-08-30T11:29:20Z</time>
      </trkpt>
      <trkpt lat="46.49959" lon="5.53345">
        <ele>500.8</ele>
        <time>2023-08-30T11:29:21Z</time>
      </trkpt>
      <trkpt lat="46.49957" lon="5.53343">
        <ele>501</ele>
        <time>2023-08-30T11:29:22Z</time>
      </trkpt>
      <trkpt lat="46.49954" lon="5.53341">
        <ele>501</ele>
        <time>2023-08-30T11:29:23Z</time>
      </trkpt>
      <trkpt lat="46.49952" lon="5.53339">
        <ele>501</ele>
        <time>2023-08-30T11:29:24Z</time>
      </trkpt>
      <trkpt lat="46.49949" lon="5.53337">
        <ele>501</ele>
        <time>2023-08-30T11:29:25Z</time>
      </trkpt>
      <trkpt lat="46.49947" lon="5.53335">
        <ele>501.2</ele>
        <time>2023-08-30T11:29:26Z</time>
      </trkpt>
      <trkpt lat="46.49944" lon="5.53333">
        <ele>501.2</ele>
        <time>2023-08-30T11:29:27Z</time>
      </trkpt>
      <trkpt lat="46.49942" lon="5.5333">
        <ele>501.2</ele>
        <time>2023-08-30T11:29:28Z</time>
      </trkpt>
      <trkpt lat="46.4994" lon="5.53327">
        <ele>501.2</ele>
        <time>2023-08-30T11:29:29Z</time>
      </trkpt>
      <trkpt lat="46.49937" lon="5.53324">
        <ele>501.2</ele>
        <time>2023-08-30T11:29:30Z</time>
      </trkpt>
      <trkpt lat="46.49935" lon="5.53321">
        <ele>501.4</ele>
        <time>2023-08-30T11:29:31Z</time>
      </trkpt>
      <trkpt lat="46.49933" lon="5.53319">
        <ele>501.4</ele>
        <time>2023-08-30T11:29:32Z</time>
      </trkpt>
      <trkpt lat="46.49931" lon="5.53316">
        <ele>501.4</ele>
        <time>2023-08-30T11:29:33Z</time>
      </trkpt>
      <trkpt lat="46.49929" lon="5.53313">
        <ele>501.4</ele>
        <time>2023-08-30T11:29:34Z</time>
      </trkpt>
      <trkpt lat="46.49927" lon="5.5331">
        <ele>501.6</ele>
        <time>2023-08-30T11:29:35Z</time>
      </trkpt>
      <trkpt lat="46.49924" lon="5.53307">
        <ele>501.6</ele>
        <time>2023-08-30T11:29:36Z</time>
      </trkpt>
      <trkpt lat="46.49922" lon="5.53304">
        <ele>501.6</ele>
        <time>2023-08-30T11:29:37Z</time>
      </trkpt>
      <trkpt lat="46.49919" lon="5.53302">
        <ele>501.6</ele>
        <time>2023-08-30T11:29:38Z</time>
      </trkpt>
      <trkpt lat="46.49917" lon="5.53299">
        <ele>501.6</ele>
        <time>2023-08-30T11:29:39Z</time>
      </trkpt>
      <trkpt lat="46.49914" lon="5.53296">
        <ele>501.6</ele>
        <time>2023-08-30T11:29:40Z</time>
      </trkpt>
      <trkpt lat="46.49912" lon="5.53293">
        <ele>501.6</ele>
        <time>2023-08-30T11:29:41Z</time>
      </trkpt>
      <trkpt lat="46.49909" lon="5.53291">
        <ele>501.6</ele>
        <time>2023-08-30T11:29:42Z</time>
      </trkpt>
      <trkpt lat="46.49906" lon="5.53288">
        <ele>501.8</ele>
        <time>2023-08-30T11:29:43Z</time>
      </trkpt>
      <trkpt lat="46.49903" lon="5.53285">
        <ele>501.8</ele>
        <time>2023-08-30T11:29:44Z</time>
      </trkpt>
      <trkpt lat="46.499" lon="5.53283">
        <ele>501.8</ele>
        <time>2023-08-30T11:29:45Z</time>
      </trkpt>
      <trkpt lat="46.49898" lon="5.53281">
        <ele>501.8</ele>
        <time>2023-08-30T11:29:46Z</time>
      </trkpt>
      <trkpt lat="46.49895" lon="5.53279">
        <ele>501.8</ele>
        <time>2023-08-30T11:29:47Z</time>
      </trkpt>
      <trkpt lat="46.49891" lon="5.53277">
        <ele>502</ele>
        <time>2023-08-30T11:29:48Z</time>
      </trkpt>
      <trkpt lat="46.49888" lon="5.53275">
        <ele>502</ele>
        <time>2023-08-30T11:29:49Z</time>
      </trkpt>
      <trkpt lat="46.49885" lon="5.53274">
        <ele>502</ele>
        <time>2023-08-30T11:29:50Z</time>
      </trkpt>
      <trkpt lat="46.49882" lon="5.53273">
        <ele>502.2</ele>
        <time>2023-08-30T11:29:51Z</time>
      </trkpt>
      <trkpt lat="46.49879" lon="5.53271">
        <ele>502.2</ele>
        <time>2023-08-30T11:29:52Z</time>
      </trkpt>
      <trkpt lat="46.49876" lon="5.53269">
        <ele>502.4</ele>
        <time>2023-08-30T11:29:53Z</time>
      </trkpt>
      <trkpt lat="46.49872" lon="5.53268">
        <ele>502.4</ele>
        <time>2023-08-30T11:29:54Z</time>
      </trkpt>
      <trkpt lat="46.49869" lon="5.53267">
        <ele>502.4</ele>
        <time>2023-08-30T11:29:55Z</time>
      </trkpt>
      <trkpt lat="46.49866" lon="5.53265">
        <ele>502.4</ele>
        <time>2023-08-30T11:29:56Z</time>
      </trkpt>
      <trkpt lat="46.49861" lon="5.53262">
        <ele>502.4</ele>
        <time>2023-08-30T11:29:57Z</time>
      </trkpt>
      <trkpt lat="46.49859" lon="5.53261">
        <ele>502.4</ele>
        <time>2023-08-30T11:29:58Z</time>
      </trkpt>
      <trkpt lat="46.49858" lon="5.5326">
        <ele>502.4</ele>
        <time>2023-08-30T11:29:59Z</time>
      </trkpt>
      <trkpt lat="46.49857" lon="5.53259">
        <ele>502.4</ele>
        <time>2023-08-30T11:30:00Z</time>
      </trkpt>
      <trkpt lat="46.49855" lon="5.53258">
        <ele>502.4</ele>
        <time>2023-08-30T11:30:01Z</time>
      </trkpt>
      <trkpt lat="46.49854" lon="5.53257">
        <ele>500.2</ele>
        <time>2023-08-30T11:30:51Z</time>
      </trkpt>
      <trkpt lat="46.49852" lon="5.53256">
        <ele>500.2</ele>
        <time>2023-08-30T11:30:52Z</time>
      </trkpt>
      <trkpt lat="46.4985" lon="5.53255">
        <ele>500</ele>
        <time>2023-08-30T11:30:53Z</time>
      </trkpt>
      <trkpt lat="46.49848" lon="5.53254">
        <ele>500</ele>
        <time>2023-08-30T11:30:54Z</time>
      </trkpt>
      <trkpt lat="46.49846" lon="5.53252">
        <ele>500</ele>
        <time>2023-08-30T11:30:55Z</time>
      </trkpt>
      <trkpt lat="46.49843" lon="5.5325">
        <ele>500</ele>
        <time>2023-08-30T11:30:56Z</time>
      </trkpt>
      <trkpt lat="46.4984" lon="5.53249">
        <ele>500</ele>
        <time>2023-08-30T11:30:57Z</time>
      </trkpt>
      <trkpt lat="46.49837" lon="5.53247">
        <ele>500.4</ele>
        <time>2023-08-30T11:30:58Z</time>
      </trkpt>
      <trkpt lat="46.49834" lon="5.53246">
        <ele>500.4</ele>
        <time>2023-08-30T11:30:59Z</time>
      </trkpt>
      <trkpt lat="46.49831" lon="5.53244">
        <ele>500.4</ele>
        <time>2023-08-30T11:31:00Z</time>
      </trkpt>
      <trkpt lat="46.49827" lon="5.53243">
        <ele>500.8</ele>
        <time>2023-08-30T11:31:01Z</time>
      </trkpt>
      <trkpt lat="46.49824" lon="5.53241">
        <ele>500.8</ele>
        <time>2023-08-30T11:31:02Z</time>
      </trkpt>
      <trkpt lat="46.4982" lon="5.53239">
        <ele>501</ele>
        <time>2023-08-30T11:31:03Z</time>
      </trkpt>
      <trkpt lat="46.49816" lon="5.53238">
        <ele>501</ele>
        <time>2023-08-30T11:31:04Z</time>
      </trkpt>
      <trkpt lat="46.49813" lon="5.53237">
        <ele>501</ele>
        <time>2023-08-30T11:31:05Z</time>
      </trkpt>
      <trkpt lat="46.49809" lon="5.53235">
        <ele>501</ele>
        <time>2023-08-30T11:31:06Z</time>
      </trkpt>
      <trkpt lat="46.49806" lon="5.53234">
        <ele>501.2</ele>
        <time>2023-08-30T11:31:07Z</time>
      </trkpt>
      <trkpt lat="46.49802" lon="5.53233">
        <ele>501.2</ele>
        <time>2023-08-30T11:31:08Z</time>
      </trkpt>
      <trkpt lat="46.49798" lon="5.53232">
        <ele>501.2</ele>
        <time>2023-08-30T11:31:09Z</time>
      </trkpt>
      <trkpt lat="46.49794" lon="5.5323">
        <ele>501.8</ele>
        <time>2023-08-30T11:31:10Z</time>
      </trkpt>
      <trkpt lat="46.4979" lon="5.53229">
        <ele>502</ele>
        <time>2023-08-30T11:31:11Z</time>
      </trkpt>
      <trkpt lat="46.49786" lon="5.53228">
        <ele>502</ele>
        <time>2023-08-30T11:31:12Z</time>
      </trkpt>
      <trkpt lat="46.49782" lon="5.53227">
        <ele>502</ele>
        <time>2023-08-30T11:31:13Z</time>
      </trkpt>
      <trkpt lat="46.49778" lon="5.53226">
        <ele>502</ele>
        <time>2023-08-30T11:31:14Z</time>
      </trkpt>
      <trkpt lat="46.49773" lon="5.53224">
        <ele>502.4</ele>
        <time>2023-08-30T11:31:15Z</time>
      </trkpt>
      <trkpt lat="46.49769" lon="5.53223">
        <ele>502.4</ele>
        <time>2023-08-30T11:31:16Z</time>
      </trkpt>
      <trkpt lat="46.49765" lon="5.53222">
        <ele>502.8</ele>
        <time>2023-08-30T11:31:17Z</time>
      </trkpt>
      <trkpt lat="46.49761" lon="5.53221">
        <ele>502.8</ele>
        <time>2023-08-30T11:31:18Z</time>
      </trkpt>
      <trkpt lat="46.49757" lon="5.5322">
        <ele>502.8</ele>
        <time>2023-08-30T11:31:19Z</time>
      </trkpt>
      <trkpt lat="46.49753" lon="5.53219">
        <ele>502.8</ele>
        <time>2023-08-30T11:31:20Z</time>
      </trkpt>
      <trkpt lat="46.49749" lon="5.53218">
        <ele>502.8</ele>
        <time>2023-08-30T11:31:21Z</time>
      </trkpt>
      <trkpt lat="46.49745" lon="5.53216">
        <ele>503.2</ele>
        <time>2023-08-30T11:31:22Z</time>
      </trkpt>
      <trkpt lat="46.49741" lon="5.53215">
        <ele>503.2</ele>
        <time>2023-08-30T11:31:23Z</time>
      </trkpt>
      <trkpt lat="46.49737" lon="5.53214">
        <ele>503.6</ele>
        <time>2023-08-30T11:31:24Z</time>
      </trkpt>
      <trkpt lat="46.49733" lon="5.53212">
        <ele>504</ele>
        <time>2023-08-30T11:31:25Z</time>
      </trkpt>
      <trkpt lat="46.49729" lon="5.5321">
        <ele>504</ele>
        <time>2023-08-30T11:31:26Z</time>
      </trkpt>
      <trkpt lat="46.49725" lon="5.53208">
        <ele>504</ele>
        <time>2023-08-30T11:31:27Z</time>
      </trkpt>
      <trkpt lat="46.49721" lon="5.53206">
        <ele>504</ele>
        <time>2023-08-30T11:31:28Z</time>
      </trkpt>
      <trkpt lat="46.49717" lon="5.53204">
        <ele>504.4</ele>
        <time>2023-08-30T11:31:29Z</time>
      </trkpt>
      <trkpt lat="46.49711" lon="5.53201">
        <ele>504.6</ele>
        <time>2023-08-30T11:31:30Z</time>
      </trkpt>
      <trkpt lat="46.49709" lon="5.532">
        <ele>504.6</ele>
        <time>2023-08-30T11:31:31Z</time>
      </trkpt>
      <trkpt lat="46.49704" lon="5.53199">
        <ele>504.6</ele>
        <time>2023-08-30T11:31:32Z</time>
      </trkpt>
      <trkpt lat="46.497" lon="5.53198">
        <ele>504.8</ele>
        <time>2023-08-30T11:31:33Z</time>
      </trkpt>
      <trkpt lat="46.49696" lon="5.53197">
        <ele>504.8</ele>
        <time>2023-08-30T11:31:34Z</time>
      </trkpt>
      <trkpt lat="46.4969" lon="5.53195">
        <ele>505.2</ele>
        <time>2023-08-30T11:31:35Z</time>
      </trkpt>
      <trkpt lat="46.49688" lon="5.53194">
        <ele>505.2</ele>
        <time>2023-08-30T11:31:36Z</time>
      </trkpt>
      <trkpt lat="46.49685" lon="5.53192">
        <ele>505.2</ele>
        <time>2023-08-30T11:31:37Z</time>
      </trkpt>
      <trkpt lat="46.49681" lon="5.5319">
        <ele>505.8</ele>
        <time>2023-08-30T11:31:38Z</time>
      </trkpt>
      <trkpt lat="46.49677" lon="5.53188">
        <ele>506</ele>
        <time>2023-08-30T11:31:39Z</time>
      </trkpt>
      <trkpt lat="46.49674" lon="5.53187">
        <ele>506</ele>
        <time>2023-08-30T11:31:40Z</time>
      </trkpt>
      <trkpt lat="46.4967" lon="5.53186">
        <ele>506</ele>
        <time>2023-08-30T11:31:41Z</time>
      </trkpt>
      <trkpt lat="46.49667" lon="5.53184">
        <ele>506.2</ele>
        <time>2023-08-30T11:31:42Z</time>
      </trkpt>
      <trkpt lat="46.49663" lon="5.53183">
        <ele>506.6</ele>
        <time>2023-08-30T11:31:43Z</time>
      </trkpt>
      <trkpt lat="46.4966" lon="5.53181">
        <ele>506.6</ele>
        <time>2023-08-30T11:31:44Z</time>
      </trkpt>
      <trkpt lat="46.49657" lon="5.53179">
        <ele>506.6</ele>
        <time>2023-08-30T11:31:45Z</time>
      </trkpt>
      <trkpt lat="46.49653" lon="5.53178">
        <ele>507.2</ele>
        <time>2023-08-30T11:31:46Z</time>
      </trkpt>
      <trkpt lat="46.49649" lon="5.53177">
        <ele>507.2</ele>
        <time>2023-08-30T11:31:47Z</time>
      </trkpt>
      <trkpt lat="46.49645" lon="5.53177">
        <ele>507.2</ele>
        <time>2023-08-30T11:31:48Z</time>
      </trkpt>
      <trkpt lat="46.49642" lon="5.53176">
        <ele>507.2</ele>
        <time>2023-08-30T11:31:49Z</time>
      </trkpt>
      <trkpt lat="46.49638" lon="5.53175">
        <ele>507.2</ele>
        <time>2023-08-30T11:31:50Z</time>
      </trkpt>
      <trkpt lat="46.49635" lon="5.53175">
        <ele>507.6</ele>
        <time>2023-08-30T11:31:51Z</time>
      </trkpt>
      <trkpt lat="46.49631" lon="5.53175">
        <ele>508.2</ele>
        <time>2023-08-30T11:31:52Z</time>
      </trkpt>
      <trkpt lat="46.49627" lon="5.53174">
        <ele>508.2</ele>
        <time>2023-08-30T11:31:53Z</time>
      </trkpt>
      <trkpt lat="46.49624" lon="5.53174">
        <ele>508.2</ele>
        <time>2023-08-30T11:31:54Z</time>
      </trkpt>
      <trkpt lat="46.4962" lon="5.53173">
        <ele>508.2</ele>
        <time>2023-08-30T11:31:55Z</time>
      </trkpt>
      <trkpt lat="46.49617" lon="5.53172">
        <ele>508.4</ele>
        <time>2023-08-30T11:31:56Z</time>
      </trkpt>
      <trkpt lat="46.49613" lon="5.53171">
        <ele>508.4</ele>
        <time>2023-08-30T11:31:57Z</time>
      </trkpt>
      <trkpt lat="46.49609" lon="5.53169">
        <ele>508.4</ele>
        <time>2023-08-30T11:31:58Z</time>
      </trkpt>
      <trkpt lat="46.49605" lon="5.53168">
        <ele>508.4</ele>
        <time>2023-08-30T11:31:59Z</time>
      </trkpt>
      <trkpt lat="46.49601" lon="5.53167">
        <ele>508.4</ele>
        <time>2023-08-30T11:32:00Z</time>
      </trkpt>
      <trkpt lat="46.49595" lon="5.53165">
        <ele>508.4</ele>
        <time>2023-08-30T11:32:01Z</time>
      </trkpt>
      <trkpt lat="46.49593" lon="5.53164">
        <ele>509</ele>
        <time>2023-08-30T11:32:02Z</time>
      </trkpt>
      <trkpt lat="46.49588" lon="5.53163">
        <ele>509</ele>
        <time>2023-08-30T11:32:03Z</time>
      </trkpt>
      <trkpt lat="46.49583" lon="5.53162">
        <ele>509</ele>
        <time>2023-08-30T11:32:04Z</time>
      </trkpt>
      <trkpt lat="46.49578" lon="5.53161">
        <ele>509</ele>
        <time>2023-08-30T11:32:05Z</time>
      </trkpt>
      <trkpt lat="46.49573" lon="5.5316">
        <ele>509.2</ele>
        <time>2023-08-30T11:32:06Z</time>
      </trkpt>
      <trkpt lat="46.49568" lon="5.53159">
        <ele>509.2</ele>
        <time>2023-08-30T11:32:07Z</time>
      </trkpt>
      <trkpt lat="46.49563" lon="5.53158">
        <ele>509.2</ele>
        <time>2023-08-30T11:32:08Z</time>
      </trkpt>
      <trkpt lat="46.49558" lon="5.53158">
        <ele>509</ele>
        <time>2023-08-30T11:32:09Z</time>
      </trkpt>
      <trkpt lat="46.49553" lon="5.53156">
        <ele>509.6</ele>
        <time>2023-08-30T11:32:10Z</time>
      </trkpt>
      <trkpt lat="46.49548" lon="5.53155">
        <ele>509.6</ele>
        <time>2023-08-30T11:32:11Z</time>
      </trkpt>
      <trkpt lat="46.49543" lon="5.53153">
        <ele>509.6</ele>
        <time>2023-08-30T11:32:12Z</time>
      </trkpt>
      <trkpt lat="46.49538" lon="5.53152">
        <ele>509.6</ele>
        <time>2023-08-30T11:32:13Z</time>
      </trkpt>
      <trkpt lat="46.49533" lon="5.53151">
        <ele>509.6</ele>
        <time>2023-08-30T11:32:14Z</time>
      </trkpt>
      <trkpt lat="46.49528" lon="5.53149">
        <ele>509.2</ele>
        <time>2023-08-30T11:32:15Z</time>
      </trkpt>
      <trkpt lat="46.49523" lon="5.53149">
        <ele>509.2</ele>
        <time>2023-08-30T11:32:16Z</time>
      </trkpt>
      <trkpt lat="46.49518" lon="5.53148">
        <ele>509.2</ele>
        <time>2023-08-30T11:32:17Z</time>
      </trkpt>
      <trkpt lat="46.49513" lon="5.53147">
        <ele>509.2</ele>
        <time>2023-08-30T11:32:18Z</time>
      </trkpt>
      <trkpt lat="46.49508" lon="5.53147">
        <ele>509.6</ele>
        <time>2023-08-30T11:32:19Z</time>
      </trkpt>
      <trkpt lat="46.49503" lon="5.53146">
        <ele>509.6</ele>
        <time>2023-08-30T11:32:20Z</time>
      </trkpt>
      <trkpt lat="46.49498" lon="5.53145">
        <ele>509.6</ele>
        <time>2023-08-30T11:32:21Z</time>
      </trkpt>
      <trkpt lat="46.49493" lon="5.53144">
        <ele>509.6</ele>
        <time>2023-08-30T11:32:22Z</time>
      </trkpt>
      <trkpt lat="46.49488" lon="5.53143">
        <ele>509.8</ele>
        <time>2023-08-30T11:32:23Z</time>
      </trkpt>
      <trkpt lat="46.49483" lon="5.53142">
        <ele>509.8</ele>
        <time>2023-08-30T11:32:24Z</time>
      </trkpt>
      <trkpt lat="46.49478" lon="5.53141">
        <ele>509.8</ele>
        <time>2023-08-30T11:32:25Z</time>
      </trkpt>
      <trkpt lat="46.49473" lon="5.5314">
        <ele>509.8</ele>
        <time>2023-08-30T11:32:26Z</time>
      </trkpt>
      <trkpt lat="46.49469" lon="5.53139">
        <ele>509.8</ele>
        <time>2023-08-30T11:32:27Z</time>
      </trkpt>
      <trkpt lat="46.49464" lon="5.53139">
        <ele>510.4</ele>
        <time>2023-08-30T11:32:28Z</time>
      </trkpt>
      <trkpt lat="46.49459" lon="5.53138">
        <ele>510.4</ele>
        <time>2023-08-30T11:32:29Z</time>
      </trkpt>
      <trkpt lat="46.49454" lon="5.53137">
        <ele>510.4</ele>
        <time>2023-08-30T11:32:30Z</time>
      </trkpt>
      <trkpt lat="46.49449" lon="5.53137">
        <ele>510.2</ele>
        <time>2023-08-30T11:32:31Z</time>
      </trkpt>
      <trkpt lat="46.49444" lon="5.53136">
        <ele>510.2</ele>
        <time>2023-08-30T11:32:32Z</time>
      </trkpt>
      <trkpt lat="46.49439" lon="5.53135">
        <ele>510.2</ele>
        <time>2023-08-30T11:32:33Z</time>
      </trkpt>
      <trkpt lat="46.49435" lon="5.53133">
        <ele>510.2</ele>
        <time>2023-08-30T11:32:34Z</time>
      </trkpt>
      <trkpt lat="46.4943" lon="5.53131">
        <ele>510.2</ele>
        <time>2023-08-30T11:32:35Z</time>
      </trkpt>
      <trkpt lat="46.49427" lon="5.53129">
        <ele>510.4</ele>
        <time>2023-08-30T11:32:36Z</time>
      </trkpt>
      <trkpt lat="46.49423" lon="5.53127">
        <ele>510</ele>
        <time>2023-08-30T11:32:37Z</time>
      </trkpt>
      <trkpt lat="46.49419" lon="5.53124">
        <ele>510</ele>
        <time>2023-08-30T11:32:38Z</time>
      </trkpt>
      <trkpt lat="46.49416" lon="5.53122">
        <ele>510</ele>
        <time>2023-08-30T11:32:39Z</time>
      </trkpt>
      <trkpt lat="46.49413" lon="5.5312">
        <ele>510.4</ele>
        <time>2023-08-30T11:32:40Z</time>
      </trkpt>
      <trkpt lat="46.4941" lon="5.53118">
        <ele>510.4</ele>
        <time>2023-08-30T11:32:41Z</time>
      </trkpt>
      <trkpt lat="46.49407" lon="5.53117">
        <ele>510.4</ele>
        <time>2023-08-30T11:32:42Z</time>
      </trkpt>
      <trkpt lat="46.49403" lon="5.53116">
        <ele>510.4</ele>
        <time>2023-08-30T11:32:43Z</time>
      </trkpt>
      <trkpt lat="46.494" lon="5.53114">
        <ele>510.4</ele>
        <time>2023-08-30T11:32:44Z</time>
      </trkpt>
      <trkpt lat="46.49396" lon="5.53112">
        <ele>510</ele>
        <time>2023-08-30T11:32:45Z</time>
      </trkpt>
      <trkpt lat="46.49392" lon="5.5311">
        <ele>510</ele>
        <time>2023-08-30T11:32:46Z</time>
      </trkpt>
      <trkpt lat="46.49388" lon="5.53108">
        <ele>510.2</ele>
        <time>2023-08-30T11:32:47Z</time>
      </trkpt>
      <trkpt lat="46.49385" lon="5.53106">
        <ele>510.2</ele>
        <time>2023-08-30T11:32:48Z</time>
      </trkpt>
      <trkpt lat="46.49381" lon="5.53104">
        <ele>510.2</ele>
        <time>2023-08-30T11:32:49Z</time>
      </trkpt>
      <trkpt lat="46.49377" lon="5.53102">
        <ele>510</ele>
        <time>2023-08-30T11:32:50Z</time>
      </trkpt>
      <trkpt lat="46.49373" lon="5.531">
        <ele>510</ele>
        <time>2023-08-30T11:32:51Z</time>
      </trkpt>
      <trkpt lat="46.49369" lon="5.53097">
        <ele>510.2</ele>
        <time>2023-08-30T11:32:52Z</time>
      </trkpt>
      <trkpt lat="46.49364" lon="5.53095">
        <ele>510.2</ele>
        <time>2023-08-30T11:32:53Z</time>
      </trkpt>
      <trkpt lat="46.4936" lon="5.53093">
        <ele>510.4</ele>
        <time>2023-08-30T11:32:54Z</time>
      </trkpt>
      <trkpt lat="46.49356" lon="5.5309">
        <ele>510.4</ele>
        <time>2023-08-30T11:32:55Z</time>
      </trkpt>
      <trkpt lat="46.49352" lon="5.53087">
        <ele>510.4</ele>
        <time>2023-08-30T11:32:56Z</time>
      </trkpt>
      <trkpt lat="46.49348" lon="5.53085">
        <ele>510.4</ele>
        <time>2023-08-30T11:32:57Z</time>
      </trkpt>
      <trkpt lat="46.49344" lon="5.53083">
        <ele>510.4</ele>
        <time>2023-08-30T11:32:58Z</time>
      </trkpt>
      <trkpt lat="46.4934" lon="5.53081">
        <ele>510.8</ele>
        <time>2023-08-30T11:32:59Z</time>
      </trkpt>
      <trkpt lat="46.49336" lon="5.53079">
        <ele>510.8</ele>
        <time>2023-08-30T11:33:00Z</time>
      </trkpt>
      <trkpt lat="46.49332" lon="5.53075">
        <ele>510.8</ele>
        <time>2023-08-30T11:33:01Z</time>
      </trkpt>
      <trkpt lat="46.49326" lon="5.53071">
        <ele>510.8</ele>
        <time>2023-08-30T11:33:02Z</time>
      </trkpt>
      <trkpt lat="46.49324" lon="5.53069">
        <ele>510.8</ele>
        <time>2023-08-30T11:33:03Z</time>
      </trkpt>
      <trkpt lat="46.4932" lon="5.53066">
        <ele>510.8</ele>
        <time>2023-08-30T11:33:04Z</time>
      </trkpt>
      <trkpt lat="46.49316" lon="5.53063">
        <ele>510.8</ele>
        <time>2023-08-30T11:33:05Z</time>
      </trkpt>
      <trkpt lat="46.49312" lon="5.53061">
        <ele>510.8</ele>
        <time>2023-08-30T11:33:06Z</time>
      </trkpt>
      <trkpt lat="46.49308" lon="5.53059">
        <ele>511</ele>
        <time>2023-08-30T11:33:07Z</time>
      </trkpt>
      <trkpt lat="46.49304" lon="5.53056">
        <ele>511.2</ele>
        <time>2023-08-30T11:33:08Z</time>
      </trkpt>
      <trkpt lat="46.49299" lon="5.53053">
        <ele>511.2</ele>
        <time>2023-08-30T11:33:09Z</time>
      </trkpt>
      <trkpt lat="46.49296" lon="5.53049">
        <ele>511.2</ele>
        <time>2023-08-30T11:33:10Z</time>
      </trkpt>
      <trkpt lat="46.49292" lon="5.53046">
        <ele>511.2</ele>
        <time>2023-08-30T11:33:11Z</time>
      </trkpt>
      <trkpt lat="46.49288" lon="5.53042">
        <ele>511.6</ele>
        <time>2023-08-30T11:33:12Z</time>
      </trkpt>
      <trkpt lat="46.49283" lon="5.53039">
        <ele>511.4</ele>
        <time>2023-08-30T11:33:13Z</time>
      </trkpt>
      <trkpt lat="46.4928" lon="5.53036">
        <ele>511.4</ele>
        <time>2023-08-30T11:33:14Z</time>
      </trkpt>
      <trkpt lat="46.49276" lon="5.53032">
        <ele>511.4</ele>
        <time>2023-08-30T11:33:15Z</time>
      </trkpt>
      <trkpt lat="46.49272" lon="5.53029">
        <ele>511.4</ele>
        <time>2023-08-30T11:33:16Z</time>
      </trkpt>
      <trkpt lat="46.49268" lon="5.53026">
        <ele>511.8</ele>
        <time>2023-08-30T11:33:17Z</time>
      </trkpt>
      <trkpt lat="46.49264" lon="5.53023">
        <ele>511.8</ele>
        <time>2023-08-30T11:33:18Z</time>
      </trkpt>
      <trkpt lat="46.4926" lon="5.5302">
        <ele>511.8</ele>
        <time>2023-08-30T11:33:19Z</time>
      </trkpt>
      <trkpt lat="46.49257" lon="5.53017">
        <ele>511.8</ele>
        <time>2023-08-30T11:33:20Z</time>
      </trkpt>
      <trkpt lat="46.49253" lon="5.53014">
        <ele>511.8</ele>
        <time>2023-08-30T11:33:21Z</time>
      </trkpt>
      <trkpt lat="46.49249" lon="5.53011">
        <ele>511.4</ele>
        <time>2023-08-30T11:33:22Z</time>
      </trkpt>
      <trkpt lat="46.49245" lon="5.53008">
        <ele>511.4</ele>
        <time>2023-08-30T11:33:23Z</time>
      </trkpt>
      <trkpt lat="46.49241" lon="5.53005">
        <ele>511.4</ele>
        <time>2023-08-30T11:33:24Z</time>
      </trkpt>
      <trkpt lat="46.49237" lon="5.53002">
        <ele>511.4</ele>
        <time>2023-08-30T11:33:25Z</time>
      </trkpt>
      <trkpt lat="46.49234" lon="5.52999">
        <ele>511.4</ele>
        <time>2023-08-30T11:33:26Z</time>
      </trkpt>
      <trkpt lat="46.4923" lon="5.52996">
        <ele>511.8</ele>
        <time>2023-08-30T11:33:27Z</time>
      </trkpt>
      <trkpt lat="46.49225" lon="5.52993">
        <ele>511.8</ele>
        <time>2023-08-30T11:33:28Z</time>
      </trkpt>
      <trkpt lat="46.49221" lon="5.5299">
        <ele>511.8</ele>
        <time>2023-08-30T11:33:29Z</time>
      </trkpt>
      <trkpt lat="46.49217" lon="5.52987">
        <ele>511.6</ele>
        <time>2023-08-30T11:33:30Z</time>
      </trkpt>
      <trkpt lat="46.49213" lon="5.52984">
        <ele>511.6</ele>
        <time>2023-08-30T11:33:31Z</time>
      </trkpt>
      <trkpt lat="46.49209" lon="5.52982">
        <ele>511.6</ele>
        <time>2023-08-30T11:33:32Z</time>
      </trkpt>
      <trkpt lat="46.49205" lon="5.52978">
        <ele>511.6</ele>
        <time>2023-08-30T11:33:33Z</time>
      </trkpt>
      <trkpt lat="46.49201" lon="5.52975">
        <ele>511.6</ele>
        <time>2023-08-30T11:33:34Z</time>
      </trkpt>
      <trkpt lat="46.49197" lon="5.52973">
        <ele>511.6</ele>
        <time>2023-08-30T11:33:35Z</time>
      </trkpt>
      <trkpt lat="46.49193" lon="5.5297">
        <ele>512</ele>
        <time>2023-08-30T11:33:36Z</time>
      </trkpt>
      <trkpt lat="46.49189" lon="5.52967">
        <ele>512</ele>
        <time>2023-08-30T11:33:37Z</time>
      </trkpt>
      <trkpt lat="46.49186" lon="5.52964">
        <ele>512</ele>
        <time>2023-08-30T11:33:38Z</time>
      </trkpt>
      <trkpt lat="46.49182" lon="5.52961">
        <ele>512</ele>
        <time>2023-08-30T11:33:39Z</time>
      </trkpt>
      <trkpt lat="46.49178" lon="5.52958">
        <ele>511.8</ele>
        <time>2023-08-30T11:33:40Z</time>
      </trkpt>
      <trkpt lat="46.49174" lon="5.52955">
        <ele>511.8</ele>
        <time>2023-08-30T11:33:41Z</time>
      </trkpt>
      <trkpt lat="46.4917" lon="5.52952">
        <ele>511.8</ele>
        <time>2023-08-30T11:33:42Z</time>
      </trkpt>
      <trkpt lat="46.49165" lon="5.52949">
        <ele>511.8</ele>
        <time>2023-08-30T11:33:43Z</time>
      </trkpt>
      <trkpt lat="46.49159" lon="5.52944">
        <ele>511.8</ele>
        <time>2023-08-30T11:33:44Z</time>
      </trkpt>
      <trkpt lat="46.49157" lon="5.52942">
        <ele>511.6</ele>
        <time>2023-08-30T11:33:45Z</time>
      </trkpt>
      <trkpt lat="46.49152" lon="5.52938">
        <ele>511.6</ele>
        <time>2023-08-30T11:33:46Z</time>
      </trkpt>
      <trkpt lat="46.49148" lon="5.52933">
        <ele>511.6</ele>
        <time>2023-08-30T11:33:47Z</time>
      </trkpt>
      <trkpt lat="46.49143" lon="5.52929">
        <ele>511.4</ele>
        <time>2023-08-30T11:33:48Z</time>
      </trkpt>
      <trkpt lat="46.49138" lon="5.52924">
        <ele>511.6</ele>
        <time>2023-08-30T11:33:49Z</time>
      </trkpt>
      <trkpt lat="46.49133" lon="5.5292">
        <ele>511.6</ele>
        <time>2023-08-30T11:33:50Z</time>
      </trkpt>
      <trkpt lat="46.49128" lon="5.52915">
        <ele>511.6</ele>
        <time>2023-08-30T11:33:51Z</time>
      </trkpt>
      <trkpt lat="46.49123" lon="5.5291">
        <ele>511.6</ele>
        <time>2023-08-30T11:33:52Z</time>
      </trkpt>
      <trkpt lat="46.49118" lon="5.52906">
        <ele>511.4</ele>
        <time>2023-08-30T11:33:53Z</time>
      </trkpt>
      <trkpt lat="46.49113" lon="5.52901">
        <ele>511.4</ele>
        <time>2023-08-30T11:33:54Z</time>
      </trkpt>
      <trkpt lat="46.49109" lon="5.52897">
        <ele>511.4</ele>
        <time>2023-08-30T11:33:55Z</time>
      </trkpt>
      <trkpt lat="46.49104" lon="5.52893">
        <ele>511.4</ele>
        <time>2023-08-30T11:33:56Z</time>
      </trkpt>
      <trkpt lat="46.49099" lon="5.52889">
        <ele>510.6</ele>
        <time>2023-08-30T11:33:57Z</time>
      </trkpt>
      <trkpt lat="46.49094" lon="5.52885">
        <ele>510.8</ele>
        <time>2023-08-30T11:33:58Z</time>
      </trkpt>
      <trkpt lat="46.49089" lon="5.5288">
        <ele>510.8</ele>
        <time>2023-08-30T11:33:59Z</time>
      </trkpt>
      <trkpt lat="46.49084" lon="5.52876">
        <ele>510.8</ele>
        <time>2023-08-30T11:34:00Z</time>
      </trkpt>
      <trkpt lat="46.49079" lon="5.52871">
        <ele>510.6</ele>
        <time>2023-08-30T11:34:01Z</time>
      </trkpt>
      <trkpt lat="46.49075" lon="5.52867">
        <ele>510.6</ele>
        <time>2023-08-30T11:34:02Z</time>
      </trkpt>
      <trkpt lat="46.4907" lon="5.52862">
        <ele>510.6</ele>
        <time>2023-08-30T11:34:03Z</time>
      </trkpt>
      <trkpt lat="46.49066" lon="5.52857">
        <ele>510.6</ele>
        <time>2023-08-30T11:34:04Z</time>
      </trkpt>
      <trkpt lat="46.49061" lon="5.52853">
        <ele>510.6</ele>
        <time>2023-08-30T11:34:05Z</time>
      </trkpt>
      <trkpt lat="46.49056" lon="5.52848">
        <ele>510</ele>
        <time>2023-08-30T11:34:06Z</time>
      </trkpt>
      <trkpt lat="46.4905" lon="5.52844">
        <ele>510</ele>
        <time>2023-08-30T11:34:07Z</time>
      </trkpt>
      <trkpt lat="46.49045" lon="5.52839">
        <ele>509.8</ele>
        <time>2023-08-30T11:34:08Z</time>
      </trkpt>
      <trkpt lat="46.4904" lon="5.52834">
        <ele>509.8</ele>
        <time>2023-08-30T11:34:09Z</time>
      </trkpt>
      <trkpt lat="46.49035" lon="5.52829">
        <ele>509.8</ele>
        <time>2023-08-30T11:34:10Z</time>
      </trkpt>
      <trkpt lat="46.49029" lon="5.52825">
        <ele>509.8</ele>
        <time>2023-08-30T11:34:11Z</time>
      </trkpt>
      <trkpt lat="46.49024" lon="5.5282">
        <ele>509.6</ele>
        <time>2023-08-30T11:34:12Z</time>
      </trkpt>
      <trkpt lat="46.49019" lon="5.52815">
        <ele>509.6</ele>
        <time>2023-08-30T11:34:13Z</time>
      </trkpt>
      <trkpt lat="46.49013" lon="5.52811">
        <ele>509.6</ele>
        <time>2023-08-30T11:34:14Z</time>
      </trkpt>
      <trkpt lat="46.49008" lon="5.52806">
        <ele>508.8</ele>
        <time>2023-08-30T11:34:15Z</time>
      </trkpt>
      <trkpt lat="46.49003" lon="5.52801">
        <ele>509.4</ele>
        <time>2023-08-30T11:34:16Z</time>
      </trkpt>
      <trkpt lat="46.48998" lon="5.52796">
        <ele>509.4</ele>
        <time>2023-08-30T11:34:17Z</time>
      </trkpt>
      <trkpt lat="46.48993" lon="5.52791">
        <ele>509.4</ele>
        <time>2023-08-30T11:34:18Z</time>
      </trkpt>
      <trkpt lat="46.48988" lon="5.52787">
        <ele>509.4</ele>
        <time>2023-08-30T11:34:19Z</time>
      </trkpt>
      <trkpt lat="46.48982" lon="5.52782">
        <ele>509</ele>
        <time>2023-08-30T11:34:20Z</time>
      </trkpt>
      <trkpt lat="46.48977" lon="5.52777">
        <ele>508.8</ele>
        <time>2023-08-30T11:34:21Z</time>
      </trkpt>
      <trkpt lat="46.48972" lon="5.52773">
        <ele>508.8</ele>
        <time>2023-08-30T11:34:22Z</time>
      </trkpt>
      <trkpt lat="46.48967" lon="5.52768">
        <ele>508.8</ele>
        <time>2023-08-30T11:34:23Z</time>
      </trkpt>
      <trkpt lat="46.48962" lon="5.52763">
        <ele>508.8</ele>
        <time>2023-08-30T11:34:24Z</time>
      </trkpt>
      <trkpt lat="46.48956" lon="5.52758">
        <ele>508.6</ele>
        <time>2023-08-30T11:34:25Z</time>
      </trkpt>
      <trkpt lat="46.4895" lon="5.52754">
        <ele>508.6</ele>
        <time>2023-08-30T11:34:26Z</time>
      </trkpt>
      <trkpt lat="46.48942" lon="5.52746">
        <ele>508.6</ele>
        <time>2023-08-30T11:34:27Z</time>
      </trkpt>
      <trkpt lat="46.48939" lon="5.52744">
        <ele>508.8</ele>
        <time>2023-08-30T11:34:28Z</time>
      </trkpt>
      <trkpt lat="46.48934" lon="5.52739">
        <ele>508.8</ele>
        <time>2023-08-30T11:34:29Z</time>
      </trkpt>
      <trkpt lat="46.48928" lon="5.52734">
        <ele>508.8</ele>
        <time>2023-08-30T11:34:30Z</time>
      </trkpt>
      <trkpt lat="46.48923" lon="5.52729">
        <ele>508.8</ele>
        <time>2023-08-30T11:34:31Z</time>
      </trkpt>
      <trkpt lat="46.48918" lon="5.52724">
        <ele>508.8</ele>
        <time>2023-08-30T11:34:32Z</time>
      </trkpt>
      <trkpt lat="46.48912" lon="5.5272">
        <ele>508.8</ele>
        <time>2023-08-30T11:34:33Z</time>
      </trkpt>
      <trkpt lat="46.48907" lon="5.52716">
        <ele>508.4</ele>
        <time>2023-08-30T11:34:34Z</time>
      </trkpt>
      <trkpt lat="46.48901" lon="5.52711">
        <ele>508.4</ele>
        <time>2023-08-30T11:34:35Z</time>
      </trkpt>
      <trkpt lat="46.48895" lon="5.52706">
        <ele>508.4</ele>
        <time>2023-08-30T11:34:36Z</time>
      </trkpt>
      <trkpt lat="46.48889" lon="5.52701">
        <ele>508.4</ele>
        <time>2023-08-30T11:34:37Z</time>
      </trkpt>
      <trkpt lat="46.48882" lon="5.52696">
        <ele>508.2</ele>
        <time>2023-08-30T11:34:38Z</time>
      </trkpt>
      <trkpt lat="46.48876" lon="5.5269">
        <ele>508.2</ele>
        <time>2023-08-30T11:34:39Z</time>
      </trkpt>
      <trkpt lat="46.48869" lon="5.52684">
        <ele>508.2</ele>
        <time>2023-08-30T11:34:40Z</time>
      </trkpt>
      <trkpt lat="46.48863" lon="5.52677">
        <ele>508.2</ele>
        <time>2023-08-30T11:34:41Z</time>
      </trkpt>
      <trkpt lat="46.48857" lon="5.52669">
        <ele>508</ele>
        <time>2023-08-30T11:34:42Z</time>
      </trkpt>
      <trkpt lat="46.48851" lon="5.52662">
        <ele>508</ele>
        <time>2023-08-30T11:34:43Z</time>
      </trkpt>
      <trkpt lat="46.48846" lon="5.52656">
        <ele>508</ele>
        <time>2023-08-30T11:34:44Z</time>
      </trkpt>
      <trkpt lat="46.48841" lon="5.52649">
        <ele>508</ele>
        <time>2023-08-30T11:34:45Z</time>
      </trkpt>
      <trkpt lat="46.48835" lon="5.52644">
        <ele>508</ele>
        <time>2023-08-30T11:34:46Z</time>
      </trkpt>
      <trkpt lat="46.4883" lon="5.52639">
        <ele>508.2</ele>
        <time>2023-08-30T11:34:47Z</time>
      </trkpt>
      <trkpt lat="46.48824" lon="5.52634">
        <ele>508.2</ele>
        <time>2023-08-30T11:34:48Z</time>
      </trkpt>
      <trkpt lat="46.48819" lon="5.5263">
        <ele>508.2</ele>
        <time>2023-08-30T11:34:49Z</time>
      </trkpt>
      <trkpt lat="46.48815" lon="5.52625">
        <ele>508.2</ele>
        <time>2023-08-30T11:34:50Z</time>
      </trkpt>
      <trkpt lat="46.48811" lon="5.52621">
        <ele>508</ele>
        <time>2023-08-30T11:34:51Z</time>
      </trkpt>
      <trkpt lat="46.48806" lon="5.52618">
        <ele>508</ele>
        <time>2023-08-30T11:34:52Z</time>
      </trkpt>
      <trkpt lat="46.48802" lon="5.52614">
        <ele>508</ele>
        <time>2023-08-30T11:34:53Z</time>
      </trkpt>
      <trkpt lat="46.48798" lon="5.52611">
        <ele>508</ele>
        <time>2023-08-30T11:34:54Z</time>
      </trkpt>
      <trkpt lat="46.48794" lon="5.52607">
        <ele>508</ele>
        <time>2023-08-30T11:34:55Z</time>
      </trkpt>
      <trkpt lat="46.4879" lon="5.52604">
        <ele>508</ele>
        <time>2023-08-30T11:34:56Z</time>
      </trkpt>
      <trkpt lat="46.48787" lon="5.52602">
        <ele>508</ele>
        <time>2023-08-30T11:34:57Z</time>
      </trkpt>
      <trkpt lat="46.48783" lon="5.52599">
        <ele>508</ele>
        <time>2023-08-30T11:34:58Z</time>
      </trkpt>
      <trkpt lat="46.4878" lon="5.52597">
        <ele>508</ele>
        <time>2023-08-30T11:34:59Z</time>
      </trkpt>
      <trkpt lat="46.48776" lon="5.52594">
        <ele>508</ele>
        <time>2023-08-30T11:35:00Z</time>
      </trkpt>
      <trkpt lat="46.48773" lon="5.52591">
        <ele>507.6</ele>
        <time>2023-08-30T11:35:01Z</time>
      </trkpt>
      <trkpt lat="46.48769" lon="5.52588">
        <ele>507.6</ele>
        <time>2023-08-30T11:35:02Z</time>
      </trkpt>
      <trkpt lat="46.48766" lon="5.52585">
        <ele>507.6</ele>
        <time>2023-08-30T11:35:03Z</time>
      </trkpt>
      <trkpt lat="46.48761" lon="5.52582">
        <ele>508</ele>
        <time>2023-08-30T11:35:04Z</time>
      </trkpt>
      <trkpt lat="46.48757" lon="5.52579">
        <ele>508</ele>
        <time>2023-08-30T11:35:05Z</time>
      </trkpt>
      <trkpt lat="46.48753" lon="5.52575">
        <ele>508</ele>
        <time>2023-08-30T11:35:06Z</time>
      </trkpt>
      <trkpt lat="46.48749" lon="5.52572">
        <ele>508</ele>
        <time>2023-08-30T11:35:07Z</time>
      </trkpt>
      <trkpt lat="46.48743" lon="5.52567">
        <ele>508</ele>
        <time>2023-08-30T11:35:08Z</time>
      </trkpt>
      <trkpt lat="46.48741" lon="5.52566">
        <ele>508</ele>
        <time>2023-08-30T11:35:09Z</time>
      </trkpt>
      <trkpt lat="46.48737" lon="5.52563">
        <ele>508.2</ele>
        <time>2023-08-30T11:35:10Z</time>
      </trkpt>
      <trkpt lat="46.48733" lon="5.5256">
        <ele>508.2</ele>
        <time>2023-08-30T11:35:11Z</time>
      </trkpt>
      <trkpt lat="46.4873" lon="5.52557">
        <ele>508.2</ele>
        <time>2023-08-30T11:35:12Z</time>
      </trkpt>
      <trkpt lat="46.48726" lon="5.52555">
        <ele>508.2</ele>
        <time>2023-08-30T11:35:13Z</time>
      </trkpt>
      <trkpt lat="46.48722" lon="5.52552">
        <ele>508.8</ele>
        <time>2023-08-30T11:35:14Z</time>
      </trkpt>
      <trkpt lat="46.48718" lon="5.52549">
        <ele>508.8</ele>
        <time>2023-08-30T11:35:15Z</time>
      </trkpt>
      <trkpt lat="46.48714" lon="5.52547">
        <ele>508.8</ele>
        <time>2023-08-30T11:35:16Z</time>
      </trkpt>
      <trkpt lat="46.48709" lon="5.52544">
        <ele>508.8</ele>
        <time>2023-08-30T11:35:17Z</time>
      </trkpt>
      <trkpt lat="46.48705" lon="5.52541">
        <ele>508.8</ele>
        <time>2023-08-30T11:35:18Z</time>
      </trkpt>
      <trkpt lat="46.487" lon="5.52539">
        <ele>508.2</ele>
        <time>2023-08-30T11:35:19Z</time>
      </trkpt>
      <trkpt lat="46.48695" lon="5.52537">
        <ele>508.2</ele>
        <time>2023-08-30T11:35:20Z</time>
      </trkpt>
      <trkpt lat="46.48689" lon="5.52536">
        <ele>508.2</ele>
        <time>2023-08-30T11:35:21Z</time>
      </trkpt>
      <trkpt lat="46.48683" lon="5.52534">
        <ele>508.2</ele>
        <time>2023-08-30T11:35:22Z</time>
      </trkpt>
      <trkpt lat="46.48676" lon="5.52533">
        <ele>507.6</ele>
        <time>2023-08-30T11:35:23Z</time>
      </trkpt>
      <trkpt lat="46.48669" lon="5.52532">
        <ele>507.6</ele>
        <time>2023-08-30T11:35:24Z</time>
      </trkpt>
      <trkpt lat="46.48662" lon="5.52531">
        <ele>507.6</ele>
        <time>2023-08-30T11:35:25Z</time>
      </trkpt>
      <trkpt lat="46.48656" lon="5.52529">
        <ele>508.2</ele>
        <time>2023-08-30T11:35:26Z</time>
      </trkpt>
      <trkpt lat="46.48649" lon="5.52528">
        <ele>508.2</ele>
        <time>2023-08-30T11:35:27Z</time>
      </trkpt>
      <trkpt lat="46.48643" lon="5.52527">
        <ele>508.6</ele>
        <time>2023-08-30T11:35:28Z</time>
      </trkpt>
      <trkpt lat="46.48637" lon="5.52526">
        <ele>508.6</ele>
        <time>2023-08-30T11:35:29Z</time>
      </trkpt>
      <trkpt lat="46.4863" lon="5.52524">
        <ele>508.6</ele>
        <time>2023-08-30T11:35:30Z</time>
      </trkpt>
      <trkpt lat="46.48624" lon="5.52522">
        <ele>508.6</ele>
        <time>2023-08-30T11:35:31Z</time>
      </trkpt>
      <trkpt lat="46.48618" lon="5.52521">
        <ele>508.6</ele>
        <time>2023-08-30T11:35:32Z</time>
      </trkpt>
      <trkpt lat="46.48612" lon="5.52519">
        <ele>508.4</ele>
        <time>2023-08-30T11:35:33Z</time>
      </trkpt>
      <trkpt lat="46.48606" lon="5.52518">
        <ele>508.4</ele>
        <time>2023-08-30T11:35:34Z</time>
      </trkpt>
      <trkpt lat="46.486" lon="5.52516">
        <ele>508.4</ele>
        <time>2023-08-30T11:35:35Z</time>
      </trkpt>
      <trkpt lat="46.48594" lon="5.52514">
        <ele>508.4</ele>
        <time>2023-08-30T11:35:36Z</time>
      </trkpt>
      <trkpt lat="46.48588" lon="5.52511">
        <ele>508.4</ele>
        <time>2023-08-30T11:35:37Z</time>
      </trkpt>
      <trkpt lat="46.48582" lon="5.52508">
        <ele>508.4</ele>
        <time>2023-08-30T11:35:38Z</time>
      </trkpt>
      <trkpt lat="46.48576" lon="5.52505">
        <ele>508.4</ele>
        <time>2023-08-30T11:35:39Z</time>
      </trkpt>
      <trkpt lat="46.4857" lon="5.52502">
        <ele>508.4</ele>
        <time>2023-08-30T11:35:40Z</time>
      </trkpt>
      <trkpt lat="46.48564" lon="5.52499">
        <ele>508.4</ele>
        <time>2023-08-30T11:35:41Z</time>
      </trkpt>
      <trkpt lat="46.48558" lon="5.52495">
        <ele>508.8</ele>
        <time>2023-08-30T11:35:42Z</time>
      </trkpt>
      <trkpt lat="46.48552" lon="5.52493">
        <ele>508.8</ele>
        <time>2023-08-30T11:35:43Z</time>
      </trkpt>
      <trkpt lat="46.48546" lon="5.5249">
        <ele>508.8</ele>
        <time>2023-08-30T11:35:44Z</time>
      </trkpt>
      <trkpt lat="46.4854" lon="5.52487">
        <ele>508.8</ele>
        <time>2023-08-30T11:35:45Z</time>
      </trkpt>
      <trkpt lat="46.48534" lon="5.52485">
        <ele>508.8</ele>
        <time>2023-08-30T11:35:46Z</time>
      </trkpt>
      <trkpt lat="46.48528" lon="5.52483">
        <ele>508.6</ele>
        <time>2023-08-30T11:35:47Z</time>
      </trkpt>
      <trkpt lat="46.48523" lon="5.52482">
        <ele>508.6</ele>
        <time>2023-08-30T11:35:48Z</time>
      </trkpt>
      <trkpt lat="46.48517" lon="5.5248">
        <ele>508.6</ele>
        <time>2023-08-30T11:35:49Z</time>
      </trkpt>
      <trkpt lat="46.48512" lon="5.52478">
        <ele>509</ele>
        <time>2023-08-30T11:35:50Z</time>
      </trkpt>
      <trkpt lat="46.48506" lon="5.52477">
        <ele>509</ele>
        <time>2023-08-30T11:35:51Z</time>
      </trkpt>
      <trkpt lat="46.48498" lon="5.52474">
        <ele>509</ele>
        <time>2023-08-30T11:35:52Z</time>
      </trkpt>
      <trkpt lat="46.48496" lon="5.52474">
        <ele>509</ele>
        <time>2023-08-30T11:35:53Z</time>
      </trkpt>
      <trkpt lat="46.48491" lon="5.52472">
        <ele>510</ele>
        <time>2023-08-30T11:35:54Z</time>
      </trkpt>
      <trkpt lat="46.48486" lon="5.52469">
        <ele>509.6</ele>
        <time>2023-08-30T11:35:55Z</time>
      </trkpt>
      <trkpt lat="46.48481" lon="5.52467">
        <ele>509.6</ele>
        <time>2023-08-30T11:35:56Z</time>
      </trkpt>
      <trkpt lat="46.48477" lon="5.52465">
        <ele>509.6</ele>
        <time>2023-08-30T11:35:57Z</time>
      </trkpt>
      <trkpt lat="46.48473" lon="5.52464">
        <ele>510.4</ele>
        <time>2023-08-30T11:35:58Z</time>
      </trkpt>
      <trkpt lat="46.48469" lon="5.52462">
        <ele>511.4</ele>
        <time>2023-08-30T11:35:59Z</time>
      </trkpt>
      <trkpt lat="46.48465" lon="5.5246">
        <ele>511.4</ele>
        <time>2023-08-30T11:36:00Z</time>
      </trkpt>
      <trkpt lat="46.48461" lon="5.52459">
        <ele>511.4</ele>
        <time>2023-08-30T11:36:01Z</time>
      </trkpt>
      <trkpt lat="46.48458" lon="5.52458">
        <ele>511.4</ele>
        <time>2023-08-30T11:36:02Z</time>
      </trkpt>
      <trkpt lat="46.48454" lon="5.52457">
        <ele>511.2</ele>
        <time>2023-08-30T11:36:03Z</time>
      </trkpt>
      <trkpt lat="46.4845" lon="5.52456">
        <ele>511.4</ele>
        <time>2023-08-30T11:36:04Z</time>
      </trkpt>
      <trkpt lat="46.48446" lon="5.52454">
        <ele>511.4</ele>
        <time>2023-08-30T11:36:05Z</time>
      </trkpt>
      <trkpt lat="46.48442" lon="5.52453">
        <ele>511.4</ele>
        <time>2023-08-30T11:36:06Z</time>
      </trkpt>
      <trkpt lat="46.48439" lon="5.52451">
        <ele>511.4</ele>
        <time>2023-08-30T11:36:07Z</time>
      </trkpt>
      <trkpt lat="46.48435" lon="5.52449">
        <ele>511.6</ele>
        <time>2023-08-30T11:36:08Z</time>
      </trkpt>
      <trkpt lat="46.48431" lon="5.52447">
        <ele>511.6</ele>
        <time>2023-08-30T11:36:09Z</time>
      </trkpt>
      <trkpt lat="46.48427" lon="5.52446">
        <ele>511.6</ele>
        <time>2023-08-30T11:36:10Z</time>
      </trkpt>
      <trkpt lat="46.48424" lon="5.52444">
        <ele>511.6</ele>
        <time>2023-08-30T11:36:11Z</time>
      </trkpt>
      <trkpt lat="46.4842" lon="5.52444">
        <ele>512.6</ele>
        <time>2023-08-30T11:36:12Z</time>
      </trkpt>
      <trkpt lat="46.48416" lon="5.52442">
        <ele>512.6</ele>
        <time>2023-08-30T11:36:13Z</time>
      </trkpt>
      <trkpt lat="46.48412" lon="5.52441">
        <ele>512.6</ele>
        <time>2023-08-30T11:36:14Z</time>
      </trkpt>
      <trkpt lat="46.48409" lon="5.52441">
        <ele>512.6</ele>
        <time>2023-08-30T11:36:15Z</time>
      </trkpt>
      <trkpt lat="46.48405" lon="5.5244">
        <ele>512.6</ele>
        <time>2023-08-30T11:36:16Z</time>
      </trkpt>
      <trkpt lat="46.48402" lon="5.52439">
        <ele>513.4</ele>
        <time>2023-08-30T11:36:17Z</time>
      </trkpt>
      <trkpt lat="46.48398" lon="5.52438">
        <ele>512.8</ele>
        <time>2023-08-30T11:36:18Z</time>
      </trkpt>
      <trkpt lat="46.48394" lon="5.52437">
        <ele>512.8</ele>
        <time>2023-08-30T11:36:19Z</time>
      </trkpt>
      <trkpt lat="46.4839" lon="5.52435">
        <ele>512.8</ele>
        <time>2023-08-30T11:36:20Z</time>
      </trkpt>
      <trkpt lat="46.48386" lon="5.52434">
        <ele>513.4</ele>
        <time>2023-08-30T11:36:21Z</time>
      </trkpt>
      <trkpt lat="46.48382" lon="5.52432">
        <ele>513.2</ele>
        <time>2023-08-30T11:36:22Z</time>
      </trkpt>
      <trkpt lat="46.48378" lon="5.52431">
        <ele>513.2</ele>
        <time>2023-08-30T11:36:23Z</time>
      </trkpt>
      <trkpt lat="46.48373" lon="5.5243">
        <ele>513.2</ele>
        <time>2023-08-30T11:36:24Z</time>
      </trkpt>
      <trkpt lat="46.48369" lon="5.52429">
        <ele>513.2</ele>
        <time>2023-08-30T11:36:25Z</time>
      </trkpt>
      <trkpt lat="46.48365" lon="5.52427">
        <ele>513.4</ele>
        <time>2023-08-30T11:36:26Z</time>
      </trkpt>
      <trkpt lat="46.4836" lon="5.52426">
        <ele>513.6</ele>
        <time>2023-08-30T11:36:27Z</time>
      </trkpt>
      <trkpt lat="46.48356" lon="5.52425">
        <ele>513.6</ele>
        <time>2023-08-30T11:36:28Z</time>
      </trkpt>
      <trkpt lat="46.48352" lon="5.52424">
        <ele>513.6</ele>
        <time>2023-08-30T11:36:29Z</time>
      </trkpt>
      <trkpt lat="46.48347" lon="5.52423">
        <ele>513.6</ele>
        <time>2023-08-30T11:36:30Z</time>
      </trkpt>
      <trkpt lat="46.48343" lon="5.52422">
        <ele>513.6</ele>
        <time>2023-08-30T11:36:31Z</time>
      </trkpt>
      <trkpt lat="46.48338" lon="5.5242">
        <ele>513.6</ele>
        <time>2023-08-30T11:36:32Z</time>
      </trkpt>
      <trkpt lat="46.48331" lon="5.52418">
        <ele>513.6</ele>
        <time>2023-08-30T11:36:33Z</time>
      </trkpt>
      <trkpt lat="46.48329" lon="5.52417">
        <ele>513.6</ele>
        <time>2023-08-30T11:36:34Z</time>
      </trkpt>
      <trkpt lat="46.48324" lon="5.52416">
        <ele>513.6</ele>
        <time>2023-08-30T11:36:35Z</time>
      </trkpt>
      <trkpt lat="46.48317" lon="5.52413">
        <ele>513.2</ele>
        <time>2023-08-30T11:36:36Z</time>
      </trkpt>
      <trkpt lat="46.48314" lon="5.52413">
        <ele>513.2</ele>
        <time>2023-08-30T11:36:37Z</time>
      </trkpt>
      <trkpt lat="46.48309" lon="5.52411">
        <ele>513.2</ele>
        <time>2023-08-30T11:36:38Z</time>
      </trkpt>
      <trkpt lat="46.48305" lon="5.5241">
        <ele>513.6</ele>
        <time>2023-08-30T11:36:39Z</time>
      </trkpt>
      <trkpt lat="46.483" lon="5.52409">
        <ele>513.4</ele>
        <time>2023-08-30T11:36:40Z</time>
      </trkpt>
      <trkpt lat="46.48296" lon="5.52408">
        <ele>513.4</ele>
        <time>2023-08-30T11:36:41Z</time>
      </trkpt>
      <trkpt lat="46.48291" lon="5.52407">
        <ele>513.4</ele>
        <time>2023-08-30T11:36:42Z</time>
      </trkpt>
      <trkpt lat="46.48286" lon="5.52406">
        <ele>513.4</ele>
        <time>2023-08-30T11:36:43Z</time>
      </trkpt>
      <trkpt lat="46.48282" lon="5.52405">
        <ele>513.4</ele>
        <time>2023-08-30T11:36:44Z</time>
      </trkpt>
      <trkpt lat="46.48277" lon="5.52404">
        <ele>513.4</ele>
        <time>2023-08-30T11:36:45Z</time>
      </trkpt>
      <trkpt lat="46.48272" lon="5.52403">
        <ele>513.4</ele>
        <time>2023-08-30T11:36:46Z</time>
      </trkpt>
      <trkpt lat="46.48268" lon="5.52401">
        <ele>513.4</ele>
        <time>2023-08-30T11:36:47Z</time>
      </trkpt>
      <trkpt lat="46.48263" lon="5.524">
        <ele>514.4</ele>
        <time>2023-08-30T11:36:48Z</time>
      </trkpt>
      <trkpt lat="46.48259" lon="5.52398">
        <ele>514.4</ele>
        <time>2023-08-30T11:36:49Z</time>
      </trkpt>
      <trkpt lat="46.48255" lon="5.52397">
        <ele>514.4</ele>
        <time>2023-08-30T11:36:50Z</time>
      </trkpt>
      <trkpt lat="46.4825" lon="5.52396">
        <ele>514.4</ele>
        <time>2023-08-30T11:36:51Z</time>
      </trkpt>
      <trkpt lat="46.48246" lon="5.52395">
        <ele>514.2</ele>
        <time>2023-08-30T11:36:52Z</time>
      </trkpt>
      <trkpt lat="46.48243" lon="5.52394">
        <ele>514.4</ele>
        <time>2023-08-30T11:36:53Z</time>
      </trkpt>
      <trkpt lat="46.48241" lon="5.52393">
        <ele>514.4</ele>
        <time>2023-08-30T11:36:54Z</time>
      </trkpt>
      <trkpt lat="46.4824" lon="5.52393">
        <ele>514.4</ele>
        <time>2023-08-30T11:36:55Z</time>
      </trkpt>
      <trkpt lat="46.4824" lon="5.52392">
        <ele>514.8</ele>
        <time>2023-08-30T11:36:56Z</time>
      </trkpt>
      <trkpt lat="46.48239" lon="5.5239">
        <ele>514.8</ele>
        <time>2023-08-30T11:36:57Z</time>
      </trkpt>
      <trkpt lat="46.48239" lon="5.52388">
        <ele>514.8</ele>
        <time>2023-08-30T11:36:58Z</time>
      </trkpt>
      <trkpt lat="46.48239" lon="5.52386">
        <ele>514.8</ele>
        <time>2023-08-30T11:36:59Z</time>
      </trkpt>
      <trkpt lat="46.48239" lon="5.52383">
        <ele>514.8</ele>
        <time>2023-08-30T11:37:00Z</time>
      </trkpt>
      <trkpt lat="46.48239" lon="5.5238">
        <ele>514.8</ele>
        <time>2023-08-30T11:37:01Z</time>
      </trkpt>
      <trkpt lat="46.48238" lon="5.52377">
        <ele>514.8</ele>
        <time>2023-08-30T11:37:02Z</time>
      </trkpt>
      <trkpt lat="46.48237" lon="5.52375">
        <ele>514.8</ele>
        <time>2023-08-30T11:37:03Z</time>
      </trkpt>
      <trkpt lat="46.48236" lon="5.52373">
        <ele>514.8</ele>
        <time>2023-08-30T11:37:04Z</time>
      </trkpt>
      <trkpt lat="46.48234" lon="5.52371">
        <ele>514.8</ele>
        <time>2023-08-30T11:37:05Z</time>
      </trkpt>
      <trkpt lat="46.48233" lon="5.5237">
        <ele>514.6</ele>
        <time>2023-08-30T11:37:06Z</time>
      </trkpt>
      <trkpt lat="46.48233" lon="5.52369">
        <ele>514.6</ele>
        <time>2023-08-30T11:37:07Z</time>
      </trkpt>
      <trkpt lat="46.48232" lon="5.52368">
        <ele>514.6</ele>
        <time>2023-08-30T11:37:08Z</time>
      </trkpt>
      <trkpt lat="46.4823" lon="5.52366">
        <ele>514.4</ele>
        <time>2023-08-30T11:37:15Z</time>
      </trkpt>
      <trkpt lat="46.48229" lon="5.52365">
        <ele>514.8</ele>
        <time>2023-08-30T11:37:16Z</time>
      </trkpt>
      <trkpt lat="46.48228" lon="5.52364">
        <ele>514.8</ele>
        <time>2023-08-30T11:37:17Z</time>
      </trkpt>
      <trkpt lat="46.48227" lon="5.52363">
        <ele>514.8</ele>
        <time>2023-08-30T11:37:18Z</time>
      </trkpt>
      <trkpt lat="46.48226" lon="5.52363">
        <ele>514.4</ele>
        <time>2023-08-30T11:37:19Z</time>
      </trkpt>
      <trkpt lat="46.48225" lon="5.52363">
        <ele>515.2</ele>
        <time>2023-08-30T11:37:59Z</time>
      </trkpt>
      <trkpt lat="46.48224" lon="5.52362">
        <ele>515.2</ele>
        <time>2023-08-30T11:38:00Z</time>
      </trkpt>
      <trkpt lat="46.48223" lon="5.52362">
        <ele>515.2</ele>
        <time>2023-08-30T11:38:01Z</time>
      </trkpt>
      <trkpt lat="46.48222" lon="5.52361">
        <ele>515</ele>
        <time>2023-08-30T11:38:02Z</time>
      </trkpt>
      <trkpt lat="46.48222" lon="5.52361">
        <ele>515</ele>
        <time>2023-08-30T11:38:03Z</time>
      </trkpt>
      <trkpt lat="46.48221" lon="5.52361">
        <ele>515.2</ele>
        <time>2023-08-30T11:38:04Z</time>
      </trkpt>
      <trkpt lat="46.4822" lon="5.5236">
        <ele>515.2</ele>
        <time>2023-08-30T11:38:05Z</time>
      </trkpt>
      <trkpt lat="46.48219" lon="5.5236">
        <ele>515.2</ele>
        <time>2023-08-30T11:38:06Z</time>
      </trkpt>
      <trkpt lat="46.48218" lon="5.52359">
        <ele>515.6</ele>
        <time>2023-08-30T11:38:07Z</time>
      </trkpt>
      <trkpt lat="46.48217" lon="5.52359">
        <ele>516</ele>
        <time>2023-08-30T11:38:08Z</time>
      </trkpt>
      <trkpt lat="46.48216" lon="5.52358">
        <ele>516</ele>
        <time>2023-08-30T11:38:09Z</time>
      </trkpt>
      <trkpt lat="46.48215" lon="5.52358">
        <ele>516</ele>
        <time>2023-08-30T11:38:10Z</time>
      </trkpt>
      <trkpt lat="46.48214" lon="5.52358">
        <ele>516.4</ele>
        <time>2023-08-30T11:38:11Z</time>
      </trkpt>
      <trkpt lat="46.48213" lon="5.52357">
        <ele>516.6</ele>
        <time>2023-08-30T11:38:12Z</time>
      </trkpt>
      <trkpt lat="46.48213" lon="5.52357">
        <ele>516.6</ele>
        <time>2023-08-30T11:38:13Z</time>
      </trkpt>
      <trkpt lat="46.48212" lon="5.52356">
        <ele>516.6</ele>
        <time>2023-08-30T11:38:14Z</time>
      </trkpt>
      <trkpt lat="46.48211" lon="5.52356">
        <ele>517</ele>
        <time>2023-08-30T11:38:15Z</time>
      </trkpt>
      <trkpt lat="46.4821" lon="5.52356">
        <ele>517</ele>
        <time>2023-08-30T11:38:16Z</time>
      </trkpt>
      <trkpt lat="46.4821" lon="5.52356">
        <ele>517.2</ele>
        <time>2023-08-30T11:38:17Z</time>
      </trkpt>
      <trkpt lat="46.48209" lon="5.52355">
        <ele>517.2</ele>
        <time>2023-08-30T11:38:18Z</time>
      </trkpt>
      <trkpt lat="46.48211" lon="5.52351">
        <ele>512</ele>
        <time>2023-08-30T11:57:11Z</time>
      </trkpt>
      <trkpt lat="46.48212" lon="5.52352">
        <ele>512</ele>
        <time>2023-08-30T11:57:12Z</time>
      </trkpt>
      <trkpt lat="46.48213" lon="5.52352">
        <ele>512</ele>
        <time>2023-08-30T11:57:13Z</time>
      </trkpt>
      <trkpt lat="46.48214" lon="5.52353">
        <ele>512</ele>
        <time>2023-08-30T11:57:14Z</time>
      </trkpt>
      <trkpt lat="46.48215" lon="5.52353">
        <ele>512</ele>
        <time>2023-08-30T11:57:15Z</time>
      </trkpt>
      <trkpt lat="46.48217" lon="5.52352">
        <ele>512</ele>
        <time>2023-08-30T11:57:16Z</time>
      </trkpt>
      <trkpt lat="46.48218" lon="5.52352">
        <ele>512</ele>
        <time>2023-08-30T11:57:17Z</time>
      </trkpt>
      <trkpt lat="46.48218" lon="5.52352">
        <ele>512</ele>
        <time>2023-08-30T11:57:18Z</time>
      </trkpt>
      <trkpt lat="46.48219" lon="5.52352">
        <ele>512</ele>
        <time>2023-08-30T11:57:19Z</time>
      </trkpt>
      <trkpt lat="46.4822" lon="5.52352">
        <ele>512.4</ele>
        <time>2023-08-30T11:57:20Z</time>
      </trkpt>
      <trkpt lat="46.48221" lon="5.52353">
        <ele>512.4</ele>
        <time>2023-08-30T11:57:21Z</time>
      </trkpt>
      <trkpt lat="46.48222" lon="5.52353">
        <ele>512.4</ele>
        <time>2023-08-30T11:57:22Z</time>
      </trkpt>
      <trkpt lat="46.48223" lon="5.52353">
        <ele>512.4</ele>
        <time>2023-08-30T11:57:23Z</time>
      </trkpt>
      <trkpt lat="46.48224" lon="5.52353">
        <ele>512.4</ele>
        <time>2023-08-30T11:57:24Z</time>
      </trkpt>
      <trkpt lat="46.48226" lon="5.52354">
        <ele>512.8</ele>
        <time>2023-08-30T11:57:25Z</time>
      </trkpt>
      <trkpt lat="46.48227" lon="5.52354">
        <ele>512.8</ele>
        <time>2023-08-30T11:57:26Z</time>
      </trkpt>
      <trkpt lat="46.48228" lon="5.52354">
        <ele>512.8</ele>
        <time>2023-08-30T11:57:27Z</time>
      </trkpt>
      <trkpt lat="46.48229" lon="5.52354">
        <ele>512.8</ele>
        <time>2023-08-30T11:57:28Z</time>
      </trkpt>
      <trkpt lat="46.4823" lon="5.52354">
        <ele>512.8</ele>
        <time>2023-08-30T11:57:29Z</time>
      </trkpt>
      <trkpt lat="46.48231" lon="5.52354">
        <ele>512.8</ele>
        <time>2023-08-30T11:57:30Z</time>
      </trkpt>
      <trkpt lat="46.48231" lon="5.52355">
        <ele>513</ele>
        <time>2023-08-30T11:57:31Z</time>
      </trkpt>
      <trkpt lat="46.48232" lon="5.52356">
        <ele>513</ele>
        <time>2023-08-30T11:57:32Z</time>
      </trkpt>
      <trkpt lat="46.48232" lon="5.52358">
        <ele>513</ele>
        <time>2023-08-30T11:57:33Z</time>
      </trkpt>
      <trkpt lat="46.48233" lon="5.5236">
        <ele>513</ele>
        <time>2023-08-30T11:57:34Z</time>
      </trkpt>
      <trkpt lat="46.48234" lon="5.52361">
        <ele>513</ele>
        <time>2023-08-30T11:57:35Z</time>
      </trkpt>
      <trkpt lat="46.48234" lon="5.52362">
        <ele>513.2</ele>
        <time>2023-08-30T11:57:36Z</time>
      </trkpt>
      <trkpt lat="46.48235" lon="5.52364">
        <ele>513.2</ele>
        <time>2023-08-30T11:57:37Z</time>
      </trkpt>
      <trkpt lat="46.48236" lon="5.52365">
        <ele>513.2</ele>
        <time>2023-08-30T11:57:38Z</time>
      </trkpt>
      <trkpt lat="46.48236" lon="5.52367">
        <ele>513.2</ele>
        <time>2023-08-30T11:57:39Z</time>
      </trkpt>
      <trkpt lat="46.48237" lon="5.52368">
        <ele>513.2</ele>
        <time>2023-08-30T11:57:40Z</time>
      </trkpt>
      <trkpt lat="46.48238" lon="5.52369">
        <ele>513.2</ele>
        <time>2023-08-30T11:57:41Z</time>
      </trkpt>
      <trkpt lat="46.48238" lon="5.52371">
        <ele>513.2</ele>
        <time>2023-08-30T11:57:42Z</time>
      </trkpt>
      <trkpt lat="46.48239" lon="5.52372">
        <ele>513.2</ele>
        <time>2023-08-30T11:57:43Z</time>
      </trkpt>
      <trkpt lat="46.48239" lon="5.52373">
        <ele>513.2</ele>
        <time>2023-08-30T11:57:44Z</time>
      </trkpt>
      <trkpt lat="46.48239" lon="5.52374">
        <ele>513.2</ele>
        <time>2023-08-30T11:57:45Z</time>
      </trkpt>
      <trkpt lat="46.48239" lon="5.52374">
        <ele>513.2</ele>
        <time>2023-08-30T11:57:46Z</time>
      </trkpt>
      <trkpt lat="46.48238" lon="5.52385">
        <ele>513</ele>
        <time>2023-08-30T11:57:53Z</time>
      </trkpt>
      <trkpt lat="46.48237" lon="5.52385">
        <ele>513</ele>
        <time>2023-08-30T11:57:54Z</time>
      </trkpt>
      <trkpt lat="46.48236" lon="5.52385">
        <ele>513</ele>
        <time>2023-08-30T11:57:55Z</time>
      </trkpt>
      <trkpt lat="46.48235" lon="5.52385">
        <ele>512.8</ele>
        <time>2023-08-30T11:57:56Z</time>
      </trkpt>
      <trkpt lat="46.48235" lon="5.52385">
        <ele>512.8</ele>
        <time>2023-08-30T11:57:57Z</time>
      </trkpt>
      <trkpt lat="46.48234" lon="5.52385">
        <ele>512.8</ele>
        <time>2023-08-30T11:57:58Z</time>
      </trkpt>
      <trkpt lat="46.48233" lon="5.52386">
        <ele>512.8</ele>
        <time>2023-08-30T11:57:59Z</time>
      </trkpt>
      <trkpt lat="46.48232" lon="5.52387">
        <ele>512.8</ele>
        <time>2023-08-30T11:58:00Z</time>
      </trkpt>
      <trkpt lat="46.48231" lon="5.52387">
        <ele>512.8</ele>
        <time>2023-08-30T11:58:01Z</time>
      </trkpt>
      <trkpt lat="46.4823" lon="5.52386">
        <ele>512.8</ele>
        <time>2023-08-30T11:58:02Z</time>
      </trkpt>
      <trkpt lat="46.4823" lon="5.52386">
        <ele>512.8</ele>
        <time>2023-08-30T11:58:03Z</time>
      </trkpt>
      <trkpt lat="46.48229" lon="5.52385">
        <ele>512.8</ele>
        <time>2023-08-30T11:58:04Z</time>
      </trkpt>
      <trkpt lat="46.48229" lon="5.52385">
        <ele>513</ele>
        <time>2023-08-30T11:58:05Z</time>
      </trkpt>
      <trkpt lat="46.4822" lon="5.52386">
        <ele>513.2</ele>
        <time>2023-08-30T11:58:27Z</time>
      </trkpt>
      <trkpt lat="46.48218" lon="5.52386">
        <ele>513.6</ele>
        <time>2023-08-30T11:58:28Z</time>
      </trkpt>
      <trkpt lat="46.48217" lon="5.52386">
        <ele>513.6</ele>
        <time>2023-08-30T11:58:29Z</time>
      </trkpt>
      <trkpt lat="46.48215" lon="5.52385">
        <ele>513.6</ele>
        <time>2023-08-30T11:58:30Z</time>
      </trkpt>
      <trkpt lat="46.48213" lon="5.52385">
        <ele>513.6</ele>
        <time>2023-08-30T11:58:31Z</time>
      </trkpt>
      <trkpt lat="46.48211" lon="5.52384">
        <ele>513.6</ele>
        <time>2023-08-30T11:58:32Z</time>
      </trkpt>
      <trkpt lat="46.48209" lon="5.52382">
        <ele>513.8</ele>
        <time>2023-08-30T11:58:33Z</time>
      </trkpt>
      <trkpt lat="46.48207" lon="5.52381">
        <ele>513.8</ele>
        <time>2023-08-30T11:58:34Z</time>
      </trkpt>
      <trkpt lat="46.48204" lon="5.5238">
        <ele>513.8</ele>
        <time>2023-08-30T11:58:35Z</time>
      </trkpt>
      <trkpt lat="46.48202" lon="5.52379">
        <ele>513.8</ele>
        <time>2023-08-30T11:58:36Z</time>
      </trkpt>
      <trkpt lat="46.48199" lon="5.52378">
        <ele>513.8</ele>
        <time>2023-08-30T11:58:37Z</time>
      </trkpt>
      <trkpt lat="46.48196" lon="5.52377">
        <ele>513.8</ele>
        <time>2023-08-30T11:58:38Z</time>
      </trkpt>
      <trkpt lat="46.48194" lon="5.52376">
        <ele>513.8</ele>
        <time>2023-08-30T11:58:39Z</time>
      </trkpt>
      <trkpt lat="46.48191" lon="5.52374">
        <ele>514.4</ele>
        <time>2023-08-30T11:58:40Z</time>
      </trkpt>
      <trkpt lat="46.48188" lon="5.52372">
        <ele>514.4</ele>
        <time>2023-08-30T11:58:41Z</time>
      </trkpt>
      <trkpt lat="46.48185" lon="5.52371">
        <ele>514.4</ele>
        <time>2023-08-30T11:58:42Z</time>
      </trkpt>
      <trkpt lat="46.48182" lon="5.52369">
        <ele>514.4</ele>
        <time>2023-08-30T11:58:43Z</time>
      </trkpt>
      <trkpt lat="46.48179" lon="5.52367">
        <ele>514.4</ele>
        <time>2023-08-30T11:58:44Z</time>
      </trkpt>
      <trkpt lat="46.48176" lon="5.52366">
        <ele>514.6</ele>
        <time>2023-08-30T11:58:45Z</time>
      </trkpt>
      <trkpt lat="46.48174" lon="5.52364">
        <ele>514.8</ele>
        <time>2023-08-30T11:58:46Z</time>
      </trkpt>
      <trkpt lat="46.48171" lon="5.52363">
        <ele>514.8</ele>
        <time>2023-08-30T11:58:47Z</time>
      </trkpt>
      <trkpt lat="46.48168" lon="5.5236">
        <ele>514.8</ele>
        <time>2023-08-30T11:58:48Z</time>
      </trkpt>
      <trkpt lat="46.48166" lon="5.52357">
        <ele>514.8</ele>
        <time>2023-08-30T11:58:49Z</time>
      </trkpt>
      <trkpt lat="46.48162" lon="5.52355">
        <ele>515.2</ele>
        <time>2023-08-30T11:58:50Z</time>
      </trkpt>
      <trkpt lat="46.48159" lon="5.52353">
        <ele>515.2</ele>
        <time>2023-08-30T11:58:51Z</time>
      </trkpt>
      <trkpt lat="46.48156" lon="5.52351">
        <ele>515.2</ele>
        <time>2023-08-30T11:58:52Z</time>
      </trkpt>
      <trkpt lat="46.48153" lon="5.52349">
        <ele>515.2</ele>
        <time>2023-08-30T11:58:53Z</time>
      </trkpt>
      <trkpt lat="46.48149" lon="5.52348">
        <ele>515.2</ele>
        <time>2023-08-30T11:58:54Z</time>
      </trkpt>
      <trkpt lat="46.48146" lon="5.52346">
        <ele>515.4</ele>
        <time>2023-08-30T11:58:55Z</time>
      </trkpt>
      <trkpt lat="46.48142" lon="5.52344">
        <ele>515.4</ele>
        <time>2023-08-30T11:58:56Z</time>
      </trkpt>
      <trkpt lat="46.48138" lon="5.52343">
        <ele>515.4</ele>
        <time>2023-08-30T11:58:57Z</time>
      </trkpt>
      <trkpt lat="46.48133" lon="5.52341">
        <ele>515.6</ele>
        <time>2023-08-30T11:58:58Z</time>
      </trkpt>
      <trkpt lat="46.48129" lon="5.5234">
        <ele>515.6</ele>
        <time>2023-08-30T11:58:59Z</time>
      </trkpt>
      <trkpt lat="46.48125" lon="5.52339">
        <ele>515.6</ele>
        <time>2023-08-30T11:59:00Z</time>
      </trkpt>
      <trkpt lat="46.48121" lon="5.52338">
        <ele>515.6</ele>
        <time>2023-08-30T11:59:01Z</time>
      </trkpt>
      <trkpt lat="46.48116" lon="5.52338">
        <ele>515.6</ele>
        <time>2023-08-30T11:59:02Z</time>
      </trkpt>
      <trkpt lat="46.48112" lon="5.52337">
        <ele>515.6</ele>
        <time>2023-08-30T11:59:03Z</time>
      </trkpt>
      <trkpt lat="46.48107" lon="5.52337">
        <ele>515.6</ele>
        <time>2023-08-30T11:59:04Z</time>
      </trkpt>
      <trkpt lat="46.48102" lon="5.52336">
        <ele>515.6</ele>
        <time>2023-08-30T11:59:05Z</time>
      </trkpt>
      <trkpt lat="46.48097" lon="5.52335">
        <ele>515.6</ele>
        <time>2023-08-30T11:59:06Z</time>
      </trkpt>
      <trkpt lat="46.48091" lon="5.52334">
        <ele>515.6</ele>
        <time>2023-08-30T11:59:07Z</time>
      </trkpt>
      <trkpt lat="46.48086" lon="5.52333">
        <ele>515.6</ele>
        <time>2023-08-30T11:59:08Z</time>
      </trkpt>
      <trkpt lat="46.4808" lon="5.52331">
        <ele>514.8</ele>
        <time>2023-08-30T11:59:09Z</time>
      </trkpt>
      <trkpt lat="46.48074" lon="5.52329">
        <ele>514.8</ele>
        <time>2023-08-30T11:59:10Z</time>
      </trkpt>
      <trkpt lat="46.48068" lon="5.52325">
        <ele>514.8</ele>
        <time>2023-08-30T11:59:11Z</time>
      </trkpt>
      <trkpt lat="46.48062" lon="5.52321">
        <ele>514.8</ele>
        <time>2023-08-30T11:59:12Z</time>
      </trkpt>
      <trkpt lat="46.48056" lon="5.52317">
        <ele>515</ele>
        <time>2023-08-30T11:59:13Z</time>
      </trkpt>
      <trkpt lat="46.48047" lon="5.52309">
        <ele>515</ele>
        <time>2023-08-30T11:59:14Z</time>
      </trkpt>
      <trkpt lat="46.48045" lon="5.52306">
        <ele>515</ele>
        <time>2023-08-30T11:59:15Z</time>
      </trkpt>
      <trkpt lat="46.48038" lon="5.52301">
        <ele>514.2</ele>
        <time>2023-08-30T11:59:16Z</time>
      </trkpt>
      <trkpt lat="46.48032" lon="5.52296">
        <ele>514.2</ele>
        <time>2023-08-30T11:59:17Z</time>
      </trkpt>
      <trkpt lat="46.48026" lon="5.52291">
        <ele>514.2</ele>
        <time>2023-08-30T11:59:18Z</time>
      </trkpt>
      <trkpt lat="46.48019" lon="5.52287">
        <ele>514.2</ele>
        <time>2023-08-30T11:59:19Z</time>
      </trkpt>
      <trkpt lat="46.4801" lon="5.5228">
        <ele>514.2</ele>
        <time>2023-08-30T11:59:20Z</time>
      </trkpt>
      <trkpt lat="46.48007" lon="5.52278">
        <ele>514.2</ele>
        <time>2023-08-30T11:59:21Z</time>
      </trkpt>
      <trkpt lat="46.48001" lon="5.52273">
        <ele>514.2</ele>
        <time>2023-08-30T11:59:22Z</time>
      </trkpt>
      <trkpt lat="46.47995" lon="5.52268">
        <ele>513.6</ele>
        <time>2023-08-30T11:59:23Z</time>
      </trkpt>
      <trkpt lat="46.47989" lon="5.52264">
        <ele>513.6</ele>
        <time>2023-08-30T11:59:24Z</time>
      </trkpt>
      <trkpt lat="46.47983" lon="5.5226">
        <ele>513.6</ele>
        <time>2023-08-30T11:59:25Z</time>
      </trkpt>
      <trkpt lat="46.47977" lon="5.52256">
        <ele>513.6</ele>
        <time>2023-08-30T11:59:26Z</time>
      </trkpt>
      <trkpt lat="46.47971" lon="5.52253">
        <ele>513.4</ele>
        <time>2023-08-30T11:59:27Z</time>
      </trkpt>
      <trkpt lat="46.47965" lon="5.5225">
        <ele>513.4</ele>
        <time>2023-08-30T11:59:28Z</time>
      </trkpt>
      <trkpt lat="46.4796" lon="5.52248">
        <ele>513.4</ele>
        <time>2023-08-30T11:59:29Z</time>
      </trkpt>
      <trkpt lat="46.47954" lon="5.52245">
        <ele>512.6</ele>
        <time>2023-08-30T11:59:30Z</time>
      </trkpt>
      <trkpt lat="46.47949" lon="5.52243">
        <ele>512.6</ele>
        <time>2023-08-30T11:59:31Z</time>
      </trkpt>
      <trkpt lat="46.47943" lon="5.52241">
        <ele>512.6</ele>
        <time>2023-08-30T11:59:32Z</time>
      </trkpt>
      <trkpt lat="46.47938" lon="5.5224">
        <ele>512.6</ele>
        <time>2023-08-30T11:59:33Z</time>
      </trkpt>
      <trkpt lat="46.47932" lon="5.52239">
        <ele>512.6</ele>
        <time>2023-08-30T11:59:34Z</time>
      </trkpt>
      <trkpt lat="46.47927" lon="5.52239">
        <ele>512.6</ele>
        <time>2023-08-30T11:59:35Z</time>
      </trkpt>
      <trkpt lat="46.47922" lon="5.52239">
        <ele>512.6</ele>
        <time>2023-08-30T11:59:36Z</time>
      </trkpt>
      <trkpt lat="46.47917" lon="5.52241">
        <ele>512.2</ele>
        <time>2023-08-30T11:59:37Z</time>
      </trkpt>
      <trkpt lat="46.47913" lon="5.52243">
        <ele>512.2</ele>
        <time>2023-08-30T11:59:38Z</time>
      </trkpt>
      <trkpt lat="46.47909" lon="5.52245">
        <ele>512.2</ele>
        <time>2023-08-30T11:59:39Z</time>
      </trkpt>
      <trkpt lat="46.47905" lon="5.52248">
        <ele>512.2</ele>
        <time>2023-08-30T11:59:40Z</time>
      </trkpt>
      <trkpt lat="46.47902" lon="5.5225">
        <ele>512.2</ele>
        <time>2023-08-30T11:59:41Z</time>
      </trkpt>
      <trkpt lat="46.47898" lon="5.52252">
        <ele>512.2</ele>
        <time>2023-08-30T11:59:42Z</time>
      </trkpt>
      <trkpt lat="46.47894" lon="5.52255">
        <ele>512.2</ele>
        <time>2023-08-30T11:59:43Z</time>
      </trkpt>
      <trkpt lat="46.47891" lon="5.52258">
        <ele>512.2</ele>
        <time>2023-08-30T11:59:44Z</time>
      </trkpt>
      <trkpt lat="46.47888" lon="5.52261">
        <ele>512</ele>
        <time>2023-08-30T11:59:45Z</time>
      </trkpt>
      <trkpt lat="46.47884" lon="5.52264">
        <ele>512</ele>
        <time>2023-08-30T11:59:46Z</time>
      </trkpt>
      <trkpt lat="46.47879" lon="5.52267">
        <ele>512</ele>
        <time>2023-08-30T11:59:47Z</time>
      </trkpt>
      <trkpt lat="46.47877" lon="5.52268">
        <ele>512</ele>
        <time>2023-08-30T11:59:48Z</time>
      </trkpt>
      <trkpt lat="46.47873" lon="5.52271">
        <ele>512</ele>
        <time>2023-08-30T11:59:49Z</time>
      </trkpt>
      <trkpt lat="46.47869" lon="5.52274">
        <ele>512</ele>
        <time>2023-08-30T11:59:50Z</time>
      </trkpt>
      <trkpt lat="46.47865" lon="5.52276">
        <ele>512</ele>
        <time>2023-08-30T11:59:51Z</time>
      </trkpt>
      <trkpt lat="46.47861" lon="5.52279">
        <ele>512</ele>
        <time>2023-08-30T11:59:52Z</time>
      </trkpt>
      <trkpt lat="46.47857" lon="5.52283">
        <ele>512</ele>
        <time>2023-08-30T11:59:53Z</time>
      </trkpt>
      <trkpt lat="46.47853" lon="5.52286">
        <ele>512.2</ele>
        <time>2023-08-30T11:59:54Z</time>
      </trkpt>
      <trkpt lat="46.4785" lon="5.52291">
        <ele>512.2</ele>
        <time>2023-08-30T11:59:55Z</time>
      </trkpt>
      <trkpt lat="46.47846" lon="5.52294">
        <ele>512.2</ele>
        <time>2023-08-30T11:59:56Z</time>
      </trkpt>
      <trkpt lat="46.47843" lon="5.52299">
        <ele>512.2</ele>
        <time>2023-08-30T11:59:57Z</time>
      </trkpt>
      <trkpt lat="46.4784" lon="5.52303">
        <ele>512.2</ele>
        <time>2023-08-30T11:59:58Z</time>
      </trkpt>
      <trkpt lat="46.47837" lon="5.52308">
        <ele>512.2</ele>
        <time>2023-08-30T11:59:59Z</time>
      </trkpt>
      <trkpt lat="46.47834" lon="5.52313">
        <ele>512.2</ele>
        <time>2023-08-30T12:00:00Z</time>
      </trkpt>
      <trkpt lat="46.47832" lon="5.52319">
        <ele>512.2</ele>
        <time>2023-08-30T12:00:01Z</time>
      </trkpt>
      <trkpt lat="46.47829" lon="5.52324">
        <ele>512.4</ele>
        <time>2023-08-30T12:00:02Z</time>
      </trkpt>
      <trkpt lat="46.47827" lon="5.5233">
        <ele>512.4</ele>
        <time>2023-08-30T12:00:03Z</time>
      </trkpt>
      <trkpt lat="46.47824" lon="5.52335">
        <ele>512.4</ele>
        <time>2023-08-30T12:00:04Z</time>
      </trkpt>
      <trkpt lat="46.47822" lon="5.52341">
        <ele>512.4</ele>
        <time>2023-08-30T12:00:05Z</time>
      </trkpt>
      <trkpt lat="46.4782" lon="5.52347">
        <ele>512.2</ele>
        <time>2023-08-30T12:00:06Z</time>
      </trkpt>
      <trkpt lat="46.47817" lon="5.52353">
        <ele>512.2</ele>
        <time>2023-08-30T12:00:07Z</time>
      </trkpt>
      <trkpt lat="46.47815" lon="5.52358">
        <ele>512.2</ele>
        <time>2023-08-30T12:00:08Z</time>
      </trkpt>
      <trkpt lat="46.47813" lon="5.52365">
        <ele>512.2</ele>
        <time>2023-08-30T12:00:09Z</time>
      </trkpt>
      <trkpt lat="46.4781" lon="5.52371">
        <ele>511.8</ele>
        <time>2023-08-30T12:00:10Z</time>
      </trkpt>
      <trkpt lat="46.47808" lon="5.52377">
        <ele>511.8</ele>
        <time>2023-08-30T12:00:11Z</time>
      </trkpt>
      <trkpt lat="46.47805" lon="5.52383">
        <ele>512</ele>
        <time>2023-08-30T12:00:12Z</time>
      </trkpt>
      <trkpt lat="46.47802" lon="5.5239">
        <ele>512</ele>
        <time>2023-08-30T12:00:13Z</time>
      </trkpt>
      <trkpt lat="46.47799" lon="5.52396">
        <ele>512</ele>
        <time>2023-08-30T12:00:14Z</time>
      </trkpt>
      <trkpt lat="46.47796" lon="5.52402">
        <ele>512</ele>
        <time>2023-08-30T12:00:15Z</time>
      </trkpt>
      <trkpt lat="46.47793" lon="5.52408">
        <ele>512</ele>
        <time>2023-08-30T12:00:16Z</time>
      </trkpt>
      <trkpt lat="46.4779" lon="5.52414">
        <ele>512</ele>
        <time>2023-08-30T12:00:17Z</time>
      </trkpt>
      <trkpt lat="46.47788" lon="5.5242">
        <ele>512</ele>
        <time>2023-08-30T12:00:18Z</time>
      </trkpt>
      <trkpt lat="46.47785" lon="5.52426">
        <ele>512</ele>
        <time>2023-08-30T12:00:19Z</time>
      </trkpt>
      <trkpt lat="46.47783" lon="5.52432">
        <ele>512.4</ele>
        <time>2023-08-30T12:00:20Z</time>
      </trkpt>
      <trkpt lat="46.47781" lon="5.52438">
        <ele>512.4</ele>
        <time>2023-08-30T12:00:21Z</time>
      </trkpt>
      <trkpt lat="46.47778" lon="5.52444">
        <ele>512.4</ele>
        <time>2023-08-30T12:00:22Z</time>
      </trkpt>
      <trkpt lat="46.47776" lon="5.5245">
        <ele>512.4</ele>
        <time>2023-08-30T12:00:23Z</time>
      </trkpt>
      <trkpt lat="46.47774" lon="5.52457">
        <ele>512.4</ele>
        <time>2023-08-30T12:00:24Z</time>
      </trkpt>
      <trkpt lat="46.47771" lon="5.52463">
        <ele>512</ele>
        <time>2023-08-30T12:00:25Z</time>
      </trkpt>
      <trkpt lat="46.47769" lon="5.52469">
        <ele>512</ele>
        <time>2023-08-30T12:00:26Z</time>
      </trkpt>
      <trkpt lat="46.47767" lon="5.52474">
        <ele>512</ele>
        <time>2023-08-30T12:00:27Z</time>
      </trkpt>
      <trkpt lat="46.47764" lon="5.52481">
        <ele>512.6</ele>
        <time>2023-08-30T12:00:28Z</time>
      </trkpt>
      <trkpt lat="46.47761" lon="5.52486">
        <ele>512.6</ele>
        <time>2023-08-30T12:00:29Z</time>
      </trkpt>
      <trkpt lat="46.47757" lon="5.52494">
        <ele>512.4</ele>
        <time>2023-08-30T12:00:30Z</time>
      </trkpt>
      <trkpt lat="46.47755" lon="5.52496">
        <ele>512.4</ele>
        <time>2023-08-30T12:00:31Z</time>
      </trkpt>
      <trkpt lat="46.47751" lon="5.525">
        <ele>512.4</ele>
        <time>2023-08-30T12:00:32Z</time>
      </trkpt>
      <trkpt lat="46.47747" lon="5.52504">
        <ele>512.4</ele>
        <time>2023-08-30T12:00:33Z</time>
      </trkpt>
      <trkpt lat="46.47743" lon="5.52507">
        <ele>512.6</ele>
        <time>2023-08-30T12:00:34Z</time>
      </trkpt>
      <trkpt lat="46.47739" lon="5.5251">
        <ele>512.6</ele>
        <time>2023-08-30T12:00:35Z</time>
      </trkpt>
      <trkpt lat="46.47734" lon="5.52512">
        <ele>512.6</ele>
        <time>2023-08-30T12:00:36Z</time>
      </trkpt>
      <trkpt lat="46.4773" lon="5.52515">
        <ele>512.6</ele>
        <time>2023-08-30T12:00:37Z</time>
      </trkpt>
      <trkpt lat="46.47725" lon="5.52517">
        <ele>512.8</ele>
        <time>2023-08-30T12:00:38Z</time>
      </trkpt>
      <trkpt lat="46.47721" lon="5.52519">
        <ele>512.8</ele>
        <time>2023-08-30T12:00:39Z</time>
      </trkpt>
      <trkpt lat="46.47717" lon="5.52521">
        <ele>512.8</ele>
        <time>2023-08-30T12:00:40Z</time>
      </trkpt>
      <trkpt lat="46.47712" lon="5.52523">
        <ele>512.8</ele>
        <time>2023-08-30T12:00:41Z</time>
      </trkpt>
      <trkpt lat="46.47708" lon="5.52526">
        <ele>512.8</ele>
        <time>2023-08-30T12:00:42Z</time>
      </trkpt>
      <trkpt lat="46.47703" lon="5.52528">
        <ele>513.2</ele>
        <time>2023-08-30T12:00:43Z</time>
      </trkpt>
      <trkpt lat="46.47699" lon="5.52529">
        <ele>513.2</ele>
        <time>2023-08-30T12:00:44Z</time>
      </trkpt>
      <trkpt lat="46.47694" lon="5.52532">
        <ele>512.6</ele>
        <time>2023-08-30T12:00:45Z</time>
      </trkpt>
      <trkpt lat="46.47689" lon="5.52535">
        <ele>512.8</ele>
        <time>2023-08-30T12:00:46Z</time>
      </trkpt>
      <trkpt lat="46.47684" lon="5.52538">
        <ele>512.8</ele>
        <time>2023-08-30T12:00:47Z</time>
      </trkpt>
      <trkpt lat="46.47679" lon="5.5254">
        <ele>512.8</ele>
        <time>2023-08-30T12:00:48Z</time>
      </trkpt>
      <trkpt lat="46.47674" lon="5.52542">
        <ele>512.8</ele>
        <time>2023-08-30T12:00:49Z</time>
      </trkpt>
      <trkpt lat="46.4767" lon="5.52545">
        <ele>512.6</ele>
        <time>2023-08-30T12:00:50Z</time>
      </trkpt>
      <trkpt lat="46.47665" lon="5.52546">
        <ele>512.6</ele>
        <time>2023-08-30T12:00:51Z</time>
      </trkpt>
      <trkpt lat="46.4766" lon="5.52548">
        <ele>512.6</ele>
        <time>2023-08-30T12:00:52Z</time>
      </trkpt>
      <trkpt lat="46.47654" lon="5.5255">
        <ele>512.6</ele>
        <time>2023-08-30T12:00:53Z</time>
      </trkpt>
      <trkpt lat="46.47648" lon="5.52551">
        <ele>512.6</ele>
        <time>2023-08-30T12:00:54Z</time>
      </trkpt>
      <trkpt lat="46.47642" lon="5.52552">
        <ele>512.6</ele>
        <time>2023-08-30T12:00:55Z</time>
      </trkpt>
      <trkpt lat="46.47636" lon="5.52553">
        <ele>511.8</ele>
        <time>2023-08-30T12:00:56Z</time>
      </trkpt>
      <trkpt lat="46.47629" lon="5.52554">
        <ele>511.8</ele>
        <time>2023-08-30T12:00:57Z</time>
      </trkpt>
      <trkpt lat="46.47622" lon="5.52554">
        <ele>511.8</ele>
        <time>2023-08-30T12:00:58Z</time>
      </trkpt>
      <trkpt lat="46.47615" lon="5.52555">
        <ele>511.8</ele>
        <time>2023-08-30T12:00:59Z</time>
      </trkpt>
      <trkpt lat="46.47608" lon="5.52556">
        <ele>511.8</ele>
        <time>2023-08-30T12:01:00Z</time>
      </trkpt>
      <trkpt lat="46.476" lon="5.52557">
        <ele>511.2</ele>
        <time>2023-08-30T12:01:01Z</time>
      </trkpt>
      <trkpt lat="46.47592" lon="5.5256">
        <ele>511.2</ele>
        <time>2023-08-30T12:01:02Z</time>
      </trkpt>
      <trkpt lat="46.47584" lon="5.52563">
        <ele>511.2</ele>
        <time>2023-08-30T12:01:03Z</time>
      </trkpt>
      <trkpt lat="46.47577" lon="5.52568">
        <ele>511.2</ele>
        <time>2023-08-30T12:01:04Z</time>
      </trkpt>
      <trkpt lat="46.47569" lon="5.52573">
        <ele>510.6</ele>
        <time>2023-08-30T12:01:05Z</time>
      </trkpt>
      <trkpt lat="46.47562" lon="5.52579">
        <ele>510.6</ele>
        <time>2023-08-30T12:01:06Z</time>
      </trkpt>
      <trkpt lat="46.47555" lon="5.52585">
        <ele>510.6</ele>
        <time>2023-08-30T12:01:07Z</time>
      </trkpt>
      <trkpt lat="46.47547" lon="5.5259">
        <ele>509.8</ele>
        <time>2023-08-30T12:01:08Z</time>
      </trkpt>
      <trkpt lat="46.47539" lon="5.52595">
        <ele>509</ele>
        <time>2023-08-30T12:01:09Z</time>
      </trkpt>
      <trkpt lat="46.47531" lon="5.526">
        <ele>509</ele>
        <time>2023-08-30T12:01:10Z</time>
      </trkpt>
      <trkpt lat="46.47522" lon="5.52604">
        <ele>509</ele>
        <time>2023-08-30T12:01:11Z</time>
      </trkpt>
      <trkpt lat="46.47514" lon="5.52607">
        <ele>509</ele>
        <time>2023-08-30T12:01:12Z</time>
      </trkpt>
      <trkpt lat="46.47501" lon="5.52611">
        <ele>509</ele>
        <time>2023-08-30T12:01:13Z</time>
      </trkpt>
      <trkpt lat="46.47496" lon="5.52613">
        <ele>508.2</ele>
        <time>2023-08-30T12:01:14Z</time>
      </trkpt>
      <trkpt lat="46.47488" lon="5.52616">
        <ele>508.2</ele>
        <time>2023-08-30T12:01:15Z</time>
      </trkpt>
      <trkpt lat="46.47479" lon="5.52619">
        <ele>508.2</ele>
        <time>2023-08-30T12:01:16Z</time>
      </trkpt>
      <trkpt lat="46.47471" lon="5.52623">
        <ele>507.2</ele>
        <time>2023-08-30T12:01:17Z</time>
      </trkpt>
      <trkpt lat="46.47462" lon="5.52626">
        <ele>506.6</ele>
        <time>2023-08-30T12:01:18Z</time>
      </trkpt>
      <trkpt lat="46.47453" lon="5.5263">
        <ele>506.6</ele>
        <time>2023-08-30T12:01:19Z</time>
      </trkpt>
      <trkpt lat="46.47444" lon="5.52633">
        <ele>506.6</ele>
        <time>2023-08-30T12:01:20Z</time>
      </trkpt>
      <trkpt lat="46.47436" lon="5.52637">
        <ele>505.6</ele>
        <time>2023-08-30T12:01:21Z</time>
      </trkpt>
      <trkpt lat="46.47427" lon="5.52642">
        <ele>505.6</ele>
        <time>2023-08-30T12:01:22Z</time>
      </trkpt>
      <trkpt lat="46.47419" lon="5.52648">
        <ele>504.8</ele>
        <time>2023-08-30T12:01:23Z</time>
      </trkpt>
      <trkpt lat="46.4741" lon="5.52654">
        <ele>504.8</ele>
        <time>2023-08-30T12:01:24Z</time>
      </trkpt>
      <trkpt lat="46.47401" lon="5.5266">
        <ele>504.8</ele>
        <time>2023-08-30T12:01:25Z</time>
      </trkpt>
      <trkpt lat="46.47393" lon="5.52665">
        <ele>504.8</ele>
        <time>2023-08-30T12:01:26Z</time>
      </trkpt>
      <trkpt lat="46.47384" lon="5.5267">
        <ele>502.4</ele>
        <time>2023-08-30T12:01:27Z</time>
      </trkpt>
      <trkpt lat="46.47374" lon="5.52675">
        <ele>502.4</ele>
        <time>2023-08-30T12:01:28Z</time>
      </trkpt>
      <trkpt lat="46.47365" lon="5.52679">
        <ele>502.4</ele>
        <time>2023-08-30T12:01:29Z</time>
      </trkpt>
      <trkpt lat="46.47356" lon="5.52683">
        <ele>502.4</ele>
        <time>2023-08-30T12:01:30Z</time>
      </trkpt>
      <trkpt lat="46.47347" lon="5.52688">
        <ele>502.4</ele>
        <time>2023-08-30T12:01:31Z</time>
      </trkpt>
      <trkpt lat="46.47338" lon="5.52692">
        <ele>502.4</ele>
        <time>2023-08-30T12:01:32Z</time>
      </trkpt>
      <trkpt lat="46.47328" lon="5.52696">
        <ele>502.4</ele>
        <time>2023-08-30T12:01:33Z</time>
      </trkpt>
      <trkpt lat="46.47319" lon="5.52699">
        <ele>501.4</ele>
        <time>2023-08-30T12:01:34Z</time>
      </trkpt>
      <trkpt lat="46.47309" lon="5.52703">
        <ele>501.4</ele>
        <time>2023-08-30T12:01:35Z</time>
      </trkpt>
      <trkpt lat="46.473" lon="5.52706">
        <ele>499.4</ele>
        <time>2023-08-30T12:01:36Z</time>
      </trkpt>
      <trkpt lat="46.47291" lon="5.5271">
        <ele>499.4</ele>
        <time>2023-08-30T12:01:37Z</time>
      </trkpt>
      <trkpt lat="46.47281" lon="5.52715">
        <ele>499.4</ele>
        <time>2023-08-30T12:01:38Z</time>
      </trkpt>
      <trkpt lat="46.47272" lon="5.52719">
        <ele>499.4</ele>
        <time>2023-08-30T12:01:39Z</time>
      </trkpt>
      <trkpt lat="46.47263" lon="5.52723">
        <ele>499.4</ele>
        <time>2023-08-30T12:01:40Z</time>
      </trkpt>
      <trkpt lat="46.47253" lon="5.52728">
        <ele>497.6</ele>
        <time>2023-08-30T12:01:41Z</time>
      </trkpt>
      <trkpt lat="46.47244" lon="5.52733">
        <ele>497.6</ele>
        <time>2023-08-30T12:01:42Z</time>
      </trkpt>
      <trkpt lat="46.47235" lon="5.52739">
        <ele>497.6</ele>
        <time>2023-08-30T12:01:43Z</time>
      </trkpt>
      <trkpt lat="46.47227" lon="5.52745">
        <ele>497.6</ele>
        <time>2023-08-30T12:01:44Z</time>
      </trkpt>
      <trkpt lat="46.47218" lon="5.52751">
        <ele>497.6</ele>
        <time>2023-08-30T12:01:45Z</time>
      </trkpt>
      <trkpt lat="46.4721" lon="5.52757">
        <ele>495.2</ele>
        <time>2023-08-30T12:01:46Z</time>
      </trkpt>
      <trkpt lat="46.47202" lon="5.52764">
        <ele>495.2</ele>
        <time>2023-08-30T12:01:47Z</time>
      </trkpt>
      <trkpt lat="46.47193" lon="5.52771">
        <ele>495.2</ele>
        <time>2023-08-30T12:01:48Z</time>
      </trkpt>
      <trkpt lat="46.47185" lon="5.52778">
        <ele>494.2</ele>
        <time>2023-08-30T12:01:49Z</time>
      </trkpt>
      <trkpt lat="46.47176" lon="5.52785">
        <ele>494</ele>
        <time>2023-08-30T12:01:50Z</time>
      </trkpt>
      <trkpt lat="46.47168" lon="5.52792">
        <ele>494</ele>
        <time>2023-08-30T12:01:51Z</time>
      </trkpt>
      <trkpt lat="46.4716" lon="5.52799">
        <ele>494</ele>
        <time>2023-08-30T12:01:52Z</time>
      </trkpt>
      <trkpt lat="46.47151" lon="5.52806">
        <ele>493</ele>
        <time>2023-08-30T12:01:53Z</time>
      </trkpt>
      <trkpt lat="46.47143" lon="5.52813">
        <ele>491.2</ele>
        <time>2023-08-30T12:01:54Z</time>
      </trkpt>
      <trkpt lat="46.47135" lon="5.52819">
        <ele>491.2</ele>
        <time>2023-08-30T12:01:55Z</time>
      </trkpt>
      <trkpt lat="46.47122" lon="5.52829">
        <ele>491.2</ele>
        <time>2023-08-30T12:01:56Z</time>
      </trkpt>
      <trkpt lat="46.47118" lon="5.52833">
        <ele>490.2</ele>
        <time>2023-08-30T12:01:57Z</time>
      </trkpt>
      <trkpt lat="46.4711" lon="5.5284">
        <ele>490.2</ele>
        <time>2023-08-30T12:01:58Z</time>
      </trkpt>
      <trkpt lat="46.47101" lon="5.52847">
        <ele>489.4</ele>
        <time>2023-08-30T12:01:59Z</time>
      </trkpt>
      <trkpt lat="46.47093" lon="5.52855">
        <ele>489.4</ele>
        <time>2023-08-30T12:02:00Z</time>
      </trkpt>
      <trkpt lat="46.47085" lon="5.52863">
        <ele>489.4</ele>
        <time>2023-08-30T12:02:01Z</time>
      </trkpt>
      <trkpt lat="46.47077" lon="5.52871">
        <ele>488.4</ele>
        <time>2023-08-30T12:02:02Z</time>
      </trkpt>
      <trkpt lat="46.47069" lon="5.52879">
        <ele>486.4</ele>
        <time>2023-08-30T12:02:03Z</time>
      </trkpt>
      <trkpt lat="46.47062" lon="5.52888">
        <ele>486.4</ele>
        <time>2023-08-30T12:02:04Z</time>
      </trkpt>
      <trkpt lat="46.47054" lon="5.52897">
        <ele>486.4</ele>
        <time>2023-08-30T12:02:05Z</time>
      </trkpt>
      <trkpt lat="46.47046" lon="5.52906">
        <ele>485.4</ele>
        <time>2023-08-30T12:02:06Z</time>
      </trkpt>
      <trkpt lat="46.47039" lon="5.52915">
        <ele>484.8</ele>
        <time>2023-08-30T12:02:07Z</time>
      </trkpt>
      <trkpt lat="46.47031" lon="5.52925">
        <ele>484.8</ele>
        <time>2023-08-30T12:02:08Z</time>
      </trkpt>
      <trkpt lat="46.47024" lon="5.52935">
        <ele>484.8</ele>
        <time>2023-08-30T12:02:09Z</time>
      </trkpt>
      <trkpt lat="46.47016" lon="5.52945">
        <ele>484.8</ele>
        <time>2023-08-30T12:02:10Z</time>
      </trkpt>
      <trkpt lat="46.47009" lon="5.52955">
        <ele>483.8</ele>
        <time>2023-08-30T12:02:11Z</time>
      </trkpt>
      <trkpt lat="46.47002" lon="5.52966">
        <ele>482.4</ele>
        <time>2023-08-30T12:02:12Z</time>
      </trkpt>
      <trkpt lat="46.46995" lon="5.52977">
        <ele>482.4</ele>
        <time>2023-08-30T12:02:13Z</time>
      </trkpt>
      <trkpt lat="46.46989" lon="5.52988">
        <ele>482.4</ele>
        <time>2023-08-30T12:02:14Z</time>
      </trkpt>
      <trkpt lat="46.46982" lon="5.52998">
        <ele>481.4</ele>
        <time>2023-08-30T12:02:15Z</time>
      </trkpt>
      <trkpt lat="46.46975" lon="5.53009">
        <ele>480.2</ele>
        <time>2023-08-30T12:02:16Z</time>
      </trkpt>
      <trkpt lat="46.46969" lon="5.53019">
        <ele>480.2</ele>
        <time>2023-08-30T12:02:17Z</time>
      </trkpt>
      <trkpt lat="46.46962" lon="5.53029">
        <ele>480.2</ele>
        <time>2023-08-30T12:02:18Z</time>
      </trkpt>
      <trkpt lat="46.46954" lon="5.53039">
        <ele>480.2</ele>
        <time>2023-08-30T12:02:19Z</time>
      </trkpt>
      <trkpt lat="46.46946" lon="5.53049">
        <ele>480.2</ele>
        <time>2023-08-30T12:02:20Z</time>
      </trkpt>
      <trkpt lat="46.46939" lon="5.53059">
        <ele>479.2</ele>
        <time>2023-08-30T12:02:21Z</time>
      </trkpt>
      <trkpt lat="46.46931" lon="5.53069">
        <ele>477.8</ele>
        <time>2023-08-30T12:02:22Z</time>
      </trkpt>
      <trkpt lat="46.46923" lon="5.53077">
        <ele>477.8</ele>
        <time>2023-08-30T12:02:23Z</time>
      </trkpt>
      <trkpt lat="46.46915" lon="5.53087">
        <ele>477.8</ele>
        <time>2023-08-30T12:02:24Z</time>
      </trkpt>
      <trkpt lat="46.46908" lon="5.53097">
        <ele>477.8</ele>
        <time>2023-08-30T12:02:25Z</time>
      </trkpt>
      <trkpt lat="46.46901" lon="5.53109">
        <ele>475.4</ele>
        <time>2023-08-30T12:02:26Z</time>
      </trkpt>
      <trkpt lat="46.46896" lon="5.53121">
        <ele>475.4</ele>
        <time>2023-08-30T12:02:27Z</time>
      </trkpt>
      <trkpt lat="46.4689" lon="5.53134">
        <ele>475.4</ele>
        <time>2023-08-30T12:02:28Z</time>
      </trkpt>
      <trkpt lat="46.46885" lon="5.53146">
        <ele>474.4</ele>
        <time>2023-08-30T12:02:29Z</time>
      </trkpt>
      <trkpt lat="46.4688" lon="5.53159">
        <ele>472.8</ele>
        <time>2023-08-30T12:02:30Z</time>
      </trkpt>
      <trkpt lat="46.46874" lon="5.53171">
        <ele>472.8</ele>
        <time>2023-08-30T12:02:31Z</time>
      </trkpt>
      <trkpt lat="46.46868" lon="5.53183">
        <ele>472.8</ele>
        <time>2023-08-30T12:02:32Z</time>
      </trkpt>
      <trkpt lat="46.46861" lon="5.53195">
        <ele>471.8</ele>
        <time>2023-08-30T12:02:33Z</time>
      </trkpt>
      <trkpt lat="46.46854" lon="5.53206">
        <ele>470.6</ele>
        <time>2023-08-30T12:02:34Z</time>
      </trkpt>
      <trkpt lat="46.46847" lon="5.53218">
        <ele>470.6</ele>
        <time>2023-08-30T12:02:35Z</time>
      </trkpt>
      <trkpt lat="46.46841" lon="5.53229">
        <ele>470.6</ele>
        <time>2023-08-30T12:02:36Z</time>
      </trkpt>
      <trkpt lat="46.46836" lon="5.53241">
        <ele>470.6</ele>
        <time>2023-08-30T12:02:37Z</time>
      </trkpt>
      <trkpt lat="46.46832" lon="5.53253">
        <ele>470.6</ele>
        <time>2023-08-30T12:02:38Z</time>
      </trkpt>
      <trkpt lat="46.46828" lon="5.53264">
        <ele>469.6</ele>
        <time>2023-08-30T12:02:39Z</time>
      </trkpt>
      <trkpt lat="46.46826" lon="5.53274">
        <ele>468</ele>
        <time>2023-08-30T12:02:40Z</time>
      </trkpt>
      <trkpt lat="46.46823" lon="5.53283">
        <ele>468</ele>
        <time>2023-08-30T12:02:41Z</time>
      </trkpt>
      <trkpt lat="46.46821" lon="5.5329">
        <ele>468</ele>
        <time>2023-08-30T12:02:42Z</time>
      </trkpt>
      <trkpt lat="46.46816" lon="5.53296">
        <ele>467</ele>
        <time>2023-08-30T12:02:43Z</time>
      </trkpt>
      <trkpt lat="46.46811" lon="5.53298">
        <ele>465.2</ele>
        <time>2023-08-30T12:02:44Z</time>
      </trkpt>
      <trkpt lat="46.46806" lon="5.53298">
        <ele>465.2</ele>
        <time>2023-08-30T12:02:45Z</time>
      </trkpt>
      <trkpt lat="46.46801" lon="5.53296">
        <ele>465.2</ele>
        <time>2023-08-30T12:02:46Z</time>
      </trkpt>
      <trkpt lat="46.46799" lon="5.53293">
        <ele>465.2</ele>
        <time>2023-08-30T12:02:47Z</time>
      </trkpt>
      <trkpt lat="46.46798" lon="5.5329">
        <ele>464.2</ele>
        <time>2023-08-30T12:02:48Z</time>
      </trkpt>
      <trkpt lat="46.46799" lon="5.53285">
        <ele>463.4</ele>
        <time>2023-08-30T12:02:49Z</time>
      </trkpt>
      <trkpt lat="46.468" lon="5.53282">
        <ele>463.4</ele>
        <time>2023-08-30T12:02:50Z</time>
      </trkpt>
      <trkpt lat="46.46801" lon="5.53279">
        <ele>463.4</ele>
        <time>2023-08-30T12:02:51Z</time>
      </trkpt>
      <trkpt lat="46.46802" lon="5.53276">
        <ele>463.4</ele>
        <time>2023-08-30T12:02:52Z</time>
      </trkpt>
      <trkpt lat="46.46804" lon="5.53273">
        <ele>454.2</ele>
        <time>2023-08-30T12:03:39Z</time>
      </trkpt>
      <trkpt lat="46.46805" lon="5.5327">
        <ele>454.2</ele>
        <time>2023-08-30T12:03:40Z</time>
      </trkpt>
      <trkpt lat="46.4681" lon="5.53264">
        <ele>453.6</ele>
        <time>2023-08-30T12:03:41Z</time>
      </trkpt>
      <trkpt lat="46.46811" lon="5.53262">
        <ele>453.6</ele>
        <time>2023-08-30T12:03:42Z</time>
      </trkpt>
      <trkpt lat="46.46815" lon="5.53257">
        <ele>453.6</ele>
        <time>2023-08-30T12:03:43Z</time>
      </trkpt>
      <trkpt lat="46.46818" lon="5.53252">
        <ele>452.8</ele>
        <time>2023-08-30T12:03:44Z</time>
      </trkpt>
      <trkpt lat="46.46821" lon="5.53246">
        <ele>453.8</ele>
        <time>2023-08-30T12:03:45Z</time>
      </trkpt>
      <trkpt lat="46.46824" lon="5.5324">
        <ele>453.8</ele>
        <time>2023-08-30T12:03:46Z</time>
      </trkpt>
      <trkpt lat="46.46827" lon="5.53234">
        <ele>453.8</ele>
        <time>2023-08-30T12:03:47Z</time>
      </trkpt>
      <trkpt lat="46.4683" lon="5.53227">
        <ele>453.8</ele>
        <time>2023-08-30T12:03:48Z</time>
      </trkpt>
      <trkpt lat="46.46834" lon="5.5322">
        <ele>453.2</ele>
        <time>2023-08-30T12:03:49Z</time>
      </trkpt>
      <trkpt lat="46.46838" lon="5.53212">
        <ele>453.2</ele>
        <time>2023-08-30T12:03:50Z</time>
      </trkpt>
      <trkpt lat="46.46841" lon="5.53204">
        <ele>453.2</ele>
        <time>2023-08-30T12:03:51Z</time>
      </trkpt>
      <trkpt lat="46.46845" lon="5.53196">
        <ele>453.2</ele>
        <time>2023-08-30T12:03:52Z</time>
      </trkpt>
      <trkpt lat="46.46849" lon="5.53187">
        <ele>452.8</ele>
        <time>2023-08-30T12:03:53Z</time>
      </trkpt>
      <trkpt lat="46.46852" lon="5.53178">
        <ele>452.8</ele>
        <time>2023-08-30T12:03:54Z</time>
      </trkpt>
      <trkpt lat="46.46855" lon="5.53169">
        <ele>452.6</ele>
        <time>2023-08-30T12:03:55Z</time>
      </trkpt>
      <trkpt lat="46.46858" lon="5.53159">
        <ele>452.6</ele>
        <time>2023-08-30T12:03:56Z</time>
      </trkpt>
      <trkpt lat="46.46861" lon="5.53148">
        <ele>452</ele>
        <time>2023-08-30T12:03:57Z</time>
      </trkpt>
      <trkpt lat="46.46863" lon="5.53137">
        <ele>452</ele>
        <time>2023-08-30T12:03:58Z</time>
      </trkpt>
      <trkpt lat="46.46865" lon="5.53126">
        <ele>452</ele>
        <time>2023-08-30T12:03:59Z</time>
      </trkpt>
      <trkpt lat="46.46867" lon="5.53115">
        <ele>452</ele>
        <time>2023-08-30T12:04:00Z</time>
      </trkpt>
      <trkpt lat="46.4687" lon="5.53104">
        <ele>452</ele>
        <time>2023-08-30T12:04:01Z</time>
      </trkpt>
      <trkpt lat="46.46873" lon="5.53093">
        <ele>452</ele>
        <time>2023-08-30T12:04:02Z</time>
      </trkpt>
      <trkpt lat="46.46876" lon="5.53081">
        <ele>451</ele>
        <time>2023-08-30T12:04:03Z</time>
      </trkpt>
      <trkpt lat="46.4688" lon="5.5307">
        <ele>451</ele>
        <time>2023-08-30T12:04:04Z</time>
      </trkpt>
      <trkpt lat="46.46885" lon="5.53059">
        <ele>451</ele>
        <time>2023-08-30T12:04:05Z</time>
      </trkpt>
      <trkpt lat="46.4689" lon="5.53049">
        <ele>451</ele>
        <time>2023-08-30T12:04:06Z</time>
      </trkpt>
      <trkpt lat="46.46894" lon="5.53037">
        <ele>451</ele>
        <time>2023-08-30T12:04:07Z</time>
      </trkpt>
      <trkpt lat="46.46899" lon="5.53027">
        <ele>449.8</ele>
        <time>2023-08-30T12:04:08Z</time>
      </trkpt>
      <trkpt lat="46.46904" lon="5.53016">
        <ele>449.8</ele>
        <time>2023-08-30T12:04:09Z</time>
      </trkpt>
      <trkpt lat="46.46909" lon="5.53006">
        <ele>449.8</ele>
        <time>2023-08-30T12:04:10Z</time>
      </trkpt>
      <trkpt lat="46.46914" lon="5.52995">
        <ele>449.8</ele>
        <time>2023-08-30T12:04:11Z</time>
      </trkpt>
      <trkpt lat="46.4692" lon="5.52985">
        <ele>448.8</ele>
        <time>2023-08-30T12:04:12Z</time>
      </trkpt>
      <trkpt lat="46.46926" lon="5.52975">
        <ele>448.2</ele>
        <time>2023-08-30T12:04:13Z</time>
      </trkpt>
      <trkpt lat="46.46932" lon="5.52965">
        <ele>448.2</ele>
        <time>2023-08-30T12:04:14Z</time>
      </trkpt>
      <trkpt lat="46.46938" lon="5.52955">
        <ele>448.2</ele>
        <time>2023-08-30T12:04:15Z</time>
      </trkpt>
      <trkpt lat="46.46943" lon="5.52944">
        <ele>448</ele>
        <time>2023-08-30T12:04:16Z</time>
      </trkpt>
      <trkpt lat="46.46948" lon="5.52935">
        <ele>448</ele>
        <time>2023-08-30T12:04:17Z</time>
      </trkpt>
      <trkpt lat="46.46953" lon="5.52924">
        <ele>448</ele>
        <time>2023-08-30T12:04:18Z</time>
      </trkpt>
      <trkpt lat="46.46956" lon="5.52912">
        <ele>448</ele>
        <time>2023-08-30T12:04:19Z</time>
      </trkpt>
      <trkpt lat="46.46961" lon="5.52902">
        <ele>447.2</ele>
        <time>2023-08-30T12:04:20Z</time>
      </trkpt>
      <trkpt lat="46.46965" lon="5.52892">
        <ele>447.2</ele>
        <time>2023-08-30T12:04:21Z</time>
      </trkpt>
      <trkpt lat="46.46969" lon="5.52882">
        <ele>446.8</ele>
        <time>2023-08-30T12:04:22Z</time>
      </trkpt>
      <trkpt lat="46.46974" lon="5.52872">
        <ele>446.8</ele>
        <time>2023-08-30T12:04:23Z</time>
      </trkpt>
      <trkpt lat="46.46978" lon="5.52864">
        <ele>446.8</ele>
        <time>2023-08-30T12:04:24Z</time>
      </trkpt>
      <trkpt lat="46.46982" lon="5.52854">
        <ele>446.2</ele>
        <time>2023-08-30T12:04:25Z</time>
      </trkpt>
      <trkpt lat="46.46986" lon="5.52845">
        <ele>446</ele>
        <time>2023-08-30T12:04:26Z</time>
      </trkpt>
      <trkpt lat="46.46991" lon="5.52838">
        <ele>446</ele>
        <time>2023-08-30T12:04:27Z</time>
      </trkpt>
      <trkpt lat="46.46995" lon="5.5283">
        <ele>446</ele>
        <time>2023-08-30T12:04:28Z</time>
      </trkpt>
      <trkpt lat="46.46999" lon="5.52822">
        <ele>446</ele>
        <time>2023-08-30T12:04:29Z</time>
      </trkpt>
      <trkpt lat="46.47004" lon="5.52815">
        <ele>446</ele>
        <time>2023-08-30T12:04:30Z</time>
      </trkpt>
      <trkpt lat="46.47008" lon="5.52808">
        <ele>446</ele>
        <time>2023-08-30T12:04:31Z</time>
      </trkpt>
      <trkpt lat="46.47012" lon="5.52802">
        <ele>446.2</ele>
        <time>2023-08-30T12:04:32Z</time>
      </trkpt>
      <trkpt lat="46.47016" lon="5.52795">
        <ele>446.2</ele>
        <time>2023-08-30T12:04:33Z</time>
      </trkpt>
      <trkpt lat="46.4702" lon="5.52789">
        <ele>445.2</ele>
        <time>2023-08-30T12:04:34Z</time>
      </trkpt>
      <trkpt lat="46.47025" lon="5.52784">
        <ele>445.2</ele>
        <time>2023-08-30T12:04:35Z</time>
      </trkpt>
      <trkpt lat="46.47029" lon="5.52778">
        <ele>444.6</ele>
        <time>2023-08-30T12:04:36Z</time>
      </trkpt>
      <trkpt lat="46.47034" lon="5.52773">
        <ele>444.6</ele>
        <time>2023-08-30T12:04:37Z</time>
      </trkpt>
      <trkpt lat="46.47039" lon="5.52767">
        <ele>444.6</ele>
        <time>2023-08-30T12:04:38Z</time>
      </trkpt>
      <trkpt lat="46.47044" lon="5.52762">
        <ele>444.2</ele>
        <time>2023-08-30T12:04:39Z</time>
      </trkpt>
      <trkpt lat="46.47048" lon="5.52756">
        <ele>443.8</ele>
        <time>2023-08-30T12:04:40Z</time>
      </trkpt>
      <trkpt lat="46.47052" lon="5.52749">
        <ele>443.8</ele>
        <time>2023-08-30T12:04:41Z</time>
      </trkpt>
      <trkpt lat="46.47054" lon="5.5274">
        <ele>443.8</ele>
        <time>2023-08-30T12:04:42Z</time>
      </trkpt>
      <trkpt lat="46.4705" lon="5.52734">
        <ele>443.8</ele>
        <time>2023-08-30T12:04:43Z</time>
      </trkpt>
      <trkpt lat="46.47044" lon="5.52732">
        <ele>442.8</ele>
        <time>2023-08-30T12:04:44Z</time>
      </trkpt>
      <trkpt lat="46.47037" lon="5.52733">
        <ele>442.8</ele>
        <time>2023-08-30T12:04:45Z</time>
      </trkpt>
      <trkpt lat="46.47031" lon="5.52738">
        <ele>442.8</ele>
        <time>2023-08-30T12:04:46Z</time>
      </trkpt>
      <trkpt lat="46.47026" lon="5.52745">
        <ele>442.8</ele>
        <time>2023-08-30T12:04:47Z</time>
      </trkpt>
      <trkpt lat="46.47021" lon="5.52752">
        <ele>442.6</ele>
        <time>2023-08-30T12:04:48Z</time>
      </trkpt>
      <trkpt lat="46.47016" lon="5.5276">
        <ele>442.2</ele>
        <time>2023-08-30T12:04:49Z</time>
      </trkpt>
      <trkpt lat="46.47011" lon="5.52768">
        <ele>442.2</ele>
        <time>2023-08-30T12:04:50Z</time>
      </trkpt>
      <trkpt lat="46.47006" lon="5.52776">
        <ele>442.2</ele>
        <time>2023-08-30T12:04:51Z</time>
      </trkpt>
      <trkpt lat="46.47001" lon="5.52784">
        <ele>441.2</ele>
        <time>2023-08-30T12:04:52Z</time>
      </trkpt>
      <trkpt lat="46.46995" lon="5.52793">
        <ele>440.4</ele>
        <time>2023-08-30T12:04:53Z</time>
      </trkpt>
      <trkpt lat="46.46989" lon="5.52801">
        <ele>440.4</ele>
        <time>2023-08-30T12:04:54Z</time>
      </trkpt>
      <trkpt lat="46.46983" lon="5.52809">
        <ele>440.4</ele>
        <time>2023-08-30T12:04:55Z</time>
      </trkpt>
      <trkpt lat="46.46977" lon="5.52818">
        <ele>440.4</ele>
        <time>2023-08-30T12:04:56Z</time>
      </trkpt>
      <trkpt lat="46.4697" lon="5.52826">
        <ele>439.6</ele>
        <time>2023-08-30T12:04:57Z</time>
      </trkpt>
      <trkpt lat="46.46963" lon="5.52835">
        <ele>439</ele>
        <time>2023-08-30T12:04:58Z</time>
      </trkpt>
      <trkpt lat="46.46956" lon="5.52843">
        <ele>439</ele>
        <time>2023-08-30T12:04:59Z</time>
      </trkpt>
      <trkpt lat="46.46949" lon="5.52852">
        <ele>439</ele>
        <time>2023-08-30T12:05:00Z</time>
      </trkpt>
      <trkpt lat="46.46941" lon="5.52861">
        <ele>438</ele>
        <time>2023-08-30T12:05:01Z</time>
      </trkpt>
      <trkpt lat="46.46929" lon="5.52874">
        <ele>437.4</ele>
        <time>2023-08-30T12:05:02Z</time>
      </trkpt>
      <trkpt lat="46.46925" lon="5.52879">
        <ele>437.4</ele>
        <time>2023-08-30T12:05:03Z</time>
      </trkpt>
      <trkpt lat="46.46918" lon="5.52888">
        <ele>437.4</ele>
        <time>2023-08-30T12:05:04Z</time>
      </trkpt>
      <trkpt lat="46.4691" lon="5.52897">
        <ele>436.4</ele>
        <time>2023-08-30T12:05:05Z</time>
      </trkpt>
      <trkpt lat="46.46903" lon="5.52907">
        <ele>435.4</ele>
        <time>2023-08-30T12:05:06Z</time>
      </trkpt>
      <trkpt lat="46.46896" lon="5.52918">
        <ele>435.4</ele>
        <time>2023-08-30T12:05:07Z</time>
      </trkpt>
      <trkpt lat="46.46889" lon="5.52928">
        <ele>435.4</ele>
        <time>2023-08-30T12:05:08Z</time>
      </trkpt>
      <trkpt lat="46.46881" lon="5.52938">
        <ele>435.4</ele>
        <time>2023-08-30T12:05:09Z</time>
      </trkpt>
      <trkpt lat="46.46874" lon="5.52948">
        <ele>434.4</ele>
        <time>2023-08-30T12:05:10Z</time>
      </trkpt>
      <trkpt lat="46.46866" lon="5.52958">
        <ele>433.8</ele>
        <time>2023-08-30T12:05:11Z</time>
      </trkpt>
      <trkpt lat="46.46859" lon="5.52968">
        <ele>433.8</ele>
        <time>2023-08-30T12:05:12Z</time>
      </trkpt>
      <trkpt lat="46.46852" lon="5.52979">
        <ele>433.8</ele>
        <time>2023-08-30T12:05:13Z</time>
      </trkpt>
      <trkpt lat="46.46846" lon="5.52991">
        <ele>433.8</ele>
        <time>2023-08-30T12:05:14Z</time>
      </trkpt>
      <trkpt lat="46.4684" lon="5.53003">
        <ele>431.4</ele>
        <time>2023-08-30T12:05:15Z</time>
      </trkpt>
      <trkpt lat="46.46835" lon="5.53016">
        <ele>431.4</ele>
        <time>2023-08-30T12:05:16Z</time>
      </trkpt>
      <trkpt lat="46.46831" lon="5.5303">
        <ele>431.4</ele>
        <time>2023-08-30T12:05:17Z</time>
      </trkpt>
      <trkpt lat="46.46827" lon="5.53044">
        <ele>430.4</ele>
        <time>2023-08-30T12:05:18Z</time>
      </trkpt>
      <trkpt lat="46.46823" lon="5.53057">
        <ele>430.4</ele>
        <time>2023-08-30T12:05:19Z</time>
      </trkpt>
      <trkpt lat="46.46818" lon="5.53071">
        <ele>428.6</ele>
        <time>2023-08-30T12:05:20Z</time>
      </trkpt>
      <trkpt lat="46.46812" lon="5.53084">
        <ele>428.6</ele>
        <time>2023-08-30T12:05:21Z</time>
      </trkpt>
      <trkpt lat="46.46806" lon="5.53096">
        <ele>428.6</ele>
        <time>2023-08-30T12:05:22Z</time>
      </trkpt>
      <trkpt lat="46.468" lon="5.53108">
        <ele>427.6</ele>
        <time>2023-08-30T12:05:23Z</time>
      </trkpt>
      <trkpt lat="46.46792" lon="5.53119">
        <ele>426.2</ele>
        <time>2023-08-30T12:05:24Z</time>
      </trkpt>
      <trkpt lat="46.46784" lon="5.53129">
        <ele>426.2</ele>
        <time>2023-08-30T12:05:25Z</time>
      </trkpt>
      <trkpt lat="46.46776" lon="5.53138">
        <ele>426.2</ele>
        <time>2023-08-30T12:05:26Z</time>
      </trkpt>
      <trkpt lat="46.46767" lon="5.53146">
        <ele>426.2</ele>
        <time>2023-08-30T12:05:27Z</time>
      </trkpt>
      <trkpt lat="46.46758" lon="5.53154">
        <ele>425.2</ele>
        <time>2023-08-30T12:05:28Z</time>
      </trkpt>
      <trkpt lat="46.4675" lon="5.53163">
        <ele>424.2</ele>
        <time>2023-08-30T12:05:29Z</time>
      </trkpt>
      <trkpt lat="46.46743" lon="5.53173">
        <ele>424.2</ele>
        <time>2023-08-30T12:05:30Z</time>
      </trkpt>
      <trkpt lat="46.46737" lon="5.53185">
        <ele>424.2</ele>
        <time>2023-08-30T12:05:31Z</time>
      </trkpt>
      <trkpt lat="46.46732" lon="5.53197">
        <ele>423.2</ele>
        <time>2023-08-30T12:05:32Z</time>
      </trkpt>
      <trkpt lat="46.46724" lon="5.53215">
        <ele>423.2</ele>
        <time>2023-08-30T12:05:33Z</time>
      </trkpt>
      <trkpt lat="46.46721" lon="5.53221">
        <ele>421</ele>
        <time>2023-08-30T12:05:34Z</time>
      </trkpt>
      <trkpt lat="46.46716" lon="5.53233">
        <ele>421</ele>
        <time>2023-08-30T12:05:35Z</time>
      </trkpt>
      <trkpt lat="46.4671" lon="5.53245">
        <ele>421</ele>
        <time>2023-08-30T12:05:36Z</time>
      </trkpt>
      <trkpt lat="46.46705" lon="5.53255">
        <ele>420</ele>
        <time>2023-08-30T12:05:37Z</time>
      </trkpt>
      <trkpt lat="46.46701" lon="5.53265">
        <ele>419</ele>
        <time>2023-08-30T12:05:38Z</time>
      </trkpt>
      <trkpt lat="46.46698" lon="5.53274">
        <ele>419</ele>
        <time>2023-08-30T12:05:39Z</time>
      </trkpt>
      <trkpt lat="46.46695" lon="5.53283">
        <ele>419</ele>
        <time>2023-08-30T12:05:40Z</time>
      </trkpt>
      <trkpt lat="46.46693" lon="5.53291">
        <ele>418</ele>
        <time>2023-08-30T12:05:41Z</time>
      </trkpt>
      <trkpt lat="46.46691" lon="5.53299">
        <ele>416.8</ele>
        <time>2023-08-30T12:05:42Z</time>
      </trkpt>
      <trkpt lat="46.46689" lon="5.53307">
        <ele>416.8</ele>
        <time>2023-08-30T12:05:43Z</time>
      </trkpt>
      <trkpt lat="46.46687" lon="5.53315">
        <ele>416.8</ele>
        <time>2023-08-30T12:05:44Z</time>
      </trkpt>
      <trkpt lat="46.46684" lon="5.53328">
        <ele>416.8</ele>
        <time>2023-08-30T12:05:45Z</time>
      </trkpt>
      <trkpt lat="46.46683" lon="5.53332">
        <ele>416.8</ele>
        <time>2023-08-30T12:05:46Z</time>
      </trkpt>
      <trkpt lat="46.46681" lon="5.5334">
        <ele>415.8</ele>
        <time>2023-08-30T12:05:47Z</time>
      </trkpt>
      <trkpt lat="46.46679" lon="5.53348">
        <ele>414.6</ele>
        <time>2023-08-30T12:05:48Z</time>
      </trkpt>
      <trkpt lat="46.46676" lon="5.53356">
        <ele>414.6</ele>
        <time>2023-08-30T12:05:49Z</time>
      </trkpt>
      <trkpt lat="46.46673" lon="5.53363">
        <ele>414.6</ele>
        <time>2023-08-30T12:05:50Z</time>
      </trkpt>
      <trkpt lat="46.46668" lon="5.53367">
        <ele>413.8</ele>
        <time>2023-08-30T12:05:51Z</time>
      </trkpt>
      <trkpt lat="46.46663" lon="5.5337">
        <ele>413</ele>
        <time>2023-08-30T12:05:52Z</time>
      </trkpt>
      <trkpt lat="46.46658" lon="5.53373">
        <ele>413</ele>
        <time>2023-08-30T12:05:53Z</time>
      </trkpt>
      <trkpt lat="46.46654" lon="5.53374">
        <ele>413</ele>
        <time>2023-08-30T12:05:54Z</time>
      </trkpt>
      <trkpt lat="46.4665" lon="5.53376">
        <ele>413</ele>
        <time>2023-08-30T12:05:55Z</time>
      </trkpt>
      <trkpt lat="46.46646" lon="5.53377">
        <ele>412</ele>
        <time>2023-08-30T12:05:56Z</time>
      </trkpt>
      <trkpt lat="46.46642" lon="5.53379">
        <ele>411.8</ele>
        <time>2023-08-30T12:05:57Z</time>
      </trkpt>
      <trkpt lat="46.46638" lon="5.53382">
        <ele>411.8</ele>
        <time>2023-08-30T12:05:58Z</time>
      </trkpt>
      <trkpt lat="46.46635" lon="5.53385">
        <ele>411.8</ele>
        <time>2023-08-30T12:05:59Z</time>
      </trkpt>
      <trkpt lat="46.4663" lon="5.53388">
        <ele>411.8</ele>
        <time>2023-08-30T12:06:00Z</time>
      </trkpt>
      <trkpt lat="46.46626" lon="5.53391">
        <ele>411.2</ele>
        <time>2023-08-30T12:06:01Z</time>
      </trkpt>
      <trkpt lat="46.46622" lon="5.53396">
        <ele>411.2</ele>
        <time>2023-08-30T12:06:02Z</time>
      </trkpt>
      <trkpt lat="46.46618" lon="5.534">
        <ele>411.2</ele>
        <time>2023-08-30T12:06:03Z</time>
      </trkpt>
      <trkpt lat="46.46614" lon="5.53404">
        <ele>411.2</ele>
        <time>2023-08-30T12:06:04Z</time>
      </trkpt>
      <trkpt lat="46.4661" lon="5.53409">
        <ele>410.2</ele>
        <time>2023-08-30T12:06:05Z</time>
      </trkpt>
      <trkpt lat="46.46606" lon="5.53413">
        <ele>409.8</ele>
        <time>2023-08-30T12:06:06Z</time>
      </trkpt>
      <trkpt lat="46.46601" lon="5.53418">
        <ele>409.8</ele>
        <time>2023-08-30T12:06:07Z</time>
      </trkpt>
      <trkpt lat="46.46597" lon="5.53423">
        <ele>409.8</ele>
        <time>2023-08-30T12:06:08Z</time>
      </trkpt>
      <trkpt lat="46.46594" lon="5.53428">
        <ele>409.8</ele>
        <time>2023-08-30T12:06:09Z</time>
      </trkpt>
      <trkpt lat="46.46589" lon="5.53436">
        <ele>409.4</ele>
        <time>2023-08-30T12:06:10Z</time>
      </trkpt>
      <trkpt lat="46.46587" lon="5.53439">
        <ele>409.4</ele>
        <time>2023-08-30T12:06:11Z</time>
      </trkpt>
      <trkpt lat="46.46584" lon="5.53445">
        <ele>409.4</ele>
        <time>2023-08-30T12:06:12Z</time>
      </trkpt>
      <trkpt lat="46.46581" lon="5.53451">
        <ele>409.4</ele>
        <time>2023-08-30T12:06:13Z</time>
      </trkpt>
      <trkpt lat="46.46577" lon="5.53458">
        <ele>408.6</ele>
        <time>2023-08-30T12:06:14Z</time>
      </trkpt>
      <trkpt lat="46.46574" lon="5.53465">
        <ele>408.4</ele>
        <time>2023-08-30T12:06:15Z</time>
      </trkpt>
      <trkpt lat="46.46572" lon="5.53472">
        <ele>408.4</ele>
        <time>2023-08-30T12:06:16Z</time>
      </trkpt>
      <trkpt lat="46.46569" lon="5.53479">
        <ele>408.4</ele>
        <time>2023-08-30T12:06:17Z</time>
      </trkpt>
      <trkpt lat="46.46566" lon="5.53487">
        <ele>408.4</ele>
        <time>2023-08-30T12:06:18Z</time>
      </trkpt>
      <trkpt lat="46.46563" lon="5.53494">
        <ele>408.4</ele>
        <time>2023-08-30T12:06:19Z</time>
      </trkpt>
      <trkpt lat="46.46559" lon="5.53499">
        <ele>408.2</ele>
        <time>2023-08-30T12:06:20Z</time>
      </trkpt>
      <trkpt lat="46.46555" lon="5.53504">
        <ele>408.2</ele>
        <time>2023-08-30T12:06:21Z</time>
      </trkpt>
      <trkpt lat="46.4655" lon="5.53509">
        <ele>408.2</ele>
        <time>2023-08-30T12:06:22Z</time>
      </trkpt>
      <trkpt lat="46.46545" lon="5.53514">
        <ele>408.2</ele>
        <time>2023-08-30T12:06:23Z</time>
      </trkpt>
      <trkpt lat="46.4654" lon="5.53515">
        <ele>408</ele>
        <time>2023-08-30T12:06:24Z</time>
      </trkpt>
      <trkpt lat="46.46536" lon="5.53515">
        <ele>408</ele>
        <time>2023-08-30T12:06:25Z</time>
      </trkpt>
      <trkpt lat="46.46533" lon="5.53514">
        <ele>408</ele>
        <time>2023-08-30T12:06:26Z</time>
      </trkpt>
      <trkpt lat="46.4653" lon="5.53512">
        <ele>408</ele>
        <time>2023-08-30T12:06:27Z</time>
      </trkpt>
      <trkpt lat="46.46528" lon="5.53511">
        <ele>408</ele>
        <time>2023-08-30T12:06:28Z</time>
      </trkpt>
      <trkpt lat="46.46525" lon="5.53509">
        <ele>408</ele>
        <time>2023-08-30T12:06:29Z</time>
      </trkpt>
      <trkpt lat="46.46523" lon="5.53507">
        <ele>408</ele>
        <time>2023-08-30T12:06:30Z</time>
      </trkpt>
      <trkpt lat="46.46521" lon="5.53505">
        <ele>408</ele>
        <time>2023-08-30T12:06:31Z</time>
      </trkpt>
      <trkpt lat="46.46518" lon="5.53504">
        <ele>408</ele>
        <time>2023-08-30T12:06:32Z</time>
      </trkpt>
      <trkpt lat="46.46516" lon="5.53502">
        <ele>408</ele>
        <time>2023-08-30T12:06:33Z</time>
      </trkpt>
      <trkpt lat="46.46514" lon="5.535">
        <ele>408.4</ele>
        <time>2023-08-30T12:06:34Z</time>
      </trkpt>
      <trkpt lat="46.46512" lon="5.53498">
        <ele>408.4</ele>
        <time>2023-08-30T12:06:35Z</time>
      </trkpt>
      <trkpt lat="46.4651" lon="5.53497">
        <ele>408.4</ele>
        <time>2023-08-30T12:06:36Z</time>
      </trkpt>
      <trkpt lat="46.46508" lon="5.53495">
        <ele>408.4</ele>
        <time>2023-08-30T12:06:37Z</time>
      </trkpt>
      <trkpt lat="46.46506" lon="5.53494">
        <ele>408.6</ele>
        <time>2023-08-30T12:06:38Z</time>
      </trkpt>
      <trkpt lat="46.46504" lon="5.53492">
        <ele>408.6</ele>
        <time>2023-08-30T12:06:39Z</time>
      </trkpt>
      <trkpt lat="46.46502" lon="5.53491">
        <ele>408.6</ele>
        <time>2023-08-30T12:06:40Z</time>
      </trkpt>
      <trkpt lat="46.46501" lon="5.5349">
        <ele>409</ele>
        <time>2023-08-30T12:06:41Z</time>
      </trkpt>
      <trkpt lat="46.46499" lon="5.53489">
        <ele>409.2</ele>
        <time>2023-08-30T12:06:42Z</time>
      </trkpt>
      <trkpt lat="46.46497" lon="5.53488">
        <ele>409.2</ele>
        <time>2023-08-30T12:06:43Z</time>
      </trkpt>
      <trkpt lat="46.46496" lon="5.53486">
        <ele>409.2</ele>
        <time>2023-08-30T12:06:44Z</time>
      </trkpt>
      <trkpt lat="46.46494" lon="5.53484">
        <ele>409.2</ele>
        <time>2023-08-30T12:06:45Z</time>
      </trkpt>
      <trkpt lat="46.46493" lon="5.53483">
        <ele>409.2</ele>
        <time>2023-08-30T12:06:46Z</time>
      </trkpt>
      <trkpt lat="46.46491" lon="5.53482">
        <ele>409.6</ele>
        <time>2023-08-30T12:06:47Z</time>
      </trkpt>
      <trkpt lat="46.4649" lon="5.5348">
        <ele>410</ele>
        <time>2023-08-30T12:06:48Z</time>
      </trkpt>
      <trkpt lat="46.46489" lon="5.53479">
        <ele>410</ele>
        <time>2023-08-30T12:06:49Z</time>
      </trkpt>
      <trkpt lat="46.46487" lon="5.53478">
        <ele>410</ele>
        <time>2023-08-30T12:06:50Z</time>
      </trkpt>
      <trkpt lat="46.46486" lon="5.53477">
        <ele>410.2</ele>
        <time>2023-08-30T12:06:51Z</time>
      </trkpt>
      <trkpt lat="46.46484" lon="5.53476">
        <ele>410.4</ele>
        <time>2023-08-30T12:06:52Z</time>
      </trkpt>
      <trkpt lat="46.46482" lon="5.53475">
        <ele>410.4</ele>
        <time>2023-08-30T12:06:53Z</time>
      </trkpt>
      <trkpt lat="46.46481" lon="5.53473">
        <ele>410.4</ele>
        <time>2023-08-30T12:06:54Z</time>
      </trkpt>
      <trkpt lat="46.46479" lon="5.53472">
        <ele>411</ele>
        <time>2023-08-30T12:06:55Z</time>
      </trkpt>
      <trkpt lat="46.46478" lon="5.53471">
        <ele>411</ele>
        <time>2023-08-30T12:06:56Z</time>
      </trkpt>
      <trkpt lat="46.46476" lon="5.5347">
        <ele>411</ele>
        <time>2023-08-30T12:06:57Z</time>
      </trkpt>
      <trkpt lat="46.46475" lon="5.53468">
        <ele>411</ele>
        <time>2023-08-30T12:06:58Z</time>
      </trkpt>
      <trkpt lat="46.46473" lon="5.53467">
        <ele>411</ele>
        <time>2023-08-30T12:06:59Z</time>
      </trkpt>
      <trkpt lat="46.46472" lon="5.53465">
        <ele>411.6</ele>
        <time>2023-08-30T12:07:00Z</time>
      </trkpt>
      <trkpt lat="46.4647" lon="5.53464">
        <ele>411.6</ele>
        <time>2023-08-30T12:07:01Z</time>
      </trkpt>
      <trkpt lat="46.46469" lon="5.53463">
        <ele>411.6</ele>
        <time>2023-08-30T12:07:02Z</time>
      </trkpt>
      <trkpt lat="46.46467" lon="5.53462">
        <ele>411.6</ele>
        <time>2023-08-30T12:07:03Z</time>
      </trkpt>
      <trkpt lat="46.46466" lon="5.5346">
        <ele>412.2</ele>
        <time>2023-08-30T12:07:04Z</time>
      </trkpt>
      <trkpt lat="46.46464" lon="5.53458">
        <ele>412.2</ele>
        <time>2023-08-30T12:07:05Z</time>
      </trkpt>
      <trkpt lat="46.46463" lon="5.53457">
        <ele>412.2</ele>
        <time>2023-08-30T12:07:06Z</time>
      </trkpt>
      <trkpt lat="46.46462" lon="5.53455">
        <ele>412.2</ele>
        <time>2023-08-30T12:07:07Z</time>
      </trkpt>
      <trkpt lat="46.4646" lon="5.53453">
        <ele>412.6</ele>
        <time>2023-08-30T12:07:08Z</time>
      </trkpt>
      <trkpt lat="46.46459" lon="5.53452">
        <ele>412.8</ele>
        <time>2023-08-30T12:07:09Z</time>
      </trkpt>
      <trkpt lat="46.46457" lon="5.5345">
        <ele>412.8</ele>
        <time>2023-08-30T12:07:10Z</time>
      </trkpt>
      <trkpt lat="46.46456" lon="5.53449">
        <ele>412.8</ele>
        <time>2023-08-30T12:07:11Z</time>
      </trkpt>
      <trkpt lat="46.46454" lon="5.53447">
        <ele>412.8</ele>
        <time>2023-08-30T12:07:12Z</time>
      </trkpt>
      <trkpt lat="46.46453" lon="5.53446">
        <ele>413.2</ele>
        <time>2023-08-30T12:07:13Z</time>
      </trkpt>
      <trkpt lat="46.46451" lon="5.53445">
        <ele>413.4</ele>
        <time>2023-08-30T12:07:14Z</time>
      </trkpt>
      <trkpt lat="46.46449" lon="5.53444">
        <ele>413.4</ele>
        <time>2023-08-30T12:07:15Z</time>
      </trkpt>
      <trkpt lat="46.46448" lon="5.53443">
        <ele>413.4</ele>
        <time>2023-08-30T12:07:16Z</time>
      </trkpt>
      <trkpt lat="46.46446" lon="5.53441">
        <ele>413.8</ele>
        <time>2023-08-30T12:07:17Z</time>
      </trkpt>
      <trkpt lat="46.46445" lon="5.5344">
        <ele>414</ele>
        <time>2023-08-30T12:07:18Z</time>
      </trkpt>
      <trkpt lat="46.46443" lon="5.53439">
        <ele>414</ele>
        <time>2023-08-30T12:07:19Z</time>
      </trkpt>
      <trkpt lat="46.46441" lon="5.53437">
        <ele>414</ele>
        <time>2023-08-30T12:07:20Z</time>
      </trkpt>
      <trkpt lat="46.4644" lon="5.53436">
        <ele>414</ele>
        <time>2023-08-30T12:07:21Z</time>
      </trkpt>
      <trkpt lat="46.46438" lon="5.53434">
        <ele>414.2</ele>
        <time>2023-08-30T12:07:22Z</time>
      </trkpt>
      <trkpt lat="46.46437" lon="5.53433">
        <ele>414.4</ele>
        <time>2023-08-30T12:07:23Z</time>
      </trkpt>
      <trkpt lat="46.46435" lon="5.53432">
        <ele>414.4</ele>
        <time>2023-08-30T12:07:24Z</time>
      </trkpt>
      <trkpt lat="46.46434" lon="5.5343">
        <ele>414.4</ele>
        <time>2023-08-30T12:07:25Z</time>
      </trkpt>
      <trkpt lat="46.46433" lon="5.53429">
        <ele>414.6</ele>
        <time>2023-08-30T12:07:26Z</time>
      </trkpt>
      <trkpt lat="46.46431" lon="5.53427">
        <ele>414.8</ele>
        <time>2023-08-30T12:07:27Z</time>
      </trkpt>
      <trkpt lat="46.4643" lon="5.53426">
        <ele>414.8</ele>
        <time>2023-08-30T12:07:28Z</time>
      </trkpt>
      <trkpt lat="46.46428" lon="5.53424">
        <ele>414.8</ele>
        <time>2023-08-30T12:07:29Z</time>
      </trkpt>
      <trkpt lat="46.46426" lon="5.53423">
        <ele>414.8</ele>
        <time>2023-08-30T12:07:30Z</time>
      </trkpt>
      <trkpt lat="46.46424" lon="5.53421">
        <ele>414.8</ele>
        <time>2023-08-30T12:07:31Z</time>
      </trkpt>
      <trkpt lat="46.46422" lon="5.5342">
        <ele>414.8</ele>
        <time>2023-08-30T12:07:32Z</time>
      </trkpt>
      <trkpt lat="46.4642" lon="5.53419">
        <ele>415</ele>
        <time>2023-08-30T12:07:33Z</time>
      </trkpt>
      <trkpt lat="46.46418" lon="5.53418">
        <ele>415</ele>
        <time>2023-08-30T12:07:34Z</time>
      </trkpt>
      <trkpt lat="46.46416" lon="5.53416">
        <ele>415</ele>
        <time>2023-08-30T12:07:35Z</time>
      </trkpt>
      <trkpt lat="46.46414" lon="5.53415">
        <ele>415</ele>
        <time>2023-08-30T12:07:36Z</time>
      </trkpt>
      <trkpt lat="46.46411" lon="5.53413">
        <ele>415.2</ele>
        <time>2023-08-30T12:07:37Z</time>
      </trkpt>
      <trkpt lat="46.46409" lon="5.53411">
        <ele>415.2</ele>
        <time>2023-08-30T12:07:38Z</time>
      </trkpt>
      <trkpt lat="46.46407" lon="5.5341">
        <ele>415.2</ele>
        <time>2023-08-30T12:07:39Z</time>
      </trkpt>
      <trkpt lat="46.46405" lon="5.53408">
        <ele>415.2</ele>
        <time>2023-08-30T12:07:40Z</time>
      </trkpt>
      <trkpt lat="46.46403" lon="5.53407">
        <ele>415.2</ele>
        <time>2023-08-30T12:07:41Z</time>
      </trkpt>
      <trkpt lat="46.464" lon="5.53405">
        <ele>415.2</ele>
        <time>2023-08-30T12:07:42Z</time>
      </trkpt>
      <trkpt lat="46.46398" lon="5.53403">
        <ele>415.2</ele>
        <time>2023-08-30T12:07:43Z</time>
      </trkpt>
      <trkpt lat="46.46395" lon="5.53401">
        <ele>415.2</ele>
        <time>2023-08-30T12:07:44Z</time>
      </trkpt>
      <trkpt lat="46.46393" lon="5.534">
        <ele>415.2</ele>
        <time>2023-08-30T12:07:45Z</time>
      </trkpt>
      <trkpt lat="46.4639" lon="5.53398">
        <ele>415.2</ele>
        <time>2023-08-30T12:07:46Z</time>
      </trkpt>
      <trkpt lat="46.46387" lon="5.53396">
        <ele>415.2</ele>
        <time>2023-08-30T12:07:47Z</time>
      </trkpt>
      <trkpt lat="46.46385" lon="5.53395">
        <ele>415.2</ele>
        <time>2023-08-30T12:07:48Z</time>
      </trkpt>
      <trkpt lat="46.46382" lon="5.53393">
        <ele>415.2</ele>
        <time>2023-08-30T12:07:49Z</time>
      </trkpt>
      <trkpt lat="46.4638" lon="5.53392">
        <ele>415.6</ele>
        <time>2023-08-30T12:07:50Z</time>
      </trkpt>
      <trkpt lat="46.46377" lon="5.5339">
        <ele>415.6</ele>
        <time>2023-08-30T12:07:51Z</time>
      </trkpt>
      <trkpt lat="46.46375" lon="5.53389">
        <ele>415.6</ele>
        <time>2023-08-30T12:07:52Z</time>
      </trkpt>
      <trkpt lat="46.46372" lon="5.53387">
        <ele>415.4</ele>
        <time>2023-08-30T12:07:53Z</time>
      </trkpt>
      <trkpt lat="46.4637" lon="5.53386">
        <ele>415.6</ele>
        <time>2023-08-30T12:07:54Z</time>
      </trkpt>
      <trkpt lat="46.46367" lon="5.53384">
        <ele>415.6</ele>
        <time>2023-08-30T12:07:55Z</time>
      </trkpt>
      <trkpt lat="46.46364" lon="5.53383">
        <ele>415.6</ele>
        <time>2023-08-30T12:07:56Z</time>
      </trkpt>
      <trkpt lat="46.46362" lon="5.53382">
        <ele>415.6</ele>
        <time>2023-08-30T12:07:57Z</time>
      </trkpt>
      <trkpt lat="46.4636" lon="5.53381">
        <ele>415.6</ele>
        <time>2023-08-30T12:07:58Z</time>
      </trkpt>
      <trkpt lat="46.46357" lon="5.5338">
        <ele>415.8</ele>
        <time>2023-08-30T12:07:59Z</time>
      </trkpt>
      <trkpt lat="46.46354" lon="5.53378">
        <ele>415.8</ele>
        <time>2023-08-30T12:08:00Z</time>
      </trkpt>
      <trkpt lat="46.46352" lon="5.53377">
        <ele>415.8</ele>
        <time>2023-08-30T12:08:01Z</time>
      </trkpt>
      <trkpt lat="46.46349" lon="5.53376">
        <ele>416.2</ele>
        <time>2023-08-30T12:08:02Z</time>
      </trkpt>
      <trkpt lat="46.46347" lon="5.53375">
        <ele>416.4</ele>
        <time>2023-08-30T12:08:03Z</time>
      </trkpt>
      <trkpt lat="46.46344" lon="5.53374">
        <ele>416.4</ele>
        <time>2023-08-30T12:08:04Z</time>
      </trkpt>
      <trkpt lat="46.46342" lon="5.53372">
        <ele>416.4</ele>
        <time>2023-08-30T12:08:05Z</time>
      </trkpt>
      <trkpt lat="46.4634" lon="5.53371">
        <ele>416.4</ele>
        <time>2023-08-30T12:08:06Z</time>
      </trkpt>
      <trkpt lat="46.46337" lon="5.5337">
        <ele>416.8</ele>
        <time>2023-08-30T12:08:07Z</time>
      </trkpt>
      <trkpt lat="46.46335" lon="5.53369">
        <ele>416.8</ele>
        <time>2023-08-30T12:08:08Z</time>
      </trkpt>
      <trkpt lat="46.46332" lon="5.53368">
        <ele>416.8</ele>
        <time>2023-08-30T12:08:09Z</time>
      </trkpt>
      <trkpt lat="46.4633" lon="5.53367">
        <ele>416.8</ele>
        <time>2023-08-30T12:08:10Z</time>
      </trkpt>
      <trkpt lat="46.46327" lon="5.53366">
        <ele>416.8</ele>
        <time>2023-08-30T12:08:11Z</time>
      </trkpt>
      <trkpt lat="46.46325" lon="5.53365">
        <ele>417.2</ele>
        <time>2023-08-30T12:08:12Z</time>
      </trkpt>
      <trkpt lat="46.46322" lon="5.53364">
        <ele>417.2</ele>
        <time>2023-08-30T12:08:13Z</time>
      </trkpt>
      <trkpt lat="46.46319" lon="5.53363">
        <ele>417.2</ele>
        <time>2023-08-30T12:08:14Z</time>
      </trkpt>
      <trkpt lat="46.46316" lon="5.53362">
        <ele>417.2</ele>
        <time>2023-08-30T12:08:15Z</time>
      </trkpt>
      <trkpt lat="46.46314" lon="5.53361">
        <ele>417.6</ele>
        <time>2023-08-30T12:08:16Z</time>
      </trkpt>
      <trkpt lat="46.46311" lon="5.5336">
        <ele>417.8</ele>
        <time>2023-08-30T12:08:17Z</time>
      </trkpt>
      <trkpt lat="46.46308" lon="5.53358">
        <ele>417.8</ele>
        <time>2023-08-30T12:08:18Z</time>
      </trkpt>
      <trkpt lat="46.46306" lon="5.53357">
        <ele>417.8</ele>
        <time>2023-08-30T12:08:19Z</time>
      </trkpt>
      <trkpt lat="46.46303" lon="5.53356">
        <ele>418.2</ele>
        <time>2023-08-30T12:08:20Z</time>
      </trkpt>
      <trkpt lat="46.463" lon="5.53354">
        <ele>418.2</ele>
        <time>2023-08-30T12:08:21Z</time>
      </trkpt>
      <trkpt lat="46.46297" lon="5.53354">
        <ele>418.2</ele>
        <time>2023-08-30T12:08:22Z</time>
      </trkpt>
      <trkpt lat="46.46294" lon="5.53352">
        <ele>418.2</ele>
        <time>2023-08-30T12:08:23Z</time>
      </trkpt>
      <trkpt lat="46.46292" lon="5.53351">
        <ele>418.2</ele>
        <time>2023-08-30T12:08:24Z</time>
      </trkpt>
      <trkpt lat="46.46289" lon="5.5335">
        <ele>419</ele>
        <time>2023-08-30T12:08:25Z</time>
      </trkpt>
      <trkpt lat="46.46286" lon="5.53349">
        <ele>419</ele>
        <time>2023-08-30T12:08:26Z</time>
      </trkpt>
      <trkpt lat="46.46284" lon="5.53348">
        <ele>419</ele>
        <time>2023-08-30T12:08:27Z</time>
      </trkpt>
      <trkpt lat="46.46281" lon="5.53348">
        <ele>419</ele>
        <time>2023-08-30T12:08:28Z</time>
      </trkpt>
      <trkpt lat="46.46278" lon="5.53347">
        <ele>419.6</ele>
        <time>2023-08-30T12:08:29Z</time>
      </trkpt>
      <trkpt lat="46.46276" lon="5.53346">
        <ele>419.8</ele>
        <time>2023-08-30T12:08:30Z</time>
      </trkpt>
      <trkpt lat="46.46273" lon="5.53345">
        <ele>419.8</ele>
        <time>2023-08-30T12:08:31Z</time>
      </trkpt>
      <trkpt lat="46.46271" lon="5.53344">
        <ele>419.8</ele>
        <time>2023-08-30T12:08:32Z</time>
      </trkpt>
      <trkpt lat="46.46269" lon="5.53343">
        <ele>419.8</ele>
        <time>2023-08-30T12:08:33Z</time>
      </trkpt>
      <trkpt lat="46.46266" lon="5.53342">
        <ele>419.8</ele>
        <time>2023-08-30T12:08:34Z</time>
      </trkpt>
      <trkpt lat="46.46264" lon="5.53341">
        <ele>420.6</ele>
        <time>2023-08-30T12:08:35Z</time>
      </trkpt>
      <trkpt lat="46.46261" lon="5.5334">
        <ele>420.6</ele>
        <time>2023-08-30T12:08:36Z</time>
      </trkpt>
      <trkpt lat="46.46259" lon="5.53339">
        <ele>420.6</ele>
        <time>2023-08-30T12:08:37Z</time>
      </trkpt>
      <trkpt lat="46.46256" lon="5.53338">
        <ele>421</ele>
        <time>2023-08-30T12:08:38Z</time>
      </trkpt>
      <trkpt lat="46.46253" lon="5.53337">
        <ele>421.2</ele>
        <time>2023-08-30T12:08:39Z</time>
      </trkpt>
      <trkpt lat="46.46251" lon="5.53336">
        <ele>421.2</ele>
        <time>2023-08-30T12:08:40Z</time>
      </trkpt>
      <trkpt lat="46.46248" lon="5.53335">
        <ele>421.2</ele>
        <time>2023-08-30T12:08:41Z</time>
      </trkpt>
      <trkpt lat="46.46246" lon="5.53334">
        <ele>421.2</ele>
        <time>2023-08-30T12:08:42Z</time>
      </trkpt>
      <trkpt lat="46.46243" lon="5.53333">
        <ele>422</ele>
        <time>2023-08-30T12:08:43Z</time>
      </trkpt>
      <trkpt lat="46.4624" lon="5.53331">
        <ele>422</ele>
        <time>2023-08-30T12:08:44Z</time>
      </trkpt>
      <trkpt lat="46.46237" lon="5.5333">
        <ele>422</ele>
        <time>2023-08-30T12:08:45Z</time>
      </trkpt>
      <trkpt lat="46.46234" lon="5.53328">
        <ele>422.4</ele>
        <time>2023-08-30T12:08:46Z</time>
      </trkpt>
      <trkpt lat="46.46231" lon="5.53327">
        <ele>422.4</ele>
        <time>2023-08-30T12:08:47Z</time>
      </trkpt>
      <trkpt lat="46.46228" lon="5.53325">
        <ele>422.8</ele>
        <time>2023-08-30T12:08:48Z</time>
      </trkpt>
      <trkpt lat="46.46224" lon="5.53323">
        <ele>422.8</ele>
        <time>2023-08-30T12:08:49Z</time>
      </trkpt>
      <trkpt lat="46.46221" lon="5.53322">
        <ele>422.8</ele>
        <time>2023-08-30T12:08:50Z</time>
      </trkpt>
      <trkpt lat="46.46218" lon="5.5332">
        <ele>423</ele>
        <time>2023-08-30T12:08:51Z</time>
      </trkpt>
      <trkpt lat="46.46215" lon="5.53318">
        <ele>423.4</ele>
        <time>2023-08-30T12:08:52Z</time>
      </trkpt>
      <trkpt lat="46.46212" lon="5.53317">
        <ele>423.4</ele>
        <time>2023-08-30T12:08:53Z</time>
      </trkpt>
      <trkpt lat="46.46208" lon="5.53315">
        <ele>423.4</ele>
        <time>2023-08-30T12:08:54Z</time>
      </trkpt>
      <trkpt lat="46.46205" lon="5.53314">
        <ele>423.4</ele>
        <time>2023-08-30T12:08:55Z</time>
      </trkpt>
      <trkpt lat="46.46202" lon="5.53313">
        <ele>423.8</ele>
        <time>2023-08-30T12:08:56Z</time>
      </trkpt>
      <trkpt lat="46.46198" lon="5.53311">
        <ele>423.8</ele>
        <time>2023-08-30T12:08:57Z</time>
      </trkpt>
      <trkpt lat="46.46195" lon="5.53309">
        <ele>423.8</ele>
        <time>2023-08-30T12:08:58Z</time>
      </trkpt>
      <trkpt lat="46.46192" lon="5.53308">
        <ele>423.8</ele>
        <time>2023-08-30T12:08:59Z</time>
      </trkpt>
      <trkpt lat="46.46189" lon="5.53306">
        <ele>423.8</ele>
        <time>2023-08-30T12:09:00Z</time>
      </trkpt>
      <trkpt lat="46.46186" lon="5.53305">
        <ele>424.6</ele>
        <time>2023-08-30T12:09:01Z</time>
      </trkpt>
      <trkpt lat="46.46183" lon="5.53303">
        <ele>424.6</ele>
        <time>2023-08-30T12:09:02Z</time>
      </trkpt>
      <trkpt lat="46.4618" lon="5.53302">
        <ele>424.6</ele>
        <time>2023-08-30T12:09:03Z</time>
      </trkpt>
      <trkpt lat="46.46177" lon="5.533">
        <ele>424.6</ele>
        <time>2023-08-30T12:09:04Z</time>
      </trkpt>
      <trkpt lat="46.46173" lon="5.53299">
        <ele>424.6</ele>
        <time>2023-08-30T12:09:05Z</time>
      </trkpt>
      <trkpt lat="46.4617" lon="5.53297">
        <ele>425.2</ele>
        <time>2023-08-30T12:09:06Z</time>
      </trkpt>
      <trkpt lat="46.46167" lon="5.53295">
        <ele>425.2</ele>
        <time>2023-08-30T12:09:07Z</time>
      </trkpt>
      <trkpt lat="46.46164" lon="5.53294">
        <ele>425.2</ele>
        <time>2023-08-30T12:09:08Z</time>
      </trkpt>
      <trkpt lat="46.4616" lon="5.53292">
        <ele>425.6</ele>
        <time>2023-08-30T12:09:09Z</time>
      </trkpt>
      <trkpt lat="46.46157" lon="5.5329">
        <ele>425.6</ele>
        <time>2023-08-30T12:09:10Z</time>
      </trkpt>
      <trkpt lat="46.46154" lon="5.53289">
        <ele>425.6</ele>
        <time>2023-08-30T12:09:11Z</time>
      </trkpt>
      <trkpt lat="46.46151" lon="5.53288">
        <ele>425.6</ele>
        <time>2023-08-30T12:09:12Z</time>
      </trkpt>
      <trkpt lat="46.46147" lon="5.53286">
        <ele>425.6</ele>
        <time>2023-08-30T12:09:13Z</time>
      </trkpt>
      <trkpt lat="46.46144" lon="5.53284">
        <ele>426.2</ele>
        <time>2023-08-30T12:09:14Z</time>
      </trkpt>
      <trkpt lat="46.46141" lon="5.53282">
        <ele>425.8</ele>
        <time>2023-08-30T12:09:15Z</time>
      </trkpt>
      <trkpt lat="46.46138" lon="5.53281">
        <ele>425.8</ele>
        <time>2023-08-30T12:09:16Z</time>
      </trkpt>
      <trkpt lat="46.46134" lon="5.53278">
        <ele>425.8</ele>
        <time>2023-08-30T12:09:17Z</time>
      </trkpt>
      <trkpt lat="46.46131" lon="5.53276">
        <ele>426.4</ele>
        <time>2023-08-30T12:09:18Z</time>
      </trkpt>
      <trkpt lat="46.46127" lon="5.53274">
        <ele>426.4</ele>
        <time>2023-08-30T12:09:19Z</time>
      </trkpt>
      <trkpt lat="46.46124" lon="5.53272">
        <ele>426.4</ele>
        <time>2023-08-30T12:09:20Z</time>
      </trkpt>
      <trkpt lat="46.46121" lon="5.5327">
        <ele>426.4</ele>
        <time>2023-08-30T12:09:21Z</time>
      </trkpt>
      <trkpt lat="46.46117" lon="5.53268">
        <ele>426.4</ele>
        <time>2023-08-30T12:09:22Z</time>
      </trkpt>
      <trkpt lat="46.46114" lon="5.53266">
        <ele>426.4</ele>
        <time>2023-08-30T12:09:23Z</time>
      </trkpt>
      <trkpt lat="46.46111" lon="5.53264">
        <ele>426.8</ele>
        <time>2023-08-30T12:09:24Z</time>
      </trkpt>
      <trkpt lat="46.46108" lon="5.53262">
        <ele>426.8</ele>
        <time>2023-08-30T12:09:25Z</time>
      </trkpt>
      <trkpt lat="46.46104" lon="5.5326">
        <ele>426.8</ele>
        <time>2023-08-30T12:09:26Z</time>
      </trkpt>
      <trkpt lat="46.46101" lon="5.53258">
        <ele>427.2</ele>
        <time>2023-08-30T12:09:27Z</time>
      </trkpt>
      <trkpt lat="46.46098" lon="5.53256">
        <ele>427</ele>
        <time>2023-08-30T12:09:28Z</time>
      </trkpt>
      <trkpt lat="46.46095" lon="5.53254">
        <ele>427</ele>
        <time>2023-08-30T12:09:29Z</time>
      </trkpt>
      <trkpt lat="46.46091" lon="5.53252">
        <ele>427</ele>
        <time>2023-08-30T12:09:30Z</time>
      </trkpt>
      <trkpt lat="46.46088" lon="5.5325">
        <ele>427</ele>
        <time>2023-08-30T12:09:31Z</time>
      </trkpt>
      <trkpt lat="46.46084" lon="5.53247">
        <ele>428</ele>
        <time>2023-08-30T12:09:32Z</time>
      </trkpt>
      <trkpt lat="46.46081" lon="5.53245">
        <ele>428</ele>
        <time>2023-08-30T12:09:33Z</time>
      </trkpt>
      <trkpt lat="46.46077" lon="5.53242">
        <ele>428</ele>
        <time>2023-08-30T12:09:34Z</time>
      </trkpt>
      <trkpt lat="46.46073" lon="5.5324">
        <ele>428</ele>
        <time>2023-08-30T12:09:35Z</time>
      </trkpt>
      <trkpt lat="46.46069" lon="5.53238">
        <ele>428</ele>
        <time>2023-08-30T12:09:36Z</time>
      </trkpt>
      <trkpt lat="46.46064" lon="5.53236">
        <ele>428</ele>
        <time>2023-08-30T12:09:37Z</time>
      </trkpt>
      <trkpt lat="46.4606" lon="5.53233">
        <ele>428</ele>
        <time>2023-08-30T12:09:38Z</time>
      </trkpt>
      <trkpt lat="46.46056" lon="5.53231">
        <ele>428</ele>
        <time>2023-08-30T12:09:39Z</time>
      </trkpt>
      <trkpt lat="46.46052" lon="5.53229">
        <ele>428</ele>
        <time>2023-08-30T12:09:40Z</time>
      </trkpt>
      <trkpt lat="46.46048" lon="5.53226">
        <ele>428</ele>
        <time>2023-08-30T12:09:41Z</time>
      </trkpt>
      <trkpt lat="46.46044" lon="5.53223">
        <ele>428.6</ele>
        <time>2023-08-30T12:09:42Z</time>
      </trkpt>
      <trkpt lat="46.4604" lon="5.53221">
        <ele>428.6</ele>
        <time>2023-08-30T12:09:43Z</time>
      </trkpt>
      <trkpt lat="46.46036" lon="5.53218">
        <ele>428.6</ele>
        <time>2023-08-30T12:09:44Z</time>
      </trkpt>
      <trkpt lat="46.46031" lon="5.53216">
        <ele>428.6</ele>
        <time>2023-08-30T12:09:45Z</time>
      </trkpt>
      <trkpt lat="46.46027" lon="5.53214">
        <ele>429</ele>
        <time>2023-08-30T12:09:46Z</time>
      </trkpt>
      <trkpt lat="46.46022" lon="5.53211">
        <ele>429</ele>
        <time>2023-08-30T12:09:47Z</time>
      </trkpt>
      <trkpt lat="46.46018" lon="5.53209">
        <ele>429</ele>
        <time>2023-08-30T12:09:48Z</time>
      </trkpt>
      <trkpt lat="46.46013" lon="5.53207">
        <ele>429</ele>
        <time>2023-08-30T12:09:49Z</time>
      </trkpt>
      <trkpt lat="46.46009" lon="5.53205">
        <ele>429</ele>
        <time>2023-08-30T12:09:50Z</time>
      </trkpt>
      <trkpt lat="46.46005" lon="5.53203">
        <ele>429</ele>
        <time>2023-08-30T12:09:51Z</time>
      </trkpt>
      <trkpt lat="46.46001" lon="5.53201">
        <ele>429</ele>
        <time>2023-08-30T12:09:52Z</time>
      </trkpt>
      <trkpt lat="46.45997" lon="5.53199">
        <ele>429</ele>
        <time>2023-08-30T12:09:53Z</time>
      </trkpt>
      <trkpt lat="46.45993" lon="5.53197">
        <ele>429.8</ele>
        <time>2023-08-30T12:09:54Z</time>
      </trkpt>
      <trkpt lat="46.45989" lon="5.53195">
        <ele>429.8</ele>
        <time>2023-08-30T12:09:55Z</time>
      </trkpt>
      <trkpt lat="46.45983" lon="5.53193">
        <ele>429.8</ele>
        <time>2023-08-30T12:09:56Z</time>
      </trkpt>
      <trkpt lat="46.45981" lon="5.53192">
        <ele>429.8</ele>
        <time>2023-08-30T12:09:57Z</time>
      </trkpt>
      <trkpt lat="46.45977" lon="5.53191">
        <ele>429.8</ele>
        <time>2023-08-30T12:09:58Z</time>
      </trkpt>
      <trkpt lat="46.45974" lon="5.53189">
        <ele>429.8</ele>
        <time>2023-08-30T12:09:59Z</time>
      </trkpt>
      <trkpt lat="46.4597" lon="5.53187">
        <ele>430.4</ele>
        <time>2023-08-30T12:10:00Z</time>
      </trkpt>
      <trkpt lat="46.45967" lon="5.53186">
        <ele>430.4</ele>
        <time>2023-08-30T12:10:01Z</time>
      </trkpt>
      <trkpt lat="46.45963" lon="5.53184">
        <ele>430.4</ele>
        <time>2023-08-30T12:10:02Z</time>
      </trkpt>
      <trkpt lat="46.4596" lon="5.53183">
        <ele>430.8</ele>
        <time>2023-08-30T12:10:03Z</time>
      </trkpt>
      <trkpt lat="46.45956" lon="5.53182">
        <ele>431</ele>
        <time>2023-08-30T12:10:04Z</time>
      </trkpt>
      <trkpt lat="46.45952" lon="5.53181">
        <ele>431</ele>
        <time>2023-08-30T12:10:05Z</time>
      </trkpt>
      <trkpt lat="46.45949" lon="5.5318">
        <ele>431</ele>
        <time>2023-08-30T12:10:06Z</time>
      </trkpt>
      <trkpt lat="46.45945" lon="5.53178">
        <ele>431.6</ele>
        <time>2023-08-30T12:10:07Z</time>
      </trkpt>
      <trkpt lat="46.45942" lon="5.53177">
        <ele>431.6</ele>
        <time>2023-08-30T12:10:08Z</time>
      </trkpt>
      <trkpt lat="46.45938" lon="5.53176">
        <ele>431.4</ele>
        <time>2023-08-30T12:10:09Z</time>
      </trkpt>
      <trkpt lat="46.45936" lon="5.53175">
        <ele>431.4</ele>
        <time>2023-08-30T12:10:10Z</time>
      </trkpt>
      <trkpt lat="46.45933" lon="5.53174">
        <ele>431.4</ele>
        <time>2023-08-30T12:10:11Z</time>
      </trkpt>
      <trkpt lat="46.4593" lon="5.53173">
        <ele>431.8</ele>
        <time>2023-08-30T12:10:12Z</time>
      </trkpt>
      <trkpt lat="46.45927" lon="5.53172">
        <ele>432</ele>
        <time>2023-08-30T12:10:13Z</time>
      </trkpt>
      <trkpt lat="46.45924" lon="5.53171">
        <ele>432</ele>
        <time>2023-08-30T12:10:14Z</time>
      </trkpt>
      <trkpt lat="46.45921" lon="5.5317">
        <ele>432</ele>
        <time>2023-08-30T12:10:15Z</time>
      </trkpt>
      <trkpt lat="46.45918" lon="5.53168">
        <ele>432.4</ele>
        <time>2023-08-30T12:10:16Z</time>
      </trkpt>
      <trkpt lat="46.45915" lon="5.53168">
        <ele>432.4</ele>
        <time>2023-08-30T12:10:17Z</time>
      </trkpt>
      <trkpt lat="46.45912" lon="5.53166">
        <ele>432.4</ele>
        <time>2023-08-30T12:10:18Z</time>
      </trkpt>
      <trkpt lat="46.45909" lon="5.53165">
        <ele>432.4</ele>
        <time>2023-08-30T12:10:19Z</time>
      </trkpt>
      <trkpt lat="46.45906" lon="5.53164">
        <ele>432.4</ele>
        <time>2023-08-30T12:10:20Z</time>
      </trkpt>
      <trkpt lat="46.45902" lon="5.53163">
        <ele>432.4</ele>
        <time>2023-08-30T12:10:21Z</time>
      </trkpt>
      <trkpt lat="46.45899" lon="5.53162">
        <ele>433</ele>
        <time>2023-08-30T12:10:22Z</time>
      </trkpt>
      <trkpt lat="46.45896" lon="5.53161">
        <ele>432.8</ele>
        <time>2023-08-30T12:10:23Z</time>
      </trkpt>
      <trkpt lat="46.45893" lon="5.53159">
        <ele>432.8</ele>
        <time>2023-08-30T12:10:24Z</time>
      </trkpt>
      <trkpt lat="46.4589" lon="5.53158">
        <ele>432.8</ele>
        <time>2023-08-30T12:10:25Z</time>
      </trkpt>
      <trkpt lat="46.45886" lon="5.53157">
        <ele>433.4</ele>
        <time>2023-08-30T12:10:26Z</time>
      </trkpt>
      <trkpt lat="46.45883" lon="5.53156">
        <ele>433.8</ele>
        <time>2023-08-30T12:10:27Z</time>
      </trkpt>
      <trkpt lat="46.4588" lon="5.53155">
        <ele>433.8</ele>
        <time>2023-08-30T12:10:28Z</time>
      </trkpt>
      <trkpt lat="46.45877" lon="5.53154">
        <ele>433.8</ele>
        <time>2023-08-30T12:10:29Z</time>
      </trkpt>
      <trkpt lat="46.45873" lon="5.53153">
        <ele>433.8</ele>
        <time>2023-08-30T12:10:30Z</time>
      </trkpt>
      <trkpt lat="46.4587" lon="5.53151">
        <ele>433.6</ele>
        <time>2023-08-30T12:10:31Z</time>
      </trkpt>
      <trkpt lat="46.45866" lon="5.5315">
        <ele>433.6</ele>
        <time>2023-08-30T12:10:32Z</time>
      </trkpt>
      <trkpt lat="46.45863" lon="5.5315">
        <ele>433.6</ele>
        <time>2023-08-30T12:10:33Z</time>
      </trkpt>
      <trkpt lat="46.45859" lon="5.53148">
        <ele>433.6</ele>
        <time>2023-08-30T12:10:34Z</time>
      </trkpt>
      <trkpt lat="46.45856" lon="5.53147">
        <ele>434.4</ele>
        <time>2023-08-30T12:10:35Z</time>
      </trkpt>
      <trkpt lat="46.45853" lon="5.53146">
        <ele>434.8</ele>
        <time>2023-08-30T12:10:36Z</time>
      </trkpt>
      <trkpt lat="46.45849" lon="5.53144">
        <ele>434.8</ele>
        <time>2023-08-30T12:10:37Z</time>
      </trkpt>
      <trkpt lat="46.45846" lon="5.53143">
        <ele>434.8</ele>
        <time>2023-08-30T12:10:38Z</time>
      </trkpt>
      <trkpt lat="46.45843" lon="5.53141">
        <ele>434.8</ele>
        <time>2023-08-30T12:10:39Z</time>
      </trkpt>
      <trkpt lat="46.4584" lon="5.5314">
        <ele>434.8</ele>
        <time>2023-08-30T12:10:40Z</time>
      </trkpt>
      <trkpt lat="46.45837" lon="5.53139">
        <ele>435.2</ele>
        <time>2023-08-30T12:10:41Z</time>
      </trkpt>
      <trkpt lat="46.45833" lon="5.53137">
        <ele>435.2</ele>
        <time>2023-08-30T12:10:42Z</time>
      </trkpt>
      <trkpt lat="46.4583" lon="5.53136">
        <ele>435.2</ele>
        <time>2023-08-30T12:10:43Z</time>
      </trkpt>
      <trkpt lat="46.45827" lon="5.53135">
        <ele>435.2</ele>
        <time>2023-08-30T12:10:44Z</time>
      </trkpt>
      <trkpt lat="46.45823" lon="5.53133">
        <ele>435.4</ele>
        <time>2023-08-30T12:10:45Z</time>
      </trkpt>
      <trkpt lat="46.4582" lon="5.53131">
        <ele>435.4</ele>
        <time>2023-08-30T12:10:46Z</time>
      </trkpt>
      <trkpt lat="46.45817" lon="5.53129">
        <ele>435.4</ele>
        <time>2023-08-30T12:10:47Z</time>
      </trkpt>
      <trkpt lat="46.45814" lon="5.53127">
        <ele>436</ele>
        <time>2023-08-30T12:10:48Z</time>
      </trkpt>
      <trkpt lat="46.4581" lon="5.53125">
        <ele>435.8</ele>
        <time>2023-08-30T12:10:49Z</time>
      </trkpt>
      <trkpt lat="46.45807" lon="5.53123">
        <ele>435.8</ele>
        <time>2023-08-30T12:10:50Z</time>
      </trkpt>
      <trkpt lat="46.45804" lon="5.53122">
        <ele>435.8</ele>
        <time>2023-08-30T12:10:51Z</time>
      </trkpt>
      <trkpt lat="46.45801" lon="5.5312">
        <ele>436.2</ele>
        <time>2023-08-30T12:10:52Z</time>
      </trkpt>
      <trkpt lat="46.45798" lon="5.53118">
        <ele>436.2</ele>
        <time>2023-08-30T12:10:53Z</time>
      </trkpt>
      <trkpt lat="46.45794" lon="5.53115">
        <ele>436.2</ele>
        <time>2023-08-30T12:10:54Z</time>
      </trkpt>
      <trkpt lat="46.45791" lon="5.53113">
        <ele>436.2</ele>
        <time>2023-08-30T12:10:55Z</time>
      </trkpt>
      <trkpt lat="46.45788" lon="5.53111">
        <ele>436.2</ele>
        <time>2023-08-30T12:10:56Z</time>
      </trkpt>
      <trkpt lat="46.45784" lon="5.53109">
        <ele>436.4</ele>
        <time>2023-08-30T12:10:57Z</time>
      </trkpt>
      <trkpt lat="46.45781" lon="5.53107">
        <ele>436.4</ele>
        <time>2023-08-30T12:10:58Z</time>
      </trkpt>
      <trkpt lat="46.45777" lon="5.53105">
        <ele>436.4</ele>
        <time>2023-08-30T12:10:59Z</time>
      </trkpt>
      <trkpt lat="46.45774" lon="5.53102">
        <ele>436.4</ele>
        <time>2023-08-30T12:11:00Z</time>
      </trkpt>
      <trkpt lat="46.4577" lon="5.531">
        <ele>436.4</ele>
        <time>2023-08-30T12:11:01Z</time>
      </trkpt>
      <trkpt lat="46.45766" lon="5.53097">
        <ele>436.4</ele>
        <time>2023-08-30T12:11:02Z</time>
      </trkpt>
      <trkpt lat="46.45762" lon="5.53095">
        <ele>436.4</ele>
        <time>2023-08-30T12:11:03Z</time>
      </trkpt>
      <trkpt lat="46.45758" lon="5.53093">
        <ele>436.4</ele>
        <time>2023-08-30T12:11:04Z</time>
      </trkpt>
      <trkpt lat="46.45754" lon="5.5309">
        <ele>436.4</ele>
        <time>2023-08-30T12:11:05Z</time>
      </trkpt>
      <trkpt lat="46.4575" lon="5.53088">
        <ele>436.4</ele>
        <time>2023-08-30T12:11:06Z</time>
      </trkpt>
      <trkpt lat="46.45746" lon="5.53085">
        <ele>436.4</ele>
        <time>2023-08-30T12:11:07Z</time>
      </trkpt>
      <trkpt lat="46.45742" lon="5.53083">
        <ele>436.6</ele>
        <time>2023-08-30T12:11:08Z</time>
      </trkpt>
      <trkpt lat="46.45738" lon="5.5308">
        <ele>436.6</ele>
        <time>2023-08-30T12:11:09Z</time>
      </trkpt>
      <trkpt lat="46.45734" lon="5.53078">
        <ele>436.6</ele>
        <time>2023-08-30T12:11:10Z</time>
      </trkpt>
      <trkpt lat="46.4573" lon="5.53075">
        <ele>436.6</ele>
        <time>2023-08-30T12:11:11Z</time>
      </trkpt>
      <trkpt lat="46.45725" lon="5.53073">
        <ele>436.6</ele>
        <time>2023-08-30T12:11:12Z</time>
      </trkpt>
      <trkpt lat="46.45721" lon="5.5307">
        <ele>436.6</ele>
        <time>2023-08-30T12:11:13Z</time>
      </trkpt>
      <trkpt lat="46.45716" lon="5.53067">
        <ele>436.6</ele>
        <time>2023-08-30T12:11:14Z</time>
      </trkpt>
      <trkpt lat="46.45711" lon="5.53064">
        <ele>436.6</ele>
        <time>2023-08-30T12:11:15Z</time>
      </trkpt>
      <trkpt lat="46.45707" lon="5.53062">
        <ele>437</ele>
        <time>2023-08-30T12:11:16Z</time>
      </trkpt>
      <trkpt lat="46.45702" lon="5.53059">
        <ele>437</ele>
        <time>2023-08-30T12:11:17Z</time>
      </trkpt>
      <trkpt lat="46.45697" lon="5.53056">
        <ele>437</ele>
        <time>2023-08-30T12:11:18Z</time>
      </trkpt>
      <trkpt lat="46.45692" lon="5.53054">
        <ele>437</ele>
        <time>2023-08-30T12:11:19Z</time>
      </trkpt>
      <trkpt lat="46.45687" lon="5.53051">
        <ele>436.6</ele>
        <time>2023-08-30T12:11:20Z</time>
      </trkpt>
      <trkpt lat="46.45683" lon="5.53049">
        <ele>436.8</ele>
        <time>2023-08-30T12:11:21Z</time>
      </trkpt>
      <trkpt lat="46.45678" lon="5.53046">
        <ele>436.8</ele>
        <time>2023-08-30T12:11:22Z</time>
      </trkpt>
      <trkpt lat="46.45673" lon="5.53044">
        <ele>436.8</ele>
        <time>2023-08-30T12:11:23Z</time>
      </trkpt>
      <trkpt lat="46.45668" lon="5.53042">
        <ele>436.8</ele>
        <time>2023-08-30T12:11:24Z</time>
      </trkpt>
      <trkpt lat="46.45664" lon="5.5304">
        <ele>436.8</ele>
        <time>2023-08-30T12:11:25Z</time>
      </trkpt>
      <trkpt lat="46.45659" lon="5.53037">
        <ele>436.8</ele>
        <time>2023-08-30T12:11:26Z</time>
      </trkpt>
      <trkpt lat="46.45654" lon="5.53035">
        <ele>436.8</ele>
        <time>2023-08-30T12:11:27Z</time>
      </trkpt>
      <trkpt lat="46.45649" lon="5.53033">
        <ele>437</ele>
        <time>2023-08-30T12:11:28Z</time>
      </trkpt>
      <trkpt lat="46.45644" lon="5.53031">
        <ele>437.2</ele>
        <time>2023-08-30T12:11:29Z</time>
      </trkpt>
      <trkpt lat="46.4564" lon="5.53029">
        <ele>437.2</ele>
        <time>2023-08-30T12:11:30Z</time>
      </trkpt>
      <trkpt lat="46.45636" lon="5.53027">
        <ele>437.2</ele>
        <time>2023-08-30T12:11:31Z</time>
      </trkpt>
      <trkpt lat="46.45631" lon="5.53025">
        <ele>437.2</ele>
        <time>2023-08-30T12:11:32Z</time>
      </trkpt>
      <trkpt lat="46.45627" lon="5.53023">
        <ele>437.6</ele>
        <time>2023-08-30T12:11:33Z</time>
      </trkpt>
      <trkpt lat="46.45623" lon="5.5302">
        <ele>437.8</ele>
        <time>2023-08-30T12:11:34Z</time>
      </trkpt>
      <trkpt lat="46.45619" lon="5.53017">
        <ele>437.8</ele>
        <time>2023-08-30T12:11:35Z</time>
      </trkpt>
      <trkpt lat="46.45615" lon="5.53014">
        <ele>437.8</ele>
        <time>2023-08-30T12:11:36Z</time>
      </trkpt>
      <trkpt lat="46.45611" lon="5.53012">
        <ele>438</ele>
        <time>2023-08-30T12:11:37Z</time>
      </trkpt>
      <trkpt lat="46.45607" lon="5.53008">
        <ele>438</ele>
        <time>2023-08-30T12:11:38Z</time>
      </trkpt>
      <trkpt lat="46.45603" lon="5.53005">
        <ele>438</ele>
        <time>2023-08-30T12:11:39Z</time>
      </trkpt>
      <trkpt lat="46.45599" lon="5.53001">
        <ele>438</ele>
        <time>2023-08-30T12:11:40Z</time>
      </trkpt>
      <trkpt lat="46.45595" lon="5.52998">
        <ele>438.4</ele>
        <time>2023-08-30T12:11:41Z</time>
      </trkpt>
      <trkpt lat="46.45591" lon="5.52994">
        <ele>438.4</ele>
        <time>2023-08-30T12:11:42Z</time>
      </trkpt>
      <trkpt lat="46.45587" lon="5.52989">
        <ele>438.8</ele>
        <time>2023-08-30T12:11:43Z</time>
      </trkpt>
      <trkpt lat="46.45584" lon="5.52985">
        <ele>438.8</ele>
        <time>2023-08-30T12:11:44Z</time>
      </trkpt>
      <trkpt lat="46.4558" lon="5.52981">
        <ele>438.8</ele>
        <time>2023-08-30T12:11:45Z</time>
      </trkpt>
      <trkpt lat="46.45577" lon="5.52978">
        <ele>438.8</ele>
        <time>2023-08-30T12:11:46Z</time>
      </trkpt>
      <trkpt lat="46.45574" lon="5.52974">
        <ele>438.8</ele>
        <time>2023-08-30T12:11:47Z</time>
      </trkpt>
      <trkpt lat="46.45571" lon="5.5297">
        <ele>438.8</ele>
        <time>2023-08-30T12:11:48Z</time>
      </trkpt>
      <trkpt lat="46.45567" lon="5.52967">
        <ele>439</ele>
        <time>2023-08-30T12:11:49Z</time>
      </trkpt>
      <trkpt lat="46.45563" lon="5.52964">
        <ele>439</ele>
        <time>2023-08-30T12:11:50Z</time>
      </trkpt>
      <trkpt lat="46.45559" lon="5.5296">
        <ele>439</ele>
        <time>2023-08-30T12:11:51Z</time>
      </trkpt>
      <trkpt lat="46.45554" lon="5.52957">
        <ele>439</ele>
        <time>2023-08-30T12:11:52Z</time>
      </trkpt>
      <trkpt lat="46.45549" lon="5.52954">
        <ele>439</ele>
        <time>2023-08-30T12:11:53Z</time>
      </trkpt>
      <trkpt lat="46.45544" lon="5.52951">
        <ele>439</ele>
        <time>2023-08-30T12:11:54Z</time>
      </trkpt>
      <trkpt lat="46.45538" lon="5.52948">
        <ele>439</ele>
        <time>2023-08-30T12:11:55Z</time>
      </trkpt>
      <trkpt lat="46.45532" lon="5.52946">
        <ele>439.2</ele>
        <time>2023-08-30T12:11:56Z</time>
      </trkpt>
      <trkpt lat="46.45526" lon="5.52943">
        <ele>439</ele>
        <time>2023-08-30T12:11:57Z</time>
      </trkpt>
      <trkpt lat="46.4552" lon="5.5294">
        <ele>439</ele>
        <time>2023-08-30T12:11:58Z</time>
      </trkpt>
      <trkpt lat="46.45513" lon="5.52936">
        <ele>439</ele>
        <time>2023-08-30T12:11:59Z</time>
      </trkpt>
      <trkpt lat="46.45507" lon="5.52933">
        <ele>439</ele>
        <time>2023-08-30T12:12:00Z</time>
      </trkpt>
      <trkpt lat="46.455" lon="5.5293">
        <ele>438.4</ele>
        <time>2023-08-30T12:12:01Z</time>
      </trkpt>
      <trkpt lat="46.45492" lon="5.52926">
        <ele>438.4</ele>
        <time>2023-08-30T12:12:02Z</time>
      </trkpt>
      <trkpt lat="46.45485" lon="5.52923">
        <ele>438.4</ele>
        <time>2023-08-30T12:12:03Z</time>
      </trkpt>
      <trkpt lat="46.45474" lon="5.52918">
        <ele>438.4</ele>
        <time>2023-08-30T12:12:04Z</time>
      </trkpt>
      <trkpt lat="46.4547" lon="5.52917">
        <ele>438.4</ele>
        <time>2023-08-30T12:12:05Z</time>
      </trkpt>
      <trkpt lat="46.45461" lon="5.52914">
        <ele>438.2</ele>
        <time>2023-08-30T12:12:06Z</time>
      </trkpt>
      <trkpt lat="46.45453" lon="5.5291">
        <ele>438.2</ele>
        <time>2023-08-30T12:12:07Z</time>
      </trkpt>
      <trkpt lat="46.45445" lon="5.52906">
        <ele>438.2</ele>
        <time>2023-08-30T12:12:08Z</time>
      </trkpt>
      <trkpt lat="46.45436" lon="5.52902">
        <ele>437.6</ele>
        <time>2023-08-30T12:12:09Z</time>
      </trkpt>
      <trkpt lat="46.45427" lon="5.52898">
        <ele>437</ele>
        <time>2023-08-30T12:12:10Z</time>
      </trkpt>
      <trkpt lat="46.45418" lon="5.52893">
        <ele>437</ele>
        <time>2023-08-30T12:12:11Z</time>
      </trkpt>
      <trkpt lat="46.45409" lon="5.52887">
        <ele>437</ele>
        <time>2023-08-30T12:12:12Z</time>
      </trkpt>
      <trkpt lat="46.454" lon="5.52882">
        <ele>436</ele>
        <time>2023-08-30T12:12:13Z</time>
      </trkpt>
      <trkpt lat="46.45391" lon="5.52876">
        <ele>436</ele>
        <time>2023-08-30T12:12:14Z</time>
      </trkpt>
      <trkpt lat="46.45381" lon="5.52871">
        <ele>435.2</ele>
        <time>2023-08-30T12:12:15Z</time>
      </trkpt>
      <trkpt lat="46.45371" lon="5.52866">
        <ele>435.2</ele>
        <time>2023-08-30T12:12:16Z</time>
      </trkpt>
      <trkpt lat="46.4536" lon="5.52862">
        <ele>435.2</ele>
        <time>2023-08-30T12:12:17Z</time>
      </trkpt>
      <trkpt lat="46.45348" lon="5.52859">
        <ele>434.2</ele>
        <time>2023-08-30T12:12:18Z</time>
      </trkpt>
      <trkpt lat="46.45336" lon="5.52856">
        <ele>432.6</ele>
        <time>2023-08-30T12:12:19Z</time>
      </trkpt>
      <trkpt lat="46.45324" lon="5.52853">
        <ele>432.6</ele>
        <time>2023-08-30T12:12:20Z</time>
      </trkpt>
      <trkpt lat="46.45312" lon="5.52851">
        <ele>432.6</ele>
        <time>2023-08-30T12:12:21Z</time>
      </trkpt>
      <trkpt lat="46.45299" lon="5.5285">
        <ele>431.6</ele>
        <time>2023-08-30T12:12:22Z</time>
      </trkpt>
      <trkpt lat="46.45288" lon="5.52847">
        <ele>429.8</ele>
        <time>2023-08-30T12:12:23Z</time>
      </trkpt>
      <trkpt lat="46.45276" lon="5.52845">
        <ele>429.8</ele>
        <time>2023-08-30T12:12:24Z</time>
      </trkpt>
      <trkpt lat="46.45265" lon="5.52843">
        <ele>429.8</ele>
        <time>2023-08-30T12:12:25Z</time>
      </trkpt>
      <trkpt lat="46.45254" lon="5.52841">
        <ele>428.8</ele>
        <time>2023-08-30T12:12:26Z</time>
      </trkpt>
      <trkpt lat="46.45243" lon="5.52838">
        <ele>428.8</ele>
        <time>2023-08-30T12:12:27Z</time>
      </trkpt>
      <trkpt lat="46.45233" lon="5.52835">
        <ele>428.8</ele>
        <time>2023-08-30T12:12:28Z</time>
      </trkpt>
      <trkpt lat="46.45222" lon="5.52832">
        <ele>427.8</ele>
        <time>2023-08-30T12:12:29Z</time>
      </trkpt>
      <trkpt lat="46.45213" lon="5.52829">
        <ele>427.8</ele>
        <time>2023-08-30T12:12:30Z</time>
      </trkpt>
      <trkpt lat="46.45203" lon="5.52826">
        <ele>427.8</ele>
        <time>2023-08-30T12:12:31Z</time>
      </trkpt>
      <trkpt lat="46.45194" lon="5.52823">
        <ele>427</ele>
        <time>2023-08-30T12:12:32Z</time>
      </trkpt>
      <trkpt lat="46.45185" lon="5.5282">
        <ele>426.6</ele>
        <time>2023-08-30T12:12:33Z</time>
      </trkpt>
      <trkpt lat="46.45177" lon="5.52817">
        <ele>426.6</ele>
        <time>2023-08-30T12:12:34Z</time>
      </trkpt>
      <trkpt lat="46.45169" lon="5.52814">
        <ele>426.6</ele>
        <time>2023-08-30T12:12:35Z</time>
      </trkpt>
      <trkpt lat="46.45161" lon="5.52811">
        <ele>425.6</ele>
        <time>2023-08-30T12:12:36Z</time>
      </trkpt>
      <trkpt lat="46.45153" lon="5.52808">
        <ele>425.2</ele>
        <time>2023-08-30T12:12:37Z</time>
      </trkpt>
      <trkpt lat="46.45145" lon="5.52804">
        <ele>425.2</ele>
        <time>2023-08-30T12:12:38Z</time>
      </trkpt>
      <trkpt lat="46.45137" lon="5.52801">
        <ele>425.2</ele>
        <time>2023-08-30T12:12:39Z</time>
      </trkpt>
      <trkpt lat="46.45129" lon="5.52798">
        <ele>425.2</ele>
        <time>2023-08-30T12:12:40Z</time>
      </trkpt>
      <trkpt lat="46.45121" lon="5.52794">
        <ele>424.2</ele>
        <time>2023-08-30T12:12:41Z</time>
      </trkpt>
      <trkpt lat="46.45113" lon="5.52791">
        <ele>423.6</ele>
        <time>2023-08-30T12:12:42Z</time>
      </trkpt>
      <trkpt lat="46.45105" lon="5.52788">
        <ele>423.6</ele>
        <time>2023-08-30T12:12:43Z</time>
      </trkpt>
      <trkpt lat="46.45098" lon="5.52785">
        <ele>423.6</ele>
        <time>2023-08-30T12:12:44Z</time>
      </trkpt>
      <trkpt lat="46.45087" lon="5.5278">
        <ele>423.6</ele>
        <time>2023-08-30T12:12:45Z</time>
      </trkpt>
      <trkpt lat="46.45083" lon="5.52779">
        <ele>423</ele>
        <time>2023-08-30T12:12:46Z</time>
      </trkpt>
      <trkpt lat="46.45076" lon="5.52776">
        <ele>423</ele>
        <time>2023-08-30T12:12:47Z</time>
      </trkpt>
      <trkpt lat="46.4507" lon="5.52773">
        <ele>423</ele>
        <time>2023-08-30T12:12:48Z</time>
      </trkpt>
      <trkpt lat="46.45063" lon="5.52771">
        <ele>422</ele>
        <time>2023-08-30T12:12:49Z</time>
      </trkpt>
      <trkpt lat="46.45057" lon="5.52768">
        <ele>422</ele>
        <time>2023-08-30T12:12:50Z</time>
      </trkpt>
      <trkpt lat="46.45051" lon="5.52765">
        <ele>422</ele>
        <time>2023-08-30T12:12:51Z</time>
      </trkpt>
      <trkpt lat="46.45045" lon="5.52763">
        <ele>422</ele>
        <time>2023-08-30T12:12:52Z</time>
      </trkpt>
      <trkpt lat="46.45039" lon="5.52761">
        <ele>422</ele>
        <time>2023-08-30T12:12:53Z</time>
      </trkpt>
      <trkpt lat="46.45033" lon="5.52758">
        <ele>421.4</ele>
        <time>2023-08-30T12:12:54Z</time>
      </trkpt>
      <trkpt lat="46.45027" lon="5.52756">
        <ele>421.2</ele>
        <time>2023-08-30T12:12:55Z</time>
      </trkpt>
      <trkpt lat="46.45022" lon="5.52753">
        <ele>421.2</ele>
        <time>2023-08-30T12:12:56Z</time>
      </trkpt>
      <trkpt lat="46.45016" lon="5.52751">
        <ele>421.2</ele>
        <time>2023-08-30T12:12:57Z</time>
      </trkpt>
      <trkpt lat="46.45011" lon="5.52749">
        <ele>421.2</ele>
        <time>2023-08-30T12:12:58Z</time>
      </trkpt>
      <trkpt lat="46.45006" lon="5.52747">
        <ele>420.8</ele>
        <time>2023-08-30T12:12:59Z</time>
      </trkpt>
      <trkpt lat="46.45001" lon="5.52745">
        <ele>420.8</ele>
        <time>2023-08-30T12:13:00Z</time>
      </trkpt>
      <trkpt lat="46.44997" lon="5.52743">
        <ele>420.8</ele>
        <time>2023-08-30T12:13:01Z</time>
      </trkpt>
      <trkpt lat="46.44992" lon="5.52742">
        <ele>420.6</ele>
        <time>2023-08-30T12:13:02Z</time>
      </trkpt>
      <trkpt lat="46.44988" lon="5.5274">
        <ele>420.6</ele>
        <time>2023-08-30T12:13:03Z</time>
      </trkpt>
      <trkpt lat="46.44984" lon="5.52738">
        <ele>420.4</ele>
        <time>2023-08-30T12:13:04Z</time>
      </trkpt>
      <trkpt lat="46.4498" lon="5.52737">
        <ele>420.4</ele>
        <time>2023-08-30T12:13:05Z</time>
      </trkpt>
      <trkpt lat="46.44975" lon="5.52736">
        <ele>420.4</ele>
        <time>2023-08-30T12:13:06Z</time>
      </trkpt>
      <trkpt lat="46.44972" lon="5.52735">
        <ele>420.2</ele>
        <time>2023-08-30T12:13:07Z</time>
      </trkpt>
      <trkpt lat="46.44968" lon="5.52733">
        <ele>420</ele>
        <time>2023-08-30T12:13:08Z</time>
      </trkpt>
      <trkpt lat="46.44964" lon="5.52732">
        <ele>420</ele>
        <time>2023-08-30T12:13:09Z</time>
      </trkpt>
      <trkpt lat="46.44961" lon="5.5273">
        <ele>420</ele>
        <time>2023-08-30T12:13:10Z</time>
      </trkpt>
      <trkpt lat="46.44958" lon="5.52729">
        <ele>420</ele>
        <time>2023-08-30T12:13:11Z</time>
      </trkpt>
      <trkpt lat="46.44955" lon="5.52728">
        <ele>420.2</ele>
        <time>2023-08-30T12:13:12Z</time>
      </trkpt>
      <trkpt lat="46.44953" lon="5.52726">
        <ele>420.4</ele>
        <time>2023-08-30T12:13:13Z</time>
      </trkpt>
      <trkpt lat="46.4495" lon="5.52725">
        <ele>420.4</ele>
        <time>2023-08-30T12:13:14Z</time>
      </trkpt>
      <trkpt lat="46.44947" lon="5.52725">
        <ele>420.4</ele>
        <time>2023-08-30T12:13:15Z</time>
      </trkpt>
      <trkpt lat="46.44945" lon="5.52723">
        <ele>420.4</ele>
        <time>2023-08-30T12:13:16Z</time>
      </trkpt>
      <trkpt lat="46.44942" lon="5.52722">
        <ele>420.6</ele>
        <time>2023-08-30T12:13:17Z</time>
      </trkpt>
      <trkpt lat="46.44939" lon="5.52721">
        <ele>420.8</ele>
        <time>2023-08-30T12:13:18Z</time>
      </trkpt>
      <trkpt lat="46.44936" lon="5.5272">
        <ele>420.8</ele>
        <time>2023-08-30T12:13:19Z</time>
      </trkpt>
      <trkpt lat="46.44933" lon="5.52719">
        <ele>420.8</ele>
        <time>2023-08-30T12:13:20Z</time>
      </trkpt>
      <trkpt lat="46.44931" lon="5.52719">
        <ele>421</ele>
        <time>2023-08-30T12:13:21Z</time>
      </trkpt>
      <trkpt lat="46.44928" lon="5.52718">
        <ele>421</ele>
        <time>2023-08-30T12:13:22Z</time>
      </trkpt>
      <trkpt lat="46.44925" lon="5.52719">
        <ele>421</ele>
        <time>2023-08-30T12:13:23Z</time>
      </trkpt>
      <trkpt lat="46.44923" lon="5.52719">
        <ele>421</ele>
        <time>2023-08-30T12:13:24Z</time>
      </trkpt>
      <trkpt lat="46.4492" lon="5.52719">
        <ele>421</ele>
        <time>2023-08-30T12:13:25Z</time>
      </trkpt>
      <trkpt lat="46.44918" lon="5.52719">
        <ele>421.6</ele>
        <time>2023-08-30T12:13:26Z</time>
      </trkpt>
      <trkpt lat="46.44915" lon="5.5272">
        <ele>421.6</ele>
        <time>2023-08-30T12:13:27Z</time>
      </trkpt>
      <trkpt lat="46.44913" lon="5.5272">
        <ele>421.6</ele>
        <time>2023-08-30T12:13:28Z</time>
      </trkpt>
      <trkpt lat="46.44911" lon="5.52721">
        <ele>421.6</ele>
        <time>2023-08-30T12:13:29Z</time>
      </trkpt>
      <trkpt lat="46.44908" lon="5.52722">
        <ele>422</ele>
        <time>2023-08-30T12:13:30Z</time>
      </trkpt>
      <trkpt lat="46.44906" lon="5.52723">
        <ele>422.2</ele>
        <time>2023-08-30T12:13:31Z</time>
      </trkpt>
      <trkpt lat="46.44904" lon="5.52724">
        <ele>422.2</ele>
        <time>2023-08-30T12:13:32Z</time>
      </trkpt>
      <trkpt lat="46.44902" lon="5.52725">
        <ele>422.2</ele>
        <time>2023-08-30T12:13:33Z</time>
      </trkpt>
      <trkpt lat="46.449" lon="5.52726">
        <ele>422.6</ele>
        <time>2023-08-30T12:13:34Z</time>
      </trkpt>
      <trkpt lat="46.44898" lon="5.52727">
        <ele>422.8</ele>
        <time>2023-08-30T12:13:35Z</time>
      </trkpt>
      <trkpt lat="46.44896" lon="5.52729">
        <ele>422.8</ele>
        <time>2023-08-30T12:13:36Z</time>
      </trkpt>
      <trkpt lat="46.44894" lon="5.5273">
        <ele>422.8</ele>
        <time>2023-08-30T12:13:37Z</time>
      </trkpt>
      <trkpt lat="46.44892" lon="5.52731">
        <ele>422.8</ele>
        <time>2023-08-30T12:13:38Z</time>
      </trkpt>
      <trkpt lat="46.4489" lon="5.52732">
        <ele>423.2</ele>
        <time>2023-08-30T12:13:39Z</time>
      </trkpt>
      <trkpt lat="46.44888" lon="5.52733">
        <ele>423.4</ele>
        <time>2023-08-30T12:13:40Z</time>
      </trkpt>
      <trkpt lat="46.44887" lon="5.52734">
        <ele>423.4</ele>
        <time>2023-08-30T12:13:41Z</time>
      </trkpt>
      <trkpt lat="46.44885" lon="5.52735">
        <ele>423.4</ele>
        <time>2023-08-30T12:13:42Z</time>
      </trkpt>
      <trkpt lat="46.44883" lon="5.52736">
        <ele>423.6</ele>
        <time>2023-08-30T12:13:43Z</time>
      </trkpt>
      <trkpt lat="46.44881" lon="5.52737">
        <ele>423.8</ele>
        <time>2023-08-30T12:13:44Z</time>
      </trkpt>
      <trkpt lat="46.44879" lon="5.52738">
        <ele>423.8</ele>
        <time>2023-08-30T12:13:45Z</time>
      </trkpt>
      <trkpt lat="46.44878" lon="5.52739">
        <ele>423.8</ele>
        <time>2023-08-30T12:13:46Z</time>
      </trkpt>
      <trkpt lat="46.44876" lon="5.5274">
        <ele>423.8</ele>
        <time>2023-08-30T12:13:47Z</time>
      </trkpt>
      <trkpt lat="46.44875" lon="5.52741">
        <ele>424.2</ele>
        <time>2023-08-30T12:13:48Z</time>
      </trkpt>
      <trkpt lat="46.44873" lon="5.52742">
        <ele>424.6</ele>
        <time>2023-08-30T12:13:49Z</time>
      </trkpt>
      <trkpt lat="46.44871" lon="5.52743">
        <ele>424.6</ele>
        <time>2023-08-30T12:13:50Z</time>
      </trkpt>
      <trkpt lat="46.44869" lon="5.52744">
        <ele>424.6</ele>
        <time>2023-08-30T12:13:51Z</time>
      </trkpt>
      <trkpt lat="46.44868" lon="5.52745">
        <ele>424.6</ele>
        <time>2023-08-30T12:13:52Z</time>
      </trkpt>
      <trkpt lat="46.44866" lon="5.52746">
        <ele>424.8</ele>
        <time>2023-08-30T12:13:53Z</time>
      </trkpt>
      <trkpt lat="46.44865" lon="5.52747">
        <ele>424.8</ele>
        <time>2023-08-30T12:13:54Z</time>
      </trkpt>
      <trkpt lat="46.44863" lon="5.52748">
        <ele>424.8</ele>
        <time>2023-08-30T12:13:55Z</time>
      </trkpt>
      <trkpt lat="46.44861" lon="5.52749">
        <ele>424.8</ele>
        <time>2023-08-30T12:13:56Z</time>
      </trkpt>
      <trkpt lat="46.4486" lon="5.5275">
        <ele>425.4</ele>
        <time>2023-08-30T12:13:57Z</time>
      </trkpt>
      <trkpt lat="46.44859" lon="5.52751">
        <ele>425.6</ele>
        <time>2023-08-30T12:13:58Z</time>
      </trkpt>
      <trkpt lat="46.44858" lon="5.52752">
        <ele>425.6</ele>
        <time>2023-08-30T12:13:59Z</time>
      </trkpt>
      <trkpt lat="46.44856" lon="5.52753">
        <ele>425.6</ele>
        <time>2023-08-30T12:14:00Z</time>
      </trkpt>
      <trkpt lat="46.44855" lon="5.52755">
        <ele>426</ele>
        <time>2023-08-30T12:14:01Z</time>
      </trkpt>
      <trkpt lat="46.44854" lon="5.52756">
        <ele>426.2</ele>
        <time>2023-08-30T12:14:02Z</time>
      </trkpt>
      <trkpt lat="46.44852" lon="5.52757">
        <ele>426.2</ele>
        <time>2023-08-30T12:14:03Z</time>
      </trkpt>
      <trkpt lat="46.44851" lon="5.52758">
        <ele>426.2</ele>
        <time>2023-08-30T12:14:04Z</time>
      </trkpt>
      <trkpt lat="46.4485" lon="5.52759">
        <ele>426.2</ele>
        <time>2023-08-30T12:14:05Z</time>
      </trkpt>
      <trkpt lat="46.44849" lon="5.52761">
        <ele>426.2</ele>
        <time>2023-08-30T12:14:06Z</time>
      </trkpt>
      <trkpt lat="46.44848" lon="5.52762">
        <ele>426.4</ele>
        <time>2023-08-30T12:14:07Z</time>
      </trkpt>
      <trkpt lat="46.44846" lon="5.52763">
        <ele>426.6</ele>
        <time>2023-08-30T12:14:08Z</time>
      </trkpt>
      <trkpt lat="46.44845" lon="5.52765">
        <ele>426.6</ele>
        <time>2023-08-30T12:14:09Z</time>
      </trkpt>
      <trkpt lat="46.44843" lon="5.52767">
        <ele>426.6</ele>
        <time>2023-08-30T12:14:10Z</time>
      </trkpt>
      <trkpt lat="46.44842" lon="5.52768">
        <ele>426.6</ele>
        <time>2023-08-30T12:14:11Z</time>
      </trkpt>
      <trkpt lat="46.44841" lon="5.52769">
        <ele>427</ele>
        <time>2023-08-30T12:14:12Z</time>
      </trkpt>
      <trkpt lat="46.44839" lon="5.5277">
        <ele>427</ele>
        <time>2023-08-30T12:14:13Z</time>
      </trkpt>
      <trkpt lat="46.44838" lon="5.52771">
        <ele>427</ele>
        <time>2023-08-30T12:14:14Z</time>
      </trkpt>
      <trkpt lat="46.44837" lon="5.52772">
        <ele>427.4</ele>
        <time>2023-08-30T12:14:15Z</time>
      </trkpt>
      <trkpt lat="46.44836" lon="5.52774">
        <ele>427.8</ele>
        <time>2023-08-30T12:14:16Z</time>
      </trkpt>
      <trkpt lat="46.44834" lon="5.52775">
        <ele>427.8</ele>
        <time>2023-08-30T12:14:17Z</time>
      </trkpt>
      <trkpt lat="46.44833" lon="5.52776">
        <ele>427.8</ele>
        <time>2023-08-30T12:14:18Z</time>
      </trkpt>
      <trkpt lat="46.44832" lon="5.52777">
        <ele>427.8</ele>
        <time>2023-08-30T12:14:19Z</time>
      </trkpt>
      <trkpt lat="46.4483" lon="5.52778">
        <ele>428.4</ele>
        <time>2023-08-30T12:14:20Z</time>
      </trkpt>
      <trkpt lat="46.44828" lon="5.52779">
        <ele>428.4</ele>
        <time>2023-08-30T12:14:21Z</time>
      </trkpt>
      <trkpt lat="46.44827" lon="5.5278">
        <ele>428.4</ele>
        <time>2023-08-30T12:14:22Z</time>
      </trkpt>
      <trkpt lat="46.44826" lon="5.52782">
        <ele>428.4</ele>
        <time>2023-08-30T12:14:23Z</time>
      </trkpt>
      <trkpt lat="46.44824" lon="5.52783">
        <ele>429</ele>
        <time>2023-08-30T12:14:24Z</time>
      </trkpt>
      <trkpt lat="46.44823" lon="5.52784">
        <ele>429</ele>
        <time>2023-08-30T12:14:25Z</time>
      </trkpt>
      <trkpt lat="46.44821" lon="5.52785">
        <ele>429</ele>
        <time>2023-08-30T12:14:26Z</time>
      </trkpt>
      <trkpt lat="46.4482" lon="5.52786">
        <ele>429</ele>
        <time>2023-08-30T12:14:27Z</time>
      </trkpt>
      <trkpt lat="46.44818" lon="5.52788">
        <ele>429</ele>
        <time>2023-08-30T12:14:28Z</time>
      </trkpt>
      <trkpt lat="46.44816" lon="5.52789">
        <ele>429.8</ele>
        <time>2023-08-30T12:14:29Z</time>
      </trkpt>
      <trkpt lat="46.44815" lon="5.5279">
        <ele>430</ele>
        <time>2023-08-30T12:14:30Z</time>
      </trkpt>
      <trkpt lat="46.44813" lon="5.52792">
        <ele>430</ele>
        <time>2023-08-30T12:14:31Z</time>
      </trkpt>
      <trkpt lat="46.44812" lon="5.52793">
        <ele>430</ele>
        <time>2023-08-30T12:14:32Z</time>
      </trkpt>
      <trkpt lat="46.44811" lon="5.52795">
        <ele>430</ele>
        <time>2023-08-30T12:14:33Z</time>
      </trkpt>
      <trkpt lat="46.44809" lon="5.52796">
        <ele>430.8</ele>
        <time>2023-08-30T12:14:34Z</time>
      </trkpt>
      <trkpt lat="46.44807" lon="5.52797">
        <ele>431</ele>
        <time>2023-08-30T12:14:35Z</time>
      </trkpt>
      <trkpt lat="46.44806" lon="5.52798">
        <ele>431</ele>
        <time>2023-08-30T12:14:36Z</time>
      </trkpt>
      <trkpt lat="46.44804" lon="5.52799">
        <ele>431</ele>
        <time>2023-08-30T12:14:37Z</time>
      </trkpt>
      <trkpt lat="46.44803" lon="5.52801">
        <ele>431.6</ele>
        <time>2023-08-30T12:14:38Z</time>
      </trkpt>
      <trkpt lat="46.44801" lon="5.52802">
        <ele>431.8</ele>
        <time>2023-08-30T12:14:39Z</time>
      </trkpt>
      <trkpt lat="46.448" lon="5.52804">
        <ele>431.8</ele>
        <time>2023-08-30T12:14:40Z</time>
      </trkpt>
      <trkpt lat="46.44799" lon="5.52805">
        <ele>431.8</ele>
        <time>2023-08-30T12:14:41Z</time>
      </trkpt>
      <trkpt lat="46.44797" lon="5.52806">
        <ele>432.4</ele>
        <time>2023-08-30T12:14:42Z</time>
      </trkpt>
      <trkpt lat="46.44796" lon="5.52807">
        <ele>432.6</ele>
        <time>2023-08-30T12:14:43Z</time>
      </trkpt>
      <trkpt lat="46.44795" lon="5.52808">
        <ele>432.6</ele>
        <time>2023-08-30T12:14:44Z</time>
      </trkpt>
      <trkpt lat="46.44793" lon="5.52809">
        <ele>432.6</ele>
        <time>2023-08-30T12:14:45Z</time>
      </trkpt>
      <trkpt lat="46.44792" lon="5.5281">
        <ele>433</ele>
        <time>2023-08-30T12:14:46Z</time>
      </trkpt>
      <trkpt lat="46.44791" lon="5.52811">
        <ele>433.2</ele>
        <time>2023-08-30T12:14:47Z</time>
      </trkpt>
      <trkpt lat="46.44789" lon="5.52811">
        <ele>433.2</ele>
        <time>2023-08-30T12:14:48Z</time>
      </trkpt>
      <trkpt lat="46.44788" lon="5.52813">
        <ele>433.2</ele>
        <time>2023-08-30T12:14:49Z</time>
      </trkpt>
      <trkpt lat="46.44787" lon="5.52814">
        <ele>433.2</ele>
        <time>2023-08-30T12:14:50Z</time>
      </trkpt>
      <trkpt lat="46.44786" lon="5.52816">
        <ele>433.2</ele>
        <time>2023-08-30T12:14:51Z</time>
      </trkpt>
      <trkpt lat="46.44785" lon="5.52817">
        <ele>434</ele>
        <time>2023-08-30T12:14:52Z</time>
      </trkpt>
      <trkpt lat="46.44783" lon="5.52818">
        <ele>434</ele>
        <time>2023-08-30T12:14:53Z</time>
      </trkpt>
      <trkpt lat="46.44782" lon="5.52819">
        <ele>434</ele>
        <time>2023-08-30T12:14:54Z</time>
      </trkpt>
      <trkpt lat="46.44781" lon="5.52821">
        <ele>434</ele>
        <time>2023-08-30T12:14:55Z</time>
      </trkpt>
      <trkpt lat="46.44779" lon="5.52822">
        <ele>434.4</ele>
        <time>2023-08-30T12:14:56Z</time>
      </trkpt>
      <trkpt lat="46.44778" lon="5.52824">
        <ele>434.6</ele>
        <time>2023-08-30T12:14:57Z</time>
      </trkpt>
      <trkpt lat="46.44777" lon="5.52825">
        <ele>434.6</ele>
        <time>2023-08-30T12:14:58Z</time>
      </trkpt>
      <trkpt lat="46.44775" lon="5.52827">
        <ele>434.6</ele>
        <time>2023-08-30T12:14:59Z</time>
      </trkpt>
      <trkpt lat="46.44774" lon="5.52828">
        <ele>434.8</ele>
        <time>2023-08-30T12:15:00Z</time>
      </trkpt>
      <trkpt lat="46.44773" lon="5.52829">
        <ele>434.8</ele>
        <time>2023-08-30T12:15:01Z</time>
      </trkpt>
      <trkpt lat="46.44771" lon="5.5283">
        <ele>434.8</ele>
        <time>2023-08-30T12:15:02Z</time>
      </trkpt>
      <trkpt lat="46.4477" lon="5.52831">
        <ele>434.8</ele>
        <time>2023-08-30T12:15:03Z</time>
      </trkpt>
      <trkpt lat="46.44768" lon="5.52832">
        <ele>434.8</ele>
        <time>2023-08-30T12:15:04Z</time>
      </trkpt>
      <trkpt lat="46.44767" lon="5.52833">
        <ele>435</ele>
        <time>2023-08-30T12:15:05Z</time>
      </trkpt>
      <trkpt lat="46.44765" lon="5.52833">
        <ele>435.2</ele>
        <time>2023-08-30T12:15:06Z</time>
      </trkpt>
      <trkpt lat="46.44763" lon="5.52835">
        <ele>435.2</ele>
        <time>2023-08-30T12:15:07Z</time>
      </trkpt>
      <trkpt lat="46.44762" lon="5.52836">
        <ele>435.2</ele>
        <time>2023-08-30T12:15:08Z</time>
      </trkpt>
      <trkpt lat="46.4476" lon="5.52837">
        <ele>435.6</ele>
        <time>2023-08-30T12:15:09Z</time>
      </trkpt>
      <trkpt lat="46.4476" lon="5.52838">
        <ele>435.6</ele>
        <time>2023-08-30T12:15:10Z</time>
      </trkpt>
      <trkpt lat="46.44759" lon="5.52838">
        <ele>435.6</ele>
        <time>2023-08-30T12:15:11Z</time>
      </trkpt>
      <trkpt lat="46.44758" lon="5.52846">
        <ele>435.2</ele>
        <time>2023-08-30T12:15:53Z</time>
      </trkpt>
      <trkpt lat="46.44757" lon="5.52847">
        <ele>434.2</ele>
        <time>2023-08-30T12:15:54Z</time>
      </trkpt>
      <trkpt lat="46.44757" lon="5.52848">
        <ele>434.2</ele>
        <time>2023-08-30T12:15:55Z</time>
      </trkpt>
      <trkpt lat="46.44757" lon="5.52849">
        <ele>435.2</ele>
        <time>2023-08-30T12:15:56Z</time>
      </trkpt>
      <trkpt lat="46.44757" lon="5.5285">
        <ele>435.2</ele>
        <time>2023-08-30T12:15:57Z</time>
      </trkpt>
      <trkpt lat="46.44756" lon="5.52851">
        <ele>435.2</ele>
        <time>2023-08-30T12:15:58Z</time>
      </trkpt>
      <trkpt lat="46.44756" lon="5.52853">
        <ele>435.2</ele>
        <time>2023-08-30T12:15:59Z</time>
      </trkpt>
      <trkpt lat="46.44756" lon="5.52854">
        <ele>435.2</ele>
        <time>2023-08-30T12:16:00Z</time>
      </trkpt>
      <trkpt lat="46.44756" lon="5.52855">
        <ele>435.2</ele>
        <time>2023-08-30T12:16:01Z</time>
      </trkpt>
      <trkpt lat="46.44756" lon="5.52856">
        <ele>435.2</ele>
        <time>2023-08-30T12:16:02Z</time>
      </trkpt>
      <trkpt lat="46.44756" lon="5.52856">
        <ele>435.2</ele>
        <time>2023-08-30T12:16:03Z</time>
      </trkpt>
      <trkpt lat="46.44754" lon="5.52854">
        <ele>435.8</ele>
        <time>2023-08-30T12:16:34Z</time>
      </trkpt>
      <trkpt lat="46.44752" lon="5.52853">
        <ele>435.8</ele>
        <time>2023-08-30T12:16:35Z</time>
      </trkpt>
      <trkpt lat="46.44751" lon="5.52852">
        <ele>435.8</ele>
        <time>2023-08-30T12:16:36Z</time>
      </trkpt>
      <trkpt lat="46.44749" lon="5.52851">
        <ele>435.8</ele>
        <time>2023-08-30T12:16:37Z</time>
      </trkpt>
      <trkpt lat="46.44748" lon="5.52851">
        <ele>435.8</ele>
        <time>2023-08-30T12:16:38Z</time>
      </trkpt>
      <trkpt lat="46.44746" lon="5.52852">
        <ele>435.6</ele>
        <time>2023-08-30T12:16:39Z</time>
      </trkpt>
      <trkpt lat="46.44744" lon="5.52853">
        <ele>435.4</ele>
        <time>2023-08-30T12:16:40Z</time>
      </trkpt>
      <trkpt lat="46.44743" lon="5.52853">
        <ele>435.4</ele>
        <time>2023-08-30T12:16:41Z</time>
      </trkpt>
      <trkpt lat="46.44742" lon="5.52853">
        <ele>435.4</ele>
        <time>2023-08-30T12:16:42Z</time>
      </trkpt>
      <trkpt lat="46.44741" lon="5.52853">
        <ele>435.4</ele>
        <time>2023-08-30T12:16:43Z</time>
      </trkpt>
      <trkpt lat="46.4474" lon="5.52853">
        <ele>435.4</ele>
        <time>2023-08-30T12:16:44Z</time>
      </trkpt>
      <trkpt lat="46.44738" lon="5.52853">
        <ele>435.4</ele>
        <time>2023-08-30T12:16:45Z</time>
      </trkpt>
      <trkpt lat="46.44736" lon="5.52854">
        <ele>435.4</ele>
        <time>2023-08-30T12:16:46Z</time>
      </trkpt>
      <trkpt lat="46.44735" lon="5.52854">
        <ele>435.4</ele>
        <time>2023-08-30T12:16:47Z</time>
      </trkpt>
      <trkpt lat="46.44733" lon="5.52854">
        <ele>435.4</ele>
        <time>2023-08-30T12:16:48Z</time>
      </trkpt>
      <trkpt lat="46.44731" lon="5.52853">
        <ele>435.2</ele>
        <time>2023-08-30T12:16:49Z</time>
      </trkpt>
      <trkpt lat="46.44729" lon="5.52853">
        <ele>435.2</ele>
        <time>2023-08-30T12:16:50Z</time>
      </trkpt>
      <trkpt lat="46.44727" lon="5.52852">
        <ele>435.2</ele>
        <time>2023-08-30T12:16:51Z</time>
      </trkpt>
      <trkpt lat="46.44724" lon="5.52852">
        <ele>435.2</ele>
        <time>2023-08-30T12:16:52Z</time>
      </trkpt>
      <trkpt lat="46.44722" lon="5.52852">
        <ele>434.8</ele>
        <time>2023-08-30T12:16:53Z</time>
      </trkpt>
      <trkpt lat="46.44719" lon="5.52851">
        <ele>434.8</ele>
        <time>2023-08-30T12:16:54Z</time>
      </trkpt>
      <trkpt lat="46.44716" lon="5.52851">
        <ele>434.8</ele>
        <time>2023-08-30T12:16:55Z</time>
      </trkpt>
      <trkpt lat="46.44713" lon="5.52851">
        <ele>434.8</ele>
        <time>2023-08-30T12:16:56Z</time>
      </trkpt>
      <trkpt lat="46.44711" lon="5.52852">
        <ele>434.8</ele>
        <time>2023-08-30T12:16:57Z</time>
      </trkpt>
      <trkpt lat="46.44708" lon="5.52853">
        <ele>434.8</ele>
        <time>2023-08-30T12:16:58Z</time>
      </trkpt>
      <trkpt lat="46.44706" lon="5.52854">
        <ele>434.6</ele>
        <time>2023-08-30T12:16:59Z</time>
      </trkpt>
      <trkpt lat="46.44703" lon="5.52855">
        <ele>434.6</ele>
        <time>2023-08-30T12:17:00Z</time>
      </trkpt>
      <trkpt lat="46.447" lon="5.52855">
        <ele>434.6</ele>
        <time>2023-08-30T12:17:01Z</time>
      </trkpt>
      <trkpt lat="46.44697" lon="5.52855">
        <ele>434.6</ele>
        <time>2023-08-30T12:17:02Z</time>
      </trkpt>
      <trkpt lat="46.44694" lon="5.52855">
        <ele>434.4</ele>
        <time>2023-08-30T12:17:03Z</time>
      </trkpt>
      <trkpt lat="46.44691" lon="5.52854">
        <ele>434.4</ele>
        <time>2023-08-30T12:17:04Z</time>
      </trkpt>
      <trkpt lat="46.44688" lon="5.52855">
        <ele>434.4</ele>
        <time>2023-08-30T12:17:05Z</time>
      </trkpt>
      <trkpt lat="46.44685" lon="5.52855">
        <ele>434.4</ele>
        <time>2023-08-30T12:17:06Z</time>
      </trkpt>
      <trkpt lat="46.44681" lon="5.52856">
        <ele>434.2</ele>
        <time>2023-08-30T12:17:07Z</time>
      </trkpt>
      <trkpt lat="46.44679" lon="5.52857">
        <ele>434.2</ele>
        <time>2023-08-30T12:17:08Z</time>
      </trkpt>
      <trkpt lat="46.44677" lon="5.52859">
        <ele>434.2</ele>
        <time>2023-08-30T12:17:09Z</time>
      </trkpt>
      <trkpt lat="46.44674" lon="5.5286">
        <ele>434.2</ele>
        <time>2023-08-30T12:17:10Z</time>
      </trkpt>
      <trkpt lat="46.44672" lon="5.5286">
        <ele>434</ele>
        <time>2023-08-30T12:17:11Z</time>
      </trkpt>
      <trkpt lat="46.44669" lon="5.52861">
        <ele>433.8</ele>
        <time>2023-08-30T12:17:12Z</time>
      </trkpt>
      <trkpt lat="46.44666" lon="5.52861">
        <ele>433.8</ele>
        <time>2023-08-30T12:17:13Z</time>
      </trkpt>
      <trkpt lat="46.44664" lon="5.52861">
        <ele>433.8</ele>
        <time>2023-08-30T12:17:14Z</time>
      </trkpt>
      <trkpt lat="46.44662" lon="5.52861">
        <ele>433.6</ele>
        <time>2023-08-30T12:17:15Z</time>
      </trkpt>
      <trkpt lat="46.44659" lon="5.52863">
        <ele>433.6</ele>
        <time>2023-08-30T12:17:16Z</time>
      </trkpt>
      <trkpt lat="46.44658" lon="5.52866">
        <ele>433.6</ele>
        <time>2023-08-30T12:17:17Z</time>
      </trkpt>
      <trkpt lat="46.44656" lon="5.52868">
        <ele>433.6</ele>
        <time>2023-08-30T12:17:18Z</time>
      </trkpt>
      <trkpt lat="46.44654" lon="5.52871">
        <ele>433.6</ele>
        <time>2023-08-30T12:17:19Z</time>
      </trkpt>
      <trkpt lat="46.44653" lon="5.52874">
        <ele>433.2</ele>
        <time>2023-08-30T12:17:20Z</time>
      </trkpt>
      <trkpt lat="46.44651" lon="5.52878">
        <ele>433.2</ele>
        <time>2023-08-30T12:17:21Z</time>
      </trkpt>
      <trkpt lat="46.44648" lon="5.52882">
        <ele>433</ele>
        <time>2023-08-30T12:17:22Z</time>
      </trkpt>
      <trkpt lat="46.44645" lon="5.52885">
        <ele>433</ele>
        <time>2023-08-30T12:17:23Z</time>
      </trkpt>
      <trkpt lat="46.44639" lon="5.52887">
        <ele>432.2</ele>
        <time>2023-08-30T12:17:24Z</time>
      </trkpt>
      <trkpt lat="46.44634" lon="5.52888">
        <ele>431.8</ele>
        <time>2023-08-30T12:17:25Z</time>
      </trkpt>
      <trkpt lat="46.44627" lon="5.5289">
        <ele>431.8</ele>
        <time>2023-08-30T12:17:26Z</time>
      </trkpt>
      <trkpt lat="46.44621" lon="5.52892">
        <ele>431.8</ele>
        <time>2023-08-30T12:17:27Z</time>
      </trkpt>
      <trkpt lat="46.44614" lon="5.52894">
        <ele>431.8</ele>
        <time>2023-08-30T12:17:28Z</time>
      </trkpt>
      <trkpt lat="46.44608" lon="5.52896">
        <ele>431.8</ele>
        <time>2023-08-30T12:17:29Z</time>
      </trkpt>
      <trkpt lat="46.44601" lon="5.52898">
        <ele>431</ele>
        <time>2023-08-30T12:17:30Z</time>
      </trkpt>
      <trkpt lat="46.44595" lon="5.52899">
        <ele>431.2</ele>
        <time>2023-08-30T12:17:31Z</time>
      </trkpt>
      <trkpt lat="46.44588" lon="5.529">
        <ele>431.2</ele>
        <time>2023-08-30T12:17:32Z</time>
      </trkpt>
      <trkpt lat="46.44581" lon="5.529">
        <ele>431.2</ele>
        <time>2023-08-30T12:17:33Z</time>
      </trkpt>
      <trkpt lat="46.44575" lon="5.529">
        <ele>430.4</ele>
        <time>2023-08-30T12:17:34Z</time>
      </trkpt>
      <trkpt lat="46.44568" lon="5.52901">
        <ele>430.2</ele>
        <time>2023-08-30T12:17:35Z</time>
      </trkpt>
      <trkpt lat="46.44562" lon="5.52901">
        <ele>430.2</ele>
        <time>2023-08-30T12:17:36Z</time>
      </trkpt>
      <trkpt lat="46.44555" lon="5.52902">
        <ele>430.2</ele>
        <time>2023-08-30T12:17:37Z</time>
      </trkpt>
      <trkpt lat="46.44549" lon="5.52902">
        <ele>429.6</ele>
        <time>2023-08-30T12:17:38Z</time>
      </trkpt>
      <trkpt lat="46.44543" lon="5.52902">
        <ele>429.4</ele>
        <time>2023-08-30T12:17:39Z</time>
      </trkpt>
      <trkpt lat="46.44537" lon="5.52903">
        <ele>429.4</ele>
        <time>2023-08-30T12:17:40Z</time>
      </trkpt>
      <trkpt lat="46.44531" lon="5.52903">
        <ele>429.4</ele>
        <time>2023-08-30T12:17:41Z</time>
      </trkpt>
      <trkpt lat="46.44525" lon="5.52905">
        <ele>429.4</ele>
        <time>2023-08-30T12:17:42Z</time>
      </trkpt>
      <trkpt lat="46.44515" lon="5.52909">
        <ele>429.4</ele>
        <time>2023-08-30T12:17:43Z</time>
      </trkpt>
      <trkpt lat="46.44512" lon="5.5291">
        <ele>428.6</ele>
        <time>2023-08-30T12:17:44Z</time>
      </trkpt>
      <trkpt lat="46.44505" lon="5.52911">
        <ele>428.6</ele>
        <time>2023-08-30T12:17:45Z</time>
      </trkpt>
      <trkpt lat="46.44499" lon="5.52914">
        <ele>428.6</ele>
        <time>2023-08-30T12:17:46Z</time>
      </trkpt>
      <trkpt lat="46.44492" lon="5.52916">
        <ele>428.2</ele>
        <time>2023-08-30T12:17:47Z</time>
      </trkpt>
      <trkpt lat="46.44486" lon="5.52919">
        <ele>428</ele>
        <time>2023-08-30T12:17:48Z</time>
      </trkpt>
      <trkpt lat="46.44479" lon="5.52922">
        <ele>428</ele>
        <time>2023-08-30T12:17:49Z</time>
      </trkpt>
      <trkpt lat="46.44473" lon="5.52925">
        <ele>428</ele>
        <time>2023-08-30T12:17:50Z</time>
      </trkpt>
      <trkpt lat="46.44466" lon="5.52929">
        <ele>428</ele>
        <time>2023-08-30T12:17:51Z</time>
      </trkpt>
      <trkpt lat="46.44458" lon="5.52933">
        <ele>427</ele>
        <time>2023-08-30T12:17:52Z</time>
      </trkpt>
      <trkpt lat="46.44451" lon="5.52936">
        <ele>427</ele>
        <time>2023-08-30T12:17:53Z</time>
      </trkpt>
      <trkpt lat="46.44443" lon="5.52938">
        <ele>426.8</ele>
        <time>2023-08-30T12:17:54Z</time>
      </trkpt>
      <trkpt lat="46.44435" lon="5.5294">
        <ele>426.8</ele>
        <time>2023-08-30T12:17:55Z</time>
      </trkpt>
      <trkpt lat="46.44424" lon="5.52944">
        <ele>425.8</ele>
        <time>2023-08-30T12:17:56Z</time>
      </trkpt>
      <trkpt lat="46.4442" lon="5.52945">
        <ele>425.8</ele>
        <time>2023-08-30T12:17:57Z</time>
      </trkpt>
      <trkpt lat="46.44413" lon="5.52947">
        <ele>425</ele>
        <time>2023-08-30T12:17:58Z</time>
      </trkpt>
      <trkpt lat="46.44406" lon="5.52949">
        <ele>425</ele>
        <time>2023-08-30T12:17:59Z</time>
      </trkpt>
      <trkpt lat="46.44398" lon="5.52951">
        <ele>425</ele>
        <time>2023-08-30T12:18:00Z</time>
      </trkpt>
      <trkpt lat="46.4439" lon="5.52952">
        <ele>424</ele>
        <time>2023-08-30T12:18:01Z</time>
      </trkpt>
      <trkpt lat="46.44383" lon="5.52952">
        <ele>423.4</ele>
        <time>2023-08-30T12:18:02Z</time>
      </trkpt>
      <trkpt lat="46.44375" lon="5.52952">
        <ele>423.4</ele>
        <time>2023-08-30T12:18:03Z</time>
      </trkpt>
      <trkpt lat="46.44366" lon="5.52951">
        <ele>423.4</ele>
        <time>2023-08-30T12:18:04Z</time>
      </trkpt>
      <trkpt lat="46.44358" lon="5.5295">
        <ele>422.6</ele>
        <time>2023-08-30T12:18:05Z</time>
      </trkpt>
      <trkpt lat="46.4435" lon="5.5295">
        <ele>421.8</ele>
        <time>2023-08-30T12:18:06Z</time>
      </trkpt>
      <trkpt lat="46.44341" lon="5.52949">
        <ele>421.8</ele>
        <time>2023-08-30T12:18:07Z</time>
      </trkpt>
      <trkpt lat="46.44333" lon="5.52947">
        <ele>421.8</ele>
        <time>2023-08-30T12:18:08Z</time>
      </trkpt>
      <trkpt lat="46.44324" lon="5.52946">
        <ele>421.8</ele>
        <time>2023-08-30T12:18:09Z</time>
      </trkpt>
      <trkpt lat="46.44315" lon="5.52946">
        <ele>420.8</ele>
        <time>2023-08-30T12:18:10Z</time>
      </trkpt>
      <trkpt lat="46.44306" lon="5.52946">
        <ele>420.8</ele>
        <time>2023-08-30T12:18:11Z</time>
      </trkpt>
      <trkpt lat="46.44297" lon="5.52948">
        <ele>420</ele>
        <time>2023-08-30T12:18:12Z</time>
      </trkpt>
      <trkpt lat="46.44288" lon="5.5295">
        <ele>420</ele>
        <time>2023-08-30T12:18:13Z</time>
      </trkpt>
      <trkpt lat="46.44279" lon="5.52954">
        <ele>420</ele>
        <time>2023-08-30T12:18:14Z</time>
      </trkpt>
      <trkpt lat="46.44264" lon="5.52959">
        <ele>419</ele>
        <time>2023-08-30T12:18:15Z</time>
      </trkpt>
      <trkpt lat="46.44259" lon="5.5296">
        <ele>417.6</ele>
        <time>2023-08-30T12:18:16Z</time>
      </trkpt>
      <trkpt lat="46.44249" lon="5.52964">
        <ele>417.6</ele>
        <time>2023-08-30T12:18:17Z</time>
      </trkpt>
      <trkpt lat="46.44238" lon="5.52967">
        <ele>417.6</ele>
        <time>2023-08-30T12:18:18Z</time>
      </trkpt>
      <trkpt lat="46.44227" lon="5.52969">
        <ele>417.6</ele>
        <time>2023-08-30T12:18:19Z</time>
      </trkpt>
      <trkpt lat="46.44216" lon="5.52971">
        <ele>413.6</ele>
        <time>2023-08-30T12:18:20Z</time>
      </trkpt>
      <trkpt lat="46.44205" lon="5.52973">
        <ele>413.6</ele>
        <time>2023-08-30T12:18:21Z</time>
      </trkpt>
      <trkpt lat="46.44195" lon="5.52978">
        <ele>413.6</ele>
        <time>2023-08-30T12:18:22Z</time>
      </trkpt>
      <trkpt lat="46.44179" lon="5.52986">
        <ele>413.6</ele>
        <time>2023-08-30T12:18:23Z</time>
      </trkpt>
      <trkpt lat="46.44173" lon="5.52989">
        <ele>413.6</ele>
        <time>2023-08-30T12:18:24Z</time>
      </trkpt>
      <trkpt lat="46.44163" lon="5.52997">
        <ele>410.4</ele>
        <time>2023-08-30T12:18:25Z</time>
      </trkpt>
      <trkpt lat="46.44154" lon="5.53007">
        <ele>410.4</ele>
        <time>2023-08-30T12:18:26Z</time>
      </trkpt>
      <trkpt lat="46.44146" lon="5.53018">
        <ele>410.4</ele>
        <time>2023-08-30T12:18:27Z</time>
      </trkpt>
      <trkpt lat="46.44138" lon="5.53029">
        <ele>410.4</ele>
        <time>2023-08-30T12:18:28Z</time>
      </trkpt>
      <trkpt lat="46.44131" lon="5.5304">
        <ele>409.4</ele>
        <time>2023-08-30T12:18:29Z</time>
      </trkpt>
      <trkpt lat="46.44123" lon="5.53051">
        <ele>408.4</ele>
        <time>2023-08-30T12:18:30Z</time>
      </trkpt>
      <trkpt lat="46.44116" lon="5.53061">
        <ele>408.4</ele>
        <time>2023-08-30T12:18:31Z</time>
      </trkpt>
      <trkpt lat="46.4411" lon="5.5307">
        <ele>408.4</ele>
        <time>2023-08-30T12:18:32Z</time>
      </trkpt>
      <trkpt lat="46.44105" lon="5.53081">
        <ele>407.4</ele>
        <time>2023-08-30T12:18:33Z</time>
      </trkpt>
      <trkpt lat="46.44102" lon="5.53093">
        <ele>407.4</ele>
        <time>2023-08-30T12:18:34Z</time>
      </trkpt>
      <trkpt lat="46.441" lon="5.53105">
        <ele>406.6</ele>
        <time>2023-08-30T12:18:35Z</time>
      </trkpt>
      <trkpt lat="46.44098" lon="5.53117">
        <ele>406.6</ele>
        <time>2023-08-30T12:18:36Z</time>
      </trkpt>
      <trkpt lat="46.44096" lon="5.53128">
        <ele>406.6</ele>
        <time>2023-08-30T12:18:37Z</time>
      </trkpt>
      <trkpt lat="46.44095" lon="5.53138">
        <ele>405.6</ele>
        <time>2023-08-30T12:18:38Z</time>
      </trkpt>
      <trkpt lat="46.44093" lon="5.53148">
        <ele>404.6</ele>
        <time>2023-08-30T12:18:39Z</time>
      </trkpt>
      <trkpt lat="46.44091" lon="5.53157">
        <ele>404.6</ele>
        <time>2023-08-30T12:18:40Z</time>
      </trkpt>
      <trkpt lat="46.44089" lon="5.53166">
        <ele>404.6</ele>
        <time>2023-08-30T12:18:41Z</time>
      </trkpt>
      <trkpt lat="46.44086" lon="5.53173">
        <ele>403.6</ele>
        <time>2023-08-30T12:18:42Z</time>
      </trkpt>
      <trkpt lat="46.44081" lon="5.53178">
        <ele>402.6</ele>
        <time>2023-08-30T12:18:43Z</time>
      </trkpt>
      <trkpt lat="46.44077" lon="5.53185">
        <ele>402.6</ele>
        <time>2023-08-30T12:18:44Z</time>
      </trkpt>
      <trkpt lat="46.44073" lon="5.53191">
        <ele>402.6</ele>
        <time>2023-08-30T12:18:45Z</time>
      </trkpt>
      <trkpt lat="46.44069" lon="5.53197">
        <ele>401.8</ele>
        <time>2023-08-30T12:18:46Z</time>
      </trkpt>
      <trkpt lat="46.44065" lon="5.53204">
        <ele>401.8</ele>
        <time>2023-08-30T12:18:47Z</time>
      </trkpt>
      <trkpt lat="46.44061" lon="5.53212">
        <ele>401.2</ele>
        <time>2023-08-30T12:18:48Z</time>
      </trkpt>
      <trkpt lat="46.44057" lon="5.5322">
        <ele>401.2</ele>
        <time>2023-08-30T12:18:49Z</time>
      </trkpt>
      <trkpt lat="46.44053" lon="5.53228">
        <ele>401.2</ele>
        <time>2023-08-30T12:18:50Z</time>
      </trkpt>
      <trkpt lat="46.44049" lon="5.53237">
        <ele>401.2</ele>
        <time>2023-08-30T12:18:51Z</time>
      </trkpt>
      <trkpt lat="46.44046" lon="5.53246">
        <ele>400.2</ele>
        <time>2023-08-30T12:18:52Z</time>
      </trkpt>
      <trkpt lat="46.44042" lon="5.53256">
        <ele>399.6</ele>
        <time>2023-08-30T12:18:53Z</time>
      </trkpt>
      <trkpt lat="46.44039" lon="5.53265">
        <ele>399.6</ele>
        <time>2023-08-30T12:18:54Z</time>
      </trkpt>
      <trkpt lat="46.44036" lon="5.53275">
        <ele>399.6</ele>
        <time>2023-08-30T12:18:55Z</time>
      </trkpt>
      <trkpt lat="46.44033" lon="5.53284">
        <ele>398.6</ele>
        <time>2023-08-30T12:18:56Z</time>
      </trkpt>
      <trkpt lat="46.44029" lon="5.53294">
        <ele>397.6</ele>
        <time>2023-08-30T12:18:57Z</time>
      </trkpt>
      <trkpt lat="46.44026" lon="5.53303">
        <ele>397.6</ele>
        <time>2023-08-30T12:18:58Z</time>
      </trkpt>
      <trkpt lat="46.44022" lon="5.53313">
        <ele>397.6</ele>
        <time>2023-08-30T12:18:59Z</time>
      </trkpt>
      <trkpt lat="46.44019" lon="5.53323">
        <ele>396.6</ele>
        <time>2023-08-30T12:19:00Z</time>
      </trkpt>
      <trkpt lat="46.44017" lon="5.53333">
        <ele>396.6</ele>
        <time>2023-08-30T12:19:01Z</time>
      </trkpt>
      <trkpt lat="46.44014" lon="5.53344">
        <ele>395.6</ele>
        <time>2023-08-30T12:19:02Z</time>
      </trkpt>
      <trkpt lat="46.44012" lon="5.53355">
        <ele>395.6</ele>
        <time>2023-08-30T12:19:03Z</time>
      </trkpt>
      <trkpt lat="46.44009" lon="5.53366">
        <ele>395.6</ele>
        <time>2023-08-30T12:19:04Z</time>
      </trkpt>
      <trkpt lat="46.44007" lon="5.53378">
        <ele>394.6</ele>
        <time>2023-08-30T12:19:05Z</time>
      </trkpt>
      <trkpt lat="46.44005" lon="5.5339">
        <ele>393.8</ele>
        <time>2023-08-30T12:19:06Z</time>
      </trkpt>
      <trkpt lat="46.44003" lon="5.53401">
        <ele>393.8</ele>
        <time>2023-08-30T12:19:07Z</time>
      </trkpt>
      <trkpt lat="46.43999" lon="5.53419">
        <ele>393.8</ele>
        <time>2023-08-30T12:19:08Z</time>
      </trkpt>
      <trkpt lat="46.43998" lon="5.53425">
        <ele>392.8</ele>
        <time>2023-08-30T12:19:09Z</time>
      </trkpt>
      <trkpt lat="46.43996" lon="5.53437">
        <ele>392.8</ele>
        <time>2023-08-30T12:19:10Z</time>
      </trkpt>
      <trkpt lat="46.43993" lon="5.53449">
        <ele>392</ele>
        <time>2023-08-30T12:19:11Z</time>
      </trkpt>
      <trkpt lat="46.4399" lon="5.53461">
        <ele>392</ele>
        <time>2023-08-30T12:19:12Z</time>
      </trkpt>
      <trkpt lat="46.43986" lon="5.53471">
        <ele>392</ele>
        <time>2023-08-30T12:19:13Z</time>
      </trkpt>
      <trkpt lat="46.4398" lon="5.5348">
        <ele>392</ele>
        <time>2023-08-30T12:19:14Z</time>
      </trkpt>
      <trkpt lat="46.43974" lon="5.53486">
        <ele>391.6</ele>
        <time>2023-08-30T12:19:15Z</time>
      </trkpt>
      <trkpt lat="46.43967" lon="5.53491">
        <ele>391.6</ele>
        <time>2023-08-30T12:19:16Z</time>
      </trkpt>
      <trkpt lat="46.43959" lon="5.53495">
        <ele>391.6</ele>
        <time>2023-08-30T12:19:17Z</time>
      </trkpt>
      <trkpt lat="46.43952" lon="5.53498">
        <ele>391.6</ele>
        <time>2023-08-30T12:19:18Z</time>
      </trkpt>
      <trkpt lat="46.43945" lon="5.53501">
        <ele>391.2</ele>
        <time>2023-08-30T12:19:19Z</time>
      </trkpt>
      <trkpt lat="46.43937" lon="5.53504">
        <ele>391.2</ele>
        <time>2023-08-30T12:19:20Z</time>
      </trkpt>
      <trkpt lat="46.4393" lon="5.53506">
        <ele>391.2</ele>
        <time>2023-08-30T12:19:21Z</time>
      </trkpt>
      <trkpt lat="46.43923" lon="5.53509">
        <ele>391.2</ele>
        <time>2023-08-30T12:19:22Z</time>
      </trkpt>
      <trkpt lat="46.43915" lon="5.53512">
        <ele>391.2</ele>
        <time>2023-08-30T12:19:23Z</time>
      </trkpt>
      <trkpt lat="46.43908" lon="5.53514">
        <ele>391.2</ele>
        <time>2023-08-30T12:19:24Z</time>
      </trkpt>
      <trkpt lat="46.43901" lon="5.53517">
        <ele>391.2</ele>
        <time>2023-08-30T12:19:25Z</time>
      </trkpt>
      <trkpt lat="46.43893" lon="5.53519">
        <ele>391.2</ele>
        <time>2023-08-30T12:19:26Z</time>
      </trkpt>
      <trkpt lat="46.43886" lon="5.53522">
        <ele>391</ele>
        <time>2023-08-30T12:19:27Z</time>
      </trkpt>
      <trkpt lat="46.43879" lon="5.53525">
        <ele>390.8</ele>
        <time>2023-08-30T12:19:28Z</time>
      </trkpt>
      <trkpt lat="46.43871" lon="5.53529">
        <ele>390.8</ele>
        <time>2023-08-30T12:19:29Z</time>
      </trkpt>
      <trkpt lat="46.43864" lon="5.53533">
        <ele>390.8</ele>
        <time>2023-08-30T12:19:30Z</time>
      </trkpt>
      <trkpt lat="46.43857" lon="5.53537">
        <ele>390.4</ele>
        <time>2023-08-30T12:19:31Z</time>
      </trkpt>
      <trkpt lat="46.4385" lon="5.53541">
        <ele>390.8</ele>
        <time>2023-08-30T12:19:32Z</time>
      </trkpt>
      <trkpt lat="46.43843" lon="5.53546">
        <ele>390.8</ele>
        <time>2023-08-30T12:19:33Z</time>
      </trkpt>
      <trkpt lat="46.43836" lon="5.5355">
        <ele>390.8</ele>
        <time>2023-08-30T12:19:34Z</time>
      </trkpt>
      <trkpt lat="46.43828" lon="5.53555">
        <ele>390.8</ele>
        <time>2023-08-30T12:19:35Z</time>
      </trkpt>
      <trkpt lat="46.43821" lon="5.53559">
        <ele>390.8</ele>
        <time>2023-08-30T12:19:36Z</time>
      </trkpt>
      <trkpt lat="46.43813" lon="5.53563">
        <ele>390.8</ele>
        <time>2023-08-30T12:19:37Z</time>
      </trkpt>
      <trkpt lat="46.43806" lon="5.53566">
        <ele>390.6</ele>
        <time>2023-08-30T12:19:38Z</time>
      </trkpt>
      <trkpt lat="46.43798" lon="5.53569">
        <ele>390.6</ele>
        <time>2023-08-30T12:19:39Z</time>
      </trkpt>
      <trkpt lat="46.43791" lon="5.53571">
        <ele>390.6</ele>
        <time>2023-08-30T12:19:40Z</time>
      </trkpt>
      <trkpt lat="46.43784" lon="5.53574">
        <ele>390.4</ele>
        <time>2023-08-30T12:19:41Z</time>
      </trkpt>
      <trkpt lat="46.43776" lon="5.53576">
        <ele>390.4</ele>
        <time>2023-08-30T12:19:42Z</time>
      </trkpt>
      <trkpt lat="46.43769" lon="5.53579">
        <ele>390.4</ele>
        <time>2023-08-30T12:19:43Z</time>
      </trkpt>
      <trkpt lat="46.43762" lon="5.53582">
        <ele>390.4</ele>
        <time>2023-08-30T12:19:44Z</time>
      </trkpt>
      <trkpt lat="46.43756" lon="5.53586">
        <ele>390.4</ele>
        <time>2023-08-30T12:19:45Z</time>
      </trkpt>
      <trkpt lat="46.43749" lon="5.5359">
        <ele>390.6</ele>
        <time>2023-08-30T12:19:46Z</time>
      </trkpt>
      <trkpt lat="46.43743" lon="5.53595">
        <ele>390.6</ele>
        <time>2023-08-30T12:19:47Z</time>
      </trkpt>
      <trkpt lat="46.43737" lon="5.53599">
        <ele>390.6</ele>
        <time>2023-08-30T12:19:48Z</time>
      </trkpt>
      <trkpt lat="46.4373" lon="5.53603">
        <ele>390.6</ele>
        <time>2023-08-30T12:19:49Z</time>
      </trkpt>
      <trkpt lat="46.43722" lon="5.53609">
        <ele>390.4</ele>
        <time>2023-08-30T12:19:50Z</time>
      </trkpt>
      <trkpt lat="46.43719" lon="5.53612">
        <ele>390.2</ele>
        <time>2023-08-30T12:19:51Z</time>
      </trkpt>
      <trkpt lat="46.43713" lon="5.53616">
        <ele>390.2</ele>
        <time>2023-08-30T12:19:52Z</time>
      </trkpt>
      <trkpt lat="46.43708" lon="5.5362">
        <ele>390.2</ele>
        <time>2023-08-30T12:19:53Z</time>
      </trkpt>
      <trkpt lat="46.43703" lon="5.53625">
        <ele>390.4</ele>
        <time>2023-08-30T12:19:54Z</time>
      </trkpt>
      <trkpt lat="46.43698" lon="5.53629">
        <ele>390.4</ele>
        <time>2023-08-30T12:19:55Z</time>
      </trkpt>
      <trkpt lat="46.43693" lon="5.53633">
        <ele>390.4</ele>
        <time>2023-08-30T12:19:56Z</time>
      </trkpt>
      <trkpt lat="46.43687" lon="5.53636">
        <ele>390.4</ele>
        <time>2023-08-30T12:19:57Z</time>
      </trkpt>
      <trkpt lat="46.43682" lon="5.5364">
        <ele>390.4</ele>
        <time>2023-08-30T12:19:58Z</time>
      </trkpt>
      <trkpt lat="46.43677" lon="5.53643">
        <ele>390.4</ele>
        <time>2023-08-30T12:19:59Z</time>
      </trkpt>
      <trkpt lat="46.43673" lon="5.53645">
        <ele>390</ele>
        <time>2023-08-30T12:20:00Z</time>
      </trkpt>
      <trkpt lat="46.43668" lon="5.53648">
        <ele>390</ele>
        <time>2023-08-30T12:20:01Z</time>
      </trkpt>
      <trkpt lat="46.43664" lon="5.5365">
        <ele>390</ele>
        <time>2023-08-30T12:20:02Z</time>
      </trkpt>
      <trkpt lat="46.4366" lon="5.53652">
        <ele>390.2</ele>
        <time>2023-08-30T12:20:03Z</time>
      </trkpt>
      <trkpt lat="46.43656" lon="5.53654">
        <ele>390.2</ele>
        <time>2023-08-30T12:20:04Z</time>
      </trkpt>
      <trkpt lat="46.43652" lon="5.53656">
        <ele>390.2</ele>
        <time>2023-08-30T12:20:05Z</time>
      </trkpt>
      <trkpt lat="46.43648" lon="5.53659">
        <ele>390.2</ele>
        <time>2023-08-30T12:20:06Z</time>
      </trkpt>
      <trkpt lat="46.43644" lon="5.53661">
        <ele>390.2</ele>
        <time>2023-08-30T12:20:07Z</time>
      </trkpt>
      <trkpt lat="46.43641" lon="5.53663">
        <ele>390.4</ele>
        <time>2023-08-30T12:20:08Z</time>
      </trkpt>
      <trkpt lat="46.43638" lon="5.53665">
        <ele>390.4</ele>
        <time>2023-08-30T12:20:09Z</time>
      </trkpt>
      <trkpt lat="46.43634" lon="5.53668">
        <ele>390.4</ele>
        <time>2023-08-30T12:20:10Z</time>
      </trkpt>
      <trkpt lat="46.43629" lon="5.53671">
        <ele>390.4</ele>
        <time>2023-08-30T12:20:11Z</time>
      </trkpt>
      <trkpt lat="46.43627" lon="5.53672">
        <ele>390.4</ele>
        <time>2023-08-30T12:20:12Z</time>
      </trkpt>
      <trkpt lat="46.43624" lon="5.53674">
        <ele>390.4</ele>
        <time>2023-08-30T12:20:13Z</time>
      </trkpt>
      <trkpt lat="46.43621" lon="5.53677">
        <ele>390.4</ele>
        <time>2023-08-30T12:20:14Z</time>
      </trkpt>
      <trkpt lat="46.43618" lon="5.53679">
        <ele>390.4</ele>
        <time>2023-08-30T12:20:15Z</time>
      </trkpt>
      <trkpt lat="46.43615" lon="5.53681">
        <ele>390.4</ele>
        <time>2023-08-30T12:20:16Z</time>
      </trkpt>
      <trkpt lat="46.43611" lon="5.53682">
        <ele>390.4</ele>
        <time>2023-08-30T12:20:17Z</time>
      </trkpt>
      <trkpt lat="46.43608" lon="5.53684">
        <ele>390.6</ele>
        <time>2023-08-30T12:20:18Z</time>
      </trkpt>
      <trkpt lat="46.43605" lon="5.53686">
        <ele>390.6</ele>
        <time>2023-08-30T12:20:19Z</time>
      </trkpt>
      <trkpt lat="46.43601" lon="5.53688">
        <ele>390.6</ele>
        <time>2023-08-30T12:20:20Z</time>
      </trkpt>
      <trkpt lat="46.43598" lon="5.5369">
        <ele>390.6</ele>
        <time>2023-08-30T12:20:21Z</time>
      </trkpt>
      <trkpt lat="46.43594" lon="5.53692">
        <ele>390.6</ele>
        <time>2023-08-30T12:20:22Z</time>
      </trkpt>
      <trkpt lat="46.4359" lon="5.53695">
        <ele>390.6</ele>
        <time>2023-08-30T12:20:23Z</time>
      </trkpt>
      <trkpt lat="46.43587" lon="5.53697">
        <ele>390.6</ele>
        <time>2023-08-30T12:20:24Z</time>
      </trkpt>
      <trkpt lat="46.43583" lon="5.537">
        <ele>390.4</ele>
        <time>2023-08-30T12:20:25Z</time>
      </trkpt>
      <trkpt lat="46.4358" lon="5.53702">
        <ele>390.4</ele>
        <time>2023-08-30T12:20:26Z</time>
      </trkpt>
      <trkpt lat="46.43576" lon="5.53705">
        <ele>390.4</ele>
        <time>2023-08-30T12:20:27Z</time>
      </trkpt>
      <trkpt lat="46.43572" lon="5.53708">
        <ele>390.4</ele>
        <time>2023-08-30T12:20:28Z</time>
      </trkpt>
      <trkpt lat="46.43569" lon="5.53711">
        <ele>390.4</ele>
        <time>2023-08-30T12:20:29Z</time>
      </trkpt>
      <trkpt lat="46.43565" lon="5.53714">
        <ele>389.8</ele>
        <time>2023-08-30T12:20:30Z</time>
      </trkpt>
      <trkpt lat="46.43561" lon="5.53718">
        <ele>389.4</ele>
        <time>2023-08-30T12:20:31Z</time>
      </trkpt>
      <trkpt lat="46.43557" lon="5.53722">
        <ele>389.4</ele>
        <time>2023-08-30T12:20:32Z</time>
      </trkpt>
      <trkpt lat="46.43553" lon="5.53725">
        <ele>389.4</ele>
        <time>2023-08-30T12:20:33Z</time>
      </trkpt>
      <trkpt lat="46.43547" lon="5.5373">
        <ele>389.4</ele>
        <time>2023-08-30T12:20:34Z</time>
      </trkpt>
      <trkpt lat="46.43544" lon="5.53732">
        <ele>389.2</ele>
        <time>2023-08-30T12:20:35Z</time>
      </trkpt>
      <trkpt lat="46.4354" lon="5.53736">
        <ele>389.2</ele>
        <time>2023-08-30T12:20:36Z</time>
      </trkpt>
      <trkpt lat="46.43535" lon="5.5374">
        <ele>389.2</ele>
        <time>2023-08-30T12:20:37Z</time>
      </trkpt>
      <trkpt lat="46.4353" lon="5.53744">
        <ele>388.6</ele>
        <time>2023-08-30T12:20:38Z</time>
      </trkpt>
      <trkpt lat="46.43526" lon="5.53749">
        <ele>388.4</ele>
        <time>2023-08-30T12:20:39Z</time>
      </trkpt>
      <trkpt lat="46.43521" lon="5.53754">
        <ele>388.4</ele>
        <time>2023-08-30T12:20:40Z</time>
      </trkpt>
      <trkpt lat="46.43516" lon="5.53759">
        <ele>388.4</ele>
        <time>2023-08-30T12:20:41Z</time>
      </trkpt>
      <trkpt lat="46.43511" lon="5.53763">
        <ele>388.4</ele>
        <time>2023-08-30T12:20:42Z</time>
      </trkpt>
      <trkpt lat="46.43506" lon="5.53768">
        <ele>388</ele>
        <time>2023-08-30T12:20:43Z</time>
      </trkpt>
      <trkpt lat="46.43502" lon="5.53774">
        <ele>387.8</ele>
        <time>2023-08-30T12:20:44Z</time>
      </trkpt>
      <trkpt lat="46.43497" lon="5.53779">
        <ele>387.8</ele>
        <time>2023-08-30T12:20:45Z</time>
      </trkpt>
      <trkpt lat="46.43493" lon="5.53784">
        <ele>387.8</ele>
        <time>2023-08-30T12:20:46Z</time>
      </trkpt>
      <trkpt lat="46.43489" lon="5.53789">
        <ele>387.4</ele>
        <time>2023-08-30T12:20:47Z</time>
      </trkpt>
      <trkpt lat="46.43485" lon="5.53794">
        <ele>387.4</ele>
        <time>2023-08-30T12:20:48Z</time>
      </trkpt>
      <trkpt lat="46.43481" lon="5.538">
        <ele>387.2</ele>
        <time>2023-08-30T12:20:49Z</time>
      </trkpt>
      <trkpt lat="46.43476" lon="5.53805">
        <ele>387.2</ele>
        <time>2023-08-30T12:20:50Z</time>
      </trkpt>
      <trkpt lat="46.43472" lon="5.5381">
        <ele>387.2</ele>
        <time>2023-08-30T12:20:51Z</time>
      </trkpt>
      <trkpt lat="46.43468" lon="5.53815">
        <ele>387.2</ele>
        <time>2023-08-30T12:20:52Z</time>
      </trkpt>
      <trkpt lat="46.43465" lon="5.53819">
        <ele>387</ele>
        <time>2023-08-30T12:20:53Z</time>
      </trkpt>
      <trkpt lat="46.43461" lon="5.53824">
        <ele>387</ele>
        <time>2023-08-30T12:20:54Z</time>
      </trkpt>
      <trkpt lat="46.43457" lon="5.53827">
        <ele>387</ele>
        <time>2023-08-30T12:20:55Z</time>
      </trkpt>
      <trkpt lat="46.43453" lon="5.53831">
        <ele>387</ele>
        <time>2023-08-30T12:20:56Z</time>
      </trkpt>
      <trkpt lat="46.43449" lon="5.53834">
        <ele>386.8</ele>
        <time>2023-08-30T12:20:57Z</time>
      </trkpt>
      <trkpt lat="46.43445" lon="5.53837">
        <ele>386.8</ele>
        <time>2023-08-30T12:20:58Z</time>
      </trkpt>
      <trkpt lat="46.43441" lon="5.5384">
        <ele>386.8</ele>
        <time>2023-08-30T12:20:59Z</time>
      </trkpt>
      <trkpt lat="46.43435" lon="5.53843">
        <ele>386.8</ele>
        <time>2023-08-30T12:21:00Z</time>
      </trkpt>
      <trkpt lat="46.43433" lon="5.53845">
        <ele>386.8</ele>
        <time>2023-08-30T12:21:01Z</time>
      </trkpt>
      <trkpt lat="46.43429" lon="5.53847">
        <ele>386.8</ele>
        <time>2023-08-30T12:21:02Z</time>
      </trkpt>
      <trkpt lat="46.43425" lon="5.53849">
        <ele>386.8</ele>
        <time>2023-08-30T12:21:03Z</time>
      </trkpt>
      <trkpt lat="46.43421" lon="5.5385">
        <ele>386.8</ele>
        <time>2023-08-30T12:21:04Z</time>
      </trkpt>
      <trkpt lat="46.43418" lon="5.53851">
        <ele>386.8</ele>
        <time>2023-08-30T12:21:05Z</time>
      </trkpt>
      <trkpt lat="46.43414" lon="5.53852">
        <ele>387.4</ele>
        <time>2023-08-30T12:21:06Z</time>
      </trkpt>
      <trkpt lat="46.4341" lon="5.53853">
        <ele>387.6</ele>
        <time>2023-08-30T12:21:07Z</time>
      </trkpt>
      <trkpt lat="46.43406" lon="5.53854">
        <ele>387.6</ele>
        <time>2023-08-30T12:21:08Z</time>
      </trkpt>
      <trkpt lat="46.43402" lon="5.53855">
        <ele>387.6</ele>
        <time>2023-08-30T12:21:09Z</time>
      </trkpt>
      <trkpt lat="46.43399" lon="5.53856">
        <ele>387.6</ele>
        <time>2023-08-30T12:21:10Z</time>
      </trkpt>
      <trkpt lat="46.43395" lon="5.53857">
        <ele>387.8</ele>
        <time>2023-08-30T12:21:11Z</time>
      </trkpt>
      <trkpt lat="46.43391" lon="5.53858">
        <ele>387.8</ele>
        <time>2023-08-30T12:21:12Z</time>
      </trkpt>
      <trkpt lat="46.43387" lon="5.5386">
        <ele>387.8</ele>
        <time>2023-08-30T12:21:13Z</time>
      </trkpt>
      <trkpt lat="46.43384" lon="5.53861">
        <ele>387.8</ele>
        <time>2023-08-30T12:21:14Z</time>
      </trkpt>
      <trkpt lat="46.4338" lon="5.53862">
        <ele>388.2</ele>
        <time>2023-08-30T12:21:15Z</time>
      </trkpt>
      <trkpt lat="46.43376" lon="5.53863">
        <ele>388.2</ele>
        <time>2023-08-30T12:21:16Z</time>
      </trkpt>
      <trkpt lat="46.43372" lon="5.53864">
        <ele>388.2</ele>
        <time>2023-08-30T12:21:17Z</time>
      </trkpt>
      <trkpt lat="46.43369" lon="5.53865">
        <ele>388.2</ele>
        <time>2023-08-30T12:21:18Z</time>
      </trkpt>
      <trkpt lat="46.43363" lon="5.53866">
        <ele>388.2</ele>
        <time>2023-08-30T12:21:19Z</time>
      </trkpt>
      <trkpt lat="46.43362" lon="5.53867">
        <ele>388.8</ele>
        <time>2023-08-30T12:21:20Z</time>
      </trkpt>
      <trkpt lat="46.43358" lon="5.53867">
        <ele>388.6</ele>
        <time>2023-08-30T12:21:21Z</time>
      </trkpt>
      <trkpt lat="46.43354" lon="5.53868">
        <ele>388.6</ele>
        <time>2023-08-30T12:21:22Z</time>
      </trkpt>
      <trkpt lat="46.4335" lon="5.53869">
        <ele>388.6</ele>
        <time>2023-08-30T12:21:23Z</time>
      </trkpt>
      <trkpt lat="46.43346" lon="5.53869">
        <ele>388.6</ele>
        <time>2023-08-30T12:21:24Z</time>
      </trkpt>
      <trkpt lat="46.43342" lon="5.5387">
        <ele>389.2</ele>
        <time>2023-08-30T12:21:25Z</time>
      </trkpt>
      <trkpt lat="46.43338" lon="5.5387">
        <ele>389.2</ele>
        <time>2023-08-30T12:21:26Z</time>
      </trkpt>
      <trkpt lat="46.43334" lon="5.53871">
        <ele>389.2</ele>
        <time>2023-08-30T12:21:27Z</time>
      </trkpt>
      <trkpt lat="46.43327" lon="5.53872">
        <ele>389.6</ele>
        <time>2023-08-30T12:21:28Z</time>
      </trkpt>
      <trkpt lat="46.43325" lon="5.53872">
        <ele>389.6</ele>
        <time>2023-08-30T12:21:29Z</time>
      </trkpt>
      <trkpt lat="46.4332" lon="5.53873">
        <ele>389.6</ele>
        <time>2023-08-30T12:21:30Z</time>
      </trkpt>
      <trkpt lat="46.43315" lon="5.53873">
        <ele>389.6</ele>
        <time>2023-08-30T12:21:31Z</time>
      </trkpt>
      <trkpt lat="46.43311" lon="5.53874">
        <ele>389.6</ele>
        <time>2023-08-30T12:21:32Z</time>
      </trkpt>
      <trkpt lat="46.43306" lon="5.53875">
        <ele>389.8</ele>
        <time>2023-08-30T12:21:33Z</time>
      </trkpt>
      <trkpt lat="46.43302" lon="5.53876">
        <ele>389.6</ele>
        <time>2023-08-30T12:21:34Z</time>
      </trkpt>
      <trkpt lat="46.43297" lon="5.53876">
        <ele>389.6</ele>
        <time>2023-08-30T12:21:35Z</time>
      </trkpt>
      <trkpt lat="46.43293" lon="5.53877">
        <ele>389.6</ele>
        <time>2023-08-30T12:21:36Z</time>
      </trkpt>
      <trkpt lat="46.43288" lon="5.53879">
        <ele>389.6</ele>
        <time>2023-08-30T12:21:37Z</time>
      </trkpt>
      <trkpt lat="46.43284" lon="5.53881">
        <ele>390.2</ele>
        <time>2023-08-30T12:21:38Z</time>
      </trkpt>
      <trkpt lat="46.4328" lon="5.53884">
        <ele>390.4</ele>
        <time>2023-08-30T12:21:39Z</time>
      </trkpt>
      <trkpt lat="46.43275" lon="5.53887">
        <ele>390.4</ele>
        <time>2023-08-30T12:21:40Z</time>
      </trkpt>
      <trkpt lat="46.43271" lon="5.5389">
        <ele>390.4</ele>
        <time>2023-08-30T12:21:41Z</time>
      </trkpt>
      <trkpt lat="46.43267" lon="5.53894">
        <ele>390.4</ele>
        <time>2023-08-30T12:21:42Z</time>
      </trkpt>
      <trkpt lat="46.43263" lon="5.53898">
        <ele>390.6</ele>
        <time>2023-08-30T12:21:43Z</time>
      </trkpt>
      <trkpt lat="46.43259" lon="5.53902">
        <ele>390.6</ele>
        <time>2023-08-30T12:21:44Z</time>
      </trkpt>
      <trkpt lat="46.43255" lon="5.53905">
        <ele>390.6</ele>
        <time>2023-08-30T12:21:45Z</time>
      </trkpt>
      <trkpt lat="46.43252" lon="5.53909">
        <ele>390.6</ele>
        <time>2023-08-30T12:21:46Z</time>
      </trkpt>
      <trkpt lat="46.43248" lon="5.53913">
        <ele>391.2</ele>
        <time>2023-08-30T12:21:47Z</time>
      </trkpt>
      <trkpt lat="46.43244" lon="5.53916">
        <ele>391.2</ele>
        <time>2023-08-30T12:21:48Z</time>
      </trkpt>
      <trkpt lat="46.43241" lon="5.5392">
        <ele>391.2</ele>
        <time>2023-08-30T12:21:49Z</time>
      </trkpt>
      <trkpt lat="46.43238" lon="5.53924">
        <ele>391.2</ele>
        <time>2023-08-30T12:21:50Z</time>
      </trkpt>
      <trkpt lat="46.43235" lon="5.53927">
        <ele>391.2</ele>
        <time>2023-08-30T12:21:51Z</time>
      </trkpt>
      <trkpt lat="46.43232" lon="5.5393">
        <ele>392</ele>
        <time>2023-08-30T12:21:52Z</time>
      </trkpt>
      <trkpt lat="46.43229" lon="5.53933">
        <ele>392.2</ele>
        <time>2023-08-30T12:21:53Z</time>
      </trkpt>
      <trkpt lat="46.43226" lon="5.53936">
        <ele>392.2</ele>
        <time>2023-08-30T12:21:54Z</time>
      </trkpt>
      <trkpt lat="46.43223" lon="5.53938">
        <ele>392.2</ele>
        <time>2023-08-30T12:21:55Z</time>
      </trkpt>
      <trkpt lat="46.4322" lon="5.53941">
        <ele>393</ele>
        <time>2023-08-30T12:21:56Z</time>
      </trkpt>
      <trkpt lat="46.43217" lon="5.53943">
        <ele>393</ele>
        <time>2023-08-30T12:21:57Z</time>
      </trkpt>
      <trkpt lat="46.43214" lon="5.53946">
        <ele>393</ele>
        <time>2023-08-30T12:21:58Z</time>
      </trkpt>
      <trkpt lat="46.43211" lon="5.53948">
        <ele>393</ele>
        <time>2023-08-30T12:21:59Z</time>
      </trkpt>
      <trkpt lat="46.43208" lon="5.5395">
        <ele>393</ele>
        <time>2023-08-30T12:22:00Z</time>
      </trkpt>
      <trkpt lat="46.43205" lon="5.53953">
        <ele>393.6</ele>
        <time>2023-08-30T12:22:01Z</time>
      </trkpt>
      <trkpt lat="46.43202" lon="5.53955">
        <ele>393.8</ele>
        <time>2023-08-30T12:22:02Z</time>
      </trkpt>
      <trkpt lat="46.43199" lon="5.53957">
        <ele>393.8</ele>
        <time>2023-08-30T12:22:03Z</time>
      </trkpt>
      <trkpt lat="46.43196" lon="5.53959">
        <ele>393.8</ele>
        <time>2023-08-30T12:22:04Z</time>
      </trkpt>
      <trkpt lat="46.43193" lon="5.53962">
        <ele>394.6</ele>
        <time>2023-08-30T12:22:05Z</time>
      </trkpt>
      <trkpt lat="46.4319" lon="5.53965">
        <ele>394.6</ele>
        <time>2023-08-30T12:22:06Z</time>
      </trkpt>
      <trkpt lat="46.43187" lon="5.53967">
        <ele>394.6</ele>
        <time>2023-08-30T12:22:07Z</time>
      </trkpt>
      <trkpt lat="46.43184" lon="5.5397">
        <ele>394.6</ele>
        <time>2023-08-30T12:22:08Z</time>
      </trkpt>
      <trkpt lat="46.43181" lon="5.53973">
        <ele>395.4</ele>
        <time>2023-08-30T12:22:09Z</time>
      </trkpt>
      <trkpt lat="46.43178" lon="5.53976">
        <ele>395.4</ele>
        <time>2023-08-30T12:22:10Z</time>
      </trkpt>
      <trkpt lat="46.43175" lon="5.53979">
        <ele>395.6</ele>
        <time>2023-08-30T12:22:11Z</time>
      </trkpt>
      <trkpt lat="46.43172" lon="5.53982">
        <ele>395.6</ele>
        <time>2023-08-30T12:22:12Z</time>
      </trkpt>
      <trkpt lat="46.43169" lon="5.53985">
        <ele>396.2</ele>
        <time>2023-08-30T12:22:13Z</time>
      </trkpt>
      <trkpt lat="46.43167" lon="5.53987">
        <ele>396.2</ele>
        <time>2023-08-30T12:22:14Z</time>
      </trkpt>
      <trkpt lat="46.43164" lon="5.5399">
        <ele>397</ele>
        <time>2023-08-30T12:22:15Z</time>
      </trkpt>
      <trkpt lat="46.43161" lon="5.53992">
        <ele>397</ele>
        <time>2023-08-30T12:22:16Z</time>
      </trkpt>
      <trkpt lat="46.43158" lon="5.53995">
        <ele>397</ele>
        <time>2023-08-30T12:22:17Z</time>
      </trkpt>
      <trkpt lat="46.43156" lon="5.53997">
        <ele>397</ele>
        <time>2023-08-30T12:22:18Z</time>
      </trkpt>
      <trkpt lat="46.43153" lon="5.53999">
        <ele>397.6</ele>
        <time>2023-08-30T12:22:19Z</time>
      </trkpt>
      <trkpt lat="46.4315" lon="5.54002">
        <ele>397.6</ele>
        <time>2023-08-30T12:22:20Z</time>
      </trkpt>
      <trkpt lat="46.43147" lon="5.54005">
        <ele>397.6</ele>
        <time>2023-08-30T12:22:21Z</time>
      </trkpt>
      <trkpt lat="46.43144" lon="5.54007">
        <ele>398</ele>
        <time>2023-08-30T12:22:22Z</time>
      </trkpt>
      <trkpt lat="46.43142" lon="5.5401">
        <ele>398.2</ele>
        <time>2023-08-30T12:22:23Z</time>
      </trkpt>
      <trkpt lat="46.43139" lon="5.54013">
        <ele>398.2</ele>
        <time>2023-08-30T12:22:24Z</time>
      </trkpt>
      <trkpt lat="46.43136" lon="5.54016">
        <ele>398.2</ele>
        <time>2023-08-30T12:22:25Z</time>
      </trkpt>
      <trkpt lat="46.43132" lon="5.54018">
        <ele>398.2</ele>
        <time>2023-08-30T12:22:26Z</time>
      </trkpt>
      <trkpt lat="46.43129" lon="5.5402">
        <ele>398.6</ele>
        <time>2023-08-30T12:22:27Z</time>
      </trkpt>
      <trkpt lat="46.43126" lon="5.54023">
        <ele>399</ele>
        <time>2023-08-30T12:22:28Z</time>
      </trkpt>
      <trkpt lat="46.43123" lon="5.54024">
        <ele>399</ele>
        <time>2023-08-30T12:22:29Z</time>
      </trkpt>
      <trkpt lat="46.43119" lon="5.54026">
        <ele>399</ele>
        <time>2023-08-30T12:22:30Z</time>
      </trkpt>
      <trkpt lat="46.43116" lon="5.54028">
        <ele>399</ele>
        <time>2023-08-30T12:22:31Z</time>
      </trkpt>
      <trkpt lat="46.43112" lon="5.5403">
        <ele>399</ele>
        <time>2023-08-30T12:22:32Z</time>
      </trkpt>
      <trkpt lat="46.43109" lon="5.54032">
        <ele>399</ele>
        <time>2023-08-30T12:22:33Z</time>
      </trkpt>
      <trkpt lat="46.43106" lon="5.54034">
        <ele>399.4</ele>
        <time>2023-08-30T12:22:34Z</time>
      </trkpt>
      <trkpt lat="46.43103" lon="5.54036">
        <ele>399.4</ele>
        <time>2023-08-30T12:22:35Z</time>
      </trkpt>
      <trkpt lat="46.431" lon="5.54037">
        <ele>399.4</ele>
        <time>2023-08-30T12:22:36Z</time>
      </trkpt>
      <trkpt lat="46.43096" lon="5.54039">
        <ele>399.4</ele>
        <time>2023-08-30T12:22:37Z</time>
      </trkpt>
      <trkpt lat="46.43093" lon="5.54041">
        <ele>399.8</ele>
        <time>2023-08-30T12:22:38Z</time>
      </trkpt>
      <trkpt lat="46.4309" lon="5.54043">
        <ele>399.8</ele>
        <time>2023-08-30T12:22:39Z</time>
      </trkpt>
      <trkpt lat="46.43086" lon="5.54044">
        <ele>399.8</ele>
        <time>2023-08-30T12:22:40Z</time>
      </trkpt>
      <trkpt lat="46.43083" lon="5.54046">
        <ele>400.4</ele>
        <time>2023-08-30T12:22:41Z</time>
      </trkpt>
      <trkpt lat="46.4308" lon="5.54048">
        <ele>400.6</ele>
        <time>2023-08-30T12:22:42Z</time>
      </trkpt>
      <trkpt lat="46.43076" lon="5.5405">
        <ele>400.6</ele>
        <time>2023-08-30T12:22:43Z</time>
      </trkpt>
      <trkpt lat="46.43073" lon="5.54052">
        <ele>400.6</ele>
        <time>2023-08-30T12:22:44Z</time>
      </trkpt>
      <trkpt lat="46.4307" lon="5.54054">
        <ele>401.2</ele>
        <time>2023-08-30T12:22:45Z</time>
      </trkpt>
      <trkpt lat="46.43067" lon="5.54056">
        <ele>401.2</ele>
        <time>2023-08-30T12:22:46Z</time>
      </trkpt>
      <trkpt lat="46.43063" lon="5.54058">
        <ele>401.2</ele>
        <time>2023-08-30T12:22:47Z</time>
      </trkpt>
      <trkpt lat="46.4306" lon="5.54059">
        <ele>401.2</ele>
        <time>2023-08-30T12:22:48Z</time>
      </trkpt>
      <trkpt lat="46.43056" lon="5.54061">
        <ele>401.2</ele>
        <time>2023-08-30T12:22:49Z</time>
      </trkpt>
      <trkpt lat="46.43053" lon="5.54062">
        <ele>401.2</ele>
        <time>2023-08-30T12:22:50Z</time>
      </trkpt>
      <trkpt lat="46.4305" lon="5.54064">
        <ele>401.6</ele>
        <time>2023-08-30T12:22:51Z</time>
      </trkpt>
      <trkpt lat="46.43046" lon="5.54066">
        <ele>401.6</ele>
        <time>2023-08-30T12:22:52Z</time>
      </trkpt>
      <trkpt lat="46.43043" lon="5.54067">
        <ele>401.6</ele>
        <time>2023-08-30T12:22:53Z</time>
      </trkpt>
      <trkpt lat="46.4304" lon="5.54069">
        <ele>402.2</ele>
        <time>2023-08-30T12:22:54Z</time>
      </trkpt>
      <trkpt lat="46.43036" lon="5.54071">
        <ele>402.4</ele>
        <time>2023-08-30T12:22:55Z</time>
      </trkpt>
      <trkpt lat="46.43033" lon="5.54072">
        <ele>402.4</ele>
        <time>2023-08-30T12:22:56Z</time>
      </trkpt>
      <trkpt lat="46.43029" lon="5.54074">
        <ele>402.4</ele>
        <time>2023-08-30T12:22:57Z</time>
      </trkpt>
      <trkpt lat="46.43025" lon="5.54077">
        <ele>403</ele>
        <time>2023-08-30T12:22:58Z</time>
      </trkpt>
      <trkpt lat="46.43022" lon="5.54079">
        <ele>403</ele>
        <time>2023-08-30T12:22:59Z</time>
      </trkpt>
      <trkpt lat="46.43018" lon="5.5408">
        <ele>403</ele>
        <time>2023-08-30T12:23:00Z</time>
      </trkpt>
      <trkpt lat="46.43014" lon="5.54082">
        <ele>403</ele>
        <time>2023-08-30T12:23:01Z</time>
      </trkpt>
      <trkpt lat="46.4301" lon="5.54084">
        <ele>403</ele>
        <time>2023-08-30T12:23:02Z</time>
      </trkpt>
      <trkpt lat="46.43006" lon="5.54086">
        <ele>403</ele>
        <time>2023-08-30T12:23:03Z</time>
      </trkpt>
      <trkpt lat="46.43002" lon="5.54088">
        <ele>403.6</ele>
        <time>2023-08-30T12:23:04Z</time>
      </trkpt>
      <trkpt lat="46.42998" lon="5.54089">
        <ele>403.6</ele>
        <time>2023-08-30T12:23:05Z</time>
      </trkpt>
      <trkpt lat="46.42994" lon="5.54091">
        <ele>403.6</ele>
        <time>2023-08-30T12:23:06Z</time>
      </trkpt>
      <trkpt lat="46.4299" lon="5.54093">
        <ele>403.8</ele>
        <time>2023-08-30T12:23:07Z</time>
      </trkpt>
      <trkpt lat="46.42985" lon="5.54094">
        <ele>404</ele>
        <time>2023-08-30T12:23:08Z</time>
      </trkpt>
      <trkpt lat="46.42981" lon="5.54096">
        <ele>404</ele>
        <time>2023-08-30T12:23:09Z</time>
      </trkpt>
      <trkpt lat="46.42977" lon="5.54098">
        <ele>404</ele>
        <time>2023-08-30T12:23:10Z</time>
      </trkpt>
      <trkpt lat="46.42973" lon="5.541">
        <ele>404</ele>
        <time>2023-08-30T12:23:11Z</time>
      </trkpt>
      <trkpt lat="46.42969" lon="5.54101">
        <ele>404.4</ele>
        <time>2023-08-30T12:23:12Z</time>
      </trkpt>
      <trkpt lat="46.42965" lon="5.54103">
        <ele>404.4</ele>
        <time>2023-08-30T12:23:13Z</time>
      </trkpt>
      <trkpt lat="46.42961" lon="5.54104">
        <ele>404.6</ele>
        <time>2023-08-30T12:23:14Z</time>
      </trkpt>
      <trkpt lat="46.42957" lon="5.54106">
        <ele>404.6</ele>
        <time>2023-08-30T12:23:15Z</time>
      </trkpt>
      <trkpt lat="46.42953" lon="5.54108">
        <ele>404.6</ele>
        <time>2023-08-30T12:23:16Z</time>
      </trkpt>
      <trkpt lat="46.42949" lon="5.5411">
        <ele>404.6</ele>
        <time>2023-08-30T12:23:17Z</time>
      </trkpt>
      <trkpt lat="46.42945" lon="5.54112">
        <ele>404.6</ele>
        <time>2023-08-30T12:23:18Z</time>
      </trkpt>
      <trkpt lat="46.42942" lon="5.54114">
        <ele>405.2</ele>
        <time>2023-08-30T12:23:19Z</time>
      </trkpt>
      <trkpt lat="46.42938" lon="5.54116">
        <ele>405.2</ele>
        <time>2023-08-30T12:23:20Z</time>
      </trkpt>
      <trkpt lat="46.42935" lon="5.54117">
        <ele>405.4</ele>
        <time>2023-08-30T12:23:21Z</time>
      </trkpt>
      <trkpt lat="46.42932" lon="5.54119">
        <ele>405.6</ele>
        <time>2023-08-30T12:23:22Z</time>
      </trkpt>
      <trkpt lat="46.42929" lon="5.5412">
        <ele>405.6</ele>
        <time>2023-08-30T12:23:23Z</time>
      </trkpt>
      <trkpt lat="46.42926" lon="5.54122">
        <ele>405.6</ele>
        <time>2023-08-30T12:23:24Z</time>
      </trkpt>
      <trkpt lat="46.42923" lon="5.54123">
        <ele>405.6</ele>
        <time>2023-08-30T12:23:25Z</time>
      </trkpt>
      <trkpt lat="46.42919" lon="5.54125">
        <ele>406</ele>
        <time>2023-08-30T12:23:26Z</time>
      </trkpt>
      <trkpt lat="46.42916" lon="5.54126">
        <ele>406</ele>
        <time>2023-08-30T12:23:27Z</time>
      </trkpt>
      <trkpt lat="46.42913" lon="5.54127">
        <ele>406</ele>
        <time>2023-08-30T12:23:28Z</time>
      </trkpt>
      <trkpt lat="46.4291" lon="5.54128">
        <ele>406</ele>
        <time>2023-08-30T12:23:29Z</time>
      </trkpt>
      <trkpt lat="46.42907" lon="5.54128">
        <ele>406.6</ele>
        <time>2023-08-30T12:23:30Z</time>
      </trkpt>
      <trkpt lat="46.42904" lon="5.5413">
        <ele>406.4</ele>
        <time>2023-08-30T12:23:31Z</time>
      </trkpt>
      <trkpt lat="46.42901" lon="5.54131">
        <ele>406.4</ele>
        <time>2023-08-30T12:23:32Z</time>
      </trkpt>
      <trkpt lat="46.42899" lon="5.54131">
        <ele>406.4</ele>
        <time>2023-08-30T12:23:33Z</time>
      </trkpt>
      <trkpt lat="46.42896" lon="5.54132">
        <ele>407.2</ele>
        <time>2023-08-30T12:23:34Z</time>
      </trkpt>
      <trkpt lat="46.42893" lon="5.54133">
        <ele>407.2</ele>
        <time>2023-08-30T12:23:35Z</time>
      </trkpt>
      <trkpt lat="46.4289" lon="5.54134">
        <ele>407.2</ele>
        <time>2023-08-30T12:23:36Z</time>
      </trkpt>
      <trkpt lat="46.42887" lon="5.54134">
        <ele>407</ele>
        <time>2023-08-30T12:23:37Z</time>
      </trkpt>
      <trkpt lat="46.42884" lon="5.54135">
        <ele>407</ele>
        <time>2023-08-30T12:23:38Z</time>
      </trkpt>
      <trkpt lat="46.42881" lon="5.54135">
        <ele>407</ele>
        <time>2023-08-30T12:23:39Z</time>
      </trkpt>
      <trkpt lat="46.42878" lon="5.54136">
        <ele>407.4</ele>
        <time>2023-08-30T12:23:40Z</time>
      </trkpt>
      <trkpt lat="46.42875" lon="5.54137">
        <ele>407.4</ele>
        <time>2023-08-30T12:23:41Z</time>
      </trkpt>
      <trkpt lat="46.42872" lon="5.54138">
        <ele>407.4</ele>
        <time>2023-08-30T12:23:42Z</time>
      </trkpt>
      <trkpt lat="46.42869" lon="5.54139">
        <ele>407.4</ele>
        <time>2023-08-30T12:23:43Z</time>
      </trkpt>
      <trkpt lat="46.42866" lon="5.54139">
        <ele>408</ele>
        <time>2023-08-30T12:23:44Z</time>
      </trkpt>
      <trkpt lat="46.42864" lon="5.5414">
        <ele>408</ele>
        <time>2023-08-30T12:23:45Z</time>
      </trkpt>
      <trkpt lat="46.4286" lon="5.54141">
        <ele>408</ele>
        <time>2023-08-30T12:23:46Z</time>
      </trkpt>
      <trkpt lat="46.42857" lon="5.54142">
        <ele>408</ele>
        <time>2023-08-30T12:23:47Z</time>
      </trkpt>
      <trkpt lat="46.42854" lon="5.54143">
        <ele>408</ele>
        <time>2023-08-30T12:23:48Z</time>
      </trkpt>
      <trkpt lat="46.42851" lon="5.54144">
        <ele>408.6</ele>
        <time>2023-08-30T12:23:49Z</time>
      </trkpt>
      <trkpt lat="46.42847" lon="5.54145">
        <ele>408.6</ele>
        <time>2023-08-30T12:23:50Z</time>
      </trkpt>
      <trkpt lat="46.42844" lon="5.54145">
        <ele>408.4</ele>
        <time>2023-08-30T12:23:51Z</time>
      </trkpt>
      <trkpt lat="46.42841" lon="5.54146">
        <ele>408.4</ele>
        <time>2023-08-30T12:23:52Z</time>
      </trkpt>
      <trkpt lat="46.42838" lon="5.54147">
        <ele>408.4</ele>
        <time>2023-08-30T12:23:53Z</time>
      </trkpt>
      <trkpt lat="46.42835" lon="5.54148">
        <ele>408.8</ele>
        <time>2023-08-30T12:23:54Z</time>
      </trkpt>
      <trkpt lat="46.42832" lon="5.54148">
        <ele>408.8</ele>
        <time>2023-08-30T12:23:55Z</time>
      </trkpt>
      <trkpt lat="46.42828" lon="5.54149">
        <ele>408.8</ele>
        <time>2023-08-30T12:23:56Z</time>
      </trkpt>
      <trkpt lat="46.42825" lon="5.5415">
        <ele>409</ele>
        <time>2023-08-30T12:23:57Z</time>
      </trkpt>
      <trkpt lat="46.42821" lon="5.54151">
        <ele>409</ele>
        <time>2023-08-30T12:23:58Z</time>
      </trkpt>
      <trkpt lat="46.42818" lon="5.54152">
        <ele>409.2</ele>
        <time>2023-08-30T12:23:59Z</time>
      </trkpt>
      <trkpt lat="46.42814" lon="5.54153">
        <ele>409.2</ele>
        <time>2023-08-30T12:24:00Z</time>
      </trkpt>
      <trkpt lat="46.4281" lon="5.54154">
        <ele>409.2</ele>
        <time>2023-08-30T12:24:01Z</time>
      </trkpt>
      <trkpt lat="46.42805" lon="5.54155">
        <ele>409.4</ele>
        <time>2023-08-30T12:24:02Z</time>
      </trkpt>
      <trkpt lat="46.42803" lon="5.54156">
        <ele>409.4</ele>
        <time>2023-08-30T12:24:03Z</time>
      </trkpt>
      <trkpt lat="46.42799" lon="5.54157">
        <ele>409.4</ele>
        <time>2023-08-30T12:24:04Z</time>
      </trkpt>
      <trkpt lat="46.42795" lon="5.54158">
        <ele>409.4</ele>
        <time>2023-08-30T12:24:05Z</time>
      </trkpt>
      <trkpt lat="46.42791" lon="5.54159">
        <ele>409.4</ele>
        <time>2023-08-30T12:24:06Z</time>
      </trkpt>
      <trkpt lat="46.42787" lon="5.5416">
        <ele>409.8</ele>
        <time>2023-08-30T12:24:07Z</time>
      </trkpt>
      <trkpt lat="46.42783" lon="5.5416">
        <ele>409.8</ele>
        <time>2023-08-30T12:24:08Z</time>
      </trkpt>
      <trkpt lat="46.42779" lon="5.54161">
        <ele>409.8</ele>
        <time>2023-08-30T12:24:09Z</time>
      </trkpt>
      <trkpt lat="46.42774" lon="5.54162">
        <ele>409.8</ele>
        <time>2023-08-30T12:24:10Z</time>
      </trkpt>
      <trkpt lat="46.4277" lon="5.54163">
        <ele>410</ele>
        <time>2023-08-30T12:24:11Z</time>
      </trkpt>
      <trkpt lat="46.42766" lon="5.54164">
        <ele>410</ele>
        <time>2023-08-30T12:24:12Z</time>
      </trkpt>
      <trkpt lat="46.42762" lon="5.54165">
        <ele>410</ele>
        <time>2023-08-30T12:24:13Z</time>
      </trkpt>
      <trkpt lat="46.42757" lon="5.54166">
        <ele>410</ele>
        <time>2023-08-30T12:24:14Z</time>
      </trkpt>
      <trkpt lat="46.42753" lon="5.54167">
        <ele>410</ele>
        <time>2023-08-30T12:24:15Z</time>
      </trkpt>
      <trkpt lat="46.42749" lon="5.54169">
        <ele>410</ele>
        <time>2023-08-30T12:24:16Z</time>
      </trkpt>
      <trkpt lat="46.42745" lon="5.54172">
        <ele>410</ele>
        <time>2023-08-30T12:24:17Z</time>
      </trkpt>
      <trkpt lat="46.42742" lon="5.54176">
        <ele>410.4</ele>
        <time>2023-08-30T12:24:18Z</time>
      </trkpt>
      <trkpt lat="46.42739" lon="5.54181">
        <ele>410.4</ele>
        <time>2023-08-30T12:24:19Z</time>
      </trkpt>
      <trkpt lat="46.42736" lon="5.54187">
        <ele>410.4</ele>
        <time>2023-08-30T12:24:20Z</time>
      </trkpt>
      <trkpt lat="46.42734" lon="5.54194">
        <ele>410.4</ele>
        <time>2023-08-30T12:24:21Z</time>
      </trkpt>
      <trkpt lat="46.42732" lon="5.54201">
        <ele>410.6</ele>
        <time>2023-08-30T12:24:22Z</time>
      </trkpt>
      <trkpt lat="46.4273" lon="5.54209">
        <ele>410.6</ele>
        <time>2023-08-30T12:24:23Z</time>
      </trkpt>
      <trkpt lat="46.42728" lon="5.54216">
        <ele>410.6</ele>
        <time>2023-08-30T12:24:24Z</time>
      </trkpt>
      <trkpt lat="46.42726" lon="5.54225">
        <ele>410.6</ele>
        <time>2023-08-30T12:24:25Z</time>
      </trkpt>
      <trkpt lat="46.42724" lon="5.54233">
        <ele>410.4</ele>
        <time>2023-08-30T12:24:26Z</time>
      </trkpt>
      <trkpt lat="46.42722" lon="5.54242">
        <ele>410.4</ele>
        <time>2023-08-30T12:24:27Z</time>
      </trkpt>
      <trkpt lat="46.4272" lon="5.54252">
        <ele>410.4</ele>
        <time>2023-08-30T12:24:28Z</time>
      </trkpt>
      <trkpt lat="46.42718" lon="5.54261">
        <ele>410.4</ele>
        <time>2023-08-30T12:24:29Z</time>
      </trkpt>
      <trkpt lat="46.42716" lon="5.5427">
        <ele>410</ele>
        <time>2023-08-30T12:24:30Z</time>
      </trkpt>
      <trkpt lat="46.42713" lon="5.5428">
        <ele>410</ele>
        <time>2023-08-30T12:24:31Z</time>
      </trkpt>
      <trkpt lat="46.42711" lon="5.54289">
        <ele>410</ele>
        <time>2023-08-30T12:24:32Z</time>
      </trkpt>
      <trkpt lat="46.42708" lon="5.54303">
        <ele>410</ele>
        <time>2023-08-30T12:24:33Z</time>
      </trkpt>
      <trkpt lat="46.42707" lon="5.54308">
        <ele>410</ele>
        <time>2023-08-30T12:24:34Z</time>
      </trkpt>
      <trkpt lat="46.42704" lon="5.54317">
        <ele>410</ele>
        <time>2023-08-30T12:24:35Z</time>
      </trkpt>
      <trkpt lat="46.42702" lon="5.54326">
        <ele>409.4</ele>
        <time>2023-08-30T12:24:36Z</time>
      </trkpt>
      <trkpt lat="46.427" lon="5.54335">
        <ele>409.4</ele>
        <time>2023-08-30T12:24:37Z</time>
      </trkpt>
      <trkpt lat="46.42699" lon="5.54344">
        <ele>410.2</ele>
        <time>2023-08-30T12:24:38Z</time>
      </trkpt>
      <trkpt lat="46.42697" lon="5.54352">
        <ele>410.2</ele>
        <time>2023-08-30T12:24:39Z</time>
      </trkpt>
      <trkpt lat="46.42695" lon="5.5436">
        <ele>410.2</ele>
        <time>2023-08-30T12:24:40Z</time>
      </trkpt>
      <trkpt lat="46.42694" lon="5.54368">
        <ele>410.4</ele>
        <time>2023-08-30T12:24:41Z</time>
      </trkpt>
      <trkpt lat="46.42692" lon="5.54375">
        <ele>410.4</ele>
        <time>2023-08-30T12:24:42Z</time>
      </trkpt>
      <trkpt lat="46.42691" lon="5.54383">
        <ele>410.4</ele>
        <time>2023-08-30T12:24:43Z</time>
      </trkpt>
      <trkpt lat="46.42689" lon="5.5439">
        <ele>410.4</ele>
        <time>2023-08-30T12:24:44Z</time>
      </trkpt>
      <trkpt lat="46.42687" lon="5.54397">
        <ele>410.4</ele>
        <time>2023-08-30T12:24:45Z</time>
      </trkpt>
      <trkpt lat="46.42686" lon="5.54404">
        <ele>410.4</ele>
        <time>2023-08-30T12:24:46Z</time>
      </trkpt>
      <trkpt lat="46.42684" lon="5.54411">
        <ele>410.4</ele>
        <time>2023-08-30T12:24:47Z</time>
      </trkpt>
      <trkpt lat="46.42682" lon="5.54418">
        <ele>410.2</ele>
        <time>2023-08-30T12:24:48Z</time>
      </trkpt>
      <trkpt lat="46.4268" lon="5.54429">
        <ele>410.2</ele>
        <time>2023-08-30T12:24:49Z</time>
      </trkpt>
      <trkpt lat="46.4268" lon="5.54433">
        <ele>410.2</ele>
        <time>2023-08-30T12:24:50Z</time>
      </trkpt>
      <trkpt lat="46.42678" lon="5.5444">
        <ele>410.2</ele>
        <time>2023-08-30T12:24:51Z</time>
      </trkpt>
      <trkpt lat="46.42676" lon="5.54447">
        <ele>410.6</ele>
        <time>2023-08-30T12:24:52Z</time>
      </trkpt>
      <trkpt lat="46.42675" lon="5.54454">
        <ele>410.4</ele>
        <time>2023-08-30T12:24:53Z</time>
      </trkpt>
      <trkpt lat="46.42672" lon="5.54465">
        <ele>410.4</ele>
        <time>2023-08-30T12:24:54Z</time>
      </trkpt>
      <trkpt lat="46.42672" lon="5.54469">
        <ele>410.4</ele>
        <time>2023-08-30T12:24:55Z</time>
      </trkpt>
      <trkpt lat="46.4267" lon="5.54475">
        <ele>410.8</ele>
        <time>2023-08-30T12:24:56Z</time>
      </trkpt>
      <trkpt lat="46.42668" lon="5.54482">
        <ele>410.8</ele>
        <time>2023-08-30T12:24:57Z</time>
      </trkpt>
      <trkpt lat="46.42666" lon="5.54489">
        <ele>410.6</ele>
        <time>2023-08-30T12:24:58Z</time>
      </trkpt>
      <trkpt lat="46.42664" lon="5.54495">
        <ele>410.6</ele>
        <time>2023-08-30T12:24:59Z</time>
      </trkpt>
      <trkpt lat="46.42663" lon="5.54502">
        <ele>410.6</ele>
        <time>2023-08-30T12:25:00Z</time>
      </trkpt>
      <trkpt lat="46.42661" lon="5.54509">
        <ele>410.6</ele>
        <time>2023-08-30T12:25:01Z</time>
      </trkpt>
      <trkpt lat="46.4266" lon="5.54515">
        <ele>410.6</ele>
        <time>2023-08-30T12:25:02Z</time>
      </trkpt>
      <trkpt lat="46.42658" lon="5.54522">
        <ele>411</ele>
        <time>2023-08-30T12:25:03Z</time>
      </trkpt>
      <trkpt lat="46.42657" lon="5.54529">
        <ele>411</ele>
        <time>2023-08-30T12:25:04Z</time>
      </trkpt>
      <trkpt lat="46.42655" lon="5.54536">
        <ele>411</ele>
        <time>2023-08-30T12:25:05Z</time>
      </trkpt>
      <trkpt lat="46.42653" lon="5.54542">
        <ele>411</ele>
        <time>2023-08-30T12:25:06Z</time>
      </trkpt>
      <trkpt lat="46.42651" lon="5.54549">
        <ele>410.8</ele>
        <time>2023-08-30T12:25:07Z</time>
      </trkpt>
      <trkpt lat="46.4265" lon="5.54556">
        <ele>410.8</ele>
        <time>2023-08-30T12:25:08Z</time>
      </trkpt>
      <trkpt lat="46.42648" lon="5.54563">
        <ele>410.8</ele>
        <time>2023-08-30T12:25:09Z</time>
      </trkpt>
      <trkpt lat="46.42645" lon="5.54571">
        <ele>410.8</ele>
        <time>2023-08-30T12:25:10Z</time>
      </trkpt>
      <trkpt lat="46.42643" lon="5.54578">
        <ele>410.6</ele>
        <time>2023-08-30T12:25:11Z</time>
      </trkpt>
      <trkpt lat="46.4264" lon="5.54586">
        <ele>410.6</ele>
        <time>2023-08-30T12:25:12Z</time>
      </trkpt>
      <trkpt lat="46.42638" lon="5.54593">
        <ele>410.6</ele>
        <time>2023-08-30T12:25:13Z</time>
      </trkpt>
      <trkpt lat="46.42634" lon="5.546">
        <ele>410.6</ele>
        <time>2023-08-30T12:25:14Z</time>
      </trkpt>
      <trkpt lat="46.42631" lon="5.54607">
        <ele>410.6</ele>
        <time>2023-08-30T12:25:15Z</time>
      </trkpt>
      <trkpt lat="46.42627" lon="5.54615">
        <ele>410.2</ele>
        <time>2023-08-30T12:25:16Z</time>
      </trkpt>
      <trkpt lat="46.42623" lon="5.54622">
        <ele>410.2</ele>
        <time>2023-08-30T12:25:17Z</time>
      </trkpt>
      <trkpt lat="46.4262" lon="5.5463">
        <ele>410.2</ele>
        <time>2023-08-30T12:25:18Z</time>
      </trkpt>
      <trkpt lat="46.42616" lon="5.54637">
        <ele>410.2</ele>
        <time>2023-08-30T12:25:19Z</time>
      </trkpt>
      <trkpt lat="46.42612" lon="5.54645">
        <ele>409.8</ele>
        <time>2023-08-30T12:25:20Z</time>
      </trkpt>
      <trkpt lat="46.42607" lon="5.54653">
        <ele>409.8</ele>
        <time>2023-08-30T12:25:21Z</time>
      </trkpt>
      <trkpt lat="46.42602" lon="5.54661">
        <ele>409.8</ele>
        <time>2023-08-30T12:25:22Z</time>
      </trkpt>
      <trkpt lat="46.42598" lon="5.54669">
        <ele>409.6</ele>
        <time>2023-08-30T12:25:23Z</time>
      </trkpt>
      <trkpt lat="46.42593" lon="5.54677">
        <ele>409.6</ele>
        <time>2023-08-30T12:25:24Z</time>
      </trkpt>
      <trkpt lat="46.42588" lon="5.54685">
        <ele>409</ele>
        <time>2023-08-30T12:25:25Z</time>
      </trkpt>
      <trkpt lat="46.42584" lon="5.54694">
        <ele>409</ele>
        <time>2023-08-30T12:25:26Z</time>
      </trkpt>
      <trkpt lat="46.42576" lon="5.54707">
        <ele>409</ele>
        <time>2023-08-30T12:25:27Z</time>
      </trkpt>
      <trkpt lat="46.42574" lon="5.54712">
        <ele>409</ele>
        <time>2023-08-30T12:25:28Z</time>
      </trkpt>
      <trkpt lat="46.42569" lon="5.54721">
        <ele>408.4</ele>
        <time>2023-08-30T12:25:29Z</time>
      </trkpt>
      <trkpt lat="46.42564" lon="5.54729">
        <ele>408.4</ele>
        <time>2023-08-30T12:25:30Z</time>
      </trkpt>
      <trkpt lat="46.42559" lon="5.54738">
        <ele>408.4</ele>
        <time>2023-08-30T12:25:31Z</time>
      </trkpt>
      <trkpt lat="46.42554" lon="5.54747">
        <ele>408.4</ele>
        <time>2023-08-30T12:25:32Z</time>
      </trkpt>
      <trkpt lat="46.42546" lon="5.54761">
        <ele>408.2</ele>
        <time>2023-08-30T12:25:33Z</time>
      </trkpt>
      <trkpt lat="46.42544" lon="5.54766">
        <ele>407.6</ele>
        <time>2023-08-30T12:25:34Z</time>
      </trkpt>
      <trkpt lat="46.42538" lon="5.54775">
        <ele>407.6</ele>
        <time>2023-08-30T12:25:35Z</time>
      </trkpt>
      <trkpt lat="46.42533" lon="5.54784">
        <ele>407.6</ele>
        <time>2023-08-30T12:25:36Z</time>
      </trkpt>
      <trkpt lat="46.42526" lon="5.54792">
        <ele>407</ele>
        <time>2023-08-30T12:25:37Z</time>
      </trkpt>
      <trkpt lat="46.42519" lon="5.54798">
        <ele>406.6</ele>
        <time>2023-08-30T12:25:38Z</time>
      </trkpt>
      <trkpt lat="46.42511" lon="5.54804">
        <ele>406.6</ele>
        <time>2023-08-30T12:25:39Z</time>
      </trkpt>
      <trkpt lat="46.42503" lon="5.54807">
        <ele>406.6</ele>
        <time>2023-08-30T12:25:40Z</time>
      </trkpt>
      <trkpt lat="46.42495" lon="5.54809">
        <ele>406.6</ele>
        <time>2023-08-30T12:25:41Z</time>
      </trkpt>
      <trkpt lat="46.42486" lon="5.54811">
        <ele>406.6</ele>
        <time>2023-08-30T12:25:42Z</time>
      </trkpt>
      <trkpt lat="46.42474" lon="5.54812">
        <ele>405.4</ele>
        <time>2023-08-30T12:25:43Z</time>
      </trkpt>
      <trkpt lat="46.42472" lon="5.54812">
        <ele>405.4</ele>
        <time>2023-08-30T12:25:44Z</time>
      </trkpt>
      <trkpt lat="46.42467" lon="5.54813">
        <ele>405.4</ele>
        <time>2023-08-30T12:25:45Z</time>
      </trkpt>
      <trkpt lat="46.42449" lon="5.54813">
        <ele>405.4</ele>
        <time>2023-08-30T12:25:46Z</time>
      </trkpt>
      <trkpt lat="46.42439" lon="5.54812">
        <ele>404.4</ele>
        <time>2023-08-30T12:25:47Z</time>
      </trkpt>
      <trkpt lat="46.42429" lon="5.54812">
        <ele>404</ele>
        <time>2023-08-30T12:25:48Z</time>
      </trkpt>
      <trkpt lat="46.42419" lon="5.54813">
        <ele>404</ele>
        <time>2023-08-30T12:25:49Z</time>
      </trkpt>
      <trkpt lat="46.42404" lon="5.54813">
        <ele>404</ele>
        <time>2023-08-30T12:25:50Z</time>
      </trkpt>
      <trkpt lat="46.42398" lon="5.54813">
        <ele>403</ele>
        <time>2023-08-30T12:25:51Z</time>
      </trkpt>
      <trkpt lat="46.42388" lon="5.54813">
        <ele>403</ele>
        <time>2023-08-30T12:25:52Z</time>
      </trkpt>
      <trkpt lat="46.42377" lon="5.54814">
        <ele>402.2</ele>
        <time>2023-08-30T12:25:53Z</time>
      </trkpt>
      <trkpt lat="46.42366" lon="5.54815">
        <ele>402.2</ele>
        <time>2023-08-30T12:25:54Z</time>
      </trkpt>
      <trkpt lat="46.42355" lon="5.54817">
        <ele>401.2</ele>
        <time>2023-08-30T12:25:55Z</time>
      </trkpt>
      <trkpt lat="46.42344" lon="5.5482">
        <ele>401.2</ele>
        <time>2023-08-30T12:25:56Z</time>
      </trkpt>
      <trkpt lat="46.42333" lon="5.54824">
        <ele>401.2</ele>
        <time>2023-08-30T12:25:57Z</time>
      </trkpt>
      <trkpt lat="46.42322" lon="5.54829">
        <ele>400.4</ele>
        <time>2023-08-30T12:25:58Z</time>
      </trkpt>
      <trkpt lat="46.42311" lon="5.54834">
        <ele>400.4</ele>
        <time>2023-08-30T12:25:59Z</time>
      </trkpt>
      <trkpt lat="46.423" lon="5.54839">
        <ele>400.4</ele>
        <time>2023-08-30T12:26:00Z</time>
      </trkpt>
      <trkpt lat="46.42284" lon="5.54848">
        <ele>399.4</ele>
        <time>2023-08-30T12:26:01Z</time>
      </trkpt>
      <trkpt lat="46.42278" lon="5.54851">
        <ele>397</ele>
        <time>2023-08-30T12:26:02Z</time>
      </trkpt>
      <trkpt lat="46.42267" lon="5.54857">
        <ele>397</ele>
        <time>2023-08-30T12:26:03Z</time>
      </trkpt>
      <trkpt lat="46.42251" lon="5.54869">
        <ele>397</ele>
        <time>2023-08-30T12:26:04Z</time>
      </trkpt>
      <trkpt lat="46.42246" lon="5.54873">
        <ele>396</ele>
        <time>2023-08-30T12:26:05Z</time>
      </trkpt>
      <trkpt lat="46.42236" lon="5.54883">
        <ele>394.8</ele>
        <time>2023-08-30T12:26:06Z</time>
      </trkpt>
      <trkpt lat="46.42228" lon="5.54896">
        <ele>394.8</ele>
        <time>2023-08-30T12:26:07Z</time>
      </trkpt>
      <trkpt lat="46.42221" lon="5.54909">
        <ele>394.8</ele>
        <time>2023-08-30T12:26:08Z</time>
      </trkpt>
      <trkpt lat="46.42216" lon="5.54923">
        <ele>394.8</ele>
        <time>2023-08-30T12:26:09Z</time>
      </trkpt>
      <trkpt lat="46.42211" lon="5.54938">
        <ele>394.8</ele>
        <time>2023-08-30T12:26:10Z</time>
      </trkpt>
      <trkpt lat="46.42207" lon="5.54952">
        <ele>392.4</ele>
        <time>2023-08-30T12:26:11Z</time>
      </trkpt>
      <trkpt lat="46.42205" lon="5.54965">
        <ele>392.4</ele>
        <time>2023-08-30T12:26:12Z</time>
      </trkpt>
      <trkpt lat="46.42204" lon="5.54979">
        <ele>392.4</ele>
        <time>2023-08-30T12:26:13Z</time>
      </trkpt>
      <trkpt lat="46.42204" lon="5.54993">
        <ele>392.4</ele>
        <time>2023-08-30T12:26:14Z</time>
      </trkpt>
      <trkpt lat="46.42205" lon="5.55007">
        <ele>391.4</ele>
        <time>2023-08-30T12:26:15Z</time>
      </trkpt>
      <trkpt lat="46.42206" lon="5.5502">
        <ele>391.2</ele>
        <time>2023-08-30T12:26:16Z</time>
      </trkpt>
      <trkpt lat="46.42207" lon="5.55033">
        <ele>391.2</ele>
        <time>2023-08-30T12:26:17Z</time>
      </trkpt>
      <trkpt lat="46.42206" lon="5.55046">
        <ele>391.2</ele>
        <time>2023-08-30T12:26:18Z</time>
      </trkpt>
      <trkpt lat="46.42205" lon="5.55058">
        <ele>391.2</ele>
        <time>2023-08-30T12:26:19Z</time>
      </trkpt>
      <trkpt lat="46.42203" lon="5.55069">
        <ele>389.8</ele>
        <time>2023-08-30T12:26:20Z</time>
      </trkpt>
      <trkpt lat="46.42201" lon="5.55081">
        <ele>389.8</ele>
        <time>2023-08-30T12:26:21Z</time>
      </trkpt>
      <trkpt lat="46.42198" lon="5.55092">
        <ele>389.8</ele>
        <time>2023-08-30T12:26:22Z</time>
      </trkpt>
      <trkpt lat="46.42196" lon="5.55102">
        <ele>389.8</ele>
        <time>2023-08-30T12:26:23Z</time>
      </trkpt>
      <trkpt lat="46.42193" lon="5.55112">
        <ele>389.2</ele>
        <time>2023-08-30T12:26:24Z</time>
      </trkpt>
      <trkpt lat="46.4219" lon="5.55122">
        <ele>389</ele>
        <time>2023-08-30T12:26:25Z</time>
      </trkpt>
      <trkpt lat="46.42187" lon="5.55131">
        <ele>389</ele>
        <time>2023-08-30T12:26:26Z</time>
      </trkpt>
      <trkpt lat="46.42185" lon="5.55141">
        <ele>389</ele>
        <time>2023-08-30T12:26:27Z</time>
      </trkpt>
      <trkpt lat="46.42183" lon="5.5515">
        <ele>388.4</ele>
        <time>2023-08-30T12:26:28Z</time>
      </trkpt>
      <trkpt lat="46.4218" lon="5.55159">
        <ele>387.8</ele>
        <time>2023-08-30T12:26:29Z</time>
      </trkpt>
      <trkpt lat="46.42178" lon="5.55168">
        <ele>387.8</ele>
        <time>2023-08-30T12:26:30Z</time>
      </trkpt>
      <trkpt lat="46.42176" lon="5.55177">
        <ele>387.8</ele>
        <time>2023-08-30T12:26:31Z</time>
      </trkpt>
      <trkpt lat="46.42173" lon="5.55185">
        <ele>387.8</ele>
        <time>2023-08-30T12:26:32Z</time>
      </trkpt>
      <trkpt lat="46.42171" lon="5.55194">
        <ele>387.4</ele>
        <time>2023-08-30T12:26:33Z</time>
      </trkpt>
      <trkpt lat="46.42169" lon="5.55202">
        <ele>387.4</ele>
        <time>2023-08-30T12:26:34Z</time>
      </trkpt>
      <trkpt lat="46.42167" lon="5.55211">
        <ele>387.4</ele>
        <time>2023-08-30T12:26:35Z</time>
      </trkpt>
      <trkpt lat="46.42166" lon="5.55219">
        <ele>387.4</ele>
        <time>2023-08-30T12:26:36Z</time>
      </trkpt>
      <trkpt lat="46.42165" lon="5.55227">
        <ele>387.2</ele>
        <time>2023-08-30T12:26:37Z</time>
      </trkpt>
      <trkpt lat="46.42165" lon="5.55236">
        <ele>387</ele>
        <time>2023-08-30T12:26:38Z</time>
      </trkpt>
      <trkpt lat="46.42165" lon="5.55244">
        <ele>387</ele>
        <time>2023-08-30T12:26:39Z</time>
      </trkpt>
      <trkpt lat="46.42166" lon="5.55253">
        <ele>387</ele>
        <time>2023-08-30T12:26:40Z</time>
      </trkpt>
      <trkpt lat="46.42166" lon="5.55261">
        <ele>386.4</ele>
        <time>2023-08-30T12:26:41Z</time>
      </trkpt>
      <trkpt lat="46.42166" lon="5.55269">
        <ele>386.4</ele>
        <time>2023-08-30T12:26:42Z</time>
      </trkpt>
      <trkpt lat="46.42167" lon="5.55277">
        <ele>386.4</ele>
        <time>2023-08-30T12:26:43Z</time>
      </trkpt>
      <trkpt lat="46.42168" lon="5.55285">
        <ele>386.4</ele>
        <time>2023-08-30T12:26:44Z</time>
      </trkpt>
      <trkpt lat="46.42169" lon="5.55293">
        <ele>386.4</ele>
        <time>2023-08-30T12:26:45Z</time>
      </trkpt>
      <trkpt lat="46.42169" lon="5.55301">
        <ele>386.4</ele>
        <time>2023-08-30T12:26:46Z</time>
      </trkpt>
      <trkpt lat="46.4217" lon="5.55309">
        <ele>386.2</ele>
        <time>2023-08-30T12:26:47Z</time>
      </trkpt>
      <trkpt lat="46.42171" lon="5.55316">
        <ele>386.2</ele>
        <time>2023-08-30T12:26:48Z</time>
      </trkpt>
      <trkpt lat="46.42171" lon="5.55324">
        <ele>386.2</ele>
        <time>2023-08-30T12:26:49Z</time>
      </trkpt>
      <trkpt lat="46.42172" lon="5.55331">
        <ele>386.2</ele>
        <time>2023-08-30T12:26:50Z</time>
      </trkpt>
      <trkpt lat="46.42173" lon="5.55339">
        <ele>385.8</ele>
        <time>2023-08-30T12:26:51Z</time>
      </trkpt>
      <trkpt lat="46.42174" lon="5.55346">
        <ele>386</ele>
        <time>2023-08-30T12:26:52Z</time>
      </trkpt>
      <trkpt lat="46.42176" lon="5.55353">
        <ele>386</ele>
        <time>2023-08-30T12:26:53Z</time>
      </trkpt>
      <trkpt lat="46.42177" lon="5.5536">
        <ele>386</ele>
        <time>2023-08-30T12:26:54Z</time>
      </trkpt>
      <trkpt lat="46.42179" lon="5.55366">
        <ele>385.8</ele>
        <time>2023-08-30T12:26:55Z</time>
      </trkpt>
      <trkpt lat="46.42181" lon="5.55373">
        <ele>385.8</ele>
        <time>2023-08-30T12:26:56Z</time>
      </trkpt>
      <trkpt lat="46.42183" lon="5.5538">
        <ele>385.8</ele>
        <time>2023-08-30T12:26:57Z</time>
      </trkpt>
      <trkpt lat="46.42185" lon="5.55386">
        <ele>385.8</ele>
        <time>2023-08-30T12:26:58Z</time>
      </trkpt>
      <trkpt lat="46.42187" lon="5.55393">
        <ele>385.8</ele>
        <time>2023-08-30T12:26:59Z</time>
      </trkpt>
      <trkpt lat="46.42189" lon="5.554">
        <ele>385.8</ele>
        <time>2023-08-30T12:27:00Z</time>
      </trkpt>
      <trkpt lat="46.42191" lon="5.55406">
        <ele>385.8</ele>
        <time>2023-08-30T12:27:01Z</time>
      </trkpt>
      <trkpt lat="46.42193" lon="5.55413">
        <ele>385.8</ele>
        <time>2023-08-30T12:27:02Z</time>
      </trkpt>
      <trkpt lat="46.42194" lon="5.5542">
        <ele>385.8</ele>
        <time>2023-08-30T12:27:03Z</time>
      </trkpt>
      <trkpt lat="46.42195" lon="5.5543">
        <ele>385.8</ele>
        <time>2023-08-30T12:27:04Z</time>
      </trkpt>
      <trkpt lat="46.42195" lon="5.55433">
        <ele>385.4</ele>
        <time>2023-08-30T12:27:05Z</time>
      </trkpt>
      <trkpt lat="46.42195" lon="5.5544">
        <ele>385.4</ele>
        <time>2023-08-30T12:27:06Z</time>
      </trkpt>
      <trkpt lat="46.42196" lon="5.55446">
        <ele>385.4</ele>
        <time>2023-08-30T12:27:07Z</time>
      </trkpt>
      <trkpt lat="46.42196" lon="5.55452">
        <ele>385.4</ele>
        <time>2023-08-30T12:27:08Z</time>
      </trkpt>
      <trkpt lat="46.42197" lon="5.55459">
        <ele>385.4</ele>
        <time>2023-08-30T12:27:09Z</time>
      </trkpt>
      <trkpt lat="46.42197" lon="5.55465">
        <ele>385.4</ele>
        <time>2023-08-30T12:27:10Z</time>
      </trkpt>
      <trkpt lat="46.42197" lon="5.55471">
        <ele>385.4</ele>
        <time>2023-08-30T12:27:11Z</time>
      </trkpt>
      <trkpt lat="46.42196" lon="5.55477">
        <ele>385.4</ele>
        <time>2023-08-30T12:27:12Z</time>
      </trkpt>
      <trkpt lat="46.42194" lon="5.55481">
        <ele>385.4</ele>
        <time>2023-08-30T12:27:13Z</time>
      </trkpt>
      <trkpt lat="46.42191" lon="5.55484">
        <ele>385.4</ele>
        <time>2023-08-30T12:27:14Z</time>
      </trkpt>
      <trkpt lat="46.42188" lon="5.55487">
        <ele>385.4</ele>
        <time>2023-08-30T12:27:15Z</time>
      </trkpt>
      <trkpt lat="46.42185" lon="5.55487">
        <ele>385.4</ele>
        <time>2023-08-30T12:27:16Z</time>
      </trkpt>
      <trkpt lat="46.42181" lon="5.55487">
        <ele>385.4</ele>
        <time>2023-08-30T12:27:17Z</time>
      </trkpt>
      <trkpt lat="46.42177" lon="5.55486">
        <ele>385.4</ele>
        <time>2023-08-30T12:27:18Z</time>
      </trkpt>
      <trkpt lat="46.42173" lon="5.55485">
        <ele>385.4</ele>
        <time>2023-08-30T12:27:19Z</time>
      </trkpt>
      <trkpt lat="46.42169" lon="5.55484">
        <ele>385.4</ele>
        <time>2023-08-30T12:27:20Z</time>
      </trkpt>
      <trkpt lat="46.42165" lon="5.55483">
        <ele>385.4</ele>
        <time>2023-08-30T12:27:21Z</time>
      </trkpt>
      <trkpt lat="46.42161" lon="5.55482">
        <ele>385.4</ele>
        <time>2023-08-30T12:27:22Z</time>
      </trkpt>
      <trkpt lat="46.42157" lon="5.55481">
        <ele>385.4</ele>
        <time>2023-08-30T12:27:23Z</time>
      </trkpt>
      <trkpt lat="46.42152" lon="5.5548">
        <ele>385.4</ele>
        <time>2023-08-30T12:27:24Z</time>
      </trkpt>
      <trkpt lat="46.42148" lon="5.55479">
        <ele>385.4</ele>
        <time>2023-08-30T12:27:25Z</time>
      </trkpt>
      <trkpt lat="46.42144" lon="5.55478">
        <ele>385.2</ele>
        <time>2023-08-30T12:27:26Z</time>
      </trkpt>
      <trkpt lat="46.42139" lon="5.55477">
        <ele>385.2</ele>
        <time>2023-08-30T12:27:27Z</time>
      </trkpt>
      <trkpt lat="46.42135" lon="5.55476">
        <ele>385.2</ele>
        <time>2023-08-30T12:27:28Z</time>
      </trkpt>
      <trkpt lat="46.4213" lon="5.55476">
        <ele>385.2</ele>
        <time>2023-08-30T12:27:29Z</time>
      </trkpt>
      <trkpt lat="46.42126" lon="5.55475">
        <ele>385.2</ele>
        <time>2023-08-30T12:27:30Z</time>
      </trkpt>
      <trkpt lat="46.42121" lon="5.55474">
        <ele>385.2</ele>
        <time>2023-08-30T12:27:31Z</time>
      </trkpt>
      <trkpt lat="46.42117" lon="5.55472">
        <ele>385.2</ele>
        <time>2023-08-30T12:27:32Z</time>
      </trkpt>
      <trkpt lat="46.42112" lon="5.55471">
        <ele>385.2</ele>
        <time>2023-08-30T12:27:33Z</time>
      </trkpt>
      <trkpt lat="46.42107" lon="5.5547">
        <ele>385.2</ele>
        <time>2023-08-30T12:27:34Z</time>
      </trkpt>
      <trkpt lat="46.42103" lon="5.55469">
        <ele>385.2</ele>
        <time>2023-08-30T12:27:35Z</time>
      </trkpt>
      <trkpt lat="46.42098" lon="5.55467">
        <ele>385.2</ele>
        <time>2023-08-30T12:27:36Z</time>
      </trkpt>
      <trkpt lat="46.42093" lon="5.55466">
        <ele>385.2</ele>
        <time>2023-08-30T12:27:37Z</time>
      </trkpt>
      <trkpt lat="46.42088" lon="5.55464">
        <ele>385.2</ele>
        <time>2023-08-30T12:27:38Z</time>
      </trkpt>
      <trkpt lat="46.42084" lon="5.55463">
        <ele>385.2</ele>
        <time>2023-08-30T12:27:39Z</time>
      </trkpt>
      <trkpt lat="46.42079" lon="5.55462">
        <ele>385</ele>
        <time>2023-08-30T12:27:40Z</time>
      </trkpt>
      <trkpt lat="46.42074" lon="5.55461">
        <ele>385</ele>
        <time>2023-08-30T12:27:41Z</time>
      </trkpt>
      <trkpt lat="46.42069" lon="5.5546">
        <ele>384.8</ele>
        <time>2023-08-30T12:27:42Z</time>
      </trkpt>
      <trkpt lat="46.42064" lon="5.55459">
        <ele>384.8</ele>
        <time>2023-08-30T12:27:43Z</time>
      </trkpt>
      <trkpt lat="46.42059" lon="5.55458">
        <ele>384.8</ele>
        <time>2023-08-30T12:27:44Z</time>
      </trkpt>
      <trkpt lat="46.42055" lon="5.55456">
        <ele>384.8</ele>
        <time>2023-08-30T12:27:45Z</time>
      </trkpt>
      <trkpt lat="46.42049" lon="5.55455">
        <ele>384.8</ele>
        <time>2023-08-30T12:27:46Z</time>
      </trkpt>
      <trkpt lat="46.42044" lon="5.55454">
        <ele>384.8</ele>
        <time>2023-08-30T12:27:47Z</time>
      </trkpt>
      <trkpt lat="46.42037" lon="5.55452">
        <ele>384.8</ele>
        <time>2023-08-30T12:27:48Z</time>
      </trkpt>
      <trkpt lat="46.42034" lon="5.55451">
        <ele>384.8</ele>
        <time>2023-08-30T12:27:49Z</time>
      </trkpt>
      <trkpt lat="46.42027" lon="5.5545">
        <ele>384.8</ele>
        <time>2023-08-30T12:27:50Z</time>
      </trkpt>
      <trkpt lat="46.42024" lon="5.55449">
        <ele>384.8</ele>
        <time>2023-08-30T12:27:51Z</time>
      </trkpt>
      <trkpt lat="46.42019" lon="5.55448">
        <ele>384.8</ele>
        <time>2023-08-30T12:27:52Z</time>
      </trkpt>
      <trkpt lat="46.42014" lon="5.55446">
        <ele>384.8</ele>
        <time>2023-08-30T12:27:53Z</time>
      </trkpt>
      <trkpt lat="46.4201" lon="5.55445">
        <ele>384.8</ele>
        <time>2023-08-30T12:27:54Z</time>
      </trkpt>
      <trkpt lat="46.42005" lon="5.55444">
        <ele>384.6</ele>
        <time>2023-08-30T12:27:55Z</time>
      </trkpt>
      <trkpt lat="46.42" lon="5.55443">
        <ele>384.6</ele>
        <time>2023-08-30T12:27:56Z</time>
      </trkpt>
      <trkpt lat="46.41995" lon="5.55442">
        <ele>384.6</ele>
        <time>2023-08-30T12:27:57Z</time>
      </trkpt>
      <trkpt lat="46.4199" lon="5.5544">
        <ele>384.8</ele>
        <time>2023-08-30T12:27:58Z</time>
      </trkpt>
      <trkpt lat="46.41986" lon="5.55439">
        <ele>384.6</ele>
        <time>2023-08-30T12:27:59Z</time>
      </trkpt>
      <trkpt lat="46.41981" lon="5.55438">
        <ele>384.6</ele>
        <time>2023-08-30T12:28:00Z</time>
      </trkpt>
      <trkpt lat="46.41976" lon="5.55437">
        <ele>384.6</ele>
        <time>2023-08-30T12:28:01Z</time>
      </trkpt>
      <trkpt lat="46.41971" lon="5.55436">
        <ele>384.8</ele>
        <time>2023-08-30T12:28:02Z</time>
      </trkpt>
      <trkpt lat="46.41967" lon="5.55435">
        <ele>384.6</ele>
        <time>2023-08-30T12:28:03Z</time>
      </trkpt>
      <trkpt lat="46.41962" lon="5.55433">
        <ele>384.6</ele>
        <time>2023-08-30T12:28:04Z</time>
      </trkpt>
      <trkpt lat="46.41958" lon="5.55432">
        <ele>384.6</ele>
        <time>2023-08-30T12:28:05Z</time>
      </trkpt>
      <trkpt lat="46.41953" lon="5.5543">
        <ele>384.6</ele>
        <time>2023-08-30T12:28:06Z</time>
      </trkpt>
      <trkpt lat="46.41948" lon="5.55428">
        <ele>384.8</ele>
        <time>2023-08-30T12:28:07Z</time>
      </trkpt>
      <trkpt lat="46.41944" lon="5.55427">
        <ele>385</ele>
        <time>2023-08-30T12:28:08Z</time>
      </trkpt>
      <trkpt lat="46.41939" lon="5.55426">
        <ele>385</ele>
        <time>2023-08-30T12:28:09Z</time>
      </trkpt>
      <trkpt lat="46.41935" lon="5.55425">
        <ele>385</ele>
        <time>2023-08-30T12:28:10Z</time>
      </trkpt>
      <trkpt lat="46.41928" lon="5.55423">
        <ele>385</ele>
        <time>2023-08-30T12:28:11Z</time>
      </trkpt>
      <trkpt lat="46.41926" lon="5.55423">
        <ele>385</ele>
        <time>2023-08-30T12:28:12Z</time>
      </trkpt>
      <trkpt lat="46.41921" lon="5.55422">
        <ele>385</ele>
        <time>2023-08-30T12:28:13Z</time>
      </trkpt>
      <trkpt lat="46.41917" lon="5.55421">
        <ele>385</ele>
        <time>2023-08-30T12:28:14Z</time>
      </trkpt>
      <trkpt lat="46.41912" lon="5.55419">
        <ele>385</ele>
        <time>2023-08-30T12:28:15Z</time>
      </trkpt>
      <trkpt lat="46.41908" lon="5.55418">
        <ele>385</ele>
        <time>2023-08-30T12:28:16Z</time>
      </trkpt>
      <trkpt lat="46.41903" lon="5.55416">
        <ele>385</ele>
        <time>2023-08-30T12:28:17Z</time>
      </trkpt>
      <trkpt lat="46.41899" lon="5.55415">
        <ele>385</ele>
        <time>2023-08-30T12:28:18Z</time>
      </trkpt>
      <trkpt lat="46.41894" lon="5.55415">
        <ele>385</ele>
        <time>2023-08-30T12:28:19Z</time>
      </trkpt>
      <trkpt lat="46.41889" lon="5.55414">
        <ele>385</ele>
        <time>2023-08-30T12:28:20Z</time>
      </trkpt>
      <trkpt lat="46.41884" lon="5.55413">
        <ele>385</ele>
        <time>2023-08-30T12:28:21Z</time>
      </trkpt>
      <trkpt lat="46.41879" lon="5.55413">
        <ele>385</ele>
        <time>2023-08-30T12:28:22Z</time>
      </trkpt>
      <trkpt lat="46.41875" lon="5.55413">
        <ele>385</ele>
        <time>2023-08-30T12:28:23Z</time>
      </trkpt>
      <trkpt lat="46.4187" lon="5.55413">
        <ele>385</ele>
        <time>2023-08-30T12:28:24Z</time>
      </trkpt>
      <trkpt lat="46.41865" lon="5.55413">
        <ele>385</ele>
        <time>2023-08-30T12:28:25Z</time>
      </trkpt>
      <trkpt lat="46.4186" lon="5.55413">
        <ele>385</ele>
        <time>2023-08-30T12:28:26Z</time>
      </trkpt>
      <trkpt lat="46.41855" lon="5.55414">
        <ele>385</ele>
        <time>2023-08-30T12:28:27Z</time>
      </trkpt>
      <trkpt lat="46.4185" lon="5.55414">
        <ele>385</ele>
        <time>2023-08-30T12:28:28Z</time>
      </trkpt>
      <trkpt lat="46.41844" lon="5.55414">
        <ele>385</ele>
        <time>2023-08-30T12:28:29Z</time>
      </trkpt>
      <trkpt lat="46.41839" lon="5.55415">
        <ele>384.8</ele>
        <time>2023-08-30T12:28:30Z</time>
      </trkpt>
      <trkpt lat="46.41834" lon="5.55415">
        <ele>384.8</ele>
        <time>2023-08-30T12:28:31Z</time>
      </trkpt>
      <trkpt lat="46.41829" lon="5.55416">
        <ele>384.8</ele>
        <time>2023-08-30T12:28:32Z</time>
      </trkpt>
      <trkpt lat="46.41824" lon="5.55416">
        <ele>384.8</ele>
        <time>2023-08-30T12:28:33Z</time>
      </trkpt>
      <trkpt lat="46.41819" lon="5.55417">
        <ele>385</ele>
        <time>2023-08-30T12:28:34Z</time>
      </trkpt>
      <trkpt lat="46.41814" lon="5.55417">
        <ele>385</ele>
        <time>2023-08-30T12:28:35Z</time>
      </trkpt>
      <trkpt lat="46.41809" lon="5.55418">
        <ele>385</ele>
        <time>2023-08-30T12:28:36Z</time>
      </trkpt>
      <trkpt lat="46.41803" lon="5.55418">
        <ele>385</ele>
        <time>2023-08-30T12:28:37Z</time>
      </trkpt>
      <trkpt lat="46.41798" lon="5.55419">
        <ele>385</ele>
        <time>2023-08-30T12:28:38Z</time>
      </trkpt>
      <trkpt lat="46.41793" lon="5.5542">
        <ele>385</ele>
        <time>2023-08-30T12:28:39Z</time>
      </trkpt>
      <trkpt lat="46.41787" lon="5.5542">
        <ele>385</ele>
        <time>2023-08-30T12:28:40Z</time>
      </trkpt>
      <trkpt lat="46.41782" lon="5.55421">
        <ele>385</ele>
        <time>2023-08-30T12:28:41Z</time>
      </trkpt>
      <trkpt lat="46.41777" lon="5.55422">
        <ele>385</ele>
        <time>2023-08-30T12:28:42Z</time>
      </trkpt>
      <trkpt lat="46.41771" lon="5.55422">
        <ele>385</ele>
        <time>2023-08-30T12:28:43Z</time>
      </trkpt>
      <trkpt lat="46.41765" lon="5.55423">
        <ele>385</ele>
        <time>2023-08-30T12:28:44Z</time>
      </trkpt>
      <trkpt lat="46.4176" lon="5.55424">
        <ele>385</ele>
        <time>2023-08-30T12:28:45Z</time>
      </trkpt>
      <trkpt lat="46.41754" lon="5.55424">
        <ele>385</ele>
        <time>2023-08-30T12:28:46Z</time>
      </trkpt>
      <trkpt lat="46.41749" lon="5.55425">
        <ele>385</ele>
        <time>2023-08-30T12:28:47Z</time>
      </trkpt>
      <trkpt lat="46.41743" lon="5.55426">
        <ele>384.8</ele>
        <time>2023-08-30T12:28:48Z</time>
      </trkpt>
      <trkpt lat="46.41738" lon="5.55426">
        <ele>384.8</ele>
        <time>2023-08-30T12:28:49Z</time>
      </trkpt>
      <trkpt lat="46.41732" lon="5.55427">
        <ele>384.8</ele>
        <time>2023-08-30T12:28:50Z</time>
      </trkpt>
      <trkpt lat="46.41726" lon="5.55428">
        <ele>384.8</ele>
        <time>2023-08-30T12:28:51Z</time>
      </trkpt>
      <trkpt lat="46.4172" lon="5.55428">
        <ele>384.8</ele>
        <time>2023-08-30T12:28:52Z</time>
      </trkpt>
      <trkpt lat="46.41715" lon="5.55429">
        <ele>384.8</ele>
        <time>2023-08-30T12:28:53Z</time>
      </trkpt>
      <trkpt lat="46.41709" lon="5.55429">
        <ele>384.8</ele>
        <time>2023-08-30T12:28:54Z</time>
      </trkpt>
      <trkpt lat="46.41703" lon="5.5543">
        <ele>384.8</ele>
        <time>2023-08-30T12:28:55Z</time>
      </trkpt>
      <trkpt lat="46.41697" lon="5.5543">
        <ele>384.8</ele>
        <time>2023-08-30T12:28:56Z</time>
      </trkpt>
      <trkpt lat="46.41691" lon="5.55431">
        <ele>384.6</ele>
        <time>2023-08-30T12:28:57Z</time>
      </trkpt>
      <trkpt lat="46.41685" lon="5.55432">
        <ele>384.6</ele>
        <time>2023-08-30T12:28:58Z</time>
      </trkpt>
      <trkpt lat="46.41679" lon="5.55432">
        <ele>384.8</ele>
        <time>2023-08-30T12:28:59Z</time>
      </trkpt>
      <trkpt lat="46.41673" lon="5.55433">
        <ele>384.8</ele>
        <time>2023-08-30T12:29:00Z</time>
      </trkpt>
      <trkpt lat="46.41667" lon="5.55433">
        <ele>384.2</ele>
        <time>2023-08-30T12:29:01Z</time>
      </trkpt>
      <trkpt lat="46.41661" lon="5.55434">
        <ele>384.2</ele>
        <time>2023-08-30T12:29:02Z</time>
      </trkpt>
      <trkpt lat="46.41655" lon="5.55434">
        <ele>384</ele>
        <time>2023-08-30T12:29:03Z</time>
      </trkpt>
      <trkpt lat="46.41649" lon="5.55435">
        <ele>384</ele>
        <time>2023-08-30T12:29:04Z</time>
      </trkpt>
      <trkpt lat="46.41643" lon="5.55435">
        <ele>383.6</ele>
        <time>2023-08-30T12:29:05Z</time>
      </trkpt>
      <trkpt lat="46.41637" lon="5.55436">
        <ele>383.4</ele>
        <time>2023-08-30T12:29:06Z</time>
      </trkpt>
      <trkpt lat="46.41632" lon="5.55437">
        <ele>383.4</ele>
        <time>2023-08-30T12:29:07Z</time>
      </trkpt>
      <trkpt lat="46.41626" lon="5.55437">
        <ele>383.4</ele>
        <time>2023-08-30T12:29:08Z</time>
      </trkpt>
      <trkpt lat="46.4162" lon="5.55438">
        <ele>383.4</ele>
        <time>2023-08-30T12:29:09Z</time>
      </trkpt>
      <trkpt lat="46.41614" lon="5.55438">
        <ele>382.6</ele>
        <time>2023-08-30T12:29:10Z</time>
      </trkpt>
      <trkpt lat="46.41608" lon="5.55439">
        <ele>382.4</ele>
        <time>2023-08-30T12:29:11Z</time>
      </trkpt>
      <trkpt lat="46.41598" lon="5.5544">
        <ele>382.4</ele>
        <time>2023-08-30T12:29:12Z</time>
      </trkpt>
      <trkpt lat="46.41595" lon="5.5544">
        <ele>382.4</ele>
        <time>2023-08-30T12:29:13Z</time>
      </trkpt>
      <trkpt lat="46.41588" lon="5.55441">
        <ele>381.8</ele>
        <time>2023-08-30T12:29:14Z</time>
      </trkpt>
      <trkpt lat="46.41582" lon="5.55442">
        <ele>381.6</ele>
        <time>2023-08-30T12:29:15Z</time>
      </trkpt>
      <trkpt lat="46.41576" lon="5.55442">
        <ele>381.6</ele>
        <time>2023-08-30T12:29:16Z</time>
      </trkpt>
      <trkpt lat="46.41569" lon="5.55443">
        <ele>381.6</ele>
        <time>2023-08-30T12:29:17Z</time>
      </trkpt>
      <trkpt lat="46.41563" lon="5.55444">
        <ele>381.6</ele>
        <time>2023-08-30T12:29:18Z</time>
      </trkpt>
      <trkpt lat="46.41556" lon="5.55444">
        <ele>380.8</ele>
        <time>2023-08-30T12:29:19Z</time>
      </trkpt>
      <trkpt lat="46.4155" lon="5.55445">
        <ele>380.6</ele>
        <time>2023-08-30T12:29:20Z</time>
      </trkpt>
      <trkpt lat="46.41544" lon="5.55446">
        <ele>380.6</ele>
        <time>2023-08-30T12:29:21Z</time>
      </trkpt>
      <trkpt lat="46.41537" lon="5.55447">
        <ele>380.6</ele>
        <time>2023-08-30T12:29:22Z</time>
      </trkpt>
      <trkpt lat="46.41531" lon="5.55448">
        <ele>380</ele>
        <time>2023-08-30T12:29:23Z</time>
      </trkpt>
      <trkpt lat="46.41525" lon="5.55449">
        <ele>379.6</ele>
        <time>2023-08-30T12:29:24Z</time>
      </trkpt>
      <trkpt lat="46.41519" lon="5.5545">
        <ele>379.6</ele>
        <time>2023-08-30T12:29:25Z</time>
      </trkpt>
      <trkpt lat="46.41513" lon="5.5545">
        <ele>379.6</ele>
        <time>2023-08-30T12:29:26Z</time>
      </trkpt>
      <trkpt lat="46.41507" lon="5.55452">
        <ele>379.6</ele>
        <time>2023-08-30T12:29:27Z</time>
      </trkpt>
      <trkpt lat="46.41502" lon="5.55453">
        <ele>379</ele>
        <time>2023-08-30T12:29:28Z</time>
      </trkpt>
      <trkpt lat="46.41496" lon="5.55455">
        <ele>379</ele>
        <time>2023-08-30T12:29:29Z</time>
      </trkpt>
      <trkpt lat="46.41491" lon="5.55456">
        <ele>379</ele>
        <time>2023-08-30T12:29:30Z</time>
      </trkpt>
      <trkpt lat="46.41486" lon="5.55458">
        <ele>379</ele>
        <time>2023-08-30T12:29:31Z</time>
      </trkpt>
      <trkpt lat="46.41481" lon="5.5546">
        <ele>379</ele>
        <time>2023-08-30T12:29:32Z</time>
      </trkpt>
      <trkpt lat="46.41475" lon="5.55463">
        <ele>378.6</ele>
        <time>2023-08-30T12:29:33Z</time>
      </trkpt>
      <trkpt lat="46.4147" lon="5.55465">
        <ele>378.6</ele>
        <time>2023-08-30T12:29:34Z</time>
      </trkpt>
      <trkpt lat="46.41466" lon="5.55468">
        <ele>378.6</ele>
        <time>2023-08-30T12:29:35Z</time>
      </trkpt>
      <trkpt lat="46.41461" lon="5.55471">
        <ele>378</ele>
        <time>2023-08-30T12:29:36Z</time>
      </trkpt>
      <trkpt lat="46.41456" lon="5.55474">
        <ele>377.8</ele>
        <time>2023-08-30T12:29:37Z</time>
      </trkpt>
      <trkpt lat="46.41452" lon="5.55477">
        <ele>377.8</ele>
        <time>2023-08-30T12:29:38Z</time>
      </trkpt>
      <trkpt lat="46.41448" lon="5.55481">
        <ele>377.8</ele>
        <time>2023-08-30T12:29:39Z</time>
      </trkpt>
      <trkpt lat="46.41443" lon="5.55485">
        <ele>377.8</ele>
        <time>2023-08-30T12:29:40Z</time>
      </trkpt>
      <trkpt lat="46.4144" lon="5.55489">
        <ele>377.6</ele>
        <time>2023-08-30T12:29:41Z</time>
      </trkpt>
      <trkpt lat="46.41436" lon="5.55493">
        <ele>377.6</ele>
        <time>2023-08-30T12:29:42Z</time>
      </trkpt>
      <trkpt lat="46.41432" lon="5.55497">
        <ele>377.6</ele>
        <time>2023-08-30T12:29:43Z</time>
      </trkpt>
      <trkpt lat="46.41426" lon="5.55502">
        <ele>377.6</ele>
        <time>2023-08-30T12:29:44Z</time>
      </trkpt>
      <trkpt lat="46.41425" lon="5.55504">
        <ele>377.6</ele>
        <time>2023-08-30T12:29:45Z</time>
      </trkpt>
      <trkpt lat="46.41421" lon="5.55509">
        <ele>377.2</ele>
        <time>2023-08-30T12:29:46Z</time>
      </trkpt>
      <trkpt lat="46.41418" lon="5.55513">
        <ele>377.2</ele>
        <time>2023-08-30T12:29:47Z</time>
      </trkpt>
      <trkpt lat="46.41415" lon="5.55518">
        <ele>377.2</ele>
        <time>2023-08-30T12:29:48Z</time>
      </trkpt>
      <trkpt lat="46.41411" lon="5.55523">
        <ele>377.2</ele>
        <time>2023-08-30T12:29:49Z</time>
      </trkpt>
      <trkpt lat="46.41408" lon="5.55527">
        <ele>377.2</ele>
        <time>2023-08-30T12:29:50Z</time>
      </trkpt>
      <trkpt lat="46.41405" lon="5.55532">
        <ele>377.6</ele>
        <time>2023-08-30T12:29:51Z</time>
      </trkpt>
      <trkpt lat="46.41402" lon="5.55536">
        <ele>377.6</ele>
        <time>2023-08-30T12:29:52Z</time>
      </trkpt>
      <trkpt lat="46.414" lon="5.55541">
        <ele>377.6</ele>
        <time>2023-08-30T12:29:53Z</time>
      </trkpt>
      <trkpt lat="46.41397" lon="5.55546">
        <ele>378</ele>
        <time>2023-08-30T12:29:54Z</time>
      </trkpt>
      <trkpt lat="46.41395" lon="5.55551">
        <ele>378</ele>
        <time>2023-08-30T12:29:55Z</time>
      </trkpt>
      <trkpt lat="46.41393" lon="5.55556">
        <ele>378</ele>
        <time>2023-08-30T12:29:56Z</time>
      </trkpt>
      <trkpt lat="46.4139" lon="5.5556">
        <ele>378</ele>
        <time>2023-08-30T12:29:57Z</time>
      </trkpt>
      <trkpt lat="46.41388" lon="5.55565">
        <ele>378.6</ele>
        <time>2023-08-30T12:29:58Z</time>
      </trkpt>
      <trkpt lat="46.41386" lon="5.5557">
        <ele>378.6</ele>
        <time>2023-08-30T12:29:59Z</time>
      </trkpt>
      <trkpt lat="46.41385" lon="5.55575">
        <ele>378.8</ele>
        <time>2023-08-30T12:30:00Z</time>
      </trkpt>
      <trkpt lat="46.41383" lon="5.5558">
        <ele>378.8</ele>
        <time>2023-08-30T12:30:01Z</time>
      </trkpt>
      <trkpt lat="46.41381" lon="5.55584">
        <ele>378.8</ele>
        <time>2023-08-30T12:30:02Z</time>
      </trkpt>
      <trkpt lat="46.4138" lon="5.55589">
        <ele>379.4</ele>
        <time>2023-08-30T12:30:03Z</time>
      </trkpt>
      <trkpt lat="46.41378" lon="5.55594">
        <ele>379.4</ele>
        <time>2023-08-30T12:30:04Z</time>
      </trkpt>
      <trkpt lat="46.41377" lon="5.55599">
        <ele>379.4</ele>
        <time>2023-08-30T12:30:05Z</time>
      </trkpt>
      <trkpt lat="46.41376" lon="5.55604">
        <ele>379.4</ele>
        <time>2023-08-30T12:30:06Z</time>
      </trkpt>
      <trkpt lat="46.41375" lon="5.55609">
        <ele>380</ele>
        <time>2023-08-30T12:30:07Z</time>
      </trkpt>
      <trkpt lat="46.41373" lon="5.55613">
        <ele>380</ele>
        <time>2023-08-30T12:30:08Z</time>
      </trkpt>
      <trkpt lat="46.41372" lon="5.55618">
        <ele>380</ele>
        <time>2023-08-30T12:30:09Z</time>
      </trkpt>
      <trkpt lat="46.41371" lon="5.55622">
        <ele>380</ele>
        <time>2023-08-30T12:30:10Z</time>
      </trkpt>
      <trkpt lat="46.4137" lon="5.55626">
        <ele>380</ele>
        <time>2023-08-30T12:30:11Z</time>
      </trkpt>
      <trkpt lat="46.41369" lon="5.5563">
        <ele>380</ele>
        <time>2023-08-30T12:30:12Z</time>
      </trkpt>
      <trkpt lat="46.41369" lon="5.55633">
        <ele>380.6</ele>
        <time>2023-08-30T12:30:13Z</time>
      </trkpt>
      <trkpt lat="46.41368" lon="5.55634">
        <ele>380.6</ele>
        <time>2023-08-30T12:30:14Z</time>
      </trkpt>
      <trkpt lat="46.41368" lon="5.55635">
        <ele>380.6</ele>
        <time>2023-08-30T12:30:15Z</time>
      </trkpt>
      <trkpt lat="46.41368" lon="5.55639">
        <ele>383.2</ele>
        <time>2023-08-30T12:31:20Z</time>
      </trkpt>
      <trkpt lat="46.41368" lon="5.55642">
        <ele>383</ele>
        <time>2023-08-30T12:31:21Z</time>
      </trkpt>
      <trkpt lat="46.41369" lon="5.55645">
        <ele>383</ele>
        <time>2023-08-30T12:31:22Z</time>
      </trkpt>
      <trkpt lat="46.41368" lon="5.55648">
        <ele>383</ele>
        <time>2023-08-30T12:31:23Z</time>
      </trkpt>
      <trkpt lat="46.41367" lon="5.55652">
        <ele>382.4</ele>
        <time>2023-08-30T12:31:24Z</time>
      </trkpt>
      <trkpt lat="46.41367" lon="5.55656">
        <ele>382.4</ele>
        <time>2023-08-30T12:31:25Z</time>
      </trkpt>
      <trkpt lat="46.41367" lon="5.5566">
        <ele>382.2</ele>
        <time>2023-08-30T12:31:26Z</time>
      </trkpt>
      <trkpt lat="46.41367" lon="5.55664">
        <ele>382.2</ele>
        <time>2023-08-30T12:31:27Z</time>
      </trkpt>
      <trkpt lat="46.41367" lon="5.55668">
        <ele>381.6</ele>
        <time>2023-08-30T12:31:28Z</time>
      </trkpt>
      <trkpt lat="46.41366" lon="5.55673">
        <ele>381.6</ele>
        <time>2023-08-30T12:31:29Z</time>
      </trkpt>
      <trkpt lat="46.41366" lon="5.55677">
        <ele>381.6</ele>
        <time>2023-08-30T12:31:30Z</time>
      </trkpt>
      <trkpt lat="46.41366" lon="5.55682">
        <ele>381.6</ele>
        <time>2023-08-30T12:31:31Z</time>
      </trkpt>
      <trkpt lat="46.41366" lon="5.55686">
        <ele>381.6</ele>
        <time>2023-08-30T12:31:32Z</time>
      </trkpt>
      <trkpt lat="46.41366" lon="5.55691">
        <ele>380.8</ele>
        <time>2023-08-30T12:31:33Z</time>
      </trkpt>
      <trkpt lat="46.41366" lon="5.55696">
        <ele>380.8</ele>
        <time>2023-08-30T12:31:34Z</time>
      </trkpt>
      <trkpt lat="46.41366" lon="5.55701">
        <ele>380.8</ele>
        <time>2023-08-30T12:31:35Z</time>
      </trkpt>
      <trkpt lat="46.41366" lon="5.55705">
        <ele>380.8</ele>
        <time>2023-08-30T12:31:36Z</time>
      </trkpt>
      <trkpt lat="46.41366" lon="5.5571">
        <ele>380.4</ele>
        <time>2023-08-30T12:31:37Z</time>
      </trkpt>
      <trkpt lat="46.41366" lon="5.55716">
        <ele>380.2</ele>
        <time>2023-08-30T12:31:38Z</time>
      </trkpt>
      <trkpt lat="46.41366" lon="5.55721">
        <ele>380.2</ele>
        <time>2023-08-30T12:31:39Z</time>
      </trkpt>
      <trkpt lat="46.41366" lon="5.55726">
        <ele>380.2</ele>
        <time>2023-08-30T12:31:40Z</time>
      </trkpt>
      <trkpt lat="46.41366" lon="5.55731">
        <ele>379.8</ele>
        <time>2023-08-30T12:31:41Z</time>
      </trkpt>
      <trkpt lat="46.41366" lon="5.55736">
        <ele>379.6</ele>
        <time>2023-08-30T12:31:42Z</time>
      </trkpt>
      <trkpt lat="46.41366" lon="5.55741">
        <ele>379.6</ele>
        <time>2023-08-30T12:31:43Z</time>
      </trkpt>
      <trkpt lat="46.41366" lon="5.55746">
        <ele>379.6</ele>
        <time>2023-08-30T12:31:44Z</time>
      </trkpt>
      <trkpt lat="46.41366" lon="5.55751">
        <ele>379.6</ele>
        <time>2023-08-30T12:31:45Z</time>
      </trkpt>
      <trkpt lat="46.41367" lon="5.55756">
        <ele>379.6</ele>
        <time>2023-08-30T12:31:46Z</time>
      </trkpt>
      <trkpt lat="46.41367" lon="5.55761">
        <ele>379.6</ele>
        <time>2023-08-30T12:31:47Z</time>
      </trkpt>
      <trkpt lat="46.41367" lon="5.55766">
        <ele>379.4</ele>
        <time>2023-08-30T12:31:48Z</time>
      </trkpt>
      <trkpt lat="46.41367" lon="5.5577">
        <ele>379.4</ele>
        <time>2023-08-30T12:31:49Z</time>
      </trkpt>
      <trkpt lat="46.41367" lon="5.55775">
        <ele>379.4</ele>
        <time>2023-08-30T12:31:50Z</time>
      </trkpt>
      <trkpt lat="46.41367" lon="5.5578">
        <ele>379.2</ele>
        <time>2023-08-30T12:31:51Z</time>
      </trkpt>
      <trkpt lat="46.41367" lon="5.55785">
        <ele>379.2</ele>
        <time>2023-08-30T12:31:52Z</time>
      </trkpt>
      <trkpt lat="46.41367" lon="5.5579">
        <ele>379.2</ele>
        <time>2023-08-30T12:31:53Z</time>
      </trkpt>
      <trkpt lat="46.41367" lon="5.55795">
        <ele>379.2</ele>
        <time>2023-08-30T12:31:54Z</time>
      </trkpt>
      <trkpt lat="46.41367" lon="5.55799">
        <ele>379</ele>
        <time>2023-08-30T12:31:55Z</time>
      </trkpt>
      <trkpt lat="46.41367" lon="5.55804">
        <ele>379</ele>
        <time>2023-08-30T12:31:56Z</time>
      </trkpt>
      <trkpt lat="46.41367" lon="5.55809">
        <ele>379</ele>
        <time>2023-08-30T12:31:57Z</time>
      </trkpt>
      <trkpt lat="46.41367" lon="5.55814">
        <ele>379</ele>
        <time>2023-08-30T12:31:58Z</time>
      </trkpt>
      <trkpt lat="46.41367" lon="5.55818">
        <ele>379</ele>
        <time>2023-08-30T12:31:59Z</time>
      </trkpt>
      <trkpt lat="46.41367" lon="5.55823">
        <ele>379</ele>
        <time>2023-08-30T12:32:00Z</time>
      </trkpt>
      <trkpt lat="46.41366" lon="5.55828">
        <ele>379</ele>
        <time>2023-08-30T12:32:01Z</time>
      </trkpt>
      <trkpt lat="46.41366" lon="5.55832">
        <ele>379</ele>
        <time>2023-08-30T12:32:02Z</time>
      </trkpt>
      <trkpt lat="46.41366" lon="5.55837">
        <ele>379</ele>
        <time>2023-08-30T12:32:03Z</time>
      </trkpt>
      <trkpt lat="46.41365" lon="5.55842">
        <ele>379</ele>
        <time>2023-08-30T12:32:04Z</time>
      </trkpt>
      <trkpt lat="46.41365" lon="5.55847">
        <ele>378.8</ele>
        <time>2023-08-30T12:32:05Z</time>
      </trkpt>
      <trkpt lat="46.41364" lon="5.55852">
        <ele>378.8</ele>
        <time>2023-08-30T12:32:06Z</time>
      </trkpt>
      <trkpt lat="46.41363" lon="5.55857">
        <ele>378.8</ele>
        <time>2023-08-30T12:32:07Z</time>
      </trkpt>
      <trkpt lat="46.41363" lon="5.55862">
        <ele>378.8</ele>
        <time>2023-08-30T12:32:08Z</time>
      </trkpt>
      <trkpt lat="46.41362" lon="5.55867">
        <ele>378.6</ele>
        <time>2023-08-30T12:32:09Z</time>
      </trkpt>
      <trkpt lat="46.41361" lon="5.55871">
        <ele>378.6</ele>
        <time>2023-08-30T12:32:10Z</time>
      </trkpt>
      <trkpt lat="46.4136" lon="5.55876">
        <ele>378.6</ele>
        <time>2023-08-30T12:32:11Z</time>
      </trkpt>
      <trkpt lat="46.41359" lon="5.55881">
        <ele>379</ele>
        <time>2023-08-30T12:32:12Z</time>
      </trkpt>
      <trkpt lat="46.41358" lon="5.55886">
        <ele>379.2</ele>
        <time>2023-08-30T12:32:13Z</time>
      </trkpt>
      <trkpt lat="46.41357" lon="5.55891">
        <ele>379.2</ele>
        <time>2023-08-30T12:32:14Z</time>
      </trkpt>
      <trkpt lat="46.41356" lon="5.55896">
        <ele>379.2</ele>
        <time>2023-08-30T12:32:15Z</time>
      </trkpt>
      <trkpt lat="46.41354" lon="5.559">
        <ele>379.2</ele>
        <time>2023-08-30T12:32:16Z</time>
      </trkpt>
      <trkpt lat="46.41353" lon="5.55905">
        <ele>380.2</ele>
        <time>2023-08-30T12:32:17Z</time>
      </trkpt>
      <trkpt lat="46.41352" lon="5.5591">
        <ele>380.4</ele>
        <time>2023-08-30T12:32:18Z</time>
      </trkpt>
      <trkpt lat="46.41351" lon="5.55915">
        <ele>380.4</ele>
        <time>2023-08-30T12:32:19Z</time>
      </trkpt>
      <trkpt lat="46.4135" lon="5.55919">
        <ele>380.4</ele>
        <time>2023-08-30T12:32:20Z</time>
      </trkpt>
      <trkpt lat="46.41349" lon="5.55924">
        <ele>381.2</ele>
        <time>2023-08-30T12:32:21Z</time>
      </trkpt>
      <trkpt lat="46.41347" lon="5.55928">
        <ele>381.4</ele>
        <time>2023-08-30T12:32:22Z</time>
      </trkpt>
      <trkpt lat="46.41346" lon="5.55933">
        <ele>381.4</ele>
        <time>2023-08-30T12:32:23Z</time>
      </trkpt>
      <trkpt lat="46.41344" lon="5.55937">
        <ele>381.4</ele>
        <time>2023-08-30T12:32:24Z</time>
      </trkpt>
      <trkpt lat="46.41343" lon="5.55942">
        <ele>382.2</ele>
        <time>2023-08-30T12:32:25Z</time>
      </trkpt>
      <trkpt lat="46.41342" lon="5.55946">
        <ele>382.2</ele>
        <time>2023-08-30T12:32:26Z</time>
      </trkpt>
      <trkpt lat="46.41341" lon="5.55951">
        <ele>382.4</ele>
        <time>2023-08-30T12:32:27Z</time>
      </trkpt>
      <trkpt lat="46.41339" lon="5.55955">
        <ele>382.4</ele>
        <time>2023-08-30T12:32:28Z</time>
      </trkpt>
      <trkpt lat="46.41338" lon="5.5596">
        <ele>382.4</ele>
        <time>2023-08-30T12:32:29Z</time>
      </trkpt>
      <trkpt lat="46.41336" lon="5.55965">
        <ele>382.4</ele>
        <time>2023-08-30T12:32:30Z</time>
      </trkpt>
      <trkpt lat="46.41334" lon="5.55969">
        <ele>383</ele>
        <time>2023-08-30T12:32:31Z</time>
      </trkpt>
      <trkpt lat="46.41333" lon="5.55973">
        <ele>383</ele>
        <time>2023-08-30T12:32:32Z</time>
      </trkpt>
      <trkpt lat="46.41332" lon="5.55978">
        <ele>383</ele>
        <time>2023-08-30T12:32:33Z</time>
      </trkpt>
      <trkpt lat="46.4133" lon="5.55983">
        <ele>383</ele>
        <time>2023-08-30T12:32:34Z</time>
      </trkpt>
      <trkpt lat="46.41329" lon="5.55987">
        <ele>383</ele>
        <time>2023-08-30T12:32:35Z</time>
      </trkpt>
      <trkpt lat="46.41327" lon="5.55992">
        <ele>383.6</ele>
        <time>2023-08-30T12:32:36Z</time>
      </trkpt>
      <trkpt lat="46.41326" lon="5.55997">
        <ele>383.6</ele>
        <time>2023-08-30T12:32:37Z</time>
      </trkpt>
      <trkpt lat="46.41325" lon="5.56002">
        <ele>383.6</ele>
        <time>2023-08-30T12:32:38Z</time>
      </trkpt>
      <trkpt lat="46.41323" lon="5.56006">
        <ele>383.6</ele>
        <time>2023-08-30T12:32:39Z</time>
      </trkpt>
      <trkpt lat="46.41322" lon="5.56011">
        <ele>384.4</ele>
        <time>2023-08-30T12:32:40Z</time>
      </trkpt>
      <trkpt lat="46.4132" lon="5.56015">
        <ele>384.4</ele>
        <time>2023-08-30T12:32:41Z</time>
      </trkpt>
      <trkpt lat="46.41319" lon="5.5602">
        <ele>384.6</ele>
        <time>2023-08-30T12:32:42Z</time>
      </trkpt>
      <trkpt lat="46.41318" lon="5.56025">
        <ele>384.6</ele>
        <time>2023-08-30T12:32:43Z</time>
      </trkpt>
      <trkpt lat="46.41317" lon="5.5603">
        <ele>384.8</ele>
        <time>2023-08-30T12:32:44Z</time>
      </trkpt>
      <trkpt lat="46.41316" lon="5.56035">
        <ele>385</ele>
        <time>2023-08-30T12:32:45Z</time>
      </trkpt>
      <trkpt lat="46.41314" lon="5.5604">
        <ele>385</ele>
        <time>2023-08-30T12:32:46Z</time>
      </trkpt>
      <trkpt lat="46.41313" lon="5.56046">
        <ele>385</ele>
        <time>2023-08-30T12:32:47Z</time>
      </trkpt>
      <trkpt lat="46.41312" lon="5.56051">
        <ele>385.4</ele>
        <time>2023-08-30T12:32:48Z</time>
      </trkpt>
      <trkpt lat="46.41311" lon="5.56056">
        <ele>385.6</ele>
        <time>2023-08-30T12:32:49Z</time>
      </trkpt>
      <trkpt lat="46.41309" lon="5.56061">
        <ele>385.6</ele>
        <time>2023-08-30T12:32:50Z</time>
      </trkpt>
      <trkpt lat="46.41307" lon="5.56066">
        <ele>385.6</ele>
        <time>2023-08-30T12:32:51Z</time>
      </trkpt>
      <trkpt lat="46.41306" lon="5.56071">
        <ele>385.6</ele>
        <time>2023-08-30T12:32:52Z</time>
      </trkpt>
      <trkpt lat="46.41304" lon="5.56076">
        <ele>386.2</ele>
        <time>2023-08-30T12:32:53Z</time>
      </trkpt>
      <trkpt lat="46.41302" lon="5.56081">
        <ele>386.6</ele>
        <time>2023-08-30T12:32:54Z</time>
      </trkpt>
      <trkpt lat="46.413" lon="5.56086">
        <ele>386.6</ele>
        <time>2023-08-30T12:32:55Z</time>
      </trkpt>
      <trkpt lat="46.41299" lon="5.56091">
        <ele>386.6</ele>
        <time>2023-08-30T12:32:56Z</time>
      </trkpt>
      <trkpt lat="46.41297" lon="5.56097">
        <ele>387.4</ele>
        <time>2023-08-30T12:32:57Z</time>
      </trkpt>
      <trkpt lat="46.41296" lon="5.56102">
        <ele>387.8</ele>
        <time>2023-08-30T12:32:58Z</time>
      </trkpt>
      <trkpt lat="46.41294" lon="5.56108">
        <ele>387.8</ele>
        <time>2023-08-30T12:32:59Z</time>
      </trkpt>
      <trkpt lat="46.41292" lon="5.56113">
        <ele>387.8</ele>
        <time>2023-08-30T12:33:00Z</time>
      </trkpt>
      <trkpt lat="46.41291" lon="5.56119">
        <ele>387.8</ele>
        <time>2023-08-30T12:33:01Z</time>
      </trkpt>
      <trkpt lat="46.41289" lon="5.56124">
        <ele>388.8</ele>
        <time>2023-08-30T12:33:02Z</time>
      </trkpt>
      <trkpt lat="46.41286" lon="5.5613">
        <ele>388.8</ele>
        <time>2023-08-30T12:33:03Z</time>
      </trkpt>
      <trkpt lat="46.41284" lon="5.56136">
        <ele>388.8</ele>
        <time>2023-08-30T12:33:04Z</time>
      </trkpt>
      <trkpt lat="46.41282" lon="5.56142">
        <ele>388.8</ele>
        <time>2023-08-30T12:33:05Z</time>
      </trkpt>
      <trkpt lat="46.41281" lon="5.56149">
        <ele>388.8</ele>
        <time>2023-08-30T12:33:06Z</time>
      </trkpt>
      <trkpt lat="46.41279" lon="5.56155">
        <ele>389.8</ele>
        <time>2023-08-30T12:33:07Z</time>
      </trkpt>
      <trkpt lat="46.41277" lon="5.56161">
        <ele>389.6</ele>
        <time>2023-08-30T12:33:08Z</time>
      </trkpt>
      <trkpt lat="46.41275" lon="5.56167">
        <ele>389.6</ele>
        <time>2023-08-30T12:33:09Z</time>
      </trkpt>
      <trkpt lat="46.41272" lon="5.56173">
        <ele>389.6</ele>
        <time>2023-08-30T12:33:10Z</time>
      </trkpt>
      <trkpt lat="46.4127" lon="5.56179">
        <ele>390.6</ele>
        <time>2023-08-30T12:33:11Z</time>
      </trkpt>
      <trkpt lat="46.41268" lon="5.56186">
        <ele>391</ele>
        <time>2023-08-30T12:33:12Z</time>
      </trkpt>
      <trkpt lat="46.41265" lon="5.56192">
        <ele>391</ele>
        <time>2023-08-30T12:33:13Z</time>
      </trkpt>
      <trkpt lat="46.41262" lon="5.56197">
        <ele>391</ele>
        <time>2023-08-30T12:33:14Z</time>
      </trkpt>
      <trkpt lat="46.41259" lon="5.56203">
        <ele>392</ele>
        <time>2023-08-30T12:33:15Z</time>
      </trkpt>
      <trkpt lat="46.41256" lon="5.56208">
        <ele>392</ele>
        <time>2023-08-30T12:33:16Z</time>
      </trkpt>
      <trkpt lat="46.41253" lon="5.56214">
        <ele>392</ele>
        <time>2023-08-30T12:33:17Z</time>
      </trkpt>
      <trkpt lat="46.4125" lon="5.56218">
        <ele>392</ele>
        <time>2023-08-30T12:33:18Z</time>
      </trkpt>
      <trkpt lat="46.41247" lon="5.56223">
        <ele>392</ele>
        <time>2023-08-30T12:33:19Z</time>
      </trkpt>
      <trkpt lat="46.41243" lon="5.56228">
        <ele>392</ele>
        <time>2023-08-30T12:33:20Z</time>
      </trkpt>
      <trkpt lat="46.4124" lon="5.56232">
        <ele>393</ele>
        <time>2023-08-30T12:33:21Z</time>
      </trkpt>
      <trkpt lat="46.41236" lon="5.56236">
        <ele>393.2</ele>
        <time>2023-08-30T12:33:22Z</time>
      </trkpt>
      <trkpt lat="46.41232" lon="5.5624">
        <ele>393.2</ele>
        <time>2023-08-30T12:33:23Z</time>
      </trkpt>
      <trkpt lat="46.41229" lon="5.56243">
        <ele>393.2</ele>
        <time>2023-08-30T12:33:24Z</time>
      </trkpt>
      <trkpt lat="46.41225" lon="5.56247">
        <ele>393.8</ele>
        <time>2023-08-30T12:33:25Z</time>
      </trkpt>
      <trkpt lat="46.41221" lon="5.5625">
        <ele>394</ele>
        <time>2023-08-30T12:33:26Z</time>
      </trkpt>
      <trkpt lat="46.41218" lon="5.56253">
        <ele>394</ele>
        <time>2023-08-30T12:33:27Z</time>
      </trkpt>
      <trkpt lat="46.41214" lon="5.56256">
        <ele>394</ele>
        <time>2023-08-30T12:33:28Z</time>
      </trkpt>
      <trkpt lat="46.41211" lon="5.56259">
        <ele>394.8</ele>
        <time>2023-08-30T12:33:29Z</time>
      </trkpt>
      <trkpt lat="46.41207" lon="5.56262">
        <ele>394.8</ele>
        <time>2023-08-30T12:33:30Z</time>
      </trkpt>
      <trkpt lat="46.41203" lon="5.56264">
        <ele>395</ele>
        <time>2023-08-30T12:33:31Z</time>
      </trkpt>
      <trkpt lat="46.41199" lon="5.56266">
        <ele>395</ele>
        <time>2023-08-30T12:33:32Z</time>
      </trkpt>
      <trkpt lat="46.41195" lon="5.56268">
        <ele>395</ele>
        <time>2023-08-30T12:33:33Z</time>
      </trkpt>
      <trkpt lat="46.41192" lon="5.5627">
        <ele>395.6</ele>
        <time>2023-08-30T12:33:34Z</time>
      </trkpt>
      <trkpt lat="46.41188" lon="5.56271">
        <ele>395.6</ele>
        <time>2023-08-30T12:33:35Z</time>
      </trkpt>
      <trkpt lat="46.41184" lon="5.56273">
        <ele>395.6</ele>
        <time>2023-08-30T12:33:36Z</time>
      </trkpt>
      <trkpt lat="46.41181" lon="5.56274">
        <ele>395.6</ele>
        <time>2023-08-30T12:33:37Z</time>
      </trkpt>
      <trkpt lat="46.41177" lon="5.56275">
        <ele>395.6</ele>
        <time>2023-08-30T12:33:38Z</time>
      </trkpt>
      <trkpt lat="46.41174" lon="5.56276">
        <ele>395.6</ele>
        <time>2023-08-30T12:33:39Z</time>
      </trkpt>
      <trkpt lat="46.4117" lon="5.56276">
        <ele>396.6</ele>
        <time>2023-08-30T12:33:40Z</time>
      </trkpt>
      <trkpt lat="46.41167" lon="5.56277">
        <ele>396.6</ele>
        <time>2023-08-30T12:33:41Z</time>
      </trkpt>
      <trkpt lat="46.41164" lon="5.56278">
        <ele>396.6</ele>
        <time>2023-08-30T12:33:42Z</time>
      </trkpt>
      <trkpt lat="46.41161" lon="5.56277">
        <ele>397.4</ele>
        <time>2023-08-30T12:33:43Z</time>
      </trkpt>
      <trkpt lat="46.41158" lon="5.56277">
        <ele>397.4</ele>
        <time>2023-08-30T12:33:44Z</time>
      </trkpt>
      <trkpt lat="46.41155" lon="5.56277">
        <ele>397.4</ele>
        <time>2023-08-30T12:33:45Z</time>
      </trkpt>
      <trkpt lat="46.41151" lon="5.56278">
        <ele>397.4</ele>
        <time>2023-08-30T12:33:46Z</time>
      </trkpt>
      <trkpt lat="46.41147" lon="5.56277">
        <ele>398</ele>
        <time>2023-08-30T12:33:47Z</time>
      </trkpt>
      <trkpt lat="46.41144" lon="5.56277">
        <ele>398</ele>
        <time>2023-08-30T12:33:48Z</time>
      </trkpt>
      <trkpt lat="46.41141" lon="5.56276">
        <ele>398.2</ele>
        <time>2023-08-30T12:33:49Z</time>
      </trkpt>
      <trkpt lat="46.41138" lon="5.56276">
        <ele>398.2</ele>
        <time>2023-08-30T12:33:50Z</time>
      </trkpt>
      <trkpt lat="46.41135" lon="5.56275">
        <ele>398.2</ele>
        <time>2023-08-30T12:33:51Z</time>
      </trkpt>
      <trkpt lat="46.41132" lon="5.56275">
        <ele>398.8</ele>
        <time>2023-08-30T12:33:52Z</time>
      </trkpt>
      <trkpt lat="46.41129" lon="5.56275">
        <ele>399</ele>
        <time>2023-08-30T12:33:53Z</time>
      </trkpt>
      <trkpt lat="46.41126" lon="5.56274">
        <ele>399</ele>
        <time>2023-08-30T12:33:54Z</time>
      </trkpt>
      <trkpt lat="46.41123" lon="5.56274">
        <ele>399</ele>
        <time>2023-08-30T12:33:55Z</time>
      </trkpt>
      <trkpt lat="46.41119" lon="5.56274">
        <ele>399.6</ele>
        <time>2023-08-30T12:33:56Z</time>
      </trkpt>
      <trkpt lat="46.41116" lon="5.56273">
        <ele>399.8</ele>
        <time>2023-08-30T12:33:57Z</time>
      </trkpt>
      <trkpt lat="46.41113" lon="5.56273">
        <ele>399.8</ele>
        <time>2023-08-30T12:33:58Z</time>
      </trkpt>
      <trkpt lat="46.4111" lon="5.56272">
        <ele>399.8</ele>
        <time>2023-08-30T12:33:59Z</time>
      </trkpt>
      <trkpt lat="46.41107" lon="5.56272">
        <ele>399.8</ele>
        <time>2023-08-30T12:34:00Z</time>
      </trkpt>
      <trkpt lat="46.41104" lon="5.56271">
        <ele>400.4</ele>
        <time>2023-08-30T12:34:01Z</time>
      </trkpt>
      <trkpt lat="46.41102" lon="5.5627">
        <ele>400.6</ele>
        <time>2023-08-30T12:34:02Z</time>
      </trkpt>
      <trkpt lat="46.41099" lon="5.5627">
        <ele>400.6</ele>
        <time>2023-08-30T12:34:03Z</time>
      </trkpt>
      <trkpt lat="46.41096" lon="5.56269">
        <ele>400.6</ele>
        <time>2023-08-30T12:34:04Z</time>
      </trkpt>
      <trkpt lat="46.41093" lon="5.56268">
        <ele>401</ele>
        <time>2023-08-30T12:34:05Z</time>
      </trkpt>
      <trkpt lat="46.4109" lon="5.56267">
        <ele>401.4</ele>
        <time>2023-08-30T12:34:06Z</time>
      </trkpt>
      <trkpt lat="46.41088" lon="5.56267">
        <ele>401.4</ele>
        <time>2023-08-30T12:34:07Z</time>
      </trkpt>
      <trkpt lat="46.41085" lon="5.56266">
        <ele>401.4</ele>
        <time>2023-08-30T12:34:08Z</time>
      </trkpt>
      <trkpt lat="46.41082" lon="5.56266">
        <ele>402</ele>
        <time>2023-08-30T12:34:09Z</time>
      </trkpt>
      <trkpt lat="46.4108" lon="5.56266">
        <ele>402</ele>
        <time>2023-08-30T12:34:10Z</time>
      </trkpt>
      <trkpt lat="46.41077" lon="5.56266">
        <ele>402</ele>
        <time>2023-08-30T12:34:11Z</time>
      </trkpt>
      <trkpt lat="46.41074" lon="5.56265">
        <ele>402</ele>
        <time>2023-08-30T12:34:12Z</time>
      </trkpt>
      <trkpt lat="46.41071" lon="5.56265">
        <ele>402</ele>
        <time>2023-08-30T12:34:13Z</time>
      </trkpt>
      <trkpt lat="46.41068" lon="5.56265">
        <ele>402</ele>
        <time>2023-08-30T12:34:14Z</time>
      </trkpt>
      <trkpt lat="46.41065" lon="5.56265">
        <ele>402.6</ele>
        <time>2023-08-30T12:34:15Z</time>
      </trkpt>
      <trkpt lat="46.41062" lon="5.56265">
        <ele>402.6</ele>
        <time>2023-08-30T12:34:16Z</time>
      </trkpt>
      <trkpt lat="46.4106" lon="5.56265">
        <ele>402.6</ele>
        <time>2023-08-30T12:34:17Z</time>
      </trkpt>
      <trkpt lat="46.41057" lon="5.56266">
        <ele>402.6</ele>
        <time>2023-08-30T12:34:18Z</time>
      </trkpt>
      <trkpt lat="46.41054" lon="5.56266">
        <ele>403.4</ele>
        <time>2023-08-30T12:34:19Z</time>
      </trkpt>
      <trkpt lat="46.41051" lon="5.56266">
        <ele>403.4</ele>
        <time>2023-08-30T12:34:20Z</time>
      </trkpt>
      <trkpt lat="46.41048" lon="5.56267">
        <ele>403.4</ele>
        <time>2023-08-30T12:34:21Z</time>
      </trkpt>
      <trkpt lat="46.41045" lon="5.56267">
        <ele>403.4</ele>
        <time>2023-08-30T12:34:22Z</time>
      </trkpt>
      <trkpt lat="46.41043" lon="5.56268">
        <ele>403.4</ele>
        <time>2023-08-30T12:34:23Z</time>
      </trkpt>
      <trkpt lat="46.4104" lon="5.56269">
        <ele>404</ele>
        <time>2023-08-30T12:34:24Z</time>
      </trkpt>
      <trkpt lat="46.41037" lon="5.56269">
        <ele>404</ele>
        <time>2023-08-30T12:34:25Z</time>
      </trkpt>
      <trkpt lat="46.41034" lon="5.5627">
        <ele>404</ele>
        <time>2023-08-30T12:34:26Z</time>
      </trkpt>
      <trkpt lat="46.41032" lon="5.5627">
        <ele>404</ele>
        <time>2023-08-30T12:34:27Z</time>
      </trkpt>
      <trkpt lat="46.41029" lon="5.56271">
        <ele>404.8</ele>
        <time>2023-08-30T12:34:28Z</time>
      </trkpt>
      <trkpt lat="46.41026" lon="5.56272">
        <ele>404.8</ele>
        <time>2023-08-30T12:34:29Z</time>
      </trkpt>
      <trkpt lat="46.41024" lon="5.56274">
        <ele>404.8</ele>
        <time>2023-08-30T12:34:30Z</time>
      </trkpt>
      <trkpt lat="46.41021" lon="5.56275">
        <ele>404.8</ele>
        <time>2023-08-30T12:34:31Z</time>
      </trkpt>
      <trkpt lat="46.41019" lon="5.56276">
        <ele>405.4</ele>
        <time>2023-08-30T12:34:32Z</time>
      </trkpt>
      <trkpt lat="46.41016" lon="5.56277">
        <ele>405.4</ele>
        <time>2023-08-30T12:34:33Z</time>
      </trkpt>
      <trkpt lat="46.41013" lon="5.56278">
        <ele>405.4</ele>
        <time>2023-08-30T12:34:34Z</time>
      </trkpt>
      <trkpt lat="46.41011" lon="5.56279">
        <ele>405.4</ele>
        <time>2023-08-30T12:34:35Z</time>
      </trkpt>
      <trkpt lat="46.41008" lon="5.5628">
        <ele>405.4</ele>
        <time>2023-08-30T12:34:36Z</time>
      </trkpt>
      <trkpt lat="46.41006" lon="5.56281">
        <ele>406</ele>
        <time>2023-08-30T12:34:37Z</time>
      </trkpt>
      <trkpt lat="46.41004" lon="5.56283">
        <ele>406.4</ele>
        <time>2023-08-30T12:34:38Z</time>
      </trkpt>
      <trkpt lat="46.41001" lon="5.56284">
        <ele>406.4</ele>
        <time>2023-08-30T12:34:39Z</time>
      </trkpt>
      <trkpt lat="46.40999" lon="5.56285">
        <ele>406.4</ele>
        <time>2023-08-30T12:34:40Z</time>
      </trkpt>
      <trkpt lat="46.40996" lon="5.56286">
        <ele>406.6</ele>
        <time>2023-08-30T12:34:41Z</time>
      </trkpt>
      <trkpt lat="46.40993" lon="5.56288">
        <ele>407</ele>
        <time>2023-08-30T12:34:42Z</time>
      </trkpt>
      <trkpt lat="46.4099" lon="5.56289">
        <ele>407</ele>
        <time>2023-08-30T12:34:43Z</time>
      </trkpt>
      <trkpt lat="46.40988" lon="5.5629">
        <ele>407</ele>
        <time>2023-08-30T12:34:44Z</time>
      </trkpt>
      <trkpt lat="46.40985" lon="5.56291">
        <ele>407</ele>
        <time>2023-08-30T12:34:45Z</time>
      </trkpt>
      <trkpt lat="46.40982" lon="5.56292">
        <ele>407.4</ele>
        <time>2023-08-30T12:34:46Z</time>
      </trkpt>
      <trkpt lat="46.4098" lon="5.56294">
        <ele>407.6</ele>
        <time>2023-08-30T12:34:47Z</time>
      </trkpt>
      <trkpt lat="46.40977" lon="5.56295">
        <ele>407.6</ele>
        <time>2023-08-30T12:34:48Z</time>
      </trkpt>
      <trkpt lat="46.40975" lon="5.56297">
        <ele>407.6</ele>
        <time>2023-08-30T12:34:49Z</time>
      </trkpt>
      <trkpt lat="46.40972" lon="5.56298">
        <ele>408.2</ele>
        <time>2023-08-30T12:34:50Z</time>
      </trkpt>
      <trkpt lat="46.40969" lon="5.56299">
        <ele>408.4</ele>
        <time>2023-08-30T12:34:51Z</time>
      </trkpt>
      <trkpt lat="46.40967" lon="5.563">
        <ele>408.4</ele>
        <time>2023-08-30T12:34:52Z</time>
      </trkpt>
      <trkpt lat="46.40964" lon="5.56302">
        <ele>408.4</ele>
        <time>2023-08-30T12:34:53Z</time>
      </trkpt>
      <trkpt lat="46.40961" lon="5.56303">
        <ele>408.8</ele>
        <time>2023-08-30T12:34:54Z</time>
      </trkpt>
      <trkpt lat="46.40959" lon="5.56304">
        <ele>409.2</ele>
        <time>2023-08-30T12:34:55Z</time>
      </trkpt>
      <trkpt lat="46.40956" lon="5.56306">
        <ele>409.2</ele>
        <time>2023-08-30T12:34:56Z</time>
      </trkpt>
      <trkpt lat="46.40953" lon="5.56307">
        <ele>409.2</ele>
        <time>2023-08-30T12:34:57Z</time>
      </trkpt>
      <trkpt lat="46.40951" lon="5.56308">
        <ele>409.2</ele>
        <time>2023-08-30T12:34:58Z</time>
      </trkpt>
      <trkpt lat="46.40948" lon="5.56309">
        <ele>409.2</ele>
        <time>2023-08-30T12:34:59Z</time>
      </trkpt>
      <trkpt lat="46.40945" lon="5.56311">
        <ele>409.6</ele>
        <time>2023-08-30T12:35:00Z</time>
      </trkpt>
      <trkpt lat="46.40943" lon="5.56312">
        <ele>409.8</ele>
        <time>2023-08-30T12:35:01Z</time>
      </trkpt>
      <trkpt lat="46.4094" lon="5.56313">
        <ele>409.8</ele>
        <time>2023-08-30T12:35:02Z</time>
      </trkpt>
      <trkpt lat="46.40938" lon="5.56315">
        <ele>409.8</ele>
        <time>2023-08-30T12:35:03Z</time>
      </trkpt>
      <trkpt lat="46.40935" lon="5.56316">
        <ele>410.2</ele>
        <time>2023-08-30T12:35:04Z</time>
      </trkpt>
      <trkpt lat="46.40933" lon="5.56317">
        <ele>410.4</ele>
        <time>2023-08-30T12:35:05Z</time>
      </trkpt>
      <trkpt lat="46.4093" lon="5.56318">
        <ele>410.4</ele>
        <time>2023-08-30T12:35:06Z</time>
      </trkpt>
      <trkpt lat="46.40928" lon="5.56319">
        <ele>410.4</ele>
        <time>2023-08-30T12:35:07Z</time>
      </trkpt>
      <trkpt lat="46.40925" lon="5.56321">
        <ele>411</ele>
        <time>2023-08-30T12:35:08Z</time>
      </trkpt>
      <trkpt lat="46.40923" lon="5.56322">
        <ele>411</ele>
        <time>2023-08-30T12:35:09Z</time>
      </trkpt>
      <trkpt lat="46.4092" lon="5.56323">
        <ele>411.2</ele>
        <time>2023-08-30T12:35:10Z</time>
      </trkpt>
      <trkpt lat="46.40918" lon="5.56325">
        <ele>411.2</ele>
        <time>2023-08-30T12:35:11Z</time>
      </trkpt>
      <trkpt lat="46.40915" lon="5.56326">
        <ele>411.2</ele>
        <time>2023-08-30T12:35:12Z</time>
      </trkpt>
      <trkpt lat="46.40912" lon="5.56327">
        <ele>411.4</ele>
        <time>2023-08-30T12:35:13Z</time>
      </trkpt>
      <trkpt lat="46.4091" lon="5.56329">
        <ele>411.6</ele>
        <time>2023-08-30T12:35:14Z</time>
      </trkpt>
      <trkpt lat="46.40907" lon="5.5633">
        <ele>411.6</ele>
        <time>2023-08-30T12:35:15Z</time>
      </trkpt>
      <trkpt lat="46.40904" lon="5.56331">
        <ele>411.6</ele>
        <time>2023-08-30T12:35:16Z</time>
      </trkpt>
      <trkpt lat="46.40902" lon="5.56332">
        <ele>412.2</ele>
        <time>2023-08-30T12:35:17Z</time>
      </trkpt>
      <trkpt lat="46.40899" lon="5.56333">
        <ele>412.2</ele>
        <time>2023-08-30T12:35:18Z</time>
      </trkpt>
      <trkpt lat="46.40896" lon="5.56335">
        <ele>412.4</ele>
        <time>2023-08-30T12:35:19Z</time>
      </trkpt>
      <trkpt lat="46.40894" lon="5.56336">
        <ele>412.4</ele>
        <time>2023-08-30T12:35:20Z</time>
      </trkpt>
      <trkpt lat="46.40892" lon="5.56337">
        <ele>412.8</ele>
        <time>2023-08-30T12:35:21Z</time>
      </trkpt>
      <trkpt lat="46.40889" lon="5.56339">
        <ele>412.8</ele>
        <time>2023-08-30T12:35:22Z</time>
      </trkpt>
      <trkpt lat="46.40886" lon="5.5634">
        <ele>413</ele>
        <time>2023-08-30T12:35:23Z</time>
      </trkpt>
      <trkpt lat="46.40884" lon="5.56341">
        <ele>413</ele>
        <time>2023-08-30T12:35:24Z</time>
      </trkpt>
      <trkpt lat="46.40882" lon="5.56342">
        <ele>413</ele>
        <time>2023-08-30T12:35:25Z</time>
      </trkpt>
      <trkpt lat="46.40879" lon="5.56343">
        <ele>413</ele>
        <time>2023-08-30T12:35:26Z</time>
      </trkpt>
      <trkpt lat="46.40876" lon="5.56344">
        <ele>413.6</ele>
        <time>2023-08-30T12:35:27Z</time>
      </trkpt>
      <trkpt lat="46.40874" lon="5.56346">
        <ele>413.6</ele>
        <time>2023-08-30T12:35:28Z</time>
      </trkpt>
      <trkpt lat="46.40871" lon="5.56347">
        <ele>413.6</ele>
        <time>2023-08-30T12:35:29Z</time>
      </trkpt>
      <trkpt lat="46.40869" lon="5.56349">
        <ele>414.2</ele>
        <time>2023-08-30T12:35:30Z</time>
      </trkpt>
      <trkpt lat="46.40866" lon="5.5635">
        <ele>414.2</ele>
        <time>2023-08-30T12:35:31Z</time>
      </trkpt>
      <trkpt lat="46.40864" lon="5.56351">
        <ele>414.2</ele>
        <time>2023-08-30T12:35:32Z</time>
      </trkpt>
      <trkpt lat="46.40862" lon="5.56353">
        <ele>414.2</ele>
        <time>2023-08-30T12:35:33Z</time>
      </trkpt>
      <trkpt lat="46.40859" lon="5.56355">
        <ele>414.2</ele>
        <time>2023-08-30T12:35:34Z</time>
      </trkpt>
      <trkpt lat="46.40857" lon="5.56356">
        <ele>414.8</ele>
        <time>2023-08-30T12:35:35Z</time>
      </trkpt>
      <trkpt lat="46.40854" lon="5.56358">
        <ele>415</ele>
        <time>2023-08-30T12:35:36Z</time>
      </trkpt>
      <trkpt lat="46.40852" lon="5.5636">
        <ele>415</ele>
        <time>2023-08-30T12:35:37Z</time>
      </trkpt>
      <trkpt lat="46.4085" lon="5.56362">
        <ele>415</ele>
        <time>2023-08-30T12:35:38Z</time>
      </trkpt>
      <trkpt lat="46.40847" lon="5.56363">
        <ele>415</ele>
        <time>2023-08-30T12:35:39Z</time>
      </trkpt>
      <trkpt lat="46.40845" lon="5.56365">
        <ele>415.6</ele>
        <time>2023-08-30T12:35:40Z</time>
      </trkpt>
      <trkpt lat="46.40843" lon="5.56367">
        <ele>415.6</ele>
        <time>2023-08-30T12:35:41Z</time>
      </trkpt>
      <trkpt lat="46.4084" lon="5.56369">
        <ele>415.6</ele>
        <time>2023-08-30T12:35:42Z</time>
      </trkpt>
      <trkpt lat="46.40838" lon="5.56371">
        <ele>415.6</ele>
        <time>2023-08-30T12:35:43Z</time>
      </trkpt>
      <trkpt lat="46.40835" lon="5.56373">
        <ele>416.2</ele>
        <time>2023-08-30T12:35:44Z</time>
      </trkpt>
      <trkpt lat="46.40833" lon="5.56375">
        <ele>416.2</ele>
        <time>2023-08-30T12:35:45Z</time>
      </trkpt>
      <trkpt lat="46.4083" lon="5.56377">
        <ele>416.4</ele>
        <time>2023-08-30T12:35:46Z</time>
      </trkpt>
      <trkpt lat="46.40828" lon="5.5638">
        <ele>416.4</ele>
        <time>2023-08-30T12:35:47Z</time>
      </trkpt>
      <trkpt lat="46.40826" lon="5.56382">
        <ele>416.4</ele>
        <time>2023-08-30T12:35:48Z</time>
      </trkpt>
      <trkpt lat="46.40824" lon="5.56384">
        <ele>416.4</ele>
        <time>2023-08-30T12:35:49Z</time>
      </trkpt>
      <trkpt lat="46.40821" lon="5.56387">
        <ele>417.2</ele>
        <time>2023-08-30T12:35:50Z</time>
      </trkpt>
      <trkpt lat="46.40819" lon="5.56389">
        <ele>417.2</ele>
        <time>2023-08-30T12:35:51Z</time>
      </trkpt>
      <trkpt lat="46.40816" lon="5.56392">
        <ele>417.2</ele>
        <time>2023-08-30T12:35:52Z</time>
      </trkpt>
      <trkpt lat="46.40814" lon="5.56394">
        <ele>417.6</ele>
        <time>2023-08-30T12:35:53Z</time>
      </trkpt>
      <trkpt lat="46.40811" lon="5.56396">
        <ele>417.8</ele>
        <time>2023-08-30T12:35:54Z</time>
      </trkpt>
      <trkpt lat="46.40809" lon="5.56398">
        <ele>417.8</ele>
        <time>2023-08-30T12:35:55Z</time>
      </trkpt>
      <trkpt lat="46.40807" lon="5.564">
        <ele>417.8</ele>
        <time>2023-08-30T12:35:56Z</time>
      </trkpt>
      <trkpt lat="46.40804" lon="5.56402">
        <ele>418.4</ele>
        <time>2023-08-30T12:35:57Z</time>
      </trkpt>
      <trkpt lat="46.40802" lon="5.56405">
        <ele>418.4</ele>
        <time>2023-08-30T12:35:58Z</time>
      </trkpt>
      <trkpt lat="46.408" lon="5.56407">
        <ele>418.6</ele>
        <time>2023-08-30T12:35:59Z</time>
      </trkpt>
      <trkpt lat="46.40798" lon="5.5641">
        <ele>418.6</ele>
        <time>2023-08-30T12:36:00Z</time>
      </trkpt>
      <trkpt lat="46.40796" lon="5.56412">
        <ele>418.6</ele>
        <time>2023-08-30T12:36:01Z</time>
      </trkpt>
      <trkpt lat="46.40793" lon="5.56414">
        <ele>419</ele>
        <time>2023-08-30T12:36:02Z</time>
      </trkpt>
      <trkpt lat="46.40791" lon="5.56417">
        <ele>419.2</ele>
        <time>2023-08-30T12:36:03Z</time>
      </trkpt>
      <trkpt lat="46.40789" lon="5.56419">
        <ele>419.2</ele>
        <time>2023-08-30T12:36:04Z</time>
      </trkpt>
      <trkpt lat="46.40786" lon="5.56421">
        <ele>419.2</ele>
        <time>2023-08-30T12:36:05Z</time>
      </trkpt>
      <trkpt lat="46.40784" lon="5.56423">
        <ele>419.4</ele>
        <time>2023-08-30T12:36:06Z</time>
      </trkpt>
      <trkpt lat="46.40782" lon="5.56425">
        <ele>419.8</ele>
        <time>2023-08-30T12:36:07Z</time>
      </trkpt>
      <trkpt lat="46.40779" lon="5.56427">
        <ele>419.8</ele>
        <time>2023-08-30T12:36:08Z</time>
      </trkpt>
      <trkpt lat="46.40777" lon="5.56429">
        <ele>419.8</ele>
        <time>2023-08-30T12:36:09Z</time>
      </trkpt>
      <trkpt lat="46.40775" lon="5.56431">
        <ele>419.8</ele>
        <time>2023-08-30T12:36:10Z</time>
      </trkpt>
      <trkpt lat="46.40772" lon="5.56432">
        <ele>420</ele>
        <time>2023-08-30T12:36:11Z</time>
      </trkpt>
      <trkpt lat="46.4077" lon="5.56434">
        <ele>420.2</ele>
        <time>2023-08-30T12:36:12Z</time>
      </trkpt>
      <trkpt lat="46.40767" lon="5.56436">
        <ele>420.2</ele>
        <time>2023-08-30T12:36:13Z</time>
      </trkpt>
      <trkpt lat="46.40765" lon="5.56438">
        <ele>420.2</ele>
        <time>2023-08-30T12:36:14Z</time>
      </trkpt>
      <trkpt lat="46.40762" lon="5.56439">
        <ele>420.2</ele>
        <time>2023-08-30T12:36:15Z</time>
      </trkpt>
      <trkpt lat="46.4076" lon="5.56441">
        <ele>420.6</ele>
        <time>2023-08-30T12:36:16Z</time>
      </trkpt>
      <trkpt lat="46.40757" lon="5.56442">
        <ele>420.6</ele>
        <time>2023-08-30T12:36:17Z</time>
      </trkpt>
      <trkpt lat="46.40754" lon="5.56444">
        <ele>420.6</ele>
        <time>2023-08-30T12:36:18Z</time>
      </trkpt>
      <trkpt lat="46.40751" lon="5.56445">
        <ele>420.6</ele>
        <time>2023-08-30T12:36:19Z</time>
      </trkpt>
      <trkpt lat="46.40748" lon="5.56447">
        <ele>421</ele>
        <time>2023-08-30T12:36:20Z</time>
      </trkpt>
      <trkpt lat="46.40745" lon="5.56448">
        <ele>421.2</ele>
        <time>2023-08-30T12:36:21Z</time>
      </trkpt>
      <trkpt lat="46.40742" lon="5.56449">
        <ele>421.2</ele>
        <time>2023-08-30T12:36:22Z</time>
      </trkpt>
      <trkpt lat="46.40739" lon="5.5645">
        <ele>421.2</ele>
        <time>2023-08-30T12:36:23Z</time>
      </trkpt>
      <trkpt lat="46.40737" lon="5.56451">
        <ele>421.2</ele>
        <time>2023-08-30T12:36:24Z</time>
      </trkpt>
      <trkpt lat="46.40734" lon="5.56452">
        <ele>421.6</ele>
        <time>2023-08-30T12:36:25Z</time>
      </trkpt>
      <trkpt lat="46.40731" lon="5.56453">
        <ele>422</ele>
        <time>2023-08-30T12:36:26Z</time>
      </trkpt>
      <trkpt lat="46.40728" lon="5.56453">
        <ele>422</ele>
        <time>2023-08-30T12:36:27Z</time>
      </trkpt>
      <trkpt lat="46.40725" lon="5.56454">
        <ele>422</ele>
        <time>2023-08-30T12:36:28Z</time>
      </trkpt>
      <trkpt lat="46.40722" lon="5.56454">
        <ele>422</ele>
        <time>2023-08-30T12:36:29Z</time>
      </trkpt>
      <trkpt lat="46.40719" lon="5.56455">
        <ele>422.4</ele>
        <time>2023-08-30T12:36:30Z</time>
      </trkpt>
      <trkpt lat="46.40717" lon="5.56456">
        <ele>422.6</ele>
        <time>2023-08-30T12:36:31Z</time>
      </trkpt>
      <trkpt lat="46.40714" lon="5.56457">
        <ele>422.6</ele>
        <time>2023-08-30T12:36:32Z</time>
      </trkpt>
      <trkpt lat="46.40711" lon="5.56458">
        <ele>422.6</ele>
        <time>2023-08-30T12:36:33Z</time>
      </trkpt>
      <trkpt lat="46.40708" lon="5.56458">
        <ele>423.2</ele>
        <time>2023-08-30T12:36:34Z</time>
      </trkpt>
      <trkpt lat="46.40705" lon="5.56459">
        <ele>423.4</ele>
        <time>2023-08-30T12:36:35Z</time>
      </trkpt>
      <trkpt lat="46.40702" lon="5.5646">
        <ele>423.4</ele>
        <time>2023-08-30T12:36:36Z</time>
      </trkpt>
      <trkpt lat="46.40699" lon="5.56461">
        <ele>423.4</ele>
        <time>2023-08-30T12:36:37Z</time>
      </trkpt>
      <trkpt lat="46.40697" lon="5.56461">
        <ele>423.4</ele>
        <time>2023-08-30T12:36:38Z</time>
      </trkpt>
      <trkpt lat="46.40694" lon="5.56462">
        <ele>423.8</ele>
        <time>2023-08-30T12:36:39Z</time>
      </trkpt>
      <trkpt lat="46.40691" lon="5.56462">
        <ele>424.2</ele>
        <time>2023-08-30T12:36:40Z</time>
      </trkpt>
      <trkpt lat="46.40688" lon="5.56462">
        <ele>424.2</ele>
        <time>2023-08-30T12:36:41Z</time>
      </trkpt>
      <trkpt lat="46.40685" lon="5.56462">
        <ele>424.2</ele>
        <time>2023-08-30T12:36:42Z</time>
      </trkpt>
      <trkpt lat="46.40682" lon="5.56462">
        <ele>424.6</ele>
        <time>2023-08-30T12:36:43Z</time>
      </trkpt>
      <trkpt lat="46.40679" lon="5.56461">
        <ele>424.6</ele>
        <time>2023-08-30T12:36:44Z</time>
      </trkpt>
      <trkpt lat="46.40676" lon="5.56461">
        <ele>424.6</ele>
        <time>2023-08-30T12:36:45Z</time>
      </trkpt>
      <trkpt lat="46.40673" lon="5.56461">
        <ele>424.6</ele>
        <time>2023-08-30T12:36:46Z</time>
      </trkpt>
      <trkpt lat="46.4067" lon="5.56461">
        <ele>425.4</ele>
        <time>2023-08-30T12:36:47Z</time>
      </trkpt>
      <trkpt lat="46.40667" lon="5.5646">
        <ele>425.4</ele>
        <time>2023-08-30T12:36:48Z</time>
      </trkpt>
      <trkpt lat="46.40664" lon="5.56459">
        <ele>425.4</ele>
        <time>2023-08-30T12:36:49Z</time>
      </trkpt>
      <trkpt lat="46.40661" lon="5.56458">
        <ele>425.4</ele>
        <time>2023-08-30T12:36:50Z</time>
      </trkpt>
      <trkpt lat="46.40659" lon="5.56458">
        <ele>425.4</ele>
        <time>2023-08-30T12:36:51Z</time>
      </trkpt>
      <trkpt lat="46.40656" lon="5.56457">
        <ele>426</ele>
        <time>2023-08-30T12:36:52Z</time>
      </trkpt>
      <trkpt lat="46.40653" lon="5.56456">
        <ele>426</ele>
        <time>2023-08-30T12:36:53Z</time>
      </trkpt>
      <trkpt lat="46.4065" lon="5.56455">
        <ele>426</ele>
        <time>2023-08-30T12:36:54Z</time>
      </trkpt>
      <trkpt lat="46.40648" lon="5.56454">
        <ele>426</ele>
        <time>2023-08-30T12:36:55Z</time>
      </trkpt>
      <trkpt lat="46.40645" lon="5.56453">
        <ele>426.6</ele>
        <time>2023-08-30T12:36:56Z</time>
      </trkpt>
      <trkpt lat="46.40642" lon="5.56451">
        <ele>426.8</ele>
        <time>2023-08-30T12:36:57Z</time>
      </trkpt>
      <trkpt lat="46.40639" lon="5.56449">
        <ele>426.8</ele>
        <time>2023-08-30T12:36:58Z</time>
      </trkpt>
      <trkpt lat="46.40637" lon="5.56448">
        <ele>426.8</ele>
        <time>2023-08-30T12:36:59Z</time>
      </trkpt>
      <trkpt lat="46.40634" lon="5.56447">
        <ele>427.4</ele>
        <time>2023-08-30T12:37:00Z</time>
      </trkpt>
      <trkpt lat="46.40631" lon="5.56446">
        <ele>427.6</ele>
        <time>2023-08-30T12:37:01Z</time>
      </trkpt>
      <trkpt lat="46.40629" lon="5.56444">
        <ele>427.6</ele>
        <time>2023-08-30T12:37:02Z</time>
      </trkpt>
      <trkpt lat="46.40626" lon="5.56443">
        <ele>427.6</ele>
        <time>2023-08-30T12:37:03Z</time>
      </trkpt>
      <trkpt lat="46.40623" lon="5.56441">
        <ele>427.6</ele>
        <time>2023-08-30T12:37:04Z</time>
      </trkpt>
      <trkpt lat="46.4062" lon="5.56439">
        <ele>428.2</ele>
        <time>2023-08-30T12:37:05Z</time>
      </trkpt>
      <trkpt lat="46.40617" lon="5.56437">
        <ele>428.2</ele>
        <time>2023-08-30T12:37:06Z</time>
      </trkpt>
      <trkpt lat="46.40614" lon="5.56435">
        <ele>428.4</ele>
        <time>2023-08-30T12:37:07Z</time>
      </trkpt>
      <trkpt lat="46.40611" lon="5.56433">
        <ele>428.4</ele>
        <time>2023-08-30T12:37:08Z</time>
      </trkpt>
      <trkpt lat="46.40608" lon="5.56431">
        <ele>428.4</ele>
        <time>2023-08-30T12:37:09Z</time>
      </trkpt>
      <trkpt lat="46.40606" lon="5.56429">
        <ele>428.6</ele>
        <time>2023-08-30T12:37:10Z</time>
      </trkpt>
      <trkpt lat="46.40603" lon="5.56426">
        <ele>429</ele>
        <time>2023-08-30T12:37:11Z</time>
      </trkpt>
      <trkpt lat="46.406" lon="5.56424">
        <ele>429</ele>
        <time>2023-08-30T12:37:12Z</time>
      </trkpt>
      <trkpt lat="46.40597" lon="5.56422">
        <ele>429</ele>
        <time>2023-08-30T12:37:13Z</time>
      </trkpt>
      <trkpt lat="46.40595" lon="5.5642">
        <ele>429.4</ele>
        <time>2023-08-30T12:37:14Z</time>
      </trkpt>
      <trkpt lat="46.40592" lon="5.56417">
        <ele>429.6</ele>
        <time>2023-08-30T12:37:15Z</time>
      </trkpt>
      <trkpt lat="46.4059" lon="5.56415">
        <ele>429.6</ele>
        <time>2023-08-30T12:37:16Z</time>
      </trkpt>
      <trkpt lat="46.40587" lon="5.56413">
        <ele>429.6</ele>
        <time>2023-08-30T12:37:17Z</time>
      </trkpt>
      <trkpt lat="46.40585" lon="5.56411">
        <ele>429.6</ele>
        <time>2023-08-30T12:37:18Z</time>
      </trkpt>
      <trkpt lat="46.40582" lon="5.56409">
        <ele>430</ele>
        <time>2023-08-30T12:37:19Z</time>
      </trkpt>
      <trkpt lat="46.4058" lon="5.56406">
        <ele>430.4</ele>
        <time>2023-08-30T12:37:20Z</time>
      </trkpt>
      <trkpt lat="46.40578" lon="5.56403">
        <ele>430.4</ele>
        <time>2023-08-30T12:37:21Z</time>
      </trkpt>
      <trkpt lat="46.40575" lon="5.56399">
        <ele>430.4</ele>
        <time>2023-08-30T12:37:22Z</time>
      </trkpt>
      <trkpt lat="46.40574" lon="5.56396">
        <ele>430.4</ele>
        <time>2023-08-30T12:37:23Z</time>
      </trkpt>
      <trkpt lat="46.40571" lon="5.56393">
        <ele>430.4</ele>
        <time>2023-08-30T12:37:24Z</time>
      </trkpt>
      <trkpt lat="46.40569" lon="5.5639">
        <ele>431</ele>
        <time>2023-08-30T12:37:25Z</time>
      </trkpt>
      <trkpt lat="46.40567" lon="5.56386">
        <ele>431</ele>
        <time>2023-08-30T12:37:26Z</time>
      </trkpt>
      <trkpt lat="46.40566" lon="5.56383">
        <ele>431</ele>
        <time>2023-08-30T12:37:27Z</time>
      </trkpt>
      <trkpt lat="46.40564" lon="5.56379">
        <ele>431.4</ele>
        <time>2023-08-30T12:37:28Z</time>
      </trkpt>
      <trkpt lat="46.40563" lon="5.56376">
        <ele>431.4</ele>
        <time>2023-08-30T12:37:29Z</time>
      </trkpt>
      <trkpt lat="46.40561" lon="5.56372">
        <ele>431.6</ele>
        <time>2023-08-30T12:37:30Z</time>
      </trkpt>
      <trkpt lat="46.40559" lon="5.56369">
        <ele>431.6</ele>
        <time>2023-08-30T12:37:31Z</time>
      </trkpt>
      <trkpt lat="46.40557" lon="5.56365">
        <ele>431.6</ele>
        <time>2023-08-30T12:37:32Z</time>
      </trkpt>
      <trkpt lat="46.40555" lon="5.56362">
        <ele>432</ele>
        <time>2023-08-30T12:37:33Z</time>
      </trkpt>
      <trkpt lat="46.40553" lon="5.56359">
        <ele>432.2</ele>
        <time>2023-08-30T12:37:34Z</time>
      </trkpt>
      <trkpt lat="46.40552" lon="5.56355">
        <ele>432.2</ele>
        <time>2023-08-30T12:37:35Z</time>
      </trkpt>
      <trkpt lat="46.4055" lon="5.56352">
        <ele>432.2</ele>
        <time>2023-08-30T12:37:36Z</time>
      </trkpt>
      <trkpt lat="46.40548" lon="5.56349">
        <ele>432.6</ele>
        <time>2023-08-30T12:37:37Z</time>
      </trkpt>
      <trkpt lat="46.40547" lon="5.56346">
        <ele>432.8</ele>
        <time>2023-08-30T12:37:38Z</time>
      </trkpt>
      <trkpt lat="46.40545" lon="5.56342">
        <ele>432.8</ele>
        <time>2023-08-30T12:37:39Z</time>
      </trkpt>
      <trkpt lat="46.40543" lon="5.56339">
        <ele>432.8</ele>
        <time>2023-08-30T12:37:40Z</time>
      </trkpt>
      <trkpt lat="46.4054" lon="5.56336">
        <ele>433.4</ele>
        <time>2023-08-30T12:37:41Z</time>
      </trkpt>
      <trkpt lat="46.40538" lon="5.56333">
        <ele>433.4</ele>
        <time>2023-08-30T12:37:42Z</time>
      </trkpt>
      <trkpt lat="46.40536" lon="5.5633">
        <ele>433.4</ele>
        <time>2023-08-30T12:37:43Z</time>
      </trkpt>
      <trkpt lat="46.40534" lon="5.56327">
        <ele>433.4</ele>
        <time>2023-08-30T12:37:44Z</time>
      </trkpt>
      <trkpt lat="46.40532" lon="5.56324">
        <ele>433.4</ele>
        <time>2023-08-30T12:37:45Z</time>
      </trkpt>
      <trkpt lat="46.4053" lon="5.56322">
        <ele>433.8</ele>
        <time>2023-08-30T12:37:46Z</time>
      </trkpt>
      <trkpt lat="46.40527" lon="5.56319">
        <ele>433.8</ele>
        <time>2023-08-30T12:37:47Z</time>
      </trkpt>
      <trkpt lat="46.40525" lon="5.56317">
        <ele>433.8</ele>
        <time>2023-08-30T12:37:48Z</time>
      </trkpt>
      <trkpt lat="46.40523" lon="5.56314">
        <ele>433.8</ele>
        <time>2023-08-30T12:37:49Z</time>
      </trkpt>
      <trkpt lat="46.4052" lon="5.56312">
        <ele>434.4</ele>
        <time>2023-08-30T12:37:50Z</time>
      </trkpt>
      <trkpt lat="46.40518" lon="5.56309">
        <ele>434.4</ele>
        <time>2023-08-30T12:37:51Z</time>
      </trkpt>
      <trkpt lat="46.40515" lon="5.56307">
        <ele>434.4</ele>
        <time>2023-08-30T12:37:52Z</time>
      </trkpt>
      <trkpt lat="46.40512" lon="5.56306">
        <ele>434.4</ele>
        <time>2023-08-30T12:37:53Z</time>
      </trkpt>
      <trkpt lat="46.4051" lon="5.56304">
        <ele>434.4</ele>
        <time>2023-08-30T12:37:54Z</time>
      </trkpt>
      <trkpt lat="46.40507" lon="5.56301">
        <ele>434.4</ele>
        <time>2023-08-30T12:37:55Z</time>
      </trkpt>
      <trkpt lat="46.40504" lon="5.563">
        <ele>435.2</ele>
        <time>2023-08-30T12:37:56Z</time>
      </trkpt>
      <trkpt lat="46.40501" lon="5.56298">
        <ele>435.2</ele>
        <time>2023-08-30T12:37:57Z</time>
      </trkpt>
      <trkpt lat="46.40499" lon="5.56297">
        <ele>435.2</ele>
        <time>2023-08-30T12:37:58Z</time>
      </trkpt>
      <trkpt lat="46.40496" lon="5.56296">
        <ele>435.2</ele>
        <time>2023-08-30T12:37:59Z</time>
      </trkpt>
      <trkpt lat="46.40493" lon="5.56294">
        <ele>435.6</ele>
        <time>2023-08-30T12:38:00Z</time>
      </trkpt>
      <trkpt lat="46.4049" lon="5.56293">
        <ele>435.6</ele>
        <time>2023-08-30T12:38:01Z</time>
      </trkpt>
      <trkpt lat="46.40487" lon="5.56292">
        <ele>435.6</ele>
        <time>2023-08-30T12:38:02Z</time>
      </trkpt>
      <trkpt lat="46.40484" lon="5.56292">
        <ele>435.6</ele>
        <time>2023-08-30T12:38:03Z</time>
      </trkpt>
      <trkpt lat="46.40481" lon="5.56291">
        <ele>436</ele>
        <time>2023-08-30T12:38:04Z</time>
      </trkpt>
      <trkpt lat="46.40478" lon="5.5629">
        <ele>436.2</ele>
        <time>2023-08-30T12:38:05Z</time>
      </trkpt>
      <trkpt lat="46.40475" lon="5.5629">
        <ele>436.2</ele>
        <time>2023-08-30T12:38:06Z</time>
      </trkpt>
      <trkpt lat="46.40472" lon="5.5629">
        <ele>436.2</ele>
        <time>2023-08-30T12:38:07Z</time>
      </trkpt>
      <trkpt lat="46.40468" lon="5.5629">
        <ele>436.2</ele>
        <time>2023-08-30T12:38:08Z</time>
      </trkpt>
      <trkpt lat="46.40465" lon="5.5629">
        <ele>436.6</ele>
        <time>2023-08-30T12:38:09Z</time>
      </trkpt>
      <trkpt lat="46.40462" lon="5.56291">
        <ele>436.6</ele>
        <time>2023-08-30T12:38:10Z</time>
      </trkpt>
      <trkpt lat="46.40459" lon="5.56291">
        <ele>436.8</ele>
        <time>2023-08-30T12:38:11Z</time>
      </trkpt>
      <trkpt lat="46.40456" lon="5.56291">
        <ele>436.8</ele>
        <time>2023-08-30T12:38:12Z</time>
      </trkpt>
      <trkpt lat="46.40453" lon="5.56292">
        <ele>436.8</ele>
        <time>2023-08-30T12:38:13Z</time>
      </trkpt>
      <trkpt lat="46.40449" lon="5.56293">
        <ele>437</ele>
        <time>2023-08-30T12:38:14Z</time>
      </trkpt>
      <trkpt lat="46.40446" lon="5.56293">
        <ele>436.8</ele>
        <time>2023-08-30T12:38:15Z</time>
      </trkpt>
      <trkpt lat="46.40443" lon="5.56294">
        <ele>436.8</ele>
        <time>2023-08-30T12:38:16Z</time>
      </trkpt>
      <trkpt lat="46.4044" lon="5.56294">
        <ele>436.8</ele>
        <time>2023-08-30T12:38:17Z</time>
      </trkpt>
      <trkpt lat="46.40437" lon="5.56295">
        <ele>437.2</ele>
        <time>2023-08-30T12:38:18Z</time>
      </trkpt>
      <trkpt lat="46.40434" lon="5.56296">
        <ele>437.4</ele>
        <time>2023-08-30T12:38:19Z</time>
      </trkpt>
      <trkpt lat="46.40431" lon="5.56296">
        <ele>437.4</ele>
        <time>2023-08-30T12:38:20Z</time>
      </trkpt>
      <trkpt lat="46.40428" lon="5.56297">
        <ele>437.4</ele>
        <time>2023-08-30T12:38:21Z</time>
      </trkpt>
      <trkpt lat="46.40425" lon="5.56298">
        <ele>438</ele>
        <time>2023-08-30T12:38:22Z</time>
      </trkpt>
      <trkpt lat="46.40422" lon="5.563">
        <ele>438.2</ele>
        <time>2023-08-30T12:38:23Z</time>
      </trkpt>
      <trkpt lat="46.40419" lon="5.56301">
        <ele>438.2</ele>
        <time>2023-08-30T12:38:24Z</time>
      </trkpt>
      <trkpt lat="46.40416" lon="5.56303">
        <ele>438.2</ele>
        <time>2023-08-30T12:38:25Z</time>
      </trkpt>
      <trkpt lat="46.40413" lon="5.56304">
        <ele>438.2</ele>
        <time>2023-08-30T12:38:26Z</time>
      </trkpt>
      <trkpt lat="46.4041" lon="5.56305">
        <ele>438.4</ele>
        <time>2023-08-30T12:38:27Z</time>
      </trkpt>
      <trkpt lat="46.40407" lon="5.56307">
        <ele>438.8</ele>
        <time>2023-08-30T12:38:28Z</time>
      </trkpt>
      <trkpt lat="46.40404" lon="5.56308">
        <ele>438.8</ele>
        <time>2023-08-30T12:38:29Z</time>
      </trkpt>
      <trkpt lat="46.40401" lon="5.5631">
        <ele>438.8</ele>
        <time>2023-08-30T12:38:30Z</time>
      </trkpt>
      <trkpt lat="46.40397" lon="5.56311">
        <ele>439</ele>
        <time>2023-08-30T12:38:31Z</time>
      </trkpt>
      <trkpt lat="46.40394" lon="5.56313">
        <ele>439.2</ele>
        <time>2023-08-30T12:38:32Z</time>
      </trkpt>
      <trkpt lat="46.40391" lon="5.56315">
        <ele>439.2</ele>
        <time>2023-08-30T12:38:33Z</time>
      </trkpt>
      <trkpt lat="46.40388" lon="5.56317">
        <ele>439.2</ele>
        <time>2023-08-30T12:38:34Z</time>
      </trkpt>
      <trkpt lat="46.40385" lon="5.56318">
        <ele>439.6</ele>
        <time>2023-08-30T12:38:35Z</time>
      </trkpt>
      <trkpt lat="46.40382" lon="5.5632">
        <ele>439.6</ele>
        <time>2023-08-30T12:38:36Z</time>
      </trkpt>
      <trkpt lat="46.40378" lon="5.56322">
        <ele>439.6</ele>
        <time>2023-08-30T12:38:37Z</time>
      </trkpt>
      <trkpt lat="46.40375" lon="5.56323">
        <ele>439.6</ele>
        <time>2023-08-30T12:38:38Z</time>
      </trkpt>
      <trkpt lat="46.40372" lon="5.56325">
        <ele>439.6</ele>
        <time>2023-08-30T12:38:39Z</time>
      </trkpt>
      <trkpt lat="46.40369" lon="5.56326">
        <ele>440.2</ele>
        <time>2023-08-30T12:38:40Z</time>
      </trkpt>
      <trkpt lat="46.40365" lon="5.56328">
        <ele>440.4</ele>
        <time>2023-08-30T12:38:41Z</time>
      </trkpt>
      <trkpt lat="46.40362" lon="5.5633">
        <ele>440.4</ele>
        <time>2023-08-30T12:38:42Z</time>
      </trkpt>
      <trkpt lat="46.40359" lon="5.56332">
        <ele>440.4</ele>
        <time>2023-08-30T12:38:43Z</time>
      </trkpt>
      <trkpt lat="46.40355" lon="5.56333">
        <ele>440.4</ele>
        <time>2023-08-30T12:38:44Z</time>
      </trkpt>
      <trkpt lat="46.40352" lon="5.56335">
        <ele>440.6</ele>
        <time>2023-08-30T12:38:45Z</time>
      </trkpt>
      <trkpt lat="46.40348" lon="5.56337">
        <ele>440.6</ele>
        <time>2023-08-30T12:38:46Z</time>
      </trkpt>
      <trkpt lat="46.40345" lon="5.56338">
        <ele>440.6</ele>
        <time>2023-08-30T12:38:47Z</time>
      </trkpt>
      <trkpt lat="46.40342" lon="5.5634">
        <ele>440.6</ele>
        <time>2023-08-30T12:38:48Z</time>
      </trkpt>
      <trkpt lat="46.40338" lon="5.56342">
        <ele>441</ele>
        <time>2023-08-30T12:38:49Z</time>
      </trkpt>
      <trkpt lat="46.40335" lon="5.56344">
        <ele>441</ele>
        <time>2023-08-30T12:38:50Z</time>
      </trkpt>
      <trkpt lat="46.40331" lon="5.56345">
        <ele>441</ele>
        <time>2023-08-30T12:38:51Z</time>
      </trkpt>
      <trkpt lat="46.40327" lon="5.56347">
        <ele>441</ele>
        <time>2023-08-30T12:38:52Z</time>
      </trkpt>
      <trkpt lat="46.40324" lon="5.56349">
        <ele>441</ele>
        <time>2023-08-30T12:38:53Z</time>
      </trkpt>
      <trkpt lat="46.4032" lon="5.5635">
        <ele>441.2</ele>
        <time>2023-08-30T12:38:54Z</time>
      </trkpt>
      <trkpt lat="46.40316" lon="5.56352">
        <ele>441.4</ele>
        <time>2023-08-30T12:38:55Z</time>
      </trkpt>
      <trkpt lat="46.40312" lon="5.56354">
        <ele>441.4</ele>
        <time>2023-08-30T12:38:56Z</time>
      </trkpt>
      <trkpt lat="46.40308" lon="5.56356">
        <ele>441.4</ele>
        <time>2023-08-30T12:38:57Z</time>
      </trkpt>
      <trkpt lat="46.40304" lon="5.56358">
        <ele>441.6</ele>
        <time>2023-08-30T12:38:58Z</time>
      </trkpt>
      <trkpt lat="46.403" lon="5.5636">
        <ele>441.6</ele>
        <time>2023-08-30T12:38:59Z</time>
      </trkpt>
      <trkpt lat="46.40296" lon="5.56362">
        <ele>441.6</ele>
        <time>2023-08-30T12:39:00Z</time>
      </trkpt>
      <trkpt lat="46.40292" lon="5.56364">
        <ele>441.6</ele>
        <time>2023-08-30T12:39:01Z</time>
      </trkpt>
      <trkpt lat="46.40288" lon="5.56365">
        <ele>441.6</ele>
        <time>2023-08-30T12:39:02Z</time>
      </trkpt>
      <trkpt lat="46.40284" lon="5.56367">
        <ele>442</ele>
        <time>2023-08-30T12:39:03Z</time>
      </trkpt>
      <trkpt lat="46.4028" lon="5.56369">
        <ele>442</ele>
        <time>2023-08-30T12:39:04Z</time>
      </trkpt>
      <trkpt lat="46.40275" lon="5.5637">
        <ele>442</ele>
        <time>2023-08-30T12:39:05Z</time>
      </trkpt>
      <trkpt lat="46.40271" lon="5.56372">
        <ele>442</ele>
        <time>2023-08-30T12:39:06Z</time>
      </trkpt>
      <trkpt lat="46.40267" lon="5.56373">
        <ele>442</ele>
        <time>2023-08-30T12:39:07Z</time>
      </trkpt>
      <trkpt lat="46.40263" lon="5.56375">
        <ele>442</ele>
        <time>2023-08-30T12:39:08Z</time>
      </trkpt>
      <trkpt lat="46.40259" lon="5.56376">
        <ele>442.2</ele>
        <time>2023-08-30T12:39:09Z</time>
      </trkpt>
      <trkpt lat="46.40255" lon="5.56378">
        <ele>442.2</ele>
        <time>2023-08-30T12:39:10Z</time>
      </trkpt>
      <trkpt lat="46.4025" lon="5.5638">
        <ele>442.4</ele>
        <time>2023-08-30T12:39:11Z</time>
      </trkpt>
      <trkpt lat="46.40246" lon="5.56381">
        <ele>442.4</ele>
        <time>2023-08-30T12:39:12Z</time>
      </trkpt>
      <trkpt lat="46.40242" lon="5.56382">
        <ele>442.4</ele>
        <time>2023-08-30T12:39:13Z</time>
      </trkpt>
      <trkpt lat="46.40238" lon="5.56383">
        <ele>442.4</ele>
        <time>2023-08-30T12:39:14Z</time>
      </trkpt>
      <trkpt lat="46.40233" lon="5.56384">
        <ele>442.4</ele>
        <time>2023-08-30T12:39:15Z</time>
      </trkpt>
      <trkpt lat="46.40229" lon="5.56385">
        <ele>442.4</ele>
        <time>2023-08-30T12:39:16Z</time>
      </trkpt>
      <trkpt lat="46.40225" lon="5.56386">
        <ele>442.6</ele>
        <time>2023-08-30T12:39:17Z</time>
      </trkpt>
      <trkpt lat="46.40221" lon="5.56387">
        <ele>442.6</ele>
        <time>2023-08-30T12:39:18Z</time>
      </trkpt>
      <trkpt lat="46.40217" lon="5.56388">
        <ele>442.6</ele>
        <time>2023-08-30T12:39:19Z</time>
      </trkpt>
      <trkpt lat="46.40213" lon="5.56389">
        <ele>442.8</ele>
        <time>2023-08-30T12:39:20Z</time>
      </trkpt>
      <trkpt lat="46.40209" lon="5.5639">
        <ele>442.8</ele>
        <time>2023-08-30T12:39:21Z</time>
      </trkpt>
      <trkpt lat="46.40206" lon="5.5639">
        <ele>442.8</ele>
        <time>2023-08-30T12:39:22Z</time>
      </trkpt>
      <trkpt lat="46.40202" lon="5.56391">
        <ele>442.8</ele>
        <time>2023-08-30T12:39:23Z</time>
      </trkpt>
      <trkpt lat="46.40198" lon="5.56392">
        <ele>443</ele>
        <time>2023-08-30T12:39:24Z</time>
      </trkpt>
      <trkpt lat="46.40194" lon="5.56393">
        <ele>443</ele>
        <time>2023-08-30T12:39:25Z</time>
      </trkpt>
      <trkpt lat="46.4019" lon="5.56394">
        <ele>443.4</ele>
        <time>2023-08-30T12:39:26Z</time>
      </trkpt>
      <trkpt lat="46.40186" lon="5.56395">
        <ele>443.4</ele>
        <time>2023-08-30T12:39:27Z</time>
      </trkpt>
      <trkpt lat="46.40182" lon="5.56396">
        <ele>443.4</ele>
        <time>2023-08-30T12:39:28Z</time>
      </trkpt>
      <trkpt lat="46.40179" lon="5.56397">
        <ele>443.4</ele>
        <time>2023-08-30T12:39:29Z</time>
      </trkpt>
      <trkpt lat="46.40175" lon="5.56398">
        <ele>443.8</ele>
        <time>2023-08-30T12:39:30Z</time>
      </trkpt>
      <trkpt lat="46.40171" lon="5.56398">
        <ele>443.8</ele>
        <time>2023-08-30T12:39:31Z</time>
      </trkpt>
      <trkpt lat="46.40167" lon="5.56399">
        <ele>443.8</ele>
        <time>2023-08-30T12:39:32Z</time>
      </trkpt>
      <trkpt lat="46.40163" lon="5.564">
        <ele>443.8</ele>
        <time>2023-08-30T12:39:33Z</time>
      </trkpt>
      <trkpt lat="46.40159" lon="5.564">
        <ele>443.8</ele>
        <time>2023-08-30T12:39:34Z</time>
      </trkpt>
      <trkpt lat="46.40155" lon="5.56401">
        <ele>443.8</ele>
        <time>2023-08-30T12:39:35Z</time>
      </trkpt>
      <trkpt lat="46.40152" lon="5.56402">
        <ele>443.8</ele>
        <time>2023-08-30T12:39:36Z</time>
      </trkpt>
      <trkpt lat="46.40148" lon="5.56403">
        <ele>443.8</ele>
        <time>2023-08-30T12:39:37Z</time>
      </trkpt>
      <trkpt lat="46.40144" lon="5.56404">
        <ele>443.8</ele>
        <time>2023-08-30T12:39:38Z</time>
      </trkpt>
      <trkpt lat="46.4014" lon="5.56404">
        <ele>444.4</ele>
        <time>2023-08-30T12:39:39Z</time>
      </trkpt>
      <trkpt lat="46.40136" lon="5.56405">
        <ele>444.4</ele>
        <time>2023-08-30T12:39:40Z</time>
      </trkpt>
      <trkpt lat="46.40133" lon="5.56406">
        <ele>444.4</ele>
        <time>2023-08-30T12:39:41Z</time>
      </trkpt>
      <trkpt lat="46.40129" lon="5.56407">
        <ele>444.4</ele>
        <time>2023-08-30T12:39:42Z</time>
      </trkpt>
      <trkpt lat="46.40125" lon="5.56407">
        <ele>444.4</ele>
        <time>2023-08-30T12:39:43Z</time>
      </trkpt>
      <trkpt lat="46.40121" lon="5.56408">
        <ele>444.4</ele>
        <time>2023-08-30T12:39:44Z</time>
      </trkpt>
      <trkpt lat="46.40118" lon="5.56409">
        <ele>444.6</ele>
        <time>2023-08-30T12:39:45Z</time>
      </trkpt>
      <trkpt lat="46.40114" lon="5.5641">
        <ele>444.6</ele>
        <time>2023-08-30T12:39:46Z</time>
      </trkpt>
      <trkpt lat="46.4011" lon="5.56411">
        <ele>445</ele>
        <time>2023-08-30T12:39:47Z</time>
      </trkpt>
      <trkpt lat="46.40107" lon="5.56411">
        <ele>445</ele>
        <time>2023-08-30T12:39:48Z</time>
      </trkpt>
      <trkpt lat="46.40103" lon="5.56412">
        <ele>445.2</ele>
        <time>2023-08-30T12:39:49Z</time>
      </trkpt>
      <trkpt lat="46.401" lon="5.56413">
        <ele>445.2</ele>
        <time>2023-08-30T12:39:50Z</time>
      </trkpt>
      <trkpt lat="46.40097" lon="5.56414">
        <ele>445.2</ele>
        <time>2023-08-30T12:39:51Z</time>
      </trkpt>
      <trkpt lat="46.40093" lon="5.56414">
        <ele>445.2</ele>
        <time>2023-08-30T12:39:52Z</time>
      </trkpt>
      <trkpt lat="46.4009" lon="5.56415">
        <ele>445.8</ele>
        <time>2023-08-30T12:39:53Z</time>
      </trkpt>
      <trkpt lat="46.40087" lon="5.56416">
        <ele>445.8</ele>
        <time>2023-08-30T12:39:54Z</time>
      </trkpt>
      <trkpt lat="46.40084" lon="5.56416">
        <ele>445.8</ele>
        <time>2023-08-30T12:39:55Z</time>
      </trkpt>
      <trkpt lat="46.40081" lon="5.56417">
        <ele>446</ele>
        <time>2023-08-30T12:39:56Z</time>
      </trkpt>
      <trkpt lat="46.40078" lon="5.56418">
        <ele>446</ele>
        <time>2023-08-30T12:39:57Z</time>
      </trkpt>
      <trkpt lat="46.40075" lon="5.56418">
        <ele>446.4</ele>
        <time>2023-08-30T12:39:58Z</time>
      </trkpt>
      <trkpt lat="46.40072" lon="5.56419">
        <ele>446.4</ele>
        <time>2023-08-30T12:39:59Z</time>
      </trkpt>
      <trkpt lat="46.4007" lon="5.56421">
        <ele>446.4</ele>
        <time>2023-08-30T12:40:00Z</time>
      </trkpt>
      <trkpt lat="46.40067" lon="5.56422">
        <ele>447</ele>
        <time>2023-08-30T12:40:01Z</time>
      </trkpt>
      <trkpt lat="46.40064" lon="5.56423">
        <ele>446.8</ele>
        <time>2023-08-30T12:40:02Z</time>
      </trkpt>
      <trkpt lat="46.40061" lon="5.56424">
        <ele>446.8</ele>
        <time>2023-08-30T12:40:03Z</time>
      </trkpt>
      <trkpt lat="46.40058" lon="5.56425">
        <ele>446.8</ele>
        <time>2023-08-30T12:40:04Z</time>
      </trkpt>
      <trkpt lat="46.40055" lon="5.56426">
        <ele>447.6</ele>
        <time>2023-08-30T12:40:05Z</time>
      </trkpt>
      <trkpt lat="46.40053" lon="5.56427">
        <ele>447.6</ele>
        <time>2023-08-30T12:40:06Z</time>
      </trkpt>
      <trkpt lat="46.4005" lon="5.56429">
        <ele>447.6</ele>
        <time>2023-08-30T12:40:07Z</time>
      </trkpt>
      <trkpt lat="46.40047" lon="5.5643">
        <ele>447.6</ele>
        <time>2023-08-30T12:40:08Z</time>
      </trkpt>
      <trkpt lat="46.40044" lon="5.56431">
        <ele>447.6</ele>
        <time>2023-08-30T12:40:09Z</time>
      </trkpt>
      <trkpt lat="46.40041" lon="5.56433">
        <ele>448</ele>
        <time>2023-08-30T12:40:10Z</time>
      </trkpt>
      <trkpt lat="46.40038" lon="5.56434">
        <ele>448</ele>
        <time>2023-08-30T12:40:11Z</time>
      </trkpt>
      <trkpt lat="46.40036" lon="5.56436">
        <ele>448</ele>
        <time>2023-08-30T12:40:12Z</time>
      </trkpt>
      <trkpt lat="46.40033" lon="5.56438">
        <ele>448</ele>
        <time>2023-08-30T12:40:13Z</time>
      </trkpt>
      <trkpt lat="46.4003" lon="5.5644">
        <ele>448.6</ele>
        <time>2023-08-30T12:40:14Z</time>
      </trkpt>
      <trkpt lat="46.40027" lon="5.56441">
        <ele>448.8</ele>
        <time>2023-08-30T12:40:15Z</time>
      </trkpt>
      <trkpt lat="46.40024" lon="5.56443">
        <ele>448.8</ele>
        <time>2023-08-30T12:40:16Z</time>
      </trkpt>
      <trkpt lat="46.40021" lon="5.56444">
        <ele>448.8</ele>
        <time>2023-08-30T12:40:17Z</time>
      </trkpt>
      <trkpt lat="46.40019" lon="5.56446">
        <ele>448.8</ele>
        <time>2023-08-30T12:40:18Z</time>
      </trkpt>
      <trkpt lat="46.40016" lon="5.56448">
        <ele>448.8</ele>
        <time>2023-08-30T12:40:19Z</time>
      </trkpt>
      <trkpt lat="46.40013" lon="5.56449">
        <ele>449.2</ele>
        <time>2023-08-30T12:40:20Z</time>
      </trkpt>
      <trkpt lat="46.40011" lon="5.56451">
        <ele>449.4</ele>
        <time>2023-08-30T12:40:21Z</time>
      </trkpt>
      <trkpt lat="46.40008" lon="5.56453">
        <ele>449.4</ele>
        <time>2023-08-30T12:40:22Z</time>
      </trkpt>
      <trkpt lat="46.40005" lon="5.56455">
        <ele>449.4</ele>
        <time>2023-08-30T12:40:23Z</time>
      </trkpt>
      <trkpt lat="46.40003" lon="5.56456">
        <ele>449.4</ele>
        <time>2023-08-30T12:40:24Z</time>
      </trkpt>
      <trkpt lat="46.4" lon="5.56458">
        <ele>450</ele>
        <time>2023-08-30T12:40:25Z</time>
      </trkpt>
      <trkpt lat="46.39997" lon="5.56459">
        <ele>450</ele>
        <time>2023-08-30T12:40:26Z</time>
      </trkpt>
      <trkpt lat="46.39995" lon="5.56461">
        <ele>450</ele>
        <time>2023-08-30T12:40:27Z</time>
      </trkpt>
      <trkpt lat="46.39992" lon="5.56463">
        <ele>450</ele>
        <time>2023-08-30T12:40:28Z</time>
      </trkpt>
      <trkpt lat="46.3999" lon="5.56465">
        <ele>450.4</ele>
        <time>2023-08-30T12:40:29Z</time>
      </trkpt>
      <trkpt lat="46.39988" lon="5.56467">
        <ele>450.6</ele>
        <time>2023-08-30T12:40:30Z</time>
      </trkpt>
      <trkpt lat="46.39985" lon="5.56469">
        <ele>450.6</ele>
        <time>2023-08-30T12:40:31Z</time>
      </trkpt>
      <trkpt lat="46.39983" lon="5.56471">
        <ele>450.6</ele>
        <time>2023-08-30T12:40:32Z</time>
      </trkpt>
      <trkpt lat="46.3998" lon="5.56473">
        <ele>450.8</ele>
        <time>2023-08-30T12:40:33Z</time>
      </trkpt>
      <trkpt lat="46.39978" lon="5.56475">
        <ele>451.2</ele>
        <time>2023-08-30T12:40:34Z</time>
      </trkpt>
      <trkpt lat="46.39976" lon="5.56477">
        <ele>451.2</ele>
        <time>2023-08-30T12:40:35Z</time>
      </trkpt>
      <trkpt lat="46.39973" lon="5.56479">
        <ele>451.2</ele>
        <time>2023-08-30T12:40:36Z</time>
      </trkpt>
      <trkpt lat="46.39971" lon="5.56481">
        <ele>451.6</ele>
        <time>2023-08-30T12:40:37Z</time>
      </trkpt>
      <trkpt lat="46.39968" lon="5.56483">
        <ele>451.8</ele>
        <time>2023-08-30T12:40:38Z</time>
      </trkpt>
      <trkpt lat="46.39966" lon="5.56485">
        <ele>451.8</ele>
        <time>2023-08-30T12:40:39Z</time>
      </trkpt>
      <trkpt lat="46.39964" lon="5.56488">
        <ele>451.8</ele>
        <time>2023-08-30T12:40:40Z</time>
      </trkpt>
      <trkpt lat="46.39961" lon="5.56491">
        <ele>451.8</ele>
        <time>2023-08-30T12:40:41Z</time>
      </trkpt>
      <trkpt lat="46.39958" lon="5.56493">
        <ele>452.2</ele>
        <time>2023-08-30T12:40:42Z</time>
      </trkpt>
      <trkpt lat="46.39956" lon="5.56496">
        <ele>452.4</ele>
        <time>2023-08-30T12:40:43Z</time>
      </trkpt>
      <trkpt lat="46.39953" lon="5.56499">
        <ele>452.4</ele>
        <time>2023-08-30T12:40:44Z</time>
      </trkpt>
      <trkpt lat="46.3995" lon="5.56501">
        <ele>452.4</ele>
        <time>2023-08-30T12:40:45Z</time>
      </trkpt>
      <trkpt lat="46.39948" lon="5.56504">
        <ele>452.4</ele>
        <time>2023-08-30T12:40:46Z</time>
      </trkpt>
      <trkpt lat="46.39945" lon="5.56506">
        <ele>453</ele>
        <time>2023-08-30T12:40:47Z</time>
      </trkpt>
      <trkpt lat="46.39942" lon="5.56509">
        <ele>453</ele>
        <time>2023-08-30T12:40:48Z</time>
      </trkpt>
      <trkpt lat="46.39939" lon="5.56512">
        <ele>453</ele>
        <time>2023-08-30T12:40:49Z</time>
      </trkpt>
      <trkpt lat="46.39936" lon="5.56515">
        <ele>453</ele>
        <time>2023-08-30T12:40:50Z</time>
      </trkpt>
      <trkpt lat="46.39933" lon="5.56517">
        <ele>453.4</ele>
        <time>2023-08-30T12:40:51Z</time>
      </trkpt>
      <trkpt lat="46.3993" lon="5.5652">
        <ele>453.6</ele>
        <time>2023-08-30T12:40:52Z</time>
      </trkpt>
      <trkpt lat="46.39927" lon="5.56523">
        <ele>453.6</ele>
        <time>2023-08-30T12:40:53Z</time>
      </trkpt>
      <trkpt lat="46.39924" lon="5.56526">
        <ele>453.6</ele>
        <time>2023-08-30T12:40:54Z</time>
      </trkpt>
      <trkpt lat="46.39921" lon="5.56529">
        <ele>453.8</ele>
        <time>2023-08-30T12:40:55Z</time>
      </trkpt>
      <trkpt lat="46.39918" lon="5.56532">
        <ele>454</ele>
        <time>2023-08-30T12:40:56Z</time>
      </trkpt>
      <trkpt lat="46.39915" lon="5.56536">
        <ele>454</ele>
        <time>2023-08-30T12:40:57Z</time>
      </trkpt>
      <trkpt lat="46.39912" lon="5.56539">
        <ele>454</ele>
        <time>2023-08-30T12:40:58Z</time>
      </trkpt>
      <trkpt lat="46.3991" lon="5.56542">
        <ele>454.2</ele>
        <time>2023-08-30T12:40:59Z</time>
      </trkpt>
      <trkpt lat="46.39907" lon="5.56545">
        <ele>454.4</ele>
        <time>2023-08-30T12:41:00Z</time>
      </trkpt>
      <trkpt lat="46.39904" lon="5.56547">
        <ele>454.4</ele>
        <time>2023-08-30T12:41:01Z</time>
      </trkpt>
      <trkpt lat="46.39901" lon="5.56549">
        <ele>454.4</ele>
        <time>2023-08-30T12:41:02Z</time>
      </trkpt>
      <trkpt lat="46.39899" lon="5.56551">
        <ele>454.4</ele>
        <time>2023-08-30T12:41:03Z</time>
      </trkpt>
      <trkpt lat="46.39896" lon="5.56553">
        <ele>454.6</ele>
        <time>2023-08-30T12:41:04Z</time>
      </trkpt>
      <trkpt lat="46.39892" lon="5.56555">
        <ele>454.6</ele>
        <time>2023-08-30T12:41:05Z</time>
      </trkpt>
      <trkpt lat="46.39889" lon="5.56557">
        <ele>454.8</ele>
        <time>2023-08-30T12:41:06Z</time>
      </trkpt>
      <trkpt lat="46.39886" lon="5.56559">
        <ele>454.8</ele>
        <time>2023-08-30T12:41:07Z</time>
      </trkpt>
      <trkpt lat="46.39883" lon="5.56561">
        <ele>454.8</ele>
        <time>2023-08-30T12:41:08Z</time>
      </trkpt>
      <trkpt lat="46.3988" lon="5.56562">
        <ele>454.8</ele>
        <time>2023-08-30T12:41:09Z</time>
      </trkpt>
      <trkpt lat="46.39877" lon="5.56564">
        <ele>455</ele>
        <time>2023-08-30T12:41:10Z</time>
      </trkpt>
      <trkpt lat="46.39874" lon="5.56565">
        <ele>455</ele>
        <time>2023-08-30T12:41:11Z</time>
      </trkpt>
      <trkpt lat="46.3987" lon="5.56566">
        <ele>455</ele>
        <time>2023-08-30T12:41:12Z</time>
      </trkpt>
      <trkpt lat="46.39867" lon="5.56567">
        <ele>455.4</ele>
        <time>2023-08-30T12:41:13Z</time>
      </trkpt>
      <trkpt lat="46.39864" lon="5.56568">
        <ele>455.6</ele>
        <time>2023-08-30T12:41:14Z</time>
      </trkpt>
      <trkpt lat="46.39861" lon="5.5657">
        <ele>455.6</ele>
        <time>2023-08-30T12:41:15Z</time>
      </trkpt>
      <trkpt lat="46.39857" lon="5.56571">
        <ele>455.6</ele>
        <time>2023-08-30T12:41:16Z</time>
      </trkpt>
      <trkpt lat="46.39854" lon="5.56572">
        <ele>455.6</ele>
        <time>2023-08-30T12:41:17Z</time>
      </trkpt>
      <trkpt lat="46.39851" lon="5.56574">
        <ele>455.6</ele>
        <time>2023-08-30T12:41:18Z</time>
      </trkpt>
      <trkpt lat="46.39848" lon="5.56575">
        <ele>456</ele>
        <time>2023-08-30T12:41:19Z</time>
      </trkpt>
      <trkpt lat="46.39844" lon="5.56577">
        <ele>456</ele>
        <time>2023-08-30T12:41:20Z</time>
      </trkpt>
      <trkpt lat="46.39841" lon="5.56578">
        <ele>456</ele>
        <time>2023-08-30T12:41:21Z</time>
      </trkpt>
      <trkpt lat="46.39838" lon="5.56579">
        <ele>456.2</ele>
        <time>2023-08-30T12:41:22Z</time>
      </trkpt>
      <trkpt lat="46.39835" lon="5.56581">
        <ele>456.2</ele>
        <time>2023-08-30T12:41:23Z</time>
      </trkpt>
      <trkpt lat="46.39832" lon="5.56582">
        <ele>456.4</ele>
        <time>2023-08-30T12:41:24Z</time>
      </trkpt>
      <trkpt lat="46.39829" lon="5.56584">
        <ele>456.4</ele>
        <time>2023-08-30T12:41:25Z</time>
      </trkpt>
      <trkpt lat="46.39826" lon="5.56585">
        <ele>456.8</ele>
        <time>2023-08-30T12:41:26Z</time>
      </trkpt>
      <trkpt lat="46.39823" lon="5.56586">
        <ele>456.8</ele>
        <time>2023-08-30T12:41:27Z</time>
      </trkpt>
      <trkpt lat="46.3982" lon="5.56587">
        <ele>456.8</ele>
        <time>2023-08-30T12:41:28Z</time>
      </trkpt>
      <trkpt lat="46.39817" lon="5.56588">
        <ele>456.8</ele>
        <time>2023-08-30T12:41:29Z</time>
      </trkpt>
      <trkpt lat="46.39814" lon="5.56589">
        <ele>456.8</ele>
        <time>2023-08-30T12:41:30Z</time>
      </trkpt>
      <trkpt lat="46.39811" lon="5.5659">
        <ele>457</ele>
        <time>2023-08-30T12:41:31Z</time>
      </trkpt>
      <trkpt lat="46.39808" lon="5.56591">
        <ele>457.2</ele>
        <time>2023-08-30T12:41:32Z</time>
      </trkpt>
      <trkpt lat="46.39805" lon="5.56593">
        <ele>457.2</ele>
        <time>2023-08-30T12:41:33Z</time>
      </trkpt>
      <trkpt lat="46.39802" lon="5.56594">
        <ele>457.2</ele>
        <time>2023-08-30T12:41:34Z</time>
      </trkpt>
      <trkpt lat="46.39799" lon="5.56595">
        <ele>457.6</ele>
        <time>2023-08-30T12:41:35Z</time>
      </trkpt>
      <trkpt lat="46.39796" lon="5.56596">
        <ele>457.8</ele>
        <time>2023-08-30T12:41:36Z</time>
      </trkpt>
      <trkpt lat="46.39793" lon="5.56597">
        <ele>457.8</ele>
        <time>2023-08-30T12:41:37Z</time>
      </trkpt>
      <trkpt lat="46.3979" lon="5.56598">
        <ele>457.8</ele>
        <time>2023-08-30T12:41:38Z</time>
      </trkpt>
      <trkpt lat="46.39787" lon="5.56599">
        <ele>457.8</ele>
        <time>2023-08-30T12:41:39Z</time>
      </trkpt>
      <trkpt lat="46.39784" lon="5.566">
        <ele>458.2</ele>
        <time>2023-08-30T12:41:40Z</time>
      </trkpt>
      <trkpt lat="46.39781" lon="5.56601">
        <ele>458.4</ele>
        <time>2023-08-30T12:41:41Z</time>
      </trkpt>
      <trkpt lat="46.39778" lon="5.56602">
        <ele>458.4</ele>
        <time>2023-08-30T12:41:42Z</time>
      </trkpt>
      <trkpt lat="46.39776" lon="5.56603">
        <ele>458.4</ele>
        <time>2023-08-30T12:41:43Z</time>
      </trkpt>
      <trkpt lat="46.39773" lon="5.56604">
        <ele>458.4</ele>
        <time>2023-08-30T12:41:44Z</time>
      </trkpt>
      <trkpt lat="46.3977" lon="5.56605">
        <ele>458.4</ele>
        <time>2023-08-30T12:41:45Z</time>
      </trkpt>
      <trkpt lat="46.39767" lon="5.56607">
        <ele>458.8</ele>
        <time>2023-08-30T12:41:46Z</time>
      </trkpt>
      <trkpt lat="46.39764" lon="5.56608">
        <ele>458.8</ele>
        <time>2023-08-30T12:41:47Z</time>
      </trkpt>
      <trkpt lat="46.39761" lon="5.56609">
        <ele>458.8</ele>
        <time>2023-08-30T12:41:48Z</time>
      </trkpt>
      <trkpt lat="46.39758" lon="5.5661">
        <ele>458.8</ele>
        <time>2023-08-30T12:41:49Z</time>
      </trkpt>
      <trkpt lat="46.39755" lon="5.56611">
        <ele>459.2</ele>
        <time>2023-08-30T12:41:50Z</time>
      </trkpt>
      <trkpt lat="46.39752" lon="5.56612">
        <ele>459.4</ele>
        <time>2023-08-30T12:41:51Z</time>
      </trkpt>
      <trkpt lat="46.39749" lon="5.56613">
        <ele>459.4</ele>
        <time>2023-08-30T12:41:52Z</time>
      </trkpt>
      <trkpt lat="46.39746" lon="5.56614">
        <ele>459.4</ele>
        <time>2023-08-30T12:41:53Z</time>
      </trkpt>
      <trkpt lat="46.39744" lon="5.56614">
        <ele>459.8</ele>
        <time>2023-08-30T12:41:54Z</time>
      </trkpt>
      <trkpt lat="46.39741" lon="5.56615">
        <ele>460</ele>
        <time>2023-08-30T12:41:55Z</time>
      </trkpt>
      <trkpt lat="46.39738" lon="5.56616">
        <ele>460</ele>
        <time>2023-08-30T12:41:56Z</time>
      </trkpt>
      <trkpt lat="46.39735" lon="5.56617">
        <ele>460</ele>
        <time>2023-08-30T12:41:57Z</time>
      </trkpt>
      <trkpt lat="46.39733" lon="5.56618">
        <ele>460.2</ele>
        <time>2023-08-30T12:41:58Z</time>
      </trkpt>
      <trkpt lat="46.3973" lon="5.56619">
        <ele>460.4</ele>
        <time>2023-08-30T12:41:59Z</time>
      </trkpt>
      <trkpt lat="46.39727" lon="5.5662">
        <ele>460.4</ele>
        <time>2023-08-30T12:42:00Z</time>
      </trkpt>
      <trkpt lat="46.39724" lon="5.56621">
        <ele>460.4</ele>
        <time>2023-08-30T12:42:01Z</time>
      </trkpt>
      <trkpt lat="46.39722" lon="5.56621">
        <ele>460.4</ele>
        <time>2023-08-30T12:42:02Z</time>
      </trkpt>
      <trkpt lat="46.39719" lon="5.56622">
        <ele>460.8</ele>
        <time>2023-08-30T12:42:03Z</time>
      </trkpt>
      <trkpt lat="46.39716" lon="5.56623">
        <ele>460.8</ele>
        <time>2023-08-30T12:42:04Z</time>
      </trkpt>
      <trkpt lat="46.39714" lon="5.56624">
        <ele>460.8</ele>
        <time>2023-08-30T12:42:05Z</time>
      </trkpt>
      <trkpt lat="46.39711" lon="5.56625">
        <ele>460.8</ele>
        <time>2023-08-30T12:42:06Z</time>
      </trkpt>
      <trkpt lat="46.39708" lon="5.56626">
        <ele>461.4</ele>
        <time>2023-08-30T12:42:07Z</time>
      </trkpt>
      <trkpt lat="46.39706" lon="5.56627">
        <ele>461.6</ele>
        <time>2023-08-30T12:42:08Z</time>
      </trkpt>
      <trkpt lat="46.39703" lon="5.56628">
        <ele>461.6</ele>
        <time>2023-08-30T12:42:09Z</time>
      </trkpt>
      <trkpt lat="46.397" lon="5.56629">
        <ele>461.6</ele>
        <time>2023-08-30T12:42:10Z</time>
      </trkpt>
      <trkpt lat="46.39698" lon="5.5663">
        <ele>462</ele>
        <time>2023-08-30T12:42:11Z</time>
      </trkpt>
      <trkpt lat="46.39695" lon="5.56631">
        <ele>462.2</ele>
        <time>2023-08-30T12:42:12Z</time>
      </trkpt>
      <trkpt lat="46.39692" lon="5.56633">
        <ele>462.2</ele>
        <time>2023-08-30T12:42:13Z</time>
      </trkpt>
      <trkpt lat="46.39689" lon="5.56634">
        <ele>462.2</ele>
        <time>2023-08-30T12:42:14Z</time>
      </trkpt>
      <trkpt lat="46.39687" lon="5.56635">
        <ele>462.2</ele>
        <time>2023-08-30T12:42:15Z</time>
      </trkpt>
      <trkpt lat="46.39684" lon="5.56636">
        <ele>462.6</ele>
        <time>2023-08-30T12:42:16Z</time>
      </trkpt>
      <trkpt lat="46.39681" lon="5.56637">
        <ele>462.6</ele>
        <time>2023-08-30T12:42:17Z</time>
      </trkpt>
      <trkpt lat="46.39679" lon="5.56638">
        <ele>462.6</ele>
        <time>2023-08-30T12:42:18Z</time>
      </trkpt>
      <trkpt lat="46.39676" lon="5.56639">
        <ele>462.6</ele>
        <time>2023-08-30T12:42:19Z</time>
      </trkpt>
      <trkpt lat="46.39674" lon="5.5664">
        <ele>463.2</ele>
        <time>2023-08-30T12:42:20Z</time>
      </trkpt>
      <trkpt lat="46.39671" lon="5.56641">
        <ele>463.2</ele>
        <time>2023-08-30T12:42:21Z</time>
      </trkpt>
      <trkpt lat="46.39669" lon="5.56642">
        <ele>463.2</ele>
        <time>2023-08-30T12:42:22Z</time>
      </trkpt>
      <trkpt lat="46.39667" lon="5.56643">
        <ele>463.2</ele>
        <time>2023-08-30T12:42:23Z</time>
      </trkpt>
      <trkpt lat="46.39664" lon="5.56644">
        <ele>463.6</ele>
        <time>2023-08-30T12:42:24Z</time>
      </trkpt>
      <trkpt lat="46.39662" lon="5.56645">
        <ele>463.6</ele>
        <time>2023-08-30T12:42:25Z</time>
      </trkpt>
      <trkpt lat="46.39659" lon="5.56646">
        <ele>463.8</ele>
        <time>2023-08-30T12:42:26Z</time>
      </trkpt>
      <trkpt lat="46.39656" lon="5.56647">
        <ele>463.8</ele>
        <time>2023-08-30T12:42:27Z</time>
      </trkpt>
      <trkpt lat="46.39654" lon="5.56649">
        <ele>463.8</ele>
        <time>2023-08-30T12:42:28Z</time>
      </trkpt>
      <trkpt lat="46.39651" lon="5.5665">
        <ele>463.8</ele>
        <time>2023-08-30T12:42:29Z</time>
      </trkpt>
      <trkpt lat="46.39649" lon="5.56652">
        <ele>464.4</ele>
        <time>2023-08-30T12:42:30Z</time>
      </trkpt>
      <trkpt lat="46.39646" lon="5.56654">
        <ele>464.6</ele>
        <time>2023-08-30T12:42:31Z</time>
      </trkpt>
      <trkpt lat="46.39643" lon="5.56655">
        <ele>464.6</ele>
        <time>2023-08-30T12:42:32Z</time>
      </trkpt>
      <trkpt lat="46.39641" lon="5.56657">
        <ele>464.6</ele>
        <time>2023-08-30T12:42:33Z</time>
      </trkpt>
      <trkpt lat="46.39639" lon="5.56659">
        <ele>464.6</ele>
        <time>2023-08-30T12:42:34Z</time>
      </trkpt>
      <trkpt lat="46.39636" lon="5.5666">
        <ele>465.2</ele>
        <time>2023-08-30T12:42:35Z</time>
      </trkpt>
      <trkpt lat="46.39634" lon="5.56662">
        <ele>465.2</ele>
        <time>2023-08-30T12:42:36Z</time>
      </trkpt>
      <trkpt lat="46.39631" lon="5.56663">
        <ele>465.2</ele>
        <time>2023-08-30T12:42:37Z</time>
      </trkpt>
      <trkpt lat="46.39629" lon="5.56665">
        <ele>465.2</ele>
        <time>2023-08-30T12:42:38Z</time>
      </trkpt>
      <trkpt lat="46.39626" lon="5.56666">
        <ele>465.6</ele>
        <time>2023-08-30T12:42:39Z</time>
      </trkpt>
      <trkpt lat="46.39624" lon="5.56668">
        <ele>465.6</ele>
        <time>2023-08-30T12:42:40Z</time>
      </trkpt>
      <trkpt lat="46.39621" lon="5.56669">
        <ele>466</ele>
        <time>2023-08-30T12:42:41Z</time>
      </trkpt>
      <trkpt lat="46.39619" lon="5.5667">
        <ele>466</ele>
        <time>2023-08-30T12:42:42Z</time>
      </trkpt>
      <trkpt lat="46.39616" lon="5.56672">
        <ele>466.4</ele>
        <time>2023-08-30T12:42:43Z</time>
      </trkpt>
      <trkpt lat="46.39614" lon="5.56674">
        <ele>466.4</ele>
        <time>2023-08-30T12:42:44Z</time>
      </trkpt>
      <trkpt lat="46.39611" lon="5.56676">
        <ele>466.4</ele>
        <time>2023-08-30T12:42:45Z</time>
      </trkpt>
      <trkpt lat="46.39609" lon="5.56678">
        <ele>466.4</ele>
        <time>2023-08-30T12:42:46Z</time>
      </trkpt>
      <trkpt lat="46.39606" lon="5.56679">
        <ele>466.4</ele>
        <time>2023-08-30T12:42:47Z</time>
      </trkpt>
      <trkpt lat="46.39603" lon="5.56681">
        <ele>466.4</ele>
        <time>2023-08-30T12:42:48Z</time>
      </trkpt>
      <trkpt lat="46.39601" lon="5.56683">
        <ele>467.2</ele>
        <time>2023-08-30T12:42:49Z</time>
      </trkpt>
      <trkpt lat="46.39598" lon="5.56685">
        <ele>467.2</ele>
        <time>2023-08-30T12:42:50Z</time>
      </trkpt>
      <trkpt lat="46.39595" lon="5.56687">
        <ele>467.2</ele>
        <time>2023-08-30T12:42:51Z</time>
      </trkpt>
      <trkpt lat="46.39592" lon="5.56688">
        <ele>468</ele>
        <time>2023-08-30T12:42:52Z</time>
      </trkpt>
      <trkpt lat="46.39589" lon="5.5669">
        <ele>468.2</ele>
        <time>2023-08-30T12:42:53Z</time>
      </trkpt>
      <trkpt lat="46.39586" lon="5.56691">
        <ele>468.2</ele>
        <time>2023-08-30T12:42:54Z</time>
      </trkpt>
      <trkpt lat="46.39583" lon="5.56692">
        <ele>468.2</ele>
        <time>2023-08-30T12:42:55Z</time>
      </trkpt>
      <trkpt lat="46.3958" lon="5.56694">
        <ele>468.2</ele>
        <time>2023-08-30T12:42:56Z</time>
      </trkpt>
      <trkpt lat="46.39577" lon="5.56695">
        <ele>468.8</ele>
        <time>2023-08-30T12:42:57Z</time>
      </trkpt>
      <trkpt lat="46.39575" lon="5.56697">
        <ele>469.2</ele>
        <time>2023-08-30T12:42:58Z</time>
      </trkpt>
      <trkpt lat="46.39572" lon="5.56698">
        <ele>469.2</ele>
        <time>2023-08-30T12:42:59Z</time>
      </trkpt>
      <trkpt lat="46.3957" lon="5.567">
        <ele>469.2</ele>
        <time>2023-08-30T12:43:00Z</time>
      </trkpt>
      <trkpt lat="46.39567" lon="5.56701">
        <ele>469.2</ele>
        <time>2023-08-30T12:43:01Z</time>
      </trkpt>
      <trkpt lat="46.39565" lon="5.56702">
        <ele>469.8</ele>
        <time>2023-08-30T12:43:02Z</time>
      </trkpt>
      <trkpt lat="46.39563" lon="5.56704">
        <ele>469.8</ele>
        <time>2023-08-30T12:43:03Z</time>
      </trkpt>
      <trkpt lat="46.39561" lon="5.56705">
        <ele>469.8</ele>
        <time>2023-08-30T12:43:04Z</time>
      </trkpt>
      <trkpt lat="46.39559" lon="5.56706">
        <ele>470.6</ele>
        <time>2023-08-30T12:43:05Z</time>
      </trkpt>
      <trkpt lat="46.39557" lon="5.56708">
        <ele>470.6</ele>
        <time>2023-08-30T12:43:06Z</time>
      </trkpt>
      <trkpt lat="46.39554" lon="5.56709">
        <ele>470.6</ele>
        <time>2023-08-30T12:43:07Z</time>
      </trkpt>
      <trkpt lat="46.39552" lon="5.5671">
        <ele>470.6</ele>
        <time>2023-08-30T12:43:08Z</time>
      </trkpt>
      <trkpt lat="46.3955" lon="5.56712">
        <ele>470.6</ele>
        <time>2023-08-30T12:43:09Z</time>
      </trkpt>
      <trkpt lat="46.39548" lon="5.56713">
        <ele>470.6</ele>
        <time>2023-08-30T12:43:10Z</time>
      </trkpt>
      <trkpt lat="46.39546" lon="5.56714">
        <ele>471.2</ele>
        <time>2023-08-30T12:43:11Z</time>
      </trkpt>
      <trkpt lat="46.39544" lon="5.56715">
        <ele>471.2</ele>
        <time>2023-08-30T12:43:12Z</time>
      </trkpt>
      <trkpt lat="46.39542" lon="5.56716">
        <ele>471.2</ele>
        <time>2023-08-30T12:43:13Z</time>
      </trkpt>
      <trkpt lat="46.3954" lon="5.56717">
        <ele>471.2</ele>
        <time>2023-08-30T12:43:14Z</time>
      </trkpt>
      <trkpt lat="46.39537" lon="5.56718">
        <ele>471.2</ele>
        <time>2023-08-30T12:43:15Z</time>
      </trkpt>
      <trkpt lat="46.39535" lon="5.56719">
        <ele>471.8</ele>
        <time>2023-08-30T12:43:16Z</time>
      </trkpt>
      <trkpt lat="46.39533" lon="5.5672">
        <ele>472</ele>
        <time>2023-08-30T12:43:17Z</time>
      </trkpt>
      <trkpt lat="46.39531" lon="5.56721">
        <ele>472</ele>
        <time>2023-08-30T12:43:18Z</time>
      </trkpt>
      <trkpt lat="46.39529" lon="5.56722">
        <ele>472.4</ele>
        <time>2023-08-30T12:43:19Z</time>
      </trkpt>
      <trkpt lat="46.39527" lon="5.56723">
        <ele>472.8</ele>
        <time>2023-08-30T12:43:20Z</time>
      </trkpt>
      <trkpt lat="46.39524" lon="5.56724">
        <ele>472.8</ele>
        <time>2023-08-30T12:43:21Z</time>
      </trkpt>
      <trkpt lat="46.39522" lon="5.56724">
        <ele>472.8</ele>
        <time>2023-08-30T12:43:22Z</time>
      </trkpt>
      <trkpt lat="46.3952" lon="5.56725">
        <ele>472.8</ele>
        <time>2023-08-30T12:43:23Z</time>
      </trkpt>
      <trkpt lat="46.39518" lon="5.56726">
        <ele>472.8</ele>
        <time>2023-08-30T12:43:24Z</time>
      </trkpt>
      <trkpt lat="46.39516" lon="5.56727">
        <ele>473.2</ele>
        <time>2023-08-30T12:43:25Z</time>
      </trkpt>
      <trkpt lat="46.39513" lon="5.56729">
        <ele>473.4</ele>
        <time>2023-08-30T12:43:26Z</time>
      </trkpt>
      <trkpt lat="46.39511" lon="5.56731">
        <ele>473.4</ele>
        <time>2023-08-30T12:43:27Z</time>
      </trkpt>
      <trkpt lat="46.39509" lon="5.56732">
        <ele>473.4</ele>
        <time>2023-08-30T12:43:28Z</time>
      </trkpt>
      <trkpt lat="46.39507" lon="5.56733">
        <ele>473.4</ele>
        <time>2023-08-30T12:43:29Z</time>
      </trkpt>
      <trkpt lat="46.39505" lon="5.56734">
        <ele>474.2</ele>
        <time>2023-08-30T12:43:30Z</time>
      </trkpt>
      <trkpt lat="46.39503" lon="5.56735">
        <ele>474.2</ele>
        <time>2023-08-30T12:43:31Z</time>
      </trkpt>
      <trkpt lat="46.395" lon="5.56735">
        <ele>474.2</ele>
        <time>2023-08-30T12:43:32Z</time>
      </trkpt>
      <trkpt lat="46.39498" lon="5.56736">
        <ele>474.8</ele>
        <time>2023-08-30T12:43:33Z</time>
      </trkpt>
      <trkpt lat="46.39496" lon="5.56737">
        <ele>474.8</ele>
        <time>2023-08-30T12:43:34Z</time>
      </trkpt>
      <trkpt lat="46.39493" lon="5.56738">
        <ele>474.8</ele>
        <time>2023-08-30T12:43:35Z</time>
      </trkpt>
      <trkpt lat="46.39491" lon="5.56738">
        <ele>474.8</ele>
        <time>2023-08-30T12:43:36Z</time>
      </trkpt>
      <trkpt lat="46.39489" lon="5.56739">
        <ele>474.8</ele>
        <time>2023-08-30T12:43:37Z</time>
      </trkpt>
      <trkpt lat="46.39486" lon="5.5674">
        <ele>475.4</ele>
        <time>2023-08-30T12:43:38Z</time>
      </trkpt>
      <trkpt lat="46.39484" lon="5.56741">
        <ele>475.6</ele>
        <time>2023-08-30T12:43:39Z</time>
      </trkpt>
      <trkpt lat="46.39482" lon="5.56742">
        <ele>475.6</ele>
        <time>2023-08-30T12:43:40Z</time>
      </trkpt>
      <trkpt lat="46.39479" lon="5.56743">
        <ele>475.6</ele>
        <time>2023-08-30T12:43:41Z</time>
      </trkpt>
      <trkpt lat="46.39477" lon="5.56744">
        <ele>476</ele>
        <time>2023-08-30T12:43:42Z</time>
      </trkpt>
      <trkpt lat="46.39475" lon="5.56745">
        <ele>476.2</ele>
        <time>2023-08-30T12:43:43Z</time>
      </trkpt>
      <trkpt lat="46.39473" lon="5.56746">
        <ele>476.2</ele>
        <time>2023-08-30T12:43:44Z</time>
      </trkpt>
      <trkpt lat="46.39471" lon="5.56747">
        <ele>476.2</ele>
        <time>2023-08-30T12:43:45Z</time>
      </trkpt>
      <trkpt lat="46.39468" lon="5.56748">
        <ele>476.2</ele>
        <time>2023-08-30T12:43:46Z</time>
      </trkpt>
      <trkpt lat="46.39466" lon="5.56749">
        <ele>476.8</ele>
        <time>2023-08-30T12:43:47Z</time>
      </trkpt>
      <trkpt lat="46.39464" lon="5.5675">
        <ele>476.8</ele>
        <time>2023-08-30T12:43:48Z</time>
      </trkpt>
      <trkpt lat="46.39462" lon="5.56751">
        <ele>477.2</ele>
        <time>2023-08-30T12:43:49Z</time>
      </trkpt>
      <trkpt lat="46.39459" lon="5.56752">
        <ele>477.2</ele>
        <time>2023-08-30T12:43:50Z</time>
      </trkpt>
      <trkpt lat="46.39457" lon="5.56753">
        <ele>477.2</ele>
        <time>2023-08-30T12:43:51Z</time>
      </trkpt>
      <trkpt lat="46.39455" lon="5.56753">
        <ele>477.6</ele>
        <time>2023-08-30T12:43:52Z</time>
      </trkpt>
      <trkpt lat="46.39452" lon="5.56754">
        <ele>478</ele>
        <time>2023-08-30T12:43:53Z</time>
      </trkpt>
      <trkpt lat="46.3945" lon="5.56755">
        <ele>478</ele>
        <time>2023-08-30T12:43:54Z</time>
      </trkpt>
      <trkpt lat="46.39448" lon="5.56757">
        <ele>478</ele>
        <time>2023-08-30T12:43:55Z</time>
      </trkpt>
      <trkpt lat="46.39446" lon="5.56759">
        <ele>478</ele>
        <time>2023-08-30T12:43:56Z</time>
      </trkpt>
      <trkpt lat="46.39443" lon="5.56761">
        <ele>478.8</ele>
        <time>2023-08-30T12:43:57Z</time>
      </trkpt>
      <trkpt lat="46.39441" lon="5.56761">
        <ele>478.8</ele>
        <time>2023-08-30T12:43:58Z</time>
      </trkpt>
      <trkpt lat="46.39439" lon="5.56762">
        <ele>478.8</ele>
        <time>2023-08-30T12:43:59Z</time>
      </trkpt>
      <trkpt lat="46.39437" lon="5.56763">
        <ele>478.8</ele>
        <time>2023-08-30T12:44:00Z</time>
      </trkpt>
      <trkpt lat="46.39435" lon="5.56763">
        <ele>479.2</ele>
        <time>2023-08-30T12:44:01Z</time>
      </trkpt>
      <trkpt lat="46.39432" lon="5.56764">
        <ele>479.4</ele>
        <time>2023-08-30T12:44:02Z</time>
      </trkpt>
      <trkpt lat="46.3943" lon="5.56764">
        <ele>479.4</ele>
        <time>2023-08-30T12:44:03Z</time>
      </trkpt>
      <trkpt lat="46.39427" lon="5.56765">
        <ele>479.4</ele>
        <time>2023-08-30T12:44:04Z</time>
      </trkpt>
      <trkpt lat="46.39424" lon="5.56766">
        <ele>479.8</ele>
        <time>2023-08-30T12:44:05Z</time>
      </trkpt>
      <trkpt lat="46.39422" lon="5.56767">
        <ele>480</ele>
        <time>2023-08-30T12:44:06Z</time>
      </trkpt>
      <trkpt lat="46.39419" lon="5.56769">
        <ele>480</ele>
        <time>2023-08-30T12:44:07Z</time>
      </trkpt>
      <trkpt lat="46.39417" lon="5.5677">
        <ele>480</ele>
        <time>2023-08-30T12:44:08Z</time>
      </trkpt>
      <trkpt lat="46.39415" lon="5.56772">
        <ele>480</ele>
        <time>2023-08-30T12:44:09Z</time>
      </trkpt>
      <trkpt lat="46.39412" lon="5.56773">
        <ele>480.4</ele>
        <time>2023-08-30T12:44:10Z</time>
      </trkpt>
      <trkpt lat="46.3941" lon="5.56774">
        <ele>480.4</ele>
        <time>2023-08-30T12:44:11Z</time>
      </trkpt>
      <trkpt lat="46.39407" lon="5.56775">
        <ele>480.6</ele>
        <time>2023-08-30T12:44:12Z</time>
      </trkpt>
      <trkpt lat="46.39405" lon="5.56776">
        <ele>480.6</ele>
        <time>2023-08-30T12:44:13Z</time>
      </trkpt>
      <trkpt lat="46.39402" lon="5.56776">
        <ele>480.6</ele>
        <time>2023-08-30T12:44:14Z</time>
      </trkpt>
      <trkpt lat="46.394" lon="5.56776">
        <ele>481</ele>
        <time>2023-08-30T12:44:15Z</time>
      </trkpt>
      <trkpt lat="46.39397" lon="5.56776">
        <ele>481.2</ele>
        <time>2023-08-30T12:44:16Z</time>
      </trkpt>
      <trkpt lat="46.39395" lon="5.56776">
        <ele>481.2</ele>
        <time>2023-08-30T12:44:17Z</time>
      </trkpt>
      <trkpt lat="46.39393" lon="5.56775">
        <ele>481.2</ele>
        <time>2023-08-30T12:44:18Z</time>
      </trkpt>
      <trkpt lat="46.3939" lon="5.56775">
        <ele>481.4</ele>
        <time>2023-08-30T12:44:19Z</time>
      </trkpt>
      <trkpt lat="46.39388" lon="5.56774">
        <ele>481.6</ele>
        <time>2023-08-30T12:44:20Z</time>
      </trkpt>
      <trkpt lat="46.39386" lon="5.56773">
        <ele>481.6</ele>
        <time>2023-08-30T12:44:21Z</time>
      </trkpt>
      <trkpt lat="46.39384" lon="5.56773">
        <ele>481.6</ele>
        <time>2023-08-30T12:44:22Z</time>
      </trkpt>
      <trkpt lat="46.39382" lon="5.56774">
        <ele>481.6</ele>
        <time>2023-08-30T12:44:23Z</time>
      </trkpt>
      <trkpt lat="46.3938" lon="5.56774">
        <ele>481.6</ele>
        <time>2023-08-30T12:44:24Z</time>
      </trkpt>
      <trkpt lat="46.39378" lon="5.56774">
        <ele>482</ele>
        <time>2023-08-30T12:44:25Z</time>
      </trkpt>
      <trkpt lat="46.39376" lon="5.56773">
        <ele>482</ele>
        <time>2023-08-30T12:44:26Z</time>
      </trkpt>
      <trkpt lat="46.39375" lon="5.56771">
        <ele>482</ele>
        <time>2023-08-30T12:44:27Z</time>
      </trkpt>
      <trkpt lat="46.39373" lon="5.5677">
        <ele>482</ele>
        <time>2023-08-30T12:44:28Z</time>
      </trkpt>
      <trkpt lat="46.39371" lon="5.56768">
        <ele>482.2</ele>
        <time>2023-08-30T12:44:29Z</time>
      </trkpt>
      <trkpt lat="46.39369" lon="5.56766">
        <ele>482.2</ele>
        <time>2023-08-30T12:44:30Z</time>
      </trkpt>
      <trkpt lat="46.39367" lon="5.56765">
        <ele>482.2</ele>
        <time>2023-08-30T12:44:31Z</time>
      </trkpt>
      <trkpt lat="46.39365" lon="5.56763">
        <ele>482.2</ele>
        <time>2023-08-30T12:44:32Z</time>
      </trkpt>
      <trkpt lat="46.39363" lon="5.56761">
        <ele>482.4</ele>
        <time>2023-08-30T12:44:33Z</time>
      </trkpt>
      <trkpt lat="46.39361" lon="5.56759">
        <ele>482.6</ele>
        <time>2023-08-30T12:44:34Z</time>
      </trkpt>
      <trkpt lat="46.39359" lon="5.56757">
        <ele>482.6</ele>
        <time>2023-08-30T12:44:35Z</time>
      </trkpt>
      <trkpt lat="46.39357" lon="5.56756">
        <ele>482.6</ele>
        <time>2023-08-30T12:44:36Z</time>
      </trkpt>
      <trkpt lat="46.39355" lon="5.56754">
        <ele>482.8</ele>
        <time>2023-08-30T12:44:37Z</time>
      </trkpt>
      <trkpt lat="46.39353" lon="5.56753">
        <ele>482.8</ele>
        <time>2023-08-30T12:44:38Z</time>
      </trkpt>
      <trkpt lat="46.3935" lon="5.56752">
        <ele>482.8</ele>
        <time>2023-08-30T12:44:39Z</time>
      </trkpt>
      <trkpt lat="46.39348" lon="5.5675">
        <ele>482.8</ele>
        <time>2023-08-30T12:44:40Z</time>
      </trkpt>
      <trkpt lat="46.39346" lon="5.56747">
        <ele>482.8</ele>
        <time>2023-08-30T12:44:41Z</time>
      </trkpt>
      <trkpt lat="46.39343" lon="5.56746">
        <ele>483</ele>
        <time>2023-08-30T12:44:42Z</time>
      </trkpt>
      <trkpt lat="46.3934" lon="5.56744">
        <ele>483</ele>
        <time>2023-08-30T12:44:43Z</time>
      </trkpt>
      <trkpt lat="46.39338" lon="5.56742">
        <ele>483</ele>
        <time>2023-08-30T12:44:44Z</time>
      </trkpt>
      <trkpt lat="46.39336" lon="5.56739">
        <ele>482.8</ele>
        <time>2023-08-30T12:44:45Z</time>
      </trkpt>
      <trkpt lat="46.39335" lon="5.56735">
        <ele>482.8</ele>
        <time>2023-08-30T12:44:46Z</time>
      </trkpt>
      <trkpt lat="46.39334" lon="5.56731">
        <ele>482.8</ele>
        <time>2023-08-30T12:44:47Z</time>
      </trkpt>
      <trkpt lat="46.39334" lon="5.56727">
        <ele>482.6</ele>
        <time>2023-08-30T12:44:48Z</time>
      </trkpt>
      <trkpt lat="46.39334" lon="5.56723">
        <ele>482.4</ele>
        <time>2023-08-30T12:44:49Z</time>
      </trkpt>
      <trkpt lat="46.39336" lon="5.5672">
        <ele>482.4</ele>
        <time>2023-08-30T12:44:50Z</time>
      </trkpt>
      <trkpt lat="46.39337" lon="5.56716">
        <ele>482.4</ele>
        <time>2023-08-30T12:44:51Z</time>
      </trkpt>
      <trkpt lat="46.39338" lon="5.5671">
        <ele>482.6</ele>
        <time>2023-08-30T12:44:52Z</time>
      </trkpt>
      <trkpt lat="46.39339" lon="5.56706">
        <ele>482.6</ele>
        <time>2023-08-30T12:44:53Z</time>
      </trkpt>
      <trkpt lat="46.3934" lon="5.56701">
        <ele>482.6</ele>
        <time>2023-08-30T12:44:54Z</time>
      </trkpt>
      <trkpt lat="46.39342" lon="5.56696">
        <ele>482.6</ele>
        <time>2023-08-30T12:44:55Z</time>
      </trkpt>
      <trkpt lat="46.39343" lon="5.56689">
        <ele>482.6</ele>
        <time>2023-08-30T12:44:56Z</time>
      </trkpt>
      <trkpt lat="46.39344" lon="5.56683">
        <ele>482.4</ele>
        <time>2023-08-30T12:44:57Z</time>
      </trkpt>
      <trkpt lat="46.39345" lon="5.56679">
        <ele>482.4</ele>
        <time>2023-08-30T12:44:58Z</time>
      </trkpt>
      <trkpt lat="46.39345" lon="5.56674">
        <ele>482.4</ele>
        <time>2023-08-30T12:44:59Z</time>
      </trkpt>
      <trkpt lat="46.39346" lon="5.56669">
        <ele>482.2</ele>
        <time>2023-08-30T12:45:00Z</time>
      </trkpt>
      <trkpt lat="46.39347" lon="5.56664">
        <ele>482.2</ele>
        <time>2023-08-30T12:45:01Z</time>
      </trkpt>
      <trkpt lat="46.39348" lon="5.56657">
        <ele>482.2</ele>
        <time>2023-08-30T12:45:02Z</time>
      </trkpt>
      <trkpt lat="46.39349" lon="5.56652">
        <ele>482.2</ele>
        <time>2023-08-30T12:45:03Z</time>
      </trkpt>
      <trkpt lat="46.3935" lon="5.56647">
        <ele>482.2</ele>
        <time>2023-08-30T12:45:04Z</time>
      </trkpt>
      <trkpt lat="46.39351" lon="5.56644">
        <ele>482</ele>
        <time>2023-08-30T12:45:05Z</time>
      </trkpt>
      <trkpt lat="46.39351" lon="5.5664">
        <ele>481.8</ele>
        <time>2023-08-30T12:45:06Z</time>
      </trkpt>
      <trkpt lat="46.39352" lon="5.56636">
        <ele>481.8</ele>
        <time>2023-08-30T12:45:07Z</time>
      </trkpt>
      <trkpt lat="46.39352" lon="5.56634">
        <ele>481.8</ele>
        <time>2023-08-30T12:45:08Z</time>
      </trkpt>
      <trkpt lat="46.39352" lon="5.56631">
        <ele>481.8</ele>
        <time>2023-08-30T12:45:09Z</time>
      </trkpt>
      <trkpt lat="46.39353" lon="5.56628">
        <ele>481.8</ele>
        <time>2023-08-30T12:45:10Z</time>
      </trkpt>
      <trkpt lat="46.39355" lon="5.56626">
        <ele>481.8</ele>
        <time>2023-08-30T12:45:11Z</time>
      </trkpt>
      <trkpt lat="46.39355" lon="5.56624">
        <ele>481.8</ele>
        <time>2023-08-30T12:45:12Z</time>
      </trkpt>
      <trkpt lat="46.39356" lon="5.56624">
        <ele>481.8</ele>
        <time>2023-08-30T12:45:13Z</time>
      </trkpt>
      <trkpt lat="46.39356" lon="5.56621">
        <ele>481.8</ele>
        <time>2023-08-30T12:45:14Z</time>
      </trkpt>
      <trkpt lat="46.39355" lon="5.56618">
        <ele>481.8</ele>
        <time>2023-08-30T12:45:15Z</time>
      </trkpt>
      <trkpt lat="46.39356" lon="5.56617">
        <ele>481.6</ele>
        <time>2023-08-30T12:45:16Z</time>
      </trkpt>
      <trkpt lat="46.39356" lon="5.56615">
        <ele>481.6</ele>
        <time>2023-08-30T12:45:17Z</time>
      </trkpt>
      <trkpt lat="46.39355" lon="5.5661">
        <ele>481.6</ele>
        <time>2023-08-30T12:45:18Z</time>
      </trkpt>
      <trkpt lat="46.39354" lon="5.56604">
        <ele>481.4</ele>
        <time>2023-08-30T12:45:19Z</time>
      </trkpt>
      <trkpt lat="46.39354" lon="5.56599">
        <ele>481.4</ele>
        <time>2023-08-30T12:45:20Z</time>
      </trkpt>
      <trkpt lat="46.39354" lon="5.56597">
        <ele>481.4</ele>
        <time>2023-08-30T12:45:21Z</time>
      </trkpt>
      <trkpt lat="46.39355" lon="5.56595">
        <ele>481.4</ele>
        <time>2023-08-30T12:45:22Z</time>
      </trkpt>
      <trkpt lat="46.39355" lon="5.56593">
        <ele>481.4</ele>
        <time>2023-08-30T12:45:23Z</time>
      </trkpt>
      <trkpt lat="46.39354" lon="5.5659">
        <ele>481.4</ele>
        <time>2023-08-30T12:45:24Z</time>
      </trkpt>
      <trkpt lat="46.39354" lon="5.56588">
        <ele>481.4</ele>
        <time>2023-08-30T12:45:25Z</time>
      </trkpt>
      <trkpt lat="46.39353" lon="5.56586">
        <ele>481.4</ele>
        <time>2023-08-30T12:45:26Z</time>
      </trkpt>
      <trkpt lat="46.39352" lon="5.56584">
        <ele>481.4</ele>
        <time>2023-08-30T12:45:27Z</time>
      </trkpt>
      <trkpt lat="46.39351" lon="5.56582">
        <ele>481.4</ele>
        <time>2023-08-30T12:45:28Z</time>
      </trkpt>
      <trkpt lat="46.3935" lon="5.56581">
        <ele>481.4</ele>
        <time>2023-08-30T12:45:29Z</time>
      </trkpt>
      <trkpt lat="46.39349" lon="5.5658">
        <ele>481.4</ele>
        <time>2023-08-30T12:45:30Z</time>
      </trkpt>
      <trkpt lat="46.39349" lon="5.56578">
        <ele>481.4</ele>
        <time>2023-08-30T12:45:31Z</time>
      </trkpt>
      <trkpt lat="46.39348" lon="5.56577">
        <ele>481.4</ele>
        <time>2023-08-30T12:45:32Z</time>
      </trkpt>
      <trkpt lat="46.39347" lon="5.56576">
        <ele>480.8</ele>
        <time>2023-08-30T12:45:33Z</time>
      </trkpt>
      <trkpt lat="46.39347" lon="5.56576">
        <ele>480.8</ele>
        <time>2023-08-30T12:45:34Z</time>
      </trkpt>
      <trkpt lat="46.39347" lon="5.56574">
        <ele>480.8</ele>
        <time>2023-08-30T12:45:35Z</time>
      </trkpt>
      <trkpt lat="46.39347" lon="5.56571">
        <ele>480.8</ele>
        <time>2023-08-30T12:45:36Z</time>
      </trkpt>
      <trkpt lat="46.39346" lon="5.56569">
        <ele>480.8</ele>
        <time>2023-08-30T12:45:37Z</time>
      </trkpt>
      <trkpt lat="46.39344" lon="5.56567">
        <ele>480.8</ele>
        <time>2023-08-30T12:45:38Z</time>
      </trkpt>
      <trkpt lat="46.39342" lon="5.56565">
        <ele>480.8</ele>
        <time>2023-08-30T12:45:39Z</time>
      </trkpt>
      <trkpt lat="46.39341" lon="5.56564">
        <ele>480.8</ele>
        <time>2023-08-30T12:45:40Z</time>
      </trkpt>
      <trkpt lat="46.3934" lon="5.56562">
        <ele>480.6</ele>
        <time>2023-08-30T12:45:41Z</time>
      </trkpt>
      <trkpt lat="46.39339" lon="5.5656">
        <ele>480.6</ele>
        <time>2023-08-30T12:45:42Z</time>
      </trkpt>
      <trkpt lat="46.39338" lon="5.56558">
        <ele>480.6</ele>
        <time>2023-08-30T12:45:43Z</time>
      </trkpt>
      <trkpt lat="46.39338" lon="5.56556">
        <ele>480.6</ele>
        <time>2023-08-30T12:45:44Z</time>
      </trkpt>
      <trkpt lat="46.39337" lon="5.56553">
        <ele>480.6</ele>
        <time>2023-08-30T12:45:45Z</time>
      </trkpt>
      <trkpt lat="46.39337" lon="5.5655">
        <ele>480.6</ele>
        <time>2023-08-30T12:45:46Z</time>
      </trkpt>
      <trkpt lat="46.39334" lon="5.5655">
        <ele>480.6</ele>
        <time>2023-08-30T12:45:47Z</time>
      </trkpt>
      <trkpt lat="46.39333" lon="5.56549">
        <ele>480.6</ele>
        <time>2023-08-30T12:45:48Z</time>
      </trkpt>
      <trkpt lat="46.39332" lon="5.56547">
        <ele>480.6</ele>
        <time>2023-08-30T12:45:49Z</time>
      </trkpt>
      <trkpt lat="46.39331" lon="5.56546">
        <ele>480.8</ele>
        <time>2023-08-30T12:45:50Z</time>
      </trkpt>
      <trkpt lat="46.3933" lon="5.56545">
        <ele>480.6</ele>
        <time>2023-08-30T12:45:51Z</time>
      </trkpt>
      <trkpt lat="46.3933" lon="5.56544">
        <ele>480.6</ele>
        <time>2023-08-30T12:45:52Z</time>
      </trkpt>
      <trkpt lat="46.3933" lon="5.56542">
        <ele>480.6</ele>
        <time>2023-08-30T12:45:53Z</time>
      </trkpt>
      <trkpt lat="46.39329" lon="5.56541">
        <ele>480.6</ele>
        <time>2023-08-30T12:45:54Z</time>
      </trkpt>
      <trkpt lat="46.39328" lon="5.5654">
        <ele>480.6</ele>
        <time>2023-08-30T12:45:55Z</time>
      </trkpt>
      <trkpt lat="46.39327" lon="5.5654">
        <ele>480.6</ele>
        <time>2023-08-30T12:45:56Z</time>
      </trkpt>
      <trkpt lat="46.39326" lon="5.5654">
        <ele>480.6</ele>
        <time>2023-08-30T12:45:57Z</time>
      </trkpt>
      <trkpt lat="46.39324" lon="5.5654">
        <ele>480.6</ele>
        <time>2023-08-30T12:45:58Z</time>
      </trkpt>
      <trkpt lat="46.39323" lon="5.5654">
        <ele>480.6</ele>
        <time>2023-08-30T12:45:59Z</time>
      </trkpt>
      <trkpt lat="46.39322" lon="5.5654">
        <ele>480.6</ele>
        <time>2023-08-30T12:46:00Z</time>
      </trkpt>
      <trkpt lat="46.39321" lon="5.5654">
        <ele>480.6</ele>
        <time>2023-08-30T12:46:01Z</time>
      </trkpt>
      <trkpt lat="46.39321" lon="5.56537">
        <ele>480.6</ele>
        <time>2023-08-30T12:46:02Z</time>
      </trkpt>
      <trkpt lat="46.3932" lon="5.56536">
        <ele>480.6</ele>
        <time>2023-08-30T12:46:03Z</time>
      </trkpt>
      <trkpt lat="46.39318" lon="5.56536">
        <ele>480.6</ele>
        <time>2023-08-30T12:46:04Z</time>
      </trkpt>
      <trkpt lat="46.39317" lon="5.56535">
        <ele>480.6</ele>
        <time>2023-08-30T12:46:05Z</time>
      </trkpt>
      <trkpt lat="46.39315" lon="5.56535">
        <ele>480.6</ele>
        <time>2023-08-30T12:46:06Z</time>
      </trkpt>
      <trkpt lat="46.39313" lon="5.56536">
        <ele>480.4</ele>
        <time>2023-08-30T12:46:07Z</time>
      </trkpt>
      <trkpt lat="46.3931" lon="5.56536">
        <ele>480.4</ele>
        <time>2023-08-30T12:46:08Z</time>
      </trkpt>
      <trkpt lat="46.39309" lon="5.56535">
        <ele>480.4</ele>
        <time>2023-08-30T12:46:09Z</time>
      </trkpt>
      <trkpt lat="46.39308" lon="5.56535">
        <ele>480.4</ele>
        <time>2023-08-30T12:46:10Z</time>
      </trkpt>
      <trkpt lat="46.39307" lon="5.56535">
        <ele>480.4</ele>
        <time>2023-08-30T12:46:11Z</time>
      </trkpt>
      <trkpt lat="46.39306" lon="5.56535">
        <ele>480.4</ele>
        <time>2023-08-30T12:46:12Z</time>
      </trkpt>
      <trkpt lat="46.39305" lon="5.56534">
        <ele>480.4</ele>
        <time>2023-08-30T12:46:13Z</time>
      </trkpt>
      <trkpt lat="46.39304" lon="5.56533">
        <ele>480.4</ele>
        <time>2023-08-30T12:46:14Z</time>
      </trkpt>
      <trkpt lat="46.39303" lon="5.56532">
        <ele>480.4</ele>
        <time>2023-08-30T12:46:15Z</time>
      </trkpt>
      <trkpt lat="46.39302" lon="5.56531">
        <ele>480.2</ele>
        <time>2023-08-30T12:46:16Z</time>
      </trkpt>
      <trkpt lat="46.39301" lon="5.56529">
        <ele>480.2</ele>
        <time>2023-08-30T12:46:17Z</time>
      </trkpt>
      <trkpt lat="46.39301" lon="5.56527">
        <ele>480.2</ele>
        <time>2023-08-30T12:46:18Z</time>
      </trkpt>
      <trkpt lat="46.393" lon="5.56526">
        <ele>480.2</ele>
        <time>2023-08-30T12:46:19Z</time>
      </trkpt>
      <trkpt lat="46.39299" lon="5.56525">
        <ele>480.2</ele>
        <time>2023-08-30T12:46:20Z</time>
      </trkpt>
      <trkpt lat="46.39299" lon="5.56523">
        <ele>479.8</ele>
        <time>2023-08-30T12:46:21Z</time>
      </trkpt>
      <trkpt lat="46.39299" lon="5.56522">
        <ele>479.8</ele>
        <time>2023-08-30T12:46:22Z</time>
      </trkpt>
      <trkpt lat="46.39298" lon="5.56521">
        <ele>479.8</ele>
        <time>2023-08-30T12:46:23Z</time>
      </trkpt>
      <trkpt lat="46.39297" lon="5.56521">
        <ele>479.8</ele>
        <time>2023-08-30T12:46:24Z</time>
      </trkpt>
      <trkpt lat="46.39295" lon="5.56521">
        <ele>479.8</ele>
        <time>2023-08-30T12:46:25Z</time>
      </trkpt>
      <trkpt lat="46.39294" lon="5.56521">
        <ele>479.8</ele>
        <time>2023-08-30T12:46:26Z</time>
      </trkpt>
      <trkpt lat="46.39293" lon="5.56521">
        <ele>479.6</ele>
        <time>2023-08-30T12:46:27Z</time>
      </trkpt>
      <trkpt lat="46.39292" lon="5.56521">
        <ele>479.6</ele>
        <time>2023-08-30T12:46:28Z</time>
      </trkpt>
      <trkpt lat="46.39293" lon="5.56516">
        <ele>479</ele>
        <time>2023-08-30T12:46:34Z</time>
      </trkpt>
      <trkpt lat="46.39295" lon="5.56513">
        <ele>479</ele>
        <time>2023-08-30T12:46:35Z</time>
      </trkpt>
      <trkpt lat="46.39296" lon="5.56511">
        <ele>479</ele>
        <time>2023-08-30T12:46:36Z</time>
      </trkpt>
      <trkpt lat="46.39297" lon="5.56507">
        <ele>479</ele>
        <time>2023-08-30T12:46:37Z</time>
      </trkpt>
      <trkpt lat="46.39298" lon="5.56505">
        <ele>479</ele>
        <time>2023-08-30T12:46:38Z</time>
      </trkpt>
      <trkpt lat="46.39299" lon="5.56502">
        <ele>478.8</ele>
        <time>2023-08-30T12:46:39Z</time>
      </trkpt>
      <trkpt lat="46.39299" lon="5.56501">
        <ele>478.8</ele>
        <time>2023-08-30T12:46:40Z</time>
      </trkpt>
      <trkpt lat="46.393" lon="5.56499">
        <ele>478.8</ele>
        <time>2023-08-30T12:46:41Z</time>
      </trkpt>
      <trkpt lat="46.393" lon="5.56498">
        <ele>478.8</ele>
        <time>2023-08-30T12:46:42Z</time>
      </trkpt>
      <trkpt lat="46.39301" lon="5.56496">
        <ele>478.8</ele>
        <time>2023-08-30T12:46:43Z</time>
      </trkpt>
      <trkpt lat="46.39302" lon="5.56495">
        <ele>478.8</ele>
        <time>2023-08-30T12:46:44Z</time>
      </trkpt>
      <trkpt lat="46.39303" lon="5.56494">
        <ele>478.8</ele>
        <time>2023-08-30T12:46:45Z</time>
      </trkpt>
      <trkpt lat="46.39305" lon="5.56493">
        <ele>478.8</ele>
        <time>2023-08-30T12:46:46Z</time>
      </trkpt>
      <trkpt lat="46.39306" lon="5.56493">
        <ele>478.8</ele>
        <time>2023-08-30T12:46:47Z</time>
      </trkpt>
      <trkpt lat="46.39306" lon="5.56493">
        <ele>478.8</ele>
        <time>2023-08-30T12:46:48Z</time>
      </trkpt>
      <trkpt lat="46.3932" lon="5.56501">
        <ele>475.8</ele>
        <time>2023-08-30T12:50:27Z</time>
      </trkpt>
      <trkpt lat="46.39322" lon="5.56503">
        <ele>475.8</ele>
        <time>2023-08-30T12:50:28Z</time>
      </trkpt>
      <trkpt lat="46.39324" lon="5.56504">
        <ele>476</ele>
        <time>2023-08-30T12:50:29Z</time>
      </trkpt>
      <trkpt lat="46.39325" lon="5.56506">
        <ele>476</ele>
        <time>2023-08-30T12:50:30Z</time>
      </trkpt>
      <trkpt lat="46.39326" lon="5.56507">
        <ele>476</ele>
        <time>2023-08-30T12:50:31Z</time>
      </trkpt>
      <trkpt lat="46.39328" lon="5.56509">
        <ele>476</ele>
        <time>2023-08-30T12:50:32Z</time>
      </trkpt>
      <trkpt lat="46.39329" lon="5.56511">
        <ele>476.4</ele>
        <time>2023-08-30T12:50:33Z</time>
      </trkpt>
      <trkpt lat="46.3933" lon="5.56512">
        <ele>476.4</ele>
        <time>2023-08-30T12:50:34Z</time>
      </trkpt>
      <trkpt lat="46.39331" lon="5.56513">
        <ele>476.4</ele>
        <time>2023-08-30T12:50:35Z</time>
      </trkpt>
      <trkpt lat="46.39332" lon="5.56515">
        <ele>476.4</ele>
        <time>2023-08-30T12:50:36Z</time>
      </trkpt>
      <trkpt lat="46.39333" lon="5.56517">
        <ele>476.4</ele>
        <time>2023-08-30T12:50:37Z</time>
      </trkpt>
      <trkpt lat="46.39335" lon="5.56519">
        <ele>476.6</ele>
        <time>2023-08-30T12:50:38Z</time>
      </trkpt>
      <trkpt lat="46.39336" lon="5.5652">
        <ele>476.6</ele>
        <time>2023-08-30T12:50:39Z</time>
      </trkpt>
      <trkpt lat="46.39337" lon="5.56521">
        <ele>476.6</ele>
        <time>2023-08-30T12:50:40Z</time>
      </trkpt>
      <trkpt lat="46.39339" lon="5.56522">
        <ele>476.6</ele>
        <time>2023-08-30T12:50:41Z</time>
      </trkpt>
      <trkpt lat="46.39341" lon="5.56523">
        <ele>476.6</ele>
        <time>2023-08-30T12:50:42Z</time>
      </trkpt>
      <trkpt lat="46.39343" lon="5.56524">
        <ele>476.6</ele>
        <time>2023-08-30T12:50:43Z</time>
      </trkpt>
      <trkpt lat="46.39344" lon="5.56525">
        <ele>476.6</ele>
        <time>2023-08-30T12:50:44Z</time>
      </trkpt>
      <trkpt lat="46.39346" lon="5.56526">
        <ele>476.6</ele>
        <time>2023-08-30T12:50:45Z</time>
      </trkpt>
      <trkpt lat="46.39347" lon="5.56528">
        <ele>476.6</ele>
        <time>2023-08-30T12:50:46Z</time>
      </trkpt>
      <trkpt lat="46.39349" lon="5.5653">
        <ele>476.8</ele>
        <time>2023-08-30T12:50:47Z</time>
      </trkpt>
      <trkpt lat="46.3935" lon="5.56532">
        <ele>476.8</ele>
        <time>2023-08-30T12:50:48Z</time>
      </trkpt>
      <trkpt lat="46.39352" lon="5.56534">
        <ele>476.8</ele>
        <time>2023-08-30T12:50:49Z</time>
      </trkpt>
      <trkpt lat="46.39354" lon="5.56535">
        <ele>476.8</ele>
        <time>2023-08-30T12:50:50Z</time>
      </trkpt>
      <trkpt lat="46.39356" lon="5.56536">
        <ele>477</ele>
        <time>2023-08-30T12:50:51Z</time>
      </trkpt>
      <trkpt lat="46.39357" lon="5.56537">
        <ele>477</ele>
        <time>2023-08-30T12:50:52Z</time>
      </trkpt>
      <trkpt lat="46.39359" lon="5.56538">
        <ele>477</ele>
        <time>2023-08-30T12:50:53Z</time>
      </trkpt>
      <trkpt lat="46.39361" lon="5.56539">
        <ele>477</ele>
        <time>2023-08-30T12:50:54Z</time>
      </trkpt>
      <trkpt lat="46.39363" lon="5.5654">
        <ele>477</ele>
        <time>2023-08-30T12:50:55Z</time>
      </trkpt>
      <trkpt lat="46.39364" lon="5.56542">
        <ele>477</ele>
        <time>2023-08-30T12:50:56Z</time>
      </trkpt>
      <trkpt lat="46.39365" lon="5.56544">
        <ele>477</ele>
        <time>2023-08-30T12:50:57Z</time>
      </trkpt>
      <trkpt lat="46.39367" lon="5.56546">
        <ele>477</ele>
        <time>2023-08-30T12:50:58Z</time>
      </trkpt>
      <trkpt lat="46.39368" lon="5.5655">
        <ele>477.6</ele>
        <time>2023-08-30T12:50:59Z</time>
      </trkpt>
      <trkpt lat="46.39369" lon="5.56552">
        <ele>477.6</ele>
        <time>2023-08-30T12:51:00Z</time>
      </trkpt>
      <trkpt lat="46.39369" lon="5.56556">
        <ele>477.6</ele>
        <time>2023-08-30T12:51:01Z</time>
      </trkpt>
      <trkpt lat="46.39369" lon="5.56559">
        <ele>477.6</ele>
        <time>2023-08-30T12:51:02Z</time>
      </trkpt>
      <trkpt lat="46.39368" lon="5.56562">
        <ele>477.6</ele>
        <time>2023-08-30T12:51:03Z</time>
      </trkpt>
      <trkpt lat="46.39367" lon="5.56565">
        <ele>478</ele>
        <time>2023-08-30T12:51:04Z</time>
      </trkpt>
      <trkpt lat="46.39366" lon="5.56568">
        <ele>478</ele>
        <time>2023-08-30T12:51:05Z</time>
      </trkpt>
      <trkpt lat="46.39366" lon="5.5657">
        <ele>478</ele>
        <time>2023-08-30T12:51:06Z</time>
      </trkpt>
      <trkpt lat="46.39365" lon="5.56573">
        <ele>478</ele>
        <time>2023-08-30T12:51:07Z</time>
      </trkpt>
      <trkpt lat="46.39365" lon="5.56576">
        <ele>478</ele>
        <time>2023-08-30T12:51:08Z</time>
      </trkpt>
      <trkpt lat="46.39365" lon="5.56578">
        <ele>478.4</ele>
        <time>2023-08-30T12:51:09Z</time>
      </trkpt>
      <trkpt lat="46.39364" lon="5.5658">
        <ele>478.4</ele>
        <time>2023-08-30T12:51:10Z</time>
      </trkpt>
      <trkpt lat="46.39364" lon="5.56583">
        <ele>478.4</ele>
        <time>2023-08-30T12:51:11Z</time>
      </trkpt>
      <trkpt lat="46.39363" lon="5.56585">
        <ele>478.4</ele>
        <time>2023-08-30T12:51:12Z</time>
      </trkpt>
      <trkpt lat="46.39362" lon="5.56586">
        <ele>478.8</ele>
        <time>2023-08-30T12:51:13Z</time>
      </trkpt>
      <trkpt lat="46.39361" lon="5.56587">
        <ele>478.8</ele>
        <time>2023-08-30T12:51:14Z</time>
      </trkpt>
      <trkpt lat="46.3936" lon="5.56588">
        <ele>478.8</ele>
        <time>2023-08-30T12:51:15Z</time>
      </trkpt>
      <trkpt lat="46.3936" lon="5.5659">
        <ele>478.8</ele>
        <time>2023-08-30T12:51:16Z</time>
      </trkpt>
      <trkpt lat="46.39359" lon="5.56591">
        <ele>478.8</ele>
        <time>2023-08-30T12:51:17Z</time>
      </trkpt>
      <trkpt lat="46.39359" lon="5.56592">
        <ele>478.8</ele>
        <time>2023-08-30T12:51:18Z</time>
      </trkpt>
      <trkpt lat="46.39358" lon="5.56593">
        <ele>479</ele>
        <time>2023-08-30T12:51:19Z</time>
      </trkpt>
      <trkpt lat="46.39357" lon="5.56592">
        <ele>479</ele>
        <time>2023-08-30T12:51:20Z</time>
      </trkpt>
      <trkpt lat="46.39356" lon="5.56592">
        <ele>479</ele>
        <time>2023-08-30T12:51:21Z</time>
      </trkpt>
      <trkpt lat="46.39355" lon="5.56591">
        <ele>479.4</ele>
        <time>2023-08-30T12:51:22Z</time>
      </trkpt>
      <trkpt lat="46.39354" lon="5.56591">
        <ele>479.4</ele>
        <time>2023-08-30T12:51:23Z</time>
      </trkpt>
      <trkpt lat="46.39353" lon="5.56591">
        <ele>479.4</ele>
        <time>2023-08-30T12:51:24Z</time>
      </trkpt>
      <trkpt lat="46.39352" lon="5.56591">
        <ele>479.4</ele>
        <time>2023-08-30T12:51:25Z</time>
      </trkpt>
      <trkpt lat="46.39351" lon="5.5659">
        <ele>479.6</ele>
        <time>2023-08-30T12:51:26Z</time>
      </trkpt>
      <trkpt lat="46.39349" lon="5.5659">
        <ele>479.6</ele>
        <time>2023-08-30T12:51:27Z</time>
      </trkpt>
      <trkpt lat="46.39348" lon="5.5659">
        <ele>479.4</ele>
        <time>2023-08-30T12:51:28Z</time>
      </trkpt>
      <trkpt lat="46.39347" lon="5.5659">
        <ele>479.4</ele>
        <time>2023-08-30T12:51:29Z</time>
      </trkpt>
      <trkpt lat="46.39346" lon="5.56589">
        <ele>479.4</ele>
        <time>2023-08-30T12:51:30Z</time>
      </trkpt>
      <trkpt lat="46.39345" lon="5.56588">
        <ele>479.4</ele>
        <time>2023-08-30T12:51:31Z</time>
      </trkpt>
      <trkpt lat="46.39345" lon="5.56587">
        <ele>479.8</ele>
        <time>2023-08-30T12:51:32Z</time>
      </trkpt>
      <trkpt lat="46.39346" lon="5.56593">
        <ele>478.8</ele>
        <time>2023-08-30T13:22:50Z</time>
      </trkpt>
      <trkpt lat="46.39347" lon="5.56595">
        <ele>478.8</ele>
        <time>2023-08-30T13:22:51Z</time>
      </trkpt>
      <trkpt lat="46.39349" lon="5.56597">
        <ele>478.8</ele>
        <time>2023-08-30T13:22:52Z</time>
      </trkpt>
      <trkpt lat="46.3935" lon="5.56599">
        <ele>478.6</ele>
        <time>2023-08-30T13:22:53Z</time>
      </trkpt>
      <trkpt lat="46.39351" lon="5.56602">
        <ele>478.6</ele>
        <time>2023-08-30T13:22:54Z</time>
      </trkpt>
      <trkpt lat="46.39351" lon="5.56604">
        <ele>478.6</ele>
        <time>2023-08-30T13:22:55Z</time>
      </trkpt>
      <trkpt lat="46.39352" lon="5.56606">
        <ele>478.6</ele>
        <time>2023-08-30T13:22:56Z</time>
      </trkpt>
      <trkpt lat="46.39352" lon="5.56609">
        <ele>478.4</ele>
        <time>2023-08-30T13:22:57Z</time>
      </trkpt>
      <trkpt lat="46.39352" lon="5.5661">
        <ele>478.2</ele>
        <time>2023-08-30T13:22:58Z</time>
      </trkpt>
      <trkpt lat="46.39352" lon="5.56611">
        <ele>478.2</ele>
        <time>2023-08-30T13:22:59Z</time>
      </trkpt>
      <trkpt lat="46.39352" lon="5.56612">
        <ele>478.2</ele>
        <time>2023-08-30T13:23:00Z</time>
      </trkpt>
      <trkpt lat="46.39352" lon="5.56613">
        <ele>477.8</ele>
        <time>2023-08-30T13:23:01Z</time>
      </trkpt>
      <trkpt lat="46.39352" lon="5.56616">
        <ele>477.6</ele>
        <time>2023-08-30T13:23:02Z</time>
      </trkpt>
      <trkpt lat="46.39351" lon="5.56618">
        <ele>477.6</ele>
        <time>2023-08-30T13:23:03Z</time>
      </trkpt>
      <trkpt lat="46.3935" lon="5.56621">
        <ele>477.6</ele>
        <time>2023-08-30T13:23:04Z</time>
      </trkpt>
      <trkpt lat="46.39349" lon="5.56623">
        <ele>477.6</ele>
        <time>2023-08-30T13:23:05Z</time>
      </trkpt>
      <trkpt lat="46.39348" lon="5.56626">
        <ele>477.2</ele>
        <time>2023-08-30T13:23:06Z</time>
      </trkpt>
      <trkpt lat="46.39347" lon="5.56628">
        <ele>476.8</ele>
        <time>2023-08-30T13:23:07Z</time>
      </trkpt>
      <trkpt lat="46.39347" lon="5.5663">
        <ele>476.8</ele>
        <time>2023-08-30T13:23:08Z</time>
      </trkpt>
      <trkpt lat="46.39346" lon="5.56633">
        <ele>476.8</ele>
        <time>2023-08-30T13:23:09Z</time>
      </trkpt>
      <trkpt lat="46.39346" lon="5.56635">
        <ele>476.8</ele>
        <time>2023-08-30T13:23:10Z</time>
      </trkpt>
      <trkpt lat="46.39345" lon="5.56638">
        <ele>476.4</ele>
        <time>2023-08-30T13:23:11Z</time>
      </trkpt>
      <trkpt lat="46.39344" lon="5.5664">
        <ele>476.6</ele>
        <time>2023-08-30T13:23:12Z</time>
      </trkpt>
      <trkpt lat="46.39345" lon="5.56643">
        <ele>476.6</ele>
        <time>2023-08-30T13:23:13Z</time>
      </trkpt>
      <trkpt lat="46.39345" lon="5.56645">
        <ele>476.6</ele>
        <time>2023-08-30T13:23:14Z</time>
      </trkpt>
      <trkpt lat="46.39345" lon="5.56647">
        <ele>476.8</ele>
        <time>2023-08-30T13:23:15Z</time>
      </trkpt>
      <trkpt lat="46.39345" lon="5.56649">
        <ele>477</ele>
        <time>2023-08-30T13:23:16Z</time>
      </trkpt>
      <trkpt lat="46.39346" lon="5.56652">
        <ele>477</ele>
        <time>2023-08-30T13:23:17Z</time>
      </trkpt>
      <trkpt lat="46.39346" lon="5.56656">
        <ele>477</ele>
        <time>2023-08-30T13:23:18Z</time>
      </trkpt>
      <trkpt lat="46.39346" lon="5.56659">
        <ele>477.4</ele>
        <time>2023-08-30T13:23:19Z</time>
      </trkpt>
      <trkpt lat="46.39345" lon="5.56663">
        <ele>477.6</ele>
        <time>2023-08-30T13:23:20Z</time>
      </trkpt>
      <trkpt lat="46.39344" lon="5.56666">
        <ele>477.6</ele>
        <time>2023-08-30T13:23:21Z</time>
      </trkpt>
      <trkpt lat="46.39344" lon="5.5667">
        <ele>477.6</ele>
        <time>2023-08-30T13:23:22Z</time>
      </trkpt>
      <trkpt lat="46.39344" lon="5.56673">
        <ele>477.6</ele>
        <time>2023-08-30T13:23:23Z</time>
      </trkpt>
      <trkpt lat="46.39344" lon="5.56676">
        <ele>478.4</ele>
        <time>2023-08-30T13:23:24Z</time>
      </trkpt>
      <trkpt lat="46.39343" lon="5.56679">
        <ele>478.4</ele>
        <time>2023-08-30T13:23:25Z</time>
      </trkpt>
      <trkpt lat="46.39342" lon="5.56682">
        <ele>478.6</ele>
        <time>2023-08-30T13:23:26Z</time>
      </trkpt>
      <trkpt lat="46.39341" lon="5.56685">
        <ele>478.6</ele>
        <time>2023-08-30T13:23:27Z</time>
      </trkpt>
      <trkpt lat="46.3934" lon="5.56688">
        <ele>478.6</ele>
        <time>2023-08-30T13:23:28Z</time>
      </trkpt>
      <trkpt lat="46.39339" lon="5.56691">
        <ele>479.2</ele>
        <time>2023-08-30T13:23:29Z</time>
      </trkpt>
      <trkpt lat="46.39339" lon="5.56694">
        <ele>479.4</ele>
        <time>2023-08-30T13:23:30Z</time>
      </trkpt>
      <trkpt lat="46.39339" lon="5.56696">
        <ele>479.4</ele>
        <time>2023-08-30T13:23:31Z</time>
      </trkpt>
      <trkpt lat="46.39338" lon="5.56699">
        <ele>479.4</ele>
        <time>2023-08-30T13:23:32Z</time>
      </trkpt>
      <trkpt lat="46.39337" lon="5.56702">
        <ele>480</ele>
        <time>2023-08-30T13:23:33Z</time>
      </trkpt>
      <trkpt lat="46.39336" lon="5.56705">
        <ele>480</ele>
        <time>2023-08-30T13:23:34Z</time>
      </trkpt>
      <trkpt lat="46.39335" lon="5.56708">
        <ele>480</ele>
        <time>2023-08-30T13:23:35Z</time>
      </trkpt>
      <trkpt lat="46.39334" lon="5.56711">
        <ele>480</ele>
        <time>2023-08-30T13:23:36Z</time>
      </trkpt>
      <trkpt lat="46.39332" lon="5.56713">
        <ele>480</ele>
        <time>2023-08-30T13:23:37Z</time>
      </trkpt>
      <trkpt lat="46.39331" lon="5.56716">
        <ele>480</ele>
        <time>2023-08-30T13:23:38Z</time>
      </trkpt>
      <trkpt lat="46.3933" lon="5.56718">
        <ele>480.2</ele>
        <time>2023-08-30T13:23:39Z</time>
      </trkpt>
      <trkpt lat="46.39329" lon="5.56721">
        <ele>480.2</ele>
        <time>2023-08-30T13:23:40Z</time>
      </trkpt>
      <trkpt lat="46.39329" lon="5.56724">
        <ele>480.2</ele>
        <time>2023-08-30T13:23:41Z</time>
      </trkpt>
      <trkpt lat="46.3933" lon="5.56726">
        <ele>480.2</ele>
        <time>2023-08-30T13:23:42Z</time>
      </trkpt>
      <trkpt lat="46.39331" lon="5.56728">
        <ele>480.4</ele>
        <time>2023-08-30T13:23:43Z</time>
      </trkpt>
      <trkpt lat="46.39332" lon="5.5673">
        <ele>480.4</ele>
        <time>2023-08-30T13:23:44Z</time>
      </trkpt>
      <trkpt lat="46.39334" lon="5.56732">
        <ele>480.4</ele>
        <time>2023-08-30T13:23:45Z</time>
      </trkpt>
      <trkpt lat="46.39335" lon="5.56733">
        <ele>481</ele>
        <time>2023-08-30T13:23:46Z</time>
      </trkpt>
      <trkpt lat="46.39337" lon="5.56735">
        <ele>481</ele>
        <time>2023-08-30T13:23:47Z</time>
      </trkpt>
      <trkpt lat="46.39339" lon="5.56737">
        <ele>481</ele>
        <time>2023-08-30T13:23:48Z</time>
      </trkpt>
      <trkpt lat="46.39341" lon="5.56738">
        <ele>481</ele>
        <time>2023-08-30T13:23:49Z</time>
      </trkpt>
      <trkpt lat="46.39342" lon="5.5674">
        <ele>481</ele>
        <time>2023-08-30T13:23:50Z</time>
      </trkpt>
      <trkpt lat="46.39344" lon="5.56742">
        <ele>481</ele>
        <time>2023-08-30T13:23:51Z</time>
      </trkpt>
      <trkpt lat="46.39345" lon="5.56744">
        <ele>481.4</ele>
        <time>2023-08-30T13:23:52Z</time>
      </trkpt>
      <trkpt lat="46.39346" lon="5.56746">
        <ele>481.6</ele>
        <time>2023-08-30T13:23:53Z</time>
      </trkpt>
      <trkpt lat="46.39347" lon="5.56748">
        <ele>481.6</ele>
        <time>2023-08-30T13:23:54Z</time>
      </trkpt>
      <trkpt lat="46.39348" lon="5.56751">
        <ele>481.6</ele>
        <time>2023-08-30T13:23:55Z</time>
      </trkpt>
      <trkpt lat="46.39348" lon="5.56754">
        <ele>481.6</ele>
        <time>2023-08-30T13:23:56Z</time>
      </trkpt>
      <trkpt lat="46.39349" lon="5.56757">
        <ele>482</ele>
        <time>2023-08-30T13:23:57Z</time>
      </trkpt>
      <trkpt lat="46.39349" lon="5.5676">
        <ele>482.2</ele>
        <time>2023-08-30T13:23:58Z</time>
      </trkpt>
      <trkpt lat="46.39351" lon="5.56763">
        <ele>482.2</ele>
        <time>2023-08-30T13:23:59Z</time>
      </trkpt>
      <trkpt lat="46.39353" lon="5.56764">
        <ele>482.2</ele>
        <time>2023-08-30T13:24:00Z</time>
      </trkpt>
      <trkpt lat="46.39355" lon="5.56765">
        <ele>482.8</ele>
        <time>2023-08-30T13:24:01Z</time>
      </trkpt>
      <trkpt lat="46.39358" lon="5.56766">
        <ele>483</ele>
        <time>2023-08-30T13:24:02Z</time>
      </trkpt>
      <trkpt lat="46.39361" lon="5.56765">
        <ele>483</ele>
        <time>2023-08-30T13:24:03Z</time>
      </trkpt>
      <trkpt lat="46.39363" lon="5.56766">
        <ele>483</ele>
        <time>2023-08-30T13:24:04Z</time>
      </trkpt>
      <trkpt lat="46.39366" lon="5.56769">
        <ele>483.6</ele>
        <time>2023-08-30T13:24:05Z</time>
      </trkpt>
      <trkpt lat="46.39368" lon="5.5677">
        <ele>483.6</ele>
        <time>2023-08-30T13:24:06Z</time>
      </trkpt>
      <trkpt lat="46.39368" lon="5.56772">
        <ele>483.8</ele>
        <time>2023-08-30T13:24:07Z</time>
      </trkpt>
      <trkpt lat="46.39367" lon="5.56774">
        <ele>483.8</ele>
        <time>2023-08-30T13:24:08Z</time>
      </trkpt>
      <trkpt lat="46.39366" lon="5.56777">
        <ele>483.8</ele>
        <time>2023-08-30T13:24:09Z</time>
      </trkpt>
      <trkpt lat="46.39365" lon="5.56779">
        <ele>484</ele>
        <time>2023-08-30T13:24:10Z</time>
      </trkpt>
      <trkpt lat="46.39364" lon="5.56781">
        <ele>484</ele>
        <time>2023-08-30T13:24:11Z</time>
      </trkpt>
      <trkpt lat="46.39362" lon="5.56782">
        <ele>484</ele>
        <time>2023-08-30T13:24:12Z</time>
      </trkpt>
      <trkpt lat="46.3936" lon="5.56784">
        <ele>484</ele>
        <time>2023-08-30T13:24:13Z</time>
      </trkpt>
      <trkpt lat="46.39358" lon="5.56788">
        <ele>484</ele>
        <time>2023-08-30T13:24:14Z</time>
      </trkpt>
      <trkpt lat="46.39357" lon="5.56791">
        <ele>484.4</ele>
        <time>2023-08-30T13:24:15Z</time>
      </trkpt>
      <trkpt lat="46.39356" lon="5.56795">
        <ele>484.4</ele>
        <time>2023-08-30T13:24:16Z</time>
      </trkpt>
      <trkpt lat="46.39355" lon="5.56799">
        <ele>484.4</ele>
        <time>2023-08-30T13:24:17Z</time>
      </trkpt>
      <trkpt lat="46.39354" lon="5.56804">
        <ele>484.4</ele>
        <time>2023-08-30T13:24:18Z</time>
      </trkpt>
      <trkpt lat="46.39351" lon="5.56807">
        <ele>484.4</ele>
        <time>2023-08-30T13:24:19Z</time>
      </trkpt>
      <trkpt lat="46.3935" lon="5.5681">
        <ele>485</ele>
        <time>2023-08-30T13:24:20Z</time>
      </trkpt>
      <trkpt lat="46.3935" lon="5.56813">
        <ele>485.2</ele>
        <time>2023-08-30T13:24:21Z</time>
      </trkpt>
      <trkpt lat="46.39348" lon="5.56815">
        <ele>485.2</ele>
        <time>2023-08-30T13:24:22Z</time>
      </trkpt>
      <trkpt lat="46.39347" lon="5.56818">
        <ele>485.2</ele>
        <time>2023-08-30T13:24:23Z</time>
      </trkpt>
      <trkpt lat="46.39344" lon="5.56821">
        <ele>485.2</ele>
        <time>2023-08-30T13:24:24Z</time>
      </trkpt>
      <trkpt lat="46.39343" lon="5.56824">
        <ele>485.4</ele>
        <time>2023-08-30T13:24:25Z</time>
      </trkpt>
      <trkpt lat="46.39341" lon="5.56825">
        <ele>485.4</ele>
        <time>2023-08-30T13:24:26Z</time>
      </trkpt>
      <trkpt lat="46.39339" lon="5.56825">
        <ele>485.4</ele>
        <time>2023-08-30T13:24:27Z</time>
      </trkpt>
      <trkpt lat="46.39336" lon="5.56825">
        <ele>485.8</ele>
        <time>2023-08-30T13:24:28Z</time>
      </trkpt>
      <trkpt lat="46.39334" lon="5.56825">
        <ele>486</ele>
        <time>2023-08-30T13:24:29Z</time>
      </trkpt>
      <trkpt lat="46.39331" lon="5.56826">
        <ele>486</ele>
        <time>2023-08-30T13:24:30Z</time>
      </trkpt>
      <trkpt lat="46.39329" lon="5.56826">
        <ele>486</ele>
        <time>2023-08-30T13:24:31Z</time>
      </trkpt>
      <trkpt lat="46.39327" lon="5.56826">
        <ele>486</ele>
        <time>2023-08-30T13:24:32Z</time>
      </trkpt>
      <trkpt lat="46.39324" lon="5.56827">
        <ele>486</ele>
        <time>2023-08-30T13:24:33Z</time>
      </trkpt>
      <trkpt lat="46.39321" lon="5.56828">
        <ele>486</ele>
        <time>2023-08-30T13:24:34Z</time>
      </trkpt>
      <trkpt lat="46.39318" lon="5.56829">
        <ele>485.6</ele>
        <time>2023-08-30T13:24:35Z</time>
      </trkpt>
      <trkpt lat="46.39315" lon="5.5683">
        <ele>485.6</ele>
        <time>2023-08-30T13:24:36Z</time>
      </trkpt>
      <trkpt lat="46.39313" lon="5.5683">
        <ele>485.6</ele>
        <time>2023-08-30T13:24:37Z</time>
      </trkpt>
      <trkpt lat="46.39311" lon="5.56831">
        <ele>486</ele>
        <time>2023-08-30T13:24:38Z</time>
      </trkpt>
      <trkpt lat="46.3931" lon="5.56833">
        <ele>486.2</ele>
        <time>2023-08-30T13:24:39Z</time>
      </trkpt>
      <trkpt lat="46.39308" lon="5.56837">
        <ele>486.2</ele>
        <time>2023-08-30T13:24:40Z</time>
      </trkpt>
      <trkpt lat="46.39305" lon="5.56841">
        <ele>486.2</ele>
        <time>2023-08-30T13:24:41Z</time>
      </trkpt>
      <trkpt lat="46.39303" lon="5.56845">
        <ele>486.2</ele>
        <time>2023-08-30T13:24:42Z</time>
      </trkpt>
      <trkpt lat="46.393" lon="5.56849">
        <ele>486.8</ele>
        <time>2023-08-30T13:24:43Z</time>
      </trkpt>
      <trkpt lat="46.39298" lon="5.56853">
        <ele>486.8</ele>
        <time>2023-08-30T13:24:44Z</time>
      </trkpt>
      <trkpt lat="46.39295" lon="5.56857">
        <ele>486.8</ele>
        <time>2023-08-30T13:24:45Z</time>
      </trkpt>
      <trkpt lat="46.39293" lon="5.5686">
        <ele>486.8</ele>
        <time>2023-08-30T13:24:46Z</time>
      </trkpt>
      <trkpt lat="46.39293" lon="5.56864">
        <ele>486.8</ele>
        <time>2023-08-30T13:24:47Z</time>
      </trkpt>
      <trkpt lat="46.39291" lon="5.56866">
        <ele>486.8</ele>
        <time>2023-08-30T13:24:48Z</time>
      </trkpt>
      <trkpt lat="46.3929" lon="5.56869">
        <ele>486.8</ele>
        <time>2023-08-30T13:24:49Z</time>
      </trkpt>
      <trkpt lat="46.39287" lon="5.56871">
        <ele>486.8</ele>
        <time>2023-08-30T13:24:50Z</time>
      </trkpt>
      <trkpt lat="46.39285" lon="5.56874">
        <ele>486.8</ele>
        <time>2023-08-30T13:24:51Z</time>
      </trkpt>
      <trkpt lat="46.39282" lon="5.56875">
        <ele>486.8</ele>
        <time>2023-08-30T13:24:52Z</time>
      </trkpt>
      <trkpt lat="46.39279" lon="5.56877">
        <ele>486.8</ele>
        <time>2023-08-30T13:24:53Z</time>
      </trkpt>
      <trkpt lat="46.39277" lon="5.56879">
        <ele>486.8</ele>
        <time>2023-08-30T13:24:54Z</time>
      </trkpt>
      <trkpt lat="46.39275" lon="5.56882">
        <ele>486.8</ele>
        <time>2023-08-30T13:24:55Z</time>
      </trkpt>
      <trkpt lat="46.39272" lon="5.56886">
        <ele>486.8</ele>
        <time>2023-08-30T13:24:56Z</time>
      </trkpt>
      <trkpt lat="46.3927" lon="5.56889">
        <ele>486.6</ele>
        <time>2023-08-30T13:24:57Z</time>
      </trkpt>
      <trkpt lat="46.39268" lon="5.56892">
        <ele>486.6</ele>
        <time>2023-08-30T13:24:58Z</time>
      </trkpt>
      <trkpt lat="46.39266" lon="5.56894">
        <ele>486.6</ele>
        <time>2023-08-30T13:24:59Z</time>
      </trkpt>
      <trkpt lat="46.39263" lon="5.56896">
        <ele>486.4</ele>
        <time>2023-08-30T13:25:00Z</time>
      </trkpt>
      <trkpt lat="46.3926" lon="5.56899">
        <ele>486.4</ele>
        <time>2023-08-30T13:25:01Z</time>
      </trkpt>
      <trkpt lat="46.39258" lon="5.56901">
        <ele>486.4</ele>
        <time>2023-08-30T13:25:02Z</time>
      </trkpt>
      <trkpt lat="46.39255" lon="5.56903">
        <ele>486.4</ele>
        <time>2023-08-30T13:25:03Z</time>
      </trkpt>
      <trkpt lat="46.39252" lon="5.56904">
        <ele>486.4</ele>
        <time>2023-08-30T13:25:04Z</time>
      </trkpt>
      <trkpt lat="46.39249" lon="5.56905">
        <ele>486</ele>
        <time>2023-08-30T13:25:05Z</time>
      </trkpt>
      <trkpt lat="46.39246" lon="5.56906">
        <ele>485.8</ele>
        <time>2023-08-30T13:25:06Z</time>
      </trkpt>
      <trkpt lat="46.39242" lon="5.56907">
        <ele>485.8</ele>
        <time>2023-08-30T13:25:07Z</time>
      </trkpt>
      <trkpt lat="46.39239" lon="5.56908">
        <ele>485.8</ele>
        <time>2023-08-30T13:25:08Z</time>
      </trkpt>
      <trkpt lat="46.39236" lon="5.56909">
        <ele>485.4</ele>
        <time>2023-08-30T13:25:09Z</time>
      </trkpt>
      <trkpt lat="46.39233" lon="5.56909">
        <ele>485.2</ele>
        <time>2023-08-30T13:25:10Z</time>
      </trkpt>
      <trkpt lat="46.39231" lon="5.56909">
        <ele>485.2</ele>
        <time>2023-08-30T13:25:11Z</time>
      </trkpt>
      <trkpt lat="46.39228" lon="5.56909">
        <ele>485.2</ele>
        <time>2023-08-30T13:25:12Z</time>
      </trkpt>
      <trkpt lat="46.39226" lon="5.5691">
        <ele>485.2</ele>
        <time>2023-08-30T13:25:13Z</time>
      </trkpt>
      <trkpt lat="46.39224" lon="5.5691">
        <ele>485</ele>
        <time>2023-08-30T13:25:14Z</time>
      </trkpt>
      <trkpt lat="46.39223" lon="5.5691">
        <ele>485</ele>
        <time>2023-08-30T13:25:15Z</time>
      </trkpt>
      <trkpt lat="46.39222" lon="5.5691">
        <ele>485</ele>
        <time>2023-08-30T13:25:16Z</time>
      </trkpt>
      <trkpt lat="46.39222" lon="5.5691">
        <ele>485</ele>
        <time>2023-08-30T13:25:17Z</time>
      </trkpt>
      <trkpt lat="46.3922" lon="5.56921">
        <ele>477.8</ele>
        <time>2023-08-30T13:28:20Z</time>
      </trkpt>
      <trkpt lat="46.39222" lon="5.56922">
        <ele>477.8</ele>
        <time>2023-08-30T13:28:21Z</time>
      </trkpt>
      <trkpt lat="46.39223" lon="5.56922">
        <ele>478.4</ele>
        <time>2023-08-30T13:28:22Z</time>
      </trkpt>
      <trkpt lat="46.39225" lon="5.56921">
        <ele>478.4</ele>
        <time>2023-08-30T13:28:23Z</time>
      </trkpt>
      <trkpt lat="46.39226" lon="5.56921">
        <ele>478.8</ele>
        <time>2023-08-30T13:28:24Z</time>
      </trkpt>
      <trkpt lat="46.39228" lon="5.56921">
        <ele>478.8</ele>
        <time>2023-08-30T13:28:25Z</time>
      </trkpt>
      <trkpt lat="46.3923" lon="5.5692">
        <ele>478.8</ele>
        <time>2023-08-30T13:28:26Z</time>
      </trkpt>
      <trkpt lat="46.39233" lon="5.56919">
        <ele>478.8</ele>
        <time>2023-08-30T13:28:27Z</time>
      </trkpt>
      <trkpt lat="46.39235" lon="5.56918">
        <ele>479.4</ele>
        <time>2023-08-30T13:28:28Z</time>
      </trkpt>
      <trkpt lat="46.39237" lon="5.56916">
        <ele>479.4</ele>
        <time>2023-08-30T13:28:29Z</time>
      </trkpt>
      <trkpt lat="46.3924" lon="5.56915">
        <ele>479.4</ele>
        <time>2023-08-30T13:28:30Z</time>
      </trkpt>
      <trkpt lat="46.39243" lon="5.56915">
        <ele>480</ele>
        <time>2023-08-30T13:28:31Z</time>
      </trkpt>
      <trkpt lat="46.39246" lon="5.56915">
        <ele>480</ele>
        <time>2023-08-30T13:28:32Z</time>
      </trkpt>
      <trkpt lat="46.39249" lon="5.56916">
        <ele>480.2</ele>
        <time>2023-08-30T13:28:33Z</time>
      </trkpt>
      <trkpt lat="46.39252" lon="5.56917">
        <ele>480.2</ele>
        <time>2023-08-30T13:28:34Z</time>
      </trkpt>
      <trkpt lat="46.39255" lon="5.56918">
        <ele>480.2</ele>
        <time>2023-08-30T13:28:35Z</time>
      </trkpt>
      <trkpt lat="46.39257" lon="5.56919">
        <ele>480.4</ele>
        <time>2023-08-30T13:28:36Z</time>
      </trkpt>
      <trkpt lat="46.39259" lon="5.5692">
        <ele>480.6</ele>
        <time>2023-08-30T13:28:37Z</time>
      </trkpt>
      <trkpt lat="46.39262" lon="5.5692">
        <ele>480.6</ele>
        <time>2023-08-30T13:28:38Z</time>
      </trkpt>
      <trkpt lat="46.39264" lon="5.5692">
        <ele>480.6</ele>
        <time>2023-08-30T13:28:39Z</time>
      </trkpt>
      <trkpt lat="46.39267" lon="5.5692">
        <ele>480.6</ele>
        <time>2023-08-30T13:28:40Z</time>
      </trkpt>
      <trkpt lat="46.3927" lon="5.56921">
        <ele>481.2</ele>
        <time>2023-08-30T13:28:41Z</time>
      </trkpt>
      <trkpt lat="46.39273" lon="5.56921">
        <ele>481.4</ele>
        <time>2023-08-30T13:28:42Z</time>
      </trkpt>
      <trkpt lat="46.39276" lon="5.56922">
        <ele>481.4</ele>
        <time>2023-08-30T13:28:43Z</time>
      </trkpt>
      <trkpt lat="46.39278" lon="5.56923">
        <ele>481.4</ele>
        <time>2023-08-30T13:28:44Z</time>
      </trkpt>
      <trkpt lat="46.39281" lon="5.56924">
        <ele>481.4</ele>
        <time>2023-08-30T13:28:45Z</time>
      </trkpt>
      <trkpt lat="46.39282" lon="5.56925">
        <ele>481.6</ele>
        <time>2023-08-30T13:28:46Z</time>
      </trkpt>
      <trkpt lat="46.39282" lon="5.56925">
        <ele>481.6</ele>
        <time>2023-08-30T13:28:47Z</time>
      </trkpt>
      <trkpt lat="46.39293" lon="5.56928">
        <ele>484.4</ele>
        <time>2023-08-30T13:29:19Z</time>
      </trkpt>
      <trkpt lat="46.39294" lon="5.5693">
        <ele>484.4</ele>
        <time>2023-08-30T13:29:20Z</time>
      </trkpt>
      <trkpt lat="46.39296" lon="5.56933">
        <ele>484.4</ele>
        <time>2023-08-30T13:29:21Z</time>
      </trkpt>
      <trkpt lat="46.39298" lon="5.56935">
        <ele>484.4</ele>
        <time>2023-08-30T13:29:22Z</time>
      </trkpt>
      <trkpt lat="46.393" lon="5.56937">
        <ele>484.8</ele>
        <time>2023-08-30T13:29:23Z</time>
      </trkpt>
      <trkpt lat="46.39303" lon="5.56938">
        <ele>484.8</ele>
        <time>2023-08-30T13:29:24Z</time>
      </trkpt>
      <trkpt lat="46.39306" lon="5.5694">
        <ele>484.8</ele>
        <time>2023-08-30T13:29:25Z</time>
      </trkpt>
      <trkpt lat="46.39309" lon="5.56942">
        <ele>485.2</ele>
        <time>2023-08-30T13:29:26Z</time>
      </trkpt>
      <trkpt lat="46.39312" lon="5.56944">
        <ele>485.2</ele>
        <time>2023-08-30T13:29:27Z</time>
      </trkpt>
      <trkpt lat="46.39315" lon="5.56945">
        <ele>485.4</ele>
        <time>2023-08-30T13:29:28Z</time>
      </trkpt>
      <trkpt lat="46.39318" lon="5.56947">
        <ele>485.4</ele>
        <time>2023-08-30T13:29:29Z</time>
      </trkpt>
      <trkpt lat="46.39322" lon="5.56949">
        <ele>485.4</ele>
        <time>2023-08-30T13:29:30Z</time>
      </trkpt>
      <trkpt lat="46.39325" lon="5.5695">
        <ele>485.4</ele>
        <time>2023-08-30T13:29:31Z</time>
      </trkpt>
      <trkpt lat="46.39329" lon="5.56952">
        <ele>485.6</ele>
        <time>2023-08-30T13:29:32Z</time>
      </trkpt>
      <trkpt lat="46.39333" lon="5.56954">
        <ele>485.6</ele>
        <time>2023-08-30T13:29:33Z</time>
      </trkpt>
      <trkpt lat="46.39336" lon="5.56956">
        <ele>485.6</ele>
        <time>2023-08-30T13:29:34Z</time>
      </trkpt>
      <trkpt lat="46.3934" lon="5.56958">
        <ele>485.6</ele>
        <time>2023-08-30T13:29:35Z</time>
      </trkpt>
      <trkpt lat="46.39343" lon="5.56959">
        <ele>485.6</ele>
        <time>2023-08-30T13:29:36Z</time>
      </trkpt>
      <trkpt lat="46.39346" lon="5.5696">
        <ele>485.6</ele>
        <time>2023-08-30T13:29:37Z</time>
      </trkpt>
      <trkpt lat="46.39349" lon="5.5696">
        <ele>485.8</ele>
        <time>2023-08-30T13:29:38Z</time>
      </trkpt>
      <trkpt lat="46.39353" lon="5.56961">
        <ele>485.8</ele>
        <time>2023-08-30T13:29:39Z</time>
      </trkpt>
      <trkpt lat="46.39357" lon="5.56963">
        <ele>485.8</ele>
        <time>2023-08-30T13:29:40Z</time>
      </trkpt>
      <trkpt lat="46.3936" lon="5.56964">
        <ele>485.8</ele>
        <time>2023-08-30T13:29:41Z</time>
      </trkpt>
      <trkpt lat="46.39364" lon="5.56965">
        <ele>485.8</ele>
        <time>2023-08-30T13:29:42Z</time>
      </trkpt>
      <trkpt lat="46.39368" lon="5.56967">
        <ele>485.8</ele>
        <time>2023-08-30T13:29:43Z</time>
      </trkpt>
      <trkpt lat="46.39371" lon="5.5697">
        <ele>485.8</ele>
        <time>2023-08-30T13:29:44Z</time>
      </trkpt>
      <trkpt lat="46.39375" lon="5.56973">
        <ele>485.8</ele>
        <time>2023-08-30T13:29:45Z</time>
      </trkpt>
      <trkpt lat="46.39379" lon="5.56977">
        <ele>485.8</ele>
        <time>2023-08-30T13:29:46Z</time>
      </trkpt>
      <trkpt lat="46.39378" lon="5.56982">
        <ele>485.6</ele>
        <time>2023-08-30T13:29:47Z</time>
      </trkpt>
      <trkpt lat="46.39378" lon="5.56988">
        <ele>485.6</ele>
        <time>2023-08-30T13:29:48Z</time>
      </trkpt>
      <trkpt lat="46.39379" lon="5.56993">
        <ele>485.6</ele>
        <time>2023-08-30T13:29:49Z</time>
      </trkpt>
      <trkpt lat="46.39378" lon="5.56998">
        <ele>485.6</ele>
        <time>2023-08-30T13:29:50Z</time>
      </trkpt>
      <trkpt lat="46.39379" lon="5.57001">
        <ele>485.6</ele>
        <time>2023-08-30T13:29:51Z</time>
      </trkpt>
      <trkpt lat="46.39379" lon="5.57004">
        <ele>485.6</ele>
        <time>2023-08-30T13:29:52Z</time>
      </trkpt>
      <trkpt lat="46.39381" lon="5.57005">
        <ele>485.8</ele>
        <time>2023-08-30T13:29:53Z</time>
      </trkpt>
      <trkpt lat="46.39381" lon="5.57006">
        <ele>485.8</ele>
        <time>2023-08-30T13:29:54Z</time>
      </trkpt>
      <trkpt lat="46.39381" lon="5.57008">
        <ele>485.8</ele>
        <time>2023-08-30T13:29:55Z</time>
      </trkpt>
      <trkpt lat="46.39381" lon="5.57009">
        <ele>485.8</ele>
        <time>2023-08-30T13:29:56Z</time>
      </trkpt>
      <trkpt lat="46.39387" lon="5.56997">
        <ele>478.4</ele>
        <time>2023-08-30T13:30:56Z</time>
      </trkpt>
      <trkpt lat="46.39387" lon="5.56997">
        <ele>478.4</ele>
        <time>2023-08-30T13:30:57Z</time>
      </trkpt>
      <trkpt lat="46.39392" lon="5.56993">
        <ele>478.4</ele>
        <time>2023-08-30T13:30:58Z</time>
      </trkpt>
      <trkpt lat="46.39393" lon="5.56993">
        <ele>478.2</ele>
        <time>2023-08-30T13:30:59Z</time>
      </trkpt>
      <trkpt lat="46.39394" lon="5.56993">
        <ele>478.2</ele>
        <time>2023-08-30T13:31:00Z</time>
      </trkpt>
      <trkpt lat="46.39394" lon="5.56993">
        <ele>478.2</ele>
        <time>2023-08-30T13:31:01Z</time>
      </trkpt>
      <trkpt lat="46.39394" lon="5.56992">
        <ele>478.2</ele>
        <time>2023-08-30T13:31:02Z</time>
      </trkpt>
      <trkpt lat="46.39395" lon="5.56992">
        <ele>478.2</ele>
        <time>2023-08-30T13:31:03Z</time>
      </trkpt>
      <trkpt lat="46.39395" lon="5.56992">
        <ele>478.2</ele>
        <time>2023-08-30T13:31:04Z</time>
      </trkpt>
      <trkpt lat="46.39395" lon="5.56991">
        <ele>478</ele>
        <time>2023-08-30T13:31:05Z</time>
      </trkpt>
      <trkpt lat="46.39396" lon="5.56991">
        <ele>478</ele>
        <time>2023-08-30T13:31:06Z</time>
      </trkpt>
      <trkpt lat="46.39396" lon="5.56991">
        <ele>478</ele>
        <time>2023-08-30T13:31:07Z</time>
      </trkpt>
      <trkpt lat="46.39397" lon="5.5699">
        <ele>478</ele>
        <time>2023-08-30T13:31:08Z</time>
      </trkpt>
      <trkpt lat="46.39397" lon="5.5699">
        <ele>478</ele>
        <time>2023-08-30T13:31:09Z</time>
      </trkpt>
      <trkpt lat="46.39397" lon="5.56989">
        <ele>478</ele>
        <time>2023-08-30T13:31:10Z</time>
      </trkpt>
      <trkpt lat="46.39399" lon="5.56991">
        <ele>478</ele>
        <time>2023-08-30T13:31:11Z</time>
      </trkpt>
      <trkpt lat="46.39401" lon="5.56993">
        <ele>478</ele>
        <time>2023-08-30T13:31:12Z</time>
      </trkpt>
      <trkpt lat="46.39403" lon="5.56995">
        <ele>478</ele>
        <time>2023-08-30T13:31:13Z</time>
      </trkpt>
      <trkpt lat="46.39405" lon="5.56997">
        <ele>478</ele>
        <time>2023-08-30T13:31:14Z</time>
      </trkpt>
      <trkpt lat="46.39405" lon="5.56998">
        <ele>477.6</ele>
        <time>2023-08-30T13:31:15Z</time>
      </trkpt>
      <trkpt lat="46.39404" lon="5.57">
        <ele>477.6</ele>
        <time>2023-08-30T13:31:16Z</time>
      </trkpt>
      <trkpt lat="46.39403" lon="5.57001">
        <ele>477.8</ele>
        <time>2023-08-30T13:31:17Z</time>
      </trkpt>
      <trkpt lat="46.39403" lon="5.57003">
        <ele>477.4</ele>
        <time>2023-08-30T13:31:18Z</time>
      </trkpt>
      <trkpt lat="46.39402" lon="5.57004">
        <ele>477.4</ele>
        <time>2023-08-30T13:31:19Z</time>
      </trkpt>
      <trkpt lat="46.39402" lon="5.57005">
        <ele>477.4</ele>
        <time>2023-08-30T13:31:20Z</time>
      </trkpt>
      <trkpt lat="46.39401" lon="5.57007">
        <ele>477.4</ele>
        <time>2023-08-30T13:31:21Z</time>
      </trkpt>
      <trkpt lat="46.39401" lon="5.57008">
        <ele>477.4</ele>
        <time>2023-08-30T13:31:22Z</time>
      </trkpt>
      <trkpt lat="46.394" lon="5.5701">
        <ele>477.2</ele>
        <time>2023-08-30T13:31:23Z</time>
      </trkpt>
      <trkpt lat="46.39399" lon="5.57011">
        <ele>477.2</ele>
        <time>2023-08-30T13:31:24Z</time>
      </trkpt>
      <trkpt lat="46.39399" lon="5.57011">
        <ele>477.2</ele>
        <time>2023-08-30T13:31:25Z</time>
      </trkpt>
      <trkpt lat="46.39282" lon="5.56958">
        <ele>477.2</ele>
        <time>2023-08-30T13:31:26Z</time>
      </trkpt>
      <trkpt lat="46.39282" lon="5.56958">
        <ele>477.2</ele>
        <time>2023-08-30T13:31:27Z</time>
      </trkpt>
      <trkpt lat="46.39282" lon="5.56958">
        <ele>477.2</ele>
        <time>2023-08-30T13:31:28Z</time>
      </trkpt>
      <trkpt lat="46.39282" lon="5.56958">
        <ele>477.2</ele>
        <time>2023-08-30T13:31:29Z</time>
      </trkpt>
      <trkpt lat="46.39282" lon="5.56958">
        <ele>477.2</ele>
        <time>2023-08-30T13:31:30Z</time>
      </trkpt>
      <trkpt lat="46.39282" lon="5.56958">
        <ele>477.4</ele>
        <time>2023-08-30T13:31:31Z</time>
      </trkpt>
      <trkpt lat="46.39282" lon="5.56958">
        <ele>477.4</ele>
        <time>2023-08-30T13:31:32Z</time>
      </trkpt>
      <trkpt lat="46.39282" lon="5.56958">
        <ele>477.4</ele>
        <time>2023-08-30T13:31:33Z</time>
      </trkpt>
      <trkpt lat="46.39282" lon="5.56958">
        <ele>477.4</ele>
        <time>2023-08-30T13:31:34Z</time>
      </trkpt>
      <trkpt lat="46.39282" lon="5.56958">
        <ele>477.4</ele>
        <time>2023-08-30T13:31:35Z</time>
      </trkpt>
      <trkpt lat="46.39282" lon="5.56958">
        <ele>477.6</ele>
        <time>2023-08-30T13:31:36Z</time>
      </trkpt>
      <trkpt lat="46.39282" lon="5.56958">
        <ele>477.6</ele>
        <time>2023-08-30T13:31:37Z</time>
      </trkpt>
      <trkpt lat="46.39282" lon="5.56958">
        <ele>477.6</ele>
        <time>2023-08-30T13:31:38Z</time>
      </trkpt>
      <trkpt lat="46.39282" lon="5.56958">
        <ele>477.6</ele>
        <time>2023-08-30T13:31:39Z</time>
      </trkpt>
      <trkpt lat="46.39282" lon="5.56958">
        <ele>477.8</ele>
        <time>2023-08-30T13:31:40Z</time>
      </trkpt>
      <trkpt lat="46.39282" lon="5.56958">
        <ele>478</ele>
        <time>2023-08-30T13:31:41Z</time>
      </trkpt>
      <trkpt lat="46.39282" lon="5.56958">
        <ele>478</ele>
        <time>2023-08-30T13:31:42Z</time>
      </trkpt>
      <trkpt lat="46.39282" lon="5.56958">
        <ele>478</ele>
        <time>2023-08-30T13:31:43Z</time>
      </trkpt>
      <trkpt lat="46.39282" lon="5.56958">
        <ele>478</ele>
        <time>2023-08-30T13:31:44Z</time>
      </trkpt>
      <trkpt lat="46.39282" lon="5.56958">
        <ele>478</ele>
        <time>2023-08-30T13:31:45Z</time>
      </trkpt>
      <trkpt lat="46.39282" lon="5.56958">
        <ele>478</ele>
        <time>2023-08-30T13:31:46Z</time>
      </trkpt>
      <trkpt lat="46.39282" lon="5.56958">
        <ele>478</ele>
        <time>2023-08-30T13:31:47Z</time>
      </trkpt>
      <trkpt lat="46.39282" lon="5.56958">
        <ele>478</ele>
        <time>2023-08-30T13:31:48Z</time>
      </trkpt>
      <trkpt lat="46.39282" lon="5.56958">
        <ele>478.2</ele>
        <time>2023-08-30T13:31:49Z</time>
      </trkpt>
      <trkpt lat="46.39282" lon="5.56958">
        <ele>478.4</ele>
        <time>2023-08-30T13:31:50Z</time>
      </trkpt>
      <trkpt lat="46.39282" lon="5.56958">
        <ele>478.4</ele>
        <time>2023-08-30T13:31:51Z</time>
      </trkpt>
      <trkpt lat="46.39282" lon="5.56958">
        <ele>478.4</ele>
        <time>2023-08-30T13:31:52Z</time>
      </trkpt>
      <trkpt lat="46.39282" lon="5.56958">
        <ele>478.4</ele>
        <time>2023-08-30T13:31:53Z</time>
      </trkpt>
      <trkpt lat="46.39378" lon="5.57061">
        <ele>478.6</ele>
        <time>2023-08-30T13:31:54Z</time>
      </trkpt>
      <trkpt lat="46.39376" lon="5.57058">
        <ele>478.6</ele>
        <time>2023-08-30T13:31:55Z</time>
      </trkpt>
      <trkpt lat="46.39376" lon="5.57058">
        <ele>478.6</ele>
        <time>2023-08-30T13:31:56Z</time>
      </trkpt>
      <trkpt lat="46.39376" lon="5.57057">
        <ele>478.8</ele>
        <time>2023-08-30T13:31:57Z</time>
      </trkpt>
      <trkpt lat="46.39376" lon="5.57057">
        <ele>478.6</ele>
        <time>2023-08-30T13:31:58Z</time>
      </trkpt>
      <trkpt lat="46.39376" lon="5.57057">
        <ele>478.6</ele>
        <time>2023-08-30T13:31:59Z</time>
      </trkpt>
      <trkpt lat="46.39376" lon="5.57057">
        <ele>478.6</ele>
        <time>2023-08-30T13:32:00Z</time>
      </trkpt>
      <trkpt lat="46.39376" lon="5.57056">
        <ele>478.6</ele>
        <time>2023-08-30T13:32:01Z</time>
      </trkpt>
      <trkpt lat="46.39375" lon="5.57056">
        <ele>478.6</ele>
        <time>2023-08-30T13:32:02Z</time>
      </trkpt>
      <trkpt lat="46.39375" lon="5.57056">
        <ele>478.4</ele>
        <time>2023-08-30T13:32:03Z</time>
      </trkpt>
      <trkpt lat="46.39375" lon="5.57055">
        <ele>478.4</ele>
        <time>2023-08-30T13:32:04Z</time>
      </trkpt>
      <trkpt lat="46.39375" lon="5.57055">
        <ele>478.4</ele>
        <time>2023-08-30T13:32:05Z</time>
      </trkpt>
      <trkpt lat="46.39375" lon="5.57055">
        <ele>478.4</ele>
        <time>2023-08-30T13:32:06Z</time>
      </trkpt>
      <trkpt lat="46.39375" lon="5.57055">
        <ele>478.8</ele>
        <time>2023-08-30T13:32:07Z</time>
      </trkpt>
      <trkpt lat="46.39375" lon="5.57054">
        <ele>478.8</ele>
        <time>2023-08-30T13:32:08Z</time>
      </trkpt>
      <trkpt lat="46.39375" lon="5.57054">
        <ele>478.8</ele>
        <time>2023-08-30T13:32:09Z</time>
      </trkpt>
      <trkpt lat="46.39374" lon="5.57054">
        <ele>478.8</ele>
        <time>2023-08-30T13:32:10Z</time>
      </trkpt>
      <trkpt lat="46.39374" lon="5.57053">
        <ele>478.8</ele>
        <time>2023-08-30T13:32:11Z</time>
      </trkpt>
      <trkpt lat="46.39374" lon="5.57053">
        <ele>479</ele>
        <time>2023-08-30T13:32:12Z</time>
      </trkpt>
      <trkpt lat="46.39374" lon="5.57053">
        <ele>479</ele>
        <time>2023-08-30T13:32:13Z</time>
      </trkpt>
      <trkpt lat="46.39374" lon="5.57053">
        <ele>479</ele>
        <time>2023-08-30T13:32:14Z</time>
      </trkpt>
      <trkpt lat="46.39374" lon="5.57052">
        <ele>479</ele>
        <time>2023-08-30T13:32:15Z</time>
      </trkpt>
      <trkpt lat="46.39389" lon="5.57069">
        <ele>479</ele>
        <time>2023-08-30T13:32:16Z</time>
      </trkpt>
      <trkpt lat="46.39405" lon="5.57085">
        <ele>479</ele>
        <time>2023-08-30T13:32:17Z</time>
      </trkpt>
      <trkpt lat="46.3942" lon="5.57101">
        <ele>479</ele>
        <time>2023-08-30T13:32:18Z</time>
      </trkpt>
      <trkpt lat="46.3942" lon="5.57101">
        <ele>479</ele>
        <time>2023-08-30T13:32:19Z</time>
      </trkpt>
      <trkpt lat="46.39418" lon="5.5711">
        <ele>479</ele>
        <time>2023-08-30T13:32:20Z</time>
      </trkpt>
      <trkpt lat="46.39424" lon="5.57114">
        <ele>478.8</ele>
        <time>2023-08-30T13:32:21Z</time>
      </trkpt>
      <trkpt lat="46.39425" lon="5.57115">
        <ele>478.8</ele>
        <time>2023-08-30T13:32:22Z</time>
      </trkpt>
      <trkpt lat="46.39426" lon="5.57118">
        <ele>478.8</ele>
        <time>2023-08-30T13:32:23Z</time>
      </trkpt>
      <trkpt lat="46.39427" lon="5.5712">
        <ele>478.8</ele>
        <time>2023-08-30T13:32:24Z</time>
      </trkpt>
      <trkpt lat="46.39428" lon="5.57123">
        <ele>478.6</ele>
        <time>2023-08-30T13:32:25Z</time>
      </trkpt>
      <trkpt lat="46.39429" lon="5.57125">
        <ele>478.6</ele>
        <time>2023-08-30T13:32:26Z</time>
      </trkpt>
      <trkpt lat="46.39428" lon="5.57125">
        <ele>478.6</ele>
        <time>2023-08-30T13:32:27Z</time>
      </trkpt>
      <trkpt lat="46.39428" lon="5.57126">
        <ele>478.6</ele>
        <time>2023-08-30T13:32:28Z</time>
      </trkpt>
      <trkpt lat="46.39427" lon="5.57126">
        <ele>478.6</ele>
        <time>2023-08-30T13:32:29Z</time>
      </trkpt>
      <trkpt lat="46.39427" lon="5.57126">
        <ele>478.6</ele>
        <time>2023-08-30T13:32:30Z</time>
      </trkpt>
      <trkpt lat="46.39426" lon="5.57126">
        <ele>478.6</ele>
        <time>2023-08-30T13:32:31Z</time>
      </trkpt>
      <trkpt lat="46.39426" lon="5.57126">
        <ele>478.6</ele>
        <time>2023-08-30T13:32:32Z</time>
      </trkpt>
      <trkpt lat="46.39426" lon="5.57127">
        <ele>478.6</ele>
        <time>2023-08-30T13:32:33Z</time>
      </trkpt>
      <trkpt lat="46.39425" lon="5.57127">
        <ele>479</ele>
        <time>2023-08-30T13:32:34Z</time>
      </trkpt>
      <trkpt lat="46.39425" lon="5.57127">
        <ele>479</ele>
        <time>2023-08-30T13:32:35Z</time>
      </trkpt>
      <trkpt lat="46.39424" lon="5.57127">
        <ele>479</ele>
        <time>2023-08-30T13:32:36Z</time>
      </trkpt>
      <trkpt lat="46.39424" lon="5.57127">
        <ele>479</ele>
        <time>2023-08-30T13:32:37Z</time>
      </trkpt>
      <trkpt lat="46.39423" lon="5.57127">
        <ele>479</ele>
        <time>2023-08-30T13:32:38Z</time>
      </trkpt>
      <trkpt lat="46.39423" lon="5.57128">
        <ele>479</ele>
        <time>2023-08-30T13:32:39Z</time>
      </trkpt>
      <trkpt lat="46.39422" lon="5.57128">
        <ele>479.2</ele>
        <time>2023-08-30T13:32:40Z</time>
      </trkpt>
      <trkpt lat="46.39422" lon="5.57128">
        <ele>479.2</ele>
        <time>2023-08-30T13:32:41Z</time>
      </trkpt>
      <trkpt lat="46.39422" lon="5.57128">
        <ele>479.2</ele>
        <time>2023-08-30T13:32:42Z</time>
      </trkpt>
      <trkpt lat="46.39421" lon="5.57128">
        <ele>479.2</ele>
        <time>2023-08-30T13:32:43Z</time>
      </trkpt>
      <trkpt lat="46.39421" lon="5.57129">
        <ele>479.4</ele>
        <time>2023-08-30T13:32:44Z</time>
      </trkpt>
      <trkpt lat="46.3942" lon="5.57129">
        <ele>479.4</ele>
        <time>2023-08-30T13:32:45Z</time>
      </trkpt>
      <trkpt lat="46.3942" lon="5.57129">
        <ele>479.4</ele>
        <time>2023-08-30T13:32:46Z</time>
      </trkpt>
      <trkpt lat="46.39419" lon="5.57129">
        <ele>479.4</ele>
        <time>2023-08-30T13:32:47Z</time>
      </trkpt>
      <trkpt lat="46.39419" lon="5.57129">
        <ele>479.4</ele>
        <time>2023-08-30T13:32:48Z</time>
      </trkpt>
      <trkpt lat="46.39419" lon="5.5713">
        <ele>479.4</ele>
        <time>2023-08-30T13:32:49Z</time>
      </trkpt>
      <trkpt lat="46.39418" lon="5.5713">
        <ele>479.4</ele>
        <time>2023-08-30T13:32:50Z</time>
      </trkpt>
      <trkpt lat="46.39418" lon="5.5713">
        <ele>479.4</ele>
        <time>2023-08-30T13:32:51Z</time>
      </trkpt>
      <trkpt lat="46.39417" lon="5.5713">
        <ele>479.4</ele>
        <time>2023-08-30T13:32:52Z</time>
      </trkpt>
      <trkpt lat="46.39417" lon="5.5713">
        <ele>479.4</ele>
        <time>2023-08-30T13:32:53Z</time>
      </trkpt>
      <trkpt lat="46.39416" lon="5.5713">
        <ele>479.4</ele>
        <time>2023-08-30T13:32:54Z</time>
      </trkpt>
      <trkpt lat="46.39416" lon="5.57131">
        <ele>479.4</ele>
        <time>2023-08-30T13:32:55Z</time>
      </trkpt>
      <trkpt lat="46.39415" lon="5.57131">
        <ele>479.4</ele>
        <time>2023-08-30T13:32:56Z</time>
      </trkpt>
      <trkpt lat="46.39415" lon="5.57131">
        <ele>479.2</ele>
        <time>2023-08-30T13:32:57Z</time>
      </trkpt>
      <trkpt lat="46.39415" lon="5.57131">
        <ele>479.4</ele>
        <time>2023-08-30T13:32:58Z</time>
      </trkpt>
      <trkpt lat="46.39414" lon="5.57131">
        <ele>479.4</ele>
        <time>2023-08-30T13:32:59Z</time>
      </trkpt>
      <trkpt lat="46.39414" lon="5.57132">
        <ele>479.4</ele>
        <time>2023-08-30T13:33:00Z</time>
      </trkpt>
      <trkpt lat="46.39413" lon="5.57132">
        <ele>479.8</ele>
        <time>2023-08-30T13:33:01Z</time>
      </trkpt>
      <trkpt lat="46.39413" lon="5.57132">
        <ele>479.6</ele>
        <time>2023-08-30T13:33:02Z</time>
      </trkpt>
      <trkpt lat="46.39412" lon="5.57132">
        <ele>479.6</ele>
        <time>2023-08-30T13:33:03Z</time>
      </trkpt>
      <trkpt lat="46.39412" lon="5.57132">
        <ele>479.6</ele>
        <time>2023-08-30T13:33:04Z</time>
      </trkpt>
      <trkpt lat="46.39412" lon="5.57132">
        <ele>479.6</ele>
        <time>2023-08-30T13:33:05Z</time>
      </trkpt>
      <trkpt lat="46.39418" lon="5.57051">
        <ele>479.6</ele>
        <time>2023-08-30T13:33:06Z</time>
      </trkpt>
      <trkpt lat="46.39417" lon="5.57048">
        <ele>479.6</ele>
        <time>2023-08-30T13:33:07Z</time>
      </trkpt>
      <trkpt lat="46.39418" lon="5.57038">
        <ele>479.8</ele>
        <time>2023-08-30T13:33:08Z</time>
      </trkpt>
      <trkpt lat="46.3942" lon="5.5703">
        <ele>479.8</ele>
        <time>2023-08-30T13:33:09Z</time>
      </trkpt>
      <trkpt lat="46.39419" lon="5.57028">
        <ele>479.8</ele>
        <time>2023-08-30T13:33:10Z</time>
      </trkpt>
      <trkpt lat="46.39419" lon="5.57027">
        <ele>479.8</ele>
        <time>2023-08-30T13:33:11Z</time>
      </trkpt>
      <trkpt lat="46.39421" lon="5.57029">
        <ele>479.8</ele>
        <time>2023-08-30T13:33:12Z</time>
      </trkpt>
      <trkpt lat="46.39424" lon="5.57032">
        <ele>479.8</ele>
        <time>2023-08-30T13:33:13Z</time>
      </trkpt>
      <trkpt lat="46.39426" lon="5.57037">
        <ele>479.8</ele>
        <time>2023-08-30T13:33:14Z</time>
      </trkpt>
      <trkpt lat="46.39427" lon="5.57042">
        <ele>480</ele>
        <time>2023-08-30T13:33:15Z</time>
      </trkpt>
      <trkpt lat="46.39428" lon="5.57044">
        <ele>479.8</ele>
        <time>2023-08-30T13:33:16Z</time>
      </trkpt>
      <trkpt lat="46.39428" lon="5.57044">
        <ele>479.8</ele>
        <time>2023-08-30T13:33:17Z</time>
      </trkpt>
      <trkpt lat="46.39428" lon="5.57048">
        <ele>479.8</ele>
        <time>2023-08-30T13:33:18Z</time>
      </trkpt>
      <trkpt lat="46.39429" lon="5.57049">
        <ele>479.8</ele>
        <time>2023-08-30T13:33:19Z</time>
      </trkpt>
      <trkpt lat="46.39428" lon="5.57049">
        <ele>479.8</ele>
        <time>2023-08-30T13:33:20Z</time>
      </trkpt>
      <trkpt lat="46.39428" lon="5.57049">
        <ele>480</ele>
        <time>2023-08-30T13:33:21Z</time>
      </trkpt>
      <trkpt lat="46.39428" lon="5.57049">
        <ele>480</ele>
        <time>2023-08-30T13:33:22Z</time>
      </trkpt>
      <trkpt lat="46.39428" lon="5.57049">
        <ele>480</ele>
        <time>2023-08-30T13:33:23Z</time>
      </trkpt>
      <trkpt lat="46.39428" lon="5.5705">
        <ele>480</ele>
        <time>2023-08-30T13:33:24Z</time>
      </trkpt>
      <trkpt lat="46.39428" lon="5.5705">
        <ele>480</ele>
        <time>2023-08-30T13:33:25Z</time>
      </trkpt>
      <trkpt lat="46.39428" lon="5.5705">
        <ele>480</ele>
        <time>2023-08-30T13:33:26Z</time>
      </trkpt>
      <trkpt lat="46.39428" lon="5.5705">
        <ele>480</ele>
        <time>2023-08-30T13:33:27Z</time>
      </trkpt>
      <trkpt lat="46.39428" lon="5.5705">
        <ele>480</ele>
        <time>2023-08-30T13:33:28Z</time>
      </trkpt>
      <trkpt lat="46.39428" lon="5.5705">
        <ele>480</ele>
        <time>2023-08-30T13:33:29Z</time>
      </trkpt>
      <trkpt lat="46.39428" lon="5.5705">
        <ele>480</ele>
        <time>2023-08-30T13:33:30Z</time>
      </trkpt>
      <trkpt lat="46.39428" lon="5.5705">
        <ele>480</ele>
        <time>2023-08-30T13:33:31Z</time>
      </trkpt>
      <trkpt lat="46.39429" lon="5.5705">
        <ele>480</ele>
        <time>2023-08-30T13:33:32Z</time>
      </trkpt>
      <trkpt lat="46.39429" lon="5.5705">
        <ele>480</ele>
        <time>2023-08-30T13:33:33Z</time>
      </trkpt>
      <trkpt lat="46.39429" lon="5.5705">
        <ele>480</ele>
        <time>2023-08-30T13:33:34Z</time>
      </trkpt>
      <trkpt lat="46.39429" lon="5.5705">
        <ele>480</ele>
        <time>2023-08-30T13:33:35Z</time>
      </trkpt>
      <trkpt lat="46.39429" lon="5.5705">
        <ele>480</ele>
        <time>2023-08-30T13:33:36Z</time>
      </trkpt>
      <trkpt lat="46.39429" lon="5.5705">
        <ele>480</ele>
        <time>2023-08-30T13:33:37Z</time>
      </trkpt>
      <trkpt lat="46.39429" lon="5.5705">
        <ele>480</ele>
        <time>2023-08-30T13:33:38Z</time>
      </trkpt>
      <trkpt lat="46.39429" lon="5.5705">
        <ele>480</ele>
        <time>2023-08-30T13:33:39Z</time>
      </trkpt>
      <trkpt lat="46.39429" lon="5.5705">
        <ele>480</ele>
        <time>2023-08-30T13:33:40Z</time>
      </trkpt>
      <trkpt lat="46.39429" lon="5.5705">
        <ele>480</ele>
        <time>2023-08-30T13:33:41Z</time>
      </trkpt>
      <trkpt lat="46.39429" lon="5.5705">
        <ele>480</ele>
        <time>2023-08-30T13:33:42Z</time>
      </trkpt>
      <trkpt lat="46.39429" lon="5.5705">
        <ele>480</ele>
        <time>2023-08-30T13:33:43Z</time>
      </trkpt>
      <trkpt lat="46.39429" lon="5.57051">
        <ele>480.2</ele>
        <time>2023-08-30T13:33:44Z</time>
      </trkpt>
      <trkpt lat="46.39429" lon="5.57051">
        <ele>480.2</ele>
        <time>2023-08-30T13:33:45Z</time>
      </trkpt>
      <trkpt lat="46.39429" lon="5.57051">
        <ele>480.2</ele>
        <time>2023-08-30T13:33:46Z</time>
      </trkpt>
      <trkpt lat="46.39429" lon="5.57051">
        <ele>480</ele>
        <time>2023-08-30T13:33:47Z</time>
      </trkpt>
      <trkpt lat="46.39429" lon="5.57051">
        <ele>480</ele>
        <time>2023-08-30T13:33:48Z</time>
      </trkpt>
      <trkpt lat="46.39429" lon="5.57051">
        <ele>480</ele>
        <time>2023-08-30T13:33:49Z</time>
      </trkpt>
      <trkpt lat="46.39429" lon="5.57051">
        <ele>480</ele>
        <time>2023-08-30T13:33:50Z</time>
      </trkpt>
      <trkpt lat="46.39429" lon="5.57051">
        <ele>480</ele>
        <time>2023-08-30T13:33:51Z</time>
      </trkpt>
      <trkpt lat="46.39429" lon="5.57051">
        <ele>480</ele>
        <time>2023-08-30T13:33:52Z</time>
      </trkpt>
      <trkpt lat="46.39429" lon="5.57051">
        <ele>480</ele>
        <time>2023-08-30T13:33:53Z</time>
      </trkpt>
      <trkpt lat="46.39429" lon="5.57051">
        <ele>480</ele>
        <time>2023-08-30T13:33:54Z</time>
      </trkpt>
      <trkpt lat="46.39429" lon="5.57051">
        <ele>480</ele>
        <time>2023-08-30T13:33:55Z</time>
      </trkpt>
      <trkpt lat="46.39429" lon="5.57051">
        <ele>480</ele>
        <time>2023-08-30T13:33:56Z</time>
      </trkpt>
      <trkpt lat="46.39429" lon="5.57051">
        <ele>480</ele>
        <time>2023-08-30T13:33:57Z</time>
      </trkpt>
      <trkpt lat="46.39429" lon="5.57051">
        <ele>480.2</ele>
        <time>2023-08-30T13:33:58Z</time>
      </trkpt>
      <trkpt lat="46.3943" lon="5.57051">
        <ele>480.2</ele>
        <time>2023-08-30T13:33:59Z</time>
      </trkpt>
      <trkpt lat="46.3943" lon="5.57051">
        <ele>480.2</ele>
        <time>2023-08-30T13:34:00Z</time>
      </trkpt>
      <trkpt lat="46.3943" lon="5.57051">
        <ele>480</ele>
        <time>2023-08-30T13:34:01Z</time>
      </trkpt>
      <trkpt lat="46.3943" lon="5.57051">
        <ele>480</ele>
        <time>2023-08-30T13:34:02Z</time>
      </trkpt>
      <trkpt lat="46.3943" lon="5.57051">
        <ele>480</ele>
        <time>2023-08-30T13:34:03Z</time>
      </trkpt>
      <trkpt lat="46.3943" lon="5.57052">
        <ele>480</ele>
        <time>2023-08-30T13:34:04Z</time>
      </trkpt>
      <trkpt lat="46.3943" lon="5.57052">
        <ele>480</ele>
        <time>2023-08-30T13:34:05Z</time>
      </trkpt>
      <trkpt lat="46.3943" lon="5.57052">
        <ele>480</ele>
        <time>2023-08-30T13:34:06Z</time>
      </trkpt>
      <trkpt lat="46.3943" lon="5.57052">
        <ele>480</ele>
        <time>2023-08-30T13:34:07Z</time>
      </trkpt>
      <trkpt lat="46.3943" lon="5.57052">
        <ele>480</ele>
        <time>2023-08-30T13:34:08Z</time>
      </trkpt>
      <trkpt lat="46.3943" lon="5.57052">
        <ele>480</ele>
        <time>2023-08-30T13:34:09Z</time>
      </trkpt>
      <trkpt lat="46.3943" lon="5.57052">
        <ele>480</ele>
        <time>2023-08-30T13:34:10Z</time>
      </trkpt>
      <trkpt lat="46.3943" lon="5.57052">
        <ele>480</ele>
        <time>2023-08-30T13:34:11Z</time>
      </trkpt>
      <trkpt lat="46.3943" lon="5.57052">
        <ele>480</ele>
        <time>2023-08-30T13:34:12Z</time>
      </trkpt>
      <trkpt lat="46.3943" lon="5.57052">
        <ele>480</ele>
        <time>2023-08-30T13:34:13Z</time>
      </trkpt>
      <trkpt lat="46.3943" lon="5.57052">
        <ele>480</ele>
        <time>2023-08-30T13:34:14Z</time>
      </trkpt>
      <trkpt lat="46.3943" lon="5.57052">
        <ele>480</ele>
        <time>2023-08-30T13:34:15Z</time>
      </trkpt>
      <trkpt lat="46.3943" lon="5.57052">
        <ele>480</ele>
        <time>2023-08-30T13:34:16Z</time>
      </trkpt>
      <trkpt lat="46.3943" lon="5.57052">
        <ele>480</ele>
        <time>2023-08-30T13:34:17Z</time>
      </trkpt>
      <trkpt lat="46.3943" lon="5.57052">
        <ele>480</ele>
        <time>2023-08-30T13:34:18Z</time>
      </trkpt>
      <trkpt lat="46.3943" lon="5.57052">
        <ele>480</ele>
        <time>2023-08-30T13:34:19Z</time>
      </trkpt>
      <trkpt lat="46.3943" lon="5.57052">
        <ele>480.2</ele>
        <time>2023-08-30T13:34:20Z</time>
      </trkpt>
      <trkpt lat="46.3943" lon="5.57052">
        <ele>480.2</ele>
        <time>2023-08-30T13:34:21Z</time>
      </trkpt>
      <trkpt lat="46.3943" lon="5.57052">
        <ele>480.2</ele>
        <time>2023-08-30T13:34:22Z</time>
      </trkpt>
      <trkpt lat="46.3943" lon="5.57052">
        <ele>480</ele>
        <time>2023-08-30T13:34:23Z</time>
      </trkpt>
      <trkpt lat="46.3943" lon="5.57053">
        <ele>480</ele>
        <time>2023-08-30T13:34:24Z</time>
      </trkpt>
      <trkpt lat="46.3943" lon="5.57053">
        <ele>480</ele>
        <time>2023-08-30T13:34:25Z</time>
      </trkpt>
      <trkpt lat="46.3943" lon="5.57053">
        <ele>480</ele>
        <time>2023-08-30T13:34:26Z</time>
      </trkpt>
      <trkpt lat="46.39431" lon="5.57053">
        <ele>480</ele>
        <time>2023-08-30T13:34:27Z</time>
      </trkpt>
      <trkpt lat="46.39431" lon="5.57053">
        <ele>480</ele>
        <time>2023-08-30T13:34:28Z</time>
      </trkpt>
      <trkpt lat="46.39431" lon="5.57053">
        <ele>480</ele>
        <time>2023-08-30T13:34:29Z</time>
      </trkpt>
      <trkpt lat="46.39431" lon="5.57053">
        <ele>480</ele>
        <time>2023-08-30T13:34:30Z</time>
      </trkpt>
      <trkpt lat="46.39431" lon="5.57053">
        <ele>480</ele>
        <time>2023-08-30T13:34:31Z</time>
      </trkpt>
      <trkpt lat="46.39431" lon="5.57053">
        <ele>479.8</ele>
        <time>2023-08-30T13:34:32Z</time>
      </trkpt>
      <trkpt lat="46.39431" lon="5.57053">
        <ele>480</ele>
        <time>2023-08-30T13:34:33Z</time>
      </trkpt>
      <trkpt lat="46.39431" lon="5.57053">
        <ele>480</ele>
        <time>2023-08-30T13:34:34Z</time>
      </trkpt>
      <trkpt lat="46.39431" lon="5.57053">
        <ele>480</ele>
        <time>2023-08-30T13:34:35Z</time>
      </trkpt>
      <trkpt lat="46.39431" lon="5.57053">
        <ele>480</ele>
        <time>2023-08-30T13:34:36Z</time>
      </trkpt>
      <trkpt lat="46.3943" lon="5.57052">
        <ele>480</ele>
        <time>2023-08-30T13:34:37Z</time>
      </trkpt>
      <trkpt lat="46.3943" lon="5.57051">
        <ele>480</ele>
        <time>2023-08-30T13:34:38Z</time>
      </trkpt>
      <trkpt lat="46.3943" lon="5.57049">
        <ele>480</ele>
        <time>2023-08-30T13:34:39Z</time>
      </trkpt>
      <trkpt lat="46.39429" lon="5.57048">
        <ele>480</ele>
        <time>2023-08-30T13:34:40Z</time>
      </trkpt>
      <trkpt lat="46.39429" lon="5.57047">
        <ele>480</ele>
        <time>2023-08-30T13:34:41Z</time>
      </trkpt>
      <trkpt lat="46.39429" lon="5.57045">
        <ele>479.8</ele>
        <time>2023-08-30T13:34:42Z</time>
      </trkpt>
      <trkpt lat="46.39428" lon="5.57044">
        <ele>480</ele>
        <time>2023-08-30T13:34:43Z</time>
      </trkpt>
      <trkpt lat="46.39428" lon="5.57043">
        <ele>480</ele>
        <time>2023-08-30T13:34:44Z</time>
      </trkpt>
      <trkpt lat="46.39427" lon="5.57042">
        <ele>480</ele>
        <time>2023-08-30T13:34:45Z</time>
      </trkpt>
      <trkpt lat="46.39427" lon="5.5704">
        <ele>480</ele>
        <time>2023-08-30T13:34:46Z</time>
      </trkpt>
      <trkpt lat="46.39427" lon="5.57039">
        <ele>480</ele>
        <time>2023-08-30T13:34:47Z</time>
      </trkpt>
      <trkpt lat="46.39426" lon="5.57038">
        <ele>479.8</ele>
        <time>2023-08-30T13:34:48Z</time>
      </trkpt>
      <trkpt lat="46.39426" lon="5.57036">
        <ele>479.8</ele>
        <time>2023-08-30T13:34:49Z</time>
      </trkpt>
      <trkpt lat="46.39425" lon="5.57035">
        <ele>479.8</ele>
        <time>2023-08-30T13:34:50Z</time>
      </trkpt>
      <trkpt lat="46.39425" lon="5.57034">
        <ele>479.8</ele>
        <time>2023-08-30T13:34:51Z</time>
      </trkpt>
      <trkpt lat="46.39425" lon="5.57033">
        <ele>479.8</ele>
        <time>2023-08-30T13:34:52Z</time>
      </trkpt>
      <trkpt lat="46.39424" lon="5.57031">
        <ele>479.8</ele>
        <time>2023-08-30T13:34:53Z</time>
      </trkpt>
      <trkpt lat="46.39424" lon="5.5703">
        <ele>479.8</ele>
        <time>2023-08-30T13:34:54Z</time>
      </trkpt>
      <trkpt lat="46.39424" lon="5.57029">
        <ele>479.8</ele>
        <time>2023-08-30T13:34:55Z</time>
      </trkpt>
      <trkpt lat="46.39423" lon="5.57027">
        <ele>479.8</ele>
        <time>2023-08-30T13:34:56Z</time>
      </trkpt>
      <trkpt lat="46.39423" lon="5.57026">
        <ele>480</ele>
        <time>2023-08-30T13:34:57Z</time>
      </trkpt>
      <trkpt lat="46.39422" lon="5.57025">
        <ele>480</ele>
        <time>2023-08-30T13:34:58Z</time>
      </trkpt>
      <trkpt lat="46.39422" lon="5.57024">
        <ele>480</ele>
        <time>2023-08-30T13:34:59Z</time>
      </trkpt>
      <trkpt lat="46.39422" lon="5.57022">
        <ele>479.6</ele>
        <time>2023-08-30T13:35:00Z</time>
      </trkpt>
      <trkpt lat="46.39421" lon="5.57021">
        <ele>479.8</ele>
        <time>2023-08-30T13:35:01Z</time>
      </trkpt>
      <trkpt lat="46.39421" lon="5.5702">
        <ele>479.8</ele>
        <time>2023-08-30T13:35:02Z</time>
      </trkpt>
      <trkpt lat="46.3942" lon="5.57018">
        <ele>479.8</ele>
        <time>2023-08-30T13:35:03Z</time>
      </trkpt>
      <trkpt lat="46.3942" lon="5.57017">
        <ele>479.8</ele>
        <time>2023-08-30T13:35:04Z</time>
      </trkpt>
      <trkpt lat="46.3942" lon="5.57016">
        <ele>479.8</ele>
        <time>2023-08-30T13:35:05Z</time>
      </trkpt>
      <trkpt lat="46.39419" lon="5.57015">
        <ele>479.8</ele>
        <time>2023-08-30T13:35:06Z</time>
      </trkpt>
      <trkpt lat="46.39419" lon="5.57013">
        <ele>479.8</ele>
        <time>2023-08-30T13:35:07Z</time>
      </trkpt>
      <trkpt lat="46.39419" lon="5.57012">
        <ele>479.8</ele>
        <time>2023-08-30T13:35:08Z</time>
      </trkpt>
      <trkpt lat="46.39418" lon="5.57011">
        <ele>479.8</ele>
        <time>2023-08-30T13:35:09Z</time>
      </trkpt>
      <trkpt lat="46.39418" lon="5.57009">
        <ele>479.8</ele>
        <time>2023-08-30T13:35:10Z</time>
      </trkpt>
      <trkpt lat="46.39417" lon="5.57008">
        <ele>478.4</ele>
        <time>2023-08-30T13:35:11Z</time>
      </trkpt>
      <trkpt lat="46.39417" lon="5.57007">
        <ele>478.4</ele>
        <time>2023-08-30T13:35:12Z</time>
      </trkpt>
      <trkpt lat="46.39417" lon="5.57006">
        <ele>478.4</ele>
        <time>2023-08-30T13:35:13Z</time>
      </trkpt>
      <trkpt lat="46.39416" lon="5.57004">
        <ele>478.4</ele>
        <time>2023-08-30T13:35:14Z</time>
      </trkpt>
      <trkpt lat="46.39416" lon="5.57003">
        <ele>479.6</ele>
        <time>2023-08-30T13:35:15Z</time>
      </trkpt>
      <trkpt lat="46.39416" lon="5.57002">
        <ele>479.6</ele>
        <time>2023-08-30T13:35:16Z</time>
      </trkpt>
      <trkpt lat="46.39415" lon="5.57">
        <ele>479.6</ele>
        <time>2023-08-30T13:35:17Z</time>
      </trkpt>
      <trkpt lat="46.39415" lon="5.56999">
        <ele>479.8</ele>
        <time>2023-08-30T13:35:18Z</time>
      </trkpt>
      <trkpt lat="46.39415" lon="5.56999">
        <ele>479.8</ele>
        <time>2023-08-30T13:35:19Z</time>
      </trkpt>
      <trkpt lat="46.39383" lon="5.56965">
        <ele>479.8</ele>
        <time>2023-08-30T13:35:20Z</time>
      </trkpt>
      <trkpt lat="46.39386" lon="5.56971">
        <ele>479.8</ele>
        <time>2023-08-30T13:35:21Z</time>
      </trkpt>
      <trkpt lat="46.39383" lon="5.56973">
        <ele>479.8</ele>
        <time>2023-08-30T13:35:22Z</time>
      </trkpt>
      <trkpt lat="46.39379" lon="5.56976">
        <ele>480</ele>
        <time>2023-08-30T13:35:23Z</time>
      </trkpt>
      <trkpt lat="46.39378" lon="5.5698">
        <ele>480.4</ele>
        <time>2023-08-30T13:35:24Z</time>
      </trkpt>
      <trkpt lat="46.39376" lon="5.56984">
        <ele>480.4</ele>
        <time>2023-08-30T13:35:25Z</time>
      </trkpt>
      <trkpt lat="46.39376" lon="5.56984">
        <ele>480.4</ele>
        <time>2023-08-30T13:35:26Z</time>
      </trkpt>
      <trkpt lat="46.39376" lon="5.56984">
        <ele>480.4</ele>
        <time>2023-08-30T13:35:27Z</time>
      </trkpt>
      <trkpt lat="46.39381" lon="5.56995">
        <ele>473.4</ele>
        <time>2023-08-30T13:40:19Z</time>
      </trkpt>
      <trkpt lat="46.39382" lon="5.56993">
        <ele>474</ele>
        <time>2023-08-30T13:40:20Z</time>
      </trkpt>
      <trkpt lat="46.39383" lon="5.56991">
        <ele>474.6</ele>
        <time>2023-08-30T13:40:21Z</time>
      </trkpt>
      <trkpt lat="46.39383" lon="5.56989">
        <ele>474.6</ele>
        <time>2023-08-30T13:40:22Z</time>
      </trkpt>
      <trkpt lat="46.39384" lon="5.56988">
        <ele>474.6</ele>
        <time>2023-08-30T13:40:23Z</time>
      </trkpt>
      <trkpt lat="46.39384" lon="5.56986">
        <ele>475.4</ele>
        <time>2023-08-30T13:40:24Z</time>
      </trkpt>
      <trkpt lat="46.39384" lon="5.56984">
        <ele>475.4</ele>
        <time>2023-08-30T13:40:25Z</time>
      </trkpt>
      <trkpt lat="46.39383" lon="5.56982">
        <ele>475.8</ele>
        <time>2023-08-30T13:40:26Z</time>
      </trkpt>
      <trkpt lat="46.39383" lon="5.5698">
        <ele>475.8</ele>
        <time>2023-08-30T13:40:27Z</time>
      </trkpt>
      <trkpt lat="46.39383" lon="5.56979">
        <ele>475.8</ele>
        <time>2023-08-30T13:40:28Z</time>
      </trkpt>
      <trkpt lat="46.39382" lon="5.56978">
        <ele>475.8</ele>
        <time>2023-08-30T13:40:29Z</time>
      </trkpt>
      <trkpt lat="46.39382" lon="5.56976">
        <ele>475.8</ele>
        <time>2023-08-30T13:40:30Z</time>
      </trkpt>
      <trkpt lat="46.39381" lon="5.56974">
        <ele>477.4</ele>
        <time>2023-08-30T13:40:31Z</time>
      </trkpt>
      <trkpt lat="46.39379" lon="5.56972">
        <ele>477.4</ele>
        <time>2023-08-30T13:40:32Z</time>
      </trkpt>
      <trkpt lat="46.39377" lon="5.56972">
        <ele>477.4</ele>
        <time>2023-08-30T13:40:33Z</time>
      </trkpt>
      <trkpt lat="46.39375" lon="5.56971">
        <ele>478.4</ele>
        <time>2023-08-30T13:40:34Z</time>
      </trkpt>
      <trkpt lat="46.39372" lon="5.56971">
        <ele>478.8</ele>
        <time>2023-08-30T13:40:35Z</time>
      </trkpt>
      <trkpt lat="46.3937" lon="5.5697">
        <ele>478.8</ele>
        <time>2023-08-30T13:40:36Z</time>
      </trkpt>
      <trkpt lat="46.39367" lon="5.56969">
        <ele>478.8</ele>
        <time>2023-08-30T13:40:37Z</time>
      </trkpt>
      <trkpt lat="46.39365" lon="5.56969">
        <ele>479.6</ele>
        <time>2023-08-30T13:40:38Z</time>
      </trkpt>
      <trkpt lat="46.39363" lon="5.56968">
        <ele>479.6</ele>
        <time>2023-08-30T13:40:39Z</time>
      </trkpt>
      <trkpt lat="46.39361" lon="5.56968">
        <ele>480</ele>
        <time>2023-08-30T13:40:40Z</time>
      </trkpt>
      <trkpt lat="46.39358" lon="5.56968">
        <ele>480</ele>
        <time>2023-08-30T13:40:41Z</time>
      </trkpt>
      <trkpt lat="46.39356" lon="5.56967">
        <ele>480</ele>
        <time>2023-08-30T13:40:42Z</time>
      </trkpt>
      <trkpt lat="46.39354" lon="5.56966">
        <ele>480.8</ele>
        <time>2023-08-30T13:40:43Z</time>
      </trkpt>
      <trkpt lat="46.39351" lon="5.56965">
        <ele>481.2</ele>
        <time>2023-08-30T13:40:44Z</time>
      </trkpt>
      <trkpt lat="46.39348" lon="5.56964">
        <ele>481.2</ele>
        <time>2023-08-30T13:40:45Z</time>
      </trkpt>
      <trkpt lat="46.39345" lon="5.56962">
        <ele>481.2</ele>
        <time>2023-08-30T13:40:46Z</time>
      </trkpt>
      <trkpt lat="46.39342" lon="5.56961">
        <ele>482</ele>
        <time>2023-08-30T13:40:47Z</time>
      </trkpt>
      <trkpt lat="46.39339" lon="5.5696">
        <ele>482.2</ele>
        <time>2023-08-30T13:40:48Z</time>
      </trkpt>
      <trkpt lat="46.39336" lon="5.56958">
        <ele>482.2</ele>
        <time>2023-08-30T13:40:49Z</time>
      </trkpt>
      <trkpt lat="46.39333" lon="5.56956">
        <ele>482.2</ele>
        <time>2023-08-30T13:40:50Z</time>
      </trkpt>
      <trkpt lat="46.39329" lon="5.56954">
        <ele>482.2</ele>
        <time>2023-08-30T13:40:51Z</time>
      </trkpt>
      <trkpt lat="46.39326" lon="5.56953">
        <ele>483</ele>
        <time>2023-08-30T13:40:52Z</time>
      </trkpt>
      <trkpt lat="46.39323" lon="5.56951">
        <ele>483</ele>
        <time>2023-08-30T13:40:53Z</time>
      </trkpt>
      <trkpt lat="46.3932" lon="5.56949">
        <ele>483</ele>
        <time>2023-08-30T13:40:54Z</time>
      </trkpt>
      <trkpt lat="46.39317" lon="5.56947">
        <ele>483</ele>
        <time>2023-08-30T13:40:55Z</time>
      </trkpt>
      <trkpt lat="46.39313" lon="5.56945">
        <ele>483</ele>
        <time>2023-08-30T13:40:56Z</time>
      </trkpt>
      <trkpt lat="46.3931" lon="5.56942">
        <ele>484.8</ele>
        <time>2023-08-30T13:40:57Z</time>
      </trkpt>
      <trkpt lat="46.39307" lon="5.5694">
        <ele>484.8</ele>
        <time>2023-08-30T13:40:58Z</time>
      </trkpt>
      <trkpt lat="46.39304" lon="5.56937">
        <ele>484.8</ele>
        <time>2023-08-30T13:40:59Z</time>
      </trkpt>
      <trkpt lat="46.39301" lon="5.56935">
        <ele>484.8</ele>
        <time>2023-08-30T13:41:00Z</time>
      </trkpt>
      <trkpt lat="46.39298" lon="5.56933">
        <ele>485.8</ele>
        <time>2023-08-30T13:41:01Z</time>
      </trkpt>
      <trkpt lat="46.39295" lon="5.56931">
        <ele>486</ele>
        <time>2023-08-30T13:41:02Z</time>
      </trkpt>
      <trkpt lat="46.39292" lon="5.56928">
        <ele>486</ele>
        <time>2023-08-30T13:41:03Z</time>
      </trkpt>
      <trkpt lat="46.39289" lon="5.56925">
        <ele>486</ele>
        <time>2023-08-30T13:41:04Z</time>
      </trkpt>
      <trkpt lat="46.39286" lon="5.56923">
        <ele>486</ele>
        <time>2023-08-30T13:41:05Z</time>
      </trkpt>
      <trkpt lat="46.39282" lon="5.5692">
        <ele>486</ele>
        <time>2023-08-30T13:41:06Z</time>
      </trkpt>
      <trkpt lat="46.39279" lon="5.56918">
        <ele>486</ele>
        <time>2023-08-30T13:41:07Z</time>
      </trkpt>
      <trkpt lat="46.39276" lon="5.56915">
        <ele>486.4</ele>
        <time>2023-08-30T13:41:08Z</time>
      </trkpt>
      <trkpt lat="46.39273" lon="5.56911">
        <ele>486.4</ele>
        <time>2023-08-30T13:41:09Z</time>
      </trkpt>
      <trkpt lat="46.3927" lon="5.56908">
        <ele>487.4</ele>
        <time>2023-08-30T13:41:10Z</time>
      </trkpt>
      <trkpt lat="46.39267" lon="5.56905">
        <ele>487.4</ele>
        <time>2023-08-30T13:41:11Z</time>
      </trkpt>
      <trkpt lat="46.39264" lon="5.56902">
        <ele>487.4</ele>
        <time>2023-08-30T13:41:12Z</time>
      </trkpt>
      <trkpt lat="46.39261" lon="5.569">
        <ele>487.6</ele>
        <time>2023-08-30T13:41:13Z</time>
      </trkpt>
      <trkpt lat="46.39258" lon="5.56899">
        <ele>487.6</ele>
        <time>2023-08-30T13:41:14Z</time>
      </trkpt>
      <trkpt lat="46.39255" lon="5.56901">
        <ele>487.6</ele>
        <time>2023-08-30T13:41:15Z</time>
      </trkpt>
      <trkpt lat="46.39251" lon="5.56902">
        <ele>488</ele>
        <time>2023-08-30T13:41:16Z</time>
      </trkpt>
      <trkpt lat="46.39248" lon="5.56904">
        <ele>488.2</ele>
        <time>2023-08-30T13:41:17Z</time>
      </trkpt>
      <trkpt lat="46.39244" lon="5.56906">
        <ele>488.2</ele>
        <time>2023-08-30T13:41:18Z</time>
      </trkpt>
      <trkpt lat="46.39241" lon="5.56907">
        <ele>488.2</ele>
        <time>2023-08-30T13:41:19Z</time>
      </trkpt>
      <trkpt lat="46.39237" lon="5.56909">
        <ele>488.8</ele>
        <time>2023-08-30T13:41:20Z</time>
      </trkpt>
      <trkpt lat="46.39234" lon="5.56911">
        <ele>489</ele>
        <time>2023-08-30T13:41:21Z</time>
      </trkpt>
      <trkpt lat="46.39231" lon="5.56913">
        <ele>489</ele>
        <time>2023-08-30T13:41:22Z</time>
      </trkpt>
      <trkpt lat="46.39228" lon="5.56915">
        <ele>489</ele>
        <time>2023-08-30T13:41:23Z</time>
      </trkpt>
      <trkpt lat="46.39225" lon="5.56917">
        <ele>489</ele>
        <time>2023-08-30T13:41:24Z</time>
      </trkpt>
      <trkpt lat="46.39221" lon="5.56919">
        <ele>489.4</ele>
        <time>2023-08-30T13:41:25Z</time>
      </trkpt>
      <trkpt lat="46.39218" lon="5.5692">
        <ele>489.4</ele>
        <time>2023-08-30T13:41:26Z</time>
      </trkpt>
      <trkpt lat="46.39215" lon="5.56921">
        <ele>489.4</ele>
        <time>2023-08-30T13:41:27Z</time>
      </trkpt>
      <trkpt lat="46.39212" lon="5.56922">
        <ele>489.4</ele>
        <time>2023-08-30T13:41:28Z</time>
      </trkpt>
      <trkpt lat="46.39209" lon="5.56923">
        <ele>490.2</ele>
        <time>2023-08-30T13:41:29Z</time>
      </trkpt>
      <trkpt lat="46.39207" lon="5.56926">
        <ele>490.2</ele>
        <time>2023-08-30T13:41:30Z</time>
      </trkpt>
      <trkpt lat="46.39205" lon="5.56929">
        <ele>490.2</ele>
        <time>2023-08-30T13:41:31Z</time>
      </trkpt>
      <trkpt lat="46.39203" lon="5.56932">
        <ele>490.2</ele>
        <time>2023-08-30T13:41:32Z</time>
      </trkpt>
      <trkpt lat="46.39202" lon="5.56935">
        <ele>490.8</ele>
        <time>2023-08-30T13:41:33Z</time>
      </trkpt>
      <trkpt lat="46.392" lon="5.56938">
        <ele>490.4</ele>
        <time>2023-08-30T13:41:34Z</time>
      </trkpt>
      <trkpt lat="46.39199" lon="5.5694">
        <ele>490.4</ele>
        <time>2023-08-30T13:41:35Z</time>
      </trkpt>
      <trkpt lat="46.39198" lon="5.56943">
        <ele>490.4</ele>
        <time>2023-08-30T13:41:36Z</time>
      </trkpt>
      <trkpt lat="46.39197" lon="5.56946">
        <ele>491</ele>
        <time>2023-08-30T13:41:37Z</time>
      </trkpt>
      <trkpt lat="46.39195" lon="5.56949">
        <ele>490.4</ele>
        <time>2023-08-30T13:41:38Z</time>
      </trkpt>
      <trkpt lat="46.39194" lon="5.56952">
        <ele>490.4</ele>
        <time>2023-08-30T13:41:39Z</time>
      </trkpt>
      <trkpt lat="46.39193" lon="5.56955">
        <ele>490.4</ele>
        <time>2023-08-30T13:41:40Z</time>
      </trkpt>
      <trkpt lat="46.39192" lon="5.56958">
        <ele>490.4</ele>
        <time>2023-08-30T13:41:41Z</time>
      </trkpt>
      <trkpt lat="46.39191" lon="5.5696">
        <ele>491.4</ele>
        <time>2023-08-30T13:41:42Z</time>
      </trkpt>
      <trkpt lat="46.39189" lon="5.56963">
        <ele>492.2</ele>
        <time>2023-08-30T13:41:43Z</time>
      </trkpt>
      <trkpt lat="46.39188" lon="5.56966">
        <ele>492.2</ele>
        <time>2023-08-30T13:41:44Z</time>
      </trkpt>
      <trkpt lat="46.39187" lon="5.56969">
        <ele>492.2</ele>
        <time>2023-08-30T13:41:45Z</time>
      </trkpt>
      <trkpt lat="46.39186" lon="5.56972">
        <ele>492.2</ele>
        <time>2023-08-30T13:41:46Z</time>
      </trkpt>
      <trkpt lat="46.39185" lon="5.56976">
        <ele>492.4</ele>
        <time>2023-08-30T13:41:47Z</time>
      </trkpt>
      <trkpt lat="46.39184" lon="5.56979">
        <ele>492.4</ele>
        <time>2023-08-30T13:41:48Z</time>
      </trkpt>
      <trkpt lat="46.39183" lon="5.56982">
        <ele>492.4</ele>
        <time>2023-08-30T13:41:49Z</time>
      </trkpt>
      <trkpt lat="46.39183" lon="5.56985">
        <ele>492.4</ele>
        <time>2023-08-30T13:41:50Z</time>
      </trkpt>
      <trkpt lat="46.39182" lon="5.56988">
        <ele>492.6</ele>
        <time>2023-08-30T13:41:51Z</time>
      </trkpt>
      <trkpt lat="46.39181" lon="5.56992">
        <ele>493.2</ele>
        <time>2023-08-30T13:41:52Z</time>
      </trkpt>
      <trkpt lat="46.3918" lon="5.56995">
        <ele>493.2</ele>
        <time>2023-08-30T13:41:53Z</time>
      </trkpt>
      <trkpt lat="46.39179" lon="5.56999">
        <ele>493.2</ele>
        <time>2023-08-30T13:41:54Z</time>
      </trkpt>
      <trkpt lat="46.39179" lon="5.57003">
        <ele>493.2</ele>
        <time>2023-08-30T13:41:55Z</time>
      </trkpt>
      <trkpt lat="46.39179" lon="5.57007">
        <ele>494.2</ele>
        <time>2023-08-30T13:41:56Z</time>
      </trkpt>
      <trkpt lat="46.39179" lon="5.57011">
        <ele>494.8</ele>
        <time>2023-08-30T13:41:57Z</time>
      </trkpt>
      <trkpt lat="46.39179" lon="5.57015">
        <ele>494.8</ele>
        <time>2023-08-30T13:41:58Z</time>
      </trkpt>
      <trkpt lat="46.39178" lon="5.57019">
        <ele>494.8</ele>
        <time>2023-08-30T13:41:59Z</time>
      </trkpt>
      <trkpt lat="46.39178" lon="5.57023">
        <ele>495.8</ele>
        <time>2023-08-30T13:42:00Z</time>
      </trkpt>
      <trkpt lat="46.39177" lon="5.57026">
        <ele>496.2</ele>
        <time>2023-08-30T13:42:01Z</time>
      </trkpt>
      <trkpt lat="46.39176" lon="5.5703">
        <ele>496.2</ele>
        <time>2023-08-30T13:42:02Z</time>
      </trkpt>
      <trkpt lat="46.39175" lon="5.57033">
        <ele>496.2</ele>
        <time>2023-08-30T13:42:03Z</time>
      </trkpt>
      <trkpt lat="46.39175" lon="5.57036">
        <ele>496.2</ele>
        <time>2023-08-30T13:42:04Z</time>
      </trkpt>
      <trkpt lat="46.39174" lon="5.5704">
        <ele>497.2</ele>
        <time>2023-08-30T13:42:05Z</time>
      </trkpt>
      <trkpt lat="46.39174" lon="5.57044">
        <ele>497.6</ele>
        <time>2023-08-30T13:42:06Z</time>
      </trkpt>
      <trkpt lat="46.39174" lon="5.57047">
        <ele>497.6</ele>
        <time>2023-08-30T13:42:07Z</time>
      </trkpt>
      <trkpt lat="46.39173" lon="5.57051">
        <ele>497.6</ele>
        <time>2023-08-30T13:42:08Z</time>
      </trkpt>
      <trkpt lat="46.39172" lon="5.57055">
        <ele>498.4</ele>
        <time>2023-08-30T13:42:09Z</time>
      </trkpt>
      <trkpt lat="46.39171" lon="5.57058">
        <ele>498.8</ele>
        <time>2023-08-30T13:42:10Z</time>
      </trkpt>
      <trkpt lat="46.3917" lon="5.57062">
        <ele>498.8</ele>
        <time>2023-08-30T13:42:11Z</time>
      </trkpt>
      <trkpt lat="46.39169" lon="5.57065">
        <ele>498.8</ele>
        <time>2023-08-30T13:42:12Z</time>
      </trkpt>
      <trkpt lat="46.39167" lon="5.57068">
        <ele>498.8</ele>
        <time>2023-08-30T13:42:13Z</time>
      </trkpt>
      <trkpt lat="46.39166" lon="5.57072">
        <ele>499.8</ele>
        <time>2023-08-30T13:42:14Z</time>
      </trkpt>
      <trkpt lat="46.39165" lon="5.57075">
        <ele>500.2</ele>
        <time>2023-08-30T13:42:15Z</time>
      </trkpt>
      <trkpt lat="46.39164" lon="5.57078">
        <ele>500.2</ele>
        <time>2023-08-30T13:42:16Z</time>
      </trkpt>
      <trkpt lat="46.39163" lon="5.57081">
        <ele>500.2</ele>
        <time>2023-08-30T13:42:17Z</time>
      </trkpt>
      <trkpt lat="46.39162" lon="5.57083">
        <ele>500.8</ele>
        <time>2023-08-30T13:42:18Z</time>
      </trkpt>
      <trkpt lat="46.3916" lon="5.57086">
        <ele>500.8</ele>
        <time>2023-08-30T13:42:19Z</time>
      </trkpt>
      <trkpt lat="46.39159" lon="5.57088">
        <ele>500.8</ele>
        <time>2023-08-30T13:42:20Z</time>
      </trkpt>
      <trkpt lat="46.39159" lon="5.5709">
        <ele>500.8</ele>
        <time>2023-08-30T13:42:21Z</time>
      </trkpt>
      <trkpt lat="46.39158" lon="5.57092">
        <ele>501.2</ele>
        <time>2023-08-30T13:42:22Z</time>
      </trkpt>
      <trkpt lat="46.39156" lon="5.57094">
        <ele>501.4</ele>
        <time>2023-08-30T13:42:23Z</time>
      </trkpt>
      <trkpt lat="46.39155" lon="5.57096">
        <ele>501.4</ele>
        <time>2023-08-30T13:42:24Z</time>
      </trkpt>
      <trkpt lat="46.39154" lon="5.57098">
        <ele>501.4</ele>
        <time>2023-08-30T13:42:25Z</time>
      </trkpt>
      <trkpt lat="46.39152" lon="5.571">
        <ele>501.4</ele>
        <time>2023-08-30T13:42:26Z</time>
      </trkpt>
      <trkpt lat="46.39151" lon="5.57102">
        <ele>501.4</ele>
        <time>2023-08-30T13:42:27Z</time>
      </trkpt>
      <trkpt lat="46.3915" lon="5.57104">
        <ele>501.2</ele>
        <time>2023-08-30T13:42:28Z</time>
      </trkpt>
      <trkpt lat="46.39148" lon="5.57106">
        <ele>501.2</ele>
        <time>2023-08-30T13:42:29Z</time>
      </trkpt>
      <trkpt lat="46.39147" lon="5.57108">
        <ele>501.2</ele>
        <time>2023-08-30T13:42:30Z</time>
      </trkpt>
      <trkpt lat="46.39146" lon="5.5711">
        <ele>501.2</ele>
        <time>2023-08-30T13:42:31Z</time>
      </trkpt>
      <trkpt lat="46.39145" lon="5.57113">
        <ele>501</ele>
        <time>2023-08-30T13:42:32Z</time>
      </trkpt>
      <trkpt lat="46.39144" lon="5.57115">
        <ele>501</ele>
        <time>2023-08-30T13:42:33Z</time>
      </trkpt>
      <trkpt lat="46.39143" lon="5.57118">
        <ele>501</ele>
        <time>2023-08-30T13:42:34Z</time>
      </trkpt>
      <trkpt lat="46.39141" lon="5.5712">
        <ele>501</ele>
        <time>2023-08-30T13:42:35Z</time>
      </trkpt>
      <trkpt lat="46.3914" lon="5.57123">
        <ele>501</ele>
        <time>2023-08-30T13:42:36Z</time>
      </trkpt>
      <trkpt lat="46.39139" lon="5.57125">
        <ele>501</ele>
        <time>2023-08-30T13:42:37Z</time>
      </trkpt>
      <trkpt lat="46.39138" lon="5.57128">
        <ele>500.8</ele>
        <time>2023-08-30T13:42:38Z</time>
      </trkpt>
      <trkpt lat="46.39136" lon="5.5713">
        <ele>500.8</ele>
        <time>2023-08-30T13:42:39Z</time>
      </trkpt>
      <trkpt lat="46.39135" lon="5.57133">
        <ele>500.8</ele>
        <time>2023-08-30T13:42:40Z</time>
      </trkpt>
      <trkpt lat="46.39134" lon="5.57136">
        <ele>500.8</ele>
        <time>2023-08-30T13:42:41Z</time>
      </trkpt>
      <trkpt lat="46.39133" lon="5.57139">
        <ele>500.8</ele>
        <time>2023-08-30T13:42:42Z</time>
      </trkpt>
      <trkpt lat="46.39132" lon="5.57141">
        <ele>500.8</ele>
        <time>2023-08-30T13:42:43Z</time>
      </trkpt>
      <trkpt lat="46.39131" lon="5.57144">
        <ele>500.8</ele>
        <time>2023-08-30T13:42:44Z</time>
      </trkpt>
      <trkpt lat="46.3913" lon="5.57146">
        <ele>500.8</ele>
        <time>2023-08-30T13:42:45Z</time>
      </trkpt>
      <trkpt lat="46.39128" lon="5.57149">
        <ele>501</ele>
        <time>2023-08-30T13:42:46Z</time>
      </trkpt>
      <trkpt lat="46.39127" lon="5.57151">
        <ele>501</ele>
        <time>2023-08-30T13:42:47Z</time>
      </trkpt>
      <trkpt lat="46.39126" lon="5.57153">
        <ele>501</ele>
        <time>2023-08-30T13:42:48Z</time>
      </trkpt>
      <trkpt lat="46.39125" lon="5.57156">
        <ele>501</ele>
        <time>2023-08-30T13:42:49Z</time>
      </trkpt>
      <trkpt lat="46.39124" lon="5.57158">
        <ele>501</ele>
        <time>2023-08-30T13:42:50Z</time>
      </trkpt>
      <trkpt lat="46.39123" lon="5.57161">
        <ele>500.8</ele>
        <time>2023-08-30T13:42:51Z</time>
      </trkpt>
      <trkpt lat="46.39122" lon="5.57163">
        <ele>500.8</ele>
        <time>2023-08-30T13:42:52Z</time>
      </trkpt>
      <trkpt lat="46.39121" lon="5.57166">
        <ele>500.8</ele>
        <time>2023-08-30T13:42:53Z</time>
      </trkpt>
      <trkpt lat="46.3912" lon="5.57169">
        <ele>500.6</ele>
        <time>2023-08-30T13:42:54Z</time>
      </trkpt>
      <trkpt lat="46.39119" lon="5.57171">
        <ele>500.6</ele>
        <time>2023-08-30T13:42:55Z</time>
      </trkpt>
      <trkpt lat="46.39118" lon="5.57174">
        <ele>500.6</ele>
        <time>2023-08-30T13:42:56Z</time>
      </trkpt>
      <trkpt lat="46.39118" lon="5.57177">
        <ele>500.6</ele>
        <time>2023-08-30T13:42:57Z</time>
      </trkpt>
      <trkpt lat="46.39117" lon="5.57179">
        <ele>500.6</ele>
        <time>2023-08-30T13:42:58Z</time>
      </trkpt>
      <trkpt lat="46.39116" lon="5.57182">
        <ele>500.2</ele>
        <time>2023-08-30T13:42:59Z</time>
      </trkpt>
      <trkpt lat="46.39115" lon="5.57184">
        <ele>500</ele>
        <time>2023-08-30T13:43:00Z</time>
      </trkpt>
      <trkpt lat="46.39114" lon="5.57187">
        <ele>500</ele>
        <time>2023-08-30T13:43:01Z</time>
      </trkpt>
      <trkpt lat="46.39113" lon="5.5719">
        <ele>500</ele>
        <time>2023-08-30T13:43:02Z</time>
      </trkpt>
      <trkpt lat="46.39112" lon="5.57192">
        <ele>500</ele>
        <time>2023-08-30T13:43:03Z</time>
      </trkpt>
      <trkpt lat="46.39111" lon="5.57194">
        <ele>500</ele>
        <time>2023-08-30T13:43:04Z</time>
      </trkpt>
      <trkpt lat="46.3911" lon="5.57197">
        <ele>500</ele>
        <time>2023-08-30T13:43:05Z</time>
      </trkpt>
      <trkpt lat="46.3911" lon="5.57199">
        <ele>500</ele>
        <time>2023-08-30T13:43:06Z</time>
      </trkpt>
      <trkpt lat="46.39109" lon="5.57202">
        <ele>500</ele>
        <time>2023-08-30T13:43:07Z</time>
      </trkpt>
      <trkpt lat="46.39108" lon="5.57204">
        <ele>500</ele>
        <time>2023-08-30T13:43:08Z</time>
      </trkpt>
      <trkpt lat="46.39108" lon="5.57206">
        <ele>500.2</ele>
        <time>2023-08-30T13:43:09Z</time>
      </trkpt>
      <trkpt lat="46.39107" lon="5.57208">
        <ele>500.2</ele>
        <time>2023-08-30T13:43:10Z</time>
      </trkpt>
      <trkpt lat="46.39106" lon="5.5721">
        <ele>500.2</ele>
        <time>2023-08-30T13:43:11Z</time>
      </trkpt>
      <trkpt lat="46.39105" lon="5.57213">
        <ele>500.4</ele>
        <time>2023-08-30T13:43:12Z</time>
      </trkpt>
      <trkpt lat="46.39104" lon="5.57215">
        <ele>500.4</ele>
        <time>2023-08-30T13:43:13Z</time>
      </trkpt>
      <trkpt lat="46.39103" lon="5.57217">
        <ele>500.4</ele>
        <time>2023-08-30T13:43:14Z</time>
      </trkpt>
      <trkpt lat="46.39102" lon="5.57219">
        <ele>500.4</ele>
        <time>2023-08-30T13:43:15Z</time>
      </trkpt>
      <trkpt lat="46.39101" lon="5.57221">
        <ele>500.4</ele>
        <time>2023-08-30T13:43:16Z</time>
      </trkpt>
      <trkpt lat="46.391" lon="5.57224">
        <ele>500.6</ele>
        <time>2023-08-30T13:43:17Z</time>
      </trkpt>
      <trkpt lat="46.39099" lon="5.57226">
        <ele>500.8</ele>
        <time>2023-08-30T13:43:18Z</time>
      </trkpt>
      <trkpt lat="46.39098" lon="5.57228">
        <ele>500.8</ele>
        <time>2023-08-30T13:43:19Z</time>
      </trkpt>
      <trkpt lat="46.39098" lon="5.5723">
        <ele>500.8</ele>
        <time>2023-08-30T13:43:20Z</time>
      </trkpt>
      <trkpt lat="46.39097" lon="5.57233">
        <ele>500.8</ele>
        <time>2023-08-30T13:43:21Z</time>
      </trkpt>
      <trkpt lat="46.39096" lon="5.57235">
        <ele>500.6</ele>
        <time>2023-08-30T13:43:22Z</time>
      </trkpt>
      <trkpt lat="46.39095" lon="5.57237">
        <ele>500.6</ele>
        <time>2023-08-30T13:43:23Z</time>
      </trkpt>
      <trkpt lat="46.39095" lon="5.5724">
        <ele>500.6</ele>
        <time>2023-08-30T13:43:24Z</time>
      </trkpt>
      <trkpt lat="46.39094" lon="5.57242">
        <ele>500.6</ele>
        <time>2023-08-30T13:43:25Z</time>
      </trkpt>
      <trkpt lat="46.39093" lon="5.57245">
        <ele>500.6</ele>
        <time>2023-08-30T13:43:26Z</time>
      </trkpt>
      <trkpt lat="46.39093" lon="5.57247">
        <ele>500.8</ele>
        <time>2023-08-30T13:43:27Z</time>
      </trkpt>
      <trkpt lat="46.39092" lon="5.57249">
        <ele>500.8</ele>
        <time>2023-08-30T13:43:28Z</time>
      </trkpt>
      <trkpt lat="46.39091" lon="5.57252">
        <ele>500.8</ele>
        <time>2023-08-30T13:43:29Z</time>
      </trkpt>
      <trkpt lat="46.3909" lon="5.57254">
        <ele>500.8</ele>
        <time>2023-08-30T13:43:30Z</time>
      </trkpt>
      <trkpt lat="46.3909" lon="5.57257">
        <ele>500.8</ele>
        <time>2023-08-30T13:43:31Z</time>
      </trkpt>
      <trkpt lat="46.39089" lon="5.57259">
        <ele>500.8</ele>
        <time>2023-08-30T13:43:32Z</time>
      </trkpt>
      <trkpt lat="46.39089" lon="5.57261">
        <ele>500.8</ele>
        <time>2023-08-30T13:43:33Z</time>
      </trkpt>
      <trkpt lat="46.39088" lon="5.57264">
        <ele>500.8</ele>
        <time>2023-08-30T13:43:34Z</time>
      </trkpt>
      <trkpt lat="46.39087" lon="5.57266">
        <ele>500.8</ele>
        <time>2023-08-30T13:43:35Z</time>
      </trkpt>
      <trkpt lat="46.39086" lon="5.57269">
        <ele>500.8</ele>
        <time>2023-08-30T13:43:36Z</time>
      </trkpt>
      <trkpt lat="46.39086" lon="5.57272">
        <ele>501</ele>
        <time>2023-08-30T13:43:37Z</time>
      </trkpt>
      <trkpt lat="46.39085" lon="5.57274">
        <ele>501</ele>
        <time>2023-08-30T13:43:38Z</time>
      </trkpt>
      <trkpt lat="46.39084" lon="5.57277">
        <ele>501</ele>
        <time>2023-08-30T13:43:39Z</time>
      </trkpt>
      <trkpt lat="46.39084" lon="5.5728">
        <ele>501.2</ele>
        <time>2023-08-30T13:43:40Z</time>
      </trkpt>
      <trkpt lat="46.39083" lon="5.57282">
        <ele>501.2</ele>
        <time>2023-08-30T13:43:41Z</time>
      </trkpt>
      <trkpt lat="46.39083" lon="5.57285">
        <ele>501.2</ele>
        <time>2023-08-30T13:43:42Z</time>
      </trkpt>
      <trkpt lat="46.39082" lon="5.57287">
        <ele>501.2</ele>
        <time>2023-08-30T13:43:43Z</time>
      </trkpt>
      <trkpt lat="46.39081" lon="5.5729">
        <ele>501.4</ele>
        <time>2023-08-30T13:43:44Z</time>
      </trkpt>
      <trkpt lat="46.39081" lon="5.57292">
        <ele>501.4</ele>
        <time>2023-08-30T13:43:45Z</time>
      </trkpt>
      <trkpt lat="46.3908" lon="5.57295">
        <ele>501.4</ele>
        <time>2023-08-30T13:43:46Z</time>
      </trkpt>
      <trkpt lat="46.3908" lon="5.57298">
        <ele>501.4</ele>
        <time>2023-08-30T13:43:47Z</time>
      </trkpt>
      <trkpt lat="46.3908" lon="5.573">
        <ele>501.4</ele>
        <time>2023-08-30T13:43:48Z</time>
      </trkpt>
      <trkpt lat="46.39079" lon="5.57303">
        <ele>501.4</ele>
        <time>2023-08-30T13:43:49Z</time>
      </trkpt>
      <trkpt lat="46.39078" lon="5.57305">
        <ele>501.4</ele>
        <time>2023-08-30T13:43:50Z</time>
      </trkpt>
      <trkpt lat="46.39078" lon="5.57307">
        <ele>501.4</ele>
        <time>2023-08-30T13:43:51Z</time>
      </trkpt>
      <trkpt lat="46.39077" lon="5.5731">
        <ele>501.4</ele>
        <time>2023-08-30T13:43:52Z</time>
      </trkpt>
      <trkpt lat="46.39076" lon="5.57312">
        <ele>501.4</ele>
        <time>2023-08-30T13:43:53Z</time>
      </trkpt>
      <trkpt lat="46.39075" lon="5.57315">
        <ele>501.4</ele>
        <time>2023-08-30T13:43:54Z</time>
      </trkpt>
      <trkpt lat="46.39075" lon="5.57318">
        <ele>501.4</ele>
        <time>2023-08-30T13:43:55Z</time>
      </trkpt>
      <trkpt lat="46.39074" lon="5.57321">
        <ele>501.4</ele>
        <time>2023-08-30T13:43:56Z</time>
      </trkpt>
      <trkpt lat="46.39074" lon="5.57324">
        <ele>501.4</ele>
        <time>2023-08-30T13:43:57Z</time>
      </trkpt>
      <trkpt lat="46.39073" lon="5.57326">
        <ele>501.4</ele>
        <time>2023-08-30T13:43:58Z</time>
      </trkpt>
      <trkpt lat="46.39073" lon="5.57329">
        <ele>501.4</ele>
        <time>2023-08-30T13:43:59Z</time>
      </trkpt>
      <trkpt lat="46.39072" lon="5.57332">
        <ele>501.4</ele>
        <time>2023-08-30T13:44:00Z</time>
      </trkpt>
      <trkpt lat="46.39072" lon="5.57335">
        <ele>501.4</ele>
        <time>2023-08-30T13:44:01Z</time>
      </trkpt>
      <trkpt lat="46.39071" lon="5.57338">
        <ele>501.4</ele>
        <time>2023-08-30T13:44:02Z</time>
      </trkpt>
      <trkpt lat="46.39071" lon="5.5734">
        <ele>501.8</ele>
        <time>2023-08-30T13:44:03Z</time>
      </trkpt>
      <trkpt lat="46.39071" lon="5.57343">
        <ele>501.8</ele>
        <time>2023-08-30T13:44:04Z</time>
      </trkpt>
      <trkpt lat="46.3907" lon="5.57345">
        <ele>501.8</ele>
        <time>2023-08-30T13:44:05Z</time>
      </trkpt>
      <trkpt lat="46.3907" lon="5.57348">
        <ele>501.8</ele>
        <time>2023-08-30T13:44:06Z</time>
      </trkpt>
      <trkpt lat="46.39069" lon="5.57351">
        <ele>501.8</ele>
        <time>2023-08-30T13:44:07Z</time>
      </trkpt>
      <trkpt lat="46.39069" lon="5.57354">
        <ele>502.6</ele>
        <time>2023-08-30T13:44:08Z</time>
      </trkpt>
      <trkpt lat="46.39069" lon="5.57357">
        <ele>502.6</ele>
        <time>2023-08-30T13:44:09Z</time>
      </trkpt>
      <trkpt lat="46.39069" lon="5.57359">
        <ele>502.6</ele>
        <time>2023-08-30T13:44:10Z</time>
      </trkpt>
      <trkpt lat="46.39068" lon="5.57362">
        <ele>503.6</ele>
        <time>2023-08-30T13:44:11Z</time>
      </trkpt>
      <trkpt lat="46.39067" lon="5.57365">
        <ele>504</ele>
        <time>2023-08-30T13:44:12Z</time>
      </trkpt>
      <trkpt lat="46.39067" lon="5.57368">
        <ele>504</ele>
        <time>2023-08-30T13:44:13Z</time>
      </trkpt>
      <trkpt lat="46.39067" lon="5.57371">
        <ele>504</ele>
        <time>2023-08-30T13:44:14Z</time>
      </trkpt>
      <trkpt lat="46.39066" lon="5.57373">
        <ele>504</ele>
        <time>2023-08-30T13:44:15Z</time>
      </trkpt>
      <trkpt lat="46.39066" lon="5.57376">
        <ele>505</ele>
        <time>2023-08-30T13:44:16Z</time>
      </trkpt>
      <trkpt lat="46.39066" lon="5.57379">
        <ele>505.6</ele>
        <time>2023-08-30T13:44:17Z</time>
      </trkpt>
      <trkpt lat="46.39065" lon="5.57382">
        <ele>505.6</ele>
        <time>2023-08-30T13:44:18Z</time>
      </trkpt>
      <trkpt lat="46.39064" lon="5.57385">
        <ele>505.6</ele>
        <time>2023-08-30T13:44:19Z</time>
      </trkpt>
      <trkpt lat="46.39063" lon="5.57387">
        <ele>505.6</ele>
        <time>2023-08-30T13:44:20Z</time>
      </trkpt>
      <trkpt lat="46.39062" lon="5.5739">
        <ele>507</ele>
        <time>2023-08-30T13:44:21Z</time>
      </trkpt>
      <trkpt lat="46.39062" lon="5.57393">
        <ele>507</ele>
        <time>2023-08-30T13:44:22Z</time>
      </trkpt>
      <trkpt lat="46.39061" lon="5.57395">
        <ele>507</ele>
        <time>2023-08-30T13:44:23Z</time>
      </trkpt>
      <trkpt lat="46.39061" lon="5.57398">
        <ele>508</ele>
        <time>2023-08-30T13:44:24Z</time>
      </trkpt>
      <trkpt lat="46.39061" lon="5.57401">
        <ele>508</ele>
        <time>2023-08-30T13:44:25Z</time>
      </trkpt>
      <trkpt lat="46.3906" lon="5.57403">
        <ele>508.8</ele>
        <time>2023-08-30T13:44:26Z</time>
      </trkpt>
      <trkpt lat="46.3906" lon="5.57406">
        <ele>508.8</ele>
        <time>2023-08-30T13:44:27Z</time>
      </trkpt>
      <trkpt lat="46.3906" lon="5.57408">
        <ele>508.8</ele>
        <time>2023-08-30T13:44:28Z</time>
      </trkpt>
      <trkpt lat="46.39059" lon="5.57411">
        <ele>509.8</ele>
        <time>2023-08-30T13:44:29Z</time>
      </trkpt>
      <trkpt lat="46.39059" lon="5.57413">
        <ele>510.2</ele>
        <time>2023-08-30T13:44:30Z</time>
      </trkpt>
      <trkpt lat="46.39058" lon="5.57416">
        <ele>510.2</ele>
        <time>2023-08-30T13:44:31Z</time>
      </trkpt>
      <trkpt lat="46.39058" lon="5.57418">
        <ele>510.2</ele>
        <time>2023-08-30T13:44:32Z</time>
      </trkpt>
      <trkpt lat="46.39058" lon="5.57421">
        <ele>510.2</ele>
        <time>2023-08-30T13:44:33Z</time>
      </trkpt>
      <trkpt lat="46.39059" lon="5.57424">
        <ele>511.8</ele>
        <time>2023-08-30T13:44:34Z</time>
      </trkpt>
      <trkpt lat="46.39059" lon="5.57427">
        <ele>511.8</ele>
        <time>2023-08-30T13:44:35Z</time>
      </trkpt>
      <trkpt lat="46.3906" lon="5.5743">
        <ele>511.8</ele>
        <time>2023-08-30T13:44:36Z</time>
      </trkpt>
      <trkpt lat="46.39061" lon="5.57432">
        <ele>511.8</ele>
        <time>2023-08-30T13:44:37Z</time>
      </trkpt>
      <trkpt lat="46.39062" lon="5.57435">
        <ele>512.8</ele>
        <time>2023-08-30T13:44:38Z</time>
      </trkpt>
      <trkpt lat="46.39063" lon="5.57437">
        <ele>513.4</ele>
        <time>2023-08-30T13:44:39Z</time>
      </trkpt>
      <trkpt lat="46.39064" lon="5.57439">
        <ele>513.4</ele>
        <time>2023-08-30T13:44:40Z</time>
      </trkpt>
      <trkpt lat="46.39066" lon="5.57442">
        <ele>513.4</ele>
        <time>2023-08-30T13:44:41Z</time>
      </trkpt>
      <trkpt lat="46.39067" lon="5.57444">
        <ele>514.4</ele>
        <time>2023-08-30T13:44:42Z</time>
      </trkpt>
      <trkpt lat="46.39068" lon="5.57447">
        <ele>514.4</ele>
        <time>2023-08-30T13:44:43Z</time>
      </trkpt>
      <trkpt lat="46.3907" lon="5.57449">
        <ele>515.2</ele>
        <time>2023-08-30T13:44:44Z</time>
      </trkpt>
      <trkpt lat="46.39071" lon="5.57451">
        <ele>515.2</ele>
        <time>2023-08-30T13:44:45Z</time>
      </trkpt>
      <trkpt lat="46.39073" lon="5.57453">
        <ele>515.2</ele>
        <time>2023-08-30T13:44:46Z</time>
      </trkpt>
      <trkpt lat="46.39074" lon="5.57455">
        <ele>515.2</ele>
        <time>2023-08-30T13:44:47Z</time>
      </trkpt>
      <trkpt lat="46.39076" lon="5.57456">
        <ele>516.2</ele>
        <time>2023-08-30T13:44:48Z</time>
      </trkpt>
      <trkpt lat="46.39078" lon="5.57458">
        <ele>516.4</ele>
        <time>2023-08-30T13:44:49Z</time>
      </trkpt>
      <trkpt lat="46.39079" lon="5.57459">
        <ele>516.4</ele>
        <time>2023-08-30T13:44:50Z</time>
      </trkpt>
      <trkpt lat="46.39081" lon="5.5746">
        <ele>516.4</ele>
        <time>2023-08-30T13:44:51Z</time>
      </trkpt>
      <trkpt lat="46.39083" lon="5.57462">
        <ele>517.4</ele>
        <time>2023-08-30T13:44:52Z</time>
      </trkpt>
      <trkpt lat="46.39085" lon="5.57463">
        <ele>517.6</ele>
        <time>2023-08-30T13:44:53Z</time>
      </trkpt>
      <trkpt lat="46.39087" lon="5.57464">
        <ele>517.6</ele>
        <time>2023-08-30T13:44:54Z</time>
      </trkpt>
      <trkpt lat="46.39088" lon="5.57466">
        <ele>517.6</ele>
        <time>2023-08-30T13:44:55Z</time>
      </trkpt>
      <trkpt lat="46.3909" lon="5.57467">
        <ele>518.6</ele>
        <time>2023-08-30T13:44:56Z</time>
      </trkpt>
      <trkpt lat="46.39092" lon="5.57469">
        <ele>519</ele>
        <time>2023-08-30T13:44:57Z</time>
      </trkpt>
      <trkpt lat="46.39094" lon="5.5747">
        <ele>519</ele>
        <time>2023-08-30T13:44:58Z</time>
      </trkpt>
      <trkpt lat="46.39096" lon="5.57471">
        <ele>519</ele>
        <time>2023-08-30T13:44:59Z</time>
      </trkpt>
      <trkpt lat="46.39097" lon="5.57473">
        <ele>519</ele>
        <time>2023-08-30T13:45:00Z</time>
      </trkpt>
      <trkpt lat="46.39099" lon="5.57474">
        <ele>520</ele>
        <time>2023-08-30T13:45:01Z</time>
      </trkpt>
      <trkpt lat="46.391" lon="5.57475">
        <ele>520</ele>
        <time>2023-08-30T13:45:02Z</time>
      </trkpt>
      <trkpt lat="46.39102" lon="5.57477">
        <ele>520.6</ele>
        <time>2023-08-30T13:45:03Z</time>
      </trkpt>
      <trkpt lat="46.39104" lon="5.57478">
        <ele>520.6</ele>
        <time>2023-08-30T13:45:04Z</time>
      </trkpt>
      <trkpt lat="46.39105" lon="5.5748">
        <ele>521.2</ele>
        <time>2023-08-30T13:45:05Z</time>
      </trkpt>
      <trkpt lat="46.39107" lon="5.57481">
        <ele>521.8</ele>
        <time>2023-08-30T13:45:06Z</time>
      </trkpt>
      <trkpt lat="46.39109" lon="5.57483">
        <ele>521.8</ele>
        <time>2023-08-30T13:45:07Z</time>
      </trkpt>
      <trkpt lat="46.39111" lon="5.57484">
        <ele>521.8</ele>
        <time>2023-08-30T13:45:08Z</time>
      </trkpt>
      <trkpt lat="46.39113" lon="5.57485">
        <ele>521.8</ele>
        <time>2023-08-30T13:45:09Z</time>
      </trkpt>
      <trkpt lat="46.39115" lon="5.57487">
        <ele>522.4</ele>
        <time>2023-08-30T13:45:10Z</time>
      </trkpt>
      <trkpt lat="46.39117" lon="5.57488">
        <ele>522.6</ele>
        <time>2023-08-30T13:45:11Z</time>
      </trkpt>
      <trkpt lat="46.39119" lon="5.57489">
        <ele>522.6</ele>
        <time>2023-08-30T13:45:12Z</time>
      </trkpt>
      <trkpt lat="46.3912" lon="5.57491">
        <ele>522.6</ele>
        <time>2023-08-30T13:45:13Z</time>
      </trkpt>
      <trkpt lat="46.39122" lon="5.57493">
        <ele>523.6</ele>
        <time>2023-08-30T13:45:14Z</time>
      </trkpt>
      <trkpt lat="46.39124" lon="5.57494">
        <ele>523.8</ele>
        <time>2023-08-30T13:45:15Z</time>
      </trkpt>
      <trkpt lat="46.39126" lon="5.57495">
        <ele>523.8</ele>
        <time>2023-08-30T13:45:16Z</time>
      </trkpt>
      <trkpt lat="46.39127" lon="5.57497">
        <ele>523.8</ele>
        <time>2023-08-30T13:45:17Z</time>
      </trkpt>
      <trkpt lat="46.39129" lon="5.57498">
        <ele>523.8</ele>
        <time>2023-08-30T13:45:18Z</time>
      </trkpt>
      <trkpt lat="46.39131" lon="5.575">
        <ele>523.8</ele>
        <time>2023-08-30T13:45:19Z</time>
      </trkpt>
      <trkpt lat="46.39133" lon="5.57501">
        <ele>524.4</ele>
        <time>2023-08-30T13:45:20Z</time>
      </trkpt>
      <trkpt lat="46.39135" lon="5.57502">
        <ele>524.4</ele>
        <time>2023-08-30T13:45:21Z</time>
      </trkpt>
      <trkpt lat="46.39137" lon="5.57504">
        <ele>524.4</ele>
        <time>2023-08-30T13:45:22Z</time>
      </trkpt>
      <trkpt lat="46.39138" lon="5.57506">
        <ele>524.4</ele>
        <time>2023-08-30T13:45:23Z</time>
      </trkpt>
      <trkpt lat="46.3914" lon="5.57507">
        <ele>525</ele>
        <time>2023-08-30T13:45:24Z</time>
      </trkpt>
      <trkpt lat="46.39142" lon="5.57509">
        <ele>525</ele>
        <time>2023-08-30T13:45:25Z</time>
      </trkpt>
      <trkpt lat="46.39143" lon="5.57511">
        <ele>525</ele>
        <time>2023-08-30T13:45:26Z</time>
      </trkpt>
      <trkpt lat="46.39145" lon="5.57513">
        <ele>525</ele>
        <time>2023-08-30T13:45:27Z</time>
      </trkpt>
      <trkpt lat="46.39147" lon="5.57514">
        <ele>525.2</ele>
        <time>2023-08-30T13:45:28Z</time>
      </trkpt>
      <trkpt lat="46.39148" lon="5.57516">
        <ele>525.4</ele>
        <time>2023-08-30T13:45:29Z</time>
      </trkpt>
      <trkpt lat="46.3915" lon="5.57518">
        <ele>525.4</ele>
        <time>2023-08-30T13:45:30Z</time>
      </trkpt>
      <trkpt lat="46.39152" lon="5.57519">
        <ele>525.4</ele>
        <time>2023-08-30T13:45:31Z</time>
      </trkpt>
      <trkpt lat="46.39153" lon="5.57521">
        <ele>526</ele>
        <time>2023-08-30T13:45:32Z</time>
      </trkpt>
      <trkpt lat="46.39155" lon="5.57523">
        <ele>526</ele>
        <time>2023-08-30T13:45:33Z</time>
      </trkpt>
      <trkpt lat="46.39156" lon="5.57524">
        <ele>525.8</ele>
        <time>2023-08-30T13:45:34Z</time>
      </trkpt>
      <trkpt lat="46.39158" lon="5.57526">
        <ele>525.8</ele>
        <time>2023-08-30T13:45:35Z</time>
      </trkpt>
      <trkpt lat="46.3916" lon="5.57528">
        <ele>525.8</ele>
        <time>2023-08-30T13:45:36Z</time>
      </trkpt>
      <trkpt lat="46.39161" lon="5.5753">
        <ele>525.8</ele>
        <time>2023-08-30T13:45:37Z</time>
      </trkpt>
      <trkpt lat="46.39162" lon="5.57531">
        <ele>526.2</ele>
        <time>2023-08-30T13:45:38Z</time>
      </trkpt>
      <trkpt lat="46.39164" lon="5.57532">
        <ele>526</ele>
        <time>2023-08-30T13:45:39Z</time>
      </trkpt>
      <trkpt lat="46.39166" lon="5.57534">
        <ele>526</ele>
        <time>2023-08-30T13:45:40Z</time>
      </trkpt>
      <trkpt lat="46.39167" lon="5.57535">
        <ele>526</ele>
        <time>2023-08-30T13:45:41Z</time>
      </trkpt>
      <trkpt lat="46.39169" lon="5.57537">
        <ele>526.4</ele>
        <time>2023-08-30T13:45:42Z</time>
      </trkpt>
      <trkpt lat="46.39171" lon="5.57539">
        <ele>526.4</ele>
        <time>2023-08-30T13:45:43Z</time>
      </trkpt>
      <trkpt lat="46.39173" lon="5.5754">
        <ele>526.4</ele>
        <time>2023-08-30T13:45:44Z</time>
      </trkpt>
      <trkpt lat="46.39174" lon="5.57542">
        <ele>526.4</ele>
        <time>2023-08-30T13:45:45Z</time>
      </trkpt>
      <trkpt lat="46.39176" lon="5.57544">
        <ele>526.4</ele>
        <time>2023-08-30T13:45:46Z</time>
      </trkpt>
      <trkpt lat="46.39178" lon="5.57545">
        <ele>527</ele>
        <time>2023-08-30T13:45:47Z</time>
      </trkpt>
      <trkpt lat="46.39179" lon="5.57546">
        <ele>527</ele>
        <time>2023-08-30T13:45:48Z</time>
      </trkpt>
      <trkpt lat="46.39181" lon="5.57548">
        <ele>527</ele>
        <time>2023-08-30T13:45:49Z</time>
      </trkpt>
      <trkpt lat="46.39182" lon="5.57549">
        <ele>527</ele>
        <time>2023-08-30T13:45:50Z</time>
      </trkpt>
      <trkpt lat="46.39184" lon="5.57551">
        <ele>527.2</ele>
        <time>2023-08-30T13:45:51Z</time>
      </trkpt>
      <trkpt lat="46.39186" lon="5.57552">
        <ele>527.4</ele>
        <time>2023-08-30T13:45:52Z</time>
      </trkpt>
      <trkpt lat="46.39188" lon="5.57553">
        <ele>527.4</ele>
        <time>2023-08-30T13:45:53Z</time>
      </trkpt>
      <trkpt lat="46.39189" lon="5.57555">
        <ele>527.4</ele>
        <time>2023-08-30T13:45:54Z</time>
      </trkpt>
      <trkpt lat="46.39191" lon="5.57557">
        <ele>527.4</ele>
        <time>2023-08-30T13:45:55Z</time>
      </trkpt>
      <trkpt lat="46.39192" lon="5.57558">
        <ele>528.2</ele>
        <time>2023-08-30T13:45:56Z</time>
      </trkpt>
      <trkpt lat="46.39194" lon="5.5756">
        <ele>528.2</ele>
        <time>2023-08-30T13:45:57Z</time>
      </trkpt>
      <trkpt lat="46.39195" lon="5.57561">
        <ele>528.2</ele>
        <time>2023-08-30T13:45:58Z</time>
      </trkpt>
      <trkpt lat="46.39197" lon="5.57563">
        <ele>528.2</ele>
        <time>2023-08-30T13:45:59Z</time>
      </trkpt>
      <trkpt lat="46.39199" lon="5.57565">
        <ele>528.2</ele>
        <time>2023-08-30T13:46:00Z</time>
      </trkpt>
      <trkpt lat="46.39201" lon="5.57566">
        <ele>528.6</ele>
        <time>2023-08-30T13:46:01Z</time>
      </trkpt>
      <trkpt lat="46.39202" lon="5.57567">
        <ele>528.8</ele>
        <time>2023-08-30T13:46:02Z</time>
      </trkpt>
      <trkpt lat="46.39204" lon="5.57569">
        <ele>528.8</ele>
        <time>2023-08-30T13:46:03Z</time>
      </trkpt>
      <trkpt lat="46.39206" lon="5.5757">
        <ele>528.8</ele>
        <time>2023-08-30T13:46:04Z</time>
      </trkpt>
      <trkpt lat="46.39208" lon="5.57571">
        <ele>528.8</ele>
        <time>2023-08-30T13:46:05Z</time>
      </trkpt>
      <trkpt lat="46.3921" lon="5.57573">
        <ele>529.2</ele>
        <time>2023-08-30T13:46:06Z</time>
      </trkpt>
      <trkpt lat="46.39212" lon="5.57574">
        <ele>529.2</ele>
        <time>2023-08-30T13:46:07Z</time>
      </trkpt>
      <trkpt lat="46.39214" lon="5.57575">
        <ele>529.2</ele>
        <time>2023-08-30T13:46:08Z</time>
      </trkpt>
      <trkpt lat="46.39216" lon="5.57576">
        <ele>529.2</ele>
        <time>2023-08-30T13:46:09Z</time>
      </trkpt>
      <trkpt lat="46.39218" lon="5.57577">
        <ele>529.2</ele>
        <time>2023-08-30T13:46:10Z</time>
      </trkpt>
      <trkpt lat="46.3922" lon="5.57578">
        <ele>529.4</ele>
        <time>2023-08-30T13:46:11Z</time>
      </trkpt>
      <trkpt lat="46.39222" lon="5.5758">
        <ele>529.4</ele>
        <time>2023-08-30T13:46:12Z</time>
      </trkpt>
      <trkpt lat="46.39224" lon="5.57581">
        <ele>529.4</ele>
        <time>2023-08-30T13:46:13Z</time>
      </trkpt>
      <trkpt lat="46.39225" lon="5.57583">
        <ele>529.8</ele>
        <time>2023-08-30T13:46:14Z</time>
      </trkpt>
      <trkpt lat="46.39227" lon="5.57585">
        <ele>530</ele>
        <time>2023-08-30T13:46:15Z</time>
      </trkpt>
      <trkpt lat="46.39228" lon="5.57586">
        <ele>530</ele>
        <time>2023-08-30T13:46:16Z</time>
      </trkpt>
      <trkpt lat="46.3923" lon="5.57587">
        <ele>530</ele>
        <time>2023-08-30T13:46:17Z</time>
      </trkpt>
      <trkpt lat="46.39232" lon="5.57589">
        <ele>530</ele>
        <time>2023-08-30T13:46:18Z</time>
      </trkpt>
      <trkpt lat="46.39234" lon="5.5759">
        <ele>530</ele>
        <time>2023-08-30T13:46:19Z</time>
      </trkpt>
      <trkpt lat="46.39235" lon="5.57592">
        <ele>530.2</ele>
        <time>2023-08-30T13:46:20Z</time>
      </trkpt>
      <trkpt lat="46.39237" lon="5.57593">
        <ele>530.2</ele>
        <time>2023-08-30T13:46:21Z</time>
      </trkpt>
      <trkpt lat="46.39239" lon="5.57595">
        <ele>530.2</ele>
        <time>2023-08-30T13:46:22Z</time>
      </trkpt>
      <trkpt lat="46.3924" lon="5.57597">
        <ele>530.4</ele>
        <time>2023-08-30T13:46:23Z</time>
      </trkpt>
      <trkpt lat="46.39242" lon="5.57598">
        <ele>530.6</ele>
        <time>2023-08-30T13:46:24Z</time>
      </trkpt>
      <trkpt lat="46.39243" lon="5.576">
        <ele>530.6</ele>
        <time>2023-08-30T13:46:25Z</time>
      </trkpt>
      <trkpt lat="46.39245" lon="5.57601">
        <ele>530.6</ele>
        <time>2023-08-30T13:46:26Z</time>
      </trkpt>
      <trkpt lat="46.39246" lon="5.57603">
        <ele>530.6</ele>
        <time>2023-08-30T13:46:27Z</time>
      </trkpt>
      <trkpt lat="46.39248" lon="5.57604">
        <ele>531</ele>
        <time>2023-08-30T13:46:28Z</time>
      </trkpt>
      <trkpt lat="46.39249" lon="5.57606">
        <ele>531</ele>
        <time>2023-08-30T13:46:29Z</time>
      </trkpt>
      <trkpt lat="46.3925" lon="5.57608">
        <ele>531</ele>
        <time>2023-08-30T13:46:30Z</time>
      </trkpt>
      <trkpt lat="46.39252" lon="5.5761">
        <ele>531</ele>
        <time>2023-08-30T13:46:31Z</time>
      </trkpt>
      <trkpt lat="46.39253" lon="5.57612">
        <ele>531</ele>
        <time>2023-08-30T13:46:32Z</time>
      </trkpt>
      <trkpt lat="46.39255" lon="5.57614">
        <ele>531.4</ele>
        <time>2023-08-30T13:46:33Z</time>
      </trkpt>
      <trkpt lat="46.39256" lon="5.57616">
        <ele>531.4</ele>
        <time>2023-08-30T13:46:34Z</time>
      </trkpt>
      <trkpt lat="46.39258" lon="5.57618">
        <ele>531.4</ele>
        <time>2023-08-30T13:46:35Z</time>
      </trkpt>
      <trkpt lat="46.39259" lon="5.5762">
        <ele>531.4</ele>
        <time>2023-08-30T13:46:36Z</time>
      </trkpt>
      <trkpt lat="46.3926" lon="5.57622">
        <ele>531.4</ele>
        <time>2023-08-30T13:46:37Z</time>
      </trkpt>
      <trkpt lat="46.39262" lon="5.57624">
        <ele>531.8</ele>
        <time>2023-08-30T13:46:38Z</time>
      </trkpt>
      <trkpt lat="46.39264" lon="5.57627">
        <ele>531.8</ele>
        <time>2023-08-30T13:46:39Z</time>
      </trkpt>
      <trkpt lat="46.39265" lon="5.57629">
        <ele>531.8</ele>
        <time>2023-08-30T13:46:40Z</time>
      </trkpt>
      <trkpt lat="46.39267" lon="5.57631">
        <ele>531.8</ele>
        <time>2023-08-30T13:46:41Z</time>
      </trkpt>
      <trkpt lat="46.39268" lon="5.57633">
        <ele>532.4</ele>
        <time>2023-08-30T13:46:42Z</time>
      </trkpt>
      <trkpt lat="46.39269" lon="5.57636">
        <ele>532.6</ele>
        <time>2023-08-30T13:46:43Z</time>
      </trkpt>
      <trkpt lat="46.39271" lon="5.57638">
        <ele>532.6</ele>
        <time>2023-08-30T13:46:44Z</time>
      </trkpt>
      <trkpt lat="46.39272" lon="5.5764">
        <ele>532.6</ele>
        <time>2023-08-30T13:46:45Z</time>
      </trkpt>
      <trkpt lat="46.39273" lon="5.57643">
        <ele>533.4</ele>
        <time>2023-08-30T13:46:46Z</time>
      </trkpt>
      <trkpt lat="46.39274" lon="5.57646">
        <ele>533.6</ele>
        <time>2023-08-30T13:46:47Z</time>
      </trkpt>
      <trkpt lat="46.39275" lon="5.57649">
        <ele>533.6</ele>
        <time>2023-08-30T13:46:48Z</time>
      </trkpt>
      <trkpt lat="46.39276" lon="5.57652">
        <ele>533.6</ele>
        <time>2023-08-30T13:46:49Z</time>
      </trkpt>
      <trkpt lat="46.39276" lon="5.57654">
        <ele>534.2</ele>
        <time>2023-08-30T13:46:50Z</time>
      </trkpt>
      <trkpt lat="46.39277" lon="5.57656">
        <ele>534.2</ele>
        <time>2023-08-30T13:46:51Z</time>
      </trkpt>
      <trkpt lat="46.39278" lon="5.57659">
        <ele>534.2</ele>
        <time>2023-08-30T13:46:52Z</time>
      </trkpt>
      <trkpt lat="46.39279" lon="5.57662">
        <ele>534.2</ele>
        <time>2023-08-30T13:46:53Z</time>
      </trkpt>
      <trkpt lat="46.39279" lon="5.57665">
        <ele>534.2</ele>
        <time>2023-08-30T13:46:54Z</time>
      </trkpt>
      <trkpt lat="46.39279" lon="5.57668">
        <ele>534.4</ele>
        <time>2023-08-30T13:46:55Z</time>
      </trkpt>
      <trkpt lat="46.39279" lon="5.57671">
        <ele>534.4</ele>
        <time>2023-08-30T13:46:56Z</time>
      </trkpt>
      <trkpt lat="46.39278" lon="5.57674">
        <ele>534.4</ele>
        <time>2023-08-30T13:46:57Z</time>
      </trkpt>
      <trkpt lat="46.39278" lon="5.57677">
        <ele>534.4</ele>
        <time>2023-08-30T13:46:58Z</time>
      </trkpt>
      <trkpt lat="46.39277" lon="5.5768">
        <ele>534.4</ele>
        <time>2023-08-30T13:46:59Z</time>
      </trkpt>
      <trkpt lat="46.39277" lon="5.57682">
        <ele>534.4</ele>
        <time>2023-08-30T13:47:00Z</time>
      </trkpt>
      <trkpt lat="46.39276" lon="5.57685">
        <ele>534.4</ele>
        <time>2023-08-30T13:47:01Z</time>
      </trkpt>
      <trkpt lat="46.39275" lon="5.57687">
        <ele>534.4</ele>
        <time>2023-08-30T13:47:02Z</time>
      </trkpt>
      <trkpt lat="46.39274" lon="5.5769">
        <ele>534.2</ele>
        <time>2023-08-30T13:47:03Z</time>
      </trkpt>
      <trkpt lat="46.39273" lon="5.57692">
        <ele>534.4</ele>
        <time>2023-08-30T13:47:04Z</time>
      </trkpt>
      <trkpt lat="46.39272" lon="5.57693">
        <ele>534.4</ele>
        <time>2023-08-30T13:47:05Z</time>
      </trkpt>
      <trkpt lat="46.39271" lon="5.57695">
        <ele>534.4</ele>
        <time>2023-08-30T13:47:06Z</time>
      </trkpt>
      <trkpt lat="46.39269" lon="5.57696">
        <ele>534.4</ele>
        <time>2023-08-30T13:47:07Z</time>
      </trkpt>
      <trkpt lat="46.39267" lon="5.57697">
        <ele>534.4</ele>
        <time>2023-08-30T13:47:08Z</time>
      </trkpt>
      <trkpt lat="46.39265" lon="5.57698">
        <ele>534.6</ele>
        <time>2023-08-30T13:47:09Z</time>
      </trkpt>
      <trkpt lat="46.39263" lon="5.57699">
        <ele>534.6</ele>
        <time>2023-08-30T13:47:10Z</time>
      </trkpt>
      <trkpt lat="46.39262" lon="5.57699">
        <ele>534.6</ele>
        <time>2023-08-30T13:47:11Z</time>
      </trkpt>
      <trkpt lat="46.3926" lon="5.57699">
        <ele>535.2</ele>
        <time>2023-08-30T13:47:12Z</time>
      </trkpt>
      <trkpt lat="46.39257" lon="5.577">
        <ele>535.2</ele>
        <time>2023-08-30T13:47:13Z</time>
      </trkpt>
      <trkpt lat="46.39256" lon="5.577">
        <ele>535.2</ele>
        <time>2023-08-30T13:47:14Z</time>
      </trkpt>
      <trkpt lat="46.39254" lon="5.577">
        <ele>535.2</ele>
        <time>2023-08-30T13:47:15Z</time>
      </trkpt>
      <trkpt lat="46.39252" lon="5.577">
        <ele>536.2</ele>
        <time>2023-08-30T13:47:16Z</time>
      </trkpt>
      <trkpt lat="46.39251" lon="5.577">
        <ele>536.2</ele>
        <time>2023-08-30T13:47:17Z</time>
      </trkpt>
      <trkpt lat="46.39249" lon="5.57701">
        <ele>536.6</ele>
        <time>2023-08-30T13:47:18Z</time>
      </trkpt>
      <trkpt lat="46.39247" lon="5.57701">
        <ele>536.6</ele>
        <time>2023-08-30T13:47:19Z</time>
      </trkpt>
      <trkpt lat="46.39245" lon="5.57701">
        <ele>536.6</ele>
        <time>2023-08-30T13:47:20Z</time>
      </trkpt>
      <trkpt lat="46.39243" lon="5.57702">
        <ele>536.6</ele>
        <time>2023-08-30T13:47:21Z</time>
      </trkpt>
      <trkpt lat="46.39241" lon="5.57702">
        <ele>537.6</ele>
        <time>2023-08-30T13:47:22Z</time>
      </trkpt>
      <trkpt lat="46.3924" lon="5.57702">
        <ele>538.2</ele>
        <time>2023-08-30T13:47:23Z</time>
      </trkpt>
      <trkpt lat="46.39238" lon="5.57702">
        <ele>538.2</ele>
        <time>2023-08-30T13:47:24Z</time>
      </trkpt>
      <trkpt lat="46.39236" lon="5.57702">
        <ele>538.2</ele>
        <time>2023-08-30T13:47:25Z</time>
      </trkpt>
      <trkpt lat="46.39234" lon="5.57702">
        <ele>538.2</ele>
        <time>2023-08-30T13:47:26Z</time>
      </trkpt>
      <trkpt lat="46.39232" lon="5.57701">
        <ele>539.6</ele>
        <time>2023-08-30T13:47:27Z</time>
      </trkpt>
      <trkpt lat="46.39231" lon="5.57702">
        <ele>539.6</ele>
        <time>2023-08-30T13:47:28Z</time>
      </trkpt>
      <trkpt lat="46.39229" lon="5.57702">
        <ele>539.6</ele>
        <time>2023-08-30T13:47:29Z</time>
      </trkpt>
      <trkpt lat="46.39227" lon="5.57702">
        <ele>539.6</ele>
        <time>2023-08-30T13:47:30Z</time>
      </trkpt>
      <trkpt lat="46.39226" lon="5.57703">
        <ele>540.2</ele>
        <time>2023-08-30T13:47:31Z</time>
      </trkpt>
      <trkpt lat="46.39225" lon="5.57703">
        <ele>540.2</ele>
        <time>2023-08-30T13:47:32Z</time>
      </trkpt>
      <trkpt lat="46.39223" lon="5.57704">
        <ele>540.2</ele>
        <time>2023-08-30T13:47:33Z</time>
      </trkpt>
      <trkpt lat="46.39222" lon="5.57704">
        <ele>540.2</ele>
        <time>2023-08-30T13:47:34Z</time>
      </trkpt>
      <trkpt lat="46.3922" lon="5.57705">
        <ele>540.4</ele>
        <time>2023-08-30T13:47:35Z</time>
      </trkpt>
      <trkpt lat="46.39218" lon="5.57706">
        <ele>540.4</ele>
        <time>2023-08-30T13:47:36Z</time>
      </trkpt>
      <trkpt lat="46.39216" lon="5.57707">
        <ele>540.4</ele>
        <time>2023-08-30T13:47:37Z</time>
      </trkpt>
      <trkpt lat="46.39214" lon="5.57708">
        <ele>540.4</ele>
        <time>2023-08-30T13:47:38Z</time>
      </trkpt>
      <trkpt lat="46.39213" lon="5.57709">
        <ele>540.4</ele>
        <time>2023-08-30T13:47:39Z</time>
      </trkpt>
      <trkpt lat="46.39211" lon="5.5771">
        <ele>540.4</ele>
        <time>2023-08-30T13:47:40Z</time>
      </trkpt>
      <trkpt lat="46.39209" lon="5.57711">
        <ele>540.4</ele>
        <time>2023-08-30T13:47:41Z</time>
      </trkpt>
      <trkpt lat="46.39207" lon="5.57712">
        <ele>540.4</ele>
        <time>2023-08-30T13:47:42Z</time>
      </trkpt>
      <trkpt lat="46.39206" lon="5.57712">
        <ele>540.4</ele>
        <time>2023-08-30T13:47:43Z</time>
      </trkpt>
      <trkpt lat="46.39204" lon="5.57713">
        <ele>540.2</ele>
        <time>2023-08-30T13:47:44Z</time>
      </trkpt>
      <trkpt lat="46.39202" lon="5.57715">
        <ele>540</ele>
        <time>2023-08-30T13:47:45Z</time>
      </trkpt>
      <trkpt lat="46.392" lon="5.57716">
        <ele>540</ele>
        <time>2023-08-30T13:47:46Z</time>
      </trkpt>
      <trkpt lat="46.39199" lon="5.57717">
        <ele>540</ele>
        <time>2023-08-30T13:47:47Z</time>
      </trkpt>
      <trkpt lat="46.39197" lon="5.57719">
        <ele>540</ele>
        <time>2023-08-30T13:47:48Z</time>
      </trkpt>
      <trkpt lat="46.39195" lon="5.5772">
        <ele>539.8</ele>
        <time>2023-08-30T13:47:49Z</time>
      </trkpt>
      <trkpt lat="46.39193" lon="5.57722">
        <ele>539.8</ele>
        <time>2023-08-30T13:47:50Z</time>
      </trkpt>
      <trkpt lat="46.39192" lon="5.57723">
        <ele>539.8</ele>
        <time>2023-08-30T13:47:51Z</time>
      </trkpt>
      <trkpt lat="46.3919" lon="5.57725">
        <ele>539.8</ele>
        <time>2023-08-30T13:47:52Z</time>
      </trkpt>
      <trkpt lat="46.39188" lon="5.57726">
        <ele>540</ele>
        <time>2023-08-30T13:47:53Z</time>
      </trkpt>
      <trkpt lat="46.39186" lon="5.57727">
        <ele>540</ele>
        <time>2023-08-30T13:47:54Z</time>
      </trkpt>
      <trkpt lat="46.39184" lon="5.57728">
        <ele>540</ele>
        <time>2023-08-30T13:47:55Z</time>
      </trkpt>
      <trkpt lat="46.39182" lon="5.57729">
        <ele>540</ele>
        <time>2023-08-30T13:47:56Z</time>
      </trkpt>
      <trkpt lat="46.3918" lon="5.57731">
        <ele>539.8</ele>
        <time>2023-08-30T13:47:57Z</time>
      </trkpt>
      <trkpt lat="46.39178" lon="5.57732">
        <ele>539.8</ele>
        <time>2023-08-30T13:47:58Z</time>
      </trkpt>
      <trkpt lat="46.39176" lon="5.57734">
        <ele>539.8</ele>
        <time>2023-08-30T13:47:59Z</time>
      </trkpt>
      <trkpt lat="46.39174" lon="5.57735">
        <ele>539.8</ele>
        <time>2023-08-30T13:48:00Z</time>
      </trkpt>
      <trkpt lat="46.39172" lon="5.57737">
        <ele>539.8</ele>
        <time>2023-08-30T13:48:01Z</time>
      </trkpt>
      <trkpt lat="46.39169" lon="5.57738">
        <ele>539.8</ele>
        <time>2023-08-30T13:48:02Z</time>
      </trkpt>
      <trkpt lat="46.39167" lon="5.5774">
        <ele>539.6</ele>
        <time>2023-08-30T13:48:03Z</time>
      </trkpt>
      <trkpt lat="46.39165" lon="5.57741">
        <ele>539.4</ele>
        <time>2023-08-30T13:48:04Z</time>
      </trkpt>
      <trkpt lat="46.39163" lon="5.57742">
        <ele>539.4</ele>
        <time>2023-08-30T13:48:05Z</time>
      </trkpt>
      <trkpt lat="46.39161" lon="5.57744">
        <ele>539.4</ele>
        <time>2023-08-30T13:48:06Z</time>
      </trkpt>
      <trkpt lat="46.39158" lon="5.57745">
        <ele>539.2</ele>
        <time>2023-08-30T13:48:07Z</time>
      </trkpt>
      <trkpt lat="46.39156" lon="5.57746">
        <ele>539.2</ele>
        <time>2023-08-30T13:48:08Z</time>
      </trkpt>
      <trkpt lat="46.39154" lon="5.57747">
        <ele>539.2</ele>
        <time>2023-08-30T13:48:09Z</time>
      </trkpt>
      <trkpt lat="46.39152" lon="5.57748">
        <ele>539.2</ele>
        <time>2023-08-30T13:48:10Z</time>
      </trkpt>
      <trkpt lat="46.3915" lon="5.57749">
        <ele>539.2</ele>
        <time>2023-08-30T13:48:11Z</time>
      </trkpt>
      <trkpt lat="46.39148" lon="5.5775">
        <ele>538.8</ele>
        <time>2023-08-30T13:48:12Z</time>
      </trkpt>
      <trkpt lat="46.39146" lon="5.57751">
        <ele>538.8</ele>
        <time>2023-08-30T13:48:13Z</time>
      </trkpt>
      <trkpt lat="46.39144" lon="5.57752">
        <ele>538.8</ele>
        <time>2023-08-30T13:48:14Z</time>
      </trkpt>
      <trkpt lat="46.39142" lon="5.57753">
        <ele>538.8</ele>
        <time>2023-08-30T13:48:15Z</time>
      </trkpt>
      <trkpt lat="46.3914" lon="5.57754">
        <ele>539</ele>
        <time>2023-08-30T13:48:16Z</time>
      </trkpt>
      <trkpt lat="46.39138" lon="5.57755">
        <ele>539</ele>
        <time>2023-08-30T13:48:17Z</time>
      </trkpt>
      <trkpt lat="46.39135" lon="5.57755">
        <ele>539</ele>
        <time>2023-08-30T13:48:18Z</time>
      </trkpt>
      <trkpt lat="46.39133" lon="5.57756">
        <ele>539</ele>
        <time>2023-08-30T13:48:19Z</time>
      </trkpt>
      <trkpt lat="46.39131" lon="5.57757">
        <ele>539.2</ele>
        <time>2023-08-30T13:48:20Z</time>
      </trkpt>
      <trkpt lat="46.39129" lon="5.57758">
        <ele>539.2</ele>
        <time>2023-08-30T13:48:21Z</time>
      </trkpt>
      <trkpt lat="46.39126" lon="5.57758">
        <ele>539.2</ele>
        <time>2023-08-30T13:48:22Z</time>
      </trkpt>
      <trkpt lat="46.39124" lon="5.57759">
        <ele>539.2</ele>
        <time>2023-08-30T13:48:23Z</time>
      </trkpt>
      <trkpt lat="46.39121" lon="5.5776">
        <ele>539.4</ele>
        <time>2023-08-30T13:48:24Z</time>
      </trkpt>
      <trkpt lat="46.39119" lon="5.57761">
        <ele>539.4</ele>
        <time>2023-08-30T13:48:25Z</time>
      </trkpt>
      <trkpt lat="46.39116" lon="5.57761">
        <ele>539.6</ele>
        <time>2023-08-30T13:48:26Z</time>
      </trkpt>
      <trkpt lat="46.39114" lon="5.57762">
        <ele>539.6</ele>
        <time>2023-08-30T13:48:27Z</time>
      </trkpt>
      <trkpt lat="46.39112" lon="5.57763">
        <ele>539.6</ele>
        <time>2023-08-30T13:48:28Z</time>
      </trkpt>
      <trkpt lat="46.39109" lon="5.57763">
        <ele>539.6</ele>
        <time>2023-08-30T13:48:29Z</time>
      </trkpt>
      <trkpt lat="46.39107" lon="5.57764">
        <ele>539.6</ele>
        <time>2023-08-30T13:48:30Z</time>
      </trkpt>
      <trkpt lat="46.39104" lon="5.57765">
        <ele>539.6</ele>
        <time>2023-08-30T13:48:31Z</time>
      </trkpt>
      <trkpt lat="46.39102" lon="5.57765">
        <ele>539.6</ele>
        <time>2023-08-30T13:48:32Z</time>
      </trkpt>
      <trkpt lat="46.391" lon="5.57766">
        <ele>540</ele>
        <time>2023-08-30T13:48:33Z</time>
      </trkpt>
      <trkpt lat="46.39097" lon="5.57767">
        <ele>540</ele>
        <time>2023-08-30T13:48:34Z</time>
      </trkpt>
      <trkpt lat="46.39095" lon="5.57767">
        <ele>540</ele>
        <time>2023-08-30T13:48:35Z</time>
      </trkpt>
      <trkpt lat="46.39093" lon="5.57768">
        <ele>540</ele>
        <time>2023-08-30T13:48:36Z</time>
      </trkpt>
      <trkpt lat="46.39091" lon="5.57768">
        <ele>540</ele>
        <time>2023-08-30T13:48:37Z</time>
      </trkpt>
      <trkpt lat="46.39089" lon="5.57769">
        <ele>540</ele>
        <time>2023-08-30T13:48:38Z</time>
      </trkpt>
      <trkpt lat="46.39086" lon="5.57769">
        <ele>540.2</ele>
        <time>2023-08-30T13:48:39Z</time>
      </trkpt>
      <trkpt lat="46.39084" lon="5.5777">
        <ele>540.2</ele>
        <time>2023-08-30T13:48:40Z</time>
      </trkpt>
      <trkpt lat="46.39082" lon="5.57771">
        <ele>540.2</ele>
        <time>2023-08-30T13:48:41Z</time>
      </trkpt>
      <trkpt lat="46.3908" lon="5.57771">
        <ele>540.6</ele>
        <time>2023-08-30T13:48:42Z</time>
      </trkpt>
      <trkpt lat="46.39077" lon="5.57772">
        <ele>540.6</ele>
        <time>2023-08-30T13:48:43Z</time>
      </trkpt>
      <trkpt lat="46.39075" lon="5.57773">
        <ele>540.4</ele>
        <time>2023-08-30T13:48:44Z</time>
      </trkpt>
      <trkpt lat="46.39073" lon="5.57773">
        <ele>540.4</ele>
        <time>2023-08-30T13:48:45Z</time>
      </trkpt>
      <trkpt lat="46.3907" lon="5.57774">
        <ele>540.4</ele>
        <time>2023-08-30T13:48:46Z</time>
      </trkpt>
      <trkpt lat="46.39068" lon="5.57775">
        <ele>540.8</ele>
        <time>2023-08-30T13:48:47Z</time>
      </trkpt>
      <trkpt lat="46.39066" lon="5.57775">
        <ele>541.2</ele>
        <time>2023-08-30T13:48:48Z</time>
      </trkpt>
      <trkpt lat="46.39063" lon="5.57776">
        <ele>541.2</ele>
        <time>2023-08-30T13:48:49Z</time>
      </trkpt>
      <trkpt lat="46.39061" lon="5.57776">
        <ele>541.2</ele>
        <time>2023-08-30T13:48:50Z</time>
      </trkpt>
      <trkpt lat="46.39059" lon="5.57776">
        <ele>541.2</ele>
        <time>2023-08-30T13:48:51Z</time>
      </trkpt>
      <trkpt lat="46.39056" lon="5.57777">
        <ele>542</ele>
        <time>2023-08-30T13:48:52Z</time>
      </trkpt>
      <trkpt lat="46.39054" lon="5.57777">
        <ele>542</ele>
        <time>2023-08-30T13:48:53Z</time>
      </trkpt>
      <trkpt lat="46.39052" lon="5.57777">
        <ele>542.2</ele>
        <time>2023-08-30T13:48:54Z</time>
      </trkpt>
      <trkpt lat="46.39049" lon="5.57778">
        <ele>542.2</ele>
        <time>2023-08-30T13:48:55Z</time>
      </trkpt>
      <trkpt lat="46.39047" lon="5.57779">
        <ele>542.8</ele>
        <time>2023-08-30T13:48:56Z</time>
      </trkpt>
      <trkpt lat="46.39044" lon="5.5778">
        <ele>543</ele>
        <time>2023-08-30T13:48:57Z</time>
      </trkpt>
      <trkpt lat="46.39042" lon="5.57781">
        <ele>543</ele>
        <time>2023-08-30T13:48:58Z</time>
      </trkpt>
      <trkpt lat="46.3904" lon="5.57783">
        <ele>543</ele>
        <time>2023-08-30T13:48:59Z</time>
      </trkpt>
      <trkpt lat="46.39038" lon="5.57784">
        <ele>543.8</ele>
        <time>2023-08-30T13:49:00Z</time>
      </trkpt>
      <trkpt lat="46.39037" lon="5.57785">
        <ele>543.8</ele>
        <time>2023-08-30T13:49:01Z</time>
      </trkpt>
      <trkpt lat="46.39035" lon="5.57787">
        <ele>543.8</ele>
        <time>2023-08-30T13:49:02Z</time>
      </trkpt>
      <trkpt lat="46.39034" lon="5.57788">
        <ele>543.8</ele>
        <time>2023-08-30T13:49:03Z</time>
      </trkpt>
      <trkpt lat="46.39033" lon="5.5779">
        <ele>543.8</ele>
        <time>2023-08-30T13:49:04Z</time>
      </trkpt>
      <trkpt lat="46.39031" lon="5.57792">
        <ele>544.4</ele>
        <time>2023-08-30T13:49:05Z</time>
      </trkpt>
      <trkpt lat="46.3903" lon="5.57794">
        <ele>544.6</ele>
        <time>2023-08-30T13:49:06Z</time>
      </trkpt>
      <trkpt lat="46.3903" lon="5.57796">
        <ele>544.6</ele>
        <time>2023-08-30T13:49:07Z</time>
      </trkpt>
      <trkpt lat="46.39029" lon="5.57799">
        <ele>544.6</ele>
        <time>2023-08-30T13:49:08Z</time>
      </trkpt>
      <trkpt lat="46.3903" lon="5.57801">
        <ele>545.4</ele>
        <time>2023-08-30T13:49:09Z</time>
      </trkpt>
      <trkpt lat="46.3903" lon="5.57804">
        <ele>545.8</ele>
        <time>2023-08-30T13:49:10Z</time>
      </trkpt>
      <trkpt lat="46.39031" lon="5.57806">
        <ele>545.8</ele>
        <time>2023-08-30T13:49:11Z</time>
      </trkpt>
      <trkpt lat="46.39032" lon="5.57808">
        <ele>545.8</ele>
        <time>2023-08-30T13:49:12Z</time>
      </trkpt>
      <trkpt lat="46.39033" lon="5.57809">
        <ele>546.8</ele>
        <time>2023-08-30T13:49:13Z</time>
      </trkpt>
      <trkpt lat="46.39035" lon="5.57811">
        <ele>546.8</ele>
        <time>2023-08-30T13:49:14Z</time>
      </trkpt>
      <trkpt lat="46.39037" lon="5.57811">
        <ele>546.8</ele>
        <time>2023-08-30T13:49:15Z</time>
      </trkpt>
      <trkpt lat="46.39039" lon="5.57811">
        <ele>546.8</ele>
        <time>2023-08-30T13:49:16Z</time>
      </trkpt>
      <trkpt lat="46.39041" lon="5.57811">
        <ele>546.8</ele>
        <time>2023-08-30T13:49:17Z</time>
      </trkpt>
      <trkpt lat="46.39044" lon="5.57811">
        <ele>547.4</ele>
        <time>2023-08-30T13:49:18Z</time>
      </trkpt>
      <trkpt lat="46.39046" lon="5.5781">
        <ele>547.6</ele>
        <time>2023-08-30T13:49:19Z</time>
      </trkpt>
      <trkpt lat="46.39048" lon="5.57809">
        <ele>547.6</ele>
        <time>2023-08-30T13:49:20Z</time>
      </trkpt>
      <trkpt lat="46.39051" lon="5.57808">
        <ele>547.6</ele>
        <time>2023-08-30T13:49:21Z</time>
      </trkpt>
      <trkpt lat="46.39053" lon="5.57808">
        <ele>548.2</ele>
        <time>2023-08-30T13:49:22Z</time>
      </trkpt>
      <trkpt lat="46.39056" lon="5.57807">
        <ele>548.4</ele>
        <time>2023-08-30T13:49:23Z</time>
      </trkpt>
      <trkpt lat="46.39058" lon="5.57807">
        <ele>548.4</ele>
        <time>2023-08-30T13:49:24Z</time>
      </trkpt>
      <trkpt lat="46.39061" lon="5.57806">
        <ele>548.4</ele>
        <time>2023-08-30T13:49:25Z</time>
      </trkpt>
      <trkpt lat="46.39063" lon="5.57806">
        <ele>548.4</ele>
        <time>2023-08-30T13:49:26Z</time>
      </trkpt>
      <trkpt lat="46.39066" lon="5.57806">
        <ele>549.2</ele>
        <time>2023-08-30T13:49:27Z</time>
      </trkpt>
      <trkpt lat="46.39069" lon="5.57807">
        <ele>549.2</ele>
        <time>2023-08-30T13:49:28Z</time>
      </trkpt>
      <trkpt lat="46.39071" lon="5.57807">
        <ele>549.2</ele>
        <time>2023-08-30T13:49:29Z</time>
      </trkpt>
      <trkpt lat="46.39073" lon="5.57808">
        <ele>549.2</ele>
        <time>2023-08-30T13:49:30Z</time>
      </trkpt>
      <trkpt lat="46.39075" lon="5.57808">
        <ele>549.2</ele>
        <time>2023-08-30T13:49:31Z</time>
      </trkpt>
      <trkpt lat="46.39078" lon="5.57809">
        <ele>550.2</ele>
        <time>2023-08-30T13:49:32Z</time>
      </trkpt>
      <trkpt lat="46.3908" lon="5.5781">
        <ele>550.6</ele>
        <time>2023-08-30T13:49:33Z</time>
      </trkpt>
      <trkpt lat="46.39082" lon="5.5781">
        <ele>550.6</ele>
        <time>2023-08-30T13:49:34Z</time>
      </trkpt>
      <trkpt lat="46.39085" lon="5.57811">
        <ele>550.6</ele>
        <time>2023-08-30T13:49:35Z</time>
      </trkpt>
      <trkpt lat="46.39087" lon="5.57812">
        <ele>551.4</ele>
        <time>2023-08-30T13:49:36Z</time>
      </trkpt>
      <trkpt lat="46.39089" lon="5.57813">
        <ele>551.4</ele>
        <time>2023-08-30T13:49:37Z</time>
      </trkpt>
      <trkpt lat="46.39092" lon="5.57814">
        <ele>551.6</ele>
        <time>2023-08-30T13:49:38Z</time>
      </trkpt>
      <trkpt lat="46.39094" lon="5.57815">
        <ele>551.6</ele>
        <time>2023-08-30T13:49:39Z</time>
      </trkpt>
      <trkpt lat="46.39097" lon="5.57816">
        <ele>551.6</ele>
        <time>2023-08-30T13:49:40Z</time>
      </trkpt>
      <trkpt lat="46.39099" lon="5.57817">
        <ele>552.2</ele>
        <time>2023-08-30T13:49:41Z</time>
      </trkpt>
      <trkpt lat="46.39102" lon="5.57818">
        <ele>552.4</ele>
        <time>2023-08-30T13:49:42Z</time>
      </trkpt>
      <trkpt lat="46.39104" lon="5.57818">
        <ele>552.4</ele>
        <time>2023-08-30T13:49:43Z</time>
      </trkpt>
      <trkpt lat="46.39106" lon="5.57819">
        <ele>552.4</ele>
        <time>2023-08-30T13:49:44Z</time>
      </trkpt>
      <trkpt lat="46.39108" lon="5.57821">
        <ele>552.4</ele>
        <time>2023-08-30T13:49:45Z</time>
      </trkpt>
      <trkpt lat="46.39111" lon="5.57822">
        <ele>553.6</ele>
        <time>2023-08-30T13:49:46Z</time>
      </trkpt>
      <trkpt lat="46.39112" lon="5.57823">
        <ele>553.6</ele>
        <time>2023-08-30T13:49:47Z</time>
      </trkpt>
      <trkpt lat="46.39114" lon="5.57824">
        <ele>553.6</ele>
        <time>2023-08-30T13:49:48Z</time>
      </trkpt>
      <trkpt lat="46.39116" lon="5.57825">
        <ele>553.6</ele>
        <time>2023-08-30T13:49:49Z</time>
      </trkpt>
      <trkpt lat="46.39118" lon="5.57826">
        <ele>554.2</ele>
        <time>2023-08-30T13:49:50Z</time>
      </trkpt>
      <trkpt lat="46.3912" lon="5.57827">
        <ele>554.4</ele>
        <time>2023-08-30T13:49:51Z</time>
      </trkpt>
      <trkpt lat="46.39123" lon="5.57829">
        <ele>554.4</ele>
        <time>2023-08-30T13:49:52Z</time>
      </trkpt>
      <trkpt lat="46.39125" lon="5.5783">
        <ele>554.4</ele>
        <time>2023-08-30T13:49:53Z</time>
      </trkpt>
      <trkpt lat="46.39127" lon="5.57831">
        <ele>555</ele>
        <time>2023-08-30T13:49:54Z</time>
      </trkpt>
      <trkpt lat="46.3913" lon="5.57832">
        <ele>555.2</ele>
        <time>2023-08-30T13:49:55Z</time>
      </trkpt>
      <trkpt lat="46.39132" lon="5.57833">
        <ele>555.2</ele>
        <time>2023-08-30T13:49:56Z</time>
      </trkpt>
      <trkpt lat="46.39134" lon="5.57834">
        <ele>555.2</ele>
        <time>2023-08-30T13:49:57Z</time>
      </trkpt>
      <trkpt lat="46.39136" lon="5.57834">
        <ele>555.2</ele>
        <time>2023-08-30T13:49:58Z</time>
      </trkpt>
      <trkpt lat="46.39138" lon="5.57835">
        <ele>555.8</ele>
        <time>2023-08-30T13:49:59Z</time>
      </trkpt>
      <trkpt lat="46.3914" lon="5.57835">
        <ele>556.2</ele>
        <time>2023-08-30T13:50:00Z</time>
      </trkpt>
      <trkpt lat="46.39142" lon="5.57836">
        <ele>556.2</ele>
        <time>2023-08-30T13:50:01Z</time>
      </trkpt>
      <trkpt lat="46.39145" lon="5.57838">
        <ele>556.2</ele>
        <time>2023-08-30T13:50:02Z</time>
      </trkpt>
      <trkpt lat="46.39147" lon="5.57839">
        <ele>556.8</ele>
        <time>2023-08-30T13:50:03Z</time>
      </trkpt>
      <trkpt lat="46.39149" lon="5.5784">
        <ele>557.4</ele>
        <time>2023-08-30T13:50:04Z</time>
      </trkpt>
      <trkpt lat="46.39151" lon="5.57841">
        <ele>557.4</ele>
        <time>2023-08-30T13:50:05Z</time>
      </trkpt>
      <trkpt lat="46.39153" lon="5.57842">
        <ele>557.4</ele>
        <time>2023-08-30T13:50:06Z</time>
      </trkpt>
      <trkpt lat="46.39155" lon="5.57843">
        <ele>558.4</ele>
        <time>2023-08-30T13:50:07Z</time>
      </trkpt>
      <trkpt lat="46.39157" lon="5.57844">
        <ele>558.4</ele>
        <time>2023-08-30T13:50:08Z</time>
      </trkpt>
      <trkpt lat="46.39159" lon="5.57845">
        <ele>558.4</ele>
        <time>2023-08-30T13:50:09Z</time>
      </trkpt>
      <trkpt lat="46.39161" lon="5.57847">
        <ele>558.4</ele>
        <time>2023-08-30T13:50:10Z</time>
      </trkpt>
      <trkpt lat="46.39164" lon="5.57848">
        <ele>558.4</ele>
        <time>2023-08-30T13:50:11Z</time>
      </trkpt>
      <trkpt lat="46.39166" lon="5.57849">
        <ele>558.4</ele>
        <time>2023-08-30T13:50:12Z</time>
      </trkpt>
      <trkpt lat="46.39168" lon="5.57851">
        <ele>559</ele>
        <time>2023-08-30T13:50:13Z</time>
      </trkpt>
      <trkpt lat="46.3917" lon="5.57852">
        <ele>559.4</ele>
        <time>2023-08-30T13:50:14Z</time>
      </trkpt>
      <trkpt lat="46.39172" lon="5.57854">
        <ele>559.4</ele>
        <time>2023-08-30T13:50:15Z</time>
      </trkpt>
      <trkpt lat="46.39173" lon="5.57856">
        <ele>559.4</ele>
        <time>2023-08-30T13:50:16Z</time>
      </trkpt>
      <trkpt lat="46.39175" lon="5.57857">
        <ele>560.2</ele>
        <time>2023-08-30T13:50:17Z</time>
      </trkpt>
      <trkpt lat="46.39176" lon="5.57858">
        <ele>560.4</ele>
        <time>2023-08-30T13:50:18Z</time>
      </trkpt>
      <trkpt lat="46.39178" lon="5.5786">
        <ele>560.4</ele>
        <time>2023-08-30T13:50:19Z</time>
      </trkpt>
      <trkpt lat="46.3918" lon="5.57861">
        <ele>560.4</ele>
        <time>2023-08-30T13:50:20Z</time>
      </trkpt>
      <trkpt lat="46.39182" lon="5.57862">
        <ele>561.4</ele>
        <time>2023-08-30T13:50:21Z</time>
      </trkpt>
      <trkpt lat="46.39184" lon="5.57864">
        <ele>561.8</ele>
        <time>2023-08-30T13:50:22Z</time>
      </trkpt>
      <trkpt lat="46.39186" lon="5.57865">
        <ele>561.8</ele>
        <time>2023-08-30T13:50:23Z</time>
      </trkpt>
      <trkpt lat="46.39187" lon="5.57867">
        <ele>561.8</ele>
        <time>2023-08-30T13:50:24Z</time>
      </trkpt>
      <trkpt lat="46.39189" lon="5.57869">
        <ele>561.8</ele>
        <time>2023-08-30T13:50:25Z</time>
      </trkpt>
      <trkpt lat="46.39191" lon="5.57871">
        <ele>562.8</ele>
        <time>2023-08-30T13:50:26Z</time>
      </trkpt>
      <trkpt lat="46.39193" lon="5.57873">
        <ele>563.4</ele>
        <time>2023-08-30T13:50:27Z</time>
      </trkpt>
      <trkpt lat="46.39195" lon="5.57874">
        <ele>563.4</ele>
        <time>2023-08-30T13:50:28Z</time>
      </trkpt>
      <trkpt lat="46.39196" lon="5.57876">
        <ele>563.4</ele>
        <time>2023-08-30T13:50:29Z</time>
      </trkpt>
      <trkpt lat="46.39198" lon="5.57877">
        <ele>564.4</ele>
        <time>2023-08-30T13:50:30Z</time>
      </trkpt>
      <trkpt lat="46.392" lon="5.57879">
        <ele>564.8</ele>
        <time>2023-08-30T13:50:31Z</time>
      </trkpt>
      <trkpt lat="46.39202" lon="5.57881">
        <ele>564.8</ele>
        <time>2023-08-30T13:50:32Z</time>
      </trkpt>
      <trkpt lat="46.39204" lon="5.57882">
        <ele>564.8</ele>
        <time>2023-08-30T13:50:33Z</time>
      </trkpt>
      <trkpt lat="46.39205" lon="5.57885">
        <ele>564.8</ele>
        <time>2023-08-30T13:50:34Z</time>
      </trkpt>
      <trkpt lat="46.39207" lon="5.57887">
        <ele>565.8</ele>
        <time>2023-08-30T13:50:35Z</time>
      </trkpt>
      <trkpt lat="46.39209" lon="5.57889">
        <ele>566</ele>
        <time>2023-08-30T13:50:36Z</time>
      </trkpt>
      <trkpt lat="46.39211" lon="5.57891">
        <ele>566</ele>
        <time>2023-08-30T13:50:37Z</time>
      </trkpt>
      <trkpt lat="46.39213" lon="5.57893">
        <ele>566</ele>
        <time>2023-08-30T13:50:38Z</time>
      </trkpt>
      <trkpt lat="46.39215" lon="5.57894">
        <ele>566.8</ele>
        <time>2023-08-30T13:50:39Z</time>
      </trkpt>
      <trkpt lat="46.39217" lon="5.57896">
        <ele>567.2</ele>
        <time>2023-08-30T13:50:40Z</time>
      </trkpt>
      <trkpt lat="46.39219" lon="5.57897">
        <ele>567.2</ele>
        <time>2023-08-30T13:50:41Z</time>
      </trkpt>
      <trkpt lat="46.3922" lon="5.57899">
        <ele>567.2</ele>
        <time>2023-08-30T13:50:42Z</time>
      </trkpt>
      <trkpt lat="46.39222" lon="5.579">
        <ele>568.2</ele>
        <time>2023-08-30T13:50:43Z</time>
      </trkpt>
      <trkpt lat="46.39224" lon="5.57902">
        <ele>568.2</ele>
        <time>2023-08-30T13:50:44Z</time>
      </trkpt>
      <trkpt lat="46.39226" lon="5.57904">
        <ele>568.4</ele>
        <time>2023-08-30T13:50:45Z</time>
      </trkpt>
      <trkpt lat="46.39227" lon="5.57906">
        <ele>568.4</ele>
        <time>2023-08-30T13:50:46Z</time>
      </trkpt>
      <trkpt lat="46.39229" lon="5.57908">
        <ele>568.4</ele>
        <time>2023-08-30T13:50:47Z</time>
      </trkpt>
      <trkpt lat="46.3923" lon="5.5791">
        <ele>569.4</ele>
        <time>2023-08-30T13:50:48Z</time>
      </trkpt>
      <trkpt lat="46.39232" lon="5.57912">
        <ele>569.6</ele>
        <time>2023-08-30T13:50:49Z</time>
      </trkpt>
      <trkpt lat="46.39234" lon="5.57914">
        <ele>569.6</ele>
        <time>2023-08-30T13:50:50Z</time>
      </trkpt>
      <trkpt lat="46.39235" lon="5.57916">
        <ele>569.6</ele>
        <time>2023-08-30T13:50:51Z</time>
      </trkpt>
      <trkpt lat="46.39237" lon="5.57917">
        <ele>570.6</ele>
        <time>2023-08-30T13:50:52Z</time>
      </trkpt>
      <trkpt lat="46.39238" lon="5.5792">
        <ele>570.6</ele>
        <time>2023-08-30T13:50:53Z</time>
      </trkpt>
      <trkpt lat="46.39239" lon="5.57922">
        <ele>571</ele>
        <time>2023-08-30T13:50:54Z</time>
      </trkpt>
      <trkpt lat="46.39241" lon="5.57925">
        <ele>571</ele>
        <time>2023-08-30T13:50:55Z</time>
      </trkpt>
      <trkpt lat="46.39242" lon="5.57927">
        <ele>571</ele>
        <time>2023-08-30T13:50:56Z</time>
      </trkpt>
      <trkpt lat="46.39243" lon="5.5793">
        <ele>571</ele>
        <time>2023-08-30T13:50:57Z</time>
      </trkpt>
      <trkpt lat="46.39244" lon="5.57932">
        <ele>571.8</ele>
        <time>2023-08-30T13:50:58Z</time>
      </trkpt>
      <trkpt lat="46.39245" lon="5.57935">
        <ele>572</ele>
        <time>2023-08-30T13:50:59Z</time>
      </trkpt>
      <trkpt lat="46.39245" lon="5.57937">
        <ele>572</ele>
        <time>2023-08-30T13:51:00Z</time>
      </trkpt>
      <trkpt lat="46.39246" lon="5.5794">
        <ele>572</ele>
        <time>2023-08-30T13:51:01Z</time>
      </trkpt>
      <trkpt lat="46.39246" lon="5.57943">
        <ele>572.8</ele>
        <time>2023-08-30T13:51:02Z</time>
      </trkpt>
      <trkpt lat="46.39247" lon="5.57946">
        <ele>572.8</ele>
        <time>2023-08-30T13:51:03Z</time>
      </trkpt>
      <trkpt lat="46.39247" lon="5.57949">
        <ele>572.8</ele>
        <time>2023-08-30T13:51:04Z</time>
      </trkpt>
      <trkpt lat="46.39247" lon="5.57952">
        <ele>572.8</ele>
        <time>2023-08-30T13:51:05Z</time>
      </trkpt>
      <trkpt lat="46.39247" lon="5.57956">
        <ele>573.6</ele>
        <time>2023-08-30T13:51:06Z</time>
      </trkpt>
      <trkpt lat="46.39247" lon="5.57959">
        <ele>573.6</ele>
        <time>2023-08-30T13:51:07Z</time>
      </trkpt>
      <trkpt lat="46.39247" lon="5.57962">
        <ele>573.6</ele>
        <time>2023-08-30T13:51:08Z</time>
      </trkpt>
      <trkpt lat="46.39247" lon="5.57965">
        <ele>573.6</ele>
        <time>2023-08-30T13:51:09Z</time>
      </trkpt>
      <trkpt lat="46.39247" lon="5.57968">
        <ele>573.6</ele>
        <time>2023-08-30T13:51:10Z</time>
      </trkpt>
      <trkpt lat="46.39247" lon="5.57971">
        <ele>574.2</ele>
        <time>2023-08-30T13:51:11Z</time>
      </trkpt>
      <trkpt lat="46.39247" lon="5.57974">
        <ele>574.2</ele>
        <time>2023-08-30T13:51:12Z</time>
      </trkpt>
      <trkpt lat="46.39247" lon="5.57977">
        <ele>574.4</ele>
        <time>2023-08-30T13:51:13Z</time>
      </trkpt>
      <trkpt lat="46.39247" lon="5.5798">
        <ele>574.4</ele>
        <time>2023-08-30T13:51:14Z</time>
      </trkpt>
      <trkpt lat="46.39247" lon="5.57983">
        <ele>575</ele>
        <time>2023-08-30T13:51:15Z</time>
      </trkpt>
      <trkpt lat="46.39246" lon="5.57986">
        <ele>575</ele>
        <time>2023-08-30T13:51:16Z</time>
      </trkpt>
      <trkpt lat="46.39246" lon="5.57989">
        <ele>575</ele>
        <time>2023-08-30T13:51:17Z</time>
      </trkpt>
      <trkpt lat="46.39246" lon="5.57992">
        <ele>575</ele>
        <time>2023-08-30T13:51:18Z</time>
      </trkpt>
      <trkpt lat="46.39246" lon="5.57995">
        <ele>575</ele>
        <time>2023-08-30T13:51:19Z</time>
      </trkpt>
      <trkpt lat="46.39246" lon="5.57998">
        <ele>575.4</ele>
        <time>2023-08-30T13:51:20Z</time>
      </trkpt>
      <trkpt lat="46.39246" lon="5.58001">
        <ele>575.4</ele>
        <time>2023-08-30T13:51:21Z</time>
      </trkpt>
      <trkpt lat="46.39245" lon="5.58004">
        <ele>575.4</ele>
        <time>2023-08-30T13:51:22Z</time>
      </trkpt>
      <trkpt lat="46.39245" lon="5.58008">
        <ele>575.4</ele>
        <time>2023-08-30T13:51:23Z</time>
      </trkpt>
      <trkpt lat="46.39245" lon="5.58011">
        <ele>576</ele>
        <time>2023-08-30T13:51:24Z</time>
      </trkpt>
      <trkpt lat="46.39244" lon="5.58013">
        <ele>576</ele>
        <time>2023-08-30T13:51:25Z</time>
      </trkpt>
      <trkpt lat="46.39244" lon="5.58016">
        <ele>576</ele>
        <time>2023-08-30T13:51:26Z</time>
      </trkpt>
      <trkpt lat="46.39244" lon="5.58019">
        <ele>576</ele>
        <time>2023-08-30T13:51:27Z</time>
      </trkpt>
      <trkpt lat="46.39244" lon="5.58022">
        <ele>576</ele>
        <time>2023-08-30T13:51:28Z</time>
      </trkpt>
      <trkpt lat="46.39244" lon="5.58025">
        <ele>576.8</ele>
        <time>2023-08-30T13:51:29Z</time>
      </trkpt>
      <trkpt lat="46.39243" lon="5.58028">
        <ele>577</ele>
        <time>2023-08-30T13:51:30Z</time>
      </trkpt>
      <trkpt lat="46.39242" lon="5.58031">
        <ele>577</ele>
        <time>2023-08-30T13:51:31Z</time>
      </trkpt>
      <trkpt lat="46.39242" lon="5.58034">
        <ele>577</ele>
        <time>2023-08-30T13:51:32Z</time>
      </trkpt>
      <trkpt lat="46.39241" lon="5.58037">
        <ele>577.8</ele>
        <time>2023-08-30T13:51:33Z</time>
      </trkpt>
      <trkpt lat="46.39241" lon="5.5804">
        <ele>578</ele>
        <time>2023-08-30T13:51:34Z</time>
      </trkpt>
      <trkpt lat="46.39241" lon="5.58042">
        <ele>578</ele>
        <time>2023-08-30T13:51:35Z</time>
      </trkpt>
      <trkpt lat="46.39241" lon="5.58045">
        <ele>578</ele>
        <time>2023-08-30T13:51:36Z</time>
      </trkpt>
      <trkpt lat="46.39241" lon="5.58048">
        <ele>578</ele>
        <time>2023-08-30T13:51:37Z</time>
      </trkpt>
      <trkpt lat="46.39241" lon="5.58051">
        <ele>578.8</ele>
        <time>2023-08-30T13:51:38Z</time>
      </trkpt>
      <trkpt lat="46.39241" lon="5.58054">
        <ele>578.8</ele>
        <time>2023-08-30T13:51:39Z</time>
      </trkpt>
      <trkpt lat="46.39241" lon="5.58057">
        <ele>578.8</ele>
        <time>2023-08-30T13:51:40Z</time>
      </trkpt>
      <trkpt lat="46.39241" lon="5.58059">
        <ele>578.8</ele>
        <time>2023-08-30T13:51:41Z</time>
      </trkpt>
      <trkpt lat="46.39241" lon="5.58062">
        <ele>578.8</ele>
        <time>2023-08-30T13:51:42Z</time>
      </trkpt>
      <trkpt lat="46.39242" lon="5.58063">
        <ele>579.2</ele>
        <time>2023-08-30T13:51:43Z</time>
      </trkpt>
      <trkpt lat="46.39243" lon="5.58066">
        <ele>579.2</ele>
        <time>2023-08-30T13:51:44Z</time>
      </trkpt>
      <trkpt lat="46.39243" lon="5.58068">
        <ele>579.2</ele>
        <time>2023-08-30T13:51:45Z</time>
      </trkpt>
      <trkpt lat="46.39244" lon="5.58071">
        <ele>579.2</ele>
        <time>2023-08-30T13:51:46Z</time>
      </trkpt>
      <trkpt lat="46.39245" lon="5.58073">
        <ele>579.8</ele>
        <time>2023-08-30T13:51:47Z</time>
      </trkpt>
      <trkpt lat="46.39246" lon="5.58075">
        <ele>579.8</ele>
        <time>2023-08-30T13:51:48Z</time>
      </trkpt>
      <trkpt lat="46.39246" lon="5.58078">
        <ele>579.8</ele>
        <time>2023-08-30T13:51:49Z</time>
      </trkpt>
      <trkpt lat="46.39247" lon="5.5808">
        <ele>579.8</ele>
        <time>2023-08-30T13:51:50Z</time>
      </trkpt>
      <trkpt lat="46.39248" lon="5.58082">
        <ele>580</ele>
        <time>2023-08-30T13:51:51Z</time>
      </trkpt>
      <trkpt lat="46.39249" lon="5.58084">
        <ele>579.8</ele>
        <time>2023-08-30T13:51:52Z</time>
      </trkpt>
      <trkpt lat="46.3925" lon="5.58086">
        <ele>579.8</ele>
        <time>2023-08-30T13:51:53Z</time>
      </trkpt>
      <trkpt lat="46.39252" lon="5.58087">
        <ele>579.8</ele>
        <time>2023-08-30T13:51:54Z</time>
      </trkpt>
      <trkpt lat="46.39253" lon="5.58089">
        <ele>579.8</ele>
        <time>2023-08-30T13:51:55Z</time>
      </trkpt>
      <trkpt lat="46.39255" lon="5.5809">
        <ele>580</ele>
        <time>2023-08-30T13:51:56Z</time>
      </trkpt>
      <trkpt lat="46.39257" lon="5.58092">
        <ele>580</ele>
        <time>2023-08-30T13:51:57Z</time>
      </trkpt>
      <trkpt lat="46.39259" lon="5.58093">
        <ele>580</ele>
        <time>2023-08-30T13:51:58Z</time>
      </trkpt>
      <trkpt lat="46.39261" lon="5.58094">
        <ele>580</ele>
        <time>2023-08-30T13:51:59Z</time>
      </trkpt>
      <trkpt lat="46.39263" lon="5.58096">
        <ele>579.8</ele>
        <time>2023-08-30T13:52:00Z</time>
      </trkpt>
      <trkpt lat="46.39265" lon="5.58097">
        <ele>579.8</ele>
        <time>2023-08-30T13:52:01Z</time>
      </trkpt>
      <trkpt lat="46.39267" lon="5.58098">
        <ele>579.8</ele>
        <time>2023-08-30T13:52:02Z</time>
      </trkpt>
      <trkpt lat="46.39269" lon="5.58099">
        <ele>579.8</ele>
        <time>2023-08-30T13:52:03Z</time>
      </trkpt>
      <trkpt lat="46.39271" lon="5.581">
        <ele>579.8</ele>
        <time>2023-08-30T13:52:04Z</time>
      </trkpt>
      <trkpt lat="46.39272" lon="5.58102">
        <ele>579.8</ele>
        <time>2023-08-30T13:52:05Z</time>
      </trkpt>
      <trkpt lat="46.39274" lon="5.58103">
        <ele>579.6</ele>
        <time>2023-08-30T13:52:06Z</time>
      </trkpt>
      <trkpt lat="46.39276" lon="5.58105">
        <ele>579.6</ele>
        <time>2023-08-30T13:52:07Z</time>
      </trkpt>
      <trkpt lat="46.39278" lon="5.58106">
        <ele>579.6</ele>
        <time>2023-08-30T13:52:08Z</time>
      </trkpt>
      <trkpt lat="46.3928" lon="5.58108">
        <ele>579.6</ele>
        <time>2023-08-30T13:52:09Z</time>
      </trkpt>
      <trkpt lat="46.39281" lon="5.5811">
        <ele>580</ele>
        <time>2023-08-30T13:52:10Z</time>
      </trkpt>
      <trkpt lat="46.39283" lon="5.58111">
        <ele>580</ele>
        <time>2023-08-30T13:52:11Z</time>
      </trkpt>
      <trkpt lat="46.39285" lon="5.58113">
        <ele>580</ele>
        <time>2023-08-30T13:52:12Z</time>
      </trkpt>
      <trkpt lat="46.39286" lon="5.58115">
        <ele>580</ele>
        <time>2023-08-30T13:52:13Z</time>
      </trkpt>
      <trkpt lat="46.39288" lon="5.58116">
        <ele>580</ele>
        <time>2023-08-30T13:52:14Z</time>
      </trkpt>
      <trkpt lat="46.3929" lon="5.58118">
        <ele>580.2</ele>
        <time>2023-08-30T13:52:15Z</time>
      </trkpt>
      <trkpt lat="46.39291" lon="5.5812">
        <ele>580.2</ele>
        <time>2023-08-30T13:52:16Z</time>
      </trkpt>
      <trkpt lat="46.39292" lon="5.58122">
        <ele>580.2</ele>
        <time>2023-08-30T13:52:17Z</time>
      </trkpt>
      <trkpt lat="46.39294" lon="5.58124">
        <ele>580.2</ele>
        <time>2023-08-30T13:52:18Z</time>
      </trkpt>
      <trkpt lat="46.39295" lon="5.58126">
        <ele>580.2</ele>
        <time>2023-08-30T13:52:19Z</time>
      </trkpt>
      <trkpt lat="46.39296" lon="5.58129">
        <ele>580.8</ele>
        <time>2023-08-30T13:52:20Z</time>
      </trkpt>
      <trkpt lat="46.39297" lon="5.58131">
        <ele>580.8</ele>
        <time>2023-08-30T13:52:21Z</time>
      </trkpt>
      <trkpt lat="46.39298" lon="5.58134">
        <ele>580.8</ele>
        <time>2023-08-30T13:52:22Z</time>
      </trkpt>
      <trkpt lat="46.39299" lon="5.58136">
        <ele>581.4</ele>
        <time>2023-08-30T13:52:23Z</time>
      </trkpt>
      <trkpt lat="46.393" lon="5.58139">
        <ele>581.4</ele>
        <time>2023-08-30T13:52:24Z</time>
      </trkpt>
      <trkpt lat="46.39301" lon="5.58141">
        <ele>581.2</ele>
        <time>2023-08-30T13:52:25Z</time>
      </trkpt>
      <trkpt lat="46.39302" lon="5.58144">
        <ele>581.2</ele>
        <time>2023-08-30T13:52:26Z</time>
      </trkpt>
      <trkpt lat="46.39304" lon="5.58146">
        <ele>581.2</ele>
        <time>2023-08-30T13:52:27Z</time>
      </trkpt>
      <trkpt lat="46.39305" lon="5.58149">
        <ele>581.6</ele>
        <time>2023-08-30T13:52:28Z</time>
      </trkpt>
      <trkpt lat="46.39306" lon="5.58151">
        <ele>581.8</ele>
        <time>2023-08-30T13:52:29Z</time>
      </trkpt>
      <trkpt lat="46.39307" lon="5.58154">
        <ele>581.8</ele>
        <time>2023-08-30T13:52:30Z</time>
      </trkpt>
      <trkpt lat="46.39307" lon="5.58156">
        <ele>581.8</ele>
        <time>2023-08-30T13:52:31Z</time>
      </trkpt>
      <trkpt lat="46.39308" lon="5.58158">
        <ele>582.2</ele>
        <time>2023-08-30T13:52:32Z</time>
      </trkpt>
      <trkpt lat="46.39309" lon="5.5816">
        <ele>582.2</ele>
        <time>2023-08-30T13:52:33Z</time>
      </trkpt>
      <trkpt lat="46.3931" lon="5.58162">
        <ele>582.2</ele>
        <time>2023-08-30T13:52:34Z</time>
      </trkpt>
      <trkpt lat="46.39311" lon="5.58165">
        <ele>582.2</ele>
        <time>2023-08-30T13:52:35Z</time>
      </trkpt>
      <trkpt lat="46.39312" lon="5.58168">
        <ele>582.2</ele>
        <time>2023-08-30T13:52:36Z</time>
      </trkpt>
      <trkpt lat="46.39314" lon="5.5817">
        <ele>582.8</ele>
        <time>2023-08-30T13:52:37Z</time>
      </trkpt>
      <trkpt lat="46.39315" lon="5.58172">
        <ele>582.8</ele>
        <time>2023-08-30T13:52:38Z</time>
      </trkpt>
      <trkpt lat="46.39316" lon="5.58175">
        <ele>582.8</ele>
        <time>2023-08-30T13:52:39Z</time>
      </trkpt>
      <trkpt lat="46.39317" lon="5.58178">
        <ele>582.8</ele>
        <time>2023-08-30T13:52:40Z</time>
      </trkpt>
      <trkpt lat="46.39318" lon="5.5818">
        <ele>582.8</ele>
        <time>2023-08-30T13:52:41Z</time>
      </trkpt>
      <trkpt lat="46.39319" lon="5.58183">
        <ele>583.4</ele>
        <time>2023-08-30T13:52:42Z</time>
      </trkpt>
      <trkpt lat="46.39321" lon="5.58186">
        <ele>583.6</ele>
        <time>2023-08-30T13:52:43Z</time>
      </trkpt>
      <trkpt lat="46.39322" lon="5.58187">
        <ele>583.6</ele>
        <time>2023-08-30T13:52:44Z</time>
      </trkpt>
      <trkpt lat="46.39323" lon="5.58189">
        <ele>584</ele>
        <time>2023-08-30T13:52:45Z</time>
      </trkpt>
      <trkpt lat="46.39325" lon="5.58191">
        <ele>584.4</ele>
        <time>2023-08-30T13:52:46Z</time>
      </trkpt>
      <trkpt lat="46.39326" lon="5.58193">
        <ele>584.4</ele>
        <time>2023-08-30T13:52:47Z</time>
      </trkpt>
      <trkpt lat="46.39328" lon="5.58196">
        <ele>584.4</ele>
        <time>2023-08-30T13:52:48Z</time>
      </trkpt>
      <trkpt lat="46.3933" lon="5.58198">
        <ele>584.4</ele>
        <time>2023-08-30T13:52:49Z</time>
      </trkpt>
      <trkpt lat="46.39331" lon="5.582">
        <ele>584.8</ele>
        <time>2023-08-30T13:52:50Z</time>
      </trkpt>
      <trkpt lat="46.39332" lon="5.58203">
        <ele>584.8</ele>
        <time>2023-08-30T13:52:51Z</time>
      </trkpt>
      <trkpt lat="46.39334" lon="5.58205">
        <ele>584.8</ele>
        <time>2023-08-30T13:52:52Z</time>
      </trkpt>
      <trkpt lat="46.39336" lon="5.58207">
        <ele>584.8</ele>
        <time>2023-08-30T13:52:53Z</time>
      </trkpt>
      <trkpt lat="46.39337" lon="5.58209">
        <ele>585.2</ele>
        <time>2023-08-30T13:52:54Z</time>
      </trkpt>
      <trkpt lat="46.39338" lon="5.58211">
        <ele>585.2</ele>
        <time>2023-08-30T13:52:55Z</time>
      </trkpt>
      <trkpt lat="46.3934" lon="5.58214">
        <ele>585.4</ele>
        <time>2023-08-30T13:52:56Z</time>
      </trkpt>
      <trkpt lat="46.39341" lon="5.58216">
        <ele>585.4</ele>
        <time>2023-08-30T13:52:57Z</time>
      </trkpt>
      <trkpt lat="46.39342" lon="5.58219">
        <ele>585.4</ele>
        <time>2023-08-30T13:52:58Z</time>
      </trkpt>
      <trkpt lat="46.39344" lon="5.58221">
        <ele>585.6</ele>
        <time>2023-08-30T13:52:59Z</time>
      </trkpt>
      <trkpt lat="46.39345" lon="5.58223">
        <ele>586</ele>
        <time>2023-08-30T13:53:00Z</time>
      </trkpt>
      <trkpt lat="46.39346" lon="5.58225">
        <ele>586</ele>
        <time>2023-08-30T13:53:01Z</time>
      </trkpt>
      <trkpt lat="46.39348" lon="5.58227">
        <ele>586</ele>
        <time>2023-08-30T13:53:02Z</time>
      </trkpt>
      <trkpt lat="46.39349" lon="5.58229">
        <ele>586.2</ele>
        <time>2023-08-30T13:53:03Z</time>
      </trkpt>
      <trkpt lat="46.39351" lon="5.5823">
        <ele>586.2</ele>
        <time>2023-08-30T13:53:04Z</time>
      </trkpt>
      <trkpt lat="46.39353" lon="5.58232">
        <ele>586.2</ele>
        <time>2023-08-30T13:53:05Z</time>
      </trkpt>
      <trkpt lat="46.39354" lon="5.58234">
        <ele>586.6</ele>
        <time>2023-08-30T13:53:06Z</time>
      </trkpt>
      <trkpt lat="46.39356" lon="5.58236">
        <ele>586.6</ele>
        <time>2023-08-30T13:53:07Z</time>
      </trkpt>
      <trkpt lat="46.39357" lon="5.58238">
        <ele>586.6</ele>
        <time>2023-08-30T13:53:08Z</time>
      </trkpt>
      <trkpt lat="46.39359" lon="5.58239">
        <ele>586.8</ele>
        <time>2023-08-30T13:53:09Z</time>
      </trkpt>
      <trkpt lat="46.3936" lon="5.58241">
        <ele>586.8</ele>
        <time>2023-08-30T13:53:10Z</time>
      </trkpt>
      <trkpt lat="46.39362" lon="5.58243">
        <ele>586.8</ele>
        <time>2023-08-30T13:53:11Z</time>
      </trkpt>
      <trkpt lat="46.39363" lon="5.58245">
        <ele>586.8</ele>
        <time>2023-08-30T13:53:12Z</time>
      </trkpt>
      <trkpt lat="46.39365" lon="5.58247">
        <ele>587.2</ele>
        <time>2023-08-30T13:53:13Z</time>
      </trkpt>
      <trkpt lat="46.39366" lon="5.58249">
        <ele>587.2</ele>
        <time>2023-08-30T13:53:14Z</time>
      </trkpt>
      <trkpt lat="46.39368" lon="5.58251">
        <ele>587.4</ele>
        <time>2023-08-30T13:53:15Z</time>
      </trkpt>
      <trkpt lat="46.3937" lon="5.58253">
        <ele>587.4</ele>
        <time>2023-08-30T13:53:16Z</time>
      </trkpt>
      <trkpt lat="46.39371" lon="5.58254">
        <ele>587.8</ele>
        <time>2023-08-30T13:53:17Z</time>
      </trkpt>
      <trkpt lat="46.39373" lon="5.58256">
        <ele>588</ele>
        <time>2023-08-30T13:53:18Z</time>
      </trkpt>
      <trkpt lat="46.39374" lon="5.58258">
        <ele>588</ele>
        <time>2023-08-30T13:53:19Z</time>
      </trkpt>
      <trkpt lat="46.39376" lon="5.5826">
        <ele>588</ele>
        <time>2023-08-30T13:53:20Z</time>
      </trkpt>
      <trkpt lat="46.39378" lon="5.58262">
        <ele>588</ele>
        <time>2023-08-30T13:53:21Z</time>
      </trkpt>
      <trkpt lat="46.3938" lon="5.58263">
        <ele>588</ele>
        <time>2023-08-30T13:53:22Z</time>
      </trkpt>
      <trkpt lat="46.39381" lon="5.58265">
        <ele>588.6</ele>
        <time>2023-08-30T13:53:23Z</time>
      </trkpt>
      <trkpt lat="46.39382" lon="5.58266">
        <ele>588.6</ele>
        <time>2023-08-30T13:53:24Z</time>
      </trkpt>
      <trkpt lat="46.39384" lon="5.58269">
        <ele>588.6</ele>
        <time>2023-08-30T13:53:25Z</time>
      </trkpt>
      <trkpt lat="46.39386" lon="5.58271">
        <ele>589.2</ele>
        <time>2023-08-30T13:53:26Z</time>
      </trkpt>
      <trkpt lat="46.39387" lon="5.58272">
        <ele>589.6</ele>
        <time>2023-08-30T13:53:27Z</time>
      </trkpt>
      <trkpt lat="46.39388" lon="5.58274">
        <ele>589.6</ele>
        <time>2023-08-30T13:53:28Z</time>
      </trkpt>
      <trkpt lat="46.3939" lon="5.58276">
        <ele>589.6</ele>
        <time>2023-08-30T13:53:29Z</time>
      </trkpt>
      <trkpt lat="46.39392" lon="5.58277">
        <ele>590.2</ele>
        <time>2023-08-30T13:53:30Z</time>
      </trkpt>
      <trkpt lat="46.39393" lon="5.58279">
        <ele>590.2</ele>
        <time>2023-08-30T13:53:31Z</time>
      </trkpt>
      <trkpt lat="46.39394" lon="5.58281">
        <ele>590.2</ele>
        <time>2023-08-30T13:53:32Z</time>
      </trkpt>
      <trkpt lat="46.39396" lon="5.58283">
        <ele>590.2</ele>
        <time>2023-08-30T13:53:33Z</time>
      </trkpt>
      <trkpt lat="46.39397" lon="5.58285">
        <ele>590.2</ele>
        <time>2023-08-30T13:53:34Z</time>
      </trkpt>
      <trkpt lat="46.39399" lon="5.58287">
        <ele>590.2</ele>
        <time>2023-08-30T13:53:35Z</time>
      </trkpt>
      <trkpt lat="46.394" lon="5.58289">
        <ele>590.8</ele>
        <time>2023-08-30T13:53:36Z</time>
      </trkpt>
      <trkpt lat="46.39402" lon="5.5829">
        <ele>590.8</ele>
        <time>2023-08-30T13:53:37Z</time>
      </trkpt>
      <trkpt lat="46.39403" lon="5.58292">
        <ele>590.8</ele>
        <time>2023-08-30T13:53:38Z</time>
      </trkpt>
      <trkpt lat="46.39405" lon="5.58294">
        <ele>590.8</ele>
        <time>2023-08-30T13:53:39Z</time>
      </trkpt>
      <trkpt lat="46.39407" lon="5.58295">
        <ele>591.6</ele>
        <time>2023-08-30T13:53:40Z</time>
      </trkpt>
      <trkpt lat="46.39408" lon="5.58297">
        <ele>591.6</ele>
        <time>2023-08-30T13:53:41Z</time>
      </trkpt>
      <trkpt lat="46.3941" lon="5.58299">
        <ele>591.6</ele>
        <time>2023-08-30T13:53:42Z</time>
      </trkpt>
      <trkpt lat="46.39411" lon="5.58301">
        <ele>591.6</ele>
        <time>2023-08-30T13:53:43Z</time>
      </trkpt>
      <trkpt lat="46.39413" lon="5.58303">
        <ele>592.2</ele>
        <time>2023-08-30T13:53:44Z</time>
      </trkpt>
      <trkpt lat="46.39414" lon="5.58304">
        <ele>592.2</ele>
        <time>2023-08-30T13:53:45Z</time>
      </trkpt>
      <trkpt lat="46.39416" lon="5.58306">
        <ele>592</ele>
        <time>2023-08-30T13:53:46Z</time>
      </trkpt>
      <trkpt lat="46.39417" lon="5.58308">
        <ele>592</ele>
        <time>2023-08-30T13:53:47Z</time>
      </trkpt>
      <trkpt lat="46.39419" lon="5.5831">
        <ele>592</ele>
        <time>2023-08-30T13:53:48Z</time>
      </trkpt>
      <trkpt lat="46.39421" lon="5.58313">
        <ele>593</ele>
        <time>2023-08-30T13:53:49Z</time>
      </trkpt>
      <trkpt lat="46.39423" lon="5.58315">
        <ele>592.8</ele>
        <time>2023-08-30T13:53:50Z</time>
      </trkpt>
      <trkpt lat="46.39425" lon="5.58317">
        <ele>592.8</ele>
        <time>2023-08-30T13:53:51Z</time>
      </trkpt>
      <trkpt lat="46.39427" lon="5.58319">
        <ele>592.8</ele>
        <time>2023-08-30T13:53:52Z</time>
      </trkpt>
      <trkpt lat="46.39429" lon="5.58322">
        <ele>592.8</ele>
        <time>2023-08-30T13:53:53Z</time>
      </trkpt>
      <trkpt lat="46.39431" lon="5.58324">
        <ele>593.4</ele>
        <time>2023-08-30T13:53:54Z</time>
      </trkpt>
      <trkpt lat="46.39432" lon="5.58326">
        <ele>593.6</ele>
        <time>2023-08-30T13:53:55Z</time>
      </trkpt>
      <trkpt lat="46.39434" lon="5.58328">
        <ele>593.6</ele>
        <time>2023-08-30T13:53:56Z</time>
      </trkpt>
      <trkpt lat="46.39435" lon="5.58331">
        <ele>593.6</ele>
        <time>2023-08-30T13:53:57Z</time>
      </trkpt>
      <trkpt lat="46.39437" lon="5.58333">
        <ele>593.8</ele>
        <time>2023-08-30T13:53:58Z</time>
      </trkpt>
      <trkpt lat="46.39438" lon="5.58335">
        <ele>594.2</ele>
        <time>2023-08-30T13:53:59Z</time>
      </trkpt>
      <trkpt lat="46.3944" lon="5.58336">
        <ele>594.2</ele>
        <time>2023-08-30T13:54:00Z</time>
      </trkpt>
      <trkpt lat="46.39441" lon="5.58337">
        <ele>594.2</ele>
        <time>2023-08-30T13:54:01Z</time>
      </trkpt>
      <trkpt lat="46.39443" lon="5.58338">
        <ele>594.2</ele>
        <time>2023-08-30T13:54:02Z</time>
      </trkpt>
      <trkpt lat="46.39444" lon="5.5834">
        <ele>594.4</ele>
        <time>2023-08-30T13:54:03Z</time>
      </trkpt>
      <trkpt lat="46.39446" lon="5.58341">
        <ele>594.4</ele>
        <time>2023-08-30T13:54:04Z</time>
      </trkpt>
      <trkpt lat="46.39448" lon="5.58343">
        <ele>594.4</ele>
        <time>2023-08-30T13:54:05Z</time>
      </trkpt>
      <trkpt lat="46.3945" lon="5.58345">
        <ele>594.4</ele>
        <time>2023-08-30T13:54:06Z</time>
      </trkpt>
      <trkpt lat="46.39451" lon="5.58347">
        <ele>594.8</ele>
        <time>2023-08-30T13:54:07Z</time>
      </trkpt>
      <trkpt lat="46.39453" lon="5.58349">
        <ele>595</ele>
        <time>2023-08-30T13:54:08Z</time>
      </trkpt>
      <trkpt lat="46.39454" lon="5.58351">
        <ele>595</ele>
        <time>2023-08-30T13:54:09Z</time>
      </trkpt>
      <trkpt lat="46.39456" lon="5.58353">
        <ele>595</ele>
        <time>2023-08-30T13:54:10Z</time>
      </trkpt>
      <trkpt lat="46.39458" lon="5.58355">
        <ele>595</ele>
        <time>2023-08-30T13:54:11Z</time>
      </trkpt>
      <trkpt lat="46.3946" lon="5.58356">
        <ele>595</ele>
        <time>2023-08-30T13:54:12Z</time>
      </trkpt>
      <trkpt lat="46.39461" lon="5.58358">
        <ele>595</ele>
        <time>2023-08-30T13:54:13Z</time>
      </trkpt>
      <trkpt lat="46.39463" lon="5.5836">
        <ele>595</ele>
        <time>2023-08-30T13:54:14Z</time>
      </trkpt>
      <trkpt lat="46.39465" lon="5.58362">
        <ele>595</ele>
        <time>2023-08-30T13:54:15Z</time>
      </trkpt>
      <trkpt lat="46.39467" lon="5.58363">
        <ele>595.4</ele>
        <time>2023-08-30T13:54:16Z</time>
      </trkpt>
      <trkpt lat="46.39468" lon="5.58365">
        <ele>595.4</ele>
        <time>2023-08-30T13:54:17Z</time>
      </trkpt>
      <trkpt lat="46.3947" lon="5.58366">
        <ele>595.4</ele>
        <time>2023-08-30T13:54:18Z</time>
      </trkpt>
      <trkpt lat="46.39471" lon="5.58368">
        <ele>595.4</ele>
        <time>2023-08-30T13:54:19Z</time>
      </trkpt>
      <trkpt lat="46.39473" lon="5.5837">
        <ele>595.4</ele>
        <time>2023-08-30T13:54:20Z</time>
      </trkpt>
      <trkpt lat="46.39475" lon="5.58372">
        <ele>595.6</ele>
        <time>2023-08-30T13:54:21Z</time>
      </trkpt>
      <trkpt lat="46.39477" lon="5.58373">
        <ele>595.8</ele>
        <time>2023-08-30T13:54:22Z</time>
      </trkpt>
      <trkpt lat="46.39479" lon="5.58374">
        <ele>595.8</ele>
        <time>2023-08-30T13:54:23Z</time>
      </trkpt>
      <trkpt lat="46.39481" lon="5.58375">
        <ele>595.8</ele>
        <time>2023-08-30T13:54:24Z</time>
      </trkpt>
      <trkpt lat="46.39483" lon="5.58377">
        <ele>595.8</ele>
        <time>2023-08-30T13:54:25Z</time>
      </trkpt>
      <trkpt lat="46.39485" lon="5.58378">
        <ele>596.4</ele>
        <time>2023-08-30T13:54:26Z</time>
      </trkpt>
      <trkpt lat="46.39487" lon="5.58379">
        <ele>596.4</ele>
        <time>2023-08-30T13:54:27Z</time>
      </trkpt>
      <trkpt lat="46.39488" lon="5.58381">
        <ele>596.4</ele>
        <time>2023-08-30T13:54:28Z</time>
      </trkpt>
      <trkpt lat="46.3949" lon="5.58382">
        <ele>596.4</ele>
        <time>2023-08-30T13:54:29Z</time>
      </trkpt>
      <trkpt lat="46.39492" lon="5.58384">
        <ele>596.4</ele>
        <time>2023-08-30T13:54:30Z</time>
      </trkpt>
      <trkpt lat="46.39494" lon="5.58385">
        <ele>596.4</ele>
        <time>2023-08-30T13:54:31Z</time>
      </trkpt>
      <trkpt lat="46.39495" lon="5.58387">
        <ele>596.4</ele>
        <time>2023-08-30T13:54:32Z</time>
      </trkpt>
      <trkpt lat="46.39497" lon="5.58388">
        <ele>596.8</ele>
        <time>2023-08-30T13:54:33Z</time>
      </trkpt>
      <trkpt lat="46.39499" lon="5.5839">
        <ele>596.8</ele>
        <time>2023-08-30T13:54:34Z</time>
      </trkpt>
      <trkpt lat="46.395" lon="5.58392">
        <ele>597</ele>
        <time>2023-08-30T13:54:35Z</time>
      </trkpt>
      <trkpt lat="46.39501" lon="5.58395">
        <ele>597</ele>
        <time>2023-08-30T13:54:36Z</time>
      </trkpt>
      <trkpt lat="46.39503" lon="5.58398">
        <ele>597</ele>
        <time>2023-08-30T13:54:37Z</time>
      </trkpt>
      <trkpt lat="46.39504" lon="5.58401">
        <ele>597.4</ele>
        <time>2023-08-30T13:54:38Z</time>
      </trkpt>
      <trkpt lat="46.39505" lon="5.58403">
        <ele>597.4</ele>
        <time>2023-08-30T13:54:39Z</time>
      </trkpt>
      <trkpt lat="46.39506" lon="5.58405">
        <ele>597.8</ele>
        <time>2023-08-30T13:54:40Z</time>
      </trkpt>
      <trkpt lat="46.39507" lon="5.58408">
        <ele>597.8</ele>
        <time>2023-08-30T13:54:41Z</time>
      </trkpt>
      <trkpt lat="46.39508" lon="5.58412">
        <ele>597.8</ele>
        <time>2023-08-30T13:54:42Z</time>
      </trkpt>
      <trkpt lat="46.39508" lon="5.58415">
        <ele>597.8</ele>
        <time>2023-08-30T13:54:43Z</time>
      </trkpt>
      <trkpt lat="46.39507" lon="5.58419">
        <ele>597.8</ele>
        <time>2023-08-30T13:54:44Z</time>
      </trkpt>
      <trkpt lat="46.39507" lon="5.58421">
        <ele>598</ele>
        <time>2023-08-30T13:54:45Z</time>
      </trkpt>
      <trkpt lat="46.39507" lon="5.58424">
        <ele>598</ele>
        <time>2023-08-30T13:54:46Z</time>
      </trkpt>
      <trkpt lat="46.39506" lon="5.58428">
        <ele>598</ele>
        <time>2023-08-30T13:54:47Z</time>
      </trkpt>
      <trkpt lat="46.39505" lon="5.58431">
        <ele>598</ele>
        <time>2023-08-30T13:54:48Z</time>
      </trkpt>
      <trkpt lat="46.39504" lon="5.58433">
        <ele>598</ele>
        <time>2023-08-30T13:54:49Z</time>
      </trkpt>
      <trkpt lat="46.39503" lon="5.58436">
        <ele>598</ele>
        <time>2023-08-30T13:54:50Z</time>
      </trkpt>
      <trkpt lat="46.39501" lon="5.58439">
        <ele>598</ele>
        <time>2023-08-30T13:54:51Z</time>
      </trkpt>
      <trkpt lat="46.395" lon="5.58441">
        <ele>598</ele>
        <time>2023-08-30T13:54:52Z</time>
      </trkpt>
      <trkpt lat="46.39498" lon="5.58442">
        <ele>598</ele>
        <time>2023-08-30T13:54:53Z</time>
      </trkpt>
      <trkpt lat="46.39496" lon="5.58444">
        <ele>598</ele>
        <time>2023-08-30T13:54:54Z</time>
      </trkpt>
      <trkpt lat="46.39495" lon="5.58446">
        <ele>598</ele>
        <time>2023-08-30T13:54:55Z</time>
      </trkpt>
      <trkpt lat="46.39493" lon="5.58448">
        <ele>598</ele>
        <time>2023-08-30T13:54:56Z</time>
      </trkpt>
      <trkpt lat="46.39491" lon="5.5845">
        <ele>598</ele>
        <time>2023-08-30T13:54:57Z</time>
      </trkpt>
      <trkpt lat="46.39489" lon="5.58451">
        <ele>598.2</ele>
        <time>2023-08-30T13:54:58Z</time>
      </trkpt>
      <trkpt lat="46.39487" lon="5.58453">
        <ele>598.2</ele>
        <time>2023-08-30T13:54:59Z</time>
      </trkpt>
      <trkpt lat="46.39485" lon="5.58454">
        <ele>598.2</ele>
        <time>2023-08-30T13:55:00Z</time>
      </trkpt>
      <trkpt lat="46.39483" lon="5.58455">
        <ele>598.2</ele>
        <time>2023-08-30T13:55:01Z</time>
      </trkpt>
      <trkpt lat="46.39481" lon="5.58456">
        <ele>598.8</ele>
        <time>2023-08-30T13:55:02Z</time>
      </trkpt>
      <trkpt lat="46.39479" lon="5.58456">
        <ele>598.8</ele>
        <time>2023-08-30T13:55:03Z</time>
      </trkpt>
      <trkpt lat="46.39477" lon="5.58457">
        <ele>598.8</ele>
        <time>2023-08-30T13:55:04Z</time>
      </trkpt>
      <trkpt lat="46.39475" lon="5.58458">
        <ele>598.8</ele>
        <time>2023-08-30T13:55:05Z</time>
      </trkpt>
      <trkpt lat="46.39474" lon="5.58458">
        <ele>599</ele>
        <time>2023-08-30T13:55:06Z</time>
      </trkpt>
      <trkpt lat="46.39472" lon="5.58458">
        <ele>599</ele>
        <time>2023-08-30T13:55:07Z</time>
      </trkpt>
      <trkpt lat="46.39469" lon="5.58457">
        <ele>599</ele>
        <time>2023-08-30T13:55:08Z</time>
      </trkpt>
      <trkpt lat="46.39467" lon="5.58457">
        <ele>599</ele>
        <time>2023-08-30T13:55:09Z</time>
      </trkpt>
      <trkpt lat="46.39466" lon="5.58457">
        <ele>599.4</ele>
        <time>2023-08-30T13:55:10Z</time>
      </trkpt>
      <trkpt lat="46.39464" lon="5.58456">
        <ele>599.4</ele>
        <time>2023-08-30T13:55:11Z</time>
      </trkpt>
      <trkpt lat="46.39462" lon="5.58455">
        <ele>599.6</ele>
        <time>2023-08-30T13:55:12Z</time>
      </trkpt>
      <trkpt lat="46.3946" lon="5.58454">
        <ele>599.6</ele>
        <time>2023-08-30T13:55:13Z</time>
      </trkpt>
      <trkpt lat="46.39458" lon="5.58454">
        <ele>599.6</ele>
        <time>2023-08-30T13:55:14Z</time>
      </trkpt>
      <trkpt lat="46.39457" lon="5.58453">
        <ele>600.2</ele>
        <time>2023-08-30T13:55:15Z</time>
      </trkpt>
      <trkpt lat="46.39455" lon="5.58451">
        <ele>600.2</ele>
        <time>2023-08-30T13:55:16Z</time>
      </trkpt>
      <trkpt lat="46.39453" lon="5.5845">
        <ele>600.2</ele>
        <time>2023-08-30T13:55:17Z</time>
      </trkpt>
      <trkpt lat="46.39451" lon="5.58449">
        <ele>600.2</ele>
        <time>2023-08-30T13:55:18Z</time>
      </trkpt>
      <trkpt lat="46.39449" lon="5.58448">
        <ele>600.8</ele>
        <time>2023-08-30T13:55:19Z</time>
      </trkpt>
      <trkpt lat="46.39447" lon="5.58447">
        <ele>600.8</ele>
        <time>2023-08-30T13:55:20Z</time>
      </trkpt>
      <trkpt lat="46.39445" lon="5.58446">
        <ele>601.2</ele>
        <time>2023-08-30T13:55:21Z</time>
      </trkpt>
      <trkpt lat="46.39444" lon="5.58444">
        <ele>601.2</ele>
        <time>2023-08-30T13:55:22Z</time>
      </trkpt>
      <trkpt lat="46.39443" lon="5.58443">
        <ele>601.2</ele>
        <time>2023-08-30T13:55:23Z</time>
      </trkpt>
      <trkpt lat="46.39441" lon="5.58441">
        <ele>601.2</ele>
        <time>2023-08-30T13:55:24Z</time>
      </trkpt>
      <trkpt lat="46.39439" lon="5.5844">
        <ele>601.6</ele>
        <time>2023-08-30T13:55:25Z</time>
      </trkpt>
      <trkpt lat="46.39438" lon="5.58439">
        <ele>601.6</ele>
        <time>2023-08-30T13:55:26Z</time>
      </trkpt>
      <trkpt lat="46.39436" lon="5.58437">
        <ele>601.6</ele>
        <time>2023-08-30T13:55:27Z</time>
      </trkpt>
      <trkpt lat="46.39434" lon="5.58436">
        <ele>601.6</ele>
        <time>2023-08-30T13:55:28Z</time>
      </trkpt>
      <trkpt lat="46.39432" lon="5.58434">
        <ele>602.2</ele>
        <time>2023-08-30T13:55:29Z</time>
      </trkpt>
      <trkpt lat="46.3943" lon="5.58433">
        <ele>602.2</ele>
        <time>2023-08-30T13:55:30Z</time>
      </trkpt>
      <trkpt lat="46.39429" lon="5.58432">
        <ele>602.2</ele>
        <time>2023-08-30T13:55:31Z</time>
      </trkpt>
      <trkpt lat="46.39427" lon="5.5843">
        <ele>602.2</ele>
        <time>2023-08-30T13:55:32Z</time>
      </trkpt>
      <trkpt lat="46.39425" lon="5.58428">
        <ele>602.8</ele>
        <time>2023-08-30T13:55:33Z</time>
      </trkpt>
      <trkpt lat="46.39424" lon="5.58426">
        <ele>602.8</ele>
        <time>2023-08-30T13:55:34Z</time>
      </trkpt>
      <trkpt lat="46.39423" lon="5.58424">
        <ele>602.8</ele>
        <time>2023-08-30T13:55:35Z</time>
      </trkpt>
      <trkpt lat="46.39421" lon="5.58422">
        <ele>602.8</ele>
        <time>2023-08-30T13:55:36Z</time>
      </trkpt>
      <trkpt lat="46.3942" lon="5.58421">
        <ele>603.2</ele>
        <time>2023-08-30T13:55:37Z</time>
      </trkpt>
      <trkpt lat="46.39418" lon="5.58419">
        <ele>603.2</ele>
        <time>2023-08-30T13:55:38Z</time>
      </trkpt>
      <trkpt lat="46.39417" lon="5.58417">
        <ele>603.2</ele>
        <time>2023-08-30T13:55:39Z</time>
      </trkpt>
      <trkpt lat="46.39415" lon="5.58415">
        <ele>603.2</ele>
        <time>2023-08-30T13:55:40Z</time>
      </trkpt>
      <trkpt lat="46.39414" lon="5.58413">
        <ele>603.2</ele>
        <time>2023-08-30T13:55:41Z</time>
      </trkpt>
      <trkpt lat="46.39412" lon="5.58411">
        <ele>603.2</ele>
        <time>2023-08-30T13:55:42Z</time>
      </trkpt>
      <trkpt lat="46.39411" lon="5.58409">
        <ele>604</ele>
        <time>2023-08-30T13:55:43Z</time>
      </trkpt>
      <trkpt lat="46.3941" lon="5.58406">
        <ele>604</ele>
        <time>2023-08-30T13:55:44Z</time>
      </trkpt>
      <trkpt lat="46.39409" lon="5.58403">
        <ele>604</ele>
        <time>2023-08-30T13:55:45Z</time>
      </trkpt>
      <trkpt lat="46.39408" lon="5.58401">
        <ele>604</ele>
        <time>2023-08-30T13:55:46Z</time>
      </trkpt>
      <trkpt lat="46.39407" lon="5.58398">
        <ele>604.4</ele>
        <time>2023-08-30T13:55:47Z</time>
      </trkpt>
      <trkpt lat="46.39405" lon="5.58395">
        <ele>604.4</ele>
        <time>2023-08-30T13:55:48Z</time>
      </trkpt>
      <trkpt lat="46.39404" lon="5.58393">
        <ele>604.8</ele>
        <time>2023-08-30T13:55:49Z</time>
      </trkpt>
      <trkpt lat="46.39402" lon="5.5839">
        <ele>604.8</ele>
        <time>2023-08-30T13:55:50Z</time>
      </trkpt>
      <trkpt lat="46.39401" lon="5.58388">
        <ele>604.8</ele>
        <time>2023-08-30T13:55:51Z</time>
      </trkpt>
      <trkpt lat="46.394" lon="5.58386">
        <ele>604.8</ele>
        <time>2023-08-30T13:55:52Z</time>
      </trkpt>
      <trkpt lat="46.39398" lon="5.58384">
        <ele>605.2</ele>
        <time>2023-08-30T13:55:53Z</time>
      </trkpt>
      <trkpt lat="46.39396" lon="5.58382">
        <ele>605.2</ele>
        <time>2023-08-30T13:55:54Z</time>
      </trkpt>
      <trkpt lat="46.39395" lon="5.5838">
        <ele>605.2</ele>
        <time>2023-08-30T13:55:55Z</time>
      </trkpt>
      <trkpt lat="46.39393" lon="5.58378">
        <ele>605.8</ele>
        <time>2023-08-30T13:55:56Z</time>
      </trkpt>
      <trkpt lat="46.39391" lon="5.58377">
        <ele>605.8</ele>
        <time>2023-08-30T13:55:57Z</time>
      </trkpt>
      <trkpt lat="46.39389" lon="5.58376">
        <ele>605.8</ele>
        <time>2023-08-30T13:55:58Z</time>
      </trkpt>
      <trkpt lat="46.39388" lon="5.58375">
        <ele>605.8</ele>
        <time>2023-08-30T13:55:59Z</time>
      </trkpt>
      <trkpt lat="46.39386" lon="5.58374">
        <ele>606</ele>
        <time>2023-08-30T13:56:00Z</time>
      </trkpt>
      <trkpt lat="46.39384" lon="5.58374">
        <ele>606.2</ele>
        <time>2023-08-30T13:56:01Z</time>
      </trkpt>
      <trkpt lat="46.39382" lon="5.58374">
        <ele>606.2</ele>
        <time>2023-08-30T13:56:02Z</time>
      </trkpt>
      <trkpt lat="46.39379" lon="5.58374">
        <ele>606.2</ele>
        <time>2023-08-30T13:56:03Z</time>
      </trkpt>
      <trkpt lat="46.39377" lon="5.58375">
        <ele>606.2</ele>
        <time>2023-08-30T13:56:04Z</time>
      </trkpt>
      <trkpt lat="46.39375" lon="5.58376">
        <ele>606.2</ele>
        <time>2023-08-30T13:56:05Z</time>
      </trkpt>
      <trkpt lat="46.39373" lon="5.58377">
        <ele>606.4</ele>
        <time>2023-08-30T13:56:06Z</time>
      </trkpt>
      <trkpt lat="46.39372" lon="5.58379">
        <ele>606.4</ele>
        <time>2023-08-30T13:56:07Z</time>
      </trkpt>
      <trkpt lat="46.3937" lon="5.58381">
        <ele>606.4</ele>
        <time>2023-08-30T13:56:08Z</time>
      </trkpt>
      <trkpt lat="46.39368" lon="5.58383">
        <ele>606.4</ele>
        <time>2023-08-30T13:56:09Z</time>
      </trkpt>
      <trkpt lat="46.39366" lon="5.58385">
        <ele>606.4</ele>
        <time>2023-08-30T13:56:10Z</time>
      </trkpt>
      <trkpt lat="46.39366" lon="5.58387">
        <ele>606.4</ele>
        <time>2023-08-30T13:56:11Z</time>
      </trkpt>
      <trkpt lat="46.39365" lon="5.5839">
        <ele>606.2</ele>
        <time>2023-08-30T13:56:12Z</time>
      </trkpt>
      <trkpt lat="46.39364" lon="5.58393">
        <ele>606.2</ele>
        <time>2023-08-30T13:56:13Z</time>
      </trkpt>
      <trkpt lat="46.39363" lon="5.58395">
        <ele>606</ele>
        <time>2023-08-30T13:56:14Z</time>
      </trkpt>
      <trkpt lat="46.39363" lon="5.58398">
        <ele>606</ele>
        <time>2023-08-30T13:56:15Z</time>
      </trkpt>
      <trkpt lat="46.39362" lon="5.58401">
        <ele>606.2</ele>
        <time>2023-08-30T13:56:16Z</time>
      </trkpt>
      <trkpt lat="46.39362" lon="5.58404">
        <ele>606.2</ele>
        <time>2023-08-30T13:56:17Z</time>
      </trkpt>
      <trkpt lat="46.39363" lon="5.58407">
        <ele>606.2</ele>
        <time>2023-08-30T13:56:18Z</time>
      </trkpt>
      <trkpt lat="46.39363" lon="5.5841">
        <ele>606.6</ele>
        <time>2023-08-30T13:56:19Z</time>
      </trkpt>
      <trkpt lat="46.39364" lon="5.58412">
        <ele>606.8</ele>
        <time>2023-08-30T13:56:20Z</time>
      </trkpt>
      <trkpt lat="46.39365" lon="5.58415">
        <ele>606.8</ele>
        <time>2023-08-30T13:56:21Z</time>
      </trkpt>
      <trkpt lat="46.39366" lon="5.58417">
        <ele>606.8</ele>
        <time>2023-08-30T13:56:22Z</time>
      </trkpt>
      <trkpt lat="46.39367" lon="5.58419">
        <ele>606.8</ele>
        <time>2023-08-30T13:56:23Z</time>
      </trkpt>
      <trkpt lat="46.39368" lon="5.58422">
        <ele>607.6</ele>
        <time>2023-08-30T13:56:24Z</time>
      </trkpt>
      <trkpt lat="46.39369" lon="5.58424">
        <ele>608</ele>
        <time>2023-08-30T13:56:25Z</time>
      </trkpt>
      <trkpt lat="46.3937" lon="5.58427">
        <ele>608</ele>
        <time>2023-08-30T13:56:26Z</time>
      </trkpt>
      <trkpt lat="46.39372" lon="5.58429">
        <ele>608</ele>
        <time>2023-08-30T13:56:27Z</time>
      </trkpt>
      <trkpt lat="46.39373" lon="5.58432">
        <ele>608.8</ele>
        <time>2023-08-30T13:56:28Z</time>
      </trkpt>
      <trkpt lat="46.39374" lon="5.58434">
        <ele>609.2</ele>
        <time>2023-08-30T13:56:29Z</time>
      </trkpt>
      <trkpt lat="46.39374" lon="5.58437">
        <ele>609.2</ele>
        <time>2023-08-30T13:56:30Z</time>
      </trkpt>
      <trkpt lat="46.39375" lon="5.5844">
        <ele>609.2</ele>
        <time>2023-08-30T13:56:31Z</time>
      </trkpt>
      <trkpt lat="46.39376" lon="5.58443">
        <ele>609.2</ele>
        <time>2023-08-30T13:56:32Z</time>
      </trkpt>
      <trkpt lat="46.39378" lon="5.58445">
        <ele>610</ele>
        <time>2023-08-30T13:56:33Z</time>
      </trkpt>
      <trkpt lat="46.39379" lon="5.58448">
        <ele>610</ele>
        <time>2023-08-30T13:56:34Z</time>
      </trkpt>
      <trkpt lat="46.39381" lon="5.58451">
        <ele>610.2</ele>
        <time>2023-08-30T13:56:35Z</time>
      </trkpt>
      <trkpt lat="46.39382" lon="5.58453">
        <ele>610.2</ele>
        <time>2023-08-30T13:56:36Z</time>
      </trkpt>
      <trkpt lat="46.39383" lon="5.58456">
        <ele>611.2</ele>
        <time>2023-08-30T13:56:37Z</time>
      </trkpt>
      <trkpt lat="46.39384" lon="5.58459">
        <ele>611.6</ele>
        <time>2023-08-30T13:56:38Z</time>
      </trkpt>
      <trkpt lat="46.39385" lon="5.58462">
        <ele>611.6</ele>
        <time>2023-08-30T13:56:39Z</time>
      </trkpt>
      <trkpt lat="46.39386" lon="5.58466">
        <ele>611.6</ele>
        <time>2023-08-30T13:56:40Z</time>
      </trkpt>
      <trkpt lat="46.39387" lon="5.58469">
        <ele>611.6</ele>
        <time>2023-08-30T13:56:41Z</time>
      </trkpt>
      <trkpt lat="46.39388" lon="5.58473">
        <ele>612.4</ele>
        <time>2023-08-30T13:56:42Z</time>
      </trkpt>
      <trkpt lat="46.39389" lon="5.58477">
        <ele>612.6</ele>
        <time>2023-08-30T13:56:43Z</time>
      </trkpt>
      <trkpt lat="46.39389" lon="5.58481">
        <ele>612.6</ele>
        <time>2023-08-30T13:56:44Z</time>
      </trkpt>
      <trkpt lat="46.3939" lon="5.58484">
        <ele>612.6</ele>
        <time>2023-08-30T13:56:45Z</time>
      </trkpt>
      <trkpt lat="46.3939" lon="5.58488">
        <ele>612.6</ele>
        <time>2023-08-30T13:56:46Z</time>
      </trkpt>
      <trkpt lat="46.39391" lon="5.58492">
        <ele>613</ele>
        <time>2023-08-30T13:56:47Z</time>
      </trkpt>
      <trkpt lat="46.39391" lon="5.58496">
        <ele>613</ele>
        <time>2023-08-30T13:56:48Z</time>
      </trkpt>
      <trkpt lat="46.39391" lon="5.58499">
        <ele>613</ele>
        <time>2023-08-30T13:56:49Z</time>
      </trkpt>
      <trkpt lat="46.3939" lon="5.58503">
        <ele>613</ele>
        <time>2023-08-30T13:56:50Z</time>
      </trkpt>
      <trkpt lat="46.3939" lon="5.58507">
        <ele>613.6</ele>
        <time>2023-08-30T13:56:51Z</time>
      </trkpt>
      <trkpt lat="46.3939" lon="5.58511">
        <ele>613.6</ele>
        <time>2023-08-30T13:56:52Z</time>
      </trkpt>
      <trkpt lat="46.3939" lon="5.58515">
        <ele>613.4</ele>
        <time>2023-08-30T13:56:53Z</time>
      </trkpt>
      <trkpt lat="46.3939" lon="5.5852">
        <ele>613.4</ele>
        <time>2023-08-30T13:56:54Z</time>
      </trkpt>
      <trkpt lat="46.3939" lon="5.58524">
        <ele>613.4</ele>
        <time>2023-08-30T13:56:55Z</time>
      </trkpt>
      <trkpt lat="46.3939" lon="5.58529">
        <ele>614.2</ele>
        <time>2023-08-30T13:56:56Z</time>
      </trkpt>
      <trkpt lat="46.3939" lon="5.58534">
        <ele>614.2</ele>
        <time>2023-08-30T13:56:57Z</time>
      </trkpt>
      <trkpt lat="46.3939" lon="5.58539">
        <ele>614.6</ele>
        <time>2023-08-30T13:56:58Z</time>
      </trkpt>
      <trkpt lat="46.3939" lon="5.58544">
        <ele>614.6</ele>
        <time>2023-08-30T13:56:59Z</time>
      </trkpt>
      <trkpt lat="46.39391" lon="5.58548">
        <ele>614.6</ele>
        <time>2023-08-30T13:57:00Z</time>
      </trkpt>
      <trkpt lat="46.39391" lon="5.58553">
        <ele>614.8</ele>
        <time>2023-08-30T13:57:01Z</time>
      </trkpt>
      <trkpt lat="46.39391" lon="5.58558">
        <ele>614.8</ele>
        <time>2023-08-30T13:57:02Z</time>
      </trkpt>
      <trkpt lat="46.39391" lon="5.58562">
        <ele>614.8</ele>
        <time>2023-08-30T13:57:03Z</time>
      </trkpt>
      <trkpt lat="46.39392" lon="5.58567">
        <ele>615.2</ele>
        <time>2023-08-30T13:57:04Z</time>
      </trkpt>
      <trkpt lat="46.39392" lon="5.58572">
        <ele>615.2</ele>
        <time>2023-08-30T13:57:05Z</time>
      </trkpt>
      <trkpt lat="46.39392" lon="5.58577">
        <ele>615.2</ele>
        <time>2023-08-30T13:57:06Z</time>
      </trkpt>
      <trkpt lat="46.39392" lon="5.58582">
        <ele>615.2</ele>
        <time>2023-08-30T13:57:07Z</time>
      </trkpt>
      <trkpt lat="46.39393" lon="5.58587">
        <ele>615.2</ele>
        <time>2023-08-30T13:57:08Z</time>
      </trkpt>
      <trkpt lat="46.39393" lon="5.58592">
        <ele>615.2</ele>
        <time>2023-08-30T13:57:09Z</time>
      </trkpt>
      <trkpt lat="46.39393" lon="5.58597">
        <ele>615.8</ele>
        <time>2023-08-30T13:57:10Z</time>
      </trkpt>
      <trkpt lat="46.39393" lon="5.58602">
        <ele>615.8</ele>
        <time>2023-08-30T13:57:11Z</time>
      </trkpt>
      <trkpt lat="46.39394" lon="5.58607">
        <ele>615.8</ele>
        <time>2023-08-30T13:57:12Z</time>
      </trkpt>
      <trkpt lat="46.39394" lon="5.58613">
        <ele>615.8</ele>
        <time>2023-08-30T13:57:13Z</time>
      </trkpt>
      <trkpt lat="46.39394" lon="5.58618">
        <ele>615.8</ele>
        <time>2023-08-30T13:57:14Z</time>
      </trkpt>
      <trkpt lat="46.39394" lon="5.58623">
        <ele>616</ele>
        <time>2023-08-30T13:57:15Z</time>
      </trkpt>
      <trkpt lat="46.39395" lon="5.58628">
        <ele>616</ele>
        <time>2023-08-30T13:57:16Z</time>
      </trkpt>
      <trkpt lat="46.39395" lon="5.58633">
        <ele>616</ele>
        <time>2023-08-30T13:57:17Z</time>
      </trkpt>
      <trkpt lat="46.39395" lon="5.58638">
        <ele>616</ele>
        <time>2023-08-30T13:57:18Z</time>
      </trkpt>
      <trkpt lat="46.39395" lon="5.58643">
        <ele>616</ele>
        <time>2023-08-30T13:57:19Z</time>
      </trkpt>
      <trkpt lat="46.39396" lon="5.58648">
        <ele>616.2</ele>
        <time>2023-08-30T13:57:20Z</time>
      </trkpt>
      <trkpt lat="46.39396" lon="5.58653">
        <ele>616.2</ele>
        <time>2023-08-30T13:57:21Z</time>
      </trkpt>
      <trkpt lat="46.39396" lon="5.58658">
        <ele>616.2</ele>
        <time>2023-08-30T13:57:22Z</time>
      </trkpt>
      <trkpt lat="46.39397" lon="5.58663">
        <ele>616.4</ele>
        <time>2023-08-30T13:57:23Z</time>
      </trkpt>
      <trkpt lat="46.39397" lon="5.58668">
        <ele>616.4</ele>
        <time>2023-08-30T13:57:24Z</time>
      </trkpt>
      <trkpt lat="46.39397" lon="5.58673">
        <ele>616.4</ele>
        <time>2023-08-30T13:57:25Z</time>
      </trkpt>
      <trkpt lat="46.39397" lon="5.58678">
        <ele>616.4</ele>
        <time>2023-08-30T13:57:26Z</time>
      </trkpt>
      <trkpt lat="46.39397" lon="5.58683">
        <ele>616.8</ele>
        <time>2023-08-30T13:57:27Z</time>
      </trkpt>
      <trkpt lat="46.39398" lon="5.58688">
        <ele>617</ele>
        <time>2023-08-30T13:57:28Z</time>
      </trkpt>
      <trkpt lat="46.39398" lon="5.58693">
        <ele>617</ele>
        <time>2023-08-30T13:57:29Z</time>
      </trkpt>
      <trkpt lat="46.39398" lon="5.58697">
        <ele>617</ele>
        <time>2023-08-30T13:57:30Z</time>
      </trkpt>
      <trkpt lat="46.39399" lon="5.58702">
        <ele>617</ele>
        <time>2023-08-30T13:57:31Z</time>
      </trkpt>
      <trkpt lat="46.39399" lon="5.58707">
        <ele>617.2</ele>
        <time>2023-08-30T13:57:32Z</time>
      </trkpt>
      <trkpt lat="46.394" lon="5.58711">
        <ele>617.2</ele>
        <time>2023-08-30T13:57:33Z</time>
      </trkpt>
      <trkpt lat="46.394" lon="5.58715">
        <ele>617.2</ele>
        <time>2023-08-30T13:57:34Z</time>
      </trkpt>
      <trkpt lat="46.394" lon="5.5872">
        <ele>617.2</ele>
        <time>2023-08-30T13:57:35Z</time>
      </trkpt>
      <trkpt lat="46.39401" lon="5.58724">
        <ele>617.2</ele>
        <time>2023-08-30T13:57:36Z</time>
      </trkpt>
      <trkpt lat="46.39401" lon="5.58729">
        <ele>617.6</ele>
        <time>2023-08-30T13:57:37Z</time>
      </trkpt>
      <trkpt lat="46.39401" lon="5.58734">
        <ele>617.8</ele>
        <time>2023-08-30T13:57:38Z</time>
      </trkpt>
      <trkpt lat="46.39401" lon="5.58739">
        <ele>617.8</ele>
        <time>2023-08-30T13:57:39Z</time>
      </trkpt>
      <trkpt lat="46.394" lon="5.58743">
        <ele>617.8</ele>
        <time>2023-08-30T13:57:40Z</time>
      </trkpt>
      <trkpt lat="46.394" lon="5.58748">
        <ele>618.4</ele>
        <time>2023-08-30T13:57:41Z</time>
      </trkpt>
      <trkpt lat="46.394" lon="5.58753">
        <ele>618.6</ele>
        <time>2023-08-30T13:57:42Z</time>
      </trkpt>
      <trkpt lat="46.39399" lon="5.58758">
        <ele>618.6</ele>
        <time>2023-08-30T13:57:43Z</time>
      </trkpt>
      <trkpt lat="46.39398" lon="5.58763">
        <ele>618.6</ele>
        <time>2023-08-30T13:57:44Z</time>
      </trkpt>
      <trkpt lat="46.39397" lon="5.58767">
        <ele>619.2</ele>
        <time>2023-08-30T13:57:45Z</time>
      </trkpt>
      <trkpt lat="46.39396" lon="5.58771">
        <ele>619.2</ele>
        <time>2023-08-30T13:57:46Z</time>
      </trkpt>
      <trkpt lat="46.39395" lon="5.58776">
        <ele>619.2</ele>
        <time>2023-08-30T13:57:47Z</time>
      </trkpt>
      <trkpt lat="46.39394" lon="5.5878">
        <ele>619.2</ele>
        <time>2023-08-30T13:57:48Z</time>
      </trkpt>
      <trkpt lat="46.39392" lon="5.58784">
        <ele>619.2</ele>
        <time>2023-08-30T13:57:49Z</time>
      </trkpt>
      <trkpt lat="46.39391" lon="5.58788">
        <ele>619.8</ele>
        <time>2023-08-30T13:57:50Z</time>
      </trkpt>
      <trkpt lat="46.39389" lon="5.58792">
        <ele>620</ele>
        <time>2023-08-30T13:57:51Z</time>
      </trkpt>
      <trkpt lat="46.39387" lon="5.58795">
        <ele>620</ele>
        <time>2023-08-30T13:57:52Z</time>
      </trkpt>
      <trkpt lat="46.39385" lon="5.58799">
        <ele>620</ele>
        <time>2023-08-30T13:57:53Z</time>
      </trkpt>
      <trkpt lat="46.39382" lon="5.58802">
        <ele>620.6</ele>
        <time>2023-08-30T13:57:54Z</time>
      </trkpt>
      <trkpt lat="46.3938" lon="5.58805">
        <ele>620.8</ele>
        <time>2023-08-30T13:57:55Z</time>
      </trkpt>
      <trkpt lat="46.39378" lon="5.58808">
        <ele>620.8</ele>
        <time>2023-08-30T13:57:56Z</time>
      </trkpt>
      <trkpt lat="46.39375" lon="5.5881">
        <ele>620.8</ele>
        <time>2023-08-30T13:57:57Z</time>
      </trkpt>
      <trkpt lat="46.39373" lon="5.58813">
        <ele>620.8</ele>
        <time>2023-08-30T13:57:58Z</time>
      </trkpt>
      <trkpt lat="46.3937" lon="5.58815">
        <ele>621.4</ele>
        <time>2023-08-30T13:57:59Z</time>
      </trkpt>
      <trkpt lat="46.39367" lon="5.58818">
        <ele>621.4</ele>
        <time>2023-08-30T13:58:00Z</time>
      </trkpt>
      <trkpt lat="46.39365" lon="5.5882">
        <ele>621.4</ele>
        <time>2023-08-30T13:58:01Z</time>
      </trkpt>
      <trkpt lat="46.39362" lon="5.58822">
        <ele>621.4</ele>
        <time>2023-08-30T13:58:02Z</time>
      </trkpt>
      <trkpt lat="46.3936" lon="5.58824">
        <ele>622.4</ele>
        <time>2023-08-30T13:58:03Z</time>
      </trkpt>
      <trkpt lat="46.39357" lon="5.58826">
        <ele>622.4</ele>
        <time>2023-08-30T13:58:04Z</time>
      </trkpt>
      <trkpt lat="46.39355" lon="5.58829">
        <ele>622.4</ele>
        <time>2023-08-30T13:58:05Z</time>
      </trkpt>
      <trkpt lat="46.39352" lon="5.58831">
        <ele>622.4</ele>
        <time>2023-08-30T13:58:06Z</time>
      </trkpt>
      <trkpt lat="46.3935" lon="5.58833">
        <ele>622.4</ele>
        <time>2023-08-30T13:58:07Z</time>
      </trkpt>
      <trkpt lat="46.39347" lon="5.58835">
        <ele>623</ele>
        <time>2023-08-30T13:58:08Z</time>
      </trkpt>
      <trkpt lat="46.39345" lon="5.58837">
        <ele>623</ele>
        <time>2023-08-30T13:58:09Z</time>
      </trkpt>
      <trkpt lat="46.39343" lon="5.5884">
        <ele>623</ele>
        <time>2023-08-30T13:58:10Z</time>
      </trkpt>
      <trkpt lat="46.39341" lon="5.58842">
        <ele>623</ele>
        <time>2023-08-30T13:58:11Z</time>
      </trkpt>
      <trkpt lat="46.39338" lon="5.58844">
        <ele>623.4</ele>
        <time>2023-08-30T13:58:12Z</time>
      </trkpt>
      <trkpt lat="46.39336" lon="5.58846">
        <ele>623.6</ele>
        <time>2023-08-30T13:58:13Z</time>
      </trkpt>
      <trkpt lat="46.39333" lon="5.58848">
        <ele>623.6</ele>
        <time>2023-08-30T13:58:14Z</time>
      </trkpt>
      <trkpt lat="46.39331" lon="5.5885">
        <ele>623.6</ele>
        <time>2023-08-30T13:58:15Z</time>
      </trkpt>
      <trkpt lat="46.39328" lon="5.58852">
        <ele>623.6</ele>
        <time>2023-08-30T13:58:16Z</time>
      </trkpt>
      <trkpt lat="46.39326" lon="5.58854">
        <ele>624</ele>
        <time>2023-08-30T13:58:17Z</time>
      </trkpt>
      <trkpt lat="46.39323" lon="5.58856">
        <ele>624.2</ele>
        <time>2023-08-30T13:58:18Z</time>
      </trkpt>
      <trkpt lat="46.39321" lon="5.58858">
        <ele>624.2</ele>
        <time>2023-08-30T13:58:19Z</time>
      </trkpt>
      <trkpt lat="46.39318" lon="5.5886">
        <ele>624.2</ele>
        <time>2023-08-30T13:58:20Z</time>
      </trkpt>
      <trkpt lat="46.39316" lon="5.58863">
        <ele>624.2</ele>
        <time>2023-08-30T13:58:21Z</time>
      </trkpt>
      <trkpt lat="46.39314" lon="5.58865">
        <ele>624.2</ele>
        <time>2023-08-30T13:58:22Z</time>
      </trkpt>
      <trkpt lat="46.39311" lon="5.58867">
        <ele>624.2</ele>
        <time>2023-08-30T13:58:23Z</time>
      </trkpt>
      <trkpt lat="46.39309" lon="5.58869">
        <ele>625</ele>
        <time>2023-08-30T13:58:24Z</time>
      </trkpt>
      <trkpt lat="46.39306" lon="5.58871">
        <ele>625</ele>
        <time>2023-08-30T13:58:25Z</time>
      </trkpt>
      <trkpt lat="46.39304" lon="5.58873">
        <ele>625.6</ele>
        <time>2023-08-30T13:58:26Z</time>
      </trkpt>
      <trkpt lat="46.39301" lon="5.58875">
        <ele>625.4</ele>
        <time>2023-08-30T13:58:27Z</time>
      </trkpt>
      <trkpt lat="46.39299" lon="5.58878">
        <ele>625.4</ele>
        <time>2023-08-30T13:58:28Z</time>
      </trkpt>
      <trkpt lat="46.39296" lon="5.5888">
        <ele>625.4</ele>
        <time>2023-08-30T13:58:29Z</time>
      </trkpt>
      <trkpt lat="46.39293" lon="5.58882">
        <ele>626</ele>
        <time>2023-08-30T13:58:30Z</time>
      </trkpt>
      <trkpt lat="46.39291" lon="5.58884">
        <ele>626.6</ele>
        <time>2023-08-30T13:58:31Z</time>
      </trkpt>
      <trkpt lat="46.39289" lon="5.58886">
        <ele>626.6</ele>
        <time>2023-08-30T13:58:32Z</time>
      </trkpt>
      <trkpt lat="46.39286" lon="5.58888">
        <ele>626.6</ele>
        <time>2023-08-30T13:58:33Z</time>
      </trkpt>
      <trkpt lat="46.39285" lon="5.5889">
        <ele>626.6</ele>
        <time>2023-08-30T13:58:34Z</time>
      </trkpt>
      <trkpt lat="46.39283" lon="5.58892">
        <ele>627.4</ele>
        <time>2023-08-30T13:58:35Z</time>
      </trkpt>
      <trkpt lat="46.39281" lon="5.58895">
        <ele>627.4</ele>
        <time>2023-08-30T13:58:36Z</time>
      </trkpt>
      <trkpt lat="46.3928" lon="5.58897">
        <ele>627.6</ele>
        <time>2023-08-30T13:58:37Z</time>
      </trkpt>
      <trkpt lat="46.39278" lon="5.589">
        <ele>627.6</ele>
        <time>2023-08-30T13:58:38Z</time>
      </trkpt>
      <trkpt lat="46.39277" lon="5.58902">
        <ele>628</ele>
        <time>2023-08-30T13:58:39Z</time>
      </trkpt>
      <trkpt lat="46.39275" lon="5.58904">
        <ele>628.2</ele>
        <time>2023-08-30T13:58:40Z</time>
      </trkpt>
      <trkpt lat="46.39274" lon="5.58907">
        <ele>628.2</ele>
        <time>2023-08-30T13:58:41Z</time>
      </trkpt>
      <trkpt lat="46.39273" lon="5.5891">
        <ele>628.2</ele>
        <time>2023-08-30T13:58:42Z</time>
      </trkpt>
      <trkpt lat="46.39272" lon="5.58913">
        <ele>628.2</ele>
        <time>2023-08-30T13:58:43Z</time>
      </trkpt>
      <trkpt lat="46.39271" lon="5.58915">
        <ele>629</ele>
        <time>2023-08-30T13:58:44Z</time>
      </trkpt>
      <trkpt lat="46.3927" lon="5.58918">
        <ele>629</ele>
        <time>2023-08-30T13:58:45Z</time>
      </trkpt>
      <trkpt lat="46.39269" lon="5.58921">
        <ele>629</ele>
        <time>2023-08-30T13:58:46Z</time>
      </trkpt>
      <trkpt lat="46.39268" lon="5.58924">
        <ele>629</ele>
        <time>2023-08-30T13:58:47Z</time>
      </trkpt>
      <trkpt lat="46.39267" lon="5.58927">
        <ele>629.8</ele>
        <time>2023-08-30T13:58:48Z</time>
      </trkpt>
      <trkpt lat="46.39266" lon="5.5893">
        <ele>629.8</ele>
        <time>2023-08-30T13:58:49Z</time>
      </trkpt>
      <trkpt lat="46.39266" lon="5.58932">
        <ele>630.2</ele>
        <time>2023-08-30T13:58:50Z</time>
      </trkpt>
      <trkpt lat="46.39266" lon="5.58935">
        <ele>630.2</ele>
        <time>2023-08-30T13:58:51Z</time>
      </trkpt>
      <trkpt lat="46.39265" lon="5.58938">
        <ele>630.2</ele>
        <time>2023-08-30T13:58:52Z</time>
      </trkpt>
      <trkpt lat="46.39265" lon="5.58941">
        <ele>630.4</ele>
        <time>2023-08-30T13:58:53Z</time>
      </trkpt>
      <trkpt lat="46.39265" lon="5.58945">
        <ele>630.6</ele>
        <time>2023-08-30T13:58:54Z</time>
      </trkpt>
      <trkpt lat="46.39265" lon="5.58948">
        <ele>630.6</ele>
        <time>2023-08-30T13:58:55Z</time>
      </trkpt>
      <trkpt lat="46.39265" lon="5.58951">
        <ele>630.6</ele>
        <time>2023-08-30T13:58:56Z</time>
      </trkpt>
      <trkpt lat="46.39265" lon="5.58954">
        <ele>631</ele>
        <time>2023-08-30T13:58:57Z</time>
      </trkpt>
      <trkpt lat="46.39264" lon="5.58958">
        <ele>631.2</ele>
        <time>2023-08-30T13:58:58Z</time>
      </trkpt>
      <trkpt lat="46.39264" lon="5.58961">
        <ele>631.2</ele>
        <time>2023-08-30T13:58:59Z</time>
      </trkpt>
      <trkpt lat="46.39263" lon="5.58964">
        <ele>631.2</ele>
        <time>2023-08-30T13:59:00Z</time>
      </trkpt>
      <trkpt lat="46.39263" lon="5.58967">
        <ele>631.2</ele>
        <time>2023-08-30T13:59:01Z</time>
      </trkpt>
      <trkpt lat="46.39262" lon="5.5897">
        <ele>631.2</ele>
        <time>2023-08-30T13:59:02Z</time>
      </trkpt>
      <trkpt lat="46.39262" lon="5.58974">
        <ele>631.8</ele>
        <time>2023-08-30T13:59:03Z</time>
      </trkpt>
      <trkpt lat="46.39261" lon="5.58977">
        <ele>632.2</ele>
        <time>2023-08-30T13:59:04Z</time>
      </trkpt>
      <trkpt lat="46.39261" lon="5.5898">
        <ele>632.2</ele>
        <time>2023-08-30T13:59:05Z</time>
      </trkpt>
      <trkpt lat="46.3926" lon="5.58983">
        <ele>632.2</ele>
        <time>2023-08-30T13:59:06Z</time>
      </trkpt>
      <trkpt lat="46.3926" lon="5.58987">
        <ele>632.2</ele>
        <time>2023-08-30T13:59:07Z</time>
      </trkpt>
      <trkpt lat="46.3926" lon="5.5899">
        <ele>632.8</ele>
        <time>2023-08-30T13:59:08Z</time>
      </trkpt>
      <trkpt lat="46.39259" lon="5.58993">
        <ele>632.8</ele>
        <time>2023-08-30T13:59:09Z</time>
      </trkpt>
      <trkpt lat="46.39258" lon="5.58996">
        <ele>632.8</ele>
        <time>2023-08-30T13:59:10Z</time>
      </trkpt>
      <trkpt lat="46.39257" lon="5.59">
        <ele>633.6</ele>
        <time>2023-08-30T13:59:11Z</time>
      </trkpt>
      <trkpt lat="46.39257" lon="5.59003">
        <ele>633.8</ele>
        <time>2023-08-30T13:59:12Z</time>
      </trkpt>
      <trkpt lat="46.39256" lon="5.59005">
        <ele>633.8</ele>
        <time>2023-08-30T13:59:13Z</time>
      </trkpt>
      <trkpt lat="46.39255" lon="5.59008">
        <ele>633.8</ele>
        <time>2023-08-30T13:59:14Z</time>
      </trkpt>
      <trkpt lat="46.39254" lon="5.59011">
        <ele>633.8</ele>
        <time>2023-08-30T13:59:15Z</time>
      </trkpt>
      <trkpt lat="46.39252" lon="5.59014">
        <ele>634.4</ele>
        <time>2023-08-30T13:59:16Z</time>
      </trkpt>
      <trkpt lat="46.39251" lon="5.59018">
        <ele>634.8</ele>
        <time>2023-08-30T13:59:17Z</time>
      </trkpt>
      <trkpt lat="46.39249" lon="5.5902">
        <ele>634.8</ele>
        <time>2023-08-30T13:59:18Z</time>
      </trkpt>
      <trkpt lat="46.39247" lon="5.59023">
        <ele>634.8</ele>
        <time>2023-08-30T13:59:19Z</time>
      </trkpt>
      <trkpt lat="46.39245" lon="5.59025">
        <ele>634.8</ele>
        <time>2023-08-30T13:59:20Z</time>
      </trkpt>
      <trkpt lat="46.39243" lon="5.59027">
        <ele>635.6</ele>
        <time>2023-08-30T13:59:21Z</time>
      </trkpt>
      <trkpt lat="46.39241" lon="5.59029">
        <ele>635.6</ele>
        <time>2023-08-30T13:59:22Z</time>
      </trkpt>
      <trkpt lat="46.39239" lon="5.5903">
        <ele>635.6</ele>
        <time>2023-08-30T13:59:23Z</time>
      </trkpt>
      <trkpt lat="46.39236" lon="5.59032">
        <ele>636</ele>
        <time>2023-08-30T13:59:24Z</time>
      </trkpt>
      <trkpt lat="46.39234" lon="5.59033">
        <ele>636.2</ele>
        <time>2023-08-30T13:59:25Z</time>
      </trkpt>
      <trkpt lat="46.39231" lon="5.59034">
        <ele>636.2</ele>
        <time>2023-08-30T13:59:26Z</time>
      </trkpt>
      <trkpt lat="46.39229" lon="5.59035">
        <ele>636.2</ele>
        <time>2023-08-30T13:59:27Z</time>
      </trkpt>
      <trkpt lat="46.39227" lon="5.59036">
        <ele>636.2</ele>
        <time>2023-08-30T13:59:28Z</time>
      </trkpt>
      <trkpt lat="46.39225" lon="5.59038">
        <ele>636.6</ele>
        <time>2023-08-30T13:59:29Z</time>
      </trkpt>
      <trkpt lat="46.39223" lon="5.5904">
        <ele>637</ele>
        <time>2023-08-30T13:59:30Z</time>
      </trkpt>
      <trkpt lat="46.39222" lon="5.59041">
        <ele>637</ele>
        <time>2023-08-30T13:59:31Z</time>
      </trkpt>
      <trkpt lat="46.3922" lon="5.59043">
        <ele>637</ele>
        <time>2023-08-30T13:59:32Z</time>
      </trkpt>
      <trkpt lat="46.39219" lon="5.59044">
        <ele>637</ele>
        <time>2023-08-30T13:59:33Z</time>
      </trkpt>
      <trkpt lat="46.39217" lon="5.59046">
        <ele>637.4</ele>
        <time>2023-08-30T13:59:34Z</time>
      </trkpt>
      <trkpt lat="46.39216" lon="5.59048">
        <ele>637.4</ele>
        <time>2023-08-30T13:59:35Z</time>
      </trkpt>
      <trkpt lat="46.39214" lon="5.5905">
        <ele>637.4</ele>
        <time>2023-08-30T13:59:36Z</time>
      </trkpt>
      <trkpt lat="46.39213" lon="5.59052">
        <ele>637.8</ele>
        <time>2023-08-30T13:59:37Z</time>
      </trkpt>
      <trkpt lat="46.39212" lon="5.59054">
        <ele>637.8</ele>
        <time>2023-08-30T13:59:38Z</time>
      </trkpt>
      <trkpt lat="46.3921" lon="5.59056">
        <ele>637.8</ele>
        <time>2023-08-30T13:59:39Z</time>
      </trkpt>
      <trkpt lat="46.39209" lon="5.59058">
        <ele>637.8</ele>
        <time>2023-08-30T13:59:40Z</time>
      </trkpt>
      <trkpt lat="46.39207" lon="5.59061">
        <ele>637.8</ele>
        <time>2023-08-30T13:59:41Z</time>
      </trkpt>
      <trkpt lat="46.39206" lon="5.59063">
        <ele>637.8</ele>
        <time>2023-08-30T13:59:42Z</time>
      </trkpt>
      <trkpt lat="46.39204" lon="5.59065">
        <ele>637.8</ele>
        <time>2023-08-30T13:59:43Z</time>
      </trkpt>
      <trkpt lat="46.39202" lon="5.59067">
        <ele>638.2</ele>
        <time>2023-08-30T13:59:44Z</time>
      </trkpt>
      <trkpt lat="46.39201" lon="5.5907">
        <ele>638.2</ele>
        <time>2023-08-30T13:59:45Z</time>
      </trkpt>
      <trkpt lat="46.39199" lon="5.59072">
        <ele>638.2</ele>
        <time>2023-08-30T13:59:46Z</time>
      </trkpt>
      <trkpt lat="46.39197" lon="5.59074">
        <ele>638.2</ele>
        <time>2023-08-30T13:59:47Z</time>
      </trkpt>
      <trkpt lat="46.39195" lon="5.59075">
        <ele>638.2</ele>
        <time>2023-08-30T13:59:48Z</time>
      </trkpt>
      <trkpt lat="46.39193" lon="5.59077">
        <ele>638.2</ele>
        <time>2023-08-30T13:59:49Z</time>
      </trkpt>
      <trkpt lat="46.3919" lon="5.59078">
        <ele>638.2</ele>
        <time>2023-08-30T13:59:50Z</time>
      </trkpt>
      <trkpt lat="46.39188" lon="5.5908">
        <ele>638.2</ele>
        <time>2023-08-30T13:59:51Z</time>
      </trkpt>
      <trkpt lat="46.39186" lon="5.59081">
        <ele>638.6</ele>
        <time>2023-08-30T13:59:52Z</time>
      </trkpt>
      <trkpt lat="46.39184" lon="5.59082">
        <ele>638.6</ele>
        <time>2023-08-30T13:59:53Z</time>
      </trkpt>
      <trkpt lat="46.39182" lon="5.59083">
        <ele>638.6</ele>
        <time>2023-08-30T13:59:54Z</time>
      </trkpt>
      <trkpt lat="46.39179" lon="5.59083">
        <ele>638.6</ele>
        <time>2023-08-30T13:59:55Z</time>
      </trkpt>
      <trkpt lat="46.39176" lon="5.59084">
        <ele>638.6</ele>
        <time>2023-08-30T13:59:56Z</time>
      </trkpt>
      <trkpt lat="46.39174" lon="5.59084">
        <ele>638.8</ele>
        <time>2023-08-30T13:59:57Z</time>
      </trkpt>
      <trkpt lat="46.39171" lon="5.59084">
        <ele>638.8</ele>
        <time>2023-08-30T13:59:58Z</time>
      </trkpt>
      <trkpt lat="46.39169" lon="5.59084">
        <ele>638.8</ele>
        <time>2023-08-30T13:59:59Z</time>
      </trkpt>
      <trkpt lat="46.39167" lon="5.59084">
        <ele>639</ele>
        <time>2023-08-30T14:00:00Z</time>
      </trkpt>
      <trkpt lat="46.39165" lon="5.59084">
        <ele>639.2</ele>
        <time>2023-08-30T14:00:01Z</time>
      </trkpt>
      <trkpt lat="46.39162" lon="5.59084">
        <ele>639.2</ele>
        <time>2023-08-30T14:00:02Z</time>
      </trkpt>
      <trkpt lat="46.39159" lon="5.59083">
        <ele>639.2</ele>
        <time>2023-08-30T14:00:03Z</time>
      </trkpt>
      <trkpt lat="46.39157" lon="5.59083">
        <ele>639.2</ele>
        <time>2023-08-30T14:00:04Z</time>
      </trkpt>
      <trkpt lat="46.39155" lon="5.59083">
        <ele>639.6</ele>
        <time>2023-08-30T14:00:05Z</time>
      </trkpt>
      <trkpt lat="46.39153" lon="5.59082">
        <ele>639.8</ele>
        <time>2023-08-30T14:00:06Z</time>
      </trkpt>
      <trkpt lat="46.39151" lon="5.59083">
        <ele>639.8</ele>
        <time>2023-08-30T14:00:07Z</time>
      </trkpt>
      <trkpt lat="46.39149" lon="5.59083">
        <ele>639.8</ele>
        <time>2023-08-30T14:00:08Z</time>
      </trkpt>
      <trkpt lat="46.39147" lon="5.59083">
        <ele>640.2</ele>
        <time>2023-08-30T14:00:09Z</time>
      </trkpt>
      <trkpt lat="46.39145" lon="5.59083">
        <ele>640.4</ele>
        <time>2023-08-30T14:00:10Z</time>
      </trkpt>
      <trkpt lat="46.39143" lon="5.59083">
        <ele>640.4</ele>
        <time>2023-08-30T14:00:11Z</time>
      </trkpt>
      <trkpt lat="46.39141" lon="5.59083">
        <ele>640.4</ele>
        <time>2023-08-30T14:00:12Z</time>
      </trkpt>
      <trkpt lat="46.39138" lon="5.59083">
        <ele>641</ele>
        <time>2023-08-30T14:00:13Z</time>
      </trkpt>
      <trkpt lat="46.39136" lon="5.59084">
        <ele>640.8</ele>
        <time>2023-08-30T14:00:14Z</time>
      </trkpt>
      <trkpt lat="46.39134" lon="5.59084">
        <ele>640.8</ele>
        <time>2023-08-30T14:00:15Z</time>
      </trkpt>
      <trkpt lat="46.39132" lon="5.59084">
        <ele>640.8</ele>
        <time>2023-08-30T14:00:16Z</time>
      </trkpt>
      <trkpt lat="46.3913" lon="5.59085">
        <ele>641.4</ele>
        <time>2023-08-30T14:00:17Z</time>
      </trkpt>
      <trkpt lat="46.39128" lon="5.59085">
        <ele>641.4</ele>
        <time>2023-08-30T14:00:18Z</time>
      </trkpt>
      <trkpt lat="46.39126" lon="5.59086">
        <ele>641.6</ele>
        <time>2023-08-30T14:00:19Z</time>
      </trkpt>
      <trkpt lat="46.39124" lon="5.59086">
        <ele>641.6</ele>
        <time>2023-08-30T14:00:20Z</time>
      </trkpt>
      <trkpt lat="46.39121" lon="5.59087">
        <ele>641.6</ele>
        <time>2023-08-30T14:00:21Z</time>
      </trkpt>
      <trkpt lat="46.39119" lon="5.59088">
        <ele>641.6</ele>
        <time>2023-08-30T14:00:22Z</time>
      </trkpt>
      <trkpt lat="46.39117" lon="5.5909">
        <ele>642.4</ele>
        <time>2023-08-30T14:00:23Z</time>
      </trkpt>
      <trkpt lat="46.39115" lon="5.59091">
        <ele>642.4</ele>
        <time>2023-08-30T14:00:24Z</time>
      </trkpt>
      <trkpt lat="46.39114" lon="5.59092">
        <ele>642.4</ele>
        <time>2023-08-30T14:00:25Z</time>
      </trkpt>
      <trkpt lat="46.39111" lon="5.59094">
        <ele>642.4</ele>
        <time>2023-08-30T14:00:26Z</time>
      </trkpt>
      <trkpt lat="46.39109" lon="5.59095">
        <ele>643</ele>
        <time>2023-08-30T14:00:27Z</time>
      </trkpt>
      <trkpt lat="46.39107" lon="5.59096">
        <ele>643</ele>
        <time>2023-08-30T14:00:28Z</time>
      </trkpt>
      <trkpt lat="46.39105" lon="5.59097">
        <ele>643</ele>
        <time>2023-08-30T14:00:29Z</time>
      </trkpt>
      <trkpt lat="46.39103" lon="5.59099">
        <ele>643</ele>
        <time>2023-08-30T14:00:30Z</time>
      </trkpt>
      <trkpt lat="46.39101" lon="5.59101">
        <ele>643.8</ele>
        <time>2023-08-30T14:00:31Z</time>
      </trkpt>
      <trkpt lat="46.39098" lon="5.59103">
        <ele>643.8</ele>
        <time>2023-08-30T14:00:32Z</time>
      </trkpt>
      <trkpt lat="46.39096" lon="5.59104">
        <ele>644</ele>
        <time>2023-08-30T14:00:33Z</time>
      </trkpt>
      <trkpt lat="46.39094" lon="5.59107">
        <ele>644</ele>
        <time>2023-08-30T14:00:34Z</time>
      </trkpt>
      <trkpt lat="46.39092" lon="5.59109">
        <ele>644</ele>
        <time>2023-08-30T14:00:35Z</time>
      </trkpt>
      <trkpt lat="46.39091" lon="5.59111">
        <ele>644.6</ele>
        <time>2023-08-30T14:00:36Z</time>
      </trkpt>
      <trkpt lat="46.39089" lon="5.59113">
        <ele>644.8</ele>
        <time>2023-08-30T14:00:37Z</time>
      </trkpt>
      <trkpt lat="46.39088" lon="5.59115">
        <ele>644.8</ele>
        <time>2023-08-30T14:00:38Z</time>
      </trkpt>
      <trkpt lat="46.39086" lon="5.59117">
        <ele>644.8</ele>
        <time>2023-08-30T14:00:39Z</time>
      </trkpt>
      <trkpt lat="46.39085" lon="5.59119">
        <ele>645.4</ele>
        <time>2023-08-30T14:00:40Z</time>
      </trkpt>
      <trkpt lat="46.39083" lon="5.59121">
        <ele>645.4</ele>
        <time>2023-08-30T14:00:41Z</time>
      </trkpt>
      <trkpt lat="46.39082" lon="5.59123">
        <ele>645.6</ele>
        <time>2023-08-30T14:00:42Z</time>
      </trkpt>
      <trkpt lat="46.39081" lon="5.59124">
        <ele>645.6</ele>
        <time>2023-08-30T14:00:43Z</time>
      </trkpt>
      <trkpt lat="46.3908" lon="5.59127">
        <ele>645.6</ele>
        <time>2023-08-30T14:00:44Z</time>
      </trkpt>
      <trkpt lat="46.39079" lon="5.59128">
        <ele>646.2</ele>
        <time>2023-08-30T14:00:45Z</time>
      </trkpt>
      <trkpt lat="46.39078" lon="5.5913">
        <ele>646.6</ele>
        <time>2023-08-30T14:00:46Z</time>
      </trkpt>
      <trkpt lat="46.39077" lon="5.59133">
        <ele>646.6</ele>
        <time>2023-08-30T14:00:47Z</time>
      </trkpt>
      <trkpt lat="46.39076" lon="5.59135">
        <ele>646.6</ele>
        <time>2023-08-30T14:00:48Z</time>
      </trkpt>
      <trkpt lat="46.39075" lon="5.59138">
        <ele>647.2</ele>
        <time>2023-08-30T14:00:49Z</time>
      </trkpt>
      <trkpt lat="46.39075" lon="5.5914">
        <ele>647.2</ele>
        <time>2023-08-30T14:00:50Z</time>
      </trkpt>
      <trkpt lat="46.39074" lon="5.59143">
        <ele>647.4</ele>
        <time>2023-08-30T14:00:51Z</time>
      </trkpt>
      <trkpt lat="46.39074" lon="5.59146">
        <ele>647.4</ele>
        <time>2023-08-30T14:00:52Z</time>
      </trkpt>
      <trkpt lat="46.39074" lon="5.59149">
        <ele>648</ele>
        <time>2023-08-30T14:00:53Z</time>
      </trkpt>
      <trkpt lat="46.39074" lon="5.59151">
        <ele>648</ele>
        <time>2023-08-30T14:00:54Z</time>
      </trkpt>
      <trkpt lat="46.39075" lon="5.59155">
        <ele>648.4</ele>
        <time>2023-08-30T14:00:55Z</time>
      </trkpt>
      <trkpt lat="46.39075" lon="5.59158">
        <ele>648.4</ele>
        <time>2023-08-30T14:00:56Z</time>
      </trkpt>
      <trkpt lat="46.39076" lon="5.59162">
        <ele>648.4</ele>
        <time>2023-08-30T14:00:57Z</time>
      </trkpt>
      <trkpt lat="46.39077" lon="5.59165">
        <ele>649.2</ele>
        <time>2023-08-30T14:00:58Z</time>
      </trkpt>
      <trkpt lat="46.39078" lon="5.59168">
        <ele>649.4</ele>
        <time>2023-08-30T14:00:59Z</time>
      </trkpt>
      <trkpt lat="46.3908" lon="5.59171">
        <ele>649.4</ele>
        <time>2023-08-30T14:01:00Z</time>
      </trkpt>
      <trkpt lat="46.39082" lon="5.59173">
        <ele>649.4</ele>
        <time>2023-08-30T14:01:01Z</time>
      </trkpt>
      <trkpt lat="46.39085" lon="5.59175">
        <ele>649.8</ele>
        <time>2023-08-30T14:01:02Z</time>
      </trkpt>
      <trkpt lat="46.39087" lon="5.59177">
        <ele>650.2</ele>
        <time>2023-08-30T14:01:03Z</time>
      </trkpt>
      <trkpt lat="46.39089" lon="5.59179">
        <ele>650.2</ele>
        <time>2023-08-30T14:01:04Z</time>
      </trkpt>
      <trkpt lat="46.39093" lon="5.59181">
        <ele>650.2</ele>
        <time>2023-08-30T14:01:05Z</time>
      </trkpt>
      <trkpt lat="46.39095" lon="5.59183">
        <ele>650.2</ele>
        <time>2023-08-30T14:01:06Z</time>
      </trkpt>
      <trkpt lat="46.39098" lon="5.59184">
        <ele>650.2</ele>
        <time>2023-08-30T14:01:07Z</time>
      </trkpt>
      <trkpt lat="46.391" lon="5.59186">
        <ele>650.8</ele>
        <time>2023-08-30T14:01:08Z</time>
      </trkpt>
      <trkpt lat="46.39103" lon="5.59187">
        <ele>651.2</ele>
        <time>2023-08-30T14:01:09Z</time>
      </trkpt>
      <trkpt lat="46.39105" lon="5.59189">
        <ele>651.2</ele>
        <time>2023-08-30T14:01:10Z</time>
      </trkpt>
      <trkpt lat="46.39108" lon="5.59191">
        <ele>651.2</ele>
        <time>2023-08-30T14:01:11Z</time>
      </trkpt>
      <trkpt lat="46.3911" lon="5.59191">
        <ele>652</ele>
        <time>2023-08-30T14:01:12Z</time>
      </trkpt>
      <trkpt lat="46.39113" lon="5.59192">
        <ele>652</ele>
        <time>2023-08-30T14:01:13Z</time>
      </trkpt>
      <trkpt lat="46.39115" lon="5.59193">
        <ele>652</ele>
        <time>2023-08-30T14:01:14Z</time>
      </trkpt>
      <trkpt lat="46.39118" lon="5.59194">
        <ele>652</ele>
        <time>2023-08-30T14:01:15Z</time>
      </trkpt>
      <trkpt lat="46.3912" lon="5.59195">
        <ele>652.6</ele>
        <time>2023-08-30T14:01:16Z</time>
      </trkpt>
      <trkpt lat="46.39123" lon="5.59196">
        <ele>652.6</ele>
        <time>2023-08-30T14:01:17Z</time>
      </trkpt>
      <trkpt lat="46.39125" lon="5.59197">
        <ele>652.8</ele>
        <time>2023-08-30T14:01:18Z</time>
      </trkpt>
      <trkpt lat="46.39128" lon="5.59197">
        <ele>652.8</ele>
        <time>2023-08-30T14:01:19Z</time>
      </trkpt>
      <trkpt lat="46.3913" lon="5.59198">
        <ele>652.8</ele>
        <time>2023-08-30T14:01:20Z</time>
      </trkpt>
      <trkpt lat="46.39133" lon="5.59199">
        <ele>653.4</ele>
        <time>2023-08-30T14:01:21Z</time>
      </trkpt>
      <trkpt lat="46.39135" lon="5.59199">
        <ele>653.4</ele>
        <time>2023-08-30T14:01:22Z</time>
      </trkpt>
      <trkpt lat="46.39137" lon="5.592">
        <ele>653.4</ele>
        <time>2023-08-30T14:01:23Z</time>
      </trkpt>
      <trkpt lat="46.3914" lon="5.59201">
        <ele>653.4</ele>
        <time>2023-08-30T14:01:24Z</time>
      </trkpt>
      <trkpt lat="46.39142" lon="5.59202">
        <ele>654.2</ele>
        <time>2023-08-30T14:01:25Z</time>
      </trkpt>
      <trkpt lat="46.39144" lon="5.59204">
        <ele>654.4</ele>
        <time>2023-08-30T14:01:26Z</time>
      </trkpt>
      <trkpt lat="46.39146" lon="5.59205">
        <ele>654.4</ele>
        <time>2023-08-30T14:01:27Z</time>
      </trkpt>
      <trkpt lat="46.39148" lon="5.59206">
        <ele>654.4</ele>
        <time>2023-08-30T14:01:28Z</time>
      </trkpt>
      <trkpt lat="46.39151" lon="5.59207">
        <ele>654.4</ele>
        <time>2023-08-30T14:01:29Z</time>
      </trkpt>
      <trkpt lat="46.39153" lon="5.59209">
        <ele>654.8</ele>
        <time>2023-08-30T14:01:30Z</time>
      </trkpt>
      <trkpt lat="46.39156" lon="5.5921">
        <ele>655</ele>
        <time>2023-08-30T14:01:31Z</time>
      </trkpt>
      <trkpt lat="46.39158" lon="5.59212">
        <ele>655</ele>
        <time>2023-08-30T14:01:32Z</time>
      </trkpt>
      <trkpt lat="46.3916" lon="5.59213">
        <ele>655</ele>
        <time>2023-08-30T14:01:33Z</time>
      </trkpt>
      <trkpt lat="46.39163" lon="5.59215">
        <ele>655.8</ele>
        <time>2023-08-30T14:01:34Z</time>
      </trkpt>
      <trkpt lat="46.39166" lon="5.59216">
        <ele>655.6</ele>
        <time>2023-08-30T14:01:35Z</time>
      </trkpt>
      <trkpt lat="46.39168" lon="5.59218">
        <ele>655.6</ele>
        <time>2023-08-30T14:01:36Z</time>
      </trkpt>
      <trkpt lat="46.3917" lon="5.59221">
        <ele>655.6</ele>
        <time>2023-08-30T14:01:37Z</time>
      </trkpt>
      <trkpt lat="46.39173" lon="5.59224">
        <ele>656</ele>
        <time>2023-08-30T14:01:38Z</time>
      </trkpt>
      <trkpt lat="46.39175" lon="5.59226">
        <ele>656</ele>
        <time>2023-08-30T14:01:39Z</time>
      </trkpt>
      <trkpt lat="46.39178" lon="5.59229">
        <ele>656.4</ele>
        <time>2023-08-30T14:01:40Z</time>
      </trkpt>
      <trkpt lat="46.39181" lon="5.59231">
        <ele>656.4</ele>
        <time>2023-08-30T14:01:41Z</time>
      </trkpt>
      <trkpt lat="46.39184" lon="5.59234">
        <ele>656.4</ele>
        <time>2023-08-30T14:01:42Z</time>
      </trkpt>
      <trkpt lat="46.39187" lon="5.59236">
        <ele>656.8</ele>
        <time>2023-08-30T14:01:43Z</time>
      </trkpt>
      <trkpt lat="46.3919" lon="5.59238">
        <ele>656.8</ele>
        <time>2023-08-30T14:01:44Z</time>
      </trkpt>
      <trkpt lat="46.39193" lon="5.5924">
        <ele>656.8</ele>
        <time>2023-08-30T14:01:45Z</time>
      </trkpt>
      <trkpt lat="46.39197" lon="5.59242">
        <ele>656.8</ele>
        <time>2023-08-30T14:01:46Z</time>
      </trkpt>
      <trkpt lat="46.392" lon="5.59244">
        <ele>657.6</ele>
        <time>2023-08-30T14:01:47Z</time>
      </trkpt>
      <trkpt lat="46.39202" lon="5.59247">
        <ele>657.6</ele>
        <time>2023-08-30T14:01:48Z</time>
      </trkpt>
      <trkpt lat="46.39205" lon="5.5925">
        <ele>657.6</ele>
        <time>2023-08-30T14:01:49Z</time>
      </trkpt>
      <trkpt lat="46.39207" lon="5.59252">
        <ele>657.6</ele>
        <time>2023-08-30T14:01:50Z</time>
      </trkpt>
      <trkpt lat="46.3921" lon="5.59255">
        <ele>657.6</ele>
        <time>2023-08-30T14:01:51Z</time>
      </trkpt>
      <trkpt lat="46.39212" lon="5.59257">
        <ele>657.6</ele>
        <time>2023-08-30T14:01:52Z</time>
      </trkpt>
      <trkpt lat="46.39215" lon="5.5926">
        <ele>658</ele>
        <time>2023-08-30T14:01:53Z</time>
      </trkpt>
      <trkpt lat="46.39218" lon="5.59262">
        <ele>658</ele>
        <time>2023-08-30T14:01:54Z</time>
      </trkpt>
      <trkpt lat="46.3922" lon="5.59265">
        <ele>658</ele>
        <time>2023-08-30T14:01:55Z</time>
      </trkpt>
      <trkpt lat="46.39223" lon="5.59267">
        <ele>658</ele>
        <time>2023-08-30T14:01:56Z</time>
      </trkpt>
      <trkpt lat="46.39226" lon="5.5927">
        <ele>658.6</ele>
        <time>2023-08-30T14:01:57Z</time>
      </trkpt>
      <trkpt lat="46.39228" lon="5.59273">
        <ele>658.6</ele>
        <time>2023-08-30T14:01:58Z</time>
      </trkpt>
      <trkpt lat="46.3923" lon="5.59276">
        <ele>658.6</ele>
        <time>2023-08-30T14:01:59Z</time>
      </trkpt>
      <trkpt lat="46.39233" lon="5.59279">
        <ele>658.6</ele>
        <time>2023-08-30T14:02:00Z</time>
      </trkpt>
      <trkpt lat="46.39235" lon="5.59282">
        <ele>659.2</ele>
        <time>2023-08-30T14:02:01Z</time>
      </trkpt>
      <trkpt lat="46.39237" lon="5.59285">
        <ele>659.2</ele>
        <time>2023-08-30T14:02:02Z</time>
      </trkpt>
      <trkpt lat="46.39239" lon="5.59287">
        <ele>659</ele>
        <time>2023-08-30T14:02:03Z</time>
      </trkpt>
      <trkpt lat="46.39242" lon="5.59288">
        <ele>659</ele>
        <time>2023-08-30T14:02:04Z</time>
      </trkpt>
      <trkpt lat="46.39245" lon="5.5929">
        <ele>659</ele>
        <time>2023-08-30T14:02:05Z</time>
      </trkpt>
      <trkpt lat="46.39249" lon="5.59291">
        <ele>659.4</ele>
        <time>2023-08-30T14:02:06Z</time>
      </trkpt>
      <trkpt lat="46.39252" lon="5.59293">
        <ele>659.8</ele>
        <time>2023-08-30T14:02:07Z</time>
      </trkpt>
      <trkpt lat="46.39255" lon="5.59295">
        <ele>659.8</ele>
        <time>2023-08-30T14:02:08Z</time>
      </trkpt>
      <trkpt lat="46.39258" lon="5.59297">
        <ele>659.8</ele>
        <time>2023-08-30T14:02:09Z</time>
      </trkpt>
      <trkpt lat="46.39261" lon="5.59299">
        <ele>659.8</ele>
        <time>2023-08-30T14:02:10Z</time>
      </trkpt>
      <trkpt lat="46.39264" lon="5.59301">
        <ele>659.8</ele>
        <time>2023-08-30T14:02:11Z</time>
      </trkpt>
      <trkpt lat="46.39266" lon="5.59303">
        <ele>660.2</ele>
        <time>2023-08-30T14:02:12Z</time>
      </trkpt>
      <trkpt lat="46.39269" lon="5.59305">
        <ele>660.2</ele>
        <time>2023-08-30T14:02:13Z</time>
      </trkpt>
      <trkpt lat="46.39271" lon="5.59307">
        <ele>660.2</ele>
        <time>2023-08-30T14:02:14Z</time>
      </trkpt>
      <trkpt lat="46.39274" lon="5.59309">
        <ele>660.4</ele>
        <time>2023-08-30T14:02:15Z</time>
      </trkpt>
      <trkpt lat="46.39276" lon="5.59311">
        <ele>660.4</ele>
        <time>2023-08-30T14:02:16Z</time>
      </trkpt>
      <trkpt lat="46.39279" lon="5.59313">
        <ele>660.4</ele>
        <time>2023-08-30T14:02:17Z</time>
      </trkpt>
      <trkpt lat="46.39282" lon="5.59314">
        <ele>660.4</ele>
        <time>2023-08-30T14:02:18Z</time>
      </trkpt>
      <trkpt lat="46.39285" lon="5.59317">
        <ele>660.4</ele>
        <time>2023-08-30T14:02:19Z</time>
      </trkpt>
      <trkpt lat="46.39288" lon="5.59319">
        <ele>660.8</ele>
        <time>2023-08-30T14:02:20Z</time>
      </trkpt>
      <trkpt lat="46.3929" lon="5.5932">
        <ele>661.2</ele>
        <time>2023-08-30T14:02:21Z</time>
      </trkpt>
      <trkpt lat="46.39293" lon="5.59322">
        <ele>661.2</ele>
        <time>2023-08-30T14:02:22Z</time>
      </trkpt>
      <trkpt lat="46.39296" lon="5.59324">
        <ele>661.2</ele>
        <time>2023-08-30T14:02:23Z</time>
      </trkpt>
      <trkpt lat="46.39299" lon="5.59326">
        <ele>661.2</ele>
        <time>2023-08-30T14:02:24Z</time>
      </trkpt>
      <trkpt lat="46.39302" lon="5.59328">
        <ele>661.8</ele>
        <time>2023-08-30T14:02:25Z</time>
      </trkpt>
      <trkpt lat="46.39304" lon="5.59331">
        <ele>661.8</ele>
        <time>2023-08-30T14:02:26Z</time>
      </trkpt>
      <trkpt lat="46.39307" lon="5.59333">
        <ele>661.8</ele>
        <time>2023-08-30T14:02:27Z</time>
      </trkpt>
      <trkpt lat="46.3931" lon="5.59335">
        <ele>661.8</ele>
        <time>2023-08-30T14:02:28Z</time>
      </trkpt>
      <trkpt lat="46.39314" lon="5.59336">
        <ele>662</ele>
        <time>2023-08-30T14:02:29Z</time>
      </trkpt>
      <trkpt lat="46.39317" lon="5.59338">
        <ele>662</ele>
        <time>2023-08-30T14:02:30Z</time>
      </trkpt>
      <trkpt lat="46.3932" lon="5.59341">
        <ele>662</ele>
        <time>2023-08-30T14:02:31Z</time>
      </trkpt>
      <trkpt lat="46.39322" lon="5.59343">
        <ele>662</ele>
        <time>2023-08-30T14:02:32Z</time>
      </trkpt>
      <trkpt lat="46.39325" lon="5.59346">
        <ele>662</ele>
        <time>2023-08-30T14:02:33Z</time>
      </trkpt>
      <trkpt lat="46.39328" lon="5.59348">
        <ele>662.4</ele>
        <time>2023-08-30T14:02:34Z</time>
      </trkpt>
      <trkpt lat="46.3933" lon="5.59351">
        <ele>662.4</ele>
        <time>2023-08-30T14:02:35Z</time>
      </trkpt>
      <trkpt lat="46.39333" lon="5.59353">
        <ele>662.4</ele>
        <time>2023-08-30T14:02:36Z</time>
      </trkpt>
      <trkpt lat="46.39336" lon="5.59356">
        <ele>662.4</ele>
        <time>2023-08-30T14:02:37Z</time>
      </trkpt>
      <trkpt lat="46.39338" lon="5.59358">
        <ele>663</ele>
        <time>2023-08-30T14:02:38Z</time>
      </trkpt>
      <trkpt lat="46.39341" lon="5.5936">
        <ele>663</ele>
        <time>2023-08-30T14:02:39Z</time>
      </trkpt>
      <trkpt lat="46.39343" lon="5.59362">
        <ele>663</ele>
        <time>2023-08-30T14:02:40Z</time>
      </trkpt>
      <trkpt lat="46.39345" lon="5.59365">
        <ele>663</ele>
        <time>2023-08-30T14:02:41Z</time>
      </trkpt>
      <trkpt lat="46.39348" lon="5.59368">
        <ele>663</ele>
        <time>2023-08-30T14:02:42Z</time>
      </trkpt>
      <trkpt lat="46.3935" lon="5.5937">
        <ele>663.2</ele>
        <time>2023-08-30T14:02:43Z</time>
      </trkpt>
      <trkpt lat="46.39353" lon="5.59373">
        <ele>663.2</ele>
        <time>2023-08-30T14:02:44Z</time>
      </trkpt>
      <trkpt lat="46.39355" lon="5.59375">
        <ele>663.2</ele>
        <time>2023-08-30T14:02:45Z</time>
      </trkpt>
      <trkpt lat="46.39358" lon="5.59378">
        <ele>663.2</ele>
        <time>2023-08-30T14:02:46Z</time>
      </trkpt>
      <trkpt lat="46.3936" lon="5.59381">
        <ele>663.4</ele>
        <time>2023-08-30T14:02:47Z</time>
      </trkpt>
      <trkpt lat="46.39362" lon="5.59385">
        <ele>663.6</ele>
        <time>2023-08-30T14:02:48Z</time>
      </trkpt>
      <trkpt lat="46.39365" lon="5.59388">
        <ele>663.6</ele>
        <time>2023-08-30T14:02:49Z</time>
      </trkpt>
      <trkpt lat="46.39367" lon="5.59393">
        <ele>663.6</ele>
        <time>2023-08-30T14:02:50Z</time>
      </trkpt>
      <trkpt lat="46.39368" lon="5.59397">
        <ele>663.6</ele>
        <time>2023-08-30T14:02:51Z</time>
      </trkpt>
      <trkpt lat="46.39369" lon="5.59401">
        <ele>664</ele>
        <time>2023-08-30T14:02:52Z</time>
      </trkpt>
      <trkpt lat="46.3937" lon="5.59406">
        <ele>664</ele>
        <time>2023-08-30T14:02:53Z</time>
      </trkpt>
      <trkpt lat="46.3937" lon="5.59412">
        <ele>664</ele>
        <time>2023-08-30T14:02:54Z</time>
      </trkpt>
      <trkpt lat="46.39369" lon="5.59416">
        <ele>664</ele>
        <time>2023-08-30T14:02:55Z</time>
      </trkpt>
      <trkpt lat="46.39369" lon="5.59421">
        <ele>664.2</ele>
        <time>2023-08-30T14:02:56Z</time>
      </trkpt>
      <trkpt lat="46.39368" lon="5.59425">
        <ele>664.4</ele>
        <time>2023-08-30T14:02:57Z</time>
      </trkpt>
      <trkpt lat="46.39367" lon="5.59429">
        <ele>664.4</ele>
        <time>2023-08-30T14:02:58Z</time>
      </trkpt>
      <trkpt lat="46.39365" lon="5.59432">
        <ele>664.4</ele>
        <time>2023-08-30T14:02:59Z</time>
      </trkpt>
      <trkpt lat="46.39364" lon="5.59435">
        <ele>664.8</ele>
        <time>2023-08-30T14:03:00Z</time>
      </trkpt>
      <trkpt lat="46.39362" lon="5.59438">
        <ele>664.8</ele>
        <time>2023-08-30T14:03:01Z</time>
      </trkpt>
      <trkpt lat="46.39361" lon="5.59441">
        <ele>665</ele>
        <time>2023-08-30T14:03:02Z</time>
      </trkpt>
      <trkpt lat="46.39359" lon="5.59444">
        <ele>665</ele>
        <time>2023-08-30T14:03:03Z</time>
      </trkpt>
      <trkpt lat="46.39357" lon="5.59447">
        <ele>665</ele>
        <time>2023-08-30T14:03:04Z</time>
      </trkpt>
      <trkpt lat="46.39355" lon="5.5945">
        <ele>665.2</ele>
        <time>2023-08-30T14:03:05Z</time>
      </trkpt>
      <trkpt lat="46.39353" lon="5.59452">
        <ele>665.6</ele>
        <time>2023-08-30T14:03:06Z</time>
      </trkpt>
      <trkpt lat="46.39351" lon="5.59453">
        <ele>665.6</ele>
        <time>2023-08-30T14:03:07Z</time>
      </trkpt>
      <trkpt lat="46.39349" lon="5.59454">
        <ele>665.6</ele>
        <time>2023-08-30T14:03:08Z</time>
      </trkpt>
      <trkpt lat="46.39347" lon="5.59455">
        <ele>666</ele>
        <time>2023-08-30T14:03:09Z</time>
      </trkpt>
      <trkpt lat="46.39345" lon="5.59456">
        <ele>666.2</ele>
        <time>2023-08-30T14:03:10Z</time>
      </trkpt>
      <trkpt lat="46.39343" lon="5.59456">
        <ele>666.2</ele>
        <time>2023-08-30T14:03:11Z</time>
      </trkpt>
      <trkpt lat="46.39341" lon="5.59457">
        <ele>666.2</ele>
        <time>2023-08-30T14:03:12Z</time>
      </trkpt>
      <trkpt lat="46.39339" lon="5.59458">
        <ele>666.6</ele>
        <time>2023-08-30T14:03:13Z</time>
      </trkpt>
      <trkpt lat="46.39338" lon="5.59459">
        <ele>666.6</ele>
        <time>2023-08-30T14:03:14Z</time>
      </trkpt>
      <trkpt lat="46.39335" lon="5.5946">
        <ele>666.8</ele>
        <time>2023-08-30T14:03:15Z</time>
      </trkpt>
      <trkpt lat="46.39333" lon="5.5946">
        <ele>666.8</ele>
        <time>2023-08-30T14:03:16Z</time>
      </trkpt>
      <trkpt lat="46.39331" lon="5.59461">
        <ele>666.8</ele>
        <time>2023-08-30T14:03:17Z</time>
      </trkpt>
      <trkpt lat="46.39329" lon="5.59461">
        <ele>667</ele>
        <time>2023-08-30T14:03:18Z</time>
      </trkpt>
      <trkpt lat="46.39327" lon="5.59461">
        <ele>667</ele>
        <time>2023-08-30T14:03:19Z</time>
      </trkpt>
      <trkpt lat="46.39326" lon="5.59461">
        <ele>667</ele>
        <time>2023-08-30T14:03:20Z</time>
      </trkpt>
      <trkpt lat="46.39324" lon="5.59461">
        <ele>667</ele>
        <time>2023-08-30T14:03:21Z</time>
      </trkpt>
      <trkpt lat="46.39321" lon="5.5946">
        <ele>667.4</ele>
        <time>2023-08-30T14:03:22Z</time>
      </trkpt>
      <trkpt lat="46.39319" lon="5.5946">
        <ele>667.4</ele>
        <time>2023-08-30T14:03:23Z</time>
      </trkpt>
      <trkpt lat="46.39317" lon="5.5946">
        <ele>667.4</ele>
        <time>2023-08-30T14:03:24Z</time>
      </trkpt>
      <trkpt lat="46.39315" lon="5.59461">
        <ele>667.4</ele>
        <time>2023-08-30T14:03:25Z</time>
      </trkpt>
      <trkpt lat="46.39314" lon="5.59461">
        <ele>667.4</ele>
        <time>2023-08-30T14:03:26Z</time>
      </trkpt>
      <trkpt lat="46.39312" lon="5.59461">
        <ele>667.4</ele>
        <time>2023-08-30T14:03:27Z</time>
      </trkpt>
      <trkpt lat="46.3931" lon="5.59461">
        <ele>668</ele>
        <time>2023-08-30T14:03:28Z</time>
      </trkpt>
      <trkpt lat="46.39309" lon="5.59461">
        <ele>668</ele>
        <time>2023-08-30T14:03:29Z</time>
      </trkpt>
      <trkpt lat="46.39307" lon="5.5946">
        <ele>668</ele>
        <time>2023-08-30T14:03:30Z</time>
      </trkpt>
      <trkpt lat="46.39305" lon="5.5946">
        <ele>668</ele>
        <time>2023-08-30T14:03:31Z</time>
      </trkpt>
      <trkpt lat="46.39303" lon="5.5946">
        <ele>668.8</ele>
        <time>2023-08-30T14:03:32Z</time>
      </trkpt>
      <trkpt lat="46.39301" lon="5.59459">
        <ele>668.8</ele>
        <time>2023-08-30T14:03:33Z</time>
      </trkpt>
      <trkpt lat="46.39299" lon="5.59459">
        <ele>668.8</ele>
        <time>2023-08-30T14:03:34Z</time>
      </trkpt>
      <trkpt lat="46.39297" lon="5.59458">
        <ele>668.8</ele>
        <time>2023-08-30T14:03:35Z</time>
      </trkpt>
      <trkpt lat="46.39295" lon="5.59457">
        <ele>669.6</ele>
        <time>2023-08-30T14:03:36Z</time>
      </trkpt>
      <trkpt lat="46.39292" lon="5.59457">
        <ele>669.6</ele>
        <time>2023-08-30T14:03:37Z</time>
      </trkpt>
      <trkpt lat="46.3929" lon="5.59456">
        <ele>669.8</ele>
        <time>2023-08-30T14:03:38Z</time>
      </trkpt>
      <trkpt lat="46.39289" lon="5.59455">
        <ele>669.8</ele>
        <time>2023-08-30T14:03:39Z</time>
      </trkpt>
      <trkpt lat="46.39287" lon="5.59454">
        <ele>669.8</ele>
        <time>2023-08-30T14:03:40Z</time>
      </trkpt>
      <trkpt lat="46.39285" lon="5.59453">
        <ele>670.4</ele>
        <time>2023-08-30T14:03:41Z</time>
      </trkpt>
      <trkpt lat="46.39283" lon="5.59452">
        <ele>670.6</ele>
        <time>2023-08-30T14:03:42Z</time>
      </trkpt>
      <trkpt lat="46.39281" lon="5.59451">
        <ele>670.6</ele>
        <time>2023-08-30T14:03:43Z</time>
      </trkpt>
      <trkpt lat="46.3928" lon="5.5945">
        <ele>670.6</ele>
        <time>2023-08-30T14:03:44Z</time>
      </trkpt>
      <trkpt lat="46.39278" lon="5.59449">
        <ele>671</ele>
        <time>2023-08-30T14:03:45Z</time>
      </trkpt>
      <trkpt lat="46.39277" lon="5.59448">
        <ele>671.2</ele>
        <time>2023-08-30T14:03:46Z</time>
      </trkpt>
      <trkpt lat="46.39276" lon="5.59447">
        <ele>671.2</ele>
        <time>2023-08-30T14:03:47Z</time>
      </trkpt>
      <trkpt lat="46.39274" lon="5.59445">
        <ele>671.2</ele>
        <time>2023-08-30T14:03:48Z</time>
      </trkpt>
      <trkpt lat="46.39273" lon="5.59444">
        <ele>671.6</ele>
        <time>2023-08-30T14:03:49Z</time>
      </trkpt>
      <trkpt lat="46.39272" lon="5.59443">
        <ele>671.8</ele>
        <time>2023-08-30T14:03:50Z</time>
      </trkpt>
      <trkpt lat="46.3927" lon="5.59441">
        <ele>671.8</ele>
        <time>2023-08-30T14:03:51Z</time>
      </trkpt>
      <trkpt lat="46.39269" lon="5.5944">
        <ele>671.8</ele>
        <time>2023-08-30T14:03:52Z</time>
      </trkpt>
      <trkpt lat="46.39267" lon="5.5944">
        <ele>671.8</ele>
        <time>2023-08-30T14:03:53Z</time>
      </trkpt>
      <trkpt lat="46.39266" lon="5.59439">
        <ele>671.8</ele>
        <time>2023-08-30T14:03:54Z</time>
      </trkpt>
      <trkpt lat="46.39264" lon="5.59438">
        <ele>672.2</ele>
        <time>2023-08-30T14:03:55Z</time>
      </trkpt>
      <trkpt lat="46.39263" lon="5.59437">
        <ele>672.2</ele>
        <time>2023-08-30T14:03:56Z</time>
      </trkpt>
      <trkpt lat="46.39261" lon="5.59435">
        <ele>672.2</ele>
        <time>2023-08-30T14:03:57Z</time>
      </trkpt>
      <trkpt lat="46.39259" lon="5.59435">
        <ele>672.4</ele>
        <time>2023-08-30T14:03:58Z</time>
      </trkpt>
      <trkpt lat="46.39258" lon="5.59434">
        <ele>672.4</ele>
        <time>2023-08-30T14:03:59Z</time>
      </trkpt>
      <trkpt lat="46.39256" lon="5.59432">
        <ele>672.4</ele>
        <time>2023-08-30T14:04:00Z</time>
      </trkpt>
      <trkpt lat="46.39255" lon="5.59431">
        <ele>672.4</ele>
        <time>2023-08-30T14:04:01Z</time>
      </trkpt>
      <trkpt lat="46.39253" lon="5.5943">
        <ele>672.8</ele>
        <time>2023-08-30T14:04:02Z</time>
      </trkpt>
      <trkpt lat="46.39252" lon="5.5943">
        <ele>672.8</ele>
        <time>2023-08-30T14:04:03Z</time>
      </trkpt>
      <trkpt lat="46.3925" lon="5.59429">
        <ele>673</ele>
        <time>2023-08-30T14:04:04Z</time>
      </trkpt>
      <trkpt lat="46.39248" lon="5.59428">
        <ele>673</ele>
        <time>2023-08-30T14:04:05Z</time>
      </trkpt>
      <trkpt lat="46.39247" lon="5.59428">
        <ele>673</ele>
        <time>2023-08-30T14:04:06Z</time>
      </trkpt>
      <trkpt lat="46.39245" lon="5.59427">
        <ele>673</ele>
        <time>2023-08-30T14:04:07Z</time>
      </trkpt>
      <trkpt lat="46.39243" lon="5.59427">
        <ele>673.2</ele>
        <time>2023-08-30T14:04:08Z</time>
      </trkpt>
      <trkpt lat="46.39242" lon="5.59427">
        <ele>673.2</ele>
        <time>2023-08-30T14:04:09Z</time>
      </trkpt>
      <trkpt lat="46.3924" lon="5.59426">
        <ele>673.2</ele>
        <time>2023-08-30T14:04:10Z</time>
      </trkpt>
      <trkpt lat="46.39238" lon="5.59426">
        <ele>673.2</ele>
        <time>2023-08-30T14:04:11Z</time>
      </trkpt>
      <trkpt lat="46.39236" lon="5.59426">
        <ele>673.2</ele>
        <time>2023-08-30T14:04:12Z</time>
      </trkpt>
      <trkpt lat="46.39234" lon="5.59426">
        <ele>673.4</ele>
        <time>2023-08-30T14:04:13Z</time>
      </trkpt>
      <trkpt lat="46.39233" lon="5.59427">
        <ele>673.4</ele>
        <time>2023-08-30T14:04:14Z</time>
      </trkpt>
      <trkpt lat="46.39231" lon="5.59427">
        <ele>673.4</ele>
        <time>2023-08-30T14:04:15Z</time>
      </trkpt>
      <trkpt lat="46.39229" lon="5.59428">
        <ele>673.4</ele>
        <time>2023-08-30T14:04:16Z</time>
      </trkpt>
      <trkpt lat="46.39227" lon="5.59428">
        <ele>673.8</ele>
        <time>2023-08-30T14:04:17Z</time>
      </trkpt>
      <trkpt lat="46.39225" lon="5.59429">
        <ele>673.8</ele>
        <time>2023-08-30T14:04:18Z</time>
      </trkpt>
      <trkpt lat="46.39223" lon="5.5943">
        <ele>673.8</ele>
        <time>2023-08-30T14:04:19Z</time>
      </trkpt>
      <trkpt lat="46.39222" lon="5.59431">
        <ele>673.8</ele>
        <time>2023-08-30T14:04:20Z</time>
      </trkpt>
      <trkpt lat="46.3922" lon="5.59432">
        <ele>674</ele>
        <time>2023-08-30T14:04:21Z</time>
      </trkpt>
      <trkpt lat="46.39219" lon="5.59433">
        <ele>673.8</ele>
        <time>2023-08-30T14:04:22Z</time>
      </trkpt>
      <trkpt lat="46.39217" lon="5.59434">
        <ele>673.8</ele>
        <time>2023-08-30T14:04:23Z</time>
      </trkpt>
      <trkpt lat="46.39215" lon="5.59434">
        <ele>673.8</ele>
        <time>2023-08-30T14:04:24Z</time>
      </trkpt>
      <trkpt lat="46.39214" lon="5.59435">
        <ele>674.4</ele>
        <time>2023-08-30T14:04:25Z</time>
      </trkpt>
      <trkpt lat="46.39212" lon="5.59437">
        <ele>674.2</ele>
        <time>2023-08-30T14:04:26Z</time>
      </trkpt>
      <trkpt lat="46.3921" lon="5.59438">
        <ele>674.2</ele>
        <time>2023-08-30T14:04:27Z</time>
      </trkpt>
      <trkpt lat="46.39209" lon="5.59439">
        <ele>674.2</ele>
        <time>2023-08-30T14:04:28Z</time>
      </trkpt>
      <trkpt lat="46.39207" lon="5.5944">
        <ele>674.2</ele>
        <time>2023-08-30T14:04:29Z</time>
      </trkpt>
      <trkpt lat="46.39206" lon="5.59441">
        <ele>674.6</ele>
        <time>2023-08-30T14:04:30Z</time>
      </trkpt>
      <trkpt lat="46.39204" lon="5.59443">
        <ele>675</ele>
        <time>2023-08-30T14:04:31Z</time>
      </trkpt>
      <trkpt lat="46.39202" lon="5.59444">
        <ele>675</ele>
        <time>2023-08-30T14:04:32Z</time>
      </trkpt>
      <trkpt lat="46.39201" lon="5.59445">
        <ele>675</ele>
        <time>2023-08-30T14:04:33Z</time>
      </trkpt>
      <trkpt lat="46.39199" lon="5.59446">
        <ele>675</ele>
        <time>2023-08-30T14:04:34Z</time>
      </trkpt>
      <trkpt lat="46.39198" lon="5.59448">
        <ele>675</ele>
        <time>2023-08-30T14:04:35Z</time>
      </trkpt>
      <trkpt lat="46.39197" lon="5.59449">
        <ele>675</ele>
        <time>2023-08-30T14:04:36Z</time>
      </trkpt>
      <trkpt lat="46.39195" lon="5.59451">
        <ele>675</ele>
        <time>2023-08-30T14:04:37Z</time>
      </trkpt>
      <trkpt lat="46.39194" lon="5.59453">
        <ele>675.4</ele>
        <time>2023-08-30T14:04:38Z</time>
      </trkpt>
      <trkpt lat="46.39193" lon="5.59455">
        <ele>675.6</ele>
        <time>2023-08-30T14:04:39Z</time>
      </trkpt>
      <trkpt lat="46.39192" lon="5.59458">
        <ele>675.6</ele>
        <time>2023-08-30T14:04:40Z</time>
      </trkpt>
      <trkpt lat="46.39191" lon="5.5946">
        <ele>675.6</ele>
        <time>2023-08-30T14:04:41Z</time>
      </trkpt>
      <trkpt lat="46.3919" lon="5.59463">
        <ele>675.6</ele>
        <time>2023-08-30T14:04:42Z</time>
      </trkpt>
      <trkpt lat="46.39189" lon="5.59465">
        <ele>675.6</ele>
        <time>2023-08-30T14:04:43Z</time>
      </trkpt>
      <trkpt lat="46.39188" lon="5.59467">
        <ele>676</ele>
        <time>2023-08-30T14:04:44Z</time>
      </trkpt>
      <trkpt lat="46.39187" lon="5.5947">
        <ele>676</ele>
        <time>2023-08-30T14:04:45Z</time>
      </trkpt>
      <trkpt lat="46.39186" lon="5.59472">
        <ele>676</ele>
        <time>2023-08-30T14:04:46Z</time>
      </trkpt>
      <trkpt lat="46.39185" lon="5.59474">
        <ele>676.2</ele>
        <time>2023-08-30T14:04:47Z</time>
      </trkpt>
      <trkpt lat="46.39185" lon="5.59477">
        <ele>676.4</ele>
        <time>2023-08-30T14:04:48Z</time>
      </trkpt>
      <trkpt lat="46.39184" lon="5.5948">
        <ele>676.4</ele>
        <time>2023-08-30T14:04:49Z</time>
      </trkpt>
      <trkpt lat="46.39183" lon="5.59482">
        <ele>676.4</ele>
        <time>2023-08-30T14:04:50Z</time>
      </trkpt>
      <trkpt lat="46.39182" lon="5.59484">
        <ele>676.8</ele>
        <time>2023-08-30T14:04:51Z</time>
      </trkpt>
      <trkpt lat="46.39181" lon="5.59487">
        <ele>676.8</ele>
        <time>2023-08-30T14:04:52Z</time>
      </trkpt>
      <trkpt lat="46.3918" lon="5.59489">
        <ele>676.8</ele>
        <time>2023-08-30T14:04:53Z</time>
      </trkpt>
      <trkpt lat="46.39179" lon="5.5949">
        <ele>677</ele>
        <time>2023-08-30T14:04:54Z</time>
      </trkpt>
      <trkpt lat="46.39178" lon="5.59492">
        <ele>677</ele>
        <time>2023-08-30T14:04:55Z</time>
      </trkpt>
      <trkpt lat="46.39176" lon="5.59493">
        <ele>677</ele>
        <time>2023-08-30T14:04:56Z</time>
      </trkpt>
      <trkpt lat="46.39175" lon="5.59495">
        <ele>677.4</ele>
        <time>2023-08-30T14:04:57Z</time>
      </trkpt>
      <trkpt lat="46.39174" lon="5.59496">
        <ele>677.8</ele>
        <time>2023-08-30T14:04:58Z</time>
      </trkpt>
      <trkpt lat="46.39172" lon="5.59498">
        <ele>677.8</ele>
        <time>2023-08-30T14:04:59Z</time>
      </trkpt>
      <trkpt lat="46.39171" lon="5.595">
        <ele>677.8</ele>
        <time>2023-08-30T14:05:00Z</time>
      </trkpt>
      <trkpt lat="46.39169" lon="5.59502">
        <ele>678.2</ele>
        <time>2023-08-30T14:05:01Z</time>
      </trkpt>
      <trkpt lat="46.39167" lon="5.59503">
        <ele>678.2</ele>
        <time>2023-08-30T14:05:02Z</time>
      </trkpt>
      <trkpt lat="46.39166" lon="5.59505">
        <ele>678.4</ele>
        <time>2023-08-30T14:05:03Z</time>
      </trkpt>
      <trkpt lat="46.39164" lon="5.59507">
        <ele>678.4</ele>
        <time>2023-08-30T14:05:04Z</time>
      </trkpt>
      <trkpt lat="46.39162" lon="5.59508">
        <ele>678.4</ele>
        <time>2023-08-30T14:05:05Z</time>
      </trkpt>
      <trkpt lat="46.3916" lon="5.59509">
        <ele>679</ele>
        <time>2023-08-30T14:05:06Z</time>
      </trkpt>
      <trkpt lat="46.39158" lon="5.5951">
        <ele>679.2</ele>
        <time>2023-08-30T14:05:07Z</time>
      </trkpt>
      <trkpt lat="46.39156" lon="5.59511">
        <ele>679.2</ele>
        <time>2023-08-30T14:05:08Z</time>
      </trkpt>
      <trkpt lat="46.39154" lon="5.59512">
        <ele>679.2</ele>
        <time>2023-08-30T14:05:09Z</time>
      </trkpt>
      <trkpt lat="46.39152" lon="5.59512">
        <ele>679.6</ele>
        <time>2023-08-30T14:05:10Z</time>
      </trkpt>
      <trkpt lat="46.39151" lon="5.59513">
        <ele>679.8</ele>
        <time>2023-08-30T14:05:11Z</time>
      </trkpt>
      <trkpt lat="46.39149" lon="5.59514">
        <ele>679.8</ele>
        <time>2023-08-30T14:05:12Z</time>
      </trkpt>
      <trkpt lat="46.39147" lon="5.59515">
        <ele>679.8</ele>
        <time>2023-08-30T14:05:13Z</time>
      </trkpt>
      <trkpt lat="46.39146" lon="5.59516">
        <ele>680.2</ele>
        <time>2023-08-30T14:05:14Z</time>
      </trkpt>
      <trkpt lat="46.39144" lon="5.59517">
        <ele>680.4</ele>
        <time>2023-08-30T14:05:15Z</time>
      </trkpt>
      <trkpt lat="46.39142" lon="5.59518">
        <ele>680.4</ele>
        <time>2023-08-30T14:05:16Z</time>
      </trkpt>
      <trkpt lat="46.3914" lon="5.59519">
        <ele>680.4</ele>
        <time>2023-08-30T14:05:17Z</time>
      </trkpt>
      <trkpt lat="46.39139" lon="5.5952">
        <ele>680.4</ele>
        <time>2023-08-30T14:05:18Z</time>
      </trkpt>
      <trkpt lat="46.39137" lon="5.59521">
        <ele>680.6</ele>
        <time>2023-08-30T14:05:19Z</time>
      </trkpt>
      <trkpt lat="46.39135" lon="5.59522">
        <ele>681</ele>
        <time>2023-08-30T14:05:20Z</time>
      </trkpt>
      <trkpt lat="46.39134" lon="5.59522">
        <ele>681</ele>
        <time>2023-08-30T14:05:21Z</time>
      </trkpt>
      <trkpt lat="46.39132" lon="5.59523">
        <ele>681</ele>
        <time>2023-08-30T14:05:22Z</time>
      </trkpt>
      <trkpt lat="46.3913" lon="5.59524">
        <ele>681</ele>
        <time>2023-08-30T14:05:23Z</time>
      </trkpt>
      <trkpt lat="46.39129" lon="5.59524">
        <ele>681.2</ele>
        <time>2023-08-30T14:05:24Z</time>
      </trkpt>
      <trkpt lat="46.39127" lon="5.59525">
        <ele>681.2</ele>
        <time>2023-08-30T14:05:25Z</time>
      </trkpt>
      <trkpt lat="46.39125" lon="5.59526">
        <ele>681.2</ele>
        <time>2023-08-30T14:05:26Z</time>
      </trkpt>
      <trkpt lat="46.39124" lon="5.59527">
        <ele>681.8</ele>
        <time>2023-08-30T14:05:27Z</time>
      </trkpt>
      <trkpt lat="46.39122" lon="5.59528">
        <ele>681.8</ele>
        <time>2023-08-30T14:05:28Z</time>
      </trkpt>
      <trkpt lat="46.39121" lon="5.59529">
        <ele>681.8</ele>
        <time>2023-08-30T14:05:29Z</time>
      </trkpt>
      <trkpt lat="46.39119" lon="5.59531">
        <ele>681.8</ele>
        <time>2023-08-30T14:05:30Z</time>
      </trkpt>
      <trkpt lat="46.39118" lon="5.59532">
        <ele>681.8</ele>
        <time>2023-08-30T14:05:31Z</time>
      </trkpt>
      <trkpt lat="46.39116" lon="5.59534">
        <ele>682.4</ele>
        <time>2023-08-30T14:05:32Z</time>
      </trkpt>
      <trkpt lat="46.39115" lon="5.59535">
        <ele>682.4</ele>
        <time>2023-08-30T14:05:33Z</time>
      </trkpt>
      <trkpt lat="46.39113" lon="5.59537">
        <ele>682.4</ele>
        <time>2023-08-30T14:05:34Z</time>
      </trkpt>
      <trkpt lat="46.39111" lon="5.59538">
        <ele>682.4</ele>
        <time>2023-08-30T14:05:35Z</time>
      </trkpt>
      <trkpt lat="46.3911" lon="5.5954">
        <ele>682.4</ele>
        <time>2023-08-30T14:05:36Z</time>
      </trkpt>
      <trkpt lat="46.39109" lon="5.59542">
        <ele>682.4</ele>
        <time>2023-08-30T14:05:37Z</time>
      </trkpt>
      <trkpt lat="46.39107" lon="5.59544">
        <ele>682.4</ele>
        <time>2023-08-30T14:05:38Z</time>
      </trkpt>
      <trkpt lat="46.39106" lon="5.59546">
        <ele>682.8</ele>
        <time>2023-08-30T14:05:39Z</time>
      </trkpt>
      <trkpt lat="46.39105" lon="5.59548">
        <ele>682.8</ele>
        <time>2023-08-30T14:05:40Z</time>
      </trkpt>
      <trkpt lat="46.39104" lon="5.59551">
        <ele>682.8</ele>
        <time>2023-08-30T14:05:41Z</time>
      </trkpt>
      <trkpt lat="46.39103" lon="5.59553">
        <ele>683.4</ele>
        <time>2023-08-30T14:05:42Z</time>
      </trkpt>
      <trkpt lat="46.39102" lon="5.59555">
        <ele>683.4</ele>
        <time>2023-08-30T14:05:43Z</time>
      </trkpt>
      <trkpt lat="46.39101" lon="5.59558">
        <ele>683.4</ele>
        <time>2023-08-30T14:05:44Z</time>
      </trkpt>
      <trkpt lat="46.39101" lon="5.59561">
        <ele>683.4</ele>
        <time>2023-08-30T14:05:45Z</time>
      </trkpt>
      <trkpt lat="46.391" lon="5.59563">
        <ele>683.6</ele>
        <time>2023-08-30T14:05:46Z</time>
      </trkpt>
      <trkpt lat="46.391" lon="5.59566">
        <ele>683.8</ele>
        <time>2023-08-30T14:05:47Z</time>
      </trkpt>
      <trkpt lat="46.39099" lon="5.59568">
        <ele>683.8</ele>
        <time>2023-08-30T14:05:48Z</time>
      </trkpt>
      <trkpt lat="46.39099" lon="5.5957">
        <ele>683.8</ele>
        <time>2023-08-30T14:05:49Z</time>
      </trkpt>
      <trkpt lat="46.39099" lon="5.59573">
        <ele>684.2</ele>
        <time>2023-08-30T14:05:50Z</time>
      </trkpt>
      <trkpt lat="46.39099" lon="5.59576">
        <ele>684.2</ele>
        <time>2023-08-30T14:05:51Z</time>
      </trkpt>
      <trkpt lat="46.39098" lon="5.59578">
        <ele>684.4</ele>
        <time>2023-08-30T14:05:52Z</time>
      </trkpt>
      <trkpt lat="46.39098" lon="5.59581">
        <ele>684.4</ele>
        <time>2023-08-30T14:05:53Z</time>
      </trkpt>
      <trkpt lat="46.39098" lon="5.59583">
        <ele>684.4</ele>
        <time>2023-08-30T14:05:54Z</time>
      </trkpt>
      <trkpt lat="46.39097" lon="5.59585">
        <ele>684.8</ele>
        <time>2023-08-30T14:05:55Z</time>
      </trkpt>
      <trkpt lat="46.39096" lon="5.59588">
        <ele>685</ele>
        <time>2023-08-30T14:05:56Z</time>
      </trkpt>
      <trkpt lat="46.39096" lon="5.5959">
        <ele>685</ele>
        <time>2023-08-30T14:05:57Z</time>
      </trkpt>
      <trkpt lat="46.39096" lon="5.59592">
        <ele>685</ele>
        <time>2023-08-30T14:05:58Z</time>
      </trkpt>
      <trkpt lat="46.39096" lon="5.59595">
        <ele>685.6</ele>
        <time>2023-08-30T14:05:59Z</time>
      </trkpt>
      <trkpt lat="46.39096" lon="5.59598">
        <ele>685.6</ele>
        <time>2023-08-30T14:06:00Z</time>
      </trkpt>
      <trkpt lat="46.39095" lon="5.59601">
        <ele>685.8</ele>
        <time>2023-08-30T14:06:01Z</time>
      </trkpt>
      <trkpt lat="46.39095" lon="5.59604">
        <ele>685.8</ele>
        <time>2023-08-30T14:06:02Z</time>
      </trkpt>
      <trkpt lat="46.39095" lon="5.59607">
        <ele>685.8</ele>
        <time>2023-08-30T14:06:03Z</time>
      </trkpt>
      <trkpt lat="46.39095" lon="5.5961">
        <ele>686.4</ele>
        <time>2023-08-30T14:06:04Z</time>
      </trkpt>
      <trkpt lat="46.39094" lon="5.59613">
        <ele>686.6</ele>
        <time>2023-08-30T14:06:05Z</time>
      </trkpt>
      <trkpt lat="46.39094" lon="5.59616">
        <ele>686.6</ele>
        <time>2023-08-30T14:06:06Z</time>
      </trkpt>
      <trkpt lat="46.39093" lon="5.59619">
        <ele>686.6</ele>
        <time>2023-08-30T14:06:07Z</time>
      </trkpt>
      <trkpt lat="46.39093" lon="5.59622">
        <ele>687</ele>
        <time>2023-08-30T14:06:08Z</time>
      </trkpt>
      <trkpt lat="46.39093" lon="5.59625">
        <ele>687.4</ele>
        <time>2023-08-30T14:06:09Z</time>
      </trkpt>
      <trkpt lat="46.39093" lon="5.5963">
        <ele>687.4</ele>
        <time>2023-08-30T14:06:10Z</time>
      </trkpt>
      <trkpt lat="46.39092" lon="5.59635">
        <ele>687.4</ele>
        <time>2023-08-30T14:06:11Z</time>
      </trkpt>
      <trkpt lat="46.39091" lon="5.5964">
        <ele>687.4</ele>
        <time>2023-08-30T14:06:12Z</time>
      </trkpt>
      <trkpt lat="46.39091" lon="5.59646">
        <ele>687.4</ele>
        <time>2023-08-30T14:06:13Z</time>
      </trkpt>
      <trkpt lat="46.39091" lon="5.59652">
        <ele>687.8</ele>
        <time>2023-08-30T14:06:14Z</time>
      </trkpt>
      <trkpt lat="46.39091" lon="5.59658">
        <ele>687.8</ele>
        <time>2023-08-30T14:06:15Z</time>
      </trkpt>
      <trkpt lat="46.39092" lon="5.59664">
        <ele>687.8</ele>
        <time>2023-08-30T14:06:16Z</time>
      </trkpt>
      <trkpt lat="46.39093" lon="5.59671">
        <ele>688.4</ele>
        <time>2023-08-30T14:06:17Z</time>
      </trkpt>
      <trkpt lat="46.39094" lon="5.59679">
        <ele>688</ele>
        <time>2023-08-30T14:06:18Z</time>
      </trkpt>
      <trkpt lat="46.39095" lon="5.59687">
        <ele>688</ele>
        <time>2023-08-30T14:06:19Z</time>
      </trkpt>
      <trkpt lat="46.39096" lon="5.59696">
        <ele>688</ele>
        <time>2023-08-30T14:06:20Z</time>
      </trkpt>
      <trkpt lat="46.39097" lon="5.59705">
        <ele>688</ele>
        <time>2023-08-30T14:06:21Z</time>
      </trkpt>
      <trkpt lat="46.39099" lon="5.59714">
        <ele>688</ele>
        <time>2023-08-30T14:06:22Z</time>
      </trkpt>
      <trkpt lat="46.39101" lon="5.59723">
        <ele>688.8</ele>
        <time>2023-08-30T14:06:23Z</time>
      </trkpt>
      <trkpt lat="46.39103" lon="5.59733">
        <ele>688.8</ele>
        <time>2023-08-30T14:06:24Z</time>
      </trkpt>
      <trkpt lat="46.39104" lon="5.59742">
        <ele>688.8</ele>
        <time>2023-08-30T14:06:25Z</time>
      </trkpt>
      <trkpt lat="46.39106" lon="5.59752">
        <ele>688.8</ele>
        <time>2023-08-30T14:06:26Z</time>
      </trkpt>
      <trkpt lat="46.39108" lon="5.59762">
        <ele>688.8</ele>
        <time>2023-08-30T14:06:27Z</time>
      </trkpt>
      <trkpt lat="46.3911" lon="5.59772">
        <ele>688.6</ele>
        <time>2023-08-30T14:06:28Z</time>
      </trkpt>
      <trkpt lat="46.39112" lon="5.59783">
        <ele>688.6</ele>
        <time>2023-08-30T14:06:29Z</time>
      </trkpt>
      <trkpt lat="46.39114" lon="5.59794">
        <ele>688.6</ele>
        <time>2023-08-30T14:06:30Z</time>
      </trkpt>
      <trkpt lat="46.39117" lon="5.59805">
        <ele>688.6</ele>
        <time>2023-08-30T14:06:31Z</time>
      </trkpt>
      <trkpt lat="46.3912" lon="5.59816">
        <ele>688.6</ele>
        <time>2023-08-30T14:06:32Z</time>
      </trkpt>
      <trkpt lat="46.39122" lon="5.59828">
        <ele>688.6</ele>
        <time>2023-08-30T14:06:33Z</time>
      </trkpt>
      <trkpt lat="46.39124" lon="5.59839">
        <ele>688.6</ele>
        <time>2023-08-30T14:06:34Z</time>
      </trkpt>
      <trkpt lat="46.39127" lon="5.59851">
        <ele>688.6</ele>
        <time>2023-08-30T14:06:35Z</time>
      </trkpt>
      <trkpt lat="46.39129" lon="5.59863">
        <ele>688.2</ele>
        <time>2023-08-30T14:06:36Z</time>
      </trkpt>
      <trkpt lat="46.3913" lon="5.59874">
        <ele>688.4</ele>
        <time>2023-08-30T14:06:37Z</time>
      </trkpt>
      <trkpt lat="46.3913" lon="5.59885">
        <ele>688.4</ele>
        <time>2023-08-30T14:06:38Z</time>
      </trkpt>
      <trkpt lat="46.3913" lon="5.59895">
        <ele>688.4</ele>
        <time>2023-08-30T14:06:39Z</time>
      </trkpt>
      <trkpt lat="46.3913" lon="5.59905">
        <ele>688.4</ele>
        <time>2023-08-30T14:06:40Z</time>
      </trkpt>
      <trkpt lat="46.3913" lon="5.59913">
        <ele>689.2</ele>
        <time>2023-08-30T14:06:41Z</time>
      </trkpt>
      <trkpt lat="46.3913" lon="5.59921">
        <ele>689.2</ele>
        <time>2023-08-30T14:06:42Z</time>
      </trkpt>
      <trkpt lat="46.3913" lon="5.59928">
        <ele>689.2</ele>
        <time>2023-08-30T14:06:43Z</time>
      </trkpt>
      <trkpt lat="46.3913" lon="5.59935">
        <ele>689</ele>
        <time>2023-08-30T14:06:44Z</time>
      </trkpt>
      <trkpt lat="46.39129" lon="5.59941">
        <ele>689</ele>
        <time>2023-08-30T14:06:45Z</time>
      </trkpt>
      <trkpt lat="46.39129" lon="5.59947">
        <ele>689</ele>
        <time>2023-08-30T14:06:46Z</time>
      </trkpt>
      <trkpt lat="46.39129" lon="5.59953">
        <ele>689</ele>
        <time>2023-08-30T14:06:47Z</time>
      </trkpt>
      <trkpt lat="46.3913" lon="5.59959">
        <ele>689</ele>
        <time>2023-08-30T14:06:48Z</time>
      </trkpt>
      <trkpt lat="46.3913" lon="5.59965">
        <ele>689.2</ele>
        <time>2023-08-30T14:06:49Z</time>
      </trkpt>
      <trkpt lat="46.39131" lon="5.59971">
        <ele>689.4</ele>
        <time>2023-08-30T14:06:50Z</time>
      </trkpt>
      <trkpt lat="46.39131" lon="5.59977">
        <ele>689.4</ele>
        <time>2023-08-30T14:06:51Z</time>
      </trkpt>
      <trkpt lat="46.39131" lon="5.59983">
        <ele>689.4</ele>
        <time>2023-08-30T14:06:52Z</time>
      </trkpt>
      <trkpt lat="46.39132" lon="5.59988">
        <ele>689.4</ele>
        <time>2023-08-30T14:06:53Z</time>
      </trkpt>
      <trkpt lat="46.39132" lon="5.59994">
        <ele>689.6</ele>
        <time>2023-08-30T14:06:54Z</time>
      </trkpt>
      <trkpt lat="46.39132" lon="5.59999">
        <ele>689.6</ele>
        <time>2023-08-30T14:06:55Z</time>
      </trkpt>
      <trkpt lat="46.39133" lon="5.60005">
        <ele>689.6</ele>
        <time>2023-08-30T14:06:56Z</time>
      </trkpt>
      <trkpt lat="46.39133" lon="5.60011">
        <ele>689.6</ele>
        <time>2023-08-30T14:06:57Z</time>
      </trkpt>
      <trkpt lat="46.39133" lon="5.60017">
        <ele>689.6</ele>
        <time>2023-08-30T14:06:58Z</time>
      </trkpt>
      <trkpt lat="46.39134" lon="5.60022">
        <ele>689.8</ele>
        <time>2023-08-30T14:06:59Z</time>
      </trkpt>
      <trkpt lat="46.39135" lon="5.60028">
        <ele>689.8</ele>
        <time>2023-08-30T14:07:00Z</time>
      </trkpt>
      <trkpt lat="46.39135" lon="5.60034">
        <ele>689.8</ele>
        <time>2023-08-30T14:07:01Z</time>
      </trkpt>
      <trkpt lat="46.39136" lon="5.60039">
        <ele>689.8</ele>
        <time>2023-08-30T14:07:02Z</time>
      </trkpt>
      <trkpt lat="46.39137" lon="5.60044">
        <ele>690</ele>
        <time>2023-08-30T14:07:03Z</time>
      </trkpt>
      <trkpt lat="46.39137" lon="5.60049">
        <ele>690.4</ele>
        <time>2023-08-30T14:07:04Z</time>
      </trkpt>
      <trkpt lat="46.39138" lon="5.60054">
        <ele>690.4</ele>
        <time>2023-08-30T14:07:05Z</time>
      </trkpt>
      <trkpt lat="46.39139" lon="5.60059">
        <ele>690.4</ele>
        <time>2023-08-30T14:07:06Z</time>
      </trkpt>
      <trkpt lat="46.3914" lon="5.60063">
        <ele>690.8</ele>
        <time>2023-08-30T14:07:07Z</time>
      </trkpt>
      <trkpt lat="46.39142" lon="5.60067">
        <ele>690.8</ele>
        <time>2023-08-30T14:07:08Z</time>
      </trkpt>
      <trkpt lat="46.39143" lon="5.60072">
        <ele>690.8</ele>
        <time>2023-08-30T14:07:09Z</time>
      </trkpt>
      <trkpt lat="46.39144" lon="5.60077">
        <ele>690.8</ele>
        <time>2023-08-30T14:07:10Z</time>
      </trkpt>
      <trkpt lat="46.39145" lon="5.60081">
        <ele>691.4</ele>
        <time>2023-08-30T14:07:11Z</time>
      </trkpt>
      <trkpt lat="46.39147" lon="5.60085">
        <ele>691.4</ele>
        <time>2023-08-30T14:07:12Z</time>
      </trkpt>
      <trkpt lat="46.39148" lon="5.6009">
        <ele>691.4</ele>
        <time>2023-08-30T14:07:13Z</time>
      </trkpt>
      <trkpt lat="46.39149" lon="5.60094">
        <ele>691.4</ele>
        <time>2023-08-30T14:07:14Z</time>
      </trkpt>
      <trkpt lat="46.39151" lon="5.60098">
        <ele>691.4</ele>
        <time>2023-08-30T14:07:15Z</time>
      </trkpt>
      <trkpt lat="46.39152" lon="5.60101">
        <ele>691.8</ele>
        <time>2023-08-30T14:07:16Z</time>
      </trkpt>
      <trkpt lat="46.39153" lon="5.60104">
        <ele>692</ele>
        <time>2023-08-30T14:07:17Z</time>
      </trkpt>
      <trkpt lat="46.39154" lon="5.60107">
        <ele>692</ele>
        <time>2023-08-30T14:07:18Z</time>
      </trkpt>
      <trkpt lat="46.39155" lon="5.60111">
        <ele>692</ele>
        <time>2023-08-30T14:07:19Z</time>
      </trkpt>
      <trkpt lat="46.39157" lon="5.60114">
        <ele>692.2</ele>
        <time>2023-08-30T14:07:20Z</time>
      </trkpt>
      <trkpt lat="46.39158" lon="5.60116">
        <ele>692.2</ele>
        <time>2023-08-30T14:07:21Z</time>
      </trkpt>
      <trkpt lat="46.3916" lon="5.60119">
        <ele>692.4</ele>
        <time>2023-08-30T14:07:22Z</time>
      </trkpt>
      <trkpt lat="46.39161" lon="5.60122">
        <ele>692.4</ele>
        <time>2023-08-30T14:07:23Z</time>
      </trkpt>
      <trkpt lat="46.39162" lon="5.60125">
        <ele>692.4</ele>
        <time>2023-08-30T14:07:24Z</time>
      </trkpt>
      <trkpt lat="46.39163" lon="5.60128">
        <ele>692.6</ele>
        <time>2023-08-30T14:07:25Z</time>
      </trkpt>
      <trkpt lat="46.39164" lon="5.60131">
        <ele>692.8</ele>
        <time>2023-08-30T14:07:26Z</time>
      </trkpt>
      <trkpt lat="46.39166" lon="5.60134">
        <ele>692.8</ele>
        <time>2023-08-30T14:07:27Z</time>
      </trkpt>
      <trkpt lat="46.39168" lon="5.60136">
        <ele>692.8</ele>
        <time>2023-08-30T14:07:28Z</time>
      </trkpt>
      <trkpt lat="46.39169" lon="5.60139">
        <ele>693</ele>
        <time>2023-08-30T14:07:29Z</time>
      </trkpt>
      <trkpt lat="46.3917" lon="5.60142">
        <ele>693</ele>
        <time>2023-08-30T14:07:30Z</time>
      </trkpt>
      <trkpt lat="46.39172" lon="5.60145">
        <ele>693</ele>
        <time>2023-08-30T14:07:31Z</time>
      </trkpt>
      <trkpt lat="46.39174" lon="5.60148">
        <ele>693</ele>
        <time>2023-08-30T14:07:32Z</time>
      </trkpt>
      <trkpt lat="46.39175" lon="5.60151">
        <ele>693.4</ele>
        <time>2023-08-30T14:07:33Z</time>
      </trkpt>
      <trkpt lat="46.39177" lon="5.60154">
        <ele>693.4</ele>
        <time>2023-08-30T14:07:34Z</time>
      </trkpt>
      <trkpt lat="46.39179" lon="5.60157">
        <ele>693.4</ele>
        <time>2023-08-30T14:07:35Z</time>
      </trkpt>
      <trkpt lat="46.3918" lon="5.60159">
        <ele>693.4</ele>
        <time>2023-08-30T14:07:36Z</time>
      </trkpt>
      <trkpt lat="46.39182" lon="5.60162">
        <ele>693.4</ele>
        <time>2023-08-30T14:07:37Z</time>
      </trkpt>
      <trkpt lat="46.39184" lon="5.60165">
        <ele>693.8</ele>
        <time>2023-08-30T14:07:38Z</time>
      </trkpt>
      <trkpt lat="46.39186" lon="5.60167">
        <ele>694.2</ele>
        <time>2023-08-30T14:07:39Z</time>
      </trkpt>
      <trkpt lat="46.39188" lon="5.6017">
        <ele>694.2</ele>
        <time>2023-08-30T14:07:40Z</time>
      </trkpt>
      <trkpt lat="46.3919" lon="5.60172">
        <ele>694.2</ele>
        <time>2023-08-30T14:07:41Z</time>
      </trkpt>
      <trkpt lat="46.39192" lon="5.60175">
        <ele>694.2</ele>
        <time>2023-08-30T14:07:42Z</time>
      </trkpt>
      <trkpt lat="46.39193" lon="5.60177">
        <ele>694.6</ele>
        <time>2023-08-30T14:07:43Z</time>
      </trkpt>
      <trkpt lat="46.39195" lon="5.6018">
        <ele>694.6</ele>
        <time>2023-08-30T14:07:44Z</time>
      </trkpt>
      <trkpt lat="46.39197" lon="5.60183">
        <ele>694.6</ele>
        <time>2023-08-30T14:07:45Z</time>
      </trkpt>
      <trkpt lat="46.39199" lon="5.60185">
        <ele>694.6</ele>
        <time>2023-08-30T14:07:46Z</time>
      </trkpt>
      <trkpt lat="46.39201" lon="5.60188">
        <ele>694.6</ele>
        <time>2023-08-30T14:07:47Z</time>
      </trkpt>
      <trkpt lat="46.39202" lon="5.6019">
        <ele>694.6</ele>
        <time>2023-08-30T14:07:48Z</time>
      </trkpt>
      <trkpt lat="46.39204" lon="5.60192">
        <ele>695</ele>
        <time>2023-08-30T14:07:49Z</time>
      </trkpt>
      <trkpt lat="46.39206" lon="5.60193">
        <ele>695</ele>
        <time>2023-08-30T14:07:50Z</time>
      </trkpt>
      <trkpt lat="46.39208" lon="5.60195">
        <ele>695</ele>
        <time>2023-08-30T14:07:51Z</time>
      </trkpt>
      <trkpt lat="46.3921" lon="5.60197">
        <ele>695.6</ele>
        <time>2023-08-30T14:07:52Z</time>
      </trkpt>
      <trkpt lat="46.39212" lon="5.60199">
        <ele>695.6</ele>
        <time>2023-08-30T14:07:53Z</time>
      </trkpt>
      <trkpt lat="46.39213" lon="5.602">
        <ele>695.6</ele>
        <time>2023-08-30T14:07:54Z</time>
      </trkpt>
      <trkpt lat="46.39215" lon="5.60201">
        <ele>695.6</ele>
        <time>2023-08-30T14:07:55Z</time>
      </trkpt>
      <trkpt lat="46.39217" lon="5.60203">
        <ele>696</ele>
        <time>2023-08-30T14:07:56Z</time>
      </trkpt>
      <trkpt lat="46.39219" lon="5.60204">
        <ele>696</ele>
        <time>2023-08-30T14:07:57Z</time>
      </trkpt>
      <trkpt lat="46.39221" lon="5.60206">
        <ele>696.2</ele>
        <time>2023-08-30T14:07:58Z</time>
      </trkpt>
      <trkpt lat="46.39223" lon="5.60207">
        <ele>696.2</ele>
        <time>2023-08-30T14:07:59Z</time>
      </trkpt>
      <trkpt lat="46.39226" lon="5.60209">
        <ele>696.2</ele>
        <time>2023-08-30T14:08:00Z</time>
      </trkpt>
      <trkpt lat="46.39228" lon="5.60211">
        <ele>696.6</ele>
        <time>2023-08-30T14:08:01Z</time>
      </trkpt>
      <trkpt lat="46.3923" lon="5.60213">
        <ele>696.4</ele>
        <time>2023-08-30T14:08:02Z</time>
      </trkpt>
      <trkpt lat="46.39232" lon="5.60216">
        <ele>696.4</ele>
        <time>2023-08-30T14:08:03Z</time>
      </trkpt>
      <trkpt lat="46.39234" lon="5.60218">
        <ele>696.4</ele>
        <time>2023-08-30T14:08:04Z</time>
      </trkpt>
      <trkpt lat="46.39236" lon="5.60221">
        <ele>697</ele>
        <time>2023-08-30T14:08:05Z</time>
      </trkpt>
      <trkpt lat="46.39238" lon="5.60223">
        <ele>697.2</ele>
        <time>2023-08-30T14:08:06Z</time>
      </trkpt>
      <trkpt lat="46.3924" lon="5.60225">
        <ele>697.2</ele>
        <time>2023-08-30T14:08:07Z</time>
      </trkpt>
      <trkpt lat="46.39241" lon="5.60227">
        <ele>697.2</ele>
        <time>2023-08-30T14:08:08Z</time>
      </trkpt>
      <trkpt lat="46.39243" lon="5.60229">
        <ele>697.2</ele>
        <time>2023-08-30T14:08:09Z</time>
      </trkpt>
      <trkpt lat="46.39244" lon="5.6023">
        <ele>697.6</ele>
        <time>2023-08-30T14:08:10Z</time>
      </trkpt>
      <trkpt lat="46.39246" lon="5.60232">
        <ele>697.8</ele>
        <time>2023-08-30T14:08:11Z</time>
      </trkpt>
      <trkpt lat="46.39247" lon="5.60234">
        <ele>697.8</ele>
        <time>2023-08-30T14:08:12Z</time>
      </trkpt>
      <trkpt lat="46.39249" lon="5.60236">
        <ele>697.8</ele>
        <time>2023-08-30T14:08:13Z</time>
      </trkpt>
      <trkpt lat="46.3925" lon="5.60239">
        <ele>698.2</ele>
        <time>2023-08-30T14:08:14Z</time>
      </trkpt>
      <trkpt lat="46.39252" lon="5.60241">
        <ele>698.4</ele>
        <time>2023-08-30T14:08:15Z</time>
      </trkpt>
      <trkpt lat="46.39253" lon="5.60243">
        <ele>698.4</ele>
        <time>2023-08-30T14:08:16Z</time>
      </trkpt>
      <trkpt lat="46.39255" lon="5.60246">
        <ele>698.4</ele>
        <time>2023-08-30T14:08:17Z</time>
      </trkpt>
      <trkpt lat="46.39257" lon="5.60248">
        <ele>698.6</ele>
        <time>2023-08-30T14:08:18Z</time>
      </trkpt>
      <trkpt lat="46.39259" lon="5.60251">
        <ele>698.6</ele>
        <time>2023-08-30T14:08:19Z</time>
      </trkpt>
      <trkpt lat="46.39261" lon="5.60253">
        <ele>699</ele>
        <time>2023-08-30T14:08:20Z</time>
      </trkpt>
      <trkpt lat="46.39263" lon="5.60254">
        <ele>699</ele>
        <time>2023-08-30T14:08:21Z</time>
      </trkpt>
      <trkpt lat="46.39265" lon="5.60256">
        <ele>699</ele>
        <time>2023-08-30T14:08:22Z</time>
      </trkpt>
      <trkpt lat="46.39267" lon="5.60257">
        <ele>699.2</ele>
        <time>2023-08-30T14:08:23Z</time>
      </trkpt>
      <trkpt lat="46.39269" lon="5.60259">
        <ele>699.4</ele>
        <time>2023-08-30T14:08:24Z</time>
      </trkpt>
      <trkpt lat="46.39271" lon="5.60261">
        <ele>699.4</ele>
        <time>2023-08-30T14:08:25Z</time>
      </trkpt>
      <trkpt lat="46.39272" lon="5.60262">
        <ele>699.4</ele>
        <time>2023-08-30T14:08:26Z</time>
      </trkpt>
      <trkpt lat="46.39274" lon="5.60264">
        <ele>699.6</ele>
        <time>2023-08-30T14:08:27Z</time>
      </trkpt>
      <trkpt lat="46.39276" lon="5.60266">
        <ele>699.6</ele>
        <time>2023-08-30T14:08:28Z</time>
      </trkpt>
      <trkpt lat="46.39278" lon="5.60267">
        <ele>699.8</ele>
        <time>2023-08-30T14:08:29Z</time>
      </trkpt>
      <trkpt lat="46.3928" lon="5.60269">
        <ele>699.8</ele>
        <time>2023-08-30T14:08:30Z</time>
      </trkpt>
      <trkpt lat="46.39282" lon="5.60271">
        <ele>699.8</ele>
        <time>2023-08-30T14:08:31Z</time>
      </trkpt>
      <trkpt lat="46.39283" lon="5.60273">
        <ele>699.8</ele>
        <time>2023-08-30T14:08:32Z</time>
      </trkpt>
      <trkpt lat="46.39285" lon="5.60276">
        <ele>700.4</ele>
        <time>2023-08-30T14:08:33Z</time>
      </trkpt>
      <trkpt lat="46.39288" lon="5.60278">
        <ele>700.4</ele>
        <time>2023-08-30T14:08:34Z</time>
      </trkpt>
      <trkpt lat="46.3929" lon="5.6028">
        <ele>700.4</ele>
        <time>2023-08-30T14:08:35Z</time>
      </trkpt>
      <trkpt lat="46.39292" lon="5.60282">
        <ele>700.4</ele>
        <time>2023-08-30T14:08:36Z</time>
      </trkpt>
      <trkpt lat="46.39294" lon="5.60284">
        <ele>701</ele>
        <time>2023-08-30T14:08:37Z</time>
      </trkpt>
      <trkpt lat="46.39296" lon="5.60286">
        <ele>701</ele>
        <time>2023-08-30T14:08:38Z</time>
      </trkpt>
      <trkpt lat="46.39297" lon="5.60288">
        <ele>701</ele>
        <time>2023-08-30T14:08:39Z</time>
      </trkpt>
      <trkpt lat="46.39299" lon="5.6029">
        <ele>701</ele>
        <time>2023-08-30T14:08:40Z</time>
      </trkpt>
      <trkpt lat="46.393" lon="5.60293">
        <ele>701.4</ele>
        <time>2023-08-30T14:08:41Z</time>
      </trkpt>
      <trkpt lat="46.39301" lon="5.60295">
        <ele>701.6</ele>
        <time>2023-08-30T14:08:42Z</time>
      </trkpt>
      <trkpt lat="46.39302" lon="5.60298">
        <ele>701.6</ele>
        <time>2023-08-30T14:08:43Z</time>
      </trkpt>
      <trkpt lat="46.39304" lon="5.60299">
        <ele>701.6</ele>
        <time>2023-08-30T14:08:44Z</time>
      </trkpt>
      <trkpt lat="46.39305" lon="5.60301">
        <ele>701.6</ele>
        <time>2023-08-30T14:08:45Z</time>
      </trkpt>
      <trkpt lat="46.39306" lon="5.60304">
        <ele>702</ele>
        <time>2023-08-30T14:08:46Z</time>
      </trkpt>
      <trkpt lat="46.39307" lon="5.60306">
        <ele>702</ele>
        <time>2023-08-30T14:08:47Z</time>
      </trkpt>
      <trkpt lat="46.39308" lon="5.60309">
        <ele>702</ele>
        <time>2023-08-30T14:08:48Z</time>
      </trkpt>
      <trkpt lat="46.39309" lon="5.60311">
        <ele>702</ele>
        <time>2023-08-30T14:08:49Z</time>
      </trkpt>
      <trkpt lat="46.3931" lon="5.60314">
        <ele>702.2</ele>
        <time>2023-08-30T14:08:50Z</time>
      </trkpt>
      <trkpt lat="46.39311" lon="5.60317">
        <ele>702.2</ele>
        <time>2023-08-30T14:08:51Z</time>
      </trkpt>
      <trkpt lat="46.39312" lon="5.60319">
        <ele>702.2</ele>
        <time>2023-08-30T14:08:52Z</time>
      </trkpt>
      <trkpt lat="46.39313" lon="5.60322">
        <ele>702.2</ele>
        <time>2023-08-30T14:08:53Z</time>
      </trkpt>
      <trkpt lat="46.39315" lon="5.60324">
        <ele>702.6</ele>
        <time>2023-08-30T14:08:54Z</time>
      </trkpt>
      <trkpt lat="46.39316" lon="5.60327">
        <ele>702.8</ele>
        <time>2023-08-30T14:08:55Z</time>
      </trkpt>
      <trkpt lat="46.39317" lon="5.60329">
        <ele>702.8</ele>
        <time>2023-08-30T14:08:56Z</time>
      </trkpt>
      <trkpt lat="46.39319" lon="5.60331">
        <ele>702.8</ele>
        <time>2023-08-30T14:08:57Z</time>
      </trkpt>
      <trkpt lat="46.3932" lon="5.60333">
        <ele>702.8</ele>
        <time>2023-08-30T14:08:58Z</time>
      </trkpt>
      <trkpt lat="46.39322" lon="5.60335">
        <ele>703</ele>
        <time>2023-08-30T14:08:59Z</time>
      </trkpt>
      <trkpt lat="46.39324" lon="5.60337">
        <ele>703.4</ele>
        <time>2023-08-30T14:09:00Z</time>
      </trkpt>
      <trkpt lat="46.39326" lon="5.60338">
        <ele>703.4</ele>
        <time>2023-08-30T14:09:01Z</time>
      </trkpt>
      <trkpt lat="46.39328" lon="5.60339">
        <ele>703.4</ele>
        <time>2023-08-30T14:09:02Z</time>
      </trkpt>
      <trkpt lat="46.3933" lon="5.6034">
        <ele>703.4</ele>
        <time>2023-08-30T14:09:03Z</time>
      </trkpt>
      <trkpt lat="46.39332" lon="5.60341">
        <ele>703.6</ele>
        <time>2023-08-30T14:09:04Z</time>
      </trkpt>
      <trkpt lat="46.39334" lon="5.60342">
        <ele>703.6</ele>
        <time>2023-08-30T14:09:05Z</time>
      </trkpt>
      <trkpt lat="46.39336" lon="5.60343">
        <ele>703.6</ele>
        <time>2023-08-30T14:09:06Z</time>
      </trkpt>
      <trkpt lat="46.39337" lon="5.60343">
        <ele>704</ele>
        <time>2023-08-30T14:09:07Z</time>
      </trkpt>
      <trkpt lat="46.39339" lon="5.60344">
        <ele>704</ele>
        <time>2023-08-30T14:09:08Z</time>
      </trkpt>
      <trkpt lat="46.39341" lon="5.60344">
        <ele>704</ele>
        <time>2023-08-30T14:09:09Z</time>
      </trkpt>
      <trkpt lat="46.39343" lon="5.60344">
        <ele>704</ele>
        <time>2023-08-30T14:09:10Z</time>
      </trkpt>
      <trkpt lat="46.39345" lon="5.60344">
        <ele>704</ele>
        <time>2023-08-30T14:09:11Z</time>
      </trkpt>
      <trkpt lat="46.39347" lon="5.60344">
        <ele>704</ele>
        <time>2023-08-30T14:09:12Z</time>
      </trkpt>
      <trkpt lat="46.3935" lon="5.60344">
        <ele>704.4</ele>
        <time>2023-08-30T14:09:13Z</time>
      </trkpt>
      <trkpt lat="46.39352" lon="5.60345">
        <ele>704.4</ele>
        <time>2023-08-30T14:09:14Z</time>
      </trkpt>
      <trkpt lat="46.39354" lon="5.60345">
        <ele>704.4</ele>
        <time>2023-08-30T14:09:15Z</time>
      </trkpt>
      <trkpt lat="46.39356" lon="5.60346">
        <ele>704.4</ele>
        <time>2023-08-30T14:09:16Z</time>
      </trkpt>
      <trkpt lat="46.39358" lon="5.60348">
        <ele>704.6</ele>
        <time>2023-08-30T14:09:17Z</time>
      </trkpt>
      <trkpt lat="46.39361" lon="5.60349">
        <ele>704.6</ele>
        <time>2023-08-30T14:09:18Z</time>
      </trkpt>
      <trkpt lat="46.39363" lon="5.6035">
        <ele>705</ele>
        <time>2023-08-30T14:09:19Z</time>
      </trkpt>
      <trkpt lat="46.39365" lon="5.60351">
        <ele>705</ele>
        <time>2023-08-30T14:09:20Z</time>
      </trkpt>
      <trkpt lat="46.39367" lon="5.60352">
        <ele>705</ele>
        <time>2023-08-30T14:09:21Z</time>
      </trkpt>
      <trkpt lat="46.3937" lon="5.60353">
        <ele>705.6</ele>
        <time>2023-08-30T14:09:22Z</time>
      </trkpt>
      <trkpt lat="46.39372" lon="5.60354">
        <ele>705.8</ele>
        <time>2023-08-30T14:09:23Z</time>
      </trkpt>
      <trkpt lat="46.39373" lon="5.60356">
        <ele>705.8</ele>
        <time>2023-08-30T14:09:24Z</time>
      </trkpt>
      <trkpt lat="46.39375" lon="5.60358">
        <ele>705.8</ele>
        <time>2023-08-30T14:09:25Z</time>
      </trkpt>
      <trkpt lat="46.39377" lon="5.60359">
        <ele>706.4</ele>
        <time>2023-08-30T14:09:26Z</time>
      </trkpt>
      <trkpt lat="46.39379" lon="5.6036">
        <ele>706.4</ele>
        <time>2023-08-30T14:09:27Z</time>
      </trkpt>
      <trkpt lat="46.39381" lon="5.60362">
        <ele>706.4</ele>
        <time>2023-08-30T14:09:28Z</time>
      </trkpt>
      <trkpt lat="46.39384" lon="5.60364">
        <ele>706.4</ele>
        <time>2023-08-30T14:09:29Z</time>
      </trkpt>
      <trkpt lat="46.39386" lon="5.60366">
        <ele>707.2</ele>
        <time>2023-08-30T14:09:30Z</time>
      </trkpt>
      <trkpt lat="46.39388" lon="5.60368">
        <ele>707.2</ele>
        <time>2023-08-30T14:09:31Z</time>
      </trkpt>
      <trkpt lat="46.3939" lon="5.6037">
        <ele>707.2</ele>
        <time>2023-08-30T14:09:32Z</time>
      </trkpt>
      <trkpt lat="46.39392" lon="5.60372">
        <ele>707.2</ele>
        <time>2023-08-30T14:09:33Z</time>
      </trkpt>
      <trkpt lat="46.39394" lon="5.60374">
        <ele>707.2</ele>
        <time>2023-08-30T14:09:34Z</time>
      </trkpt>
      <trkpt lat="46.39396" lon="5.60376">
        <ele>707.6</ele>
        <time>2023-08-30T14:09:35Z</time>
      </trkpt>
      <trkpt lat="46.39398" lon="5.60378">
        <ele>707.8</ele>
        <time>2023-08-30T14:09:36Z</time>
      </trkpt>
      <trkpt lat="46.39399" lon="5.60381">
        <ele>707.8</ele>
        <time>2023-08-30T14:09:37Z</time>
      </trkpt>
      <trkpt lat="46.39402" lon="5.60383">
        <ele>707.8</ele>
        <time>2023-08-30T14:09:38Z</time>
      </trkpt>
      <trkpt lat="46.39404" lon="5.60385">
        <ele>708.4</ele>
        <time>2023-08-30T14:09:39Z</time>
      </trkpt>
      <trkpt lat="46.39406" lon="5.60386">
        <ele>708.4</ele>
        <time>2023-08-30T14:09:40Z</time>
      </trkpt>
      <trkpt lat="46.39408" lon="5.60388">
        <ele>708.6</ele>
        <time>2023-08-30T14:09:41Z</time>
      </trkpt>
      <trkpt lat="46.3941" lon="5.6039">
        <ele>708.6</ele>
        <time>2023-08-30T14:09:42Z</time>
      </trkpt>
      <trkpt lat="46.39412" lon="5.60392">
        <ele>708.6</ele>
        <time>2023-08-30T14:09:43Z</time>
      </trkpt>
      <trkpt lat="46.39414" lon="5.60395">
        <ele>709.2</ele>
        <time>2023-08-30T14:09:44Z</time>
      </trkpt>
      <trkpt lat="46.39416" lon="5.60397">
        <ele>709.4</ele>
        <time>2023-08-30T14:09:45Z</time>
      </trkpt>
      <trkpt lat="46.39418" lon="5.60399">
        <ele>709.4</ele>
        <time>2023-08-30T14:09:46Z</time>
      </trkpt>
      <trkpt lat="46.3942" lon="5.60401">
        <ele>709.4</ele>
        <time>2023-08-30T14:09:47Z</time>
      </trkpt>
      <trkpt lat="46.39422" lon="5.60403">
        <ele>710</ele>
        <time>2023-08-30T14:09:48Z</time>
      </trkpt>
      <trkpt lat="46.39424" lon="5.60405">
        <ele>710.2</ele>
        <time>2023-08-30T14:09:49Z</time>
      </trkpt>
      <trkpt lat="46.39426" lon="5.60407">
        <ele>710.2</ele>
        <time>2023-08-30T14:09:50Z</time>
      </trkpt>
      <trkpt lat="46.39428" lon="5.60408">
        <ele>710.2</ele>
        <time>2023-08-30T14:09:51Z</time>
      </trkpt>
      <trkpt lat="46.3943" lon="5.6041">
        <ele>710.8</ele>
        <time>2023-08-30T14:09:52Z</time>
      </trkpt>
      <trkpt lat="46.39433" lon="5.60411">
        <ele>710.8</ele>
        <time>2023-08-30T14:09:53Z</time>
      </trkpt>
      <trkpt lat="46.39435" lon="5.60413">
        <ele>710.8</ele>
        <time>2023-08-30T14:09:54Z</time>
      </trkpt>
      <trkpt lat="46.39437" lon="5.60414">
        <ele>710.6</ele>
        <time>2023-08-30T14:09:55Z</time>
      </trkpt>
      <trkpt lat="46.39439" lon="5.60416">
        <ele>710.6</ele>
        <time>2023-08-30T14:09:56Z</time>
      </trkpt>
      <trkpt lat="46.39441" lon="5.60418">
        <ele>710.6</ele>
        <time>2023-08-30T14:09:57Z</time>
      </trkpt>
      <trkpt lat="46.39442" lon="5.60419">
        <ele>711</ele>
        <time>2023-08-30T14:09:58Z</time>
      </trkpt>
      <trkpt lat="46.39445" lon="5.6042">
        <ele>711.4</ele>
        <time>2023-08-30T14:09:59Z</time>
      </trkpt>
      <trkpt lat="46.39447" lon="5.60422">
        <ele>711.4</ele>
        <time>2023-08-30T14:10:00Z</time>
      </trkpt>
      <trkpt lat="46.39449" lon="5.60424">
        <ele>711.4</ele>
        <time>2023-08-30T14:10:01Z</time>
      </trkpt>
      <trkpt lat="46.39451" lon="5.60426">
        <ele>711.4</ele>
        <time>2023-08-30T14:10:02Z</time>
      </trkpt>
      <trkpt lat="46.39453" lon="5.60427">
        <ele>712.2</ele>
        <time>2023-08-30T14:10:03Z</time>
      </trkpt>
      <trkpt lat="46.39455" lon="5.60429">
        <ele>712.2</ele>
        <time>2023-08-30T14:10:04Z</time>
      </trkpt>
      <trkpt lat="46.39457" lon="5.60431">
        <ele>712.2</ele>
        <time>2023-08-30T14:10:05Z</time>
      </trkpt>
      <trkpt lat="46.39459" lon="5.60432">
        <ele>712.2</ele>
        <time>2023-08-30T14:10:06Z</time>
      </trkpt>
      <trkpt lat="46.39461" lon="5.60433">
        <ele>712.6</ele>
        <time>2023-08-30T14:10:07Z</time>
      </trkpt>
      <trkpt lat="46.39463" lon="5.60435">
        <ele>712.6</ele>
        <time>2023-08-30T14:10:08Z</time>
      </trkpt>
      <trkpt lat="46.39465" lon="5.60436">
        <ele>712.6</ele>
        <time>2023-08-30T14:10:09Z</time>
      </trkpt>
      <trkpt lat="46.39467" lon="5.60438">
        <ele>712.6</ele>
        <time>2023-08-30T14:10:10Z</time>
      </trkpt>
      <trkpt lat="46.39469" lon="5.6044">
        <ele>713</ele>
        <time>2023-08-30T14:10:11Z</time>
      </trkpt>
      <trkpt lat="46.39471" lon="5.60442">
        <ele>713.2</ele>
        <time>2023-08-30T14:10:12Z</time>
      </trkpt>
      <trkpt lat="46.39473" lon="5.60444">
        <ele>713.2</ele>
        <time>2023-08-30T14:10:13Z</time>
      </trkpt>
      <trkpt lat="46.39475" lon="5.60446">
        <ele>713.2</ele>
        <time>2023-08-30T14:10:14Z</time>
      </trkpt>
      <trkpt lat="46.39477" lon="5.60447">
        <ele>713.4</ele>
        <time>2023-08-30T14:10:15Z</time>
      </trkpt>
      <trkpt lat="46.39478" lon="5.60448">
        <ele>713.4</ele>
        <time>2023-08-30T14:10:16Z</time>
      </trkpt>
      <trkpt lat="46.39479" lon="5.6045">
        <ele>713.6</ele>
        <time>2023-08-30T14:10:17Z</time>
      </trkpt>
      <trkpt lat="46.39481" lon="5.60451">
        <ele>713.6</ele>
        <time>2023-08-30T14:10:18Z</time>
      </trkpt>
      <trkpt lat="46.39483" lon="5.60453">
        <ele>713.6</ele>
        <time>2023-08-30T14:10:19Z</time>
      </trkpt>
      <trkpt lat="46.39485" lon="5.60454">
        <ele>714.4</ele>
        <time>2023-08-30T14:10:20Z</time>
      </trkpt>
      <trkpt lat="46.39487" lon="5.60456">
        <ele>714.2</ele>
        <time>2023-08-30T14:10:21Z</time>
      </trkpt>
      <trkpt lat="46.3949" lon="5.60458">
        <ele>714.2</ele>
        <time>2023-08-30T14:10:22Z</time>
      </trkpt>
      <trkpt lat="46.39492" lon="5.6046">
        <ele>714.2</ele>
        <time>2023-08-30T14:10:23Z</time>
      </trkpt>
      <trkpt lat="46.39494" lon="5.60462">
        <ele>714.6</ele>
        <time>2023-08-30T14:10:24Z</time>
      </trkpt>
      <trkpt lat="46.39496" lon="5.60464">
        <ele>715</ele>
        <time>2023-08-30T14:10:25Z</time>
      </trkpt>
      <trkpt lat="46.39498" lon="5.60466">
        <ele>715</ele>
        <time>2023-08-30T14:10:26Z</time>
      </trkpt>
      <trkpt lat="46.39499" lon="5.6047">
        <ele>715</ele>
        <time>2023-08-30T14:10:27Z</time>
      </trkpt>
      <trkpt lat="46.39501" lon="5.60473">
        <ele>715</ele>
        <time>2023-08-30T14:10:28Z</time>
      </trkpt>
      <trkpt lat="46.39503" lon="5.60475">
        <ele>715.6</ele>
        <time>2023-08-30T14:10:29Z</time>
      </trkpt>
      <trkpt lat="46.39504" lon="5.60478">
        <ele>715.4</ele>
        <time>2023-08-30T14:10:30Z</time>
      </trkpt>
      <trkpt lat="46.39506" lon="5.60481">
        <ele>715.4</ele>
        <time>2023-08-30T14:10:31Z</time>
      </trkpt>
      <trkpt lat="46.39508" lon="5.60483">
        <ele>715.4</ele>
        <time>2023-08-30T14:10:32Z</time>
      </trkpt>
      <trkpt lat="46.39509" lon="5.60486">
        <ele>716.2</ele>
        <time>2023-08-30T14:10:33Z</time>
      </trkpt>
      <trkpt lat="46.39511" lon="5.60488">
        <ele>716.2</ele>
        <time>2023-08-30T14:10:34Z</time>
      </trkpt>
      <trkpt lat="46.39514" lon="5.60491">
        <ele>716.2</ele>
        <time>2023-08-30T14:10:35Z</time>
      </trkpt>
      <trkpt lat="46.39515" lon="5.60493">
        <ele>716.2</ele>
        <time>2023-08-30T14:10:36Z</time>
      </trkpt>
      <trkpt lat="46.39517" lon="5.60496">
        <ele>716.2</ele>
        <time>2023-08-30T14:10:37Z</time>
      </trkpt>
      <trkpt lat="46.39519" lon="5.60499">
        <ele>716.8</ele>
        <time>2023-08-30T14:10:38Z</time>
      </trkpt>
      <trkpt lat="46.39521" lon="5.60501">
        <ele>717</ele>
        <time>2023-08-30T14:10:39Z</time>
      </trkpt>
      <trkpt lat="46.39523" lon="5.60503">
        <ele>717</ele>
        <time>2023-08-30T14:10:40Z</time>
      </trkpt>
      <trkpt lat="46.39526" lon="5.60505">
        <ele>717</ele>
        <time>2023-08-30T14:10:41Z</time>
      </trkpt>
      <trkpt lat="46.39528" lon="5.60507">
        <ele>717</ele>
        <time>2023-08-30T14:10:42Z</time>
      </trkpt>
      <trkpt lat="46.3953" lon="5.60508">
        <ele>717.4</ele>
        <time>2023-08-30T14:10:43Z</time>
      </trkpt>
      <trkpt lat="46.39532" lon="5.6051">
        <ele>717.6</ele>
        <time>2023-08-30T14:10:44Z</time>
      </trkpt>
      <trkpt lat="46.39534" lon="5.60511">
        <ele>717.6</ele>
        <time>2023-08-30T14:10:45Z</time>
      </trkpt>
      <trkpt lat="46.39537" lon="5.60513">
        <ele>717.6</ele>
        <time>2023-08-30T14:10:46Z</time>
      </trkpt>
      <trkpt lat="46.39539" lon="5.60515">
        <ele>718</ele>
        <time>2023-08-30T14:10:47Z</time>
      </trkpt>
      <trkpt lat="46.39541" lon="5.60518">
        <ele>718</ele>
        <time>2023-08-30T14:10:48Z</time>
      </trkpt>
      <trkpt lat="46.39543" lon="5.6052">
        <ele>718</ele>
        <time>2023-08-30T14:10:49Z</time>
      </trkpt>
      <trkpt lat="46.39545" lon="5.60523">
        <ele>718</ele>
        <time>2023-08-30T14:10:50Z</time>
      </trkpt>
      <trkpt lat="46.39547" lon="5.60525">
        <ele>718</ele>
        <time>2023-08-30T14:10:51Z</time>
      </trkpt>
      <trkpt lat="46.39549" lon="5.60527">
        <ele>718</ele>
        <time>2023-08-30T14:10:52Z</time>
      </trkpt>
      <trkpt lat="46.39551" lon="5.6053">
        <ele>718.4</ele>
        <time>2023-08-30T14:10:53Z</time>
      </trkpt>
      <trkpt lat="46.39552" lon="5.60532">
        <ele>718.4</ele>
        <time>2023-08-30T14:10:54Z</time>
      </trkpt>
      <trkpt lat="46.39555" lon="5.60534">
        <ele>718.4</ele>
        <time>2023-08-30T14:10:55Z</time>
      </trkpt>
      <trkpt lat="46.39557" lon="5.60536">
        <ele>718.8</ele>
        <time>2023-08-30T14:10:56Z</time>
      </trkpt>
      <trkpt lat="46.39559" lon="5.60538">
        <ele>719</ele>
        <time>2023-08-30T14:10:57Z</time>
      </trkpt>
      <trkpt lat="46.39561" lon="5.6054">
        <ele>719</ele>
        <time>2023-08-30T14:10:58Z</time>
      </trkpt>
      <trkpt lat="46.39563" lon="5.60542">
        <ele>719</ele>
        <time>2023-08-30T14:10:59Z</time>
      </trkpt>
      <trkpt lat="46.39565" lon="5.60544">
        <ele>719</ele>
        <time>2023-08-30T14:11:00Z</time>
      </trkpt>
      <trkpt lat="46.39567" lon="5.60546">
        <ele>719</ele>
        <time>2023-08-30T14:11:01Z</time>
      </trkpt>
      <trkpt lat="46.39569" lon="5.60548">
        <ele>719.4</ele>
        <time>2023-08-30T14:11:02Z</time>
      </trkpt>
      <trkpt lat="46.39571" lon="5.6055">
        <ele>719.4</ele>
        <time>2023-08-30T14:11:03Z</time>
      </trkpt>
      <trkpt lat="46.39573" lon="5.60552">
        <ele>719.4</ele>
        <time>2023-08-30T14:11:04Z</time>
      </trkpt>
      <trkpt lat="46.39575" lon="5.60555">
        <ele>720</ele>
        <time>2023-08-30T14:11:05Z</time>
      </trkpt>
      <trkpt lat="46.39576" lon="5.60558">
        <ele>720.2</ele>
        <time>2023-08-30T14:11:06Z</time>
      </trkpt>
      <trkpt lat="46.39578" lon="5.60561">
        <ele>720.2</ele>
        <time>2023-08-30T14:11:07Z</time>
      </trkpt>
      <trkpt lat="46.39579" lon="5.60563">
        <ele>720.2</ele>
        <time>2023-08-30T14:11:08Z</time>
      </trkpt>
      <trkpt lat="46.3958" lon="5.60566">
        <ele>720.2</ele>
        <time>2023-08-30T14:11:09Z</time>
      </trkpt>
      <trkpt lat="46.39582" lon="5.60568">
        <ele>720.2</ele>
        <time>2023-08-30T14:11:10Z</time>
      </trkpt>
      <trkpt lat="46.39585" lon="5.6057">
        <ele>720.2</ele>
        <time>2023-08-30T14:11:11Z</time>
      </trkpt>
      <trkpt lat="46.39587" lon="5.60572">
        <ele>720.6</ele>
        <time>2023-08-30T14:11:12Z</time>
      </trkpt>
      <trkpt lat="46.3959" lon="5.60574">
        <ele>720.6</ele>
        <time>2023-08-30T14:11:13Z</time>
      </trkpt>
      <trkpt lat="46.39592" lon="5.60577">
        <ele>720.6</ele>
        <time>2023-08-30T14:11:14Z</time>
      </trkpt>
      <trkpt lat="46.39593" lon="5.60579">
        <ele>721</ele>
        <time>2023-08-30T14:11:15Z</time>
      </trkpt>
      <trkpt lat="46.39595" lon="5.60582">
        <ele>721</ele>
        <time>2023-08-30T14:11:16Z</time>
      </trkpt>
      <trkpt lat="46.39596" lon="5.60585">
        <ele>721</ele>
        <time>2023-08-30T14:11:17Z</time>
      </trkpt>
      <trkpt lat="46.39598" lon="5.60588">
        <ele>721</ele>
        <time>2023-08-30T14:11:18Z</time>
      </trkpt>
      <trkpt lat="46.39599" lon="5.60591">
        <ele>721.4</ele>
        <time>2023-08-30T14:11:19Z</time>
      </trkpt>
      <trkpt lat="46.39601" lon="5.60594">
        <ele>721.4</ele>
        <time>2023-08-30T14:11:20Z</time>
      </trkpt>
      <trkpt lat="46.39602" lon="5.60597">
        <ele>721.4</ele>
        <time>2023-08-30T14:11:21Z</time>
      </trkpt>
      <trkpt lat="46.39603" lon="5.60601">
        <ele>721.4</ele>
        <time>2023-08-30T14:11:22Z</time>
      </trkpt>
      <trkpt lat="46.39604" lon="5.60604">
        <ele>721.4</ele>
        <time>2023-08-30T14:11:23Z</time>
      </trkpt>
      <trkpt lat="46.39605" lon="5.60606">
        <ele>721.6</ele>
        <time>2023-08-30T14:11:24Z</time>
      </trkpt>
      <trkpt lat="46.39607" lon="5.60609">
        <ele>721.8</ele>
        <time>2023-08-30T14:11:25Z</time>
      </trkpt>
      <trkpt lat="46.39608" lon="5.60612">
        <ele>721.8</ele>
        <time>2023-08-30T14:11:26Z</time>
      </trkpt>
      <trkpt lat="46.39609" lon="5.60615">
        <ele>721.8</ele>
        <time>2023-08-30T14:11:27Z</time>
      </trkpt>
      <trkpt lat="46.3961" lon="5.60618">
        <ele>721.8</ele>
        <time>2023-08-30T14:11:28Z</time>
      </trkpt>
      <trkpt lat="46.39612" lon="5.60621">
        <ele>722.4</ele>
        <time>2023-08-30T14:11:29Z</time>
      </trkpt>
      <trkpt lat="46.39613" lon="5.60624">
        <ele>722.4</ele>
        <time>2023-08-30T14:11:30Z</time>
      </trkpt>
      <trkpt lat="46.39614" lon="5.60626">
        <ele>722.4</ele>
        <time>2023-08-30T14:11:31Z</time>
      </trkpt>
      <trkpt lat="46.39616" lon="5.60629">
        <ele>722.4</ele>
        <time>2023-08-30T14:11:32Z</time>
      </trkpt>
      <trkpt lat="46.39617" lon="5.60632">
        <ele>722.4</ele>
        <time>2023-08-30T14:11:33Z</time>
      </trkpt>
      <trkpt lat="46.39619" lon="5.60635">
        <ele>723</ele>
        <time>2023-08-30T14:11:34Z</time>
      </trkpt>
      <trkpt lat="46.3962" lon="5.60638">
        <ele>723</ele>
        <time>2023-08-30T14:11:35Z</time>
      </trkpt>
      <trkpt lat="46.39622" lon="5.60641">
        <ele>723</ele>
        <time>2023-08-30T14:11:36Z</time>
      </trkpt>
      <trkpt lat="46.39623" lon="5.60644">
        <ele>723</ele>
        <time>2023-08-30T14:11:37Z</time>
      </trkpt>
      <trkpt lat="46.39624" lon="5.60647">
        <ele>723.4</ele>
        <time>2023-08-30T14:11:38Z</time>
      </trkpt>
      <trkpt lat="46.39625" lon="5.60649">
        <ele>723.4</ele>
        <time>2023-08-30T14:11:39Z</time>
      </trkpt>
      <trkpt lat="46.39627" lon="5.60652">
        <ele>723.4</ele>
        <time>2023-08-30T14:11:40Z</time>
      </trkpt>
      <trkpt lat="46.39628" lon="5.60654">
        <ele>724</ele>
        <time>2023-08-30T14:11:41Z</time>
      </trkpt>
      <trkpt lat="46.39629" lon="5.60657">
        <ele>723.8</ele>
        <time>2023-08-30T14:11:42Z</time>
      </trkpt>
      <trkpt lat="46.39631" lon="5.6066">
        <ele>723.8</ele>
        <time>2023-08-30T14:11:43Z</time>
      </trkpt>
      <trkpt lat="46.39632" lon="5.60663">
        <ele>723.8</ele>
        <time>2023-08-30T14:11:44Z</time>
      </trkpt>
      <trkpt lat="46.39633" lon="5.60666">
        <ele>724.4</ele>
        <time>2023-08-30T14:11:45Z</time>
      </trkpt>
      <trkpt lat="46.39634" lon="5.60669">
        <ele>724.4</ele>
        <time>2023-08-30T14:11:46Z</time>
      </trkpt>
      <trkpt lat="46.39635" lon="5.60672">
        <ele>724.6</ele>
        <time>2023-08-30T14:11:47Z</time>
      </trkpt>
      <trkpt lat="46.39637" lon="5.60675">
        <ele>724.6</ele>
        <time>2023-08-30T14:11:48Z</time>
      </trkpt>
      <trkpt lat="46.39638" lon="5.60678">
        <ele>724.6</ele>
        <time>2023-08-30T14:11:49Z</time>
      </trkpt>
      <trkpt lat="46.39639" lon="5.60681">
        <ele>725</ele>
        <time>2023-08-30T14:11:50Z</time>
      </trkpt>
      <trkpt lat="46.3964" lon="5.60684">
        <ele>725.2</ele>
        <time>2023-08-30T14:11:51Z</time>
      </trkpt>
      <trkpt lat="46.39641" lon="5.60686">
        <ele>725.2</ele>
        <time>2023-08-30T14:11:52Z</time>
      </trkpt>
      <trkpt lat="46.39642" lon="5.60689">
        <ele>725.2</ele>
        <time>2023-08-30T14:11:53Z</time>
      </trkpt>
      <trkpt lat="46.39644" lon="5.60692">
        <ele>725.2</ele>
        <time>2023-08-30T14:11:54Z</time>
      </trkpt>
      <trkpt lat="46.39645" lon="5.60695">
        <ele>725.8</ele>
        <time>2023-08-30T14:11:55Z</time>
      </trkpt>
      <trkpt lat="46.39647" lon="5.60697">
        <ele>725.8</ele>
        <time>2023-08-30T14:11:56Z</time>
      </trkpt>
      <trkpt lat="46.39648" lon="5.60699">
        <ele>725.8</ele>
        <time>2023-08-30T14:11:57Z</time>
      </trkpt>
      <trkpt lat="46.39649" lon="5.60701">
        <ele>725.8</ele>
        <time>2023-08-30T14:11:58Z</time>
      </trkpt>
      <trkpt lat="46.3965" lon="5.60704">
        <ele>726</ele>
        <time>2023-08-30T14:11:59Z</time>
      </trkpt>
      <trkpt lat="46.39651" lon="5.60707">
        <ele>726.2</ele>
        <time>2023-08-30T14:12:00Z</time>
      </trkpt>
      <trkpt lat="46.39653" lon="5.60709">
        <ele>726.2</ele>
        <time>2023-08-30T14:12:01Z</time>
      </trkpt>
      <trkpt lat="46.39654" lon="5.60712">
        <ele>726.2</ele>
        <time>2023-08-30T14:12:02Z</time>
      </trkpt>
      <trkpt lat="46.39655" lon="5.60715">
        <ele>726.4</ele>
        <time>2023-08-30T14:12:03Z</time>
      </trkpt>
      <trkpt lat="46.39657" lon="5.60718">
        <ele>726.4</ele>
        <time>2023-08-30T14:12:04Z</time>
      </trkpt>
      <trkpt lat="46.39658" lon="5.60721">
        <ele>726.4</ele>
        <time>2023-08-30T14:12:05Z</time>
      </trkpt>
      <trkpt lat="46.3966" lon="5.60723">
        <ele>726.4</ele>
        <time>2023-08-30T14:12:06Z</time>
      </trkpt>
      <trkpt lat="46.39661" lon="5.60726">
        <ele>726.4</ele>
        <time>2023-08-30T14:12:07Z</time>
      </trkpt>
      <trkpt lat="46.39663" lon="5.60729">
        <ele>726.8</ele>
        <time>2023-08-30T14:12:08Z</time>
      </trkpt>
      <trkpt lat="46.39665" lon="5.60732">
        <ele>727</ele>
        <time>2023-08-30T14:12:09Z</time>
      </trkpt>
      <trkpt lat="46.39666" lon="5.60735">
        <ele>727</ele>
        <time>2023-08-30T14:12:10Z</time>
      </trkpt>
      <trkpt lat="46.39668" lon="5.60738">
        <ele>727</ele>
        <time>2023-08-30T14:12:11Z</time>
      </trkpt>
      <trkpt lat="46.39669" lon="5.60742">
        <ele>727</ele>
        <time>2023-08-30T14:12:12Z</time>
      </trkpt>
      <trkpt lat="46.3967" lon="5.60745">
        <ele>727.4</ele>
        <time>2023-08-30T14:12:13Z</time>
      </trkpt>
      <trkpt lat="46.39671" lon="5.60748">
        <ele>727.2</ele>
        <time>2023-08-30T14:12:14Z</time>
      </trkpt>
      <trkpt lat="46.39672" lon="5.60751">
        <ele>727.2</ele>
        <time>2023-08-30T14:12:15Z</time>
      </trkpt>
      <trkpt lat="46.39674" lon="5.60754">
        <ele>727.2</ele>
        <time>2023-08-30T14:12:16Z</time>
      </trkpt>
      <trkpt lat="46.39674" lon="5.60758">
        <ele>727.8</ele>
        <time>2023-08-30T14:12:17Z</time>
      </trkpt>
      <trkpt lat="46.39675" lon="5.60761">
        <ele>727.8</ele>
        <time>2023-08-30T14:12:18Z</time>
      </trkpt>
      <trkpt lat="46.39676" lon="5.60764">
        <ele>727.8</ele>
        <time>2023-08-30T14:12:19Z</time>
      </trkpt>
      <trkpt lat="46.39677" lon="5.60768">
        <ele>727.8</ele>
        <time>2023-08-30T14:12:20Z</time>
      </trkpt>
      <trkpt lat="46.39679" lon="5.60771">
        <ele>728.2</ele>
        <time>2023-08-30T14:12:21Z</time>
      </trkpt>
      <trkpt lat="46.39679" lon="5.60774">
        <ele>728.2</ele>
        <time>2023-08-30T14:12:22Z</time>
      </trkpt>
      <trkpt lat="46.3968" lon="5.60777">
        <ele>728.2</ele>
        <time>2023-08-30T14:12:23Z</time>
      </trkpt>
      <trkpt lat="46.39681" lon="5.6078">
        <ele>728.2</ele>
        <time>2023-08-30T14:12:24Z</time>
      </trkpt>
      <trkpt lat="46.39681" lon="5.60784">
        <ele>728.2</ele>
        <time>2023-08-30T14:12:25Z</time>
      </trkpt>
      <trkpt lat="46.39682" lon="5.60788">
        <ele>728.8</ele>
        <time>2023-08-30T14:12:26Z</time>
      </trkpt>
      <trkpt lat="46.39683" lon="5.60791">
        <ele>728.8</ele>
        <time>2023-08-30T14:12:27Z</time>
      </trkpt>
      <trkpt lat="46.39683" lon="5.60794">
        <ele>728.8</ele>
        <time>2023-08-30T14:12:28Z</time>
      </trkpt>
      <trkpt lat="46.39684" lon="5.60798">
        <ele>728.8</ele>
        <time>2023-08-30T14:12:29Z</time>
      </trkpt>
      <trkpt lat="46.39685" lon="5.60801">
        <ele>729</ele>
        <time>2023-08-30T14:12:30Z</time>
      </trkpt>
      <trkpt lat="46.39686" lon="5.60804">
        <ele>729.4</ele>
        <time>2023-08-30T14:12:31Z</time>
      </trkpt>
      <trkpt lat="46.39686" lon="5.60808">
        <ele>729.4</ele>
        <time>2023-08-30T14:12:32Z</time>
      </trkpt>
      <trkpt lat="46.39686" lon="5.60811">
        <ele>729.4</ele>
        <time>2023-08-30T14:12:33Z</time>
      </trkpt>
      <trkpt lat="46.39686" lon="5.60815">
        <ele>729.4</ele>
        <time>2023-08-30T14:12:34Z</time>
      </trkpt>
      <trkpt lat="46.39687" lon="5.60818">
        <ele>729.8</ele>
        <time>2023-08-30T14:12:35Z</time>
      </trkpt>
      <trkpt lat="46.39687" lon="5.60822">
        <ele>729.8</ele>
        <time>2023-08-30T14:12:36Z</time>
      </trkpt>
      <trkpt lat="46.39688" lon="5.60826">
        <ele>729.8</ele>
        <time>2023-08-30T14:12:37Z</time>
      </trkpt>
      <trkpt lat="46.39688" lon="5.60829">
        <ele>729.8</ele>
        <time>2023-08-30T14:12:38Z</time>
      </trkpt>
      <trkpt lat="46.39689" lon="5.60832">
        <ele>730.2</ele>
        <time>2023-08-30T14:12:39Z</time>
      </trkpt>
      <trkpt lat="46.39689" lon="5.60835">
        <ele>730.6</ele>
        <time>2023-08-30T14:12:40Z</time>
      </trkpt>
      <trkpt lat="46.3969" lon="5.60838">
        <ele>730.6</ele>
        <time>2023-08-30T14:12:41Z</time>
      </trkpt>
      <trkpt lat="46.3969" lon="5.60841">
        <ele>730.6</ele>
        <time>2023-08-30T14:12:42Z</time>
      </trkpt>
      <trkpt lat="46.3969" lon="5.60845">
        <ele>730.6</ele>
        <time>2023-08-30T14:12:43Z</time>
      </trkpt>
      <trkpt lat="46.3969" lon="5.60848">
        <ele>731</ele>
        <time>2023-08-30T14:12:44Z</time>
      </trkpt>
      <trkpt lat="46.3969" lon="5.60852">
        <ele>731</ele>
        <time>2023-08-30T14:12:45Z</time>
      </trkpt>
      <trkpt lat="46.39689" lon="5.60854">
        <ele>731</ele>
        <time>2023-08-30T14:12:46Z</time>
      </trkpt>
      <trkpt lat="46.39688" lon="5.60857">
        <ele>731.4</ele>
        <time>2023-08-30T14:12:47Z</time>
      </trkpt>
      <trkpt lat="46.39686" lon="5.60858">
        <ele>732</ele>
        <time>2023-08-30T14:12:48Z</time>
      </trkpt>
      <trkpt lat="46.39684" lon="5.60858">
        <ele>732</ele>
        <time>2023-08-30T14:12:49Z</time>
      </trkpt>
      <trkpt lat="46.39682" lon="5.60858">
        <ele>732</ele>
        <time>2023-08-30T14:12:50Z</time>
      </trkpt>
      <trkpt lat="46.39681" lon="5.60857">
        <ele>732</ele>
        <time>2023-08-30T14:12:51Z</time>
      </trkpt>
      <trkpt lat="46.39679" lon="5.60857">
        <ele>732</ele>
        <time>2023-08-30T14:12:52Z</time>
      </trkpt>
      <trkpt lat="46.39677" lon="5.60855">
        <ele>732</ele>
        <time>2023-08-30T14:12:53Z</time>
      </trkpt>
      <trkpt lat="46.39675" lon="5.60853">
        <ele>732</ele>
        <time>2023-08-30T14:12:54Z</time>
      </trkpt>
      <trkpt lat="46.39674" lon="5.6085">
        <ele>732.6</ele>
        <time>2023-08-30T14:12:55Z</time>
      </trkpt>
      <trkpt lat="46.39672" lon="5.60848">
        <ele>732.6</ele>
        <time>2023-08-30T14:12:56Z</time>
      </trkpt>
      <trkpt lat="46.39671" lon="5.60845">
        <ele>732.6</ele>
        <time>2023-08-30T14:12:57Z</time>
      </trkpt>
      <trkpt lat="46.3967" lon="5.60843">
        <ele>733.2</ele>
        <time>2023-08-30T14:12:58Z</time>
      </trkpt>
      <trkpt lat="46.39668" lon="5.6084">
        <ele>733.2</ele>
        <time>2023-08-30T14:12:59Z</time>
      </trkpt>
      <trkpt lat="46.39667" lon="5.60838">
        <ele>733.2</ele>
        <time>2023-08-30T14:13:00Z</time>
      </trkpt>
      <trkpt lat="46.39665" lon="5.60836">
        <ele>733.6</ele>
        <time>2023-08-30T14:13:01Z</time>
      </trkpt>
      <trkpt lat="46.39663" lon="5.60834">
        <ele>733.6</ele>
        <time>2023-08-30T14:13:02Z</time>
      </trkpt>
      <trkpt lat="46.39661" lon="5.60832">
        <ele>733.6</ele>
        <time>2023-08-30T14:13:03Z</time>
      </trkpt>
      <trkpt lat="46.39658" lon="5.60831">
        <ele>733.6</ele>
        <time>2023-08-30T14:13:04Z</time>
      </trkpt>
      <trkpt lat="46.39656" lon="5.6083">
        <ele>733.6</ele>
        <time>2023-08-30T14:13:05Z</time>
      </trkpt>
      <trkpt lat="46.39654" lon="5.60828">
        <ele>734</ele>
        <time>2023-08-30T14:13:06Z</time>
      </trkpt>
      <trkpt lat="46.39652" lon="5.60827">
        <ele>734</ele>
        <time>2023-08-30T14:13:07Z</time>
      </trkpt>
      <trkpt lat="46.3965" lon="5.60827">
        <ele>734.4</ele>
        <time>2023-08-30T14:13:08Z</time>
      </trkpt>
      <trkpt lat="46.39647" lon="5.60826">
        <ele>734.4</ele>
        <time>2023-08-30T14:13:09Z</time>
      </trkpt>
      <trkpt lat="46.39645" lon="5.60824">
        <ele>734.6</ele>
        <time>2023-08-30T14:13:10Z</time>
      </trkpt>
      <trkpt lat="46.39643" lon="5.60824">
        <ele>734.8</ele>
        <time>2023-08-30T14:13:11Z</time>
      </trkpt>
      <trkpt lat="46.39641" lon="5.60823">
        <ele>734.8</ele>
        <time>2023-08-30T14:13:12Z</time>
      </trkpt>
      <trkpt lat="46.39639" lon="5.60822">
        <ele>734.8</ele>
        <time>2023-08-30T14:13:13Z</time>
      </trkpt>
      <trkpt lat="46.39637" lon="5.60822">
        <ele>734.8</ele>
        <time>2023-08-30T14:13:14Z</time>
      </trkpt>
      <trkpt lat="46.39635" lon="5.60822">
        <ele>735.2</ele>
        <time>2023-08-30T14:13:15Z</time>
      </trkpt>
      <trkpt lat="46.39633" lon="5.60821">
        <ele>735.2</ele>
        <time>2023-08-30T14:13:16Z</time>
      </trkpt>
      <trkpt lat="46.39631" lon="5.60821">
        <ele>735.2</ele>
        <time>2023-08-30T14:13:17Z</time>
      </trkpt>
      <trkpt lat="46.39629" lon="5.60821">
        <ele>735.2</ele>
        <time>2023-08-30T14:13:18Z</time>
      </trkpt>
      <trkpt lat="46.39627" lon="5.60821">
        <ele>735.8</ele>
        <time>2023-08-30T14:13:19Z</time>
      </trkpt>
      <trkpt lat="46.39625" lon="5.60821">
        <ele>735.8</ele>
        <time>2023-08-30T14:13:20Z</time>
      </trkpt>
      <trkpt lat="46.39623" lon="5.60821">
        <ele>735.8</ele>
        <time>2023-08-30T14:13:21Z</time>
      </trkpt>
      <trkpt lat="46.3962" lon="5.60821">
        <ele>735.8</ele>
        <time>2023-08-30T14:13:22Z</time>
      </trkpt>
      <trkpt lat="46.39617" lon="5.60821">
        <ele>736.2</ele>
        <time>2023-08-30T14:13:23Z</time>
      </trkpt>
      <trkpt lat="46.39615" lon="5.60821">
        <ele>736.2</ele>
        <time>2023-08-30T14:13:24Z</time>
      </trkpt>
      <trkpt lat="46.39612" lon="5.60822">
        <ele>736.6</ele>
        <time>2023-08-30T14:13:25Z</time>
      </trkpt>
      <trkpt lat="46.3961" lon="5.60823">
        <ele>736.6</ele>
        <time>2023-08-30T14:13:26Z</time>
      </trkpt>
      <trkpt lat="46.39607" lon="5.60824">
        <ele>736.6</ele>
        <time>2023-08-30T14:13:27Z</time>
      </trkpt>
      <trkpt lat="46.39605" lon="5.60825">
        <ele>736.6</ele>
        <time>2023-08-30T14:13:28Z</time>
      </trkpt>
      <trkpt lat="46.39602" lon="5.60825">
        <ele>736.8</ele>
        <time>2023-08-30T14:13:29Z</time>
      </trkpt>
      <trkpt lat="46.39599" lon="5.60826">
        <ele>736.8</ele>
        <time>2023-08-30T14:13:30Z</time>
      </trkpt>
      <trkpt lat="46.39597" lon="5.60827">
        <ele>736.8</ele>
        <time>2023-08-30T14:13:31Z</time>
      </trkpt>
      <trkpt lat="46.39594" lon="5.60828">
        <ele>736.8</ele>
        <time>2023-08-30T14:13:32Z</time>
      </trkpt>
      <trkpt lat="46.3959" lon="5.60829">
        <ele>737.2</ele>
        <time>2023-08-30T14:13:33Z</time>
      </trkpt>
      <trkpt lat="46.39587" lon="5.6083">
        <ele>737.4</ele>
        <time>2023-08-30T14:13:34Z</time>
      </trkpt>
      <trkpt lat="46.39584" lon="5.60831">
        <ele>737.4</ele>
        <time>2023-08-30T14:13:35Z</time>
      </trkpt>
      <trkpt lat="46.39581" lon="5.60832">
        <ele>737.4</ele>
        <time>2023-08-30T14:13:36Z</time>
      </trkpt>
      <trkpt lat="46.39578" lon="5.60832">
        <ele>737.4</ele>
        <time>2023-08-30T14:13:37Z</time>
      </trkpt>
      <trkpt lat="46.39575" lon="5.60831">
        <ele>737.8</ele>
        <time>2023-08-30T14:13:38Z</time>
      </trkpt>
      <trkpt lat="46.39572" lon="5.60831">
        <ele>738.2</ele>
        <time>2023-08-30T14:13:39Z</time>
      </trkpt>
      <trkpt lat="46.39569" lon="5.6083">
        <ele>738.2</ele>
        <time>2023-08-30T14:13:40Z</time>
      </trkpt>
      <trkpt lat="46.39566" lon="5.60829">
        <ele>738.2</ele>
        <time>2023-08-30T14:13:41Z</time>
      </trkpt>
      <trkpt lat="46.39563" lon="5.60829">
        <ele>738.2</ele>
        <time>2023-08-30T14:13:42Z</time>
      </trkpt>
      <trkpt lat="46.3956" lon="5.60828">
        <ele>738.6</ele>
        <time>2023-08-30T14:13:43Z</time>
      </trkpt>
      <trkpt lat="46.39557" lon="5.60826">
        <ele>738.6</ele>
        <time>2023-08-30T14:13:44Z</time>
      </trkpt>
      <trkpt lat="46.39554" lon="5.60825">
        <ele>738.6</ele>
        <time>2023-08-30T14:13:45Z</time>
      </trkpt>
      <trkpt lat="46.39551" lon="5.60823">
        <ele>738.6</ele>
        <time>2023-08-30T14:13:46Z</time>
      </trkpt>
      <trkpt lat="46.39548" lon="5.60822">
        <ele>739</ele>
        <time>2023-08-30T14:13:47Z</time>
      </trkpt>
      <trkpt lat="46.39545" lon="5.6082">
        <ele>739</ele>
        <time>2023-08-30T14:13:48Z</time>
      </trkpt>
      <trkpt lat="46.39542" lon="5.60818">
        <ele>739</ele>
        <time>2023-08-30T14:13:49Z</time>
      </trkpt>
      <trkpt lat="46.39539" lon="5.60817">
        <ele>739</ele>
        <time>2023-08-30T14:13:50Z</time>
      </trkpt>
      <trkpt lat="46.39537" lon="5.60816">
        <ele>739</ele>
        <time>2023-08-30T14:13:51Z</time>
      </trkpt>
      <trkpt lat="46.39534" lon="5.60815">
        <ele>739.2</ele>
        <time>2023-08-30T14:13:52Z</time>
      </trkpt>
      <trkpt lat="46.39531" lon="5.60813">
        <ele>739.2</ele>
        <time>2023-08-30T14:13:53Z</time>
      </trkpt>
      <trkpt lat="46.39528" lon="5.60811">
        <ele>739.2</ele>
        <time>2023-08-30T14:13:54Z</time>
      </trkpt>
      <trkpt lat="46.39526" lon="5.60809">
        <ele>739.2</ele>
        <time>2023-08-30T14:13:55Z</time>
      </trkpt>
      <trkpt lat="46.39524" lon="5.60806">
        <ele>739.6</ele>
        <time>2023-08-30T14:13:56Z</time>
      </trkpt>
      <trkpt lat="46.39522" lon="5.60804">
        <ele>739.6</ele>
        <time>2023-08-30T14:13:57Z</time>
      </trkpt>
      <trkpt lat="46.3952" lon="5.60801">
        <ele>739.6</ele>
        <time>2023-08-30T14:13:58Z</time>
      </trkpt>
      <trkpt lat="46.39518" lon="5.608">
        <ele>739.6</ele>
        <time>2023-08-30T14:13:59Z</time>
      </trkpt>
      <trkpt lat="46.39516" lon="5.60798">
        <ele>740.2</ele>
        <time>2023-08-30T14:14:00Z</time>
      </trkpt>
      <trkpt lat="46.39513" lon="5.60797">
        <ele>740</ele>
        <time>2023-08-30T14:14:01Z</time>
      </trkpt>
      <trkpt lat="46.39512" lon="5.60795">
        <ele>740</ele>
        <time>2023-08-30T14:14:02Z</time>
      </trkpt>
      <trkpt lat="46.3951" lon="5.60794">
        <ele>740</ele>
        <time>2023-08-30T14:14:03Z</time>
      </trkpt>
      <trkpt lat="46.39508" lon="5.60792">
        <ele>740.6</ele>
        <time>2023-08-30T14:14:04Z</time>
      </trkpt>
      <trkpt lat="46.39506" lon="5.6079">
        <ele>741</ele>
        <time>2023-08-30T14:14:05Z</time>
      </trkpt>
      <trkpt lat="46.39504" lon="5.60788">
        <ele>741</ele>
        <time>2023-08-30T14:14:06Z</time>
      </trkpt>
      <trkpt lat="46.39501" lon="5.60786">
        <ele>741</ele>
        <time>2023-08-30T14:14:07Z</time>
      </trkpt>
      <trkpt lat="46.39499" lon="5.60783">
        <ele>741</ele>
        <time>2023-08-30T14:14:08Z</time>
      </trkpt>
      <trkpt lat="46.39497" lon="5.60781">
        <ele>741.4</ele>
        <time>2023-08-30T14:14:09Z</time>
      </trkpt>
      <trkpt lat="46.39495" lon="5.6078">
        <ele>741.4</ele>
        <time>2023-08-30T14:14:10Z</time>
      </trkpt>
      <trkpt lat="46.39492" lon="5.60778">
        <ele>741.4</ele>
        <time>2023-08-30T14:14:11Z</time>
      </trkpt>
      <trkpt lat="46.39489" lon="5.60777">
        <ele>741.4</ele>
        <time>2023-08-30T14:14:12Z</time>
      </trkpt>
      <trkpt lat="46.39487" lon="5.60775">
        <ele>741.6</ele>
        <time>2023-08-30T14:14:13Z</time>
      </trkpt>
      <trkpt lat="46.39484" lon="5.60774">
        <ele>741.6</ele>
        <time>2023-08-30T14:14:14Z</time>
      </trkpt>
      <trkpt lat="46.39481" lon="5.60773">
        <ele>741.8</ele>
        <time>2023-08-30T14:14:15Z</time>
      </trkpt>
      <trkpt lat="46.39479" lon="5.60771">
        <ele>741.8</ele>
        <time>2023-08-30T14:14:16Z</time>
      </trkpt>
      <trkpt lat="46.39476" lon="5.6077">
        <ele>741.8</ele>
        <time>2023-08-30T14:14:17Z</time>
      </trkpt>
      <trkpt lat="46.39474" lon="5.60769">
        <ele>742.2</ele>
        <time>2023-08-30T14:14:18Z</time>
      </trkpt>
      <trkpt lat="46.39471" lon="5.60768">
        <ele>742.4</ele>
        <time>2023-08-30T14:14:19Z</time>
      </trkpt>
      <trkpt lat="46.39468" lon="5.60767">
        <ele>742.4</ele>
        <time>2023-08-30T14:14:20Z</time>
      </trkpt>
      <trkpt lat="46.39466" lon="5.60766">
        <ele>742.4</ele>
        <time>2023-08-30T14:14:21Z</time>
      </trkpt>
      <trkpt lat="46.39463" lon="5.60765">
        <ele>742.8</ele>
        <time>2023-08-30T14:14:22Z</time>
      </trkpt>
      <trkpt lat="46.3946" lon="5.60764">
        <ele>742.8</ele>
        <time>2023-08-30T14:14:23Z</time>
      </trkpt>
      <trkpt lat="46.39457" lon="5.60763">
        <ele>743</ele>
        <time>2023-08-30T14:14:24Z</time>
      </trkpt>
      <trkpt lat="46.39454" lon="5.60762">
        <ele>743</ele>
        <time>2023-08-30T14:14:25Z</time>
      </trkpt>
      <trkpt lat="46.39452" lon="5.60761">
        <ele>743</ele>
        <time>2023-08-30T14:14:26Z</time>
      </trkpt>
      <trkpt lat="46.39449" lon="5.6076">
        <ele>743</ele>
        <time>2023-08-30T14:14:27Z</time>
      </trkpt>
      <trkpt lat="46.39446" lon="5.6076">
        <ele>743.2</ele>
        <time>2023-08-30T14:14:28Z</time>
      </trkpt>
      <trkpt lat="46.39443" lon="5.6076">
        <ele>743.2</ele>
        <time>2023-08-30T14:14:29Z</time>
      </trkpt>
      <trkpt lat="46.3944" lon="5.6076">
        <ele>743.2</ele>
        <time>2023-08-30T14:14:30Z</time>
      </trkpt>
      <trkpt lat="46.39438" lon="5.60761">
        <ele>743.4</ele>
        <time>2023-08-30T14:14:31Z</time>
      </trkpt>
      <trkpt lat="46.39435" lon="5.60762">
        <ele>743.4</ele>
        <time>2023-08-30T14:14:32Z</time>
      </trkpt>
      <trkpt lat="46.39432" lon="5.60763">
        <ele>743.4</ele>
        <time>2023-08-30T14:14:33Z</time>
      </trkpt>
      <trkpt lat="46.39429" lon="5.60765">
        <ele>743.4</ele>
        <time>2023-08-30T14:14:34Z</time>
      </trkpt>
      <trkpt lat="46.39427" lon="5.60767">
        <ele>743.4</ele>
        <time>2023-08-30T14:14:35Z</time>
      </trkpt>
      <trkpt lat="46.39425" lon="5.6077">
        <ele>743.4</ele>
        <time>2023-08-30T14:14:36Z</time>
      </trkpt>
      <trkpt lat="46.39423" lon="5.60773">
        <ele>744</ele>
        <time>2023-08-30T14:14:37Z</time>
      </trkpt>
      <trkpt lat="46.39422" lon="5.60777">
        <ele>744</ele>
        <time>2023-08-30T14:14:38Z</time>
      </trkpt>
      <trkpt lat="46.39421" lon="5.60781">
        <ele>744</ele>
        <time>2023-08-30T14:14:39Z</time>
      </trkpt>
      <trkpt lat="46.39421" lon="5.60785">
        <ele>744</ele>
        <time>2023-08-30T14:14:40Z</time>
      </trkpt>
      <trkpt lat="46.39422" lon="5.60789">
        <ele>744.2</ele>
        <time>2023-08-30T14:14:41Z</time>
      </trkpt>
      <trkpt lat="46.39423" lon="5.60793">
        <ele>744.2</ele>
        <time>2023-08-30T14:14:42Z</time>
      </trkpt>
      <trkpt lat="46.39424" lon="5.60798">
        <ele>744.2</ele>
        <time>2023-08-30T14:14:43Z</time>
      </trkpt>
      <trkpt lat="46.39425" lon="5.60801">
        <ele>744.4</ele>
        <time>2023-08-30T14:14:44Z</time>
      </trkpt>
      <trkpt lat="46.39427" lon="5.60804">
        <ele>744.6</ele>
        <time>2023-08-30T14:14:45Z</time>
      </trkpt>
      <trkpt lat="46.39429" lon="5.60806">
        <ele>744.6</ele>
        <time>2023-08-30T14:14:46Z</time>
      </trkpt>
      <trkpt lat="46.39431" lon="5.60807">
        <ele>744.6</ele>
        <time>2023-08-30T14:14:47Z</time>
      </trkpt>
      <trkpt lat="46.39434" lon="5.60809">
        <ele>744.6</ele>
        <time>2023-08-30T14:14:48Z</time>
      </trkpt>
      <trkpt lat="46.39436" lon="5.60811">
        <ele>744.6</ele>
        <time>2023-08-30T14:14:49Z</time>
      </trkpt>
      <trkpt lat="46.39438" lon="5.60813">
        <ele>745</ele>
        <time>2023-08-30T14:14:50Z</time>
      </trkpt>
      <trkpt lat="46.39441" lon="5.60814">
        <ele>745</ele>
        <time>2023-08-30T14:14:51Z</time>
      </trkpt>
      <trkpt lat="46.39444" lon="5.60814">
        <ele>745</ele>
        <time>2023-08-30T14:14:52Z</time>
      </trkpt>
      <trkpt lat="46.39447" lon="5.60815">
        <ele>745.4</ele>
        <time>2023-08-30T14:14:53Z</time>
      </trkpt>
      <trkpt lat="46.39449" lon="5.60816">
        <ele>745.4</ele>
        <time>2023-08-30T14:14:54Z</time>
      </trkpt>
      <trkpt lat="46.39452" lon="5.60817">
        <ele>745.4</ele>
        <time>2023-08-30T14:14:55Z</time>
      </trkpt>
      <trkpt lat="46.39454" lon="5.60818">
        <ele>745.4</ele>
        <time>2023-08-30T14:14:56Z</time>
      </trkpt>
      <trkpt lat="46.39456" lon="5.60818">
        <ele>745.4</ele>
        <time>2023-08-30T14:14:57Z</time>
      </trkpt>
      <trkpt lat="46.39459" lon="5.60819">
        <ele>745.8</ele>
        <time>2023-08-30T14:14:58Z</time>
      </trkpt>
      <trkpt lat="46.39461" lon="5.60819">
        <ele>746</ele>
        <time>2023-08-30T14:14:59Z</time>
      </trkpt>
      <trkpt lat="46.39463" lon="5.6082">
        <ele>746</ele>
        <time>2023-08-30T14:15:00Z</time>
      </trkpt>
      <trkpt lat="46.39465" lon="5.60821">
        <ele>746</ele>
        <time>2023-08-30T14:15:01Z</time>
      </trkpt>
      <trkpt lat="46.39467" lon="5.60822">
        <ele>746</ele>
        <time>2023-08-30T14:15:02Z</time>
      </trkpt>
      <trkpt lat="46.39469" lon="5.60822">
        <ele>746</ele>
        <time>2023-08-30T14:15:03Z</time>
      </trkpt>
      <trkpt lat="46.39472" lon="5.60823">
        <ele>746.4</ele>
        <time>2023-08-30T14:15:04Z</time>
      </trkpt>
      <trkpt lat="46.39474" lon="5.60824">
        <ele>746.4</ele>
        <time>2023-08-30T14:15:05Z</time>
      </trkpt>
      <trkpt lat="46.39477" lon="5.60825">
        <ele>746.4</ele>
        <time>2023-08-30T14:15:06Z</time>
      </trkpt>
      <trkpt lat="46.39479" lon="5.60826">
        <ele>746.6</ele>
        <time>2023-08-30T14:15:07Z</time>
      </trkpt>
      <trkpt lat="46.39482" lon="5.60827">
        <ele>746.8</ele>
        <time>2023-08-30T14:15:08Z</time>
      </trkpt>
      <trkpt lat="46.39484" lon="5.60829">
        <ele>746.8</ele>
        <time>2023-08-30T14:15:09Z</time>
      </trkpt>
      <trkpt lat="46.39487" lon="5.6083">
        <ele>746.8</ele>
        <time>2023-08-30T14:15:10Z</time>
      </trkpt>
      <trkpt lat="46.39489" lon="5.60831">
        <ele>746.8</ele>
        <time>2023-08-30T14:15:11Z</time>
      </trkpt>
      <trkpt lat="46.39492" lon="5.60832">
        <ele>747.4</ele>
        <time>2023-08-30T14:15:12Z</time>
      </trkpt>
      <trkpt lat="46.39494" lon="5.60834">
        <ele>747.4</ele>
        <time>2023-08-30T14:15:13Z</time>
      </trkpt>
      <trkpt lat="46.39497" lon="5.60836">
        <ele>747.4</ele>
        <time>2023-08-30T14:15:14Z</time>
      </trkpt>
      <trkpt lat="46.39499" lon="5.60839">
        <ele>747.4</ele>
        <time>2023-08-30T14:15:15Z</time>
      </trkpt>
      <trkpt lat="46.39501" lon="5.60841">
        <ele>747.4</ele>
        <time>2023-08-30T14:15:16Z</time>
      </trkpt>
      <trkpt lat="46.39503" lon="5.60844">
        <ele>747.8</ele>
        <time>2023-08-30T14:15:17Z</time>
      </trkpt>
      <trkpt lat="46.39505" lon="5.60846">
        <ele>747.8</ele>
        <time>2023-08-30T14:15:18Z</time>
      </trkpt>
      <trkpt lat="46.39507" lon="5.60849">
        <ele>747.8</ele>
        <time>2023-08-30T14:15:19Z</time>
      </trkpt>
      <trkpt lat="46.39508" lon="5.60852">
        <ele>748.2</ele>
        <time>2023-08-30T14:15:20Z</time>
      </trkpt>
      <trkpt lat="46.3951" lon="5.60855">
        <ele>748.2</ele>
        <time>2023-08-30T14:15:21Z</time>
      </trkpt>
      <trkpt lat="46.39511" lon="5.60858">
        <ele>748.2</ele>
        <time>2023-08-30T14:15:22Z</time>
      </trkpt>
      <trkpt lat="46.39511" lon="5.60861">
        <ele>748.2</ele>
        <time>2023-08-30T14:15:23Z</time>
      </trkpt>
      <trkpt lat="46.39512" lon="5.60864">
        <ele>748.8</ele>
        <time>2023-08-30T14:15:24Z</time>
      </trkpt>
      <trkpt lat="46.39513" lon="5.60866">
        <ele>749</ele>
        <time>2023-08-30T14:15:25Z</time>
      </trkpt>
      <trkpt lat="46.39514" lon="5.60869">
        <ele>749</ele>
        <time>2023-08-30T14:15:26Z</time>
      </trkpt>
      <trkpt lat="46.39515" lon="5.60872">
        <ele>749</ele>
        <time>2023-08-30T14:15:27Z</time>
      </trkpt>
      <trkpt lat="46.39516" lon="5.60874">
        <ele>749</ele>
        <time>2023-08-30T14:15:28Z</time>
      </trkpt>
      <trkpt lat="46.39517" lon="5.60877">
        <ele>749.2</ele>
        <time>2023-08-30T14:15:29Z</time>
      </trkpt>
      <trkpt lat="46.39518" lon="5.60879">
        <ele>749.4</ele>
        <time>2023-08-30T14:15:30Z</time>
      </trkpt>
      <trkpt lat="46.39519" lon="5.60881">
        <ele>749.4</ele>
        <time>2023-08-30T14:15:31Z</time>
      </trkpt>
      <trkpt lat="46.39519" lon="5.60883">
        <ele>749.4</ele>
        <time>2023-08-30T14:15:32Z</time>
      </trkpt>
      <trkpt lat="46.3952" lon="5.60886">
        <ele>749.8</ele>
        <time>2023-08-30T14:15:33Z</time>
      </trkpt>
      <trkpt lat="46.3952" lon="5.60888">
        <ele>749.8</ele>
        <time>2023-08-30T14:15:34Z</time>
      </trkpt>
      <trkpt lat="46.39521" lon="5.60891">
        <ele>749.8</ele>
        <time>2023-08-30T14:15:35Z</time>
      </trkpt>
      <trkpt lat="46.39521" lon="5.60894">
        <ele>749.8</ele>
        <time>2023-08-30T14:15:36Z</time>
      </trkpt>
      <trkpt lat="46.39521" lon="5.60896">
        <ele>749.8</ele>
        <time>2023-08-30T14:15:37Z</time>
      </trkpt>
      <trkpt lat="46.39521" lon="5.60899">
        <ele>750.2</ele>
        <time>2023-08-30T14:15:38Z</time>
      </trkpt>
      <trkpt lat="46.39521" lon="5.60901">
        <ele>750.2</ele>
        <time>2023-08-30T14:15:39Z</time>
      </trkpt>
      <trkpt lat="46.39522" lon="5.60904">
        <ele>750.4</ele>
        <time>2023-08-30T14:15:40Z</time>
      </trkpt>
      <trkpt lat="46.39522" lon="5.60905">
        <ele>750.4</ele>
        <time>2023-08-30T14:15:41Z</time>
      </trkpt>
      <trkpt lat="46.39522" lon="5.60907">
        <ele>750.4</ele>
        <time>2023-08-30T14:15:42Z</time>
      </trkpt>
      <trkpt lat="46.39522" lon="5.6091">
        <ele>750.4</ele>
        <time>2023-08-30T14:15:43Z</time>
      </trkpt>
      <trkpt lat="46.39521" lon="5.60912">
        <ele>750.8</ele>
        <time>2023-08-30T14:15:44Z</time>
      </trkpt>
      <trkpt lat="46.39521" lon="5.60914">
        <ele>750.8</ele>
        <time>2023-08-30T14:15:45Z</time>
      </trkpt>
      <trkpt lat="46.39519" lon="5.60915">
        <ele>750.8</ele>
        <time>2023-08-30T14:15:46Z</time>
      </trkpt>
      <trkpt lat="46.39518" lon="5.60917">
        <ele>751.2</ele>
        <time>2023-08-30T14:15:47Z</time>
      </trkpt>
      <trkpt lat="46.39517" lon="5.60918">
        <ele>751.2</ele>
        <time>2023-08-30T14:15:48Z</time>
      </trkpt>
      <trkpt lat="46.39516" lon="5.6092">
        <ele>751.4</ele>
        <time>2023-08-30T14:15:49Z</time>
      </trkpt>
      <trkpt lat="46.39514" lon="5.60921">
        <ele>751.4</ele>
        <time>2023-08-30T14:15:50Z</time>
      </trkpt>
      <trkpt lat="46.39513" lon="5.60922">
        <ele>751.4</ele>
        <time>2023-08-30T14:15:51Z</time>
      </trkpt>
      <trkpt lat="46.39512" lon="5.60924">
        <ele>751.4</ele>
        <time>2023-08-30T14:15:52Z</time>
      </trkpt>
      <trkpt lat="46.39509" lon="5.60924">
        <ele>751.4</ele>
        <time>2023-08-30T14:15:53Z</time>
      </trkpt>
      <trkpt lat="46.39508" lon="5.60924">
        <ele>751.8</ele>
        <time>2023-08-30T14:15:54Z</time>
      </trkpt>
      <trkpt lat="46.39506" lon="5.60924">
        <ele>751.8</ele>
        <time>2023-08-30T14:15:55Z</time>
      </trkpt>
      <trkpt lat="46.39504" lon="5.60924">
        <ele>752.2</ele>
        <time>2023-08-30T14:15:56Z</time>
      </trkpt>
      <trkpt lat="46.39502" lon="5.60924">
        <ele>752.4</ele>
        <time>2023-08-30T14:15:57Z</time>
      </trkpt>
      <trkpt lat="46.39501" lon="5.60925">
        <ele>752.4</ele>
        <time>2023-08-30T14:15:58Z</time>
      </trkpt>
      <trkpt lat="46.39499" lon="5.60924">
        <ele>752.4</ele>
        <time>2023-08-30T14:15:59Z</time>
      </trkpt>
      <trkpt lat="46.39497" lon="5.60924">
        <ele>753</ele>
        <time>2023-08-30T14:16:00Z</time>
      </trkpt>
      <trkpt lat="46.39496" lon="5.60924">
        <ele>753.2</ele>
        <time>2023-08-30T14:16:01Z</time>
      </trkpt>
      <trkpt lat="46.39494" lon="5.60924">
        <ele>753.2</ele>
        <time>2023-08-30T14:16:02Z</time>
      </trkpt>
      <trkpt lat="46.39492" lon="5.60923">
        <ele>753.2</ele>
        <time>2023-08-30T14:16:03Z</time>
      </trkpt>
      <trkpt lat="46.3949" lon="5.60923">
        <ele>753.2</ele>
        <time>2023-08-30T14:16:04Z</time>
      </trkpt>
      <trkpt lat="46.39488" lon="5.60922">
        <ele>753.6</ele>
        <time>2023-08-30T14:16:05Z</time>
      </trkpt>
      <trkpt lat="46.39486" lon="5.60922">
        <ele>753.6</ele>
        <time>2023-08-30T14:16:06Z</time>
      </trkpt>
      <trkpt lat="46.39484" lon="5.60921">
        <ele>753.6</ele>
        <time>2023-08-30T14:16:07Z</time>
      </trkpt>
      <trkpt lat="46.39481" lon="5.60921">
        <ele>753.6</ele>
        <time>2023-08-30T14:16:08Z</time>
      </trkpt>
      <trkpt lat="46.39479" lon="5.60921">
        <ele>753.8</ele>
        <time>2023-08-30T14:16:09Z</time>
      </trkpt>
      <trkpt lat="46.39477" lon="5.6092">
        <ele>753.8</ele>
        <time>2023-08-30T14:16:10Z</time>
      </trkpt>
      <trkpt lat="46.39474" lon="5.60919">
        <ele>753.8</ele>
        <time>2023-08-30T14:16:11Z</time>
      </trkpt>
      <trkpt lat="46.39472" lon="5.60919">
        <ele>753.8</ele>
        <time>2023-08-30T14:16:12Z</time>
      </trkpt>
      <trkpt lat="46.3947" lon="5.60918">
        <ele>754.2</ele>
        <time>2023-08-30T14:16:13Z</time>
      </trkpt>
      <trkpt lat="46.39468" lon="5.60918">
        <ele>754.2</ele>
        <time>2023-08-30T14:16:14Z</time>
      </trkpt>
      <trkpt lat="46.39465" lon="5.60917">
        <ele>754.4</ele>
        <time>2023-08-30T14:16:15Z</time>
      </trkpt>
      <trkpt lat="46.39463" lon="5.60917">
        <ele>754.4</ele>
        <time>2023-08-30T14:16:16Z</time>
      </trkpt>
      <trkpt lat="46.39461" lon="5.60916">
        <ele>754.4</ele>
        <time>2023-08-30T14:16:17Z</time>
      </trkpt>
      <trkpt lat="46.39459" lon="5.60916">
        <ele>754.6</ele>
        <time>2023-08-30T14:16:18Z</time>
      </trkpt>
      <trkpt lat="46.39456" lon="5.60916">
        <ele>754.8</ele>
        <time>2023-08-30T14:16:19Z</time>
      </trkpt>
      <trkpt lat="46.39454" lon="5.60916">
        <ele>754.8</ele>
        <time>2023-08-30T14:16:20Z</time>
      </trkpt>
      <trkpt lat="46.39452" lon="5.60916">
        <ele>754.8</ele>
        <time>2023-08-30T14:16:21Z</time>
      </trkpt>
      <trkpt lat="46.3945" lon="5.60916">
        <ele>754.8</ele>
        <time>2023-08-30T14:16:22Z</time>
      </trkpt>
      <trkpt lat="46.39448" lon="5.60916">
        <ele>754.8</ele>
        <time>2023-08-30T14:16:23Z</time>
      </trkpt>
      <trkpt lat="46.39445" lon="5.60916">
        <ele>754.8</ele>
        <time>2023-08-30T14:16:24Z</time>
      </trkpt>
      <trkpt lat="46.39443" lon="5.60916">
        <ele>755.2</ele>
        <time>2023-08-30T14:16:25Z</time>
      </trkpt>
      <trkpt lat="46.39441" lon="5.60915">
        <ele>755.2</ele>
        <time>2023-08-30T14:16:26Z</time>
      </trkpt>
      <trkpt lat="46.39439" lon="5.60914">
        <ele>755.2</ele>
        <time>2023-08-30T14:16:27Z</time>
      </trkpt>
      <trkpt lat="46.39437" lon="5.60914">
        <ele>755.6</ele>
        <time>2023-08-30T14:16:28Z</time>
      </trkpt>
      <trkpt lat="46.39435" lon="5.60914">
        <ele>755.6</ele>
        <time>2023-08-30T14:16:29Z</time>
      </trkpt>
      <trkpt lat="46.39433" lon="5.60915">
        <ele>755.6</ele>
        <time>2023-08-30T14:16:30Z</time>
      </trkpt>
      <trkpt lat="46.39431" lon="5.60916">
        <ele>755.6</ele>
        <time>2023-08-30T14:16:31Z</time>
      </trkpt>
      <trkpt lat="46.39429" lon="5.60917">
        <ele>755.6</ele>
        <time>2023-08-30T14:16:32Z</time>
      </trkpt>
      <trkpt lat="46.39427" lon="5.60919">
        <ele>756</ele>
        <time>2023-08-30T14:16:33Z</time>
      </trkpt>
      <trkpt lat="46.39425" lon="5.6092">
        <ele>756</ele>
        <time>2023-08-30T14:16:34Z</time>
      </trkpt>
      <trkpt lat="46.39424" lon="5.60922">
        <ele>756</ele>
        <time>2023-08-30T14:16:35Z</time>
      </trkpt>
      <trkpt lat="46.39422" lon="5.60923">
        <ele>756.2</ele>
        <time>2023-08-30T14:16:36Z</time>
      </trkpt>
      <trkpt lat="46.3942" lon="5.60925">
        <ele>756</ele>
        <time>2023-08-30T14:16:37Z</time>
      </trkpt>
      <trkpt lat="46.39418" lon="5.60926">
        <ele>756</ele>
        <time>2023-08-30T14:16:38Z</time>
      </trkpt>
      <trkpt lat="46.39415" lon="5.60928">
        <ele>756</ele>
        <time>2023-08-30T14:16:39Z</time>
      </trkpt>
      <trkpt lat="46.39413" lon="5.60929">
        <ele>756.4</ele>
        <time>2023-08-30T14:16:40Z</time>
      </trkpt>
      <trkpt lat="46.39411" lon="5.60931">
        <ele>756.4</ele>
        <time>2023-08-30T14:16:41Z</time>
      </trkpt>
      <trkpt lat="46.3941" lon="5.60934">
        <ele>756.6</ele>
        <time>2023-08-30T14:16:42Z</time>
      </trkpt>
      <trkpt lat="46.39409" lon="5.60936">
        <ele>756.6</ele>
        <time>2023-08-30T14:16:43Z</time>
      </trkpt>
      <trkpt lat="46.39408" lon="5.60939">
        <ele>756.6</ele>
        <time>2023-08-30T14:16:44Z</time>
      </trkpt>
      <trkpt lat="46.39407" lon="5.60942">
        <ele>756.8</ele>
        <time>2023-08-30T14:16:45Z</time>
      </trkpt>
      <trkpt lat="46.39405" lon="5.60944">
        <ele>757.2</ele>
        <time>2023-08-30T14:16:46Z</time>
      </trkpt>
      <trkpt lat="46.39404" lon="5.60947">
        <ele>757.2</ele>
        <time>2023-08-30T14:16:47Z</time>
      </trkpt>
      <trkpt lat="46.39403" lon="5.60949">
        <ele>757.2</ele>
        <time>2023-08-30T14:16:48Z</time>
      </trkpt>
      <trkpt lat="46.39402" lon="5.60952">
        <ele>757.2</ele>
        <time>2023-08-30T14:16:49Z</time>
      </trkpt>
      <trkpt lat="46.39401" lon="5.60954">
        <ele>757.2</ele>
        <time>2023-08-30T14:16:50Z</time>
      </trkpt>
      <trkpt lat="46.39399" lon="5.60957">
        <ele>757.6</ele>
        <time>2023-08-30T14:16:51Z</time>
      </trkpt>
      <trkpt lat="46.39397" lon="5.60959">
        <ele>757.6</ele>
        <time>2023-08-30T14:16:52Z</time>
      </trkpt>
      <trkpt lat="46.39395" lon="5.60961">
        <ele>757.6</ele>
        <time>2023-08-30T14:16:53Z</time>
      </trkpt>
      <trkpt lat="46.39393" lon="5.60963">
        <ele>757.6</ele>
        <time>2023-08-30T14:16:54Z</time>
      </trkpt>
      <trkpt lat="46.39391" lon="5.60964">
        <ele>757.6</ele>
        <time>2023-08-30T14:16:55Z</time>
      </trkpt>
      <trkpt lat="46.39388" lon="5.60966">
        <ele>758</ele>
        <time>2023-08-30T14:16:56Z</time>
      </trkpt>
      <trkpt lat="46.39387" lon="5.60967">
        <ele>758</ele>
        <time>2023-08-30T14:16:57Z</time>
      </trkpt>
      <trkpt lat="46.39384" lon="5.60968">
        <ele>758</ele>
        <time>2023-08-30T14:16:58Z</time>
      </trkpt>
      <trkpt lat="46.39381" lon="5.60968">
        <ele>758.4</ele>
        <time>2023-08-30T14:16:59Z</time>
      </trkpt>
      <trkpt lat="46.39379" lon="5.60968">
        <ele>758.8</ele>
        <time>2023-08-30T14:17:00Z</time>
      </trkpt>
      <trkpt lat="46.39376" lon="5.60968">
        <ele>758.8</ele>
        <time>2023-08-30T14:17:01Z</time>
      </trkpt>
      <trkpt lat="46.39374" lon="5.60969">
        <ele>758.8</ele>
        <time>2023-08-30T14:17:02Z</time>
      </trkpt>
      <trkpt lat="46.39371" lon="5.60969">
        <ele>759.2</ele>
        <time>2023-08-30T14:17:03Z</time>
      </trkpt>
      <trkpt lat="46.39368" lon="5.60969">
        <ele>759.4</ele>
        <time>2023-08-30T14:17:04Z</time>
      </trkpt>
      <trkpt lat="46.39366" lon="5.60968">
        <ele>759.4</ele>
        <time>2023-08-30T14:17:05Z</time>
      </trkpt>
      <trkpt lat="46.39364" lon="5.60968">
        <ele>759.4</ele>
        <time>2023-08-30T14:17:06Z</time>
      </trkpt>
      <trkpt lat="46.39362" lon="5.60969">
        <ele>759.4</ele>
        <time>2023-08-30T14:17:07Z</time>
      </trkpt>
      <trkpt lat="46.3936" lon="5.6097">
        <ele>759.4</ele>
        <time>2023-08-30T14:17:08Z</time>
      </trkpt>
      <trkpt lat="46.39358" lon="5.60971">
        <ele>760</ele>
        <time>2023-08-30T14:17:09Z</time>
      </trkpt>
      <trkpt lat="46.39356" lon="5.60972">
        <ele>760</ele>
        <time>2023-08-30T14:17:10Z</time>
      </trkpt>
      <trkpt lat="46.39354" lon="5.60973">
        <ele>760</ele>
        <time>2023-08-30T14:17:11Z</time>
      </trkpt>
      <trkpt lat="46.39352" lon="5.60974">
        <ele>760</ele>
        <time>2023-08-30T14:17:12Z</time>
      </trkpt>
      <trkpt lat="46.39349" lon="5.60976">
        <ele>760.4</ele>
        <time>2023-08-30T14:17:13Z</time>
      </trkpt>
      <trkpt lat="46.39347" lon="5.60978">
        <ele>760.4</ele>
        <time>2023-08-30T14:17:14Z</time>
      </trkpt>
      <trkpt lat="46.39345" lon="5.6098">
        <ele>760.4</ele>
        <time>2023-08-30T14:17:15Z</time>
      </trkpt>
      <trkpt lat="46.39343" lon="5.60982">
        <ele>761</ele>
        <time>2023-08-30T14:17:16Z</time>
      </trkpt>
      <trkpt lat="46.39341" lon="5.60984">
        <ele>761.2</ele>
        <time>2023-08-30T14:17:17Z</time>
      </trkpt>
      <trkpt lat="46.39338" lon="5.60986">
        <ele>761.2</ele>
        <time>2023-08-30T14:17:18Z</time>
      </trkpt>
      <trkpt lat="46.39336" lon="5.60989">
        <ele>761.2</ele>
        <time>2023-08-30T14:17:19Z</time>
      </trkpt>
      <trkpt lat="46.39334" lon="5.60992">
        <ele>761.2</ele>
        <time>2023-08-30T14:17:20Z</time>
      </trkpt>
      <trkpt lat="46.39332" lon="5.60996">
        <ele>761.2</ele>
        <time>2023-08-30T14:17:21Z</time>
      </trkpt>
      <trkpt lat="46.3933" lon="5.60999">
        <ele>761.6</ele>
        <time>2023-08-30T14:17:22Z</time>
      </trkpt>
      <trkpt lat="46.39328" lon="5.61002">
        <ele>761.6</ele>
        <time>2023-08-30T14:17:23Z</time>
      </trkpt>
      <trkpt lat="46.39327" lon="5.61005">
        <ele>761.6</ele>
        <time>2023-08-30T14:17:24Z</time>
      </trkpt>
      <trkpt lat="46.39325" lon="5.61008">
        <ele>761.6</ele>
        <time>2023-08-30T14:17:25Z</time>
      </trkpt>
      <trkpt lat="46.39324" lon="5.61011">
        <ele>761.6</ele>
        <time>2023-08-30T14:17:26Z</time>
      </trkpt>
      <trkpt lat="46.39322" lon="5.61015">
        <ele>761.6</ele>
        <time>2023-08-30T14:17:27Z</time>
      </trkpt>
      <trkpt lat="46.3932" lon="5.61019">
        <ele>761.6</ele>
        <time>2023-08-30T14:17:28Z</time>
      </trkpt>
      <trkpt lat="46.39319" lon="5.61022">
        <ele>761.6</ele>
        <time>2023-08-30T14:17:29Z</time>
      </trkpt>
      <trkpt lat="46.39318" lon="5.61027">
        <ele>761.4</ele>
        <time>2023-08-30T14:17:30Z</time>
      </trkpt>
      <trkpt lat="46.39317" lon="5.61031">
        <ele>761.6</ele>
        <time>2023-08-30T14:17:31Z</time>
      </trkpt>
      <trkpt lat="46.39317" lon="5.61036">
        <ele>761.6</ele>
        <time>2023-08-30T14:17:32Z</time>
      </trkpt>
      <trkpt lat="46.39316" lon="5.6104">
        <ele>761.6</ele>
        <time>2023-08-30T14:17:33Z</time>
      </trkpt>
      <trkpt lat="46.39316" lon="5.61045">
        <ele>761.6</ele>
        <time>2023-08-30T14:17:34Z</time>
      </trkpt>
      <trkpt lat="46.39316" lon="5.6105">
        <ele>761.6</ele>
        <time>2023-08-30T14:17:35Z</time>
      </trkpt>
      <trkpt lat="46.39315" lon="5.61055">
        <ele>761.6</ele>
        <time>2023-08-30T14:17:36Z</time>
      </trkpt>
      <trkpt lat="46.39316" lon="5.61061">
        <ele>761.6</ele>
        <time>2023-08-30T14:17:37Z</time>
      </trkpt>
      <trkpt lat="46.39316" lon="5.61067">
        <ele>761.6</ele>
        <time>2023-08-30T14:17:38Z</time>
      </trkpt>
      <trkpt lat="46.39318" lon="5.61073">
        <ele>761.2</ele>
        <time>2023-08-30T14:17:39Z</time>
      </trkpt>
      <trkpt lat="46.39319" lon="5.61079">
        <ele>761.4</ele>
        <time>2023-08-30T14:17:40Z</time>
      </trkpt>
      <trkpt lat="46.39321" lon="5.61086">
        <ele>761.4</ele>
        <time>2023-08-30T14:17:41Z</time>
      </trkpt>
      <trkpt lat="46.39323" lon="5.61093">
        <ele>761.4</ele>
        <time>2023-08-30T14:17:42Z</time>
      </trkpt>
      <trkpt lat="46.39326" lon="5.61099">
        <ele>761.4</ele>
        <time>2023-08-30T14:17:43Z</time>
      </trkpt>
      <trkpt lat="46.39329" lon="5.61104">
        <ele>761.4</ele>
        <time>2023-08-30T14:17:44Z</time>
      </trkpt>
      <trkpt lat="46.39332" lon="5.6111">
        <ele>761.4</ele>
        <time>2023-08-30T14:17:45Z</time>
      </trkpt>
      <trkpt lat="46.39336" lon="5.61116">
        <ele>761.4</ele>
        <time>2023-08-30T14:17:46Z</time>
      </trkpt>
      <trkpt lat="46.3934" lon="5.61123">
        <ele>761.4</ele>
        <time>2023-08-30T14:17:47Z</time>
      </trkpt>
      <trkpt lat="46.39343" lon="5.6113">
        <ele>761.4</ele>
        <time>2023-08-30T14:17:48Z</time>
      </trkpt>
      <trkpt lat="46.39347" lon="5.61136">
        <ele>761.6</ele>
        <time>2023-08-30T14:17:49Z</time>
      </trkpt>
      <trkpt lat="46.3935" lon="5.61143">
        <ele>761.6</ele>
        <time>2023-08-30T14:17:50Z</time>
      </trkpt>
      <trkpt lat="46.39353" lon="5.6115">
        <ele>761.6</ele>
        <time>2023-08-30T14:17:51Z</time>
      </trkpt>
      <trkpt lat="46.39356" lon="5.61158">
        <ele>760.8</ele>
        <time>2023-08-30T14:17:52Z</time>
      </trkpt>
      <trkpt lat="46.3936" lon="5.61165">
        <ele>761.2</ele>
        <time>2023-08-30T14:17:53Z</time>
      </trkpt>
      <trkpt lat="46.39364" lon="5.61173">
        <ele>761.2</ele>
        <time>2023-08-30T14:17:54Z</time>
      </trkpt>
      <trkpt lat="46.39368" lon="5.6118">
        <ele>761.2</ele>
        <time>2023-08-30T14:17:55Z</time>
      </trkpt>
      <trkpt lat="46.39372" lon="5.61188">
        <ele>761.2</ele>
        <time>2023-08-30T14:17:56Z</time>
      </trkpt>
      <trkpt lat="46.39376" lon="5.61196">
        <ele>761</ele>
        <time>2023-08-30T14:17:57Z</time>
      </trkpt>
      <trkpt lat="46.39379" lon="5.61205">
        <ele>761</ele>
        <time>2023-08-30T14:17:58Z</time>
      </trkpt>
      <trkpt lat="46.39383" lon="5.61213">
        <ele>761</ele>
        <time>2023-08-30T14:17:59Z</time>
      </trkpt>
      <trkpt lat="46.39387" lon="5.61222">
        <ele>761</ele>
        <time>2023-08-30T14:18:00Z</time>
      </trkpt>
      <trkpt lat="46.39392" lon="5.6123">
        <ele>760.4</ele>
        <time>2023-08-30T14:18:01Z</time>
      </trkpt>
      <trkpt lat="46.39396" lon="5.61238">
        <ele>760.6</ele>
        <time>2023-08-30T14:18:02Z</time>
      </trkpt>
      <trkpt lat="46.394" lon="5.61246">
        <ele>760.6</ele>
        <time>2023-08-30T14:18:03Z</time>
      </trkpt>
      <trkpt lat="46.39404" lon="5.61254">
        <ele>760.6</ele>
        <time>2023-08-30T14:18:04Z</time>
      </trkpt>
      <trkpt lat="46.39408" lon="5.61262">
        <ele>760.2</ele>
        <time>2023-08-30T14:18:05Z</time>
      </trkpt>
      <trkpt lat="46.39413" lon="5.6127">
        <ele>760</ele>
        <time>2023-08-30T14:18:06Z</time>
      </trkpt>
      <trkpt lat="46.39418" lon="5.61278">
        <ele>760</ele>
        <time>2023-08-30T14:18:07Z</time>
      </trkpt>
      <trkpt lat="46.39423" lon="5.61286">
        <ele>760</ele>
        <time>2023-08-30T14:18:08Z</time>
      </trkpt>
      <trkpt lat="46.39428" lon="5.61294">
        <ele>760</ele>
        <time>2023-08-30T14:18:09Z</time>
      </trkpt>
      <trkpt lat="46.39433" lon="5.61301">
        <ele>760</ele>
        <time>2023-08-30T14:18:10Z</time>
      </trkpt>
      <trkpt lat="46.39438" lon="5.61308">
        <ele>760</ele>
        <time>2023-08-30T14:18:11Z</time>
      </trkpt>
      <trkpt lat="46.39443" lon="5.61315">
        <ele>759.6</ele>
        <time>2023-08-30T14:18:12Z</time>
      </trkpt>
      <trkpt lat="46.39448" lon="5.61322">
        <ele>759.6</ele>
        <time>2023-08-30T14:18:13Z</time>
      </trkpt>
      <trkpt lat="46.39454" lon="5.61329">
        <ele>759.6</ele>
        <time>2023-08-30T14:18:14Z</time>
      </trkpt>
      <trkpt lat="46.3946" lon="5.61337">
        <ele>759.6</ele>
        <time>2023-08-30T14:18:15Z</time>
      </trkpt>
      <trkpt lat="46.39465" lon="5.61346">
        <ele>759</ele>
        <time>2023-08-30T14:18:16Z</time>
      </trkpt>
      <trkpt lat="46.39471" lon="5.61354">
        <ele>759</ele>
        <time>2023-08-30T14:18:17Z</time>
      </trkpt>
      <trkpt lat="46.39476" lon="5.61363">
        <ele>759</ele>
        <time>2023-08-30T14:18:18Z</time>
      </trkpt>
      <trkpt lat="46.39481" lon="5.61373">
        <ele>758.8</ele>
        <time>2023-08-30T14:18:19Z</time>
      </trkpt>
      <trkpt lat="46.39485" lon="5.61382">
        <ele>758.2</ele>
        <time>2023-08-30T14:18:20Z</time>
      </trkpt>
      <trkpt lat="46.3949" lon="5.6139">
        <ele>758.2</ele>
        <time>2023-08-30T14:18:21Z</time>
      </trkpt>
      <trkpt lat="46.39495" lon="5.61398">
        <ele>758.2</ele>
        <time>2023-08-30T14:18:22Z</time>
      </trkpt>
      <trkpt lat="46.39501" lon="5.61407">
        <ele>758.2</ele>
        <time>2023-08-30T14:18:23Z</time>
      </trkpt>
      <trkpt lat="46.39506" lon="5.61415">
        <ele>758.2</ele>
        <time>2023-08-30T14:18:24Z</time>
      </trkpt>
      <trkpt lat="46.39512" lon="5.61422">
        <ele>757.6</ele>
        <time>2023-08-30T14:18:25Z</time>
      </trkpt>
      <trkpt lat="46.39519" lon="5.61429">
        <ele>757.6</ele>
        <time>2023-08-30T14:18:26Z</time>
      </trkpt>
      <trkpt lat="46.39525" lon="5.61436">
        <ele>757.6</ele>
        <time>2023-08-30T14:18:27Z</time>
      </trkpt>
      <trkpt lat="46.39532" lon="5.61443">
        <ele>757.6</ele>
        <time>2023-08-30T14:18:28Z</time>
      </trkpt>
      <trkpt lat="46.39538" lon="5.6145">
        <ele>756.4</ele>
        <time>2023-08-30T14:18:29Z</time>
      </trkpt>
      <trkpt lat="46.39545" lon="5.61458">
        <ele>756.4</ele>
        <time>2023-08-30T14:18:30Z</time>
      </trkpt>
      <trkpt lat="46.39552" lon="5.61465">
        <ele>756.4</ele>
        <time>2023-08-30T14:18:31Z</time>
      </trkpt>
      <trkpt lat="46.39558" lon="5.61473">
        <ele>756.4</ele>
        <time>2023-08-30T14:18:32Z</time>
      </trkpt>
      <trkpt lat="46.39564" lon="5.61481">
        <ele>756.4</ele>
        <time>2023-08-30T14:18:33Z</time>
      </trkpt>
      <trkpt lat="46.39571" lon="5.61489">
        <ele>755.6</ele>
        <time>2023-08-30T14:18:34Z</time>
      </trkpt>
      <trkpt lat="46.39577" lon="5.61496">
        <ele>755.6</ele>
        <time>2023-08-30T14:18:35Z</time>
      </trkpt>
      <trkpt lat="46.39583" lon="5.61505">
        <ele>755.6</ele>
        <time>2023-08-30T14:18:36Z</time>
      </trkpt>
      <trkpt lat="46.39589" lon="5.61513">
        <ele>755.6</ele>
        <time>2023-08-30T14:18:37Z</time>
      </trkpt>
      <trkpt lat="46.39595" lon="5.61521">
        <ele>755.2</ele>
        <time>2023-08-30T14:18:38Z</time>
      </trkpt>
      <trkpt lat="46.39601" lon="5.61529">
        <ele>755.2</ele>
        <time>2023-08-30T14:18:39Z</time>
      </trkpt>
      <trkpt lat="46.39607" lon="5.61537">
        <ele>755.2</ele>
        <time>2023-08-30T14:18:40Z</time>
      </trkpt>
      <trkpt lat="46.39612" lon="5.61545">
        <ele>754.4</ele>
        <time>2023-08-30T14:18:41Z</time>
      </trkpt>
      <trkpt lat="46.39618" lon="5.61553">
        <ele>754</ele>
        <time>2023-08-30T14:18:42Z</time>
      </trkpt>
      <trkpt lat="46.39624" lon="5.61561">
        <ele>754</ele>
        <time>2023-08-30T14:18:43Z</time>
      </trkpt>
      <trkpt lat="46.39629" lon="5.61569">
        <ele>754</ele>
        <time>2023-08-30T14:18:44Z</time>
      </trkpt>
      <trkpt lat="46.39634" lon="5.61577">
        <ele>754</ele>
        <time>2023-08-30T14:18:45Z</time>
      </trkpt>
      <trkpt lat="46.39639" lon="5.61585">
        <ele>754</ele>
        <time>2023-08-30T14:18:46Z</time>
      </trkpt>
      <trkpt lat="46.39643" lon="5.61593">
        <ele>753.4</ele>
        <time>2023-08-30T14:18:47Z</time>
      </trkpt>
      <trkpt lat="46.39648" lon="5.61601">
        <ele>753.4</ele>
        <time>2023-08-30T14:18:48Z</time>
      </trkpt>
      <trkpt lat="46.39652" lon="5.61608">
        <ele>753.4</ele>
        <time>2023-08-30T14:18:49Z</time>
      </trkpt>
      <trkpt lat="46.39657" lon="5.61615">
        <ele>753.4</ele>
        <time>2023-08-30T14:18:50Z</time>
      </trkpt>
      <trkpt lat="46.39663" lon="5.61621">
        <ele>752.4</ele>
        <time>2023-08-30T14:18:51Z</time>
      </trkpt>
      <trkpt lat="46.39668" lon="5.61627">
        <ele>752.4</ele>
        <time>2023-08-30T14:18:52Z</time>
      </trkpt>
      <trkpt lat="46.39674" lon="5.61633">
        <ele>752.4</ele>
        <time>2023-08-30T14:18:53Z</time>
      </trkpt>
      <trkpt lat="46.3968" lon="5.61638">
        <ele>752.4</ele>
        <time>2023-08-30T14:18:54Z</time>
      </trkpt>
      <trkpt lat="46.39687" lon="5.61644">
        <ele>752.4</ele>
        <time>2023-08-30T14:18:55Z</time>
      </trkpt>
      <trkpt lat="46.39693" lon="5.61649">
        <ele>751.4</ele>
        <time>2023-08-30T14:18:56Z</time>
      </trkpt>
      <trkpt lat="46.397" lon="5.61655">
        <ele>750.6</ele>
        <time>2023-08-30T14:18:57Z</time>
      </trkpt>
      <trkpt lat="46.39707" lon="5.61662">
        <ele>750.6</ele>
        <time>2023-08-30T14:18:58Z</time>
      </trkpt>
      <trkpt lat="46.39713" lon="5.6167">
        <ele>750.6</ele>
        <time>2023-08-30T14:18:59Z</time>
      </trkpt>
      <trkpt lat="46.39719" lon="5.61678">
        <ele>750.6</ele>
        <time>2023-08-30T14:19:00Z</time>
      </trkpt>
      <trkpt lat="46.39724" lon="5.61687">
        <ele>749.6</ele>
        <time>2023-08-30T14:19:01Z</time>
      </trkpt>
      <trkpt lat="46.39729" lon="5.61696">
        <ele>749.6</ele>
        <time>2023-08-30T14:19:02Z</time>
      </trkpt>
      <trkpt lat="46.39734" lon="5.61705">
        <ele>749.6</ele>
        <time>2023-08-30T14:19:03Z</time>
      </trkpt>
      <trkpt lat="46.39739" lon="5.61714">
        <ele>749.6</ele>
        <time>2023-08-30T14:19:04Z</time>
      </trkpt>
      <trkpt lat="46.39744" lon="5.61723">
        <ele>748.6</ele>
        <time>2023-08-30T14:19:05Z</time>
      </trkpt>
      <trkpt lat="46.39749" lon="5.61732">
        <ele>748.6</ele>
        <time>2023-08-30T14:19:06Z</time>
      </trkpt>
      <trkpt lat="46.39753" lon="5.6174">
        <ele>748.6</ele>
        <time>2023-08-30T14:19:07Z</time>
      </trkpt>
      <trkpt lat="46.39758" lon="5.61749">
        <ele>748.6</ele>
        <time>2023-08-30T14:19:08Z</time>
      </trkpt>
      <trkpt lat="46.39762" lon="5.61757">
        <ele>748.6</ele>
        <time>2023-08-30T14:19:09Z</time>
      </trkpt>
      <trkpt lat="46.39767" lon="5.61765">
        <ele>748</ele>
        <time>2023-08-30T14:19:10Z</time>
      </trkpt>
      <trkpt lat="46.39771" lon="5.61773">
        <ele>748</ele>
        <time>2023-08-30T14:19:11Z</time>
      </trkpt>
      <trkpt lat="46.39776" lon="5.61781">
        <ele>748</ele>
        <time>2023-08-30T14:19:12Z</time>
      </trkpt>
      <trkpt lat="46.3978" lon="5.61789">
        <ele>747</ele>
        <time>2023-08-30T14:19:13Z</time>
      </trkpt>
      <trkpt lat="46.39784" lon="5.61796">
        <ele>747</ele>
        <time>2023-08-30T14:19:14Z</time>
      </trkpt>
      <trkpt lat="46.39787" lon="5.61804">
        <ele>747.2</ele>
        <time>2023-08-30T14:19:15Z</time>
      </trkpt>
      <trkpt lat="46.39791" lon="5.61811">
        <ele>747.2</ele>
        <time>2023-08-30T14:19:16Z</time>
      </trkpt>
      <trkpt lat="46.39795" lon="5.61818">
        <ele>747.2</ele>
        <time>2023-08-30T14:19:17Z</time>
      </trkpt>
      <trkpt lat="46.39799" lon="5.61826">
        <ele>746.8</ele>
        <time>2023-08-30T14:19:18Z</time>
      </trkpt>
      <trkpt lat="46.39803" lon="5.61833">
        <ele>746.4</ele>
        <time>2023-08-30T14:19:19Z</time>
      </trkpt>
      <trkpt lat="46.39807" lon="5.6184">
        <ele>746.4</ele>
        <time>2023-08-30T14:19:20Z</time>
      </trkpt>
      <trkpt lat="46.39811" lon="5.61846">
        <ele>746.4</ele>
        <time>2023-08-30T14:19:21Z</time>
      </trkpt>
      <trkpt lat="46.39815" lon="5.61853">
        <ele>746.4</ele>
        <time>2023-08-30T14:19:22Z</time>
      </trkpt>
      <trkpt lat="46.3982" lon="5.61858">
        <ele>745.6</ele>
        <time>2023-08-30T14:19:23Z</time>
      </trkpt>
      <trkpt lat="46.39825" lon="5.61864">
        <ele>745.6</ele>
        <time>2023-08-30T14:19:24Z</time>
      </trkpt>
      <trkpt lat="46.39831" lon="5.6187">
        <ele>745.6</ele>
        <time>2023-08-30T14:19:25Z</time>
      </trkpt>
      <trkpt lat="46.39836" lon="5.61876">
        <ele>745.6</ele>
        <time>2023-08-30T14:19:26Z</time>
      </trkpt>
      <trkpt lat="46.39843" lon="5.61881">
        <ele>744.6</ele>
        <time>2023-08-30T14:19:27Z</time>
      </trkpt>
      <trkpt lat="46.39849" lon="5.61886">
        <ele>744.2</ele>
        <time>2023-08-30T14:19:28Z</time>
      </trkpt>
      <trkpt lat="46.39856" lon="5.6189">
        <ele>744.2</ele>
        <time>2023-08-30T14:19:29Z</time>
      </trkpt>
      <trkpt lat="46.39862" lon="5.61894">
        <ele>744.2</ele>
        <time>2023-08-30T14:19:30Z</time>
      </trkpt>
      <trkpt lat="46.39869" lon="5.61897">
        <ele>744.2</ele>
        <time>2023-08-30T14:19:31Z</time>
      </trkpt>
      <trkpt lat="46.39876" lon="5.619">
        <ele>743.4</ele>
        <time>2023-08-30T14:19:32Z</time>
      </trkpt>
      <trkpt lat="46.39883" lon="5.61901">
        <ele>743.2</ele>
        <time>2023-08-30T14:19:33Z</time>
      </trkpt>
      <trkpt lat="46.3989" lon="5.61902">
        <ele>743.2</ele>
        <time>2023-08-30T14:19:34Z</time>
      </trkpt>
      <trkpt lat="46.39898" lon="5.61903">
        <ele>743.2</ele>
        <time>2023-08-30T14:19:35Z</time>
      </trkpt>
      <trkpt lat="46.39905" lon="5.61904">
        <ele>742.6</ele>
        <time>2023-08-30T14:19:36Z</time>
      </trkpt>
      <trkpt lat="46.39913" lon="5.61906">
        <ele>742</ele>
        <time>2023-08-30T14:19:37Z</time>
      </trkpt>
      <trkpt lat="46.3992" lon="5.61909">
        <ele>742</ele>
        <time>2023-08-30T14:19:38Z</time>
      </trkpt>
      <trkpt lat="46.39927" lon="5.61913">
        <ele>742</ele>
        <time>2023-08-30T14:19:39Z</time>
      </trkpt>
      <trkpt lat="46.39935" lon="5.61917">
        <ele>742</ele>
        <time>2023-08-30T14:19:40Z</time>
      </trkpt>
      <trkpt lat="46.39943" lon="5.61922">
        <ele>741</ele>
        <time>2023-08-30T14:19:41Z</time>
      </trkpt>
      <trkpt lat="46.3995" lon="5.61927">
        <ele>741</ele>
        <time>2023-08-30T14:19:42Z</time>
      </trkpt>
      <trkpt lat="46.39958" lon="5.61931">
        <ele>740.2</ele>
        <time>2023-08-30T14:19:43Z</time>
      </trkpt>
      <trkpt lat="46.39966" lon="5.61937">
        <ele>740.2</ele>
        <time>2023-08-30T14:19:44Z</time>
      </trkpt>
      <trkpt lat="46.39974" lon="5.61943">
        <ele>740.2</ele>
        <time>2023-08-30T14:19:45Z</time>
      </trkpt>
      <trkpt lat="46.39981" lon="5.61949">
        <ele>739.2</ele>
        <time>2023-08-30T14:19:46Z</time>
      </trkpt>
      <trkpt lat="46.39989" lon="5.61956">
        <ele>738.4</ele>
        <time>2023-08-30T14:19:47Z</time>
      </trkpt>
      <trkpt lat="46.39997" lon="5.61962">
        <ele>738.4</ele>
        <time>2023-08-30T14:19:48Z</time>
      </trkpt>
      <trkpt lat="46.40005" lon="5.61969">
        <ele>738.4</ele>
        <time>2023-08-30T14:19:49Z</time>
      </trkpt>
      <trkpt lat="46.40012" lon="5.61976">
        <ele>737.4</ele>
        <time>2023-08-30T14:19:50Z</time>
      </trkpt>
      <trkpt lat="46.4002" lon="5.61984">
        <ele>736</ele>
        <time>2023-08-30T14:19:51Z</time>
      </trkpt>
      <trkpt lat="46.40027" lon="5.61993">
        <ele>736</ele>
        <time>2023-08-30T14:19:52Z</time>
      </trkpt>
      <trkpt lat="46.40034" lon="5.62003">
        <ele>736</ele>
        <time>2023-08-30T14:19:53Z</time>
      </trkpt>
      <trkpt lat="46.40041" lon="5.62014">
        <ele>736</ele>
        <time>2023-08-30T14:19:54Z</time>
      </trkpt>
      <trkpt lat="46.40045" lon="5.62027">
        <ele>736</ele>
        <time>2023-08-30T14:19:55Z</time>
      </trkpt>
      <trkpt lat="46.40049" lon="5.62041">
        <ele>734.8</ele>
        <time>2023-08-30T14:19:56Z</time>
      </trkpt>
      <trkpt lat="46.40052" lon="5.62054">
        <ele>734.8</ele>
        <time>2023-08-30T14:19:57Z</time>
      </trkpt>
      <trkpt lat="46.40055" lon="5.62068">
        <ele>734.8</ele>
        <time>2023-08-30T14:19:58Z</time>
      </trkpt>
      <trkpt lat="46.40058" lon="5.62082">
        <ele>733.8</ele>
        <time>2023-08-30T14:19:59Z</time>
      </trkpt>
      <trkpt lat="46.40061" lon="5.62096">
        <ele>733.4</ele>
        <time>2023-08-30T14:20:00Z</time>
      </trkpt>
      <trkpt lat="46.40064" lon="5.62109">
        <ele>733.4</ele>
        <time>2023-08-30T14:20:01Z</time>
      </trkpt>
      <trkpt lat="46.40068" lon="5.62122">
        <ele>733.4</ele>
        <time>2023-08-30T14:20:02Z</time>
      </trkpt>
      <trkpt lat="46.40072" lon="5.62134">
        <ele>732.4</ele>
        <time>2023-08-30T14:20:03Z</time>
      </trkpt>
      <trkpt lat="46.40078" lon="5.62145">
        <ele>731.8</ele>
        <time>2023-08-30T14:20:04Z</time>
      </trkpt>
      <trkpt lat="46.40084" lon="5.62154">
        <ele>731.8</ele>
        <time>2023-08-30T14:20:05Z</time>
      </trkpt>
      <trkpt lat="46.4009" lon="5.62164">
        <ele>731.8</ele>
        <time>2023-08-30T14:20:06Z</time>
      </trkpt>
      <trkpt lat="46.40096" lon="5.62173">
        <ele>731.8</ele>
        <time>2023-08-30T14:20:07Z</time>
      </trkpt>
      <trkpt lat="46.40102" lon="5.62182">
        <ele>731.8</ele>
        <time>2023-08-30T14:20:08Z</time>
      </trkpt>
      <trkpt lat="46.40108" lon="5.62191">
        <ele>731</ele>
        <time>2023-08-30T14:20:09Z</time>
      </trkpt>
      <trkpt lat="46.40113" lon="5.622">
        <ele>730.6</ele>
        <time>2023-08-30T14:20:10Z</time>
      </trkpt>
      <trkpt lat="46.40118" lon="5.62209">
        <ele>730.6</ele>
        <time>2023-08-30T14:20:11Z</time>
      </trkpt>
      <trkpt lat="46.40123" lon="5.62217">
        <ele>730.6</ele>
        <time>2023-08-30T14:20:12Z</time>
      </trkpt>
      <trkpt lat="46.40128" lon="5.62226">
        <ele>729.8</ele>
        <time>2023-08-30T14:20:13Z</time>
      </trkpt>
      <trkpt lat="46.40132" lon="5.62235">
        <ele>729.4</ele>
        <time>2023-08-30T14:20:14Z</time>
      </trkpt>
      <trkpt lat="46.40137" lon="5.62243">
        <ele>729.4</ele>
        <time>2023-08-30T14:20:15Z</time>
      </trkpt>
      <trkpt lat="46.4014" lon="5.62251">
        <ele>729.4</ele>
        <time>2023-08-30T14:20:16Z</time>
      </trkpt>
      <trkpt lat="46.40144" lon="5.62259">
        <ele>729.4</ele>
        <time>2023-08-30T14:20:17Z</time>
      </trkpt>
      <trkpt lat="46.40147" lon="5.62266">
        <ele>728.6</ele>
        <time>2023-08-30T14:20:18Z</time>
      </trkpt>
      <trkpt lat="46.4015" lon="5.62274">
        <ele>728.8</ele>
        <time>2023-08-30T14:20:19Z</time>
      </trkpt>
      <trkpt lat="46.40154" lon="5.6228">
        <ele>728.8</ele>
        <time>2023-08-30T14:20:20Z</time>
      </trkpt>
      <trkpt lat="46.40157" lon="5.62286">
        <ele>728.8</ele>
        <time>2023-08-30T14:20:21Z</time>
      </trkpt>
      <trkpt lat="46.4016" lon="5.62292">
        <ele>728.2</ele>
        <time>2023-08-30T14:20:22Z</time>
      </trkpt>
      <trkpt lat="46.40163" lon="5.62298">
        <ele>728</ele>
        <time>2023-08-30T14:20:23Z</time>
      </trkpt>
      <trkpt lat="46.40166" lon="5.62304">
        <ele>728</ele>
        <time>2023-08-30T14:20:24Z</time>
      </trkpt>
      <trkpt lat="46.40169" lon="5.62309">
        <ele>728</ele>
        <time>2023-08-30T14:20:25Z</time>
      </trkpt>
      <trkpt lat="46.40173" lon="5.62315">
        <ele>727.6</ele>
        <time>2023-08-30T14:20:26Z</time>
      </trkpt>
      <trkpt lat="46.40177" lon="5.6232">
        <ele>727.6</ele>
        <time>2023-08-30T14:20:27Z</time>
      </trkpt>
      <trkpt lat="46.40181" lon="5.62325">
        <ele>727.4</ele>
        <time>2023-08-30T14:20:28Z</time>
      </trkpt>
      <trkpt lat="46.40185" lon="5.62331">
        <ele>727.4</ele>
        <time>2023-08-30T14:20:29Z</time>
      </trkpt>
      <trkpt lat="46.40189" lon="5.62336">
        <ele>727.4</ele>
        <time>2023-08-30T14:20:30Z</time>
      </trkpt>
      <trkpt lat="46.40193" lon="5.62341">
        <ele>726.8</ele>
        <time>2023-08-30T14:20:31Z</time>
      </trkpt>
      <trkpt lat="46.40197" lon="5.62346">
        <ele>726.6</ele>
        <time>2023-08-30T14:20:32Z</time>
      </trkpt>
      <trkpt lat="46.40201" lon="5.62351">
        <ele>726.6</ele>
        <time>2023-08-30T14:20:33Z</time>
      </trkpt>
      <trkpt lat="46.40205" lon="5.62355">
        <ele>726.6</ele>
        <time>2023-08-30T14:20:34Z</time>
      </trkpt>
      <trkpt lat="46.40209" lon="5.62358">
        <ele>726.6</ele>
        <time>2023-08-30T14:20:35Z</time>
      </trkpt>
      <trkpt lat="46.40213" lon="5.62361">
        <ele>726.6</ele>
        <time>2023-08-30T14:20:36Z</time>
      </trkpt>
      <trkpt lat="46.40216" lon="5.62365">
        <ele>726.6</ele>
        <time>2023-08-30T14:20:37Z</time>
      </trkpt>
      <trkpt lat="46.40219" lon="5.62368">
        <ele>726.6</ele>
        <time>2023-08-30T14:20:38Z</time>
      </trkpt>
      <trkpt lat="46.40222" lon="5.62371">
        <ele>726.6</ele>
        <time>2023-08-30T14:20:39Z</time>
      </trkpt>
      <trkpt lat="46.40225" lon="5.62375">
        <ele>726.4</ele>
        <time>2023-08-30T14:20:40Z</time>
      </trkpt>
      <trkpt lat="46.40227" lon="5.62378">
        <ele>726.6</ele>
        <time>2023-08-30T14:20:41Z</time>
      </trkpt>
      <trkpt lat="46.4023" lon="5.62381">
        <ele>726.6</ele>
        <time>2023-08-30T14:20:42Z</time>
      </trkpt>
      <trkpt lat="46.40233" lon="5.62384">
        <ele>726.6</ele>
        <time>2023-08-30T14:20:43Z</time>
      </trkpt>
      <trkpt lat="46.40236" lon="5.62388">
        <ele>726.4</ele>
        <time>2023-08-30T14:20:44Z</time>
      </trkpt>
      <trkpt lat="46.40238" lon="5.62391">
        <ele>726.4</ele>
        <time>2023-08-30T14:20:45Z</time>
      </trkpt>
      <trkpt lat="46.4024" lon="5.62395">
        <ele>726.4</ele>
        <time>2023-08-30T14:20:46Z</time>
      </trkpt>
      <trkpt lat="46.40242" lon="5.62398">
        <ele>726.4</ele>
        <time>2023-08-30T14:20:47Z</time>
      </trkpt>
      <trkpt lat="46.40245" lon="5.62401">
        <ele>726.6</ele>
        <time>2023-08-30T14:20:48Z</time>
      </trkpt>
      <trkpt lat="46.40247" lon="5.62403">
        <ele>726.6</ele>
        <time>2023-08-30T14:20:49Z</time>
      </trkpt>
      <trkpt lat="46.40249" lon="5.62406">
        <ele>726.8</ele>
        <time>2023-08-30T14:20:50Z</time>
      </trkpt>
      <trkpt lat="46.40252" lon="5.62409">
        <ele>726.8</ele>
        <time>2023-08-30T14:20:51Z</time>
      </trkpt>
      <trkpt lat="46.40254" lon="5.62411">
        <ele>726.8</ele>
        <time>2023-08-30T14:20:52Z</time>
      </trkpt>
      <trkpt lat="46.40257" lon="5.62413">
        <ele>726.8</ele>
        <time>2023-08-30T14:20:53Z</time>
      </trkpt>
      <trkpt lat="46.40259" lon="5.62416">
        <ele>726.8</ele>
        <time>2023-08-30T14:20:54Z</time>
      </trkpt>
      <trkpt lat="46.40261" lon="5.62418">
        <ele>726.6</ele>
        <time>2023-08-30T14:20:55Z</time>
      </trkpt>
      <trkpt lat="46.40264" lon="5.62421">
        <ele>726.6</ele>
        <time>2023-08-30T14:20:56Z</time>
      </trkpt>
      <trkpt lat="46.40266" lon="5.62422">
        <ele>726.6</ele>
        <time>2023-08-30T14:20:57Z</time>
      </trkpt>
      <trkpt lat="46.40269" lon="5.62424">
        <ele>726.4</ele>
        <time>2023-08-30T14:20:58Z</time>
      </trkpt>
      <trkpt lat="46.40271" lon="5.62427">
        <ele>726.6</ele>
        <time>2023-08-30T14:20:59Z</time>
      </trkpt>
      <trkpt lat="46.40274" lon="5.62429">
        <ele>726.6</ele>
        <time>2023-08-30T14:21:00Z</time>
      </trkpt>
      <trkpt lat="46.40276" lon="5.62432">
        <ele>726.6</ele>
        <time>2023-08-30T14:21:01Z</time>
      </trkpt>
      <trkpt lat="46.40279" lon="5.62434">
        <ele>726.6</ele>
        <time>2023-08-30T14:21:02Z</time>
      </trkpt>
      <trkpt lat="46.40282" lon="5.62436">
        <ele>726.6</ele>
        <time>2023-08-30T14:21:03Z</time>
      </trkpt>
      <trkpt lat="46.40284" lon="5.62437">
        <ele>726.4</ele>
        <time>2023-08-30T14:21:04Z</time>
      </trkpt>
      <trkpt lat="46.40286" lon="5.62439">
        <ele>726.4</ele>
        <time>2023-08-30T14:21:05Z</time>
      </trkpt>
      <trkpt lat="46.40288" lon="5.6244">
        <ele>726.4</ele>
        <time>2023-08-30T14:21:06Z</time>
      </trkpt>
      <trkpt lat="46.4029" lon="5.62442">
        <ele>726.4</ele>
        <time>2023-08-30T14:21:07Z</time>
      </trkpt>
      <trkpt lat="46.40292" lon="5.62443">
        <ele>726.2</ele>
        <time>2023-08-30T14:21:08Z</time>
      </trkpt>
      <trkpt lat="46.40293" lon="5.62445">
        <ele>726.2</ele>
        <time>2023-08-30T14:21:09Z</time>
      </trkpt>
      <trkpt lat="46.40295" lon="5.62446">
        <ele>726.2</ele>
        <time>2023-08-30T14:21:10Z</time>
      </trkpt>
      <trkpt lat="46.40297" lon="5.62448">
        <ele>726</ele>
        <time>2023-08-30T14:21:11Z</time>
      </trkpt>
      <trkpt lat="46.40299" lon="5.62449">
        <ele>725.8</ele>
        <time>2023-08-30T14:21:12Z</time>
      </trkpt>
      <trkpt lat="46.40301" lon="5.62451">
        <ele>725.8</ele>
        <time>2023-08-30T14:21:13Z</time>
      </trkpt>
      <trkpt lat="46.40302" lon="5.62452">
        <ele>725.8</ele>
        <time>2023-08-30T14:21:14Z</time>
      </trkpt>
      <trkpt lat="46.40304" lon="5.62453">
        <ele>725.8</ele>
        <time>2023-08-30T14:21:15Z</time>
      </trkpt>
      <trkpt lat="46.40305" lon="5.62454">
        <ele>726</ele>
        <time>2023-08-30T14:21:16Z</time>
      </trkpt>
      <trkpt lat="46.40307" lon="5.62456">
        <ele>725.8</ele>
        <time>2023-08-30T14:21:17Z</time>
      </trkpt>
      <trkpt lat="46.40309" lon="5.62457">
        <ele>725.8</ele>
        <time>2023-08-30T14:21:18Z</time>
      </trkpt>
      <trkpt lat="46.4031" lon="5.62458">
        <ele>725.8</ele>
        <time>2023-08-30T14:21:19Z</time>
      </trkpt>
      <trkpt lat="46.40312" lon="5.62459">
        <ele>726</ele>
        <time>2023-08-30T14:21:20Z</time>
      </trkpt>
      <trkpt lat="46.40313" lon="5.6246">
        <ele>725.8</ele>
        <time>2023-08-30T14:21:21Z</time>
      </trkpt>
      <trkpt lat="46.40315" lon="5.62461">
        <ele>725.8</ele>
        <time>2023-08-30T14:21:22Z</time>
      </trkpt>
      <trkpt lat="46.40316" lon="5.62463">
        <ele>725.8</ele>
        <time>2023-08-30T14:21:23Z</time>
      </trkpt>
      <trkpt lat="46.40318" lon="5.62464">
        <ele>725.8</ele>
        <time>2023-08-30T14:21:24Z</time>
      </trkpt>
      <trkpt lat="46.40319" lon="5.62465">
        <ele>725.8</ele>
        <time>2023-08-30T14:21:25Z</time>
      </trkpt>
      <trkpt lat="46.40321" lon="5.62467">
        <ele>725.8</ele>
        <time>2023-08-30T14:21:26Z</time>
      </trkpt>
      <trkpt lat="46.40323" lon="5.62468">
        <ele>725.8</ele>
        <time>2023-08-30T14:21:27Z</time>
      </trkpt>
      <trkpt lat="46.40324" lon="5.62469">
        <ele>725.8</ele>
        <time>2023-08-30T14:21:28Z</time>
      </trkpt>
      <trkpt lat="46.40326" lon="5.6247">
        <ele>726</ele>
        <time>2023-08-30T14:21:29Z</time>
      </trkpt>
      <trkpt lat="46.40327" lon="5.62471">
        <ele>726.2</ele>
        <time>2023-08-30T14:21:30Z</time>
      </trkpt>
      <trkpt lat="46.40328" lon="5.62472">
        <ele>726.2</ele>
        <time>2023-08-30T14:21:31Z</time>
      </trkpt>
      <trkpt lat="46.4033" lon="5.62473">
        <ele>726.2</ele>
        <time>2023-08-30T14:21:32Z</time>
      </trkpt>
      <trkpt lat="46.40331" lon="5.62475">
        <ele>726</ele>
        <time>2023-08-30T14:21:33Z</time>
      </trkpt>
      <trkpt lat="46.40333" lon="5.62476">
        <ele>726</ele>
        <time>2023-08-30T14:21:34Z</time>
      </trkpt>
      <trkpt lat="46.40335" lon="5.62477">
        <ele>726</ele>
        <time>2023-08-30T14:21:35Z</time>
      </trkpt>
      <trkpt lat="46.40336" lon="5.62479">
        <ele>726.2</ele>
        <time>2023-08-30T14:21:36Z</time>
      </trkpt>
      <trkpt lat="46.40338" lon="5.6248">
        <ele>726.2</ele>
        <time>2023-08-30T14:21:37Z</time>
      </trkpt>
      <trkpt lat="46.40339" lon="5.62482">
        <ele>726.2</ele>
        <time>2023-08-30T14:21:38Z</time>
      </trkpt>
      <trkpt lat="46.40341" lon="5.62483">
        <ele>726</ele>
        <time>2023-08-30T14:21:39Z</time>
      </trkpt>
      <trkpt lat="46.40342" lon="5.62484">
        <ele>726</ele>
        <time>2023-08-30T14:21:40Z</time>
      </trkpt>
      <trkpt lat="46.40344" lon="5.62485">
        <ele>726</ele>
        <time>2023-08-30T14:21:41Z</time>
      </trkpt>
      <trkpt lat="46.40346" lon="5.62486">
        <ele>726</ele>
        <time>2023-08-30T14:21:42Z</time>
      </trkpt>
      <trkpt lat="46.40347" lon="5.62487">
        <ele>725.8</ele>
        <time>2023-08-30T14:21:43Z</time>
      </trkpt>
      <trkpt lat="46.40349" lon="5.62488">
        <ele>725.8</ele>
        <time>2023-08-30T14:21:44Z</time>
      </trkpt>
      <trkpt lat="46.4035" lon="5.62489">
        <ele>726</ele>
        <time>2023-08-30T14:21:45Z</time>
      </trkpt>
      <trkpt lat="46.40352" lon="5.62491">
        <ele>726</ele>
        <time>2023-08-30T14:21:46Z</time>
      </trkpt>
      <trkpt lat="46.40353" lon="5.62492">
        <ele>726</ele>
        <time>2023-08-30T14:21:47Z</time>
      </trkpt>
      <trkpt lat="46.40355" lon="5.62493">
        <ele>725.8</ele>
        <time>2023-08-30T14:21:48Z</time>
      </trkpt>
      <trkpt lat="46.40357" lon="5.62495">
        <ele>726</ele>
        <time>2023-08-30T14:21:49Z</time>
      </trkpt>
      <trkpt lat="46.40359" lon="5.62496">
        <ele>726</ele>
        <time>2023-08-30T14:21:50Z</time>
      </trkpt>
      <trkpt lat="46.40361" lon="5.62497">
        <ele>726</ele>
        <time>2023-08-30T14:21:51Z</time>
      </trkpt>
      <trkpt lat="46.40362" lon="5.62498">
        <ele>726.4</ele>
        <time>2023-08-30T14:21:52Z</time>
      </trkpt>
      <trkpt lat="46.40364" lon="5.62499">
        <ele>726.4</ele>
        <time>2023-08-30T14:21:53Z</time>
      </trkpt>
      <trkpt lat="46.40365" lon="5.625">
        <ele>726.4</ele>
        <time>2023-08-30T14:21:54Z</time>
      </trkpt>
      <trkpt lat="46.40367" lon="5.62502">
        <ele>726.4</ele>
        <time>2023-08-30T14:21:55Z</time>
      </trkpt>
      <trkpt lat="46.40369" lon="5.62503">
        <ele>726.4</ele>
        <time>2023-08-30T14:21:56Z</time>
      </trkpt>
      <trkpt lat="46.40371" lon="5.62505">
        <ele>727</ele>
        <time>2023-08-30T14:21:57Z</time>
      </trkpt>
      <trkpt lat="46.40373" lon="5.62506">
        <ele>727</ele>
        <time>2023-08-30T14:21:58Z</time>
      </trkpt>
      <trkpt lat="46.40374" lon="5.62507">
        <ele>727</ele>
        <time>2023-08-30T14:21:59Z</time>
      </trkpt>
      <trkpt lat="46.40376" lon="5.62509">
        <ele>727</ele>
        <time>2023-08-30T14:22:00Z</time>
      </trkpt>
      <trkpt lat="46.40378" lon="5.6251">
        <ele>727.6</ele>
        <time>2023-08-30T14:22:01Z</time>
      </trkpt>
      <trkpt lat="46.40379" lon="5.62512">
        <ele>728</ele>
        <time>2023-08-30T14:22:02Z</time>
      </trkpt>
      <trkpt lat="46.40381" lon="5.62513">
        <ele>728</ele>
        <time>2023-08-30T14:22:03Z</time>
      </trkpt>
      <trkpt lat="46.40383" lon="5.62515">
        <ele>728</ele>
        <time>2023-08-30T14:22:04Z</time>
      </trkpt>
      <trkpt lat="46.40385" lon="5.62516">
        <ele>728.2</ele>
        <time>2023-08-30T14:22:05Z</time>
      </trkpt>
      <trkpt lat="46.40387" lon="5.62517">
        <ele>728.4</ele>
        <time>2023-08-30T14:22:06Z</time>
      </trkpt>
      <trkpt lat="46.40389" lon="5.62519">
        <ele>728.4</ele>
        <time>2023-08-30T14:22:07Z</time>
      </trkpt>
      <trkpt lat="46.4039" lon="5.6252">
        <ele>728.4</ele>
        <time>2023-08-30T14:22:08Z</time>
      </trkpt>
      <trkpt lat="46.40393" lon="5.62522">
        <ele>728.6</ele>
        <time>2023-08-30T14:22:09Z</time>
      </trkpt>
      <trkpt lat="46.40395" lon="5.62523">
        <ele>728.4</ele>
        <time>2023-08-30T14:22:10Z</time>
      </trkpt>
      <trkpt lat="46.40397" lon="5.62525">
        <ele>728.4</ele>
        <time>2023-08-30T14:22:11Z</time>
      </trkpt>
      <trkpt lat="46.40399" lon="5.62526">
        <ele>728.4</ele>
        <time>2023-08-30T14:22:12Z</time>
      </trkpt>
      <trkpt lat="46.40401" lon="5.62528">
        <ele>728.4</ele>
        <time>2023-08-30T14:22:13Z</time>
      </trkpt>
      <trkpt lat="46.40403" lon="5.62529">
        <ele>728.6</ele>
        <time>2023-08-30T14:22:14Z</time>
      </trkpt>
      <trkpt lat="46.40405" lon="5.62531">
        <ele>728.8</ele>
        <time>2023-08-30T14:22:15Z</time>
      </trkpt>
      <trkpt lat="46.40407" lon="5.62533">
        <ele>728.8</ele>
        <time>2023-08-30T14:22:16Z</time>
      </trkpt>
      <trkpt lat="46.40409" lon="5.62536">
        <ele>728.8</ele>
        <time>2023-08-30T14:22:17Z</time>
      </trkpt>
      <trkpt lat="46.40411" lon="5.62538">
        <ele>728.8</ele>
        <time>2023-08-30T14:22:18Z</time>
      </trkpt>
      <trkpt lat="46.40414" lon="5.6254">
        <ele>728.8</ele>
        <time>2023-08-30T14:22:19Z</time>
      </trkpt>
      <trkpt lat="46.40416" lon="5.62543">
        <ele>729</ele>
        <time>2023-08-30T14:22:20Z</time>
      </trkpt>
      <trkpt lat="46.40419" lon="5.62545">
        <ele>729</ele>
        <time>2023-08-30T14:22:21Z</time>
      </trkpt>
      <trkpt lat="46.40421" lon="5.62548">
        <ele>729</ele>
        <time>2023-08-30T14:22:22Z</time>
      </trkpt>
      <trkpt lat="46.40424" lon="5.62551">
        <ele>729</ele>
        <time>2023-08-30T14:22:23Z</time>
      </trkpt>
      <trkpt lat="46.40427" lon="5.62554">
        <ele>729.6</ele>
        <time>2023-08-30T14:22:24Z</time>
      </trkpt>
      <trkpt lat="46.40429" lon="5.62558">
        <ele>729.6</ele>
        <time>2023-08-30T14:22:25Z</time>
      </trkpt>
      <trkpt lat="46.40432" lon="5.62562">
        <ele>729.6</ele>
        <time>2023-08-30T14:22:26Z</time>
      </trkpt>
      <trkpt lat="46.40434" lon="5.62567">
        <ele>729.6</ele>
        <time>2023-08-30T14:22:27Z</time>
      </trkpt>
      <trkpt lat="46.40437" lon="5.62572">
        <ele>730</ele>
        <time>2023-08-30T14:22:28Z</time>
      </trkpt>
      <trkpt lat="46.40439" lon="5.62577">
        <ele>730</ele>
        <time>2023-08-30T14:22:29Z</time>
      </trkpt>
      <trkpt lat="46.40441" lon="5.62583">
        <ele>730</ele>
        <time>2023-08-30T14:22:30Z</time>
      </trkpt>
      <trkpt lat="46.40442" lon="5.62589">
        <ele>730</ele>
        <time>2023-08-30T14:22:31Z</time>
      </trkpt>
      <trkpt lat="46.40444" lon="5.62595">
        <ele>730.4</ele>
        <time>2023-08-30T14:22:32Z</time>
      </trkpt>
      <trkpt lat="46.40445" lon="5.62602">
        <ele>730.4</ele>
        <time>2023-08-30T14:22:33Z</time>
      </trkpt>
      <trkpt lat="46.40446" lon="5.62609">
        <ele>730.4</ele>
        <time>2023-08-30T14:22:34Z</time>
      </trkpt>
      <trkpt lat="46.40447" lon="5.62616">
        <ele>730.4</ele>
        <time>2023-08-30T14:22:35Z</time>
      </trkpt>
      <trkpt lat="46.40448" lon="5.62624">
        <ele>730.2</ele>
        <time>2023-08-30T14:22:36Z</time>
      </trkpt>
      <trkpt lat="46.4045" lon="5.62632">
        <ele>730.2</ele>
        <time>2023-08-30T14:22:37Z</time>
      </trkpt>
      <trkpt lat="46.40453" lon="5.6264">
        <ele>730.4</ele>
        <time>2023-08-30T14:22:38Z</time>
      </trkpt>
      <trkpt lat="46.40456" lon="5.62648">
        <ele>730.4</ele>
        <time>2023-08-30T14:22:39Z</time>
      </trkpt>
      <trkpt lat="46.40459" lon="5.62655">
        <ele>730.4</ele>
        <time>2023-08-30T14:22:40Z</time>
      </trkpt>
      <trkpt lat="46.40463" lon="5.62662">
        <ele>730.4</ele>
        <time>2023-08-30T14:22:41Z</time>
      </trkpt>
      <trkpt lat="46.40468" lon="5.62669">
        <ele>730.8</ele>
        <time>2023-08-30T14:22:42Z</time>
      </trkpt>
      <trkpt lat="46.40473" lon="5.62675">
        <ele>730.8</ele>
        <time>2023-08-30T14:22:43Z</time>
      </trkpt>
      <trkpt lat="46.40477" lon="5.62681">
        <ele>730.8</ele>
        <time>2023-08-30T14:22:44Z</time>
      </trkpt>
      <trkpt lat="46.40481" lon="5.62687">
        <ele>730.8</ele>
        <time>2023-08-30T14:22:45Z</time>
      </trkpt>
      <trkpt lat="46.40486" lon="5.62693">
        <ele>730.8</ele>
        <time>2023-08-30T14:22:46Z</time>
      </trkpt>
      <trkpt lat="46.4049" lon="5.62698">
        <ele>730.8</ele>
        <time>2023-08-30T14:22:47Z</time>
      </trkpt>
      <trkpt lat="46.40494" lon="5.62703">
        <ele>730.8</ele>
        <time>2023-08-30T14:22:48Z</time>
      </trkpt>
      <trkpt lat="46.40498" lon="5.62708">
        <ele>730.8</ele>
        <time>2023-08-30T14:22:49Z</time>
      </trkpt>
      <trkpt lat="46.40502" lon="5.62711">
        <ele>730.8</ele>
        <time>2023-08-30T14:22:50Z</time>
      </trkpt>
      <trkpt lat="46.40506" lon="5.62715">
        <ele>730.8</ele>
        <time>2023-08-30T14:22:51Z</time>
      </trkpt>
      <trkpt lat="46.4051" lon="5.62718">
        <ele>730.8</ele>
        <time>2023-08-30T14:22:52Z</time>
      </trkpt>
      <trkpt lat="46.40514" lon="5.62721">
        <ele>730.8</ele>
        <time>2023-08-30T14:22:53Z</time>
      </trkpt>
      <trkpt lat="46.40517" lon="5.62723">
        <ele>730.6</ele>
        <time>2023-08-30T14:22:54Z</time>
      </trkpt>
      <trkpt lat="46.4052" lon="5.62725">
        <ele>730.6</ele>
        <time>2023-08-30T14:22:55Z</time>
      </trkpt>
      <trkpt lat="46.40523" lon="5.62727">
        <ele>730.6</ele>
        <time>2023-08-30T14:22:56Z</time>
      </trkpt>
      <trkpt lat="46.40526" lon="5.62728">
        <ele>730.6</ele>
        <time>2023-08-30T14:22:57Z</time>
      </trkpt>
      <trkpt lat="46.40529" lon="5.6273">
        <ele>730.6</ele>
        <time>2023-08-30T14:22:58Z</time>
      </trkpt>
      <trkpt lat="46.40532" lon="5.62731">
        <ele>730.8</ele>
        <time>2023-08-30T14:22:59Z</time>
      </trkpt>
      <trkpt lat="46.40534" lon="5.62733">
        <ele>730.6</ele>
        <time>2023-08-30T14:23:00Z</time>
      </trkpt>
      <trkpt lat="46.40537" lon="5.62734">
        <ele>730.6</ele>
        <time>2023-08-30T14:23:01Z</time>
      </trkpt>
      <trkpt lat="46.4054" lon="5.62736">
        <ele>730.6</ele>
        <time>2023-08-30T14:23:02Z</time>
      </trkpt>
      <trkpt lat="46.40542" lon="5.62737">
        <ele>730.6</ele>
        <time>2023-08-30T14:23:03Z</time>
      </trkpt>
      <trkpt lat="46.40545" lon="5.62738">
        <ele>730.6</ele>
        <time>2023-08-30T14:23:04Z</time>
      </trkpt>
      <trkpt lat="46.40548" lon="5.62738">
        <ele>730.2</ele>
        <time>2023-08-30T14:23:05Z</time>
      </trkpt>
      <trkpt lat="46.4055" lon="5.62739">
        <ele>730.2</ele>
        <time>2023-08-30T14:23:06Z</time>
      </trkpt>
      <trkpt lat="46.40552" lon="5.6274">
        <ele>730.2</ele>
        <time>2023-08-30T14:23:07Z</time>
      </trkpt>
      <trkpt lat="46.40555" lon="5.62741">
        <ele>730.2</ele>
        <time>2023-08-30T14:23:08Z</time>
      </trkpt>
      <trkpt lat="46.40557" lon="5.62742">
        <ele>730.2</ele>
        <time>2023-08-30T14:23:09Z</time>
      </trkpt>
      <trkpt lat="46.4056" lon="5.62743">
        <ele>730.2</ele>
        <time>2023-08-30T14:23:10Z</time>
      </trkpt>
      <trkpt lat="46.40563" lon="5.62744">
        <ele>730.2</ele>
        <time>2023-08-30T14:23:11Z</time>
      </trkpt>
      <trkpt lat="46.40566" lon="5.62745">
        <ele>730.2</ele>
        <time>2023-08-30T14:23:12Z</time>
      </trkpt>
      <trkpt lat="46.40569" lon="5.62746">
        <ele>730.2</ele>
        <time>2023-08-30T14:23:13Z</time>
      </trkpt>
      <trkpt lat="46.40572" lon="5.62747">
        <ele>730.2</ele>
        <time>2023-08-30T14:23:14Z</time>
      </trkpt>
      <trkpt lat="46.40575" lon="5.62748">
        <ele>730.2</ele>
        <time>2023-08-30T14:23:15Z</time>
      </trkpt>
      <trkpt lat="46.40578" lon="5.62749">
        <ele>730.2</ele>
        <time>2023-08-30T14:23:16Z</time>
      </trkpt>
      <trkpt lat="46.40581" lon="5.6275">
        <ele>729.8</ele>
        <time>2023-08-30T14:23:17Z</time>
      </trkpt>
      <trkpt lat="46.40584" lon="5.62751">
        <ele>729.8</ele>
        <time>2023-08-30T14:23:18Z</time>
      </trkpt>
      <trkpt lat="46.40586" lon="5.6275">
        <ele>729.8</ele>
        <time>2023-08-30T14:23:19Z</time>
      </trkpt>
      <trkpt lat="46.40587" lon="5.62749">
        <ele>729.8</ele>
        <time>2023-08-30T14:23:20Z</time>
      </trkpt>
      <trkpt lat="46.40588" lon="5.62748">
        <ele>729.8</ele>
        <time>2023-08-30T14:23:21Z</time>
      </trkpt>
      <trkpt lat="46.40589" lon="5.62748">
        <ele>729.6</ele>
        <time>2023-08-30T14:23:22Z</time>
      </trkpt>
      <trkpt lat="46.40589" lon="5.62746">
        <ele>729</ele>
        <time>2023-08-30T14:23:31Z</time>
      </trkpt>
      <trkpt lat="46.4059" lon="5.62745">
        <ele>728.8</ele>
        <time>2023-08-30T14:23:32Z</time>
      </trkpt>
      <trkpt lat="46.4059" lon="5.62744">
        <ele>728.8</ele>
        <time>2023-08-30T14:23:33Z</time>
      </trkpt>
      <trkpt lat="46.4059" lon="5.62743">
        <ele>728.8</ele>
        <time>2023-08-30T14:23:34Z</time>
      </trkpt>
      <trkpt lat="46.40591" lon="5.62742">
        <ele>729.2</ele>
        <time>2023-08-30T14:23:35Z</time>
      </trkpt>
      <trkpt lat="46.40592" lon="5.62742">
        <ele>729</ele>
        <time>2023-08-30T14:23:36Z</time>
      </trkpt>
      <trkpt lat="46.40593" lon="5.62743">
        <ele>729</ele>
        <time>2023-08-30T14:23:37Z</time>
      </trkpt>
      <trkpt lat="46.40594" lon="5.62743">
        <ele>729</ele>
        <time>2023-08-30T14:23:38Z</time>
      </trkpt>
      <trkpt lat="46.40594" lon="5.62744">
        <ele>729</ele>
        <time>2023-08-30T14:23:39Z</time>
      </trkpt>
      <trkpt lat="46.40595" lon="5.62745">
        <ele>729.2</ele>
        <time>2023-08-30T14:23:40Z</time>
      </trkpt>
      <trkpt lat="46.40595" lon="5.62745">
        <ele>729.2</ele>
        <time>2023-08-30T14:23:41Z</time>
      </trkpt>
      <trkpt lat="46.40601" lon="5.62747">
        <ele>729.8</ele>
        <time>2023-08-30T14:23:50Z</time>
      </trkpt>
      <trkpt lat="46.40602" lon="5.62747">
        <ele>729.8</ele>
        <time>2023-08-30T14:23:51Z</time>
      </trkpt>
      <trkpt lat="46.40603" lon="5.62748">
        <ele>729.8</ele>
        <time>2023-08-30T14:23:52Z</time>
      </trkpt>
      <trkpt lat="46.40604" lon="5.62748">
        <ele>730.4</ele>
        <time>2023-08-30T14:23:53Z</time>
      </trkpt>
      <trkpt lat="46.40605" lon="5.62749">
        <ele>730.6</ele>
        <time>2023-08-30T14:23:54Z</time>
      </trkpt>
      <trkpt lat="46.40606" lon="5.62749">
        <ele>730.6</ele>
        <time>2023-08-30T14:23:55Z</time>
      </trkpt>
      <trkpt lat="46.40608" lon="5.62749">
        <ele>730.6</ele>
        <time>2023-08-30T14:23:56Z</time>
      </trkpt>
      <trkpt lat="46.40609" lon="5.6275">
        <ele>730.6</ele>
        <time>2023-08-30T14:23:57Z</time>
      </trkpt>
      <trkpt lat="46.40609" lon="5.6275">
        <ele>730.6</ele>
        <time>2023-08-30T14:23:58Z</time>
      </trkpt>
      <trkpt lat="46.4061" lon="5.6275">
        <ele>731</ele>
        <time>2023-08-30T14:23:59Z</time>
      </trkpt>
      <trkpt lat="46.40611" lon="5.62749">
        <ele>731</ele>
        <time>2023-08-30T14:24:00Z</time>
      </trkpt>
      <trkpt lat="46.40612" lon="5.62749">
        <ele>731</ele>
        <time>2023-08-30T14:24:01Z</time>
      </trkpt>
      <trkpt lat="46.40613" lon="5.62749">
        <ele>731</ele>
        <time>2023-08-30T14:24:02Z</time>
      </trkpt>
      <trkpt lat="46.40614" lon="5.62749">
        <ele>731.6</ele>
        <time>2023-08-30T14:24:03Z</time>
      </trkpt>
      <trkpt lat="46.40615" lon="5.62749">
        <ele>731.8</ele>
        <time>2023-08-30T14:24:04Z</time>
      </trkpt>
      <trkpt lat="46.40615" lon="5.62749">
        <ele>731.8</ele>
        <time>2023-08-30T14:24:05Z</time>
      </trkpt>
      <trkpt lat="46.40616" lon="5.62749">
        <ele>731.8</ele>
        <time>2023-08-30T14:24:06Z</time>
      </trkpt>
      <trkpt lat="46.40616" lon="5.62749">
        <ele>732.4</ele>
        <time>2023-08-30T14:24:07Z</time>
      </trkpt>
      <trkpt lat="46.40618" lon="5.62748">
        <ele>742.4</ele>
        <time>2023-08-30T14:45:19Z</time>
      </trkpt>
      <trkpt lat="46.40617" lon="5.62748">
        <ele>743</ele>
        <time>2023-08-30T14:45:20Z</time>
      </trkpt>
      <trkpt lat="46.40616" lon="5.62747">
        <ele>743</ele>
        <time>2023-08-30T14:45:21Z</time>
      </trkpt>
      <trkpt lat="46.40615" lon="5.62747">
        <ele>743</ele>
        <time>2023-08-30T14:45:22Z</time>
      </trkpt>
      <trkpt lat="46.40614" lon="5.62747">
        <ele>743.6</ele>
        <time>2023-08-30T14:45:23Z</time>
      </trkpt>
      <trkpt lat="46.40614" lon="5.62747">
        <ele>743.6</ele>
        <time>2023-08-30T14:45:24Z</time>
      </trkpt>
      <trkpt lat="46.40613" lon="5.62746">
        <ele>743.6</ele>
        <time>2023-08-30T14:45:25Z</time>
      </trkpt>
      <trkpt lat="46.40611" lon="5.62747">
        <ele>745</ele>
        <time>2023-08-30T14:45:44Z</time>
      </trkpt>
      <trkpt lat="46.4061" lon="5.62746">
        <ele>745</ele>
        <time>2023-08-30T14:45:45Z</time>
      </trkpt>
      <trkpt lat="46.40609" lon="5.62746">
        <ele>745.2</ele>
        <time>2023-08-30T14:45:46Z</time>
      </trkpt>
      <trkpt lat="46.40608" lon="5.62746">
        <ele>745.2</ele>
        <time>2023-08-30T14:45:47Z</time>
      </trkpt>
      <trkpt lat="46.40607" lon="5.62746">
        <ele>745.2</ele>
        <time>2023-08-30T14:45:48Z</time>
      </trkpt>
      <trkpt lat="46.40606" lon="5.62746">
        <ele>745.2</ele>
        <time>2023-08-30T14:45:49Z</time>
      </trkpt>
      <trkpt lat="46.40605" lon="5.62746">
        <ele>745.4</ele>
        <time>2023-08-30T14:45:50Z</time>
      </trkpt>
      <trkpt lat="46.40604" lon="5.62746">
        <ele>745.6</ele>
        <time>2023-08-30T14:45:51Z</time>
      </trkpt>
      <trkpt lat="46.40603" lon="5.62745">
        <ele>745.6</ele>
        <time>2023-08-30T14:45:52Z</time>
      </trkpt>
      <trkpt lat="46.40602" lon="5.62745">
        <ele>745.6</ele>
        <time>2023-08-30T14:45:53Z</time>
      </trkpt>
      <trkpt lat="46.40601" lon="5.62745">
        <ele>745.6</ele>
        <time>2023-08-30T14:45:54Z</time>
      </trkpt>
      <trkpt lat="46.406" lon="5.62745">
        <ele>745.6</ele>
        <time>2023-08-30T14:45:55Z</time>
      </trkpt>
      <trkpt lat="46.40599" lon="5.62745">
        <ele>745.4</ele>
        <time>2023-08-30T14:45:56Z</time>
      </trkpt>
      <trkpt lat="46.40598" lon="5.62744">
        <ele>745.4</ele>
        <time>2023-08-30T14:45:57Z</time>
      </trkpt>
      <trkpt lat="46.40597" lon="5.62744">
        <ele>745.4</ele>
        <time>2023-08-30T14:45:58Z</time>
      </trkpt>
      <trkpt lat="46.40596" lon="5.62743">
        <ele>745.4</ele>
        <time>2023-08-30T14:45:59Z</time>
      </trkpt>
      <trkpt lat="46.40595" lon="5.62743">
        <ele>745.6</ele>
        <time>2023-08-30T14:46:00Z</time>
      </trkpt>
      <trkpt lat="46.40594" lon="5.62743">
        <ele>745.6</ele>
        <time>2023-08-30T14:46:01Z</time>
      </trkpt>
      <trkpt lat="46.40593" lon="5.62743">
        <ele>745.6</ele>
        <time>2023-08-30T14:46:02Z</time>
      </trkpt>
      <trkpt lat="46.40592" lon="5.62744">
        <ele>745.6</ele>
        <time>2023-08-30T14:46:03Z</time>
      </trkpt>
      <trkpt lat="46.40591" lon="5.62744">
        <ele>745.2</ele>
        <time>2023-08-30T14:46:04Z</time>
      </trkpt>
      <trkpt lat="46.4059" lon="5.62745">
        <ele>745</ele>
        <time>2023-08-30T14:46:05Z</time>
      </trkpt>
      <trkpt lat="46.4059" lon="5.62747">
        <ele>745</ele>
        <time>2023-08-30T14:46:06Z</time>
      </trkpt>
      <trkpt lat="46.4059" lon="5.62747">
        <ele>745</ele>
        <time>2023-08-30T14:46:07Z</time>
      </trkpt>
      <trkpt lat="46.4059" lon="5.62748">
        <ele>744.4</ele>
        <time>2023-08-30T14:46:08Z</time>
      </trkpt>
      <trkpt lat="46.4059" lon="5.62748">
        <ele>744.4</ele>
        <time>2023-08-30T14:46:09Z</time>
      </trkpt>
      <trkpt lat="46.4059" lon="5.62747">
        <ele>744.2</ele>
        <time>2023-08-30T14:46:10Z</time>
      </trkpt>
      <trkpt lat="46.40591" lon="5.62749">
        <ele>744.2</ele>
        <time>2023-08-30T14:46:11Z</time>
      </trkpt>
      <trkpt lat="46.40591" lon="5.62751">
        <ele>744.2</ele>
        <time>2023-08-30T14:46:12Z</time>
      </trkpt>
      <trkpt lat="46.40591" lon="5.62753">
        <ele>743.6</ele>
        <time>2023-08-30T14:46:13Z</time>
      </trkpt>
      <trkpt lat="46.40592" lon="5.62754">
        <ele>743.6</ele>
        <time>2023-08-30T14:46:14Z</time>
      </trkpt>
      <trkpt lat="46.40593" lon="5.62754">
        <ele>743.6</ele>
        <time>2023-08-30T14:46:15Z</time>
      </trkpt>
      <trkpt lat="46.40593" lon="5.62754">
        <ele>743.6</ele>
        <time>2023-08-30T14:46:16Z</time>
      </trkpt>
      <trkpt lat="46.40595" lon="5.62756">
        <ele>741.2</ele>
        <time>2023-08-30T14:46:34Z</time>
      </trkpt>
      <trkpt lat="46.40597" lon="5.62757">
        <ele>740.6</ele>
        <time>2023-08-30T14:46:35Z</time>
      </trkpt>
      <trkpt lat="46.40599" lon="5.62758">
        <ele>740.4</ele>
        <time>2023-08-30T14:46:36Z</time>
      </trkpt>
      <trkpt lat="46.40601" lon="5.62759">
        <ele>740.4</ele>
        <time>2023-08-30T14:46:37Z</time>
      </trkpt>
      <trkpt lat="46.40604" lon="5.62761">
        <ele>740.4</ele>
        <time>2023-08-30T14:46:38Z</time>
      </trkpt>
      <trkpt lat="46.40606" lon="5.62763">
        <ele>740.4</ele>
        <time>2023-08-30T14:46:39Z</time>
      </trkpt>
      <trkpt lat="46.40609" lon="5.62764">
        <ele>740.4</ele>
        <time>2023-08-30T14:46:40Z</time>
      </trkpt>
      <trkpt lat="46.40611" lon="5.62765">
        <ele>740.4</ele>
        <time>2023-08-30T14:46:41Z</time>
      </trkpt>
      <trkpt lat="46.40614" lon="5.62767">
        <ele>740.6</ele>
        <time>2023-08-30T14:46:42Z</time>
      </trkpt>
      <trkpt lat="46.40617" lon="5.62769">
        <ele>740.6</ele>
        <time>2023-08-30T14:46:43Z</time>
      </trkpt>
      <trkpt lat="46.4062" lon="5.62771">
        <ele>740.6</ele>
        <time>2023-08-30T14:46:44Z</time>
      </trkpt>
      <trkpt lat="46.40623" lon="5.62774">
        <ele>740.6</ele>
        <time>2023-08-30T14:46:45Z</time>
      </trkpt>
      <trkpt lat="46.40626" lon="5.62777">
        <ele>740.6</ele>
        <time>2023-08-30T14:46:46Z</time>
      </trkpt>
      <trkpt lat="46.4063" lon="5.62779">
        <ele>740.6</ele>
        <time>2023-08-30T14:46:47Z</time>
      </trkpt>
      <trkpt lat="46.40634" lon="5.62783">
        <ele>740.6</ele>
        <time>2023-08-30T14:46:48Z</time>
      </trkpt>
      <trkpt lat="46.40637" lon="5.62785">
        <ele>740.8</ele>
        <time>2023-08-30T14:46:49Z</time>
      </trkpt>
      <trkpt lat="46.40641" lon="5.62788">
        <ele>741</ele>
        <time>2023-08-30T14:46:50Z</time>
      </trkpt>
      <trkpt lat="46.40644" lon="5.62791">
        <ele>741</ele>
        <time>2023-08-30T14:46:51Z</time>
      </trkpt>
      <trkpt lat="46.40648" lon="5.62794">
        <ele>741</ele>
        <time>2023-08-30T14:46:52Z</time>
      </trkpt>
      <trkpt lat="46.40651" lon="5.62797">
        <ele>741</ele>
        <time>2023-08-30T14:46:53Z</time>
      </trkpt>
      <trkpt lat="46.40654" lon="5.62801">
        <ele>741</ele>
        <time>2023-08-30T14:46:54Z</time>
      </trkpt>
      <trkpt lat="46.40657" lon="5.62804">
        <ele>741.4</ele>
        <time>2023-08-30T14:46:55Z</time>
      </trkpt>
      <trkpt lat="46.4066" lon="5.62808">
        <ele>741.4</ele>
        <time>2023-08-30T14:46:56Z</time>
      </trkpt>
      <trkpt lat="46.40662" lon="5.62813">
        <ele>741.4</ele>
        <time>2023-08-30T14:46:57Z</time>
      </trkpt>
      <trkpt lat="46.40665" lon="5.62818">
        <ele>741.4</ele>
        <time>2023-08-30T14:46:58Z</time>
      </trkpt>
      <trkpt lat="46.40668" lon="5.62823">
        <ele>741.6</ele>
        <time>2023-08-30T14:46:59Z</time>
      </trkpt>
      <trkpt lat="46.40671" lon="5.62829">
        <ele>741.8</ele>
        <time>2023-08-30T14:47:00Z</time>
      </trkpt>
      <trkpt lat="46.40674" lon="5.62836">
        <ele>741.8</ele>
        <time>2023-08-30T14:47:01Z</time>
      </trkpt>
      <trkpt lat="46.40677" lon="5.62843">
        <ele>741.8</ele>
        <time>2023-08-30T14:47:02Z</time>
      </trkpt>
      <trkpt lat="46.4068" lon="5.6285">
        <ele>741.8</ele>
        <time>2023-08-30T14:47:03Z</time>
      </trkpt>
      <trkpt lat="46.40683" lon="5.62857">
        <ele>742.4</ele>
        <time>2023-08-30T14:47:04Z</time>
      </trkpt>
      <trkpt lat="46.40687" lon="5.62865">
        <ele>742.4</ele>
        <time>2023-08-30T14:47:05Z</time>
      </trkpt>
      <trkpt lat="46.4069" lon="5.62872">
        <ele>742.4</ele>
        <time>2023-08-30T14:47:06Z</time>
      </trkpt>
      <trkpt lat="46.40695" lon="5.6288">
        <ele>742.4</ele>
        <time>2023-08-30T14:47:07Z</time>
      </trkpt>
      <trkpt lat="46.40701" lon="5.62886">
        <ele>742.4</ele>
        <time>2023-08-30T14:47:08Z</time>
      </trkpt>
      <trkpt lat="46.40707" lon="5.62893">
        <ele>742.4</ele>
        <time>2023-08-30T14:47:09Z</time>
      </trkpt>
      <trkpt lat="46.40713" lon="5.62898">
        <ele>742.4</ele>
        <time>2023-08-30T14:47:10Z</time>
      </trkpt>
      <trkpt lat="46.4072" lon="5.62903">
        <ele>742.4</ele>
        <time>2023-08-30T14:47:11Z</time>
      </trkpt>
      <trkpt lat="46.40728" lon="5.62908">
        <ele>743.2</ele>
        <time>2023-08-30T14:47:12Z</time>
      </trkpt>
      <trkpt lat="46.40735" lon="5.62911">
        <ele>743.2</ele>
        <time>2023-08-30T14:47:13Z</time>
      </trkpt>
      <trkpt lat="46.40743" lon="5.62914">
        <ele>742.6</ele>
        <time>2023-08-30T14:47:14Z</time>
      </trkpt>
      <trkpt lat="46.40751" lon="5.62917">
        <ele>742.6</ele>
        <time>2023-08-30T14:47:15Z</time>
      </trkpt>
      <trkpt lat="46.4076" lon="5.62919">
        <ele>742.6</ele>
        <time>2023-08-30T14:47:16Z</time>
      </trkpt>
      <trkpt lat="46.40769" lon="5.6292">
        <ele>743.2</ele>
        <time>2023-08-30T14:47:17Z</time>
      </trkpt>
      <trkpt lat="46.40778" lon="5.62921">
        <ele>743</ele>
        <time>2023-08-30T14:47:18Z</time>
      </trkpt>
      <trkpt lat="46.40787" lon="5.62923">
        <ele>743</ele>
        <time>2023-08-30T14:47:19Z</time>
      </trkpt>
      <trkpt lat="46.40797" lon="5.62924">
        <ele>743</ele>
        <time>2023-08-30T14:47:20Z</time>
      </trkpt>
      <trkpt lat="46.40806" lon="5.62924">
        <ele>743</ele>
        <time>2023-08-30T14:47:21Z</time>
      </trkpt>
      <trkpt lat="46.40816" lon="5.62925">
        <ele>743</ele>
        <time>2023-08-30T14:47:22Z</time>
      </trkpt>
      <trkpt lat="46.40825" lon="5.62925">
        <ele>743</ele>
        <time>2023-08-30T14:47:23Z</time>
      </trkpt>
      <trkpt lat="46.40834" lon="5.62927">
        <ele>743</ele>
        <time>2023-08-30T14:47:24Z</time>
      </trkpt>
      <trkpt lat="46.40843" lon="5.62929">
        <ele>743.6</ele>
        <time>2023-08-30T14:47:25Z</time>
      </trkpt>
      <trkpt lat="46.40852" lon="5.62933">
        <ele>743.4</ele>
        <time>2023-08-30T14:47:26Z</time>
      </trkpt>
      <trkpt lat="46.40861" lon="5.62938">
        <ele>743.4</ele>
        <time>2023-08-30T14:47:27Z</time>
      </trkpt>
      <trkpt lat="46.40869" lon="5.62944">
        <ele>743.4</ele>
        <time>2023-08-30T14:47:28Z</time>
      </trkpt>
      <trkpt lat="46.40877" lon="5.6295">
        <ele>743.4</ele>
        <time>2023-08-30T14:47:29Z</time>
      </trkpt>
      <trkpt lat="46.40885" lon="5.62956">
        <ele>743.4</ele>
        <time>2023-08-30T14:47:30Z</time>
      </trkpt>
      <trkpt lat="46.40893" lon="5.62963">
        <ele>743.8</ele>
        <time>2023-08-30T14:47:31Z</time>
      </trkpt>
      <trkpt lat="46.40901" lon="5.62969">
        <ele>743.8</ele>
        <time>2023-08-30T14:47:32Z</time>
      </trkpt>
      <trkpt lat="46.4091" lon="5.62975">
        <ele>743.8</ele>
        <time>2023-08-30T14:47:33Z</time>
      </trkpt>
      <trkpt lat="46.40919" lon="5.62981">
        <ele>743.8</ele>
        <time>2023-08-30T14:47:34Z</time>
      </trkpt>
      <trkpt lat="46.40928" lon="5.62986">
        <ele>744</ele>
        <time>2023-08-30T14:47:35Z</time>
      </trkpt>
      <trkpt lat="46.40937" lon="5.62991">
        <ele>744</ele>
        <time>2023-08-30T14:47:36Z</time>
      </trkpt>
      <trkpt lat="46.40946" lon="5.62996">
        <ele>744</ele>
        <time>2023-08-30T14:47:37Z</time>
      </trkpt>
      <trkpt lat="46.40955" lon="5.63001">
        <ele>744</ele>
        <time>2023-08-30T14:47:38Z</time>
      </trkpt>
      <trkpt lat="46.40964" lon="5.63006">
        <ele>744.2</ele>
        <time>2023-08-30T14:47:39Z</time>
      </trkpt>
      <trkpt lat="46.40972" lon="5.63013">
        <ele>744.2</ele>
        <time>2023-08-30T14:47:40Z</time>
      </trkpt>
      <trkpt lat="46.40979" lon="5.6302">
        <ele>744.4</ele>
        <time>2023-08-30T14:47:41Z</time>
      </trkpt>
      <trkpt lat="46.40987" lon="5.63027">
        <ele>744.4</ele>
        <time>2023-08-30T14:47:42Z</time>
      </trkpt>
      <trkpt lat="46.40994" lon="5.63035">
        <ele>744.4</ele>
        <time>2023-08-30T14:47:43Z</time>
      </trkpt>
      <trkpt lat="46.41001" lon="5.63042">
        <ele>744.4</ele>
        <time>2023-08-30T14:47:44Z</time>
      </trkpt>
      <trkpt lat="46.41008" lon="5.63049">
        <ele>744.6</ele>
        <time>2023-08-30T14:47:45Z</time>
      </trkpt>
      <trkpt lat="46.41015" lon="5.63057">
        <ele>744.6</ele>
        <time>2023-08-30T14:47:46Z</time>
      </trkpt>
      <trkpt lat="46.41021" lon="5.63067">
        <ele>744.6</ele>
        <time>2023-08-30T14:47:47Z</time>
      </trkpt>
      <trkpt lat="46.41026" lon="5.63078">
        <ele>744</ele>
        <time>2023-08-30T14:47:48Z</time>
      </trkpt>
      <trkpt lat="46.41031" lon="5.63088">
        <ele>744</ele>
        <time>2023-08-30T14:47:49Z</time>
      </trkpt>
      <trkpt lat="46.41036" lon="5.63099">
        <ele>744</ele>
        <time>2023-08-30T14:47:50Z</time>
      </trkpt>
      <trkpt lat="46.41041" lon="5.63108">
        <ele>744</ele>
        <time>2023-08-30T14:47:51Z</time>
      </trkpt>
      <trkpt lat="46.41046" lon="5.63117">
        <ele>743.8</ele>
        <time>2023-08-30T14:47:52Z</time>
      </trkpt>
      <trkpt lat="46.41052" lon="5.63125">
        <ele>743.6</ele>
        <time>2023-08-30T14:47:53Z</time>
      </trkpt>
      <trkpt lat="46.41059" lon="5.63131">
        <ele>743.6</ele>
        <time>2023-08-30T14:47:54Z</time>
      </trkpt>
      <trkpt lat="46.41066" lon="5.63137">
        <ele>743.6</ele>
        <time>2023-08-30T14:47:55Z</time>
      </trkpt>
      <trkpt lat="46.41073" lon="5.63141">
        <ele>743.6</ele>
        <time>2023-08-30T14:47:56Z</time>
      </trkpt>
      <trkpt lat="46.41081" lon="5.63146">
        <ele>743.2</ele>
        <time>2023-08-30T14:47:57Z</time>
      </trkpt>
      <trkpt lat="46.41088" lon="5.6315">
        <ele>742.6</ele>
        <time>2023-08-30T14:47:58Z</time>
      </trkpt>
      <trkpt lat="46.41094" lon="5.63154">
        <ele>742.6</ele>
        <time>2023-08-30T14:47:59Z</time>
      </trkpt>
      <trkpt lat="46.41101" lon="5.63158">
        <ele>742.6</ele>
        <time>2023-08-30T14:48:00Z</time>
      </trkpt>
      <trkpt lat="46.41108" lon="5.63161">
        <ele>742.4</ele>
        <time>2023-08-30T14:48:01Z</time>
      </trkpt>
      <trkpt lat="46.41114" lon="5.63165">
        <ele>742.6</ele>
        <time>2023-08-30T14:48:02Z</time>
      </trkpt>
      <trkpt lat="46.41121" lon="5.63168">
        <ele>742.6</ele>
        <time>2023-08-30T14:48:03Z</time>
      </trkpt>
      <trkpt lat="46.41127" lon="5.63172">
        <ele>742.6</ele>
        <time>2023-08-30T14:48:04Z</time>
      </trkpt>
      <trkpt lat="46.41134" lon="5.63175">
        <ele>742.2</ele>
        <time>2023-08-30T14:48:05Z</time>
      </trkpt>
      <trkpt lat="46.4114" lon="5.63179">
        <ele>742.2</ele>
        <time>2023-08-30T14:48:06Z</time>
      </trkpt>
      <trkpt lat="46.41147" lon="5.63182">
        <ele>741.8</ele>
        <time>2023-08-30T14:48:07Z</time>
      </trkpt>
      <trkpt lat="46.41154" lon="5.63186">
        <ele>741.8</ele>
        <time>2023-08-30T14:48:08Z</time>
      </trkpt>
      <trkpt lat="46.4116" lon="5.63189">
        <ele>741.8</ele>
        <time>2023-08-30T14:48:09Z</time>
      </trkpt>
      <trkpt lat="46.41167" lon="5.63192">
        <ele>741.4</ele>
        <time>2023-08-30T14:48:10Z</time>
      </trkpt>
      <trkpt lat="46.41174" lon="5.63195">
        <ele>741</ele>
        <time>2023-08-30T14:48:11Z</time>
      </trkpt>
      <trkpt lat="46.4118" lon="5.63198">
        <ele>741</ele>
        <time>2023-08-30T14:48:12Z</time>
      </trkpt>
      <trkpt lat="46.41187" lon="5.63201">
        <ele>741</ele>
        <time>2023-08-30T14:48:13Z</time>
      </trkpt>
      <trkpt lat="46.41194" lon="5.63205">
        <ele>740.8</ele>
        <time>2023-08-30T14:48:14Z</time>
      </trkpt>
      <trkpt lat="46.41201" lon="5.63209">
        <ele>740.8</ele>
        <time>2023-08-30T14:48:15Z</time>
      </trkpt>
      <trkpt lat="46.41208" lon="5.63212">
        <ele>740.4</ele>
        <time>2023-08-30T14:48:16Z</time>
      </trkpt>
      <trkpt lat="46.41215" lon="5.63215">
        <ele>740.4</ele>
        <time>2023-08-30T14:48:17Z</time>
      </trkpt>
      <trkpt lat="46.41222" lon="5.63219">
        <ele>740.4</ele>
        <time>2023-08-30T14:48:18Z</time>
      </trkpt>
      <trkpt lat="46.41229" lon="5.63222">
        <ele>740.4</ele>
        <time>2023-08-30T14:48:19Z</time>
      </trkpt>
      <trkpt lat="46.41236" lon="5.63226">
        <ele>740.4</ele>
        <time>2023-08-30T14:48:20Z</time>
      </trkpt>
      <trkpt lat="46.41242" lon="5.63229">
        <ele>740.2</ele>
        <time>2023-08-30T14:48:21Z</time>
      </trkpt>
      <trkpt lat="46.41249" lon="5.63233">
        <ele>740.2</ele>
        <time>2023-08-30T14:48:22Z</time>
      </trkpt>
      <trkpt lat="46.41256" lon="5.63236">
        <ele>740.2</ele>
        <time>2023-08-30T14:48:23Z</time>
      </trkpt>
      <trkpt lat="46.41262" lon="5.6324">
        <ele>740.2</ele>
        <time>2023-08-30T14:48:24Z</time>
      </trkpt>
      <trkpt lat="46.41269" lon="5.63244">
        <ele>739.6</ele>
        <time>2023-08-30T14:48:25Z</time>
      </trkpt>
      <trkpt lat="46.41275" lon="5.63247">
        <ele>739.6</ele>
        <time>2023-08-30T14:48:26Z</time>
      </trkpt>
      <trkpt lat="46.41282" lon="5.63251">
        <ele>739.6</ele>
        <time>2023-08-30T14:48:27Z</time>
      </trkpt>
      <trkpt lat="46.41288" lon="5.63254">
        <ele>739.4</ele>
        <time>2023-08-30T14:48:28Z</time>
      </trkpt>
      <trkpt lat="46.41295" lon="5.63257">
        <ele>739</ele>
        <time>2023-08-30T14:48:29Z</time>
      </trkpt>
      <trkpt lat="46.41301" lon="5.6326">
        <ele>739</ele>
        <time>2023-08-30T14:48:30Z</time>
      </trkpt>
      <trkpt lat="46.41307" lon="5.63264">
        <ele>739</ele>
        <time>2023-08-30T14:48:31Z</time>
      </trkpt>
      <trkpt lat="46.41313" lon="5.63267">
        <ele>739</ele>
        <time>2023-08-30T14:48:32Z</time>
      </trkpt>
      <trkpt lat="46.41319" lon="5.6327">
        <ele>739</ele>
        <time>2023-08-30T14:48:33Z</time>
      </trkpt>
      <trkpt lat="46.41325" lon="5.63274">
        <ele>738.4</ele>
        <time>2023-08-30T14:48:34Z</time>
      </trkpt>
      <trkpt lat="46.4133" lon="5.63277">
        <ele>738.4</ele>
        <time>2023-08-30T14:48:35Z</time>
      </trkpt>
      <trkpt lat="46.41336" lon="5.6328">
        <ele>738.4</ele>
        <time>2023-08-30T14:48:36Z</time>
      </trkpt>
      <trkpt lat="46.41342" lon="5.63284">
        <ele>737.8</ele>
        <time>2023-08-30T14:48:37Z</time>
      </trkpt>
      <trkpt lat="46.41348" lon="5.63287">
        <ele>737.6</ele>
        <time>2023-08-30T14:48:38Z</time>
      </trkpt>
      <trkpt lat="46.41354" lon="5.6329">
        <ele>737.6</ele>
        <time>2023-08-30T14:48:39Z</time>
      </trkpt>
      <trkpt lat="46.4136" lon="5.63293">
        <ele>737.6</ele>
        <time>2023-08-30T14:48:40Z</time>
      </trkpt>
      <trkpt lat="46.41365" lon="5.63296">
        <ele>737.6</ele>
        <time>2023-08-30T14:48:41Z</time>
      </trkpt>
      <trkpt lat="46.41371" lon="5.63299">
        <ele>737</ele>
        <time>2023-08-30T14:48:42Z</time>
      </trkpt>
      <trkpt lat="46.41376" lon="5.63302">
        <ele>737.2</ele>
        <time>2023-08-30T14:48:43Z</time>
      </trkpt>
      <trkpt lat="46.41382" lon="5.63305">
        <ele>737.2</ele>
        <time>2023-08-30T14:48:44Z</time>
      </trkpt>
      <trkpt lat="46.41388" lon="5.63308">
        <ele>737.2</ele>
        <time>2023-08-30T14:48:45Z</time>
      </trkpt>
      <trkpt lat="46.41393" lon="5.63311">
        <ele>736.4</ele>
        <time>2023-08-30T14:48:46Z</time>
      </trkpt>
      <trkpt lat="46.41399" lon="5.63314">
        <ele>736.2</ele>
        <time>2023-08-30T14:48:47Z</time>
      </trkpt>
      <trkpt lat="46.41405" lon="5.63317">
        <ele>736.2</ele>
        <time>2023-08-30T14:48:48Z</time>
      </trkpt>
      <trkpt lat="46.41411" lon="5.6332">
        <ele>736.2</ele>
        <time>2023-08-30T14:48:49Z</time>
      </trkpt>
      <trkpt lat="46.41416" lon="5.63322">
        <ele>735.6</ele>
        <time>2023-08-30T14:48:50Z</time>
      </trkpt>
      <trkpt lat="46.41422" lon="5.63325">
        <ele>735.6</ele>
        <time>2023-08-30T14:48:51Z</time>
      </trkpt>
      <trkpt lat="46.41428" lon="5.63327">
        <ele>735.6</ele>
        <time>2023-08-30T14:48:52Z</time>
      </trkpt>
      <trkpt lat="46.41433" lon="5.63329">
        <ele>735.6</ele>
        <time>2023-08-30T14:48:53Z</time>
      </trkpt>
      <trkpt lat="46.41439" lon="5.63332">
        <ele>735.6</ele>
        <time>2023-08-30T14:48:54Z</time>
      </trkpt>
      <trkpt lat="46.41444" lon="5.63335">
        <ele>735.6</ele>
        <time>2023-08-30T14:48:55Z</time>
      </trkpt>
      <trkpt lat="46.41449" lon="5.63338">
        <ele>735</ele>
        <time>2023-08-30T14:48:56Z</time>
      </trkpt>
      <trkpt lat="46.41454" lon="5.6334">
        <ele>734.8</ele>
        <time>2023-08-30T14:48:57Z</time>
      </trkpt>
      <trkpt lat="46.41459" lon="5.63343">
        <ele>734.8</ele>
        <time>2023-08-30T14:48:58Z</time>
      </trkpt>
      <trkpt lat="46.41464" lon="5.63346">
        <ele>734.8</ele>
        <time>2023-08-30T14:48:59Z</time>
      </trkpt>
      <trkpt lat="46.41469" lon="5.63348">
        <ele>734.4</ele>
        <time>2023-08-30T14:49:00Z</time>
      </trkpt>
      <trkpt lat="46.41474" lon="5.63351">
        <ele>734.2</ele>
        <time>2023-08-30T14:49:01Z</time>
      </trkpt>
      <trkpt lat="46.41479" lon="5.63353">
        <ele>734.2</ele>
        <time>2023-08-30T14:49:02Z</time>
      </trkpt>
      <trkpt lat="46.41483" lon="5.63355">
        <ele>734.2</ele>
        <time>2023-08-30T14:49:03Z</time>
      </trkpt>
      <trkpt lat="46.41488" lon="5.63356">
        <ele>733.6</ele>
        <time>2023-08-30T14:49:04Z</time>
      </trkpt>
      <trkpt lat="46.41492" lon="5.63358">
        <ele>733.6</ele>
        <time>2023-08-30T14:49:05Z</time>
      </trkpt>
      <trkpt lat="46.41496" lon="5.6336">
        <ele>733.8</ele>
        <time>2023-08-30T14:49:06Z</time>
      </trkpt>
      <trkpt lat="46.415" lon="5.63362">
        <ele>733.8</ele>
        <time>2023-08-30T14:49:07Z</time>
      </trkpt>
      <trkpt lat="46.41504" lon="5.63364">
        <ele>733.8</ele>
        <time>2023-08-30T14:49:08Z</time>
      </trkpt>
      <trkpt lat="46.41508" lon="5.63365">
        <ele>733.2</ele>
        <time>2023-08-30T14:49:09Z</time>
      </trkpt>
      <trkpt lat="46.41512" lon="5.63367">
        <ele>732.8</ele>
        <time>2023-08-30T14:49:10Z</time>
      </trkpt>
      <trkpt lat="46.41517" lon="5.63368">
        <ele>732.8</ele>
        <time>2023-08-30T14:49:11Z</time>
      </trkpt>
      <trkpt lat="46.41521" lon="5.63369">
        <ele>732.8</ele>
        <time>2023-08-30T14:49:12Z</time>
      </trkpt>
      <trkpt lat="46.41525" lon="5.6337">
        <ele>732.8</ele>
        <time>2023-08-30T14:49:13Z</time>
      </trkpt>
      <trkpt lat="46.4153" lon="5.63371">
        <ele>732.6</ele>
        <time>2023-08-30T14:49:14Z</time>
      </trkpt>
      <trkpt lat="46.41534" lon="5.63373">
        <ele>732.6</ele>
        <time>2023-08-30T14:49:15Z</time>
      </trkpt>
      <trkpt lat="46.41538" lon="5.63374">
        <ele>732.6</ele>
        <time>2023-08-30T14:49:16Z</time>
      </trkpt>
      <trkpt lat="46.41543" lon="5.63376">
        <ele>732.6</ele>
        <time>2023-08-30T14:49:17Z</time>
      </trkpt>
      <trkpt lat="46.41547" lon="5.63378">
        <ele>731.8</ele>
        <time>2023-08-30T14:49:18Z</time>
      </trkpt>
      <trkpt lat="46.41552" lon="5.63379">
        <ele>731.8</ele>
        <time>2023-08-30T14:49:19Z</time>
      </trkpt>
      <trkpt lat="46.41556" lon="5.63381">
        <ele>731.8</ele>
        <time>2023-08-30T14:49:20Z</time>
      </trkpt>
      <trkpt lat="46.41561" lon="5.63383">
        <ele>731.8</ele>
        <time>2023-08-30T14:49:21Z</time>
      </trkpt>
      <trkpt lat="46.41565" lon="5.63386">
        <ele>731.8</ele>
        <time>2023-08-30T14:49:22Z</time>
      </trkpt>
      <trkpt lat="46.4157" lon="5.63388">
        <ele>731.6</ele>
        <time>2023-08-30T14:49:23Z</time>
      </trkpt>
      <trkpt lat="46.41575" lon="5.63391">
        <ele>731.2</ele>
        <time>2023-08-30T14:49:24Z</time>
      </trkpt>
      <trkpt lat="46.41579" lon="5.63393">
        <ele>731.2</ele>
        <time>2023-08-30T14:49:25Z</time>
      </trkpt>
      <trkpt lat="46.41583" lon="5.63396">
        <ele>731.2</ele>
        <time>2023-08-30T14:49:26Z</time>
      </trkpt>
      <trkpt lat="46.41588" lon="5.63399">
        <ele>731.2</ele>
        <time>2023-08-30T14:49:27Z</time>
      </trkpt>
      <trkpt lat="46.41592" lon="5.63401">
        <ele>730.6</ele>
        <time>2023-08-30T14:49:28Z</time>
      </trkpt>
      <trkpt lat="46.41597" lon="5.63404">
        <ele>730.6</ele>
        <time>2023-08-30T14:49:29Z</time>
      </trkpt>
      <trkpt lat="46.41602" lon="5.63406">
        <ele>730.6</ele>
        <time>2023-08-30T14:49:30Z</time>
      </trkpt>
      <trkpt lat="46.41606" lon="5.63408">
        <ele>730.6</ele>
        <time>2023-08-30T14:49:31Z</time>
      </trkpt>
      <trkpt lat="46.41611" lon="5.6341">
        <ele>730.4</ele>
        <time>2023-08-30T14:49:32Z</time>
      </trkpt>
      <trkpt lat="46.41616" lon="5.63413">
        <ele>730.6</ele>
        <time>2023-08-30T14:49:33Z</time>
      </trkpt>
      <trkpt lat="46.41621" lon="5.63415">
        <ele>730.6</ele>
        <time>2023-08-30T14:49:34Z</time>
      </trkpt>
      <trkpt lat="46.41627" lon="5.63418">
        <ele>730.6</ele>
        <time>2023-08-30T14:49:35Z</time>
      </trkpt>
      <trkpt lat="46.41632" lon="5.63421">
        <ele>730</ele>
        <time>2023-08-30T14:49:36Z</time>
      </trkpt>
      <trkpt lat="46.41637" lon="5.63424">
        <ele>729.8</ele>
        <time>2023-08-30T14:49:37Z</time>
      </trkpt>
      <trkpt lat="46.41642" lon="5.63428">
        <ele>729.8</ele>
        <time>2023-08-30T14:49:38Z</time>
      </trkpt>
      <trkpt lat="46.41647" lon="5.63434">
        <ele>729.8</ele>
        <time>2023-08-30T14:49:39Z</time>
      </trkpt>
      <trkpt lat="46.41651" lon="5.63441">
        <ele>729</ele>
        <time>2023-08-30T14:49:40Z</time>
      </trkpt>
      <trkpt lat="46.41654" lon="5.63449">
        <ele>729</ele>
        <time>2023-08-30T14:49:41Z</time>
      </trkpt>
      <trkpt lat="46.41656" lon="5.63459">
        <ele>728.6</ele>
        <time>2023-08-30T14:49:42Z</time>
      </trkpt>
      <trkpt lat="46.41656" lon="5.63469">
        <ele>728.6</ele>
        <time>2023-08-30T14:49:43Z</time>
      </trkpt>
      <trkpt lat="46.41655" lon="5.6348">
        <ele>728.6</ele>
        <time>2023-08-30T14:49:44Z</time>
      </trkpt>
      <trkpt lat="46.41654" lon="5.6349">
        <ele>728.6</ele>
        <time>2023-08-30T14:49:45Z</time>
      </trkpt>
      <trkpt lat="46.41653" lon="5.63501">
        <ele>727.6</ele>
        <time>2023-08-30T14:49:46Z</time>
      </trkpt>
      <trkpt lat="46.41652" lon="5.63511">
        <ele>727.2</ele>
        <time>2023-08-30T14:49:47Z</time>
      </trkpt>
      <trkpt lat="46.41653" lon="5.63522">
        <ele>727.2</ele>
        <time>2023-08-30T14:49:48Z</time>
      </trkpt>
      <trkpt lat="46.41655" lon="5.63531">
        <ele>727.2</ele>
        <time>2023-08-30T14:49:49Z</time>
      </trkpt>
      <trkpt lat="46.41659" lon="5.6354">
        <ele>726.2</ele>
        <time>2023-08-30T14:49:50Z</time>
      </trkpt>
      <trkpt lat="46.41664" lon="5.63547">
        <ele>725.8</ele>
        <time>2023-08-30T14:49:51Z</time>
      </trkpt>
      <trkpt lat="46.41669" lon="5.63553">
        <ele>725.8</ele>
        <time>2023-08-30T14:49:52Z</time>
      </trkpt>
      <trkpt lat="46.41674" lon="5.63558">
        <ele>725.8</ele>
        <time>2023-08-30T14:49:53Z</time>
      </trkpt>
      <trkpt lat="46.41681" lon="5.63563">
        <ele>725</ele>
        <time>2023-08-30T14:49:54Z</time>
      </trkpt>
      <trkpt lat="46.41687" lon="5.63567">
        <ele>724.4</ele>
        <time>2023-08-30T14:49:55Z</time>
      </trkpt>
      <trkpt lat="46.41693" lon="5.63572">
        <ele>724.4</ele>
        <time>2023-08-30T14:49:56Z</time>
      </trkpt>
      <trkpt lat="46.41699" lon="5.63577">
        <ele>724.4</ele>
        <time>2023-08-30T14:49:57Z</time>
      </trkpt>
      <trkpt lat="46.41706" lon="5.63582">
        <ele>724.4</ele>
        <time>2023-08-30T14:49:58Z</time>
      </trkpt>
      <trkpt lat="46.41713" lon="5.63587">
        <ele>723.4</ele>
        <time>2023-08-30T14:49:59Z</time>
      </trkpt>
      <trkpt lat="46.41719" lon="5.63592">
        <ele>722.8</ele>
        <time>2023-08-30T14:50:00Z</time>
      </trkpt>
      <trkpt lat="46.41726" lon="5.63598">
        <ele>722.8</ele>
        <time>2023-08-30T14:50:01Z</time>
      </trkpt>
      <trkpt lat="46.41733" lon="5.63603">
        <ele>722.8</ele>
        <time>2023-08-30T14:50:02Z</time>
      </trkpt>
      <trkpt lat="46.41739" lon="5.63609">
        <ele>721.8</ele>
        <time>2023-08-30T14:50:03Z</time>
      </trkpt>
      <trkpt lat="46.41746" lon="5.63614">
        <ele>721.6</ele>
        <time>2023-08-30T14:50:04Z</time>
      </trkpt>
      <trkpt lat="46.41753" lon="5.6362">
        <ele>721.6</ele>
        <time>2023-08-30T14:50:05Z</time>
      </trkpt>
      <trkpt lat="46.4176" lon="5.63625">
        <ele>721.6</ele>
        <time>2023-08-30T14:50:06Z</time>
      </trkpt>
      <trkpt lat="46.41768" lon="5.63631">
        <ele>721.6</ele>
        <time>2023-08-30T14:50:07Z</time>
      </trkpt>
      <trkpt lat="46.41775" lon="5.63636">
        <ele>720.6</ele>
        <time>2023-08-30T14:50:08Z</time>
      </trkpt>
      <trkpt lat="46.41782" lon="5.63642">
        <ele>720.6</ele>
        <time>2023-08-30T14:50:09Z</time>
      </trkpt>
      <trkpt lat="46.4179" lon="5.63648">
        <ele>719.2</ele>
        <time>2023-08-30T14:50:10Z</time>
      </trkpt>
      <trkpt lat="46.41798" lon="5.63654">
        <ele>719.2</ele>
        <time>2023-08-30T14:50:11Z</time>
      </trkpt>
      <trkpt lat="46.41806" lon="5.6366">
        <ele>719.2</ele>
        <time>2023-08-30T14:50:12Z</time>
      </trkpt>
      <trkpt lat="46.41815" lon="5.63667">
        <ele>718.2</ele>
        <time>2023-08-30T14:50:13Z</time>
      </trkpt>
      <trkpt lat="46.41823" lon="5.63674">
        <ele>716.6</ele>
        <time>2023-08-30T14:50:14Z</time>
      </trkpt>
      <trkpt lat="46.41832" lon="5.63681">
        <ele>716.6</ele>
        <time>2023-08-30T14:50:15Z</time>
      </trkpt>
      <trkpt lat="46.41841" lon="5.63688">
        <ele>716.6</ele>
        <time>2023-08-30T14:50:16Z</time>
      </trkpt>
      <trkpt lat="46.4185" lon="5.63694">
        <ele>715.6</ele>
        <time>2023-08-30T14:50:17Z</time>
      </trkpt>
      <trkpt lat="46.41859" lon="5.63701">
        <ele>714</ele>
        <time>2023-08-30T14:50:18Z</time>
      </trkpt>
      <trkpt lat="46.41868" lon="5.63709">
        <ele>714</ele>
        <time>2023-08-30T14:50:19Z</time>
      </trkpt>
      <trkpt lat="46.41877" lon="5.63716">
        <ele>714</ele>
        <time>2023-08-30T14:50:20Z</time>
      </trkpt>
      <trkpt lat="46.41886" lon="5.63723">
        <ele>714</ele>
        <time>2023-08-30T14:50:21Z</time>
      </trkpt>
      <trkpt lat="46.41895" lon="5.6373">
        <ele>713</ele>
        <time>2023-08-30T14:50:22Z</time>
      </trkpt>
      <trkpt lat="46.41904" lon="5.63737">
        <ele>711.6</ele>
        <time>2023-08-30T14:50:23Z</time>
      </trkpt>
      <trkpt lat="46.41913" lon="5.63743">
        <ele>711.6</ele>
        <time>2023-08-30T14:50:24Z</time>
      </trkpt>
      <trkpt lat="46.41922" lon="5.6375">
        <ele>711.6</ele>
        <time>2023-08-30T14:50:25Z</time>
      </trkpt>
      <trkpt lat="46.41931" lon="5.63757">
        <ele>710.6</ele>
        <time>2023-08-30T14:50:26Z</time>
      </trkpt>
      <trkpt lat="46.4194" lon="5.63763">
        <ele>709</ele>
        <time>2023-08-30T14:50:27Z</time>
      </trkpt>
      <trkpt lat="46.41949" lon="5.6377">
        <ele>709</ele>
        <time>2023-08-30T14:50:28Z</time>
      </trkpt>
      <trkpt lat="46.41958" lon="5.63776">
        <ele>709</ele>
        <time>2023-08-30T14:50:29Z</time>
      </trkpt>
      <trkpt lat="46.41967" lon="5.63782">
        <ele>709</ele>
        <time>2023-08-30T14:50:30Z</time>
      </trkpt>
      <trkpt lat="46.41976" lon="5.63788">
        <ele>708</ele>
        <time>2023-08-30T14:50:31Z</time>
      </trkpt>
      <trkpt lat="46.41985" lon="5.63794">
        <ele>707.2</ele>
        <time>2023-08-30T14:50:32Z</time>
      </trkpt>
      <trkpt lat="46.41994" lon="5.638">
        <ele>707.2</ele>
        <time>2023-08-30T14:50:33Z</time>
      </trkpt>
      <trkpt lat="46.42003" lon="5.63807">
        <ele>707.2</ele>
        <time>2023-08-30T14:50:34Z</time>
      </trkpt>
      <trkpt lat="46.42012" lon="5.63813">
        <ele>706.2</ele>
        <time>2023-08-30T14:50:35Z</time>
      </trkpt>
      <trkpt lat="46.42021" lon="5.6382">
        <ele>705.4</ele>
        <time>2023-08-30T14:50:36Z</time>
      </trkpt>
      <trkpt lat="46.4203" lon="5.63827">
        <ele>705.4</ele>
        <time>2023-08-30T14:50:37Z</time>
      </trkpt>
      <trkpt lat="46.4204" lon="5.63834">
        <ele>705.4</ele>
        <time>2023-08-30T14:50:38Z</time>
      </trkpt>
      <trkpt lat="46.42049" lon="5.6384">
        <ele>705.4</ele>
        <time>2023-08-30T14:50:39Z</time>
      </trkpt>
      <trkpt lat="46.42059" lon="5.63846">
        <ele>704.4</ele>
        <time>2023-08-30T14:50:40Z</time>
      </trkpt>
      <trkpt lat="46.42069" lon="5.63852">
        <ele>703.2</ele>
        <time>2023-08-30T14:50:41Z</time>
      </trkpt>
      <trkpt lat="46.42078" lon="5.63859">
        <ele>703.2</ele>
        <time>2023-08-30T14:50:42Z</time>
      </trkpt>
      <trkpt lat="46.42087" lon="5.63865">
        <ele>703.2</ele>
        <time>2023-08-30T14:50:43Z</time>
      </trkpt>
      <trkpt lat="46.42096" lon="5.63872">
        <ele>703.2</ele>
        <time>2023-08-30T14:50:44Z</time>
      </trkpt>
      <trkpt lat="46.42105" lon="5.63879">
        <ele>702.2</ele>
        <time>2023-08-30T14:50:45Z</time>
      </trkpt>
      <trkpt lat="46.42114" lon="5.63885">
        <ele>701.8</ele>
        <time>2023-08-30T14:50:46Z</time>
      </trkpt>
      <trkpt lat="46.42123" lon="5.63892">
        <ele>701.8</ele>
        <time>2023-08-30T14:50:47Z</time>
      </trkpt>
      <trkpt lat="46.42131" lon="5.63899">
        <ele>701.8</ele>
        <time>2023-08-30T14:50:48Z</time>
      </trkpt>
      <trkpt lat="46.42139" lon="5.63907">
        <ele>700.8</ele>
        <time>2023-08-30T14:50:49Z</time>
      </trkpt>
      <trkpt lat="46.42147" lon="5.63917">
        <ele>700.2</ele>
        <time>2023-08-30T14:50:50Z</time>
      </trkpt>
      <trkpt lat="46.42153" lon="5.63928">
        <ele>700.2</ele>
        <time>2023-08-30T14:50:51Z</time>
      </trkpt>
      <trkpt lat="46.42156" lon="5.63942">
        <ele>700.2</ele>
        <time>2023-08-30T14:50:52Z</time>
      </trkpt>
      <trkpt lat="46.42158" lon="5.63956">
        <ele>700.2</ele>
        <time>2023-08-30T14:50:53Z</time>
      </trkpt>
      <trkpt lat="46.4216" lon="5.63972">
        <ele>699.2</ele>
        <time>2023-08-30T14:50:54Z</time>
      </trkpt>
      <trkpt lat="46.4216" lon="5.63986">
        <ele>698.2</ele>
        <time>2023-08-30T14:50:55Z</time>
      </trkpt>
      <trkpt lat="46.4216" lon="5.64001">
        <ele>698.2</ele>
        <time>2023-08-30T14:50:56Z</time>
      </trkpt>
      <trkpt lat="46.4216" lon="5.64016">
        <ele>698.2</ele>
        <time>2023-08-30T14:50:57Z</time>
      </trkpt>
      <trkpt lat="46.42158" lon="5.6403">
        <ele>697.2</ele>
        <time>2023-08-30T14:50:58Z</time>
      </trkpt>
      <trkpt lat="46.42157" lon="5.64043">
        <ele>697.2</ele>
        <time>2023-08-30T14:50:59Z</time>
      </trkpt>
      <trkpt lat="46.42155" lon="5.64055">
        <ele>697.2</ele>
        <time>2023-08-30T14:51:00Z</time>
      </trkpt>
      <trkpt lat="46.42153" lon="5.64066">
        <ele>696.6</ele>
        <time>2023-08-30T14:51:01Z</time>
      </trkpt>
      <trkpt lat="46.42153" lon="5.64075">
        <ele>696.6</ele>
        <time>2023-08-30T14:51:02Z</time>
      </trkpt>
      <trkpt lat="46.42153" lon="5.64085">
        <ele>696.6</ele>
        <time>2023-08-30T14:51:03Z</time>
      </trkpt>
      <trkpt lat="46.42156" lon="5.64095">
        <ele>695.6</ele>
        <time>2023-08-30T14:51:04Z</time>
      </trkpt>
      <trkpt lat="46.42158" lon="5.64104">
        <ele>694.8</ele>
        <time>2023-08-30T14:51:05Z</time>
      </trkpt>
      <trkpt lat="46.42161" lon="5.64113">
        <ele>694.8</ele>
        <time>2023-08-30T14:51:06Z</time>
      </trkpt>
      <trkpt lat="46.42164" lon="5.6412">
        <ele>694.8</ele>
        <time>2023-08-30T14:51:07Z</time>
      </trkpt>
      <trkpt lat="46.42166" lon="5.64125">
        <ele>693.8</ele>
        <time>2023-08-30T14:51:08Z</time>
      </trkpt>
      <trkpt lat="46.42166" lon="5.6413">
        <ele>693.2</ele>
        <time>2023-08-30T14:51:09Z</time>
      </trkpt>
      <trkpt lat="46.42167" lon="5.64133">
        <ele>693.2</ele>
        <time>2023-08-30T14:51:10Z</time>
      </trkpt>
      <trkpt lat="46.42167" lon="5.64134">
        <ele>693.2</ele>
        <time>2023-08-30T14:51:11Z</time>
      </trkpt>
      <trkpt lat="46.42168" lon="5.64136">
        <ele>692.2</ele>
        <time>2023-08-30T14:51:12Z</time>
      </trkpt>
      <trkpt lat="46.42168" lon="5.64136">
        <ele>691.2</ele>
        <time>2023-08-30T14:51:13Z</time>
      </trkpt>
      <trkpt lat="46.42169" lon="5.64136">
        <ele>691.2</ele>
        <time>2023-08-30T14:51:14Z</time>
      </trkpt>
      <trkpt lat="46.42169" lon="5.64136">
        <ele>691.2</ele>
        <time>2023-08-30T14:51:15Z</time>
      </trkpt>
      <trkpt lat="46.4217" lon="5.64135">
        <ele>676.6</ele>
        <time>2023-08-30T14:52:14Z</time>
      </trkpt>
      <trkpt lat="46.42171" lon="5.64138">
        <ele>676.6</ele>
        <time>2023-08-30T14:52:15Z</time>
      </trkpt>
      <trkpt lat="46.42173" lon="5.64141">
        <ele>676.6</ele>
        <time>2023-08-30T14:52:16Z</time>
      </trkpt>
      <trkpt lat="46.42175" lon="5.64144">
        <ele>676.6</ele>
        <time>2023-08-30T14:52:17Z</time>
      </trkpt>
      <trkpt lat="46.42177" lon="5.64149">
        <ele>675.8</ele>
        <time>2023-08-30T14:52:18Z</time>
      </trkpt>
      <trkpt lat="46.4218" lon="5.64153">
        <ele>675.8</ele>
        <time>2023-08-30T14:52:19Z</time>
      </trkpt>
      <trkpt lat="46.42183" lon="5.64157">
        <ele>675.8</ele>
        <time>2023-08-30T14:52:20Z</time>
      </trkpt>
      <trkpt lat="46.42188" lon="5.64161">
        <ele>675</ele>
        <time>2023-08-30T14:52:21Z</time>
      </trkpt>
      <trkpt lat="46.42193" lon="5.64165">
        <ele>674.8</ele>
        <time>2023-08-30T14:52:22Z</time>
      </trkpt>
      <trkpt lat="46.42198" lon="5.64167">
        <ele>674.8</ele>
        <time>2023-08-30T14:52:23Z</time>
      </trkpt>
      <trkpt lat="46.42204" lon="5.6417">
        <ele>674.8</ele>
        <time>2023-08-30T14:52:24Z</time>
      </trkpt>
      <trkpt lat="46.4221" lon="5.64171">
        <ele>674.8</ele>
        <time>2023-08-30T14:52:25Z</time>
      </trkpt>
      <trkpt lat="46.42216" lon="5.64171">
        <ele>674.8</ele>
        <time>2023-08-30T14:52:26Z</time>
      </trkpt>
      <trkpt lat="46.42223" lon="5.64172">
        <ele>674.4</ele>
        <time>2023-08-30T14:52:27Z</time>
      </trkpt>
      <trkpt lat="46.42229" lon="5.64174">
        <ele>674.4</ele>
        <time>2023-08-30T14:52:28Z</time>
      </trkpt>
      <trkpt lat="46.42236" lon="5.64176">
        <ele>674.4</ele>
        <time>2023-08-30T14:52:29Z</time>
      </trkpt>
      <trkpt lat="46.42243" lon="5.64178">
        <ele>674.4</ele>
        <time>2023-08-30T14:52:30Z</time>
      </trkpt>
      <trkpt lat="46.42251" lon="5.64181">
        <ele>673.8</ele>
        <time>2023-08-30T14:52:31Z</time>
      </trkpt>
      <trkpt lat="46.42258" lon="5.64184">
        <ele>673.8</ele>
        <time>2023-08-30T14:52:32Z</time>
      </trkpt>
      <trkpt lat="46.42266" lon="5.64188">
        <ele>673.8</ele>
        <time>2023-08-30T14:52:33Z</time>
      </trkpt>
      <trkpt lat="46.42274" lon="5.64192">
        <ele>673.4</ele>
        <time>2023-08-30T14:52:34Z</time>
      </trkpt>
      <trkpt lat="46.42283" lon="5.64195">
        <ele>673.2</ele>
        <time>2023-08-30T14:52:35Z</time>
      </trkpt>
      <trkpt lat="46.42291" lon="5.642">
        <ele>673.2</ele>
        <time>2023-08-30T14:52:36Z</time>
      </trkpt>
      <trkpt lat="46.423" lon="5.64206">
        <ele>673.2</ele>
        <time>2023-08-30T14:52:37Z</time>
      </trkpt>
      <trkpt lat="46.42308" lon="5.64212">
        <ele>673.2</ele>
        <time>2023-08-30T14:52:38Z</time>
      </trkpt>
      <trkpt lat="46.42316" lon="5.6422">
        <ele>673.2</ele>
        <time>2023-08-30T14:52:39Z</time>
      </trkpt>
      <trkpt lat="46.42323" lon="5.64229">
        <ele>672.2</ele>
        <time>2023-08-30T14:52:40Z</time>
      </trkpt>
      <trkpt lat="46.4233" lon="5.6424">
        <ele>672.2</ele>
        <time>2023-08-30T14:52:41Z</time>
      </trkpt>
      <trkpt lat="46.42336" lon="5.64252">
        <ele>672.2</ele>
        <time>2023-08-30T14:52:42Z</time>
      </trkpt>
      <trkpt lat="46.42342" lon="5.64265">
        <ele>672.2</ele>
        <time>2023-08-30T14:52:43Z</time>
      </trkpt>
      <trkpt lat="46.42347" lon="5.6428">
        <ele>671.2</ele>
        <time>2023-08-30T14:52:44Z</time>
      </trkpt>
      <trkpt lat="46.42353" lon="5.64295">
        <ele>670.6</ele>
        <time>2023-08-30T14:52:45Z</time>
      </trkpt>
      <trkpt lat="46.42357" lon="5.64309">
        <ele>670.6</ele>
        <time>2023-08-30T14:52:46Z</time>
      </trkpt>
      <trkpt lat="46.42361" lon="5.64325">
        <ele>670.6</ele>
        <time>2023-08-30T14:52:47Z</time>
      </trkpt>
      <trkpt lat="46.42364" lon="5.64341">
        <ele>669.6</ele>
        <time>2023-08-30T14:52:48Z</time>
      </trkpt>
      <trkpt lat="46.42366" lon="5.64358">
        <ele>669</ele>
        <time>2023-08-30T14:52:49Z</time>
      </trkpt>
      <trkpt lat="46.42367" lon="5.64374">
        <ele>669</ele>
        <time>2023-08-30T14:52:50Z</time>
      </trkpt>
      <trkpt lat="46.42366" lon="5.6439">
        <ele>669</ele>
        <time>2023-08-30T14:52:51Z</time>
      </trkpt>
      <trkpt lat="46.42364" lon="5.64406">
        <ele>669</ele>
        <time>2023-08-30T14:52:52Z</time>
      </trkpt>
      <trkpt lat="46.4236" lon="5.64421">
        <ele>668</ele>
        <time>2023-08-30T14:52:53Z</time>
      </trkpt>
      <trkpt lat="46.42357" lon="5.64437">
        <ele>667.2</ele>
        <time>2023-08-30T14:52:54Z</time>
      </trkpt>
      <trkpt lat="46.42352" lon="5.64452">
        <ele>667.2</ele>
        <time>2023-08-30T14:52:55Z</time>
      </trkpt>
      <trkpt lat="46.42346" lon="5.64467">
        <ele>667.2</ele>
        <time>2023-08-30T14:52:56Z</time>
      </trkpt>
      <trkpt lat="46.42341" lon="5.64483">
        <ele>666.2</ele>
        <time>2023-08-30T14:52:57Z</time>
      </trkpt>
      <trkpt lat="46.42337" lon="5.64498">
        <ele>665.4</ele>
        <time>2023-08-30T14:52:58Z</time>
      </trkpt>
      <trkpt lat="46.42333" lon="5.64514">
        <ele>665.4</ele>
        <time>2023-08-30T14:52:59Z</time>
      </trkpt>
      <trkpt lat="46.42329" lon="5.64529">
        <ele>665.4</ele>
        <time>2023-08-30T14:53:00Z</time>
      </trkpt>
      <trkpt lat="46.42324" lon="5.64543">
        <ele>664.4</ele>
        <time>2023-08-30T14:53:01Z</time>
      </trkpt>
      <trkpt lat="46.42317" lon="5.64555">
        <ele>664.4</ele>
        <time>2023-08-30T14:53:02Z</time>
      </trkpt>
      <trkpt lat="46.4231" lon="5.64567">
        <ele>663.4</ele>
        <time>2023-08-30T14:53:03Z</time>
      </trkpt>
      <trkpt lat="46.42306" lon="5.6458">
        <ele>663.4</ele>
        <time>2023-08-30T14:53:04Z</time>
      </trkpt>
      <trkpt lat="46.42302" lon="5.64592">
        <ele>663.4</ele>
        <time>2023-08-30T14:53:05Z</time>
      </trkpt>
      <trkpt lat="46.42302" lon="5.64603">
        <ele>662.4</ele>
        <time>2023-08-30T14:53:06Z</time>
      </trkpt>
      <trkpt lat="46.42304" lon="5.64614">
        <ele>661.4</ele>
        <time>2023-08-30T14:53:07Z</time>
      </trkpt>
      <trkpt lat="46.42308" lon="5.64624">
        <ele>661.4</ele>
        <time>2023-08-30T14:53:08Z</time>
      </trkpt>
      <trkpt lat="46.42313" lon="5.64633">
        <ele>661.4</ele>
        <time>2023-08-30T14:53:09Z</time>
      </trkpt>
      <trkpt lat="46.42318" lon="5.64641">
        <ele>660.4</ele>
        <time>2023-08-30T14:53:10Z</time>
      </trkpt>
      <trkpt lat="46.42325" lon="5.64647">
        <ele>658.6</ele>
        <time>2023-08-30T14:53:11Z</time>
      </trkpt>
      <trkpt lat="46.42332" lon="5.64654">
        <ele>658.6</ele>
        <time>2023-08-30T14:53:12Z</time>
      </trkpt>
      <trkpt lat="46.42338" lon="5.64662">
        <ele>658.6</ele>
        <time>2023-08-30T14:53:13Z</time>
      </trkpt>
      <trkpt lat="46.42341" lon="5.64673">
        <ele>657.6</ele>
        <time>2023-08-30T14:53:14Z</time>
      </trkpt>
      <trkpt lat="46.4234" lon="5.64684">
        <ele>655.6</ele>
        <time>2023-08-30T14:53:15Z</time>
      </trkpt>
      <trkpt lat="46.42336" lon="5.64696">
        <ele>655.6</ele>
        <time>2023-08-30T14:53:16Z</time>
      </trkpt>
      <trkpt lat="46.4233" lon="5.64706">
        <ele>655.6</ele>
        <time>2023-08-30T14:53:17Z</time>
      </trkpt>
      <trkpt lat="46.42325" lon="5.64716">
        <ele>655.6</ele>
        <time>2023-08-30T14:53:18Z</time>
      </trkpt>
      <trkpt lat="46.42319" lon="5.64726">
        <ele>654.6</ele>
        <time>2023-08-30T14:53:19Z</time>
      </trkpt>
      <trkpt lat="46.42313" lon="5.64736">
        <ele>654.6</ele>
        <time>2023-08-30T14:53:20Z</time>
      </trkpt>
      <trkpt lat="46.42307" lon="5.64746">
        <ele>653</ele>
        <time>2023-08-30T14:53:21Z</time>
      </trkpt>
      <trkpt lat="46.42302" lon="5.64756">
        <ele>653</ele>
        <time>2023-08-30T14:53:22Z</time>
      </trkpt>
      <trkpt lat="46.42296" lon="5.64766">
        <ele>652</ele>
        <time>2023-08-30T14:53:23Z</time>
      </trkpt>
      <trkpt lat="46.4229" lon="5.64775">
        <ele>652</ele>
        <time>2023-08-30T14:53:24Z</time>
      </trkpt>
      <trkpt lat="46.42284" lon="5.64785">
        <ele>649.8</ele>
        <time>2023-08-30T14:53:25Z</time>
      </trkpt>
      <trkpt lat="46.42278" lon="5.64795">
        <ele>649.8</ele>
        <time>2023-08-30T14:53:26Z</time>
      </trkpt>
      <trkpt lat="46.42273" lon="5.64805">
        <ele>649.8</ele>
        <time>2023-08-30T14:53:27Z</time>
      </trkpt>
      <trkpt lat="46.42267" lon="5.64815">
        <ele>648.8</ele>
        <time>2023-08-30T14:53:28Z</time>
      </trkpt>
      <trkpt lat="46.42263" lon="5.64826">
        <ele>648.8</ele>
        <time>2023-08-30T14:53:29Z</time>
      </trkpt>
      <trkpt lat="46.42261" lon="5.64836">
        <ele>647</ele>
        <time>2023-08-30T14:53:30Z</time>
      </trkpt>
      <trkpt lat="46.42264" lon="5.64845">
        <ele>647</ele>
        <time>2023-08-30T14:53:31Z</time>
      </trkpt>
      <trkpt lat="46.42273" lon="5.64856">
        <ele>647</ele>
        <time>2023-08-30T14:53:32Z</time>
      </trkpt>
      <trkpt lat="46.42279" lon="5.64866">
        <ele>647</ele>
        <time>2023-08-30T14:53:33Z</time>
      </trkpt>
      <trkpt lat="46.42286" lon="5.64875">
        <ele>643.6</ele>
        <time>2023-08-30T14:53:34Z</time>
      </trkpt>
      <trkpt lat="46.42293" lon="5.64883">
        <ele>643.6</ele>
        <time>2023-08-30T14:53:35Z</time>
      </trkpt>
      <trkpt lat="46.42302" lon="5.6489">
        <ele>643.6</ele>
        <time>2023-08-30T14:53:36Z</time>
      </trkpt>
      <trkpt lat="46.42311" lon="5.64897">
        <ele>643.6</ele>
        <time>2023-08-30T14:53:37Z</time>
      </trkpt>
      <trkpt lat="46.42318" lon="5.64904">
        <ele>642.6</ele>
        <time>2023-08-30T14:53:38Z</time>
      </trkpt>
      <trkpt lat="46.42324" lon="5.64911">
        <ele>640.8</ele>
        <time>2023-08-30T14:53:39Z</time>
      </trkpt>
      <trkpt lat="46.42328" lon="5.64919">
        <ele>640.8</ele>
        <time>2023-08-30T14:53:40Z</time>
      </trkpt>
      <trkpt lat="46.4233" lon="5.64927">
        <ele>640.8</ele>
        <time>2023-08-30T14:53:41Z</time>
      </trkpt>
      <trkpt lat="46.42331" lon="5.64936">
        <ele>640.8</ele>
        <time>2023-08-30T14:53:42Z</time>
      </trkpt>
      <trkpt lat="46.4233" lon="5.64943">
        <ele>639.8</ele>
        <time>2023-08-30T14:53:43Z</time>
      </trkpt>
      <trkpt lat="46.42328" lon="5.64951">
        <ele>638</ele>
        <time>2023-08-30T14:53:44Z</time>
      </trkpt>
      <trkpt lat="46.42324" lon="5.64957">
        <ele>638</ele>
        <time>2023-08-30T14:53:45Z</time>
      </trkpt>
      <trkpt lat="46.4232" lon="5.64961">
        <ele>638</ele>
        <time>2023-08-30T14:53:46Z</time>
      </trkpt>
      <trkpt lat="46.42314" lon="5.64965">
        <ele>638</ele>
        <time>2023-08-30T14:53:47Z</time>
      </trkpt>
      <trkpt lat="46.42308" lon="5.64968">
        <ele>637</ele>
        <time>2023-08-30T14:53:48Z</time>
      </trkpt>
      <trkpt lat="46.42302" lon="5.64971">
        <ele>635.4</ele>
        <time>2023-08-30T14:53:49Z</time>
      </trkpt>
      <trkpt lat="46.42295" lon="5.64974">
        <ele>635.4</ele>
        <time>2023-08-30T14:53:50Z</time>
      </trkpt>
      <trkpt lat="46.42288" lon="5.64977">
        <ele>635.4</ele>
        <time>2023-08-30T14:53:51Z</time>
      </trkpt>
      <trkpt lat="46.42281" lon="5.64979">
        <ele>634.4</ele>
        <time>2023-08-30T14:53:52Z</time>
      </trkpt>
      <trkpt lat="46.42274" lon="5.64981">
        <ele>633.2</ele>
        <time>2023-08-30T14:53:53Z</time>
      </trkpt>
      <trkpt lat="46.42266" lon="5.64983">
        <ele>633.2</ele>
        <time>2023-08-30T14:53:54Z</time>
      </trkpt>
      <trkpt lat="46.42259" lon="5.64985">
        <ele>633.2</ele>
        <time>2023-08-30T14:53:55Z</time>
      </trkpt>
      <trkpt lat="46.42252" lon="5.64987">
        <ele>633.2</ele>
        <time>2023-08-30T14:53:56Z</time>
      </trkpt>
      <trkpt lat="46.42247" lon="5.64988">
        <ele>632.2</ele>
        <time>2023-08-30T14:53:57Z</time>
      </trkpt>
      <trkpt lat="46.42242" lon="5.64988">
        <ele>631.2</ele>
        <time>2023-08-30T14:53:58Z</time>
      </trkpt>
      <trkpt lat="46.42237" lon="5.64989">
        <ele>631.2</ele>
        <time>2023-08-30T14:53:59Z</time>
      </trkpt>
      <trkpt lat="46.42233" lon="5.6499">
        <ele>631.2</ele>
        <time>2023-08-30T14:54:00Z</time>
      </trkpt>
      <trkpt lat="46.42229" lon="5.6499">
        <ele>630.2</ele>
        <time>2023-08-30T14:54:01Z</time>
      </trkpt>
      <trkpt lat="46.42226" lon="5.6499">
        <ele>629.2</ele>
        <time>2023-08-30T14:54:02Z</time>
      </trkpt>
      <trkpt lat="46.42223" lon="5.64992">
        <ele>629.2</ele>
        <time>2023-08-30T14:54:03Z</time>
      </trkpt>
      <trkpt lat="46.42221" lon="5.64994">
        <ele>629.2</ele>
        <time>2023-08-30T14:54:04Z</time>
      </trkpt>
      <trkpt lat="46.4222" lon="5.64995">
        <ele>629.2</ele>
        <time>2023-08-30T14:54:05Z</time>
      </trkpt>
      <trkpt lat="46.42218" lon="5.64996">
        <ele>628.2</ele>
        <time>2023-08-30T14:54:06Z</time>
      </trkpt>
      <trkpt lat="46.42217" lon="5.64997">
        <ele>626.8</ele>
        <time>2023-08-30T14:54:07Z</time>
      </trkpt>
      <trkpt lat="46.42216" lon="5.64997">
        <ele>626.8</ele>
        <time>2023-08-30T14:54:08Z</time>
      </trkpt>
      <trkpt lat="46.42215" lon="5.64998">
        <ele>626.8</ele>
        <time>2023-08-30T14:54:09Z</time>
      </trkpt>
      <trkpt lat="46.42214" lon="5.64998">
        <ele>625.8</ele>
        <time>2023-08-30T14:54:10Z</time>
      </trkpt>
      <trkpt lat="46.42213" lon="5.64999">
        <ele>624.8</ele>
        <time>2023-08-30T14:54:11Z</time>
      </trkpt>
      <trkpt lat="46.42211" lon="5.64999">
        <ele>624.8</ele>
        <time>2023-08-30T14:54:12Z</time>
      </trkpt>
      <trkpt lat="46.4221" lon="5.64999">
        <ele>624.8</ele>
        <time>2023-08-30T14:54:13Z</time>
      </trkpt>
      <trkpt lat="46.4221" lon="5.64999">
        <ele>623.8</ele>
        <time>2023-08-30T14:54:14Z</time>
      </trkpt>
      <trkpt lat="46.42209" lon="5.64996">
        <ele>608.4</ele>
        <time>2023-08-30T14:55:33Z</time>
      </trkpt>
      <trkpt lat="46.42208" lon="5.64995">
        <ele>608.4</ele>
        <time>2023-08-30T14:55:34Z</time>
      </trkpt>
      <trkpt lat="46.42207" lon="5.64994">
        <ele>608.4</ele>
        <time>2023-08-30T14:55:35Z</time>
      </trkpt>
      <trkpt lat="46.42205" lon="5.64993">
        <ele>608.2</ele>
        <time>2023-08-30T14:55:36Z</time>
      </trkpt>
      <trkpt lat="46.42204" lon="5.64992">
        <ele>608</ele>
        <time>2023-08-30T14:55:37Z</time>
      </trkpt>
      <trkpt lat="46.42201" lon="5.64992">
        <ele>608</ele>
        <time>2023-08-30T14:55:38Z</time>
      </trkpt>
      <trkpt lat="46.42199" lon="5.64992">
        <ele>608</ele>
        <time>2023-08-30T14:55:39Z</time>
      </trkpt>
      <trkpt lat="46.42196" lon="5.64991">
        <ele>608</ele>
        <time>2023-08-30T14:55:40Z</time>
      </trkpt>
      <trkpt lat="46.42193" lon="5.6499">
        <ele>608</ele>
        <time>2023-08-30T14:55:41Z</time>
      </trkpt>
      <trkpt lat="46.42189" lon="5.64989">
        <ele>608</ele>
        <time>2023-08-30T14:55:42Z</time>
      </trkpt>
      <trkpt lat="46.42185" lon="5.64988">
        <ele>608</ele>
        <time>2023-08-30T14:55:43Z</time>
      </trkpt>
      <trkpt lat="46.42181" lon="5.64987">
        <ele>608</ele>
        <time>2023-08-30T14:55:44Z</time>
      </trkpt>
      <trkpt lat="46.42176" lon="5.64986">
        <ele>607.8</ele>
        <time>2023-08-30T14:55:45Z</time>
      </trkpt>
      <trkpt lat="46.42171" lon="5.64985">
        <ele>607.8</ele>
        <time>2023-08-30T14:55:46Z</time>
      </trkpt>
      <trkpt lat="46.42166" lon="5.64984">
        <ele>607.8</ele>
        <time>2023-08-30T14:55:47Z</time>
      </trkpt>
      <trkpt lat="46.4216" lon="5.64982">
        <ele>607.8</ele>
        <time>2023-08-30T14:55:48Z</time>
      </trkpt>
      <trkpt lat="46.42155" lon="5.64981">
        <ele>607.8</ele>
        <time>2023-08-30T14:55:49Z</time>
      </trkpt>
      <trkpt lat="46.42149" lon="5.64981">
        <ele>608</ele>
        <time>2023-08-30T14:55:50Z</time>
      </trkpt>
      <trkpt lat="46.42144" lon="5.64981">
        <ele>608</ele>
        <time>2023-08-30T14:55:51Z</time>
      </trkpt>
      <trkpt lat="46.42139" lon="5.64981">
        <ele>608</ele>
        <time>2023-08-30T14:55:52Z</time>
      </trkpt>
      <trkpt lat="46.42134" lon="5.64982">
        <ele>607.8</ele>
        <time>2023-08-30T14:55:53Z</time>
      </trkpt>
      <trkpt lat="46.42129" lon="5.64982">
        <ele>607.8</ele>
        <time>2023-08-30T14:55:54Z</time>
      </trkpt>
      <trkpt lat="46.42125" lon="5.64983">
        <ele>607.8</ele>
        <time>2023-08-30T14:55:55Z</time>
      </trkpt>
      <trkpt lat="46.42121" lon="5.64984">
        <ele>607.8</ele>
        <time>2023-08-30T14:55:56Z</time>
      </trkpt>
      <trkpt lat="46.42117" lon="5.64984">
        <ele>607.8</ele>
        <time>2023-08-30T14:55:57Z</time>
      </trkpt>
      <trkpt lat="46.42114" lon="5.64985">
        <ele>607.8</ele>
        <time>2023-08-30T14:55:58Z</time>
      </trkpt>
      <trkpt lat="46.42111" lon="5.64986">
        <ele>607.4</ele>
        <time>2023-08-30T14:55:59Z</time>
      </trkpt>
      <trkpt lat="46.42108" lon="5.64987">
        <ele>607.4</ele>
        <time>2023-08-30T14:56:00Z</time>
      </trkpt>
      <trkpt lat="46.42106" lon="5.64988">
        <ele>607.4</ele>
        <time>2023-08-30T14:56:01Z</time>
      </trkpt>
      <trkpt lat="46.42103" lon="5.64989">
        <ele>607.4</ele>
        <time>2023-08-30T14:56:02Z</time>
      </trkpt>
      <trkpt lat="46.42101" lon="5.64989">
        <ele>607.2</ele>
        <time>2023-08-30T14:56:03Z</time>
      </trkpt>
      <trkpt lat="46.42099" lon="5.6499">
        <ele>607.2</ele>
        <time>2023-08-30T14:56:04Z</time>
      </trkpt>
      <trkpt lat="46.42097" lon="5.64991">
        <ele>607.2</ele>
        <time>2023-08-30T14:56:05Z</time>
      </trkpt>
      <trkpt lat="46.42095" lon="5.64992">
        <ele>606.6</ele>
        <time>2023-08-30T14:56:06Z</time>
      </trkpt>
      <trkpt lat="46.42093" lon="5.64993">
        <ele>606.4</ele>
        <time>2023-08-30T14:56:07Z</time>
      </trkpt>
      <trkpt lat="46.42092" lon="5.64994">
        <ele>606.4</ele>
        <time>2023-08-30T14:56:08Z</time>
      </trkpt>
      <trkpt lat="46.4209" lon="5.64995">
        <ele>606.4</ele>
        <time>2023-08-30T14:56:09Z</time>
      </trkpt>
      <trkpt lat="46.42088" lon="5.64995">
        <ele>606.4</ele>
        <time>2023-08-30T14:56:10Z</time>
      </trkpt>
      <trkpt lat="46.42087" lon="5.64995">
        <ele>606.4</ele>
        <time>2023-08-30T14:56:11Z</time>
      </trkpt>
      <trkpt lat="46.42085" lon="5.64995">
        <ele>605.8</ele>
        <time>2023-08-30T14:56:12Z</time>
      </trkpt>
      <trkpt lat="46.42083" lon="5.64995">
        <ele>605.6</ele>
        <time>2023-08-30T14:56:13Z</time>
      </trkpt>
      <trkpt lat="46.42082" lon="5.64994">
        <ele>605.6</ele>
        <time>2023-08-30T14:56:14Z</time>
      </trkpt>
      <trkpt lat="46.4208" lon="5.64993">
        <ele>605.6</ele>
        <time>2023-08-30T14:56:15Z</time>
      </trkpt>
      <trkpt lat="46.42079" lon="5.64992">
        <ele>605.4</ele>
        <time>2023-08-30T14:56:16Z</time>
      </trkpt>
      <trkpt lat="46.42078" lon="5.6499">
        <ele>605.4</ele>
        <time>2023-08-30T14:56:17Z</time>
      </trkpt>
      <trkpt lat="46.42076" lon="5.64989">
        <ele>605.4</ele>
        <time>2023-08-30T14:56:18Z</time>
      </trkpt>
      <trkpt lat="46.42075" lon="5.64987">
        <ele>605.4</ele>
        <time>2023-08-30T14:56:19Z</time>
      </trkpt>
      <trkpt lat="46.42074" lon="5.64985">
        <ele>605.2</ele>
        <time>2023-08-30T14:56:20Z</time>
      </trkpt>
      <trkpt lat="46.42072" lon="5.64984">
        <ele>605.4</ele>
        <time>2023-08-30T14:56:21Z</time>
      </trkpt>
      <trkpt lat="46.42071" lon="5.64982">
        <ele>605.4</ele>
        <time>2023-08-30T14:56:22Z</time>
      </trkpt>
      <trkpt lat="46.42069" lon="5.64981">
        <ele>605.4</ele>
        <time>2023-08-30T14:56:23Z</time>
      </trkpt>
      <trkpt lat="46.42067" lon="5.64979">
        <ele>605.4</ele>
        <time>2023-08-30T14:56:24Z</time>
      </trkpt>
      <trkpt lat="46.42064" lon="5.64976">
        <ele>604.8</ele>
        <time>2023-08-30T14:56:25Z</time>
      </trkpt>
      <trkpt lat="46.42061" lon="5.64973">
        <ele>604.8</ele>
        <time>2023-08-30T14:56:26Z</time>
      </trkpt>
      <trkpt lat="46.42057" lon="5.64971">
        <ele>604.8</ele>
        <time>2023-08-30T14:56:27Z</time>
      </trkpt>
      <trkpt lat="46.42052" lon="5.64969">
        <ele>604.8</ele>
        <time>2023-08-30T14:56:28Z</time>
      </trkpt>
      <trkpt lat="46.42047" lon="5.64967">
        <ele>604.8</ele>
        <time>2023-08-30T14:56:29Z</time>
      </trkpt>
      <trkpt lat="46.42041" lon="5.64966">
        <ele>604.4</ele>
        <time>2023-08-30T14:56:30Z</time>
      </trkpt>
      <trkpt lat="46.42036" lon="5.64964">
        <ele>604.4</ele>
        <time>2023-08-30T14:56:31Z</time>
      </trkpt>
      <trkpt lat="46.4203" lon="5.64963">
        <ele>604.4</ele>
        <time>2023-08-30T14:56:32Z</time>
      </trkpt>
      <trkpt lat="46.42023" lon="5.64961">
        <ele>603.8</ele>
        <time>2023-08-30T14:56:33Z</time>
      </trkpt>
      <trkpt lat="46.42017" lon="5.6496">
        <ele>603.8</ele>
        <time>2023-08-30T14:56:34Z</time>
      </trkpt>
      <trkpt lat="46.4201" lon="5.64958">
        <ele>604.2</ele>
        <time>2023-08-30T14:56:35Z</time>
      </trkpt>
      <trkpt lat="46.42003" lon="5.64956">
        <ele>604.2</ele>
        <time>2023-08-30T14:56:36Z</time>
      </trkpt>
      <trkpt lat="46.41997" lon="5.64953">
        <ele>604.2</ele>
        <time>2023-08-30T14:56:37Z</time>
      </trkpt>
      <trkpt lat="46.41989" lon="5.64951">
        <ele>603.4</ele>
        <time>2023-08-30T14:56:38Z</time>
      </trkpt>
      <trkpt lat="46.41982" lon="5.64948">
        <ele>603.2</ele>
        <time>2023-08-30T14:56:39Z</time>
      </trkpt>
      <trkpt lat="46.41974" lon="5.64943">
        <ele>603.2</ele>
        <time>2023-08-30T14:56:40Z</time>
      </trkpt>
      <trkpt lat="46.41967" lon="5.64939">
        <ele>603.2</ele>
        <time>2023-08-30T14:56:41Z</time>
      </trkpt>
      <trkpt lat="46.41958" lon="5.64936">
        <ele>602.6</ele>
        <time>2023-08-30T14:56:42Z</time>
      </trkpt>
      <trkpt lat="46.41949" lon="5.64933">
        <ele>602.4</ele>
        <time>2023-08-30T14:56:43Z</time>
      </trkpt>
      <trkpt lat="46.4194" lon="5.64931">
        <ele>602.4</ele>
        <time>2023-08-30T14:56:44Z</time>
      </trkpt>
      <trkpt lat="46.4193" lon="5.6493">
        <ele>602.4</ele>
        <time>2023-08-30T14:56:45Z</time>
      </trkpt>
      <trkpt lat="46.41921" lon="5.6493">
        <ele>602</ele>
        <time>2023-08-30T14:56:46Z</time>
      </trkpt>
      <trkpt lat="46.41912" lon="5.6493">
        <ele>602</ele>
        <time>2023-08-30T14:56:47Z</time>
      </trkpt>
      <trkpt lat="46.41904" lon="5.6493">
        <ele>601.8</ele>
        <time>2023-08-30T14:56:48Z</time>
      </trkpt>
      <trkpt lat="46.41895" lon="5.6493">
        <ele>601.8</ele>
        <time>2023-08-30T14:56:49Z</time>
      </trkpt>
      <trkpt lat="46.41887" lon="5.6493">
        <ele>601.8</ele>
        <time>2023-08-30T14:56:50Z</time>
      </trkpt>
      <trkpt lat="46.41879" lon="5.64931">
        <ele>601.8</ele>
        <time>2023-08-30T14:56:51Z</time>
      </trkpt>
      <trkpt lat="46.4187" lon="5.64931">
        <ele>601.2</ele>
        <time>2023-08-30T14:56:52Z</time>
      </trkpt>
      <trkpt lat="46.41862" lon="5.64931">
        <ele>601.2</ele>
        <time>2023-08-30T14:56:53Z</time>
      </trkpt>
      <trkpt lat="46.41853" lon="5.64931">
        <ele>601.2</ele>
        <time>2023-08-30T14:56:54Z</time>
      </trkpt>
      <trkpt lat="46.41845" lon="5.64931">
        <ele>601.2</ele>
        <time>2023-08-30T14:56:55Z</time>
      </trkpt>
      <trkpt lat="46.41837" lon="5.6493">
        <ele>600.8</ele>
        <time>2023-08-30T14:56:56Z</time>
      </trkpt>
      <trkpt lat="46.41829" lon="5.64929">
        <ele>600.4</ele>
        <time>2023-08-30T14:56:57Z</time>
      </trkpt>
      <trkpt lat="46.41822" lon="5.64928">
        <ele>600.4</ele>
        <time>2023-08-30T14:56:58Z</time>
      </trkpt>
      <trkpt lat="46.41815" lon="5.64927">
        <ele>600.4</ele>
        <time>2023-08-30T14:56:59Z</time>
      </trkpt>
      <trkpt lat="46.41808" lon="5.64926">
        <ele>600.4</ele>
        <time>2023-08-30T14:57:00Z</time>
      </trkpt>
      <trkpt lat="46.418" lon="5.64925">
        <ele>599.4</ele>
        <time>2023-08-30T14:57:01Z</time>
      </trkpt>
      <trkpt lat="46.41793" lon="5.64923">
        <ele>599.2</ele>
        <time>2023-08-30T14:57:02Z</time>
      </trkpt>
      <trkpt lat="46.41785" lon="5.64921">
        <ele>599.2</ele>
        <time>2023-08-30T14:57:03Z</time>
      </trkpt>
      <trkpt lat="46.41778" lon="5.64918">
        <ele>599.2</ele>
        <time>2023-08-30T14:57:04Z</time>
      </trkpt>
      <trkpt lat="46.4177" lon="5.64914">
        <ele>598.6</ele>
        <time>2023-08-30T14:57:05Z</time>
      </trkpt>
      <trkpt lat="46.41761" lon="5.64909">
        <ele>597.8</ele>
        <time>2023-08-30T14:57:06Z</time>
      </trkpt>
      <trkpt lat="46.41753" lon="5.64905">
        <ele>597.8</ele>
        <time>2023-08-30T14:57:07Z</time>
      </trkpt>
      <trkpt lat="46.41744" lon="5.64901">
        <ele>597.8</ele>
        <time>2023-08-30T14:57:08Z</time>
      </trkpt>
      <trkpt lat="46.41735" lon="5.64898">
        <ele>596.8</ele>
        <time>2023-08-30T14:57:09Z</time>
      </trkpt>
      <trkpt lat="46.41726" lon="5.64895">
        <ele>596.8</ele>
        <time>2023-08-30T14:57:10Z</time>
      </trkpt>
      <trkpt lat="46.41716" lon="5.64894">
        <ele>596</ele>
        <time>2023-08-30T14:57:11Z</time>
      </trkpt>
      <trkpt lat="46.41707" lon="5.64893">
        <ele>596</ele>
        <time>2023-08-30T14:57:12Z</time>
      </trkpt>
      <trkpt lat="46.41697" lon="5.64892">
        <ele>596</ele>
        <time>2023-08-30T14:57:13Z</time>
      </trkpt>
      <trkpt lat="46.41687" lon="5.6489">
        <ele>595.4</ele>
        <time>2023-08-30T14:57:14Z</time>
      </trkpt>
      <trkpt lat="46.41677" lon="5.64889">
        <ele>594.6</ele>
        <time>2023-08-30T14:57:15Z</time>
      </trkpt>
      <trkpt lat="46.41667" lon="5.64888">
        <ele>594.6</ele>
        <time>2023-08-30T14:57:16Z</time>
      </trkpt>
      <trkpt lat="46.41657" lon="5.64887">
        <ele>594.6</ele>
        <time>2023-08-30T14:57:17Z</time>
      </trkpt>
      <trkpt lat="46.41647" lon="5.64887">
        <ele>593.8</ele>
        <time>2023-08-30T14:57:18Z</time>
      </trkpt>
      <trkpt lat="46.41637" lon="5.64887">
        <ele>592.8</ele>
        <time>2023-08-30T14:57:19Z</time>
      </trkpt>
      <trkpt lat="46.41627" lon="5.64886">
        <ele>592.8</ele>
        <time>2023-08-30T14:57:20Z</time>
      </trkpt>
      <trkpt lat="46.41617" lon="5.64887">
        <ele>592.8</ele>
        <time>2023-08-30T14:57:21Z</time>
      </trkpt>
      <trkpt lat="46.41607" lon="5.64888">
        <ele>592</ele>
        <time>2023-08-30T14:57:22Z</time>
      </trkpt>
      <trkpt lat="46.41597" lon="5.64891">
        <ele>592</ele>
        <time>2023-08-30T14:57:23Z</time>
      </trkpt>
      <trkpt lat="46.41588" lon="5.64894">
        <ele>591</ele>
        <time>2023-08-30T14:57:24Z</time>
      </trkpt>
      <trkpt lat="46.41578" lon="5.64897">
        <ele>591</ele>
        <time>2023-08-30T14:57:25Z</time>
      </trkpt>
      <trkpt lat="46.41568" lon="5.64899">
        <ele>591</ele>
        <time>2023-08-30T14:57:26Z</time>
      </trkpt>
      <trkpt lat="46.41558" lon="5.64899">
        <ele>590</ele>
        <time>2023-08-30T14:57:27Z</time>
      </trkpt>
      <trkpt lat="46.41548" lon="5.64898">
        <ele>589.2</ele>
        <time>2023-08-30T14:57:28Z</time>
      </trkpt>
      <trkpt lat="46.41537" lon="5.64897">
        <ele>589.2</ele>
        <time>2023-08-30T14:57:29Z</time>
      </trkpt>
      <trkpt lat="46.41528" lon="5.64895">
        <ele>589.2</ele>
        <time>2023-08-30T14:57:30Z</time>
      </trkpt>
      <trkpt lat="46.41518" lon="5.64893">
        <ele>588.2</ele>
        <time>2023-08-30T14:57:31Z</time>
      </trkpt>
      <trkpt lat="46.41508" lon="5.64892">
        <ele>587.4</ele>
        <time>2023-08-30T14:57:32Z</time>
      </trkpt>
      <trkpt lat="46.41498" lon="5.64891">
        <ele>587.4</ele>
        <time>2023-08-30T14:57:33Z</time>
      </trkpt>
      <trkpt lat="46.41488" lon="5.64891">
        <ele>587.4</ele>
        <time>2023-08-30T14:57:34Z</time>
      </trkpt>
      <trkpt lat="46.41478" lon="5.64891">
        <ele>587.4</ele>
        <time>2023-08-30T14:57:35Z</time>
      </trkpt>
      <trkpt lat="46.41469" lon="5.64891">
        <ele>587.4</ele>
        <time>2023-08-30T14:57:36Z</time>
      </trkpt>
      <trkpt lat="46.41459" lon="5.64891">
        <ele>586.6</ele>
        <time>2023-08-30T14:57:37Z</time>
      </trkpt>
      <trkpt lat="46.41449" lon="5.64892">
        <ele>585.6</ele>
        <time>2023-08-30T14:57:38Z</time>
      </trkpt>
      <trkpt lat="46.4144" lon="5.64894">
        <ele>585.6</ele>
        <time>2023-08-30T14:57:39Z</time>
      </trkpt>
      <trkpt lat="46.4143" lon="5.64898">
        <ele>585.6</ele>
        <time>2023-08-30T14:57:40Z</time>
      </trkpt>
      <trkpt lat="46.41421" lon="5.64902">
        <ele>584.6</ele>
        <time>2023-08-30T14:57:41Z</time>
      </trkpt>
      <trkpt lat="46.41411" lon="5.64907">
        <ele>582.8</ele>
        <time>2023-08-30T14:57:42Z</time>
      </trkpt>
      <trkpt lat="46.41402" lon="5.6491">
        <ele>582.8</ele>
        <time>2023-08-30T14:57:43Z</time>
      </trkpt>
      <trkpt lat="46.41392" lon="5.64913">
        <ele>582.8</ele>
        <time>2023-08-30T14:57:44Z</time>
      </trkpt>
      <trkpt lat="46.41382" lon="5.64914">
        <ele>582.8</ele>
        <time>2023-08-30T14:57:45Z</time>
      </trkpt>
      <trkpt lat="46.41372" lon="5.64915">
        <ele>580.2</ele>
        <time>2023-08-30T14:57:46Z</time>
      </trkpt>
      <trkpt lat="46.41361" lon="5.64914">
        <ele>580.2</ele>
        <time>2023-08-30T14:57:47Z</time>
      </trkpt>
      <trkpt lat="46.41351" lon="5.64912">
        <ele>580.2</ele>
        <time>2023-08-30T14:57:48Z</time>
      </trkpt>
      <trkpt lat="46.41341" lon="5.6491">
        <ele>580.2</ele>
        <time>2023-08-30T14:57:49Z</time>
      </trkpt>
      <trkpt lat="46.4133" lon="5.64907">
        <ele>579.2</ele>
        <time>2023-08-30T14:57:50Z</time>
      </trkpt>
      <trkpt lat="46.4132" lon="5.64905">
        <ele>577.8</ele>
        <time>2023-08-30T14:57:51Z</time>
      </trkpt>
      <trkpt lat="46.41309" lon="5.64903">
        <ele>577.8</ele>
        <time>2023-08-30T14:57:52Z</time>
      </trkpt>
      <trkpt lat="46.41299" lon="5.64903">
        <ele>577.8</ele>
        <time>2023-08-30T14:57:53Z</time>
      </trkpt>
      <trkpt lat="46.41289" lon="5.64902">
        <ele>576.8</ele>
        <time>2023-08-30T14:57:54Z</time>
      </trkpt>
      <trkpt lat="46.41278" lon="5.64902">
        <ele>575.6</ele>
        <time>2023-08-30T14:57:55Z</time>
      </trkpt>
      <trkpt lat="46.41268" lon="5.64902">
        <ele>575.6</ele>
        <time>2023-08-30T14:57:56Z</time>
      </trkpt>
      <trkpt lat="46.41258" lon="5.64902">
        <ele>575.6</ele>
        <time>2023-08-30T14:57:57Z</time>
      </trkpt>
      <trkpt lat="46.41249" lon="5.64901">
        <ele>574.6</ele>
        <time>2023-08-30T14:57:58Z</time>
      </trkpt>
      <trkpt lat="46.41239" lon="5.649">
        <ele>573.6</ele>
        <time>2023-08-30T14:57:59Z</time>
      </trkpt>
      <trkpt lat="46.4123" lon="5.64899">
        <ele>573.6</ele>
        <time>2023-08-30T14:58:00Z</time>
      </trkpt>
      <trkpt lat="46.41221" lon="5.64898">
        <ele>573.6</ele>
        <time>2023-08-30T14:58:01Z</time>
      </trkpt>
      <trkpt lat="46.41212" lon="5.64897">
        <ele>573.6</ele>
        <time>2023-08-30T14:58:02Z</time>
      </trkpt>
      <trkpt lat="46.41204" lon="5.64897">
        <ele>572.6</ele>
        <time>2023-08-30T14:58:03Z</time>
      </trkpt>
      <trkpt lat="46.41197" lon="5.64896">
        <ele>572</ele>
        <time>2023-08-30T14:58:04Z</time>
      </trkpt>
      <trkpt lat="46.41189" lon="5.64895">
        <ele>572</ele>
        <time>2023-08-30T14:58:05Z</time>
      </trkpt>
      <trkpt lat="46.41182" lon="5.64895">
        <ele>572</ele>
        <time>2023-08-30T14:58:06Z</time>
      </trkpt>
      <trkpt lat="46.41175" lon="5.64893">
        <ele>571.2</ele>
        <time>2023-08-30T14:58:07Z</time>
      </trkpt>
      <trkpt lat="46.41169" lon="5.64892">
        <ele>571</ele>
        <time>2023-08-30T14:58:08Z</time>
      </trkpt>
      <trkpt lat="46.41162" lon="5.6489">
        <ele>571</ele>
        <time>2023-08-30T14:58:09Z</time>
      </trkpt>
      <trkpt lat="46.41156" lon="5.64888">
        <ele>571</ele>
        <time>2023-08-30T14:58:10Z</time>
      </trkpt>
      <trkpt lat="46.4115" lon="5.64887">
        <ele>571</ele>
        <time>2023-08-30T14:58:11Z</time>
      </trkpt>
      <trkpt lat="46.41144" lon="5.64885">
        <ele>570</ele>
        <time>2023-08-30T14:58:12Z</time>
      </trkpt>
      <trkpt lat="46.41139" lon="5.64884">
        <ele>569.4</ele>
        <time>2023-08-30T14:58:13Z</time>
      </trkpt>
      <trkpt lat="46.41133" lon="5.64882">
        <ele>569.4</ele>
        <time>2023-08-30T14:58:14Z</time>
      </trkpt>
      <trkpt lat="46.41128" lon="5.64881">
        <ele>569.4</ele>
        <time>2023-08-30T14:58:15Z</time>
      </trkpt>
      <trkpt lat="46.41122" lon="5.64879">
        <ele>568.6</ele>
        <time>2023-08-30T14:58:16Z</time>
      </trkpt>
      <trkpt lat="46.41117" lon="5.64877">
        <ele>568.6</ele>
        <time>2023-08-30T14:58:17Z</time>
      </trkpt>
      <trkpt lat="46.41112" lon="5.64875">
        <ele>568.6</ele>
        <time>2023-08-30T14:58:18Z</time>
      </trkpt>
      <trkpt lat="46.41107" lon="5.64874">
        <ele>568.6</ele>
        <time>2023-08-30T14:58:19Z</time>
      </trkpt>
      <trkpt lat="46.41102" lon="5.64873">
        <ele>568.6</ele>
        <time>2023-08-30T14:58:20Z</time>
      </trkpt>
      <trkpt lat="46.41097" lon="5.64872">
        <ele>567.8</ele>
        <time>2023-08-30T14:58:21Z</time>
      </trkpt>
      <trkpt lat="46.41092" lon="5.64871">
        <ele>567.8</ele>
        <time>2023-08-30T14:58:22Z</time>
      </trkpt>
      <trkpt lat="46.41086" lon="5.6487">
        <ele>567.6</ele>
        <time>2023-08-30T14:58:23Z</time>
      </trkpt>
      <trkpt lat="46.41081" lon="5.64869">
        <ele>567.6</ele>
        <time>2023-08-30T14:58:24Z</time>
      </trkpt>
      <trkpt lat="46.41075" lon="5.64868">
        <ele>567.6</ele>
        <time>2023-08-30T14:58:25Z</time>
      </trkpt>
      <trkpt lat="46.41069" lon="5.64867">
        <ele>566.6</ele>
        <time>2023-08-30T14:58:26Z</time>
      </trkpt>
      <trkpt lat="46.41062" lon="5.64865">
        <ele>566.6</ele>
        <time>2023-08-30T14:58:27Z</time>
      </trkpt>
      <trkpt lat="46.41055" lon="5.64864">
        <ele>566.6</ele>
        <time>2023-08-30T14:58:28Z</time>
      </trkpt>
      <trkpt lat="46.41048" lon="5.64862">
        <ele>566.6</ele>
        <time>2023-08-30T14:58:29Z</time>
      </trkpt>
      <trkpt lat="46.41041" lon="5.64861">
        <ele>565.8</ele>
        <time>2023-08-30T14:58:30Z</time>
      </trkpt>
      <trkpt lat="46.41033" lon="5.64859">
        <ele>565</ele>
        <time>2023-08-30T14:58:31Z</time>
      </trkpt>
      <trkpt lat="46.41025" lon="5.64857">
        <ele>565</ele>
        <time>2023-08-30T14:58:32Z</time>
      </trkpt>
      <trkpt lat="46.41017" lon="5.64856">
        <ele>565</ele>
        <time>2023-08-30T14:58:33Z</time>
      </trkpt>
      <trkpt lat="46.41009" lon="5.64854">
        <ele>565</ele>
        <time>2023-08-30T14:58:34Z</time>
      </trkpt>
      <trkpt lat="46.41" lon="5.64852">
        <ele>564</ele>
        <time>2023-08-30T14:58:35Z</time>
      </trkpt>
      <trkpt lat="46.40992" lon="5.6485">
        <ele>563.4</ele>
        <time>2023-08-30T14:58:36Z</time>
      </trkpt>
      <trkpt lat="46.40983" lon="5.64849">
        <ele>563.4</ele>
        <time>2023-08-30T14:58:37Z</time>
      </trkpt>
      <trkpt lat="46.40974" lon="5.64847">
        <ele>563.4</ele>
        <time>2023-08-30T14:58:38Z</time>
      </trkpt>
      <trkpt lat="46.40965" lon="5.64845">
        <ele>562.4</ele>
        <time>2023-08-30T14:58:39Z</time>
      </trkpt>
      <trkpt lat="46.40956" lon="5.64843">
        <ele>560.8</ele>
        <time>2023-08-30T14:58:40Z</time>
      </trkpt>
      <trkpt lat="46.40946" lon="5.64841">
        <ele>560.8</ele>
        <time>2023-08-30T14:58:41Z</time>
      </trkpt>
      <trkpt lat="46.40937" lon="5.64839">
        <ele>560.8</ele>
        <time>2023-08-30T14:58:42Z</time>
      </trkpt>
      <trkpt lat="46.40927" lon="5.64838">
        <ele>559.8</ele>
        <time>2023-08-30T14:58:43Z</time>
      </trkpt>
      <trkpt lat="46.40917" lon="5.64837">
        <ele>558.4</ele>
        <time>2023-08-30T14:58:44Z</time>
      </trkpt>
      <trkpt lat="46.40907" lon="5.64837">
        <ele>558.4</ele>
        <time>2023-08-30T14:58:45Z</time>
      </trkpt>
      <trkpt lat="46.40898" lon="5.64837">
        <ele>558.4</ele>
        <time>2023-08-30T14:58:46Z</time>
      </trkpt>
      <trkpt lat="46.40888" lon="5.64838">
        <ele>558.4</ele>
        <time>2023-08-30T14:58:47Z</time>
      </trkpt>
      <trkpt lat="46.40879" lon="5.64839">
        <ele>557.4</ele>
        <time>2023-08-30T14:58:48Z</time>
      </trkpt>
      <trkpt lat="46.40869" lon="5.64841">
        <ele>556.4</ele>
        <time>2023-08-30T14:58:49Z</time>
      </trkpt>
      <trkpt lat="46.4086" lon="5.64842">
        <ele>556.4</ele>
        <time>2023-08-30T14:58:50Z</time>
      </trkpt>
      <trkpt lat="46.4085" lon="5.64843">
        <ele>556.4</ele>
        <time>2023-08-30T14:58:51Z</time>
      </trkpt>
      <trkpt lat="46.40841" lon="5.64843">
        <ele>555.4</ele>
        <time>2023-08-30T14:58:52Z</time>
      </trkpt>
      <trkpt lat="46.40832" lon="5.64843">
        <ele>554.2</ele>
        <time>2023-08-30T14:58:53Z</time>
      </trkpt>
      <trkpt lat="46.40824" lon="5.64842">
        <ele>554.2</ele>
        <time>2023-08-30T14:58:54Z</time>
      </trkpt>
      <trkpt lat="46.40815" lon="5.6484">
        <ele>554.2</ele>
        <time>2023-08-30T14:58:55Z</time>
      </trkpt>
      <trkpt lat="46.40807" lon="5.64839">
        <ele>554.2</ele>
        <time>2023-08-30T14:58:56Z</time>
      </trkpt>
      <trkpt lat="46.40798" lon="5.64838">
        <ele>552</ele>
        <time>2023-08-30T14:58:57Z</time>
      </trkpt>
      <trkpt lat="46.4079" lon="5.64837">
        <ele>552</ele>
        <time>2023-08-30T14:58:58Z</time>
      </trkpt>
      <trkpt lat="46.40782" lon="5.64837">
        <ele>552</ele>
        <time>2023-08-30T14:58:59Z</time>
      </trkpt>
      <trkpt lat="46.40774" lon="5.64836">
        <ele>552</ele>
        <time>2023-08-30T14:59:00Z</time>
      </trkpt>
      <trkpt lat="46.40766" lon="5.64835">
        <ele>552</ele>
        <time>2023-08-30T14:59:01Z</time>
      </trkpt>
      <trkpt lat="46.40758" lon="5.64835">
        <ele>551</ele>
        <time>2023-08-30T14:59:02Z</time>
      </trkpt>
      <trkpt lat="46.4075" lon="5.64835">
        <ele>550.4</ele>
        <time>2023-08-30T14:59:03Z</time>
      </trkpt>
      <trkpt lat="46.40743" lon="5.64835">
        <ele>550.4</ele>
        <time>2023-08-30T14:59:04Z</time>
      </trkpt>
      <trkpt lat="46.40735" lon="5.64835">
        <ele>550.4</ele>
        <time>2023-08-30T14:59:05Z</time>
      </trkpt>
      <trkpt lat="46.40728" lon="5.64835">
        <ele>549.4</ele>
        <time>2023-08-30T14:59:06Z</time>
      </trkpt>
      <trkpt lat="46.40721" lon="5.64836">
        <ele>548.6</ele>
        <time>2023-08-30T14:59:07Z</time>
      </trkpt>
      <trkpt lat="46.40715" lon="5.64836">
        <ele>548.6</ele>
        <time>2023-08-30T14:59:08Z</time>
      </trkpt>
      <trkpt lat="46.40709" lon="5.64836">
        <ele>548.6</ele>
        <time>2023-08-30T14:59:09Z</time>
      </trkpt>
      <trkpt lat="46.40703" lon="5.64836">
        <ele>548.6</ele>
        <time>2023-08-30T14:59:10Z</time>
      </trkpt>
      <trkpt lat="46.40697" lon="5.64836">
        <ele>547.6</ele>
        <time>2023-08-30T14:59:11Z</time>
      </trkpt>
      <trkpt lat="46.40692" lon="5.64836">
        <ele>547.8</ele>
        <time>2023-08-30T14:59:12Z</time>
      </trkpt>
      <trkpt lat="46.40687" lon="5.64836">
        <ele>547.8</ele>
        <time>2023-08-30T14:59:13Z</time>
      </trkpt>
      <trkpt lat="46.40682" lon="5.64836">
        <ele>547.8</ele>
        <time>2023-08-30T14:59:14Z</time>
      </trkpt>
      <trkpt lat="46.40677" lon="5.64836">
        <ele>547</ele>
        <time>2023-08-30T14:59:15Z</time>
      </trkpt>
      <trkpt lat="46.40672" lon="5.64837">
        <ele>547</ele>
        <time>2023-08-30T14:59:16Z</time>
      </trkpt>
      <trkpt lat="46.40667" lon="5.64837">
        <ele>547</ele>
        <time>2023-08-30T14:59:17Z</time>
      </trkpt>
      <trkpt lat="46.40663" lon="5.64837">
        <ele>547</ele>
        <time>2023-08-30T14:59:18Z</time>
      </trkpt>
      <trkpt lat="46.40658" lon="5.64838">
        <ele>546.6</ele>
        <time>2023-08-30T14:59:19Z</time>
      </trkpt>
      <trkpt lat="46.40653" lon="5.64839">
        <ele>546.6</ele>
        <time>2023-08-30T14:59:20Z</time>
      </trkpt>
      <trkpt lat="46.40649" lon="5.6484">
        <ele>546.4</ele>
        <time>2023-08-30T14:59:21Z</time>
      </trkpt>
      <trkpt lat="46.40644" lon="5.64841">
        <ele>546.4</ele>
        <time>2023-08-30T14:59:22Z</time>
      </trkpt>
      <trkpt lat="46.4064" lon="5.64843">
        <ele>546.4</ele>
        <time>2023-08-30T14:59:23Z</time>
      </trkpt>
      <trkpt lat="46.40635" lon="5.64844">
        <ele>546.2</ele>
        <time>2023-08-30T14:59:24Z</time>
      </trkpt>
      <trkpt lat="46.40631" lon="5.64845">
        <ele>546.2</ele>
        <time>2023-08-30T14:59:25Z</time>
      </trkpt>
      <trkpt lat="46.40626" lon="5.64846">
        <ele>546.2</ele>
        <time>2023-08-30T14:59:26Z</time>
      </trkpt>
      <trkpt lat="46.40621" lon="5.64847">
        <ele>546.2</ele>
        <time>2023-08-30T14:59:27Z</time>
      </trkpt>
      <trkpt lat="46.40616" lon="5.64847">
        <ele>546.2</ele>
        <time>2023-08-30T14:59:28Z</time>
      </trkpt>
      <trkpt lat="46.40611" lon="5.64848">
        <ele>546</ele>
        <time>2023-08-30T14:59:29Z</time>
      </trkpt>
      <trkpt lat="46.40606" lon="5.64849">
        <ele>546</ele>
        <time>2023-08-30T14:59:30Z</time>
      </trkpt>
      <trkpt lat="46.40601" lon="5.6485">
        <ele>546</ele>
        <time>2023-08-30T14:59:31Z</time>
      </trkpt>
      <trkpt lat="46.40596" lon="5.64852">
        <ele>546</ele>
        <time>2023-08-30T14:59:32Z</time>
      </trkpt>
      <trkpt lat="46.40591" lon="5.64853">
        <ele>545.6</ele>
        <time>2023-08-30T14:59:33Z</time>
      </trkpt>
      <trkpt lat="46.40586" lon="5.64854">
        <ele>545.6</ele>
        <time>2023-08-30T14:59:34Z</time>
      </trkpt>
      <trkpt lat="46.4058" lon="5.64856">
        <ele>545.6</ele>
        <time>2023-08-30T14:59:35Z</time>
      </trkpt>
      <trkpt lat="46.40575" lon="5.64857">
        <ele>545.6</ele>
        <time>2023-08-30T14:59:36Z</time>
      </trkpt>
      <trkpt lat="46.40569" lon="5.64858">
        <ele>545.6</ele>
        <time>2023-08-30T14:59:37Z</time>
      </trkpt>
      <trkpt lat="46.40563" lon="5.64859">
        <ele>544.8</ele>
        <time>2023-08-30T14:59:38Z</time>
      </trkpt>
      <trkpt lat="46.40557" lon="5.6486">
        <ele>544.8</ele>
        <time>2023-08-30T14:59:39Z</time>
      </trkpt>
      <trkpt lat="46.40551" lon="5.64861">
        <ele>544.8</ele>
        <time>2023-08-30T14:59:40Z</time>
      </trkpt>
      <trkpt lat="46.40545" lon="5.64862">
        <ele>544.8</ele>
        <time>2023-08-30T14:59:41Z</time>
      </trkpt>
      <trkpt lat="46.40539" lon="5.64863">
        <ele>544.2</ele>
        <time>2023-08-30T14:59:42Z</time>
      </trkpt>
      <trkpt lat="46.40532" lon="5.64863">
        <ele>544.2</ele>
        <time>2023-08-30T14:59:43Z</time>
      </trkpt>
      <trkpt lat="46.40526" lon="5.64863">
        <ele>544.2</ele>
        <time>2023-08-30T14:59:44Z</time>
      </trkpt>
      <trkpt lat="46.40519" lon="5.64863">
        <ele>544.2</ele>
        <time>2023-08-30T14:59:45Z</time>
      </trkpt>
      <trkpt lat="46.40513" lon="5.64861">
        <ele>544.2</ele>
        <time>2023-08-30T14:59:46Z</time>
      </trkpt>
      <trkpt lat="46.40507" lon="5.6486">
        <ele>543.4</ele>
        <time>2023-08-30T14:59:47Z</time>
      </trkpt>
      <trkpt lat="46.40502" lon="5.6486">
        <ele>543.6</ele>
        <time>2023-08-30T14:59:48Z</time>
      </trkpt>
      <trkpt lat="46.40496" lon="5.64859">
        <ele>543.6</ele>
        <time>2023-08-30T14:59:49Z</time>
      </trkpt>
      <trkpt lat="46.4049" lon="5.64858">
        <ele>543.6</ele>
        <time>2023-08-30T14:59:50Z</time>
      </trkpt>
      <trkpt lat="46.40485" lon="5.64857">
        <ele>543.4</ele>
        <time>2023-08-30T14:59:51Z</time>
      </trkpt>
      <trkpt lat="46.40479" lon="5.64856">
        <ele>543.2</ele>
        <time>2023-08-30T14:59:52Z</time>
      </trkpt>
      <trkpt lat="46.40474" lon="5.64855">
        <ele>543.2</ele>
        <time>2023-08-30T14:59:53Z</time>
      </trkpt>
      <trkpt lat="46.40469" lon="5.64854">
        <ele>543.2</ele>
        <time>2023-08-30T14:59:54Z</time>
      </trkpt>
      <trkpt lat="46.40464" lon="5.64853">
        <ele>543.2</ele>
        <time>2023-08-30T14:59:55Z</time>
      </trkpt>
      <trkpt lat="46.40459" lon="5.64852">
        <ele>543.2</ele>
        <time>2023-08-30T14:59:56Z</time>
      </trkpt>
      <trkpt lat="46.40454" lon="5.64852">
        <ele>543.2</ele>
        <time>2023-08-30T14:59:57Z</time>
      </trkpt>
      <trkpt lat="46.40449" lon="5.64851">
        <ele>543.2</ele>
        <time>2023-08-30T14:59:58Z</time>
      </trkpt>
      <trkpt lat="46.40444" lon="5.6485">
        <ele>543.2</ele>
        <time>2023-08-30T14:59:59Z</time>
      </trkpt>
      <trkpt lat="46.40439" lon="5.6485">
        <ele>543.2</ele>
        <time>2023-08-30T15:00:00Z</time>
      </trkpt>
      <trkpt lat="46.40434" lon="5.64849">
        <ele>543.2</ele>
        <time>2023-08-30T15:00:01Z</time>
      </trkpt>
      <trkpt lat="46.40431" lon="5.64849">
        <ele>542.8</ele>
        <time>2023-08-30T15:00:02Z</time>
      </trkpt>
      <trkpt lat="46.40429" lon="5.64848">
        <ele>542.8</ele>
        <time>2023-08-30T15:00:03Z</time>
      </trkpt>
      <trkpt lat="46.40429" lon="5.64848">
        <ele>542.8</ele>
        <time>2023-08-30T15:00:04Z</time>
      </trkpt>
      <trkpt lat="46.40431" lon="5.64845">
        <ele>542.8</ele>
        <time>2023-08-30T15:00:10Z</time>
      </trkpt>
      <trkpt lat="46.40432" lon="5.64844">
        <ele>542.8</ele>
        <time>2023-08-30T15:00:11Z</time>
      </trkpt>
      <trkpt lat="46.40433" lon="5.64844">
        <ele>542.8</ele>
        <time>2023-08-30T15:00:12Z</time>
      </trkpt>
      <trkpt lat="46.40435" lon="5.64844">
        <ele>542.6</ele>
        <time>2023-08-30T15:00:13Z</time>
      </trkpt>
      <trkpt lat="46.40436" lon="5.64845">
        <ele>542.6</ele>
        <time>2023-08-30T15:00:14Z</time>
      </trkpt>
      <trkpt lat="46.40436" lon="5.64845">
        <ele>542.8</ele>
        <time>2023-08-30T15:00:15Z</time>
      </trkpt>
      <trkpt lat="46.40437" lon="5.64844">
        <ele>539.4</ele>
        <time>2023-08-30T15:02:54Z</time>
      </trkpt>
      <trkpt lat="46.40437" lon="5.64844">
        <ele>539.4</ele>
        <time>2023-08-30T15:02:55Z</time>
      </trkpt>
      <trkpt lat="46.40436" lon="5.64844">
        <ele>539.6</ele>
        <time>2023-08-30T15:02:56Z</time>
      </trkpt>
      <trkpt lat="46.40436" lon="5.64844">
        <ele>539.6</ele>
        <time>2023-08-30T15:02:57Z</time>
      </trkpt>
      <trkpt lat="46.40433" lon="5.64846">
        <ele>539.8</ele>
        <time>2023-08-30T15:04:44Z</time>
      </trkpt>
      <trkpt lat="46.40432" lon="5.64847">
        <ele>539.8</ele>
        <time>2023-08-30T15:04:45Z</time>
      </trkpt>
      <trkpt lat="46.4043" lon="5.64848">
        <ele>539.8</ele>
        <time>2023-08-30T15:04:46Z</time>
      </trkpt>
      <trkpt lat="46.40428" lon="5.64848">
        <ele>540</ele>
        <time>2023-08-30T15:04:47Z</time>
      </trkpt>
      <trkpt lat="46.40426" lon="5.64848">
        <ele>540.2</ele>
        <time>2023-08-30T15:04:48Z</time>
      </trkpt>
      <trkpt lat="46.40423" lon="5.64848">
        <ele>540.2</ele>
        <time>2023-08-30T15:04:49Z</time>
      </trkpt>
      <trkpt lat="46.40421" lon="5.64848">
        <ele>540.2</ele>
        <time>2023-08-30T15:04:50Z</time>
      </trkpt>
      <trkpt lat="46.40418" lon="5.64848">
        <ele>540.2</ele>
        <time>2023-08-30T15:04:51Z</time>
      </trkpt>
      <trkpt lat="46.40415" lon="5.64847">
        <ele>540.4</ele>
        <time>2023-08-30T15:04:52Z</time>
      </trkpt>
      <trkpt lat="46.40412" lon="5.64846">
        <ele>540.4</ele>
        <time>2023-08-30T15:04:53Z</time>
      </trkpt>
      <trkpt lat="46.40409" lon="5.64846">
        <ele>540.4</ele>
        <time>2023-08-30T15:04:54Z</time>
      </trkpt>
      <trkpt lat="46.40406" lon="5.64845">
        <ele>540.4</ele>
        <time>2023-08-30T15:04:55Z</time>
      </trkpt>
      <trkpt lat="46.40403" lon="5.64846">
        <ele>540.8</ele>
        <time>2023-08-30T15:04:56Z</time>
      </trkpt>
      <trkpt lat="46.404" lon="5.64846">
        <ele>541</ele>
        <time>2023-08-30T15:04:57Z</time>
      </trkpt>
      <trkpt lat="46.40396" lon="5.64846">
        <ele>541</ele>
        <time>2023-08-30T15:04:58Z</time>
      </trkpt>
      <trkpt lat="46.40393" lon="5.64847">
        <ele>541</ele>
        <time>2023-08-30T15:04:59Z</time>
      </trkpt>
      <trkpt lat="46.4039" lon="5.64848">
        <ele>541</ele>
        <time>2023-08-30T15:05:00Z</time>
      </trkpt>
      <trkpt lat="46.40386" lon="5.64849">
        <ele>541</ele>
        <time>2023-08-30T15:05:01Z</time>
      </trkpt>
      <trkpt lat="46.40383" lon="5.6485">
        <ele>541.4</ele>
        <time>2023-08-30T15:05:02Z</time>
      </trkpt>
      <trkpt lat="46.40379" lon="5.64851">
        <ele>541.4</ele>
        <time>2023-08-30T15:05:03Z</time>
      </trkpt>
      <trkpt lat="46.40376" lon="5.64853">
        <ele>541.4</ele>
        <time>2023-08-30T15:05:04Z</time>
      </trkpt>
      <trkpt lat="46.40373" lon="5.64855">
        <ele>541.6</ele>
        <time>2023-08-30T15:05:05Z</time>
      </trkpt>
      <trkpt lat="46.40369" lon="5.64857">
        <ele>541.6</ele>
        <time>2023-08-30T15:05:06Z</time>
      </trkpt>
      <trkpt lat="46.40366" lon="5.6486">
        <ele>541.6</ele>
        <time>2023-08-30T15:05:07Z</time>
      </trkpt>
      <trkpt lat="46.40363" lon="5.64862">
        <ele>541.6</ele>
        <time>2023-08-30T15:05:08Z</time>
      </trkpt>
      <trkpt lat="46.40361" lon="5.64865">
        <ele>542</ele>
        <time>2023-08-30T15:05:09Z</time>
      </trkpt>
      <trkpt lat="46.40358" lon="5.64868">
        <ele>542</ele>
        <time>2023-08-30T15:05:10Z</time>
      </trkpt>
      <trkpt lat="46.40356" lon="5.64871">
        <ele>542</ele>
        <time>2023-08-30T15:05:11Z</time>
      </trkpt>
      <trkpt lat="46.40353" lon="5.64873">
        <ele>542</ele>
        <time>2023-08-30T15:05:12Z</time>
      </trkpt>
      <trkpt lat="46.40351" lon="5.64876">
        <ele>542</ele>
        <time>2023-08-30T15:05:13Z</time>
      </trkpt>
      <trkpt lat="46.4035" lon="5.64879">
        <ele>542.2</ele>
        <time>2023-08-30T15:05:14Z</time>
      </trkpt>
      <trkpt lat="46.40349" lon="5.64882">
        <ele>542.2</ele>
        <time>2023-08-30T15:05:15Z</time>
      </trkpt>
      <trkpt lat="46.40347" lon="5.64886">
        <ele>542.2</ele>
        <time>2023-08-30T15:05:16Z</time>
      </trkpt>
      <trkpt lat="46.40346" lon="5.64889">
        <ele>542.2</ele>
        <time>2023-08-30T15:05:17Z</time>
      </trkpt>
      <trkpt lat="46.40344" lon="5.64893">
        <ele>542.2</ele>
        <time>2023-08-30T15:05:18Z</time>
      </trkpt>
      <trkpt lat="46.40343" lon="5.64897">
        <ele>542</ele>
        <time>2023-08-30T15:05:19Z</time>
      </trkpt>
      <trkpt lat="46.40342" lon="5.64901">
        <ele>542</ele>
        <time>2023-08-30T15:05:20Z</time>
      </trkpt>
      <trkpt lat="46.40341" lon="5.64906">
        <ele>542</ele>
        <time>2023-08-30T15:05:21Z</time>
      </trkpt>
      <trkpt lat="46.4034" lon="5.6491">
        <ele>542.2</ele>
        <time>2023-08-30T15:05:22Z</time>
      </trkpt>
      <trkpt lat="46.40339" lon="5.64914">
        <ele>542.2</ele>
        <time>2023-08-30T15:05:23Z</time>
      </trkpt>
      <trkpt lat="46.40338" lon="5.64917">
        <ele>542.4</ele>
        <time>2023-08-30T15:05:24Z</time>
      </trkpt>
      <trkpt lat="46.40337" lon="5.64921">
        <ele>542.4</ele>
        <time>2023-08-30T15:05:25Z</time>
      </trkpt>
      <trkpt lat="46.40336" lon="5.64925">
        <ele>542.4</ele>
        <time>2023-08-30T15:05:26Z</time>
      </trkpt>
      <trkpt lat="46.40335" lon="5.64928">
        <ele>542.4</ele>
        <time>2023-08-30T15:05:27Z</time>
      </trkpt>
      <trkpt lat="46.40334" lon="5.6493">
        <ele>543</ele>
        <time>2023-08-30T15:05:28Z</time>
      </trkpt>
      <trkpt lat="46.40333" lon="5.64934">
        <ele>543.2</ele>
        <time>2023-08-30T15:05:29Z</time>
      </trkpt>
      <trkpt lat="46.40332" lon="5.64937">
        <ele>543.2</ele>
        <time>2023-08-30T15:05:30Z</time>
      </trkpt>
      <trkpt lat="46.40331" lon="5.6494">
        <ele>543.2</ele>
        <time>2023-08-30T15:05:31Z</time>
      </trkpt>
      <trkpt lat="46.4033" lon="5.64943">
        <ele>543.6</ele>
        <time>2023-08-30T15:05:32Z</time>
      </trkpt>
      <trkpt lat="46.4033" lon="5.64946">
        <ele>543.6</ele>
        <time>2023-08-30T15:05:33Z</time>
      </trkpt>
      <trkpt lat="46.40328" lon="5.64949">
        <ele>543.6</ele>
        <time>2023-08-30T15:05:34Z</time>
      </trkpt>
      <trkpt lat="46.40327" lon="5.64951">
        <ele>543.6</ele>
        <time>2023-08-30T15:05:35Z</time>
      </trkpt>
      <trkpt lat="46.40326" lon="5.64954">
        <ele>543.6</ele>
        <time>2023-08-30T15:05:36Z</time>
      </trkpt>
      <trkpt lat="46.40325" lon="5.64957">
        <ele>544</ele>
        <time>2023-08-30T15:05:37Z</time>
      </trkpt>
      <trkpt lat="46.40324" lon="5.6496">
        <ele>544.2</ele>
        <time>2023-08-30T15:05:38Z</time>
      </trkpt>
      <trkpt lat="46.40322" lon="5.64963">
        <ele>544.2</ele>
        <time>2023-08-30T15:05:39Z</time>
      </trkpt>
      <trkpt lat="46.40321" lon="5.64966">
        <ele>544.2</ele>
        <time>2023-08-30T15:05:40Z</time>
      </trkpt>
      <trkpt lat="46.40321" lon="5.64969">
        <ele>544.2</ele>
        <time>2023-08-30T15:05:41Z</time>
      </trkpt>
      <trkpt lat="46.40321" lon="5.64973">
        <ele>544.6</ele>
        <time>2023-08-30T15:05:42Z</time>
      </trkpt>
      <trkpt lat="46.4032" lon="5.64976">
        <ele>544.6</ele>
        <time>2023-08-30T15:05:43Z</time>
      </trkpt>
      <trkpt lat="46.40318" lon="5.6498">
        <ele>544.6</ele>
        <time>2023-08-30T15:05:44Z</time>
      </trkpt>
      <trkpt lat="46.40316" lon="5.64983">
        <ele>544.6</ele>
        <time>2023-08-30T15:05:45Z</time>
      </trkpt>
      <trkpt lat="46.40315" lon="5.64986">
        <ele>545</ele>
        <time>2023-08-30T15:05:46Z</time>
      </trkpt>
      <trkpt lat="46.40313" lon="5.6499">
        <ele>545</ele>
        <time>2023-08-30T15:05:47Z</time>
      </trkpt>
      <trkpt lat="46.40311" lon="5.64993">
        <ele>545</ele>
        <time>2023-08-30T15:05:48Z</time>
      </trkpt>
      <trkpt lat="46.4031" lon="5.64997">
        <ele>545</ele>
        <time>2023-08-30T15:05:49Z</time>
      </trkpt>
      <trkpt lat="46.40308" lon="5.65001">
        <ele>545.6</ele>
        <time>2023-08-30T15:05:50Z</time>
      </trkpt>
      <trkpt lat="46.40306" lon="5.65004">
        <ele>545.4</ele>
        <time>2023-08-30T15:05:51Z</time>
      </trkpt>
      <trkpt lat="46.40304" lon="5.65008">
        <ele>545.4</ele>
        <time>2023-08-30T15:05:52Z</time>
      </trkpt>
      <trkpt lat="46.40302" lon="5.65012">
        <ele>545.4</ele>
        <time>2023-08-30T15:05:53Z</time>
      </trkpt>
      <trkpt lat="46.40301" lon="5.65016">
        <ele>545.8</ele>
        <time>2023-08-30T15:05:54Z</time>
      </trkpt>
      <trkpt lat="46.40299" lon="5.65019">
        <ele>546</ele>
        <time>2023-08-30T15:05:55Z</time>
      </trkpt>
      <trkpt lat="46.40298" lon="5.65022">
        <ele>546</ele>
        <time>2023-08-30T15:05:56Z</time>
      </trkpt>
      <trkpt lat="46.40296" lon="5.65024">
        <ele>546</ele>
        <time>2023-08-30T15:05:57Z</time>
      </trkpt>
      <trkpt lat="46.40294" lon="5.65027">
        <ele>546</ele>
        <time>2023-08-30T15:05:58Z</time>
      </trkpt>
      <trkpt lat="46.40293" lon="5.65029">
        <ele>546</ele>
        <time>2023-08-30T15:05:59Z</time>
      </trkpt>
      <trkpt lat="46.40292" lon="5.65031">
        <ele>546</ele>
        <time>2023-08-30T15:06:00Z</time>
      </trkpt>
      <trkpt lat="46.4029" lon="5.65031">
        <ele>546</ele>
        <time>2023-08-30T15:06:01Z</time>
      </trkpt>
      <trkpt lat="46.40288" lon="5.65031">
        <ele>546</ele>
        <time>2023-08-30T15:06:02Z</time>
      </trkpt>
      <trkpt lat="46.40287" lon="5.6503">
        <ele>546</ele>
        <time>2023-08-30T15:06:03Z</time>
      </trkpt>
      <trkpt lat="46.40285" lon="5.65029">
        <ele>546</ele>
        <time>2023-08-30T15:06:04Z</time>
      </trkpt>
      <trkpt lat="46.40284" lon="5.65028">
        <ele>546</ele>
        <time>2023-08-30T15:06:05Z</time>
      </trkpt>
      <trkpt lat="46.40284" lon="5.65026">
        <ele>546</ele>
        <time>2023-08-30T15:06:06Z</time>
      </trkpt>
      <trkpt lat="46.40284" lon="5.65026">
        <ele>546</ele>
        <time>2023-08-30T15:06:07Z</time>
      </trkpt>
      <trkpt lat="46.40283" lon="5.65023">
        <ele>543.8</ele>
        <time>2023-08-30T15:06:55Z</time>
      </trkpt>
      <trkpt lat="46.40281" lon="5.65023">
        <ele>543.8</ele>
        <time>2023-08-30T15:06:56Z</time>
      </trkpt>
      <trkpt lat="46.4028" lon="5.65024">
        <ele>543.8</ele>
        <time>2023-08-30T15:06:57Z</time>
      </trkpt>
      <trkpt lat="46.4028" lon="5.65024">
        <ele>543.8</ele>
        <time>2023-08-30T15:06:58Z</time>
      </trkpt>
      <trkpt lat="46.4028" lon="5.65024">
        <ele>543.2</ele>
        <time>2023-08-30T15:06:59Z</time>
      </trkpt>
      <trkpt lat="46.40279" lon="5.65024">
        <ele>543.2</ele>
        <time>2023-08-30T15:07:00Z</time>
      </trkpt>
      <trkpt lat="46.40277" lon="5.65022">
        <ele>543.2</ele>
        <time>2023-08-30T15:07:01Z</time>
      </trkpt>
      <trkpt lat="46.40276" lon="5.6502">
        <ele>543.2</ele>
        <time>2023-08-30T15:07:02Z</time>
      </trkpt>
      <trkpt lat="46.40275" lon="5.65018">
        <ele>543.2</ele>
        <time>2023-08-30T15:07:03Z</time>
      </trkpt>
      <trkpt lat="46.40274" lon="5.65018">
        <ele>542.4</ele>
        <time>2023-08-30T15:07:04Z</time>
      </trkpt>
      <trkpt lat="46.40274" lon="5.65016">
        <ele>542.8</ele>
        <time>2023-08-30T15:07:05Z</time>
      </trkpt>
      <trkpt lat="46.40274" lon="5.65016">
        <ele>542.8</ele>
        <time>2023-08-30T15:07:06Z</time>
      </trkpt>
      <trkpt lat="46.40273" lon="5.65015">
        <ele>542.8</ele>
        <time>2023-08-30T15:07:07Z</time>
      </trkpt>
      <trkpt lat="46.40272" lon="5.65015">
        <ele>542.4</ele>
        <time>2023-08-30T15:07:08Z</time>
      </trkpt>
      <trkpt lat="46.40272" lon="5.65015">
        <ele>542</ele>
        <time>2023-08-30T15:07:09Z</time>
      </trkpt>
      <trkpt lat="46.40272" lon="5.65015">
        <ele>542</ele>
        <time>2023-08-30T15:07:10Z</time>
      </trkpt>
      <trkpt lat="46.40272" lon="5.65014">
        <ele>542</ele>
        <time>2023-08-30T15:07:11Z</time>
      </trkpt>
      <trkpt lat="46.40272" lon="5.65013">
        <ele>542</ele>
        <time>2023-08-30T15:07:12Z</time>
      </trkpt>
      <trkpt lat="46.40272" lon="5.65014">
        <ele>542</ele>
        <time>2023-08-30T15:07:13Z</time>
      </trkpt>
      <trkpt lat="46.40273" lon="5.65016">
        <ele>515</ele>
        <time>2023-08-30T15:07:51Z</time>
      </trkpt>
      <trkpt lat="46.40272" lon="5.65016">
        <ele>515</ele>
        <time>2023-08-30T15:07:52Z</time>
      </trkpt>
      <trkpt lat="46.40271" lon="5.65017">
        <ele>515</ele>
        <time>2023-08-30T15:07:53Z</time>
      </trkpt>
      <trkpt lat="46.40271" lon="5.65017">
        <ele>514.8</ele>
        <time>2023-08-30T15:07:54Z</time>
      </trkpt>
      <trkpt lat="46.40271" lon="5.65017">
        <ele>514.8</ele>
        <time>2023-08-30T15:07:55Z</time>
      </trkpt>
      <trkpt lat="46.40272" lon="5.65019">
        <ele>514.8</ele>
        <time>2023-08-30T15:07:56Z</time>
      </trkpt>
      <trkpt lat="46.40273" lon="5.65019">
        <ele>514.8</ele>
        <time>2023-08-30T15:07:57Z</time>
      </trkpt>
      <trkpt lat="46.40274" lon="5.6502">
        <ele>512.6</ele>
        <time>2023-08-30T15:07:58Z</time>
      </trkpt>
      <trkpt lat="46.40273" lon="5.6502">
        <ele>512.6</ele>
        <time>2023-08-30T15:07:59Z</time>
      </trkpt>
      <trkpt lat="46.40272" lon="5.6502">
        <ele>512.6</ele>
        <time>2023-08-30T15:08:00Z</time>
      </trkpt>
      <trkpt lat="46.40269" lon="5.65021">
        <ele>512.6</ele>
        <time>2023-08-30T15:08:01Z</time>
      </trkpt>
      <trkpt lat="46.40269" lon="5.65021">
        <ele>512.6</ele>
        <time>2023-08-30T15:08:02Z</time>
      </trkpt>
      <trkpt lat="46.40269" lon="5.65021">
        <ele>512.6</ele>
        <time>2023-08-30T15:08:03Z</time>
      </trkpt>
      <trkpt lat="46.40268" lon="5.65021">
        <ele>512.8</ele>
        <time>2023-08-30T15:08:04Z</time>
      </trkpt>
      <trkpt lat="46.40268" lon="5.65021">
        <ele>512.8</ele>
        <time>2023-08-30T15:08:05Z</time>
      </trkpt>
      <trkpt lat="46.40267" lon="5.65021">
        <ele>513.8</ele>
        <time>2023-08-30T15:08:06Z</time>
      </trkpt>
      <trkpt lat="46.40267" lon="5.65021">
        <ele>534.4</ele>
        <time>2023-08-30T15:08:07Z</time>
      </trkpt>
      <trkpt lat="46.40267" lon="5.65021">
        <ele>534.4</ele>
        <time>2023-08-30T15:08:08Z</time>
      </trkpt>
      <trkpt lat="46.40266" lon="5.65021">
        <ele>534.4</ele>
        <time>2023-08-30T15:08:09Z</time>
      </trkpt>
      <trkpt lat="46.40266" lon="5.65021">
        <ele>534.4</ele>
        <time>2023-08-30T15:08:10Z</time>
      </trkpt>
      <trkpt lat="46.40125" lon="5.65149">
        <ele>534.4</ele>
        <time>2023-08-30T15:08:11Z</time>
      </trkpt>
      <trkpt lat="46.40125" lon="5.65149">
        <ele>544</ele>
        <time>2023-08-30T15:08:12Z</time>
      </trkpt>
      <trkpt lat="46.40125" lon="5.65149">
        <ele>544</ele>
        <time>2023-08-30T15:08:13Z</time>
      </trkpt>
      <trkpt lat="46.40125" lon="5.65149">
        <ele>544</ele>
        <time>2023-08-30T15:08:14Z</time>
      </trkpt>
      <trkpt lat="46.40125" lon="5.65149">
        <ele>544</ele>
        <time>2023-08-30T15:08:15Z</time>
      </trkpt>
      <trkpt lat="46.39955" lon="5.65248">
        <ele>545.2</ele>
        <time>2023-08-30T15:08:16Z</time>
      </trkpt>
      <trkpt lat="46.39953" lon="5.65249">
        <ele>545.2</ele>
        <time>2023-08-30T15:08:17Z</time>
      </trkpt>
      <trkpt lat="46.39952" lon="5.6525">
        <ele>545.2</ele>
        <time>2023-08-30T15:08:18Z</time>
      </trkpt>
      <trkpt lat="46.3995" lon="5.65251">
        <ele>544.8</ele>
        <time>2023-08-30T15:08:19Z</time>
      </trkpt>
      <trkpt lat="46.39949" lon="5.65252">
        <ele>544.6</ele>
        <time>2023-08-30T15:08:20Z</time>
      </trkpt>
      <trkpt lat="46.39947" lon="5.65253">
        <ele>544.6</ele>
        <time>2023-08-30T15:08:21Z</time>
      </trkpt>
      <trkpt lat="46.39946" lon="5.65254">
        <ele>544.6</ele>
        <time>2023-08-30T15:08:22Z</time>
      </trkpt>
      <trkpt lat="46.39944" lon="5.65255">
        <ele>544.6</ele>
        <time>2023-08-30T15:08:23Z</time>
      </trkpt>
      <trkpt lat="46.39943" lon="5.65256">
        <ele>544.4</ele>
        <time>2023-08-30T15:08:24Z</time>
      </trkpt>
      <trkpt lat="46.39941" lon="5.65257">
        <ele>544.4</ele>
        <time>2023-08-30T15:08:25Z</time>
      </trkpt>
      <trkpt lat="46.39939" lon="5.65258">
        <ele>544.4</ele>
        <time>2023-08-30T15:08:26Z</time>
      </trkpt>
      <trkpt lat="46.39938" lon="5.65259">
        <ele>544.4</ele>
        <time>2023-08-30T15:08:27Z</time>
      </trkpt>
      <trkpt lat="46.39936" lon="5.65259">
        <ele>544.8</ele>
        <time>2023-08-30T15:08:28Z</time>
      </trkpt>
      <trkpt lat="46.39935" lon="5.6526">
        <ele>545</ele>
        <time>2023-08-30T15:08:29Z</time>
      </trkpt>
      <trkpt lat="46.39933" lon="5.65261">
        <ele>545</ele>
        <time>2023-08-30T15:08:30Z</time>
      </trkpt>
      <trkpt lat="46.39932" lon="5.65262">
        <ele>545</ele>
        <time>2023-08-30T15:08:31Z</time>
      </trkpt>
      <trkpt lat="46.3993" lon="5.65263">
        <ele>545</ele>
        <time>2023-08-30T15:08:32Z</time>
      </trkpt>
      <trkpt lat="46.39929" lon="5.65264">
        <ele>545</ele>
        <time>2023-08-30T15:08:33Z</time>
      </trkpt>
      <trkpt lat="46.39927" lon="5.65265">
        <ele>545.2</ele>
        <time>2023-08-30T15:08:34Z</time>
      </trkpt>
      <trkpt lat="46.39925" lon="5.65266">
        <ele>545.2</ele>
        <time>2023-08-30T15:08:35Z</time>
      </trkpt>
      <trkpt lat="46.39924" lon="5.65267">
        <ele>545.2</ele>
        <time>2023-08-30T15:08:36Z</time>
      </trkpt>
      <trkpt lat="46.39922" lon="5.65268">
        <ele>545.2</ele>
        <time>2023-08-30T15:08:37Z</time>
      </trkpt>
      <trkpt lat="46.39921" lon="5.65269">
        <ele>545</ele>
        <time>2023-08-30T15:08:38Z</time>
      </trkpt>
      <trkpt lat="46.39919" lon="5.65269">
        <ele>545</ele>
        <time>2023-08-30T15:08:39Z</time>
      </trkpt>
      <trkpt lat="46.39918" lon="5.6527">
        <ele>545</ele>
        <time>2023-08-30T15:08:40Z</time>
      </trkpt>
      <trkpt lat="46.39916" lon="5.65271">
        <ele>545</ele>
        <time>2023-08-30T15:08:41Z</time>
      </trkpt>
      <trkpt lat="46.39915" lon="5.65272">
        <ele>545</ele>
        <time>2023-08-30T15:08:42Z</time>
      </trkpt>
      <trkpt lat="46.39913" lon="5.65273">
        <ele>545</ele>
        <time>2023-08-30T15:08:43Z</time>
      </trkpt>
      <trkpt lat="46.39911" lon="5.65274">
        <ele>545</ele>
        <time>2023-08-30T15:08:44Z</time>
      </trkpt>
      <trkpt lat="46.39923" lon="5.65261">
        <ele>545</ele>
        <time>2023-08-30T15:08:45Z</time>
      </trkpt>
      <trkpt lat="46.39935" lon="5.65247">
        <ele>545</ele>
        <time>2023-08-30T15:08:46Z</time>
      </trkpt>
      <trkpt lat="46.39947" lon="5.65234">
        <ele>544.8</ele>
        <time>2023-08-30T15:08:47Z</time>
      </trkpt>
      <trkpt lat="46.39955" lon="5.65221">
        <ele>544.8</ele>
        <time>2023-08-30T15:08:48Z</time>
      </trkpt>
      <trkpt lat="46.39963" lon="5.65208">
        <ele>544.8</ele>
        <time>2023-08-30T15:08:49Z</time>
      </trkpt>
      <trkpt lat="46.3998" lon="5.65183">
        <ele>544.8</ele>
        <time>2023-08-30T15:08:50Z</time>
      </trkpt>
      <trkpt lat="46.39997" lon="5.65153">
        <ele>544.6</ele>
        <time>2023-08-30T15:08:51Z</time>
      </trkpt>
      <trkpt lat="46.39999" lon="5.65152">
        <ele>544.6</ele>
        <time>2023-08-30T15:08:52Z</time>
      </trkpt>
      <trkpt lat="46.40001" lon="5.65151">
        <ele>544.6</ele>
        <time>2023-08-30T15:08:53Z</time>
      </trkpt>
      <trkpt lat="46.4001" lon="5.65139">
        <ele>544.6</ele>
        <time>2023-08-30T15:08:54Z</time>
      </trkpt>
      <trkpt lat="46.40019" lon="5.65127">
        <ele>544.2</ele>
        <time>2023-08-30T15:08:55Z</time>
      </trkpt>
      <trkpt lat="46.40028" lon="5.65115">
        <ele>543.8</ele>
        <time>2023-08-30T15:08:56Z</time>
      </trkpt>
      <trkpt lat="46.40037" lon="5.65103">
        <ele>543.8</ele>
        <time>2023-08-30T15:08:57Z</time>
      </trkpt>
      <trkpt lat="46.40045" lon="5.65091">
        <ele>543.8</ele>
        <time>2023-08-30T15:08:58Z</time>
      </trkpt>
      <trkpt lat="46.40054" lon="5.65079">
        <ele>543.8</ele>
        <time>2023-08-30T15:08:59Z</time>
      </trkpt>
      <trkpt lat="46.40063" lon="5.65067">
        <ele>545.4</ele>
        <time>2023-08-30T15:09:00Z</time>
      </trkpt>
      <trkpt lat="46.40072" lon="5.65055">
        <ele>545.4</ele>
        <time>2023-08-30T15:09:01Z</time>
      </trkpt>
      <trkpt lat="46.40081" lon="5.65043">
        <ele>545.4</ele>
        <time>2023-08-30T15:09:02Z</time>
      </trkpt>
      <trkpt lat="46.40089" lon="5.65031">
        <ele>545.4</ele>
        <time>2023-08-30T15:09:03Z</time>
      </trkpt>
      <trkpt lat="46.40098" lon="5.65019">
        <ele>544.6</ele>
        <time>2023-08-30T15:09:04Z</time>
      </trkpt>
      <trkpt lat="46.40107" lon="5.65007">
        <ele>544.6</ele>
        <time>2023-08-30T15:09:05Z</time>
      </trkpt>
      <trkpt lat="46.40116" lon="5.64995">
        <ele>544.6</ele>
        <time>2023-08-30T15:09:06Z</time>
      </trkpt>
      <trkpt lat="46.40125" lon="5.64983">
        <ele>544.6</ele>
        <time>2023-08-30T15:09:07Z</time>
      </trkpt>
      <trkpt lat="46.40133" lon="5.64971">
        <ele>544.6</ele>
        <time>2023-08-30T15:09:08Z</time>
      </trkpt>
      <trkpt lat="46.40142" lon="5.64959">
        <ele>544.4</ele>
        <time>2023-08-30T15:09:09Z</time>
      </trkpt>
      <trkpt lat="46.40151" lon="5.64947">
        <ele>544.4</ele>
        <time>2023-08-30T15:09:10Z</time>
      </trkpt>
      <trkpt lat="46.4016" lon="5.64934">
        <ele>544.4</ele>
        <time>2023-08-30T15:09:11Z</time>
      </trkpt>
      <trkpt lat="46.40169" lon="5.64922">
        <ele>544.6</ele>
        <time>2023-08-30T15:09:12Z</time>
      </trkpt>
      <trkpt lat="46.40177" lon="5.6491">
        <ele>544.6</ele>
        <time>2023-08-30T15:09:13Z</time>
      </trkpt>
      <trkpt lat="46.40186" lon="5.64898">
        <ele>544.6</ele>
        <time>2023-08-30T15:09:14Z</time>
      </trkpt>
      <trkpt lat="46.40195" lon="5.64886">
        <ele>544.6</ele>
        <time>2023-08-30T15:09:15Z</time>
      </trkpt>
      <trkpt lat="46.40204" lon="5.64874">
        <ele>544.4</ele>
        <time>2023-08-30T15:09:16Z</time>
      </trkpt>
      <trkpt lat="46.40213" lon="5.64862">
        <ele>544.6</ele>
        <time>2023-08-30T15:09:17Z</time>
      </trkpt>
      <trkpt lat="46.40221" lon="5.6485">
        <ele>544.4</ele>
        <time>2023-08-30T15:09:22Z</time>
      </trkpt>
      <trkpt lat="46.40255" lon="5.64802">
        <ele>544.4</ele>
        <time>2023-08-30T15:09:23Z</time>
      </trkpt>
      <trkpt lat="46.40255" lon="5.648">
        <ele>544.4</ele>
        <time>2023-08-30T15:09:24Z</time>
      </trkpt>
      <trkpt lat="46.40256" lon="5.64796">
        <ele>544.4</ele>
        <time>2023-08-30T15:09:25Z</time>
      </trkpt>
      <trkpt lat="46.40248" lon="5.64826">
        <ele>544.4</ele>
        <time>2023-08-30T15:09:26Z</time>
      </trkpt>
      <trkpt lat="46.40249" lon="5.64828">
        <ele>544.4</ele>
        <time>2023-08-30T15:09:27Z</time>
      </trkpt>
      <trkpt lat="46.4025" lon="5.6483">
        <ele>544.4</ele>
        <time>2023-08-30T15:09:28Z</time>
      </trkpt>
      <trkpt lat="46.40251" lon="5.64831">
        <ele>544.4</ele>
        <time>2023-08-30T15:09:29Z</time>
      </trkpt>
      <trkpt lat="46.40252" lon="5.64833">
        <ele>544.6</ele>
        <time>2023-08-30T15:09:30Z</time>
      </trkpt>
      <trkpt lat="46.40253" lon="5.64835">
        <ele>544.6</ele>
        <time>2023-08-30T15:09:31Z</time>
      </trkpt>
      <trkpt lat="46.40254" lon="5.64836">
        <ele>544.6</ele>
        <time>2023-08-30T15:09:32Z</time>
      </trkpt>
      <trkpt lat="46.40255" lon="5.64838">
        <ele>544.6</ele>
        <time>2023-08-30T15:09:33Z</time>
      </trkpt>
      <trkpt lat="46.40256" lon="5.6484">
        <ele>544.4</ele>
        <time>2023-08-30T15:09:34Z</time>
      </trkpt>
      <trkpt lat="46.40257" lon="5.64841">
        <ele>544.4</ele>
        <time>2023-08-30T15:09:35Z</time>
      </trkpt>
      <trkpt lat="46.40258" lon="5.64843">
        <ele>544.4</ele>
        <time>2023-08-30T15:09:36Z</time>
      </trkpt>
      <trkpt lat="46.40259" lon="5.64845">
        <ele>544.4</ele>
        <time>2023-08-30T15:09:37Z</time>
      </trkpt>
      <trkpt lat="46.4026" lon="5.64846">
        <ele>544.4</ele>
        <time>2023-08-30T15:09:38Z</time>
      </trkpt>
      <trkpt lat="46.40261" lon="5.64848">
        <ele>544.6</ele>
        <time>2023-08-30T15:09:39Z</time>
      </trkpt>
      <trkpt lat="46.40262" lon="5.64849">
        <ele>544.6</ele>
        <time>2023-08-30T15:09:40Z</time>
      </trkpt>
      <trkpt lat="46.40263" lon="5.64851">
        <ele>544.6</ele>
        <time>2023-08-30T15:09:41Z</time>
      </trkpt>
      <trkpt lat="46.40264" lon="5.64853">
        <ele>544.6</ele>
        <time>2023-08-30T15:09:42Z</time>
      </trkpt>
      <trkpt lat="46.40265" lon="5.64854">
        <ele>544.6</ele>
        <time>2023-08-30T15:09:43Z</time>
      </trkpt>
      <trkpt lat="46.40266" lon="5.64856">
        <ele>544.6</ele>
        <time>2023-08-30T15:09:44Z</time>
      </trkpt>
      <trkpt lat="46.40266" lon="5.64856">
        <ele>544.6</ele>
        <time>2023-08-30T15:09:45Z</time>
      </trkpt>
      <trkpt lat="46.40221" lon="5.65084">
        <ele>544.6</ele>
        <time>2023-08-30T15:09:46Z</time>
      </trkpt>
      <trkpt lat="46.40221" lon="5.65084">
        <ele>544.8</ele>
        <time>2023-08-30T15:09:47Z</time>
      </trkpt>
      <trkpt lat="46.40229" lon="5.6505">
        <ele>544.8</ele>
        <time>2023-08-30T15:10:02Z</time>
      </trkpt>
      <trkpt lat="46.40228" lon="5.65051">
        <ele>544.8</ele>
        <time>2023-08-30T15:10:03Z</time>
      </trkpt>
      <trkpt lat="46.40227" lon="5.65049">
        <ele>544.8</ele>
        <time>2023-08-30T15:10:04Z</time>
      </trkpt>
      <trkpt lat="46.40227" lon="5.65048">
        <ele>544.8</ele>
        <time>2023-08-30T15:10:05Z</time>
      </trkpt>
      <trkpt lat="46.40226" lon="5.65048">
        <ele>544.8</ele>
        <time>2023-08-30T15:10:06Z</time>
      </trkpt>
      <trkpt lat="46.40226" lon="5.65048">
        <ele>545</ele>
        <time>2023-08-30T15:10:07Z</time>
      </trkpt>
      <trkpt lat="46.40226" lon="5.65048">
        <ele>545</ele>
        <time>2023-08-30T15:10:08Z</time>
      </trkpt>
      <trkpt lat="46.40224" lon="5.65051">
        <ele>545</ele>
        <time>2023-08-30T15:10:09Z</time>
      </trkpt>
      <trkpt lat="46.40223" lon="5.65052">
        <ele>545</ele>
        <time>2023-08-30T15:10:10Z</time>
      </trkpt>
      <trkpt lat="46.40223" lon="5.65052">
        <ele>545</ele>
        <time>2023-08-30T15:10:11Z</time>
      </trkpt>
      <trkpt lat="46.40223" lon="5.65052">
        <ele>545</ele>
        <time>2023-08-30T15:10:12Z</time>
      </trkpt>
      <trkpt lat="46.40223" lon="5.65054">
        <ele>545</ele>
        <time>2023-08-30T15:10:13Z</time>
      </trkpt>
      <trkpt lat="46.40225" lon="5.65053">
        <ele>545</ele>
        <time>2023-08-30T15:10:14Z</time>
      </trkpt>
      <trkpt lat="46.4027" lon="5.65029">
        <ele>545.2</ele>
        <time>2023-08-30T15:12:08Z</time>
      </trkpt>
      <trkpt lat="46.40272" lon="5.65029">
        <ele>545.2</ele>
        <time>2023-08-30T15:12:09Z</time>
      </trkpt>
      <trkpt lat="46.40274" lon="5.65032">
        <ele>545.2</ele>
        <time>2023-08-30T15:12:10Z</time>
      </trkpt>
      <trkpt lat="46.40273" lon="5.65034">
        <ele>545.2</ele>
        <time>2023-08-30T15:12:11Z</time>
      </trkpt>
      <trkpt lat="46.40273" lon="5.65036">
        <ele>545.2</ele>
        <time>2023-08-30T15:12:12Z</time>
      </trkpt>
      <trkpt lat="46.40272" lon="5.65038">
        <ele>545.4</ele>
        <time>2023-08-30T15:12:13Z</time>
      </trkpt>
      <trkpt lat="46.40271" lon="5.6504">
        <ele>545.4</ele>
        <time>2023-08-30T15:12:14Z</time>
      </trkpt>
      <trkpt lat="46.4027" lon="5.65042">
        <ele>545.4</ele>
        <time>2023-08-30T15:12:15Z</time>
      </trkpt>
      <trkpt lat="46.40269" lon="5.65045">
        <ele>545.4</ele>
        <time>2023-08-30T15:12:16Z</time>
      </trkpt>
      <trkpt lat="46.40268" lon="5.65047">
        <ele>545.2</ele>
        <time>2023-08-30T15:16:48Z</time>
      </trkpt>
      <trkpt lat="46.40268" lon="5.65049">
        <ele>545.2</ele>
        <time>2023-08-30T15:16:49Z</time>
      </trkpt>
      <trkpt lat="46.40267" lon="5.65051">
        <ele>545.2</ele>
        <time>2023-08-30T15:16:50Z</time>
      </trkpt>
      <trkpt lat="46.40266" lon="5.65053">
        <ele>545.2</ele>
        <time>2023-08-30T15:16:51Z</time>
      </trkpt>
      <trkpt lat="46.40265" lon="5.65055">
        <ele>545.2</ele>
        <time>2023-08-30T15:16:52Z</time>
      </trkpt>
      <trkpt lat="46.40264" lon="5.65057">
        <ele>545.4</ele>
        <time>2023-08-30T15:16:53Z</time>
      </trkpt>
      <trkpt lat="46.40264" lon="5.65057">
        <ele>545.4</ele>
        <time>2023-08-30T15:16:54Z</time>
      </trkpt>
      <trkpt lat="46.40264" lon="5.65069">
        <ele>545.4</ele>
        <time>2023-08-30T15:16:55Z</time>
      </trkpt>
      <trkpt lat="46.40265" lon="5.65074">
        <ele>545.4</ele>
        <time>2023-08-30T15:16:56Z</time>
      </trkpt>
      <trkpt lat="46.40266" lon="5.65079">
        <ele>545.4</ele>
        <time>2023-08-30T15:16:57Z</time>
      </trkpt>
      <trkpt lat="46.40267" lon="5.65084">
        <ele>545.4</ele>
        <time>2023-08-30T15:17:10Z</time>
      </trkpt>
      <trkpt lat="46.40268" lon="5.65089">
        <ele>545.4</ele>
        <time>2023-08-30T15:17:11Z</time>
      </trkpt>
      <trkpt lat="46.40268" lon="5.65089">
        <ele>545.6</ele>
        <time>2023-08-30T15:17:12Z</time>
      </trkpt>
      <trkpt lat="46.4027" lon="5.65082">
        <ele>545.6</ele>
        <time>2023-08-30T15:17:13Z</time>
      </trkpt>
      <trkpt lat="46.4027" lon="5.65079">
        <ele>545.6</ele>
        <time>2023-08-30T15:17:14Z</time>
      </trkpt>
      <trkpt lat="46.4027" lon="5.65079">
        <ele>545.6</ele>
        <time>2023-08-30T15:17:15Z</time>
      </trkpt>
      <trkpt lat="46.40277" lon="5.65016">
        <ele>546</ele>
        <time>2023-08-30T15:23:20Z</time>
      </trkpt>
      <trkpt lat="46.40276" lon="5.65015">
        <ele>546</ele>
        <time>2023-08-30T15:23:21Z</time>
      </trkpt>
      <trkpt lat="46.40276" lon="5.65015">
        <ele>545.8</ele>
        <time>2023-08-30T15:23:22Z</time>
      </trkpt>
      <trkpt lat="46.40272" lon="5.65041">
        <ele>545.8</ele>
        <time>2023-08-30T15:23:45Z</time>
      </trkpt>
      <trkpt lat="46.4027" lon="5.65044">
        <ele>545.6</ele>
        <time>2023-08-30T15:23:46Z</time>
      </trkpt>
      <trkpt lat="46.40268" lon="5.65047">
        <ele>545.6</ele>
        <time>2023-08-30T15:23:47Z</time>
      </trkpt>
      <trkpt lat="46.40269" lon="5.6505">
        <ele>545.6</ele>
        <time>2023-08-30T15:23:48Z</time>
      </trkpt>
      <trkpt lat="46.40268" lon="5.65054">
        <ele>545.6</ele>
        <time>2023-08-30T15:23:49Z</time>
      </trkpt>
      <trkpt lat="46.40268" lon="5.65056">
        <ele>545.6</ele>
        <time>2023-08-30T15:23:50Z</time>
      </trkpt>
      <trkpt lat="46.40267" lon="5.65058">
        <ele>545.8</ele>
        <time>2023-08-30T15:23:51Z</time>
      </trkpt>
      <trkpt lat="46.40268" lon="5.65061">
        <ele>545.8</ele>
        <time>2023-08-30T15:23:52Z</time>
      </trkpt>
      <trkpt lat="46.40267" lon="5.65063">
        <ele>545.8</ele>
        <time>2023-08-30T15:23:53Z</time>
      </trkpt>
      <trkpt lat="46.40266" lon="5.65063">
        <ele>545.8</ele>
        <time>2023-08-30T15:23:54Z</time>
      </trkpt>
      <trkpt lat="46.40265" lon="5.65064">
        <ele>545.8</ele>
        <time>2023-08-30T15:23:55Z</time>
      </trkpt>
      <trkpt lat="46.40266" lon="5.65066">
        <ele>545.8</ele>
        <time>2023-08-30T15:23:56Z</time>
      </trkpt>
      <trkpt lat="46.40265" lon="5.65067">
        <ele>545.8</ele>
        <time>2023-08-30T15:23:57Z</time>
      </trkpt>
      <trkpt lat="46.40265" lon="5.65069">
        <ele>545.8</ele>
        <time>2023-08-30T15:23:58Z</time>
      </trkpt>
      <trkpt lat="46.40264" lon="5.65071">
        <ele>545.8</ele>
        <time>2023-08-30T15:23:59Z</time>
      </trkpt>
      <trkpt lat="46.40263" lon="5.65073">
        <ele>545.8</ele>
        <time>2023-08-30T15:24:00Z</time>
      </trkpt>
      <trkpt lat="46.40263" lon="5.65074">
        <ele>545.8</ele>
        <time>2023-08-30T15:24:01Z</time>
      </trkpt>
      <trkpt lat="46.40263" lon="5.65075">
        <ele>545.8</ele>
        <time>2023-08-30T15:24:02Z</time>
      </trkpt>
      <trkpt lat="46.40263" lon="5.65077">
        <ele>545.6</ele>
        <time>2023-08-30T15:24:03Z</time>
      </trkpt>
      <trkpt lat="46.40263" lon="5.65078">
        <ele>545.6</ele>
        <time>2023-08-30T15:24:04Z</time>
      </trkpt>
      <trkpt lat="46.40263" lon="5.6508">
        <ele>545.6</ele>
        <time>2023-08-30T15:24:05Z</time>
      </trkpt>
      <trkpt lat="46.40261" lon="5.65081">
        <ele>545.6</ele>
        <time>2023-08-30T15:24:06Z</time>
      </trkpt>
      <trkpt lat="46.40262" lon="5.65082">
        <ele>545.8</ele>
        <time>2023-08-30T15:24:07Z</time>
      </trkpt>
      <trkpt lat="46.40262" lon="5.65081">
        <ele>545.8</ele>
        <time>2023-08-30T15:24:08Z</time>
      </trkpt>
      <trkpt lat="46.40262" lon="5.65083">
        <ele>545.8</ele>
        <time>2023-08-30T15:24:09Z</time>
      </trkpt>
      <trkpt lat="46.40262" lon="5.65083">
        <ele>545.8</ele>
        <time>2023-08-30T15:24:10Z</time>
      </trkpt>
      <trkpt lat="46.40262" lon="5.65084">
        <ele>545.8</ele>
        <time>2023-08-30T15:24:11Z</time>
      </trkpt>
      <trkpt lat="46.40262" lon="5.65085">
        <ele>545.8</ele>
        <time>2023-08-30T15:24:12Z</time>
      </trkpt>
      <trkpt lat="46.40262" lon="5.65087">
        <ele>545.8</ele>
        <time>2023-08-30T15:24:13Z</time>
      </trkpt>
      <trkpt lat="46.40264" lon="5.65086">
        <ele>545.8</ele>
        <time>2023-08-30T15:24:14Z</time>
      </trkpt>
      <trkpt lat="46.40264" lon="5.65086">
        <ele>546</ele>
        <time>2023-08-30T15:24:15Z</time>
      </trkpt>
      <trkpt lat="46.40264" lon="5.65087">
        <ele>546</ele>
        <time>2023-08-30T15:24:16Z</time>
      </trkpt>
      <trkpt lat="46.40264" lon="5.65088">
        <ele>546</ele>
        <time>2023-08-30T15:24:17Z</time>
      </trkpt>
      <trkpt lat="46.40265" lon="5.65088">
        <ele>545.6</ele>
        <time>2023-08-30T15:24:18Z</time>
      </trkpt>
      <trkpt lat="46.40264" lon="5.65089">
        <ele>545.6</ele>
        <time>2023-08-30T15:24:19Z</time>
      </trkpt>
      <trkpt lat="46.40264" lon="5.65083">
        <ele>545.6</ele>
        <time>2023-08-30T15:24:20Z</time>
      </trkpt>
      <trkpt lat="46.40263" lon="5.65079">
        <ele>545.6</ele>
        <time>2023-08-30T15:24:21Z</time>
      </trkpt>
      <trkpt lat="46.40273" lon="5.65025">
        <ele>545.8</ele>
        <time>2023-08-30T15:25:05Z</time>
      </trkpt>
      <trkpt lat="46.40274" lon="5.65026">
        <ele>545.8</ele>
        <time>2023-08-30T15:25:06Z</time>
      </trkpt>
      <trkpt lat="46.40274" lon="5.65026">
        <ele>545.8</ele>
        <time>2023-08-30T15:25:07Z</time>
      </trkpt>
      <trkpt lat="46.40261" lon="5.65105">
        <ele>545.4</ele>
        <time>2023-08-30T15:31:43Z</time>
      </trkpt>
      <trkpt lat="46.40262" lon="5.65107">
        <ele>545.4</ele>
        <time>2023-08-30T15:31:44Z</time>
      </trkpt>
      <trkpt lat="46.40262" lon="5.65109">
        <ele>545.4</ele>
        <time>2023-08-30T15:31:45Z</time>
      </trkpt>
      <trkpt lat="46.40263" lon="5.65111">
        <ele>545.2</ele>
        <time>2023-08-30T15:31:46Z</time>
      </trkpt>
      <trkpt lat="46.40263" lon="5.65113">
        <ele>545.2</ele>
        <time>2023-08-30T15:31:47Z</time>
      </trkpt>
      <trkpt lat="46.40263" lon="5.65113">
        <ele>545.2</ele>
        <time>2023-08-30T15:31:48Z</time>
      </trkpt>
      <trkpt lat="46.40263" lon="5.65114">
        <ele>545.4</ele>
        <time>2023-08-30T15:31:49Z</time>
      </trkpt>
      <trkpt lat="46.40264" lon="5.65115">
        <ele>545.4</ele>
        <time>2023-08-30T15:31:50Z</time>
      </trkpt>
      <trkpt lat="46.40264" lon="5.65115">
        <ele>545.4</ele>
        <time>2023-08-30T15:31:51Z</time>
      </trkpt>
      <trkpt lat="46.40264" lon="5.65115">
        <ele>545.4</ele>
        <time>2023-08-30T15:31:52Z</time>
      </trkpt>
      <trkpt lat="46.40265" lon="5.65115">
        <ele>545.4</ele>
        <time>2023-08-30T15:31:53Z</time>
      </trkpt>
      <trkpt lat="46.40268" lon="5.65128">
        <ele>545.6</ele>
        <time>2023-08-30T15:32:05Z</time>
      </trkpt>
      <trkpt lat="46.40268" lon="5.65128">
        <ele>545.6</ele>
        <time>2023-08-30T15:32:06Z</time>
      </trkpt>
      <trkpt lat="46.40268" lon="5.65129">
        <ele>545.6</ele>
        <time>2023-08-30T15:32:07Z</time>
      </trkpt>
      <trkpt lat="46.40268" lon="5.65129">
        <ele>545.6</ele>
        <time>2023-08-30T15:32:08Z</time>
      </trkpt>
      <trkpt lat="46.40274" lon="5.65049">
        <ele>544.8</ele>
        <time>2023-08-30T15:39:26Z</time>
      </trkpt>
      <trkpt lat="46.40274" lon="5.65048">
        <ele>544.8</ele>
        <time>2023-08-30T15:39:27Z</time>
      </trkpt>
      <trkpt lat="46.40273" lon="5.65047">
        <ele>544.8</ele>
        <time>2023-08-30T15:39:28Z</time>
      </trkpt>
      <trkpt lat="46.4027" lon="5.65019">
        <ele>545.2</ele>
        <time>2023-08-30T15:40:18Z</time>
      </trkpt>
      <trkpt lat="46.4027" lon="5.65016">
        <ele>545.2</ele>
        <time>2023-08-30T15:40:19Z</time>
      </trkpt>
      <trkpt lat="46.4027" lon="5.65013">
        <ele>545.2</ele>
        <time>2023-08-30T15:40:20Z</time>
      </trkpt>
      <trkpt lat="46.40272" lon="5.65039">
        <ele>545.4</ele>
        <time>2023-08-30T15:40:52Z</time>
      </trkpt>
      <trkpt lat="46.40271" lon="5.65041">
        <ele>545.4</ele>
        <time>2023-08-30T15:40:53Z</time>
      </trkpt>
      <trkpt lat="46.40271" lon="5.65043">
        <ele>545.4</ele>
        <time>2023-08-30T15:40:54Z</time>
      </trkpt>
      <trkpt lat="46.40271" lon="5.65045">
        <ele>545.2</ele>
        <time>2023-08-30T15:40:55Z</time>
      </trkpt>
      <trkpt lat="46.40271" lon="5.65048">
        <ele>545.2</ele>
        <time>2023-08-30T15:40:56Z</time>
      </trkpt>
      <trkpt lat="46.40271" lon="5.65051">
        <ele>545.2</ele>
        <time>2023-08-30T15:40:57Z</time>
      </trkpt>
      <trkpt lat="46.40271" lon="5.65053">
        <ele>545.2</ele>
        <time>2023-08-30T15:40:58Z</time>
      </trkpt>
      <trkpt lat="46.40271" lon="5.65055">
        <ele>545.2</ele>
        <time>2023-08-30T15:40:59Z</time>
      </trkpt>
      <trkpt lat="46.40272" lon="5.65055">
        <ele>545.4</ele>
        <time>2023-08-30T15:41:00Z</time>
      </trkpt>
      <trkpt lat="46.40272" lon="5.65055">
        <ele>545.4</ele>
        <time>2023-08-30T15:41:01Z</time>
      </trkpt>
      <trkpt lat="46.40278" lon="5.65036">
        <ele>544.2</ele>
        <time>2023-08-30T15:44:20Z</time>
      </trkpt>
      <trkpt lat="46.40278" lon="5.65037">
        <ele>544.2</ele>
        <time>2023-08-30T15:44:21Z</time>
      </trkpt>
      <trkpt lat="46.40279" lon="5.65037">
        <ele>544.2</ele>
        <time>2023-08-30T15:44:22Z</time>
      </trkpt>
      <trkpt lat="46.4028" lon="5.65037">
        <ele>544.2</ele>
        <time>2023-08-30T15:44:23Z</time>
      </trkpt>
      <trkpt lat="46.40281" lon="5.65037">
        <ele>544.4</ele>
        <time>2023-08-30T15:44:24Z</time>
      </trkpt>
      <trkpt lat="46.40282" lon="5.65035">
        <ele>544.4</ele>
        <time>2023-08-30T15:44:25Z</time>
      </trkpt>
      <trkpt lat="46.40283" lon="5.65034">
        <ele>544.4</ele>
        <time>2023-08-30T15:44:26Z</time>
      </trkpt>
      <trkpt lat="46.40283" lon="5.65033">
        <ele>544.4</ele>
        <time>2023-08-30T15:44:27Z</time>
      </trkpt>
      <trkpt lat="46.40283" lon="5.65031">
        <ele>544.4</ele>
        <time>2023-08-30T15:44:28Z</time>
      </trkpt>
      <trkpt lat="46.40289" lon="5.65026">
        <ele>538.8</ele>
        <time>2023-08-30T15:45:22Z</time>
      </trkpt>
      <trkpt lat="46.40289" lon="5.65028">
        <ele>538.8</ele>
        <time>2023-08-30T15:45:23Z</time>
      </trkpt>
      <trkpt lat="46.4029" lon="5.6503">
        <ele>538.8</ele>
        <time>2023-08-30T15:45:24Z</time>
      </trkpt>
      <trkpt lat="46.4029" lon="5.65034">
        <ele>538.8</ele>
        <time>2023-08-30T15:45:25Z</time>
      </trkpt>
      <trkpt lat="46.4029" lon="5.65038">
        <ele>538.8</ele>
        <time>2023-08-30T15:45:26Z</time>
      </trkpt>
      <trkpt lat="46.4029" lon="5.65042">
        <ele>538.6</ele>
        <time>2023-08-30T15:45:27Z</time>
      </trkpt>
      <trkpt lat="46.40289" lon="5.65047">
        <ele>538.4</ele>
        <time>2023-08-30T15:45:28Z</time>
      </trkpt>
      <trkpt lat="46.40289" lon="5.65052">
        <ele>538.4</ele>
        <time>2023-08-30T15:45:29Z</time>
      </trkpt>
      <trkpt lat="46.40288" lon="5.65057">
        <ele>538.4</ele>
        <time>2023-08-30T15:45:30Z</time>
      </trkpt>
      <trkpt lat="46.40288" lon="5.65061">
        <ele>538.6</ele>
        <time>2023-08-30T15:45:31Z</time>
      </trkpt>
      <trkpt lat="46.40287" lon="5.65066">
        <ele>538.8</ele>
        <time>2023-08-30T15:45:32Z</time>
      </trkpt>
      <trkpt lat="46.40286" lon="5.6507">
        <ele>538.8</ele>
        <time>2023-08-30T15:45:33Z</time>
      </trkpt>
      <trkpt lat="46.40285" lon="5.65074">
        <ele>538.8</ele>
        <time>2023-08-30T15:45:34Z</time>
      </trkpt>
      <trkpt lat="46.40284" lon="5.65079">
        <ele>538.8</ele>
        <time>2023-08-30T15:45:35Z</time>
      </trkpt>
      <trkpt lat="46.40284" lon="5.65083">
        <ele>539.2</ele>
        <time>2023-08-30T15:45:36Z</time>
      </trkpt>
      <trkpt lat="46.40283" lon="5.65088">
        <ele>539.2</ele>
        <time>2023-08-30T15:45:37Z</time>
      </trkpt>
      <trkpt lat="46.40282" lon="5.65093">
        <ele>539.2</ele>
        <time>2023-08-30T15:45:38Z</time>
      </trkpt>
      <trkpt lat="46.40281" lon="5.65098">
        <ele>539.2</ele>
        <time>2023-08-30T15:45:39Z</time>
      </trkpt>
      <trkpt lat="46.4028" lon="5.65103">
        <ele>539.6</ele>
        <time>2023-08-30T15:45:40Z</time>
      </trkpt>
      <trkpt lat="46.40279" lon="5.65108">
        <ele>540.2</ele>
        <time>2023-08-30T15:45:41Z</time>
      </trkpt>
      <trkpt lat="46.40278" lon="5.65114">
        <ele>540.2</ele>
        <time>2023-08-30T15:45:42Z</time>
      </trkpt>
      <trkpt lat="46.40277" lon="5.6512">
        <ele>540.2</ele>
        <time>2023-08-30T15:45:43Z</time>
      </trkpt>
      <trkpt lat="46.40276" lon="5.65126">
        <ele>540.8</ele>
        <time>2023-08-30T15:45:44Z</time>
      </trkpt>
      <trkpt lat="46.40275" lon="5.65133">
        <ele>541.6</ele>
        <time>2023-08-30T15:45:45Z</time>
      </trkpt>
      <trkpt lat="46.40274" lon="5.65139">
        <ele>541.6</ele>
        <time>2023-08-30T15:45:46Z</time>
      </trkpt>
      <trkpt lat="46.40273" lon="5.65145">
        <ele>541.6</ele>
        <time>2023-08-30T15:45:47Z</time>
      </trkpt>
      <trkpt lat="46.40271" lon="5.65151">
        <ele>541.6</ele>
        <time>2023-08-30T15:45:48Z</time>
      </trkpt>
      <trkpt lat="46.4027" lon="5.65157">
        <ele>542.2</ele>
        <time>2023-08-30T15:45:49Z</time>
      </trkpt>
      <trkpt lat="46.40268" lon="5.65163">
        <ele>542.2</ele>
        <time>2023-08-30T15:45:50Z</time>
      </trkpt>
      <trkpt lat="46.40267" lon="5.65168">
        <ele>542.2</ele>
        <time>2023-08-30T15:45:51Z</time>
      </trkpt>
      <trkpt lat="46.40266" lon="5.65174">
        <ele>542.2</ele>
        <time>2023-08-30T15:45:52Z</time>
      </trkpt>
      <trkpt lat="46.40265" lon="5.6518">
        <ele>543</ele>
        <time>2023-08-30T15:45:53Z</time>
      </trkpt>
      <trkpt lat="46.40265" lon="5.65186">
        <ele>543</ele>
        <time>2023-08-30T15:45:54Z</time>
      </trkpt>
      <trkpt lat="46.40264" lon="5.65192">
        <ele>543.2</ele>
        <time>2023-08-30T15:45:55Z</time>
      </trkpt>
      <trkpt lat="46.40264" lon="5.65197">
        <ele>543.2</ele>
        <time>2023-08-30T15:45:56Z</time>
      </trkpt>
      <trkpt lat="46.40264" lon="5.65203">
        <ele>543.4</ele>
        <time>2023-08-30T15:45:57Z</time>
      </trkpt>
      <trkpt lat="46.40263" lon="5.65208">
        <ele>544.2</ele>
        <time>2023-08-30T15:45:58Z</time>
      </trkpt>
      <trkpt lat="46.40263" lon="5.65212">
        <ele>544.2</ele>
        <time>2023-08-30T15:45:59Z</time>
      </trkpt>
      <trkpt lat="46.40263" lon="5.65217">
        <ele>544.2</ele>
        <time>2023-08-30T15:46:00Z</time>
      </trkpt>
      <trkpt lat="46.40263" lon="5.65222">
        <ele>544.8</ele>
        <time>2023-08-30T15:46:01Z</time>
      </trkpt>
      <trkpt lat="46.40263" lon="5.65228">
        <ele>544.8</ele>
        <time>2023-08-30T15:46:02Z</time>
      </trkpt>
      <trkpt lat="46.40263" lon="5.65233">
        <ele>544.8</ele>
        <time>2023-08-30T15:46:03Z</time>
      </trkpt>
      <trkpt lat="46.40262" lon="5.65239">
        <ele>544.8</ele>
        <time>2023-08-30T15:46:04Z</time>
      </trkpt>
      <trkpt lat="46.40262" lon="5.65246">
        <ele>544.8</ele>
        <time>2023-08-30T15:46:05Z</time>
      </trkpt>
      <trkpt lat="46.40261" lon="5.65252">
        <ele>545.6</ele>
        <time>2023-08-30T15:46:06Z</time>
      </trkpt>
      <trkpt lat="46.4026" lon="5.65259">
        <ele>545.6</ele>
        <time>2023-08-30T15:46:07Z</time>
      </trkpt>
      <trkpt lat="46.40258" lon="5.65266">
        <ele>545.6</ele>
        <time>2023-08-30T15:46:08Z</time>
      </trkpt>
      <trkpt lat="46.40256" lon="5.65274">
        <ele>545.6</ele>
        <time>2023-08-30T15:46:09Z</time>
      </trkpt>
      <trkpt lat="46.40254" lon="5.65283">
        <ele>546.4</ele>
        <time>2023-08-30T15:46:10Z</time>
      </trkpt>
      <trkpt lat="46.40252" lon="5.65292">
        <ele>546.8</ele>
        <time>2023-08-30T15:46:11Z</time>
      </trkpt>
      <trkpt lat="46.4025" lon="5.65301">
        <ele>546.8</ele>
        <time>2023-08-30T15:46:12Z</time>
      </trkpt>
      <trkpt lat="46.40247" lon="5.65311">
        <ele>546.8</ele>
        <time>2023-08-30T15:46:13Z</time>
      </trkpt>
      <trkpt lat="46.40243" lon="5.6532">
        <ele>546.8</ele>
        <time>2023-08-30T15:46:14Z</time>
      </trkpt>
      <trkpt lat="46.40238" lon="5.65329">
        <ele>546.8</ele>
        <time>2023-08-30T15:46:15Z</time>
      </trkpt>
      <trkpt lat="46.40234" lon="5.65339">
        <ele>547.6</ele>
        <time>2023-08-30T15:46:16Z</time>
      </trkpt>
      <trkpt lat="46.40228" lon="5.65347">
        <ele>548.4</ele>
        <time>2023-08-30T15:46:17Z</time>
      </trkpt>
      <trkpt lat="46.40223" lon="5.65356">
        <ele>548.4</ele>
        <time>2023-08-30T15:46:18Z</time>
      </trkpt>
      <trkpt lat="46.40218" lon="5.65364">
        <ele>548.4</ele>
        <time>2023-08-30T15:46:19Z</time>
      </trkpt>
      <trkpt lat="46.40213" lon="5.65372">
        <ele>549.4</ele>
        <time>2023-08-30T15:46:20Z</time>
      </trkpt>
      <trkpt lat="46.40208" lon="5.6538">
        <ele>550.2</ele>
        <time>2023-08-30T15:46:21Z</time>
      </trkpt>
      <trkpt lat="46.40203" lon="5.65388">
        <ele>550.2</ele>
        <time>2023-08-30T15:46:22Z</time>
      </trkpt>
      <trkpt lat="46.40199" lon="5.65396">
        <ele>550.2</ele>
        <time>2023-08-30T15:46:23Z</time>
      </trkpt>
      <trkpt lat="46.40194" lon="5.65403">
        <ele>551.2</ele>
        <time>2023-08-30T15:46:24Z</time>
      </trkpt>
      <trkpt lat="46.4019" lon="5.6541">
        <ele>552</ele>
        <time>2023-08-30T15:46:25Z</time>
      </trkpt>
      <trkpt lat="46.40185" lon="5.65418">
        <ele>552</ele>
        <time>2023-08-30T15:46:26Z</time>
      </trkpt>
      <trkpt lat="46.40181" lon="5.65425">
        <ele>552</ele>
        <time>2023-08-30T15:46:27Z</time>
      </trkpt>
      <trkpt lat="46.40177" lon="5.65432">
        <ele>552</ele>
        <time>2023-08-30T15:46:28Z</time>
      </trkpt>
      <trkpt lat="46.40172" lon="5.65438">
        <ele>553</ele>
        <time>2023-08-30T15:46:29Z</time>
      </trkpt>
      <trkpt lat="46.40168" lon="5.65445">
        <ele>554.6</ele>
        <time>2023-08-30T15:46:30Z</time>
      </trkpt>
      <trkpt lat="46.40163" lon="5.65451">
        <ele>554.6</ele>
        <time>2023-08-30T15:46:31Z</time>
      </trkpt>
      <trkpt lat="46.40159" lon="5.65457">
        <ele>554.6</ele>
        <time>2023-08-30T15:46:32Z</time>
      </trkpt>
      <trkpt lat="46.40154" lon="5.65462">
        <ele>555.6</ele>
        <time>2023-08-30T15:46:33Z</time>
      </trkpt>
      <trkpt lat="46.40149" lon="5.65468">
        <ele>555.6</ele>
        <time>2023-08-30T15:46:34Z</time>
      </trkpt>
      <trkpt lat="46.40144" lon="5.65474">
        <ele>556.4</ele>
        <time>2023-08-30T15:46:35Z</time>
      </trkpt>
      <trkpt lat="46.40139" lon="5.6548">
        <ele>556.4</ele>
        <time>2023-08-30T15:46:36Z</time>
      </trkpt>
      <trkpt lat="46.40134" lon="5.65485">
        <ele>557.4</ele>
        <time>2023-08-30T15:46:37Z</time>
      </trkpt>
      <trkpt lat="46.40129" lon="5.65491">
        <ele>557.4</ele>
        <time>2023-08-30T15:46:38Z</time>
      </trkpt>
      <trkpt lat="46.40123" lon="5.65497">
        <ele>558.2</ele>
        <time>2023-08-30T15:46:39Z</time>
      </trkpt>
      <trkpt lat="46.40118" lon="5.65503">
        <ele>558.2</ele>
        <time>2023-08-30T15:46:40Z</time>
      </trkpt>
      <trkpt lat="46.40112" lon="5.65509">
        <ele>558.2</ele>
        <time>2023-08-30T15:46:41Z</time>
      </trkpt>
      <trkpt lat="46.40107" lon="5.65515">
        <ele>559.2</ele>
        <time>2023-08-30T15:46:42Z</time>
      </trkpt>
      <trkpt lat="46.40102" lon="5.65521">
        <ele>560.2</ele>
        <time>2023-08-30T15:46:43Z</time>
      </trkpt>
      <trkpt lat="46.40097" lon="5.65527">
        <ele>560.2</ele>
        <time>2023-08-30T15:46:44Z</time>
      </trkpt>
      <trkpt lat="46.40092" lon="5.65534">
        <ele>560.2</ele>
        <time>2023-08-30T15:46:45Z</time>
      </trkpt>
      <trkpt lat="46.40087" lon="5.6554">
        <ele>561.2</ele>
        <time>2023-08-30T15:46:46Z</time>
      </trkpt>
      <trkpt lat="46.40083" lon="5.65546">
        <ele>561.2</ele>
        <time>2023-08-30T15:46:47Z</time>
      </trkpt>
      <trkpt lat="46.40078" lon="5.65552">
        <ele>561.6</ele>
        <time>2023-08-30T15:46:48Z</time>
      </trkpt>
      <trkpt lat="46.40074" lon="5.65559">
        <ele>561.6</ele>
        <time>2023-08-30T15:46:49Z</time>
      </trkpt>
      <trkpt lat="46.4007" lon="5.65564">
        <ele>561.6</ele>
        <time>2023-08-30T15:46:50Z</time>
      </trkpt>
      <trkpt lat="46.40066" lon="5.6557">
        <ele>562.4</ele>
        <time>2023-08-30T15:46:51Z</time>
      </trkpt>
      <trkpt lat="46.40062" lon="5.65576">
        <ele>562.6</ele>
        <time>2023-08-30T15:46:52Z</time>
      </trkpt>
      <trkpt lat="46.40058" lon="5.65582">
        <ele>562.6</ele>
        <time>2023-08-30T15:46:53Z</time>
      </trkpt>
      <trkpt lat="46.40053" lon="5.65588">
        <ele>562.6</ele>
        <time>2023-08-30T15:46:54Z</time>
      </trkpt>
      <trkpt lat="46.40049" lon="5.65593">
        <ele>563.6</ele>
        <time>2023-08-30T15:46:55Z</time>
      </trkpt>
      <trkpt lat="46.40045" lon="5.65599">
        <ele>563.6</ele>
        <time>2023-08-30T15:46:56Z</time>
      </trkpt>
      <trkpt lat="46.40042" lon="5.65604">
        <ele>563.8</ele>
        <time>2023-08-30T15:46:57Z</time>
      </trkpt>
      <trkpt lat="46.40038" lon="5.6561">
        <ele>563.8</ele>
        <time>2023-08-30T15:46:58Z</time>
      </trkpt>
      <trkpt lat="46.40034" lon="5.65615">
        <ele>563.8</ele>
        <time>2023-08-30T15:46:59Z</time>
      </trkpt>
      <trkpt lat="46.4003" lon="5.6562">
        <ele>564.8</ele>
        <time>2023-08-30T15:47:00Z</time>
      </trkpt>
      <trkpt lat="46.40027" lon="5.65625">
        <ele>564.8</ele>
        <time>2023-08-30T15:47:01Z</time>
      </trkpt>
      <trkpt lat="46.40023" lon="5.6563">
        <ele>565</ele>
        <time>2023-08-30T15:47:02Z</time>
      </trkpt>
      <trkpt lat="46.40021" lon="5.65635">
        <ele>565</ele>
        <time>2023-08-30T15:47:03Z</time>
      </trkpt>
      <trkpt lat="46.40018" lon="5.6564">
        <ele>565</ele>
        <time>2023-08-30T15:47:04Z</time>
      </trkpt>
      <trkpt lat="46.40015" lon="5.65645">
        <ele>565.6</ele>
        <time>2023-08-30T15:47:05Z</time>
      </trkpt>
      <trkpt lat="46.40012" lon="5.6565">
        <ele>565.8</ele>
        <time>2023-08-30T15:47:06Z</time>
      </trkpt>
      <trkpt lat="46.40009" lon="5.65654">
        <ele>565.8</ele>
        <time>2023-08-30T15:47:07Z</time>
      </trkpt>
      <trkpt lat="46.40007" lon="5.65658">
        <ele>565.8</ele>
        <time>2023-08-30T15:47:08Z</time>
      </trkpt>
      <trkpt lat="46.40005" lon="5.65662">
        <ele>566.6</ele>
        <time>2023-08-30T15:47:09Z</time>
      </trkpt>
      <trkpt lat="46.40003" lon="5.65666">
        <ele>566.8</ele>
        <time>2023-08-30T15:47:10Z</time>
      </trkpt>
      <trkpt lat="46.40001" lon="5.6567">
        <ele>566.8</ele>
        <time>2023-08-30T15:47:11Z</time>
      </trkpt>
      <trkpt lat="46.39999" lon="5.65675">
        <ele>566.8</ele>
        <time>2023-08-30T15:47:12Z</time>
      </trkpt>
      <trkpt lat="46.39997" lon="5.6568">
        <ele>566.8</ele>
        <time>2023-08-30T15:47:13Z</time>
      </trkpt>
      <trkpt lat="46.39996" lon="5.65685">
        <ele>567.6</ele>
        <time>2023-08-30T15:47:14Z</time>
      </trkpt>
      <trkpt lat="46.39995" lon="5.65691">
        <ele>567.8</ele>
        <time>2023-08-30T15:47:15Z</time>
      </trkpt>
      <trkpt lat="46.39993" lon="5.65697">
        <ele>567.8</ele>
        <time>2023-08-30T15:47:16Z</time>
      </trkpt>
      <trkpt lat="46.39991" lon="5.65703">
        <ele>567.8</ele>
        <time>2023-08-30T15:47:17Z</time>
      </trkpt>
      <trkpt lat="46.3999" lon="5.65709">
        <ele>568</ele>
        <time>2023-08-30T15:47:18Z</time>
      </trkpt>
      <trkpt lat="46.39988" lon="5.65716">
        <ele>568.2</ele>
        <time>2023-08-30T15:47:19Z</time>
      </trkpt>
      <trkpt lat="46.39986" lon="5.65723">
        <ele>568.2</ele>
        <time>2023-08-30T15:47:20Z</time>
      </trkpt>
      <trkpt lat="46.39985" lon="5.65731">
        <ele>568.2</ele>
        <time>2023-08-30T15:47:21Z</time>
      </trkpt>
      <trkpt lat="46.39983" lon="5.65739">
        <ele>568.2</ele>
        <time>2023-08-30T15:47:22Z</time>
      </trkpt>
      <trkpt lat="46.39981" lon="5.65747">
        <ele>568.4</ele>
        <time>2023-08-30T15:47:23Z</time>
      </trkpt>
      <trkpt lat="46.39979" lon="5.65755">
        <ele>568.4</ele>
        <time>2023-08-30T15:47:24Z</time>
      </trkpt>
      <trkpt lat="46.39976" lon="5.65762">
        <ele>568.4</ele>
        <time>2023-08-30T15:47:25Z</time>
      </trkpt>
      <trkpt lat="46.39973" lon="5.65769">
        <ele>568.4</ele>
        <time>2023-08-30T15:47:26Z</time>
      </trkpt>
      <trkpt lat="46.39969" lon="5.65775">
        <ele>568.4</ele>
        <time>2023-08-30T15:47:27Z</time>
      </trkpt>
      <trkpt lat="46.39965" lon="5.65782">
        <ele>569</ele>
        <time>2023-08-30T15:47:28Z</time>
      </trkpt>
      <trkpt lat="46.3996" lon="5.65789">
        <ele>569</ele>
        <time>2023-08-30T15:47:29Z</time>
      </trkpt>
      <trkpt lat="46.39955" lon="5.65796">
        <ele>569</ele>
        <time>2023-08-30T15:47:30Z</time>
      </trkpt>
      <trkpt lat="46.3995" lon="5.65803">
        <ele>569</ele>
        <time>2023-08-30T15:47:31Z</time>
      </trkpt>
      <trkpt lat="46.39944" lon="5.65811">
        <ele>569</ele>
        <time>2023-08-30T15:47:32Z</time>
      </trkpt>
      <trkpt lat="46.39937" lon="5.65818">
        <ele>569.4</ele>
        <time>2023-08-30T15:47:33Z</time>
      </trkpt>
      <trkpt lat="46.39931" lon="5.65826">
        <ele>569.4</ele>
        <time>2023-08-30T15:47:34Z</time>
      </trkpt>
      <trkpt lat="46.39924" lon="5.65833">
        <ele>569.4</ele>
        <time>2023-08-30T15:47:35Z</time>
      </trkpt>
      <trkpt lat="46.39916" lon="5.6584">
        <ele>569.4</ele>
        <time>2023-08-30T15:47:36Z</time>
      </trkpt>
      <trkpt lat="46.39908" lon="5.65847">
        <ele>569.6</ele>
        <time>2023-08-30T15:47:37Z</time>
      </trkpt>
      <trkpt lat="46.39901" lon="5.65853">
        <ele>569.6</ele>
        <time>2023-08-30T15:47:38Z</time>
      </trkpt>
      <trkpt lat="46.39894" lon="5.6586">
        <ele>569.6</ele>
        <time>2023-08-30T15:47:39Z</time>
      </trkpt>
      <trkpt lat="46.39888" lon="5.65866">
        <ele>570.6</ele>
        <time>2023-08-30T15:47:40Z</time>
      </trkpt>
      <trkpt lat="46.39883" lon="5.65872">
        <ele>571.6</ele>
        <time>2023-08-30T15:47:41Z</time>
      </trkpt>
      <trkpt lat="46.39878" lon="5.65878">
        <ele>571.6</ele>
        <time>2023-08-30T15:47:42Z</time>
      </trkpt>
      <trkpt lat="46.39873" lon="5.65881">
        <ele>571.6</ele>
        <time>2023-08-30T15:47:43Z</time>
      </trkpt>
      <trkpt lat="46.39867" lon="5.65883">
        <ele>571.6</ele>
        <time>2023-08-30T15:47:44Z</time>
      </trkpt>
      <trkpt lat="46.39861" lon="5.65884">
        <ele>571.6</ele>
        <time>2023-08-30T15:47:45Z</time>
      </trkpt>
      <trkpt lat="46.39855" lon="5.65885">
        <ele>572.6</ele>
        <time>2023-08-30T15:47:46Z</time>
      </trkpt>
      <trkpt lat="46.39849" lon="5.65885">
        <ele>572.6</ele>
        <time>2023-08-30T15:47:47Z</time>
      </trkpt>
      <trkpt lat="46.39844" lon="5.65884">
        <ele>572.6</ele>
        <time>2023-08-30T15:47:48Z</time>
      </trkpt>
      <trkpt lat="46.39839" lon="5.65881">
        <ele>572.6</ele>
        <time>2023-08-30T15:47:49Z</time>
      </trkpt>
      <trkpt lat="46.39835" lon="5.65879">
        <ele>573.6</ele>
        <time>2023-08-30T15:47:50Z</time>
      </trkpt>
      <trkpt lat="46.39832" lon="5.65876">
        <ele>574</ele>
        <time>2023-08-30T15:47:51Z</time>
      </trkpt>
      <trkpt lat="46.39828" lon="5.65874">
        <ele>574</ele>
        <time>2023-08-30T15:47:52Z</time>
      </trkpt>
      <trkpt lat="46.39825" lon="5.65872">
        <ele>574</ele>
        <time>2023-08-30T15:47:53Z</time>
      </trkpt>
      <trkpt lat="46.39822" lon="5.6587">
        <ele>575</ele>
        <time>2023-08-30T15:47:54Z</time>
      </trkpt>
      <trkpt lat="46.39819" lon="5.65868">
        <ele>575.2</ele>
        <time>2023-08-30T15:47:55Z</time>
      </trkpt>
      <trkpt lat="46.39816" lon="5.65865">
        <ele>575.2</ele>
        <time>2023-08-30T15:47:56Z</time>
      </trkpt>
      <trkpt lat="46.39813" lon="5.65863">
        <ele>575.2</ele>
        <time>2023-08-30T15:47:57Z</time>
      </trkpt>
      <trkpt lat="46.3981" lon="5.6586">
        <ele>576</ele>
        <time>2023-08-30T15:47:58Z</time>
      </trkpt>
      <trkpt lat="46.39807" lon="5.65856">
        <ele>576</ele>
        <time>2023-08-30T15:47:59Z</time>
      </trkpt>
      <trkpt lat="46.39804" lon="5.65852">
        <ele>576.2</ele>
        <time>2023-08-30T15:48:00Z</time>
      </trkpt>
      <trkpt lat="46.398" lon="5.65848">
        <ele>576.2</ele>
        <time>2023-08-30T15:48:01Z</time>
      </trkpt>
      <trkpt lat="46.39798" lon="5.65845">
        <ele>576.2</ele>
        <time>2023-08-30T15:48:02Z</time>
      </trkpt>
      <trkpt lat="46.39795" lon="5.65841">
        <ele>576.8</ele>
        <time>2023-08-30T15:48:03Z</time>
      </trkpt>
      <trkpt lat="46.39793" lon="5.65838">
        <ele>577.2</ele>
        <time>2023-08-30T15:48:04Z</time>
      </trkpt>
      <trkpt lat="46.39792" lon="5.65835">
        <ele>577.2</ele>
        <time>2023-08-30T15:48:05Z</time>
      </trkpt>
      <trkpt lat="46.3979" lon="5.65832">
        <ele>577.2</ele>
        <time>2023-08-30T15:48:06Z</time>
      </trkpt>
      <trkpt lat="46.39789" lon="5.65829">
        <ele>577.2</ele>
        <time>2023-08-30T15:48:07Z</time>
      </trkpt>
      <trkpt lat="46.39787" lon="5.65826">
        <ele>577.6</ele>
        <time>2023-08-30T15:48:08Z</time>
      </trkpt>
      <trkpt lat="46.39785" lon="5.65822">
        <ele>577.4</ele>
        <time>2023-08-30T15:48:09Z</time>
      </trkpt>
      <trkpt lat="46.39784" lon="5.65818">
        <ele>577.4</ele>
        <time>2023-08-30T15:48:10Z</time>
      </trkpt>
      <trkpt lat="46.39783" lon="5.65814">
        <ele>577.4</ele>
        <time>2023-08-30T15:48:11Z</time>
      </trkpt>
      <trkpt lat="46.39781" lon="5.65809">
        <ele>577.6</ele>
        <time>2023-08-30T15:48:12Z</time>
      </trkpt>
      <trkpt lat="46.3978" lon="5.65804">
        <ele>577.8</ele>
        <time>2023-08-30T15:48:13Z</time>
      </trkpt>
      <trkpt lat="46.39779" lon="5.65798">
        <ele>577.8</ele>
        <time>2023-08-30T15:48:14Z</time>
      </trkpt>
      <trkpt lat="46.39778" lon="5.65793">
        <ele>577.8</ele>
        <time>2023-08-30T15:48:15Z</time>
      </trkpt>
      <trkpt lat="46.39777" lon="5.65787">
        <ele>577.8</ele>
        <time>2023-08-30T15:48:16Z</time>
      </trkpt>
      <trkpt lat="46.39775" lon="5.6578">
        <ele>578</ele>
        <time>2023-08-30T15:48:17Z</time>
      </trkpt>
      <trkpt lat="46.39772" lon="5.65773">
        <ele>578</ele>
        <time>2023-08-30T15:48:18Z</time>
      </trkpt>
      <trkpt lat="46.3977" lon="5.65767">
        <ele>578</ele>
        <time>2023-08-30T15:48:19Z</time>
      </trkpt>
      <trkpt lat="46.39768" lon="5.65761">
        <ele>578</ele>
        <time>2023-08-30T15:48:20Z</time>
      </trkpt>
      <trkpt lat="46.39766" lon="5.65755">
        <ele>578</ele>
        <time>2023-08-30T15:48:21Z</time>
      </trkpt>
      <trkpt lat="46.39764" lon="5.65749">
        <ele>578.6</ele>
        <time>2023-08-30T15:48:22Z</time>
      </trkpt>
      <trkpt lat="46.39762" lon="5.65743">
        <ele>578.6</ele>
        <time>2023-08-30T15:48:23Z</time>
      </trkpt>
      <trkpt lat="46.39761" lon="5.65737">
        <ele>578.6</ele>
        <time>2023-08-30T15:48:24Z</time>
      </trkpt>
      <trkpt lat="46.39759" lon="5.6573">
        <ele>578.6</ele>
        <time>2023-08-30T15:48:25Z</time>
      </trkpt>
      <trkpt lat="46.39757" lon="5.65724">
        <ele>579.2</ele>
        <time>2023-08-30T15:48:26Z</time>
      </trkpt>
      <trkpt lat="46.39756" lon="5.65718">
        <ele>579.2</ele>
        <time>2023-08-30T15:48:27Z</time>
      </trkpt>
      <trkpt lat="46.39754" lon="5.65711">
        <ele>579.2</ele>
        <time>2023-08-30T15:48:28Z</time>
      </trkpt>
      <trkpt lat="46.39752" lon="5.65705">
        <ele>579.2</ele>
        <time>2023-08-30T15:48:29Z</time>
      </trkpt>
      <trkpt lat="46.39751" lon="5.65699">
        <ele>579.2</ele>
        <time>2023-08-30T15:48:30Z</time>
      </trkpt>
      <trkpt lat="46.39749" lon="5.65693">
        <ele>579.2</ele>
        <time>2023-08-30T15:48:31Z</time>
      </trkpt>
      <trkpt lat="46.39748" lon="5.65686">
        <ele>579.6</ele>
        <time>2023-08-30T15:48:32Z</time>
      </trkpt>
      <trkpt lat="46.39747" lon="5.65679">
        <ele>579.6</ele>
        <time>2023-08-30T15:48:33Z</time>
      </trkpt>
      <trkpt lat="46.39745" lon="5.65672">
        <ele>579.6</ele>
        <time>2023-08-30T15:48:34Z</time>
      </trkpt>
      <trkpt lat="46.39744" lon="5.65665">
        <ele>580.2</ele>
        <time>2023-08-30T15:48:35Z</time>
      </trkpt>
      <trkpt lat="46.39742" lon="5.65658">
        <ele>580.2</ele>
        <time>2023-08-30T15:48:36Z</time>
      </trkpt>
      <trkpt lat="46.39741" lon="5.65651">
        <ele>580.2</ele>
        <time>2023-08-30T15:48:37Z</time>
      </trkpt>
      <trkpt lat="46.39739" lon="5.65644">
        <ele>580.2</ele>
        <time>2023-08-30T15:48:38Z</time>
      </trkpt>
      <trkpt lat="46.39738" lon="5.65638">
        <ele>580.2</ele>
        <time>2023-08-30T15:48:39Z</time>
      </trkpt>
      <trkpt lat="46.39736" lon="5.65632">
        <ele>581.2</ele>
        <time>2023-08-30T15:48:40Z</time>
      </trkpt>
      <trkpt lat="46.39735" lon="5.65626">
        <ele>581.2</ele>
        <time>2023-08-30T15:48:41Z</time>
      </trkpt>
      <trkpt lat="46.39733" lon="5.6562">
        <ele>581.2</ele>
        <time>2023-08-30T15:48:42Z</time>
      </trkpt>
      <trkpt lat="46.39731" lon="5.65614">
        <ele>581.2</ele>
        <time>2023-08-30T15:48:43Z</time>
      </trkpt>
      <trkpt lat="46.39729" lon="5.65609">
        <ele>582</ele>
        <time>2023-08-30T15:48:44Z</time>
      </trkpt>
      <trkpt lat="46.39728" lon="5.65604">
        <ele>582.2</ele>
        <time>2023-08-30T15:48:45Z</time>
      </trkpt>
      <trkpt lat="46.39727" lon="5.65598">
        <ele>582.2</ele>
        <time>2023-08-30T15:48:46Z</time>
      </trkpt>
      <trkpt lat="46.39725" lon="5.65593">
        <ele>582.2</ele>
        <time>2023-08-30T15:48:47Z</time>
      </trkpt>
      <trkpt lat="46.39724" lon="5.65588">
        <ele>582.2</ele>
        <time>2023-08-30T15:48:48Z</time>
      </trkpt>
      <trkpt lat="46.39722" lon="5.65583">
        <ele>582.8</ele>
        <time>2023-08-30T15:48:49Z</time>
      </trkpt>
      <trkpt lat="46.39721" lon="5.65578">
        <ele>583.2</ele>
        <time>2023-08-30T15:48:50Z</time>
      </trkpt>
      <trkpt lat="46.39719" lon="5.65573">
        <ele>583.2</ele>
        <time>2023-08-30T15:48:51Z</time>
      </trkpt>
      <trkpt lat="46.39718" lon="5.65568">
        <ele>583.2</ele>
        <time>2023-08-30T15:48:52Z</time>
      </trkpt>
      <trkpt lat="46.39717" lon="5.65564">
        <ele>583.2</ele>
        <time>2023-08-30T15:48:53Z</time>
      </trkpt>
      <trkpt lat="46.39716" lon="5.65559">
        <ele>584</ele>
        <time>2023-08-30T15:48:54Z</time>
      </trkpt>
      <trkpt lat="46.39715" lon="5.65556">
        <ele>584</ele>
        <time>2023-08-30T15:48:55Z</time>
      </trkpt>
      <trkpt lat="46.39714" lon="5.65552">
        <ele>584</ele>
        <time>2023-08-30T15:48:56Z</time>
      </trkpt>
      <trkpt lat="46.39713" lon="5.65549">
        <ele>584</ele>
        <time>2023-08-30T15:48:57Z</time>
      </trkpt>
      <trkpt lat="46.39712" lon="5.65545">
        <ele>584.6</ele>
        <time>2023-08-30T15:48:58Z</time>
      </trkpt>
      <trkpt lat="46.39711" lon="5.65542">
        <ele>584.6</ele>
        <time>2023-08-30T15:48:59Z</time>
      </trkpt>
      <trkpt lat="46.3971" lon="5.65538">
        <ele>584.6</ele>
        <time>2023-08-30T15:49:00Z</time>
      </trkpt>
      <trkpt lat="46.39709" lon="5.65535">
        <ele>584.6</ele>
        <time>2023-08-30T15:49:01Z</time>
      </trkpt>
      <trkpt lat="46.39709" lon="5.65531">
        <ele>585</ele>
        <time>2023-08-30T15:49:02Z</time>
      </trkpt>
      <trkpt lat="46.39709" lon="5.65528">
        <ele>585.2</ele>
        <time>2023-08-30T15:49:03Z</time>
      </trkpt>
      <trkpt lat="46.39708" lon="5.65524">
        <ele>585.2</ele>
        <time>2023-08-30T15:49:04Z</time>
      </trkpt>
      <trkpt lat="46.39707" lon="5.65521">
        <ele>585.2</ele>
        <time>2023-08-30T15:49:05Z</time>
      </trkpt>
      <trkpt lat="46.39707" lon="5.65518">
        <ele>585.2</ele>
        <time>2023-08-30T15:49:06Z</time>
      </trkpt>
      <trkpt lat="46.39707" lon="5.65515">
        <ele>585.8</ele>
        <time>2023-08-30T15:49:07Z</time>
      </trkpt>
      <trkpt lat="46.39706" lon="5.65513">
        <ele>585.8</ele>
        <time>2023-08-30T15:49:08Z</time>
      </trkpt>
      <trkpt lat="46.39705" lon="5.65511">
        <ele>585.8</ele>
        <time>2023-08-30T15:49:09Z</time>
      </trkpt>
      <trkpt lat="46.39704" lon="5.65511">
        <ele>585.8</ele>
        <time>2023-08-30T15:49:10Z</time>
      </trkpt>
      <trkpt lat="46.39703" lon="5.65512">
        <ele>585.8</ele>
        <time>2023-08-30T15:49:11Z</time>
      </trkpt>
      <trkpt lat="46.39702" lon="5.65514">
        <ele>585.8</ele>
        <time>2023-08-30T15:49:12Z</time>
      </trkpt>
      <trkpt lat="46.39702" lon="5.65516">
        <ele>586</ele>
        <time>2023-08-30T15:49:13Z</time>
      </trkpt>
      <trkpt lat="46.39703" lon="5.65519">
        <ele>586</ele>
        <time>2023-08-30T15:49:14Z</time>
      </trkpt>
      <trkpt lat="46.39704" lon="5.65522">
        <ele>586</ele>
        <time>2023-08-30T15:49:15Z</time>
      </trkpt>
      <trkpt lat="46.39705" lon="5.65526">
        <ele>586.2</ele>
        <time>2023-08-30T15:49:16Z</time>
      </trkpt>
      <trkpt lat="46.39706" lon="5.6553">
        <ele>586.4</ele>
        <time>2023-08-30T15:49:17Z</time>
      </trkpt>
      <trkpt lat="46.39707" lon="5.65536">
        <ele>586.4</ele>
        <time>2023-08-30T15:49:18Z</time>
      </trkpt>
      <trkpt lat="46.39709" lon="5.65541">
        <ele>586.4</ele>
        <time>2023-08-30T15:49:19Z</time>
      </trkpt>
      <trkpt lat="46.3971" lon="5.65548">
        <ele>586.6</ele>
        <time>2023-08-30T15:49:20Z</time>
      </trkpt>
      <trkpt lat="46.39712" lon="5.65554">
        <ele>586.4</ele>
        <time>2023-08-30T15:49:21Z</time>
      </trkpt>
      <trkpt lat="46.39714" lon="5.65561">
        <ele>586.4</ele>
        <time>2023-08-30T15:49:22Z</time>
      </trkpt>
      <trkpt lat="46.39715" lon="5.65569">
        <ele>586.4</ele>
        <time>2023-08-30T15:49:23Z</time>
      </trkpt>
      <trkpt lat="46.39717" lon="5.65576">
        <ele>586.4</ele>
        <time>2023-08-30T15:49:24Z</time>
      </trkpt>
      <trkpt lat="46.39719" lon="5.65584">
        <ele>586.8</ele>
        <time>2023-08-30T15:49:25Z</time>
      </trkpt>
      <trkpt lat="46.39721" lon="5.65591">
        <ele>586.8</ele>
        <time>2023-08-30T15:49:26Z</time>
      </trkpt>
      <trkpt lat="46.39723" lon="5.65599">
        <ele>587.2</ele>
        <time>2023-08-30T15:49:27Z</time>
      </trkpt>
      <trkpt lat="46.39725" lon="5.65607">
        <ele>587.2</ele>
        <time>2023-08-30T15:49:28Z</time>
      </trkpt>
      <trkpt lat="46.39727" lon="5.65614">
        <ele>587.2</ele>
        <time>2023-08-30T15:49:29Z</time>
      </trkpt>
      <trkpt lat="46.39729" lon="5.65621">
        <ele>587.4</ele>
        <time>2023-08-30T15:49:30Z</time>
      </trkpt>
      <trkpt lat="46.39731" lon="5.65629">
        <ele>587.4</ele>
        <time>2023-08-30T15:49:31Z</time>
      </trkpt>
      <trkpt lat="46.39733" lon="5.65636">
        <ele>587.4</ele>
        <time>2023-08-30T15:49:32Z</time>
      </trkpt>
      <trkpt lat="46.39736" lon="5.65643">
        <ele>587.4</ele>
        <time>2023-08-30T15:49:33Z</time>
      </trkpt>
      <trkpt lat="46.39738" lon="5.6565">
        <ele>588.2</ele>
        <time>2023-08-30T15:49:34Z</time>
      </trkpt>
      <trkpt lat="46.39739" lon="5.65657">
        <ele>588</ele>
        <time>2023-08-30T15:49:35Z</time>
      </trkpt>
      <trkpt lat="46.39741" lon="5.65664">
        <ele>588</ele>
        <time>2023-08-30T15:49:36Z</time>
      </trkpt>
      <trkpt lat="46.39742" lon="5.6567">
        <ele>588</ele>
        <time>2023-08-30T15:49:37Z</time>
      </trkpt>
      <trkpt lat="46.39744" lon="5.65676">
        <ele>588.6</ele>
        <time>2023-08-30T15:49:38Z</time>
      </trkpt>
      <trkpt lat="46.39746" lon="5.65682">
        <ele>588.8</ele>
        <time>2023-08-30T15:49:39Z</time>
      </trkpt>
      <trkpt lat="46.39747" lon="5.65688">
        <ele>588.8</ele>
        <time>2023-08-30T15:49:40Z</time>
      </trkpt>
      <trkpt lat="46.39749" lon="5.65693">
        <ele>588.8</ele>
        <time>2023-08-30T15:49:41Z</time>
      </trkpt>
      <trkpt lat="46.3975" lon="5.65699">
        <ele>588.8</ele>
        <time>2023-08-30T15:49:42Z</time>
      </trkpt>
      <trkpt lat="46.39751" lon="5.65704">
        <ele>589.6</ele>
        <time>2023-08-30T15:49:43Z</time>
      </trkpt>
      <trkpt lat="46.39752" lon="5.65709">
        <ele>589.6</ele>
        <time>2023-08-30T15:49:44Z</time>
      </trkpt>
      <trkpt lat="46.39753" lon="5.65714">
        <ele>589.6</ele>
        <time>2023-08-30T15:49:45Z</time>
      </trkpt>
      <trkpt lat="46.39754" lon="5.65718">
        <ele>589.6</ele>
        <time>2023-08-30T15:49:46Z</time>
      </trkpt>
      <trkpt lat="46.39755" lon="5.65723">
        <ele>589.8</ele>
        <time>2023-08-30T15:49:47Z</time>
      </trkpt>
      <trkpt lat="46.39756" lon="5.65728">
        <ele>589.8</ele>
        <time>2023-08-30T15:49:48Z</time>
      </trkpt>
      <trkpt lat="46.39757" lon="5.65732">
        <ele>589.8</ele>
        <time>2023-08-30T15:49:49Z</time>
      </trkpt>
      <trkpt lat="46.39758" lon="5.65736">
        <ele>590</ele>
        <time>2023-08-30T15:49:50Z</time>
      </trkpt>
      <trkpt lat="46.39759" lon="5.65741">
        <ele>590</ele>
        <time>2023-08-30T15:49:51Z</time>
      </trkpt>
      <trkpt lat="46.3976" lon="5.65745">
        <ele>590.6</ele>
        <time>2023-08-30T15:49:52Z</time>
      </trkpt>
      <trkpt lat="46.39761" lon="5.65748">
        <ele>590.6</ele>
        <time>2023-08-30T15:49:53Z</time>
      </trkpt>
      <trkpt lat="46.39762" lon="5.65752">
        <ele>590.6</ele>
        <time>2023-08-30T15:49:54Z</time>
      </trkpt>
      <trkpt lat="46.39763" lon="5.65757">
        <ele>590.6</ele>
        <time>2023-08-30T15:49:55Z</time>
      </trkpt>
      <trkpt lat="46.39764" lon="5.65761">
        <ele>590.6</ele>
        <time>2023-08-30T15:49:56Z</time>
      </trkpt>
      <trkpt lat="46.39766" lon="5.65765">
        <ele>590.6</ele>
        <time>2023-08-30T15:49:57Z</time>
      </trkpt>
      <trkpt lat="46.39767" lon="5.65769">
        <ele>590.6</ele>
        <time>2023-08-30T15:49:58Z</time>
      </trkpt>
      <trkpt lat="46.39768" lon="5.65774">
        <ele>590.8</ele>
        <time>2023-08-30T15:49:59Z</time>
      </trkpt>
      <trkpt lat="46.39769" lon="5.65778">
        <ele>590.8</ele>
        <time>2023-08-30T15:50:00Z</time>
      </trkpt>
      <trkpt lat="46.39771" lon="5.65783">
        <ele>590.8</ele>
        <time>2023-08-30T15:50:01Z</time>
      </trkpt>
      <trkpt lat="46.39772" lon="5.65787">
        <ele>591</ele>
        <time>2023-08-30T15:50:02Z</time>
      </trkpt>
      <trkpt lat="46.39774" lon="5.65792">
        <ele>591</ele>
        <time>2023-08-30T15:50:03Z</time>
      </trkpt>
      <trkpt lat="46.39775" lon="5.65796">
        <ele>591</ele>
        <time>2023-08-30T15:50:04Z</time>
      </trkpt>
      <trkpt lat="46.39777" lon="5.658">
        <ele>591</ele>
        <time>2023-08-30T15:50:05Z</time>
      </trkpt>
      <trkpt lat="46.39778" lon="5.65805">
        <ele>591</ele>
        <time>2023-08-30T15:50:06Z</time>
      </trkpt>
      <trkpt lat="46.39779" lon="5.6581">
        <ele>591</ele>
        <time>2023-08-30T15:50:07Z</time>
      </trkpt>
      <trkpt lat="46.3978" lon="5.65814">
        <ele>591</ele>
        <time>2023-08-30T15:50:08Z</time>
      </trkpt>
      <trkpt lat="46.39782" lon="5.65819">
        <ele>591</ele>
        <time>2023-08-30T15:50:09Z</time>
      </trkpt>
      <trkpt lat="46.39783" lon="5.65822">
        <ele>591</ele>
        <time>2023-08-30T15:50:10Z</time>
      </trkpt>
      <trkpt lat="46.39785" lon="5.65826">
        <ele>590.8</ele>
        <time>2023-08-30T15:50:11Z</time>
      </trkpt>
      <trkpt lat="46.39787" lon="5.65829">
        <ele>590.8</ele>
        <time>2023-08-30T15:50:12Z</time>
      </trkpt>
      <trkpt lat="46.39788" lon="5.65832">
        <ele>590.8</ele>
        <time>2023-08-30T15:50:13Z</time>
      </trkpt>
      <trkpt lat="46.3979" lon="5.65835">
        <ele>590.4</ele>
        <time>2023-08-30T15:50:14Z</time>
      </trkpt>
      <trkpt lat="46.39792" lon="5.65838">
        <ele>590.4</ele>
        <time>2023-08-30T15:50:15Z</time>
      </trkpt>
      <trkpt lat="46.39794" lon="5.65841">
        <ele>590.4</ele>
        <time>2023-08-30T15:50:16Z</time>
      </trkpt>
      <trkpt lat="46.39796" lon="5.65844">
        <ele>590.4</ele>
        <time>2023-08-30T15:50:17Z</time>
      </trkpt>
      <trkpt lat="46.39798" lon="5.65846">
        <ele>590.4</ele>
        <time>2023-08-30T15:50:18Z</time>
      </trkpt>
      <trkpt lat="46.398" lon="5.65849">
        <ele>589.8</ele>
        <time>2023-08-30T15:50:19Z</time>
      </trkpt>
      <trkpt lat="46.39802" lon="5.65852">
        <ele>589.6</ele>
        <time>2023-08-30T15:50:20Z</time>
      </trkpt>
      <trkpt lat="46.39804" lon="5.65854">
        <ele>589.6</ele>
        <time>2023-08-30T15:50:21Z</time>
      </trkpt>
      <trkpt lat="46.39806" lon="5.65857">
        <ele>589.6</ele>
        <time>2023-08-30T15:50:22Z</time>
      </trkpt>
      <trkpt lat="46.39808" lon="5.65859">
        <ele>589.6</ele>
        <time>2023-08-30T15:50:23Z</time>
      </trkpt>
      <trkpt lat="46.3981" lon="5.6586">
        <ele>589.6</ele>
        <time>2023-08-30T15:50:24Z</time>
      </trkpt>
      <trkpt lat="46.39812" lon="5.65862">
        <ele>588.8</ele>
        <time>2023-08-30T15:50:25Z</time>
      </trkpt>
      <trkpt lat="46.39814" lon="5.65864">
        <ele>588.8</ele>
        <time>2023-08-30T15:50:26Z</time>
      </trkpt>
      <trkpt lat="46.39816" lon="5.65866">
        <ele>588.8</ele>
        <time>2023-08-30T15:50:27Z</time>
      </trkpt>
      <trkpt lat="46.39819" lon="5.65867">
        <ele>588.4</ele>
        <time>2023-08-30T15:50:28Z</time>
      </trkpt>
      <trkpt lat="46.39821" lon="5.65869">
        <ele>588.2</ele>
        <time>2023-08-30T15:50:29Z</time>
      </trkpt>
      <trkpt lat="46.39823" lon="5.65871">
        <ele>588.2</ele>
        <time>2023-08-30T15:50:30Z</time>
      </trkpt>
      <trkpt lat="46.39825" lon="5.65873">
        <ele>588.2</ele>
        <time>2023-08-30T15:50:31Z</time>
      </trkpt>
      <trkpt lat="46.39828" lon="5.65875">
        <ele>588</ele>
        <time>2023-08-30T15:50:32Z</time>
      </trkpt>
      <trkpt lat="46.3983" lon="5.65877">
        <ele>588</ele>
        <time>2023-08-30T15:50:33Z</time>
      </trkpt>
      <trkpt lat="46.39833" lon="5.65878">
        <ele>588</ele>
        <time>2023-08-30T15:50:34Z</time>
      </trkpt>
      <trkpt lat="46.39836" lon="5.6588">
        <ele>588</ele>
        <time>2023-08-30T15:50:35Z</time>
      </trkpt>
      <trkpt lat="46.39839" lon="5.65882">
        <ele>587.8</ele>
        <time>2023-08-30T15:50:36Z</time>
      </trkpt>
      <trkpt lat="46.39842" lon="5.65884">
        <ele>587.8</ele>
        <time>2023-08-30T15:50:37Z</time>
      </trkpt>
      <trkpt lat="46.39846" lon="5.65886">
        <ele>587.8</ele>
        <time>2023-08-30T15:50:38Z</time>
      </trkpt>
      <trkpt lat="46.3985" lon="5.65888">
        <ele>587.8</ele>
        <time>2023-08-30T15:50:39Z</time>
      </trkpt>
      <trkpt lat="46.39854" lon="5.65889">
        <ele>587.8</ele>
        <time>2023-08-30T15:50:40Z</time>
      </trkpt>
      <trkpt lat="46.39858" lon="5.65891">
        <ele>587.8</ele>
        <time>2023-08-30T15:50:41Z</time>
      </trkpt>
      <trkpt lat="46.39861" lon="5.65895">
        <ele>587.8</ele>
        <time>2023-08-30T15:50:42Z</time>
      </trkpt>
      <trkpt lat="46.39863" lon="5.659">
        <ele>587.6</ele>
        <time>2023-08-30T15:50:43Z</time>
      </trkpt>
      <trkpt lat="46.39865" lon="5.65906">
        <ele>587.6</ele>
        <time>2023-08-30T15:50:44Z</time>
      </trkpt>
      <trkpt lat="46.39866" lon="5.65912">
        <ele>587.6</ele>
        <time>2023-08-30T15:50:45Z</time>
      </trkpt>
      <trkpt lat="46.39866" lon="5.6592">
        <ele>587</ele>
        <time>2023-08-30T15:50:46Z</time>
      </trkpt>
      <trkpt lat="46.39866" lon="5.65927">
        <ele>587</ele>
        <time>2023-08-30T15:50:47Z</time>
      </trkpt>
      <trkpt lat="46.39866" lon="5.65935">
        <ele>587</ele>
        <time>2023-08-30T15:50:48Z</time>
      </trkpt>
      <trkpt lat="46.39865" lon="5.65943">
        <ele>587</ele>
        <time>2023-08-30T15:50:49Z</time>
      </trkpt>
      <trkpt lat="46.39864" lon="5.65951">
        <ele>586.6</ele>
        <time>2023-08-30T15:50:50Z</time>
      </trkpt>
      <trkpt lat="46.39863" lon="5.6596">
        <ele>586.6</ele>
        <time>2023-08-30T15:50:51Z</time>
      </trkpt>
      <trkpt lat="46.39862" lon="5.65968">
        <ele>586.6</ele>
        <time>2023-08-30T15:50:52Z</time>
      </trkpt>
      <trkpt lat="46.39861" lon="5.65977">
        <ele>586.6</ele>
        <time>2023-08-30T15:50:53Z</time>
      </trkpt>
      <trkpt lat="46.3986" lon="5.65986">
        <ele>586.6</ele>
        <time>2023-08-30T15:50:54Z</time>
      </trkpt>
      <trkpt lat="46.39859" lon="5.65996">
        <ele>586.4</ele>
        <time>2023-08-30T15:50:55Z</time>
      </trkpt>
      <trkpt lat="46.39858" lon="5.66005">
        <ele>586.2</ele>
        <time>2023-08-30T15:50:56Z</time>
      </trkpt>
      <trkpt lat="46.39858" lon="5.66015">
        <ele>586.2</ele>
        <time>2023-08-30T15:50:57Z</time>
      </trkpt>
      <trkpt lat="46.39857" lon="5.66025">
        <ele>586.2</ele>
        <time>2023-08-30T15:50:58Z</time>
      </trkpt>
      <trkpt lat="46.39856" lon="5.66035">
        <ele>586.2</ele>
        <time>2023-08-30T15:50:59Z</time>
      </trkpt>
      <trkpt lat="46.39855" lon="5.66046">
        <ele>586.2</ele>
        <time>2023-08-30T15:51:00Z</time>
      </trkpt>
      <trkpt lat="46.39855" lon="5.66056">
        <ele>586.2</ele>
        <time>2023-08-30T15:51:01Z</time>
      </trkpt>
      <trkpt lat="46.39854" lon="5.66065">
        <ele>586.2</ele>
        <time>2023-08-30T15:51:02Z</time>
      </trkpt>
      <trkpt lat="46.39854" lon="5.66074">
        <ele>586.2</ele>
        <time>2023-08-30T15:51:03Z</time>
      </trkpt>
      <trkpt lat="46.39854" lon="5.66083">
        <ele>586.2</ele>
        <time>2023-08-30T15:51:04Z</time>
      </trkpt>
      <trkpt lat="46.39854" lon="5.66091">
        <ele>586.6</ele>
        <time>2023-08-30T15:51:05Z</time>
      </trkpt>
      <trkpt lat="46.39855" lon="5.66098">
        <ele>586.6</ele>
        <time>2023-08-30T15:51:06Z</time>
      </trkpt>
      <trkpt lat="46.39855" lon="5.66105">
        <ele>586.6</ele>
        <time>2023-08-30T15:51:07Z</time>
      </trkpt>
      <trkpt lat="46.39855" lon="5.66111">
        <ele>586.6</ele>
        <time>2023-08-30T15:51:08Z</time>
      </trkpt>
      <trkpt lat="46.39856" lon="5.66117">
        <ele>586.6</ele>
        <time>2023-08-30T15:51:09Z</time>
      </trkpt>
      <trkpt lat="46.39856" lon="5.66122">
        <ele>587</ele>
        <time>2023-08-30T15:51:10Z</time>
      </trkpt>
      <trkpt lat="46.39857" lon="5.66127">
        <ele>587</ele>
        <time>2023-08-30T15:51:11Z</time>
      </trkpt>
      <trkpt lat="46.39858" lon="5.66132">
        <ele>587</ele>
        <time>2023-08-30T15:51:12Z</time>
      </trkpt>
      <trkpt lat="46.39859" lon="5.66136">
        <ele>587.4</ele>
        <time>2023-08-30T15:51:13Z</time>
      </trkpt>
      <trkpt lat="46.3986" lon="5.66141">
        <ele>587.4</ele>
        <time>2023-08-30T15:51:14Z</time>
      </trkpt>
      <trkpt lat="46.39861" lon="5.66145">
        <ele>587.4</ele>
        <time>2023-08-30T15:51:15Z</time>
      </trkpt>
      <trkpt lat="46.39862" lon="5.6615">
        <ele>587.4</ele>
        <time>2023-08-30T15:51:16Z</time>
      </trkpt>
      <trkpt lat="46.39863" lon="5.66154">
        <ele>587.4</ele>
        <time>2023-08-30T15:51:17Z</time>
      </trkpt>
      <trkpt lat="46.39864" lon="5.66158">
        <ele>587.4</ele>
        <time>2023-08-30T15:51:18Z</time>
      </trkpt>
      <trkpt lat="46.39866" lon="5.66162">
        <ele>587.6</ele>
        <time>2023-08-30T15:51:19Z</time>
      </trkpt>
      <trkpt lat="46.39867" lon="5.66166">
        <ele>587.6</ele>
        <time>2023-08-30T15:51:20Z</time>
      </trkpt>
      <trkpt lat="46.39868" lon="5.6617">
        <ele>587.6</ele>
        <time>2023-08-30T15:51:21Z</time>
      </trkpt>
      <trkpt lat="46.3987" lon="5.66174">
        <ele>587.6</ele>
        <time>2023-08-30T15:51:22Z</time>
      </trkpt>
      <trkpt lat="46.39872" lon="5.66177">
        <ele>587.6</ele>
        <time>2023-08-30T15:51:23Z</time>
      </trkpt>
      <trkpt lat="46.39873" lon="5.66181">
        <ele>587.6</ele>
        <time>2023-08-30T15:51:24Z</time>
      </trkpt>
      <trkpt lat="46.39874" lon="5.66184">
        <ele>587.6</ele>
        <time>2023-08-30T15:51:25Z</time>
      </trkpt>
      <trkpt lat="46.39876" lon="5.66187">
        <ele>587.2</ele>
        <time>2023-08-30T15:51:26Z</time>
      </trkpt>
      <trkpt lat="46.39877" lon="5.66191">
        <ele>587</ele>
        <time>2023-08-30T15:51:27Z</time>
      </trkpt>
      <trkpt lat="46.39879" lon="5.66194">
        <ele>587</ele>
        <time>2023-08-30T15:51:28Z</time>
      </trkpt>
      <trkpt lat="46.39881" lon="5.66197">
        <ele>587</ele>
        <time>2023-08-30T15:51:29Z</time>
      </trkpt>
      <trkpt lat="46.39882" lon="5.66201">
        <ele>587</ele>
        <time>2023-08-30T15:51:30Z</time>
      </trkpt>
      <trkpt lat="46.39884" lon="5.66204">
        <ele>586.6</ele>
        <time>2023-08-30T15:51:31Z</time>
      </trkpt>
      <trkpt lat="46.39886" lon="5.66207">
        <ele>586.4</ele>
        <time>2023-08-30T15:51:32Z</time>
      </trkpt>
      <trkpt lat="46.39887" lon="5.6621">
        <ele>586.4</ele>
        <time>2023-08-30T15:51:33Z</time>
      </trkpt>
      <trkpt lat="46.39889" lon="5.66213">
        <ele>586.4</ele>
        <time>2023-08-30T15:51:34Z</time>
      </trkpt>
      <trkpt lat="46.39891" lon="5.66216">
        <ele>586</ele>
        <time>2023-08-30T15:51:35Z</time>
      </trkpt>
      <trkpt lat="46.39892" lon="5.66219">
        <ele>586</ele>
        <time>2023-08-30T15:51:36Z</time>
      </trkpt>
      <trkpt lat="46.39894" lon="5.66222">
        <ele>585.8</ele>
        <time>2023-08-30T15:51:37Z</time>
      </trkpt>
      <trkpt lat="46.39895" lon="5.66225">
        <ele>585.8</ele>
        <time>2023-08-30T15:51:38Z</time>
      </trkpt>
      <trkpt lat="46.39897" lon="5.66229">
        <ele>585.8</ele>
        <time>2023-08-30T15:51:39Z</time>
      </trkpt>
      <trkpt lat="46.39899" lon="5.66232">
        <ele>585.2</ele>
        <time>2023-08-30T15:51:40Z</time>
      </trkpt>
      <trkpt lat="46.399" lon="5.66235">
        <ele>585</ele>
        <time>2023-08-30T15:51:41Z</time>
      </trkpt>
      <trkpt lat="46.39902" lon="5.66238">
        <ele>585</ele>
        <time>2023-08-30T15:51:42Z</time>
      </trkpt>
      <trkpt lat="46.39903" lon="5.66242">
        <ele>585</ele>
        <time>2023-08-30T15:51:43Z</time>
      </trkpt>
      <trkpt lat="46.39905" lon="5.66246">
        <ele>585</ele>
        <time>2023-08-30T15:51:44Z</time>
      </trkpt>
      <trkpt lat="46.39906" lon="5.66249">
        <ele>585</ele>
        <time>2023-08-30T15:51:45Z</time>
      </trkpt>
      <trkpt lat="46.39908" lon="5.66252">
        <ele>584.2</ele>
        <time>2023-08-30T15:51:46Z</time>
      </trkpt>
      <trkpt lat="46.3991" lon="5.66256">
        <ele>584.2</ele>
        <time>2023-08-30T15:51:47Z</time>
      </trkpt>
      <trkpt lat="46.39911" lon="5.66259">
        <ele>584.2</ele>
        <time>2023-08-30T15:51:48Z</time>
      </trkpt>
      <trkpt lat="46.39913" lon="5.66263">
        <ele>583.8</ele>
        <time>2023-08-30T15:51:49Z</time>
      </trkpt>
      <trkpt lat="46.39914" lon="5.66266">
        <ele>583.8</ele>
        <time>2023-08-30T15:51:50Z</time>
      </trkpt>
      <trkpt lat="46.39915" lon="5.6627">
        <ele>583.8</ele>
        <time>2023-08-30T15:51:51Z</time>
      </trkpt>
      <trkpt lat="46.39917" lon="5.66273">
        <ele>583.8</ele>
        <time>2023-08-30T15:51:52Z</time>
      </trkpt>
      <trkpt lat="46.39918" lon="5.66276">
        <ele>583.8</ele>
        <time>2023-08-30T15:51:53Z</time>
      </trkpt>
      <trkpt lat="46.39919" lon="5.6628">
        <ele>583.2</ele>
        <time>2023-08-30T15:51:54Z</time>
      </trkpt>
      <trkpt lat="46.39921" lon="5.66283">
        <ele>583</ele>
        <time>2023-08-30T15:51:55Z</time>
      </trkpt>
      <trkpt lat="46.39923" lon="5.66286">
        <ele>583</ele>
        <time>2023-08-30T15:51:56Z</time>
      </trkpt>
      <trkpt lat="46.39925" lon="5.66288">
        <ele>583</ele>
        <time>2023-08-30T15:51:57Z</time>
      </trkpt>
      <trkpt lat="46.39928" lon="5.6629">
        <ele>583</ele>
        <time>2023-08-30T15:51:58Z</time>
      </trkpt>
      <trkpt lat="46.39931" lon="5.6629">
        <ele>582.2</ele>
        <time>2023-08-30T15:51:59Z</time>
      </trkpt>
      <trkpt lat="46.39933" lon="5.66291">
        <ele>582.2</ele>
        <time>2023-08-30T15:52:00Z</time>
      </trkpt>
      <trkpt lat="46.39936" lon="5.6629">
        <ele>582.2</ele>
        <time>2023-08-30T15:52:01Z</time>
      </trkpt>
      <trkpt lat="46.39938" lon="5.6629">
        <ele>582.8</ele>
        <time>2023-08-30T15:52:02Z</time>
      </trkpt>
      <trkpt lat="46.3994" lon="5.6629">
        <ele>582.4</ele>
        <time>2023-08-30T15:52:03Z</time>
      </trkpt>
      <trkpt lat="46.39942" lon="5.66289">
        <ele>582.4</ele>
        <time>2023-08-30T15:52:04Z</time>
      </trkpt>
      <trkpt lat="46.39944" lon="5.6629">
        <ele>582.4</ele>
        <time>2023-08-30T15:52:05Z</time>
      </trkpt>
      <trkpt lat="46.39945" lon="5.66292">
        <ele>582.4</ele>
        <time>2023-08-30T15:52:06Z</time>
      </trkpt>
      <trkpt lat="46.39946" lon="5.66294">
        <ele>582.4</ele>
        <time>2023-08-30T15:52:07Z</time>
      </trkpt>
      <trkpt lat="46.39947" lon="5.66297">
        <ele>582.4</ele>
        <time>2023-08-30T15:52:08Z</time>
      </trkpt>
      <trkpt lat="46.39948" lon="5.66298">
        <ele>582</ele>
        <time>2023-08-30T15:52:09Z</time>
      </trkpt>
      <trkpt lat="46.3995" lon="5.663">
        <ele>582</ele>
        <time>2023-08-30T15:52:10Z</time>
      </trkpt>
      <trkpt lat="46.39951" lon="5.66302">
        <ele>582</ele>
        <time>2023-08-30T15:52:11Z</time>
      </trkpt>
      <trkpt lat="46.39952" lon="5.66304">
        <ele>582.2</ele>
        <time>2023-08-30T15:52:12Z</time>
      </trkpt>
      <trkpt lat="46.39953" lon="5.66306">
        <ele>582.2</ele>
        <time>2023-08-30T15:52:13Z</time>
      </trkpt>
      <trkpt lat="46.39955" lon="5.66308">
        <ele>582.2</ele>
        <time>2023-08-30T15:52:14Z</time>
      </trkpt>
      <trkpt lat="46.39956" lon="5.6631">
        <ele>582.2</ele>
        <time>2023-08-30T15:52:15Z</time>
      </trkpt>
      <trkpt lat="46.39958" lon="5.66312">
        <ele>582.2</ele>
        <time>2023-08-30T15:52:16Z</time>
      </trkpt>
      <trkpt lat="46.39959" lon="5.66314">
        <ele>582</ele>
        <time>2023-08-30T15:52:17Z</time>
      </trkpt>
      <trkpt lat="46.3996" lon="5.66316">
        <ele>582</ele>
        <time>2023-08-30T15:52:18Z</time>
      </trkpt>
      <trkpt lat="46.39961" lon="5.66319">
        <ele>582</ele>
        <time>2023-08-30T15:52:19Z</time>
      </trkpt>
      <trkpt lat="46.39963" lon="5.66321">
        <ele>582</ele>
        <time>2023-08-30T15:52:20Z</time>
      </trkpt>
      <trkpt lat="46.39964" lon="5.66323">
        <ele>582.4</ele>
        <time>2023-08-30T15:52:21Z</time>
      </trkpt>
      <trkpt lat="46.39965" lon="5.66325">
        <ele>582.4</ele>
        <time>2023-08-30T15:52:22Z</time>
      </trkpt>
      <trkpt lat="46.39966" lon="5.66328">
        <ele>582.4</ele>
        <time>2023-08-30T15:52:23Z</time>
      </trkpt>
      <trkpt lat="46.39968" lon="5.6633">
        <ele>582</ele>
        <time>2023-08-30T15:52:24Z</time>
      </trkpt>
      <trkpt lat="46.39969" lon="5.66332">
        <ele>582</ele>
        <time>2023-08-30T15:52:25Z</time>
      </trkpt>
      <trkpt lat="46.3997" lon="5.66334">
        <ele>582</ele>
        <time>2023-08-30T15:52:26Z</time>
      </trkpt>
      <trkpt lat="46.39972" lon="5.66337">
        <ele>581.6</ele>
        <time>2023-08-30T15:52:27Z</time>
      </trkpt>
      <trkpt lat="46.39973" lon="5.66339">
        <ele>581.6</ele>
        <time>2023-08-30T15:52:28Z</time>
      </trkpt>
      <trkpt lat="46.39975" lon="5.66341">
        <ele>581.6</ele>
        <time>2023-08-30T15:52:29Z</time>
      </trkpt>
      <trkpt lat="46.39976" lon="5.66344">
        <ele>581.6</ele>
        <time>2023-08-30T15:52:30Z</time>
      </trkpt>
      <trkpt lat="46.39978" lon="5.66346">
        <ele>581.2</ele>
        <time>2023-08-30T15:52:31Z</time>
      </trkpt>
      <trkpt lat="46.3998" lon="5.66348">
        <ele>581.2</ele>
        <time>2023-08-30T15:52:32Z</time>
      </trkpt>
      <trkpt lat="46.39981" lon="5.6635">
        <ele>581.2</ele>
        <time>2023-08-30T15:52:33Z</time>
      </trkpt>
      <trkpt lat="46.39983" lon="5.66352">
        <ele>581.2</ele>
        <time>2023-08-30T15:52:34Z</time>
      </trkpt>
      <trkpt lat="46.39985" lon="5.66354">
        <ele>581.2</ele>
        <time>2023-08-30T15:52:35Z</time>
      </trkpt>
      <trkpt lat="46.39987" lon="5.66356">
        <ele>581.2</ele>
        <time>2023-08-30T15:52:36Z</time>
      </trkpt>
      <trkpt lat="46.39989" lon="5.66357">
        <ele>581.2</ele>
        <time>2023-08-30T15:52:37Z</time>
      </trkpt>
      <trkpt lat="46.39991" lon="5.66359">
        <ele>581.2</ele>
        <time>2023-08-30T15:52:38Z</time>
      </trkpt>
      <trkpt lat="46.39993" lon="5.6636">
        <ele>581.2</ele>
        <time>2023-08-30T15:52:39Z</time>
      </trkpt>
      <trkpt lat="46.39995" lon="5.66361">
        <ele>580.8</ele>
        <time>2023-08-30T15:52:40Z</time>
      </trkpt>
      <trkpt lat="46.39997" lon="5.66362">
        <ele>580.8</ele>
        <time>2023-08-30T15:52:41Z</time>
      </trkpt>
      <trkpt lat="46.39999" lon="5.66363">
        <ele>580.8</ele>
        <time>2023-08-30T15:52:42Z</time>
      </trkpt>
      <trkpt lat="46.40001" lon="5.66364">
        <ele>580.8</ele>
        <time>2023-08-30T15:52:43Z</time>
      </trkpt>
      <trkpt lat="46.40003" lon="5.66365">
        <ele>581.2</ele>
        <time>2023-08-30T15:52:44Z</time>
      </trkpt>
      <trkpt lat="46.40005" lon="5.66366">
        <ele>581.2</ele>
        <time>2023-08-30T15:52:45Z</time>
      </trkpt>
      <trkpt lat="46.40007" lon="5.66367">
        <ele>581.2</ele>
        <time>2023-08-30T15:52:46Z</time>
      </trkpt>
      <trkpt lat="46.40009" lon="5.66368">
        <ele>581.2</ele>
        <time>2023-08-30T15:52:47Z</time>
      </trkpt>
      <trkpt lat="46.40011" lon="5.66369">
        <ele>580.8</ele>
        <time>2023-08-30T15:52:48Z</time>
      </trkpt>
      <trkpt lat="46.40013" lon="5.6637">
        <ele>580.8</ele>
        <time>2023-08-30T15:52:49Z</time>
      </trkpt>
      <trkpt lat="46.40015" lon="5.66371">
        <ele>580.8</ele>
        <time>2023-08-30T15:52:50Z</time>
      </trkpt>
      <trkpt lat="46.40017" lon="5.66372">
        <ele>580.8</ele>
        <time>2023-08-30T15:52:51Z</time>
      </trkpt>
      <trkpt lat="46.40019" lon="5.66373">
        <ele>580.8</ele>
        <time>2023-08-30T15:52:52Z</time>
      </trkpt>
      <trkpt lat="46.40021" lon="5.66374">
        <ele>581</ele>
        <time>2023-08-30T15:52:53Z</time>
      </trkpt>
      <trkpt lat="46.40023" lon="5.66376">
        <ele>581</ele>
        <time>2023-08-30T15:52:54Z</time>
      </trkpt>
      <trkpt lat="46.40025" lon="5.66377">
        <ele>581</ele>
        <time>2023-08-30T15:52:55Z</time>
      </trkpt>
      <trkpt lat="46.40027" lon="5.66378">
        <ele>581</ele>
        <time>2023-08-30T15:52:56Z</time>
      </trkpt>
      <trkpt lat="46.40029" lon="5.66379">
        <ele>580.8</ele>
        <time>2023-08-30T15:52:57Z</time>
      </trkpt>
      <trkpt lat="46.40031" lon="5.6638">
        <ele>580.4</ele>
        <time>2023-08-30T15:52:58Z</time>
      </trkpt>
      <trkpt lat="46.40034" lon="5.66381">
        <ele>580.4</ele>
        <time>2023-08-30T15:52:59Z</time>
      </trkpt>
      <trkpt lat="46.40036" lon="5.66382">
        <ele>580.4</ele>
        <time>2023-08-30T15:53:00Z</time>
      </trkpt>
      <trkpt lat="46.40038" lon="5.66383">
        <ele>580.4</ele>
        <time>2023-08-30T15:53:01Z</time>
      </trkpt>
      <trkpt lat="46.40042" lon="5.66385">
        <ele>580.2</ele>
        <time>2023-08-30T15:53:02Z</time>
      </trkpt>
      <trkpt lat="46.40043" lon="5.66386">
        <ele>580.2</ele>
        <time>2023-08-30T15:53:03Z</time>
      </trkpt>
      <trkpt lat="46.40045" lon="5.66387">
        <ele>580.2</ele>
        <time>2023-08-30T15:53:04Z</time>
      </trkpt>
      <trkpt lat="46.40048" lon="5.66389">
        <ele>580.2</ele>
        <time>2023-08-30T15:53:05Z</time>
      </trkpt>
      <trkpt lat="46.4005" lon="5.6639">
        <ele>580.4</ele>
        <time>2023-08-30T15:53:06Z</time>
      </trkpt>
      <trkpt lat="46.40052" lon="5.66391">
        <ele>579.6</ele>
        <time>2023-08-30T15:53:07Z</time>
      </trkpt>
      <trkpt lat="46.40054" lon="5.66393">
        <ele>579.6</ele>
        <time>2023-08-30T15:53:08Z</time>
      </trkpt>
      <trkpt lat="46.40057" lon="5.66394">
        <ele>579.6</ele>
        <time>2023-08-30T15:53:09Z</time>
      </trkpt>
      <trkpt lat="46.40059" lon="5.66395">
        <ele>579.6</ele>
        <time>2023-08-30T15:53:10Z</time>
      </trkpt>
      <trkpt lat="46.40061" lon="5.66396">
        <ele>579.8</ele>
        <time>2023-08-30T15:53:11Z</time>
      </trkpt>
      <trkpt lat="46.40063" lon="5.66397">
        <ele>579.8</ele>
        <time>2023-08-30T15:53:12Z</time>
      </trkpt>
      <trkpt lat="46.40065" lon="5.66397">
        <ele>579.8</ele>
        <time>2023-08-30T15:53:13Z</time>
      </trkpt>
      <trkpt lat="46.40067" lon="5.66398">
        <ele>579.8</ele>
        <time>2023-08-30T15:53:14Z</time>
      </trkpt>
      <trkpt lat="46.40069" lon="5.66399">
        <ele>579.8</ele>
        <time>2023-08-30T15:53:15Z</time>
      </trkpt>
      <trkpt lat="46.40071" lon="5.66398">
        <ele>579.8</ele>
        <time>2023-08-30T15:53:16Z</time>
      </trkpt>
      <trkpt lat="46.40073" lon="5.66398">
        <ele>579.8</ele>
        <time>2023-08-30T15:53:17Z</time>
      </trkpt>
      <trkpt lat="46.40075" lon="5.66398">
        <ele>579.8</ele>
        <time>2023-08-30T15:53:18Z</time>
      </trkpt>
      <trkpt lat="46.40077" lon="5.66398">
        <ele>579.8</ele>
        <time>2023-08-30T15:53:19Z</time>
      </trkpt>
      <trkpt lat="46.40079" lon="5.66397">
        <ele>579.4</ele>
        <time>2023-08-30T15:53:20Z</time>
      </trkpt>
      <trkpt lat="46.40082" lon="5.66397">
        <ele>579.4</ele>
        <time>2023-08-30T15:53:21Z</time>
      </trkpt>
      <trkpt lat="46.40084" lon="5.66398">
        <ele>579.4</ele>
        <time>2023-08-30T15:53:22Z</time>
      </trkpt>
      <trkpt lat="46.40085" lon="5.66399">
        <ele>579.4</ele>
        <time>2023-08-30T15:53:23Z</time>
      </trkpt>
      <trkpt lat="46.40087" lon="5.664">
        <ele>579.2</ele>
        <time>2023-08-30T15:53:24Z</time>
      </trkpt>
      <trkpt lat="46.40088" lon="5.66402">
        <ele>579.2</ele>
        <time>2023-08-30T15:53:25Z</time>
      </trkpt>
      <trkpt lat="46.4009" lon="5.66403">
        <ele>579.2</ele>
        <time>2023-08-30T15:53:26Z</time>
      </trkpt>
      <trkpt lat="46.40091" lon="5.66405">
        <ele>579.2</ele>
        <time>2023-08-30T15:53:27Z</time>
      </trkpt>
      <trkpt lat="46.40093" lon="5.66407">
        <ele>579.2</ele>
        <time>2023-08-30T15:53:28Z</time>
      </trkpt>
      <trkpt lat="46.40095" lon="5.66408">
        <ele>579.2</ele>
        <time>2023-08-30T15:53:29Z</time>
      </trkpt>
      <trkpt lat="46.40097" lon="5.66409">
        <ele>578.2</ele>
        <time>2023-08-30T15:53:30Z</time>
      </trkpt>
      <trkpt lat="46.40099" lon="5.66411">
        <ele>578.2</ele>
        <time>2023-08-30T15:53:31Z</time>
      </trkpt>
      <trkpt lat="46.401" lon="5.66412">
        <ele>578.2</ele>
        <time>2023-08-30T15:53:32Z</time>
      </trkpt>
      <trkpt lat="46.40102" lon="5.66414">
        <ele>578.2</ele>
        <time>2023-08-30T15:53:33Z</time>
      </trkpt>
      <trkpt lat="46.40104" lon="5.66415">
        <ele>578.8</ele>
        <time>2023-08-30T15:53:34Z</time>
      </trkpt>
      <trkpt lat="46.40106" lon="5.66416">
        <ele>578.4</ele>
        <time>2023-08-30T15:53:35Z</time>
      </trkpt>
      <trkpt lat="46.40108" lon="5.66417">
        <ele>578.4</ele>
        <time>2023-08-30T15:53:36Z</time>
      </trkpt>
      <trkpt lat="46.40109" lon="5.66419">
        <ele>578.4</ele>
        <time>2023-08-30T15:53:37Z</time>
      </trkpt>
      <trkpt lat="46.40111" lon="5.6642">
        <ele>578.4</ele>
        <time>2023-08-30T15:53:38Z</time>
      </trkpt>
      <trkpt lat="46.40113" lon="5.6642">
        <ele>578.2</ele>
        <time>2023-08-30T15:53:39Z</time>
      </trkpt>
      <trkpt lat="46.40114" lon="5.66421">
        <ele>578.2</ele>
        <time>2023-08-30T15:53:40Z</time>
      </trkpt>
      <trkpt lat="46.40116" lon="5.66423">
        <ele>578.2</ele>
        <time>2023-08-30T15:53:41Z</time>
      </trkpt>
      <trkpt lat="46.40118" lon="5.66424">
        <ele>578.2</ele>
        <time>2023-08-30T15:53:42Z</time>
      </trkpt>
      <trkpt lat="46.4012" lon="5.66425">
        <ele>577.4</ele>
        <time>2023-08-30T15:53:43Z</time>
      </trkpt>
      <trkpt lat="46.40121" lon="5.66427">
        <ele>577.8</ele>
        <time>2023-08-30T15:53:44Z</time>
      </trkpt>
      <trkpt lat="46.40123" lon="5.66428">
        <ele>577.8</ele>
        <time>2023-08-30T15:53:45Z</time>
      </trkpt>
      <trkpt lat="46.40125" lon="5.66429">
        <ele>577.8</ele>
        <time>2023-08-30T15:53:46Z</time>
      </trkpt>
      <trkpt lat="46.40127" lon="5.6643">
        <ele>576.8</ele>
        <time>2023-08-30T15:53:47Z</time>
      </trkpt>
      <trkpt lat="46.40129" lon="5.6643">
        <ele>576.6</ele>
        <time>2023-08-30T15:53:48Z</time>
      </trkpt>
      <trkpt lat="46.4013" lon="5.6643">
        <ele>576.6</ele>
        <time>2023-08-30T15:53:49Z</time>
      </trkpt>
      <trkpt lat="46.40132" lon="5.6643">
        <ele>576.6</ele>
        <time>2023-08-30T15:53:50Z</time>
      </trkpt>
      <trkpt lat="46.40134" lon="5.66429">
        <ele>576.4</ele>
        <time>2023-08-30T15:53:51Z</time>
      </trkpt>
      <trkpt lat="46.40136" lon="5.66428">
        <ele>576.4</ele>
        <time>2023-08-30T15:53:52Z</time>
      </trkpt>
      <trkpt lat="46.40137" lon="5.66427">
        <ele>576.6</ele>
        <time>2023-08-30T15:53:53Z</time>
      </trkpt>
      <trkpt lat="46.40139" lon="5.66427">
        <ele>576.6</ele>
        <time>2023-08-30T15:53:54Z</time>
      </trkpt>
      <trkpt lat="46.40141" lon="5.66428">
        <ele>576.6</ele>
        <time>2023-08-30T15:53:55Z</time>
      </trkpt>
      <trkpt lat="46.40143" lon="5.66429">
        <ele>576.6</ele>
        <time>2023-08-30T15:53:56Z</time>
      </trkpt>
      <trkpt lat="46.40145" lon="5.66429">
        <ele>576.4</ele>
        <time>2023-08-30T15:53:57Z</time>
      </trkpt>
      <trkpt lat="46.40147" lon="5.6643">
        <ele>576.2</ele>
        <time>2023-08-30T15:53:58Z</time>
      </trkpt>
      <trkpt lat="46.40149" lon="5.6643">
        <ele>576.2</ele>
        <time>2023-08-30T15:53:59Z</time>
      </trkpt>
      <trkpt lat="46.4015" lon="5.66432">
        <ele>576.2</ele>
        <time>2023-08-30T15:54:00Z</time>
      </trkpt>
      <trkpt lat="46.40152" lon="5.66432">
        <ele>576.2</ele>
        <time>2023-08-30T15:54:01Z</time>
      </trkpt>
      <trkpt lat="46.40154" lon="5.66433">
        <ele>575.4</ele>
        <time>2023-08-30T15:54:02Z</time>
      </trkpt>
      <trkpt lat="46.40155" lon="5.66435">
        <ele>575.4</ele>
        <time>2023-08-30T15:54:03Z</time>
      </trkpt>
      <trkpt lat="46.40157" lon="5.66436">
        <ele>575.4</ele>
        <time>2023-08-30T15:54:04Z</time>
      </trkpt>
      <trkpt lat="46.40158" lon="5.66438">
        <ele>575.2</ele>
        <time>2023-08-30T15:54:05Z</time>
      </trkpt>
      <trkpt lat="46.4016" lon="5.66439">
        <ele>575.2</ele>
        <time>2023-08-30T15:54:06Z</time>
      </trkpt>
      <trkpt lat="46.40161" lon="5.6644">
        <ele>574.8</ele>
        <time>2023-08-30T15:54:07Z</time>
      </trkpt>
      <trkpt lat="46.40163" lon="5.66441">
        <ele>574.8</ele>
        <time>2023-08-30T15:54:08Z</time>
      </trkpt>
      <trkpt lat="46.40163" lon="5.66442">
        <ele>574.8</ele>
        <time>2023-08-30T15:54:09Z</time>
      </trkpt>
      <trkpt lat="46.40163" lon="5.66444">
        <ele>574.2</ele>
        <time>2023-08-30T15:54:10Z</time>
      </trkpt>
      <trkpt lat="46.40164" lon="5.66445">
        <ele>574.2</ele>
        <time>2023-08-30T15:54:11Z</time>
      </trkpt>
      <trkpt lat="46.40164" lon="5.66447">
        <ele>574.2</ele>
        <time>2023-08-30T15:54:12Z</time>
      </trkpt>
      <trkpt lat="46.40166" lon="5.66447">
        <ele>574.2</ele>
        <time>2023-08-30T15:54:13Z</time>
      </trkpt>
      <trkpt lat="46.40167" lon="5.66446">
        <ele>573.8</ele>
        <time>2023-08-30T15:54:14Z</time>
      </trkpt>
      <trkpt lat="46.40169" lon="5.66446">
        <ele>574</ele>
        <time>2023-08-30T15:54:15Z</time>
      </trkpt>
      <trkpt lat="46.40172" lon="5.66447">
        <ele>574</ele>
        <time>2023-08-30T15:54:16Z</time>
      </trkpt>
      <trkpt lat="46.40173" lon="5.66448">
        <ele>574</ele>
        <time>2023-08-30T15:54:17Z</time>
      </trkpt>
      <trkpt lat="46.40175" lon="5.66448">
        <ele>574</ele>
        <time>2023-08-30T15:54:18Z</time>
      </trkpt>
      <trkpt lat="46.40177" lon="5.66448">
        <ele>574</ele>
        <time>2023-08-30T15:54:19Z</time>
      </trkpt>
      <trkpt lat="46.40178" lon="5.66449">
        <ele>574</ele>
        <time>2023-08-30T15:54:20Z</time>
      </trkpt>
      <trkpt lat="46.4018" lon="5.6645">
        <ele>573.6</ele>
        <time>2023-08-30T15:54:21Z</time>
      </trkpt>
      <trkpt lat="46.40182" lon="5.66451">
        <ele>573.6</ele>
        <time>2023-08-30T15:54:22Z</time>
      </trkpt>
      <trkpt lat="46.40184" lon="5.66452">
        <ele>573.6</ele>
        <time>2023-08-30T15:54:23Z</time>
      </trkpt>
      <trkpt lat="46.40186" lon="5.66454">
        <ele>573.6</ele>
        <time>2023-08-30T15:54:24Z</time>
      </trkpt>
      <trkpt lat="46.40189" lon="5.66455">
        <ele>573.8</ele>
        <time>2023-08-30T15:54:25Z</time>
      </trkpt>
      <trkpt lat="46.40191" lon="5.66455">
        <ele>573.8</ele>
        <time>2023-08-30T15:54:26Z</time>
      </trkpt>
      <trkpt lat="46.40193" lon="5.66457">
        <ele>573.8</ele>
        <time>2023-08-30T15:54:27Z</time>
      </trkpt>
      <trkpt lat="46.40196" lon="5.66458">
        <ele>573.4</ele>
        <time>2023-08-30T15:54:28Z</time>
      </trkpt>
      <trkpt lat="46.40199" lon="5.66459">
        <ele>573.8</ele>
        <time>2023-08-30T15:54:29Z</time>
      </trkpt>
      <trkpt lat="46.40201" lon="5.6646">
        <ele>573.8</ele>
        <time>2023-08-30T15:54:30Z</time>
      </trkpt>
      <trkpt lat="46.40204" lon="5.66461">
        <ele>573.8</ele>
        <time>2023-08-30T15:54:31Z</time>
      </trkpt>
      <trkpt lat="46.40206" lon="5.66462">
        <ele>574.2</ele>
        <time>2023-08-30T15:54:32Z</time>
      </trkpt>
      <trkpt lat="46.40209" lon="5.66463">
        <ele>574.2</ele>
        <time>2023-08-30T15:54:33Z</time>
      </trkpt>
      <trkpt lat="46.40211" lon="5.66464">
        <ele>574.2</ele>
        <time>2023-08-30T15:54:34Z</time>
      </trkpt>
      <trkpt lat="46.40213" lon="5.66465">
        <ele>574.2</ele>
        <time>2023-08-30T15:54:35Z</time>
      </trkpt>
      <trkpt lat="46.40215" lon="5.66467">
        <ele>574.2</ele>
        <time>2023-08-30T15:54:36Z</time>
      </trkpt>
      <trkpt lat="46.40217" lon="5.66467">
        <ele>574.2</ele>
        <time>2023-08-30T15:54:37Z</time>
      </trkpt>
      <trkpt lat="46.40219" lon="5.66468">
        <ele>574.6</ele>
        <time>2023-08-30T15:54:38Z</time>
      </trkpt>
      <trkpt lat="46.40221" lon="5.6647">
        <ele>574.6</ele>
        <time>2023-08-30T15:54:39Z</time>
      </trkpt>
      <trkpt lat="46.40224" lon="5.66471">
        <ele>574.6</ele>
        <time>2023-08-30T15:54:40Z</time>
      </trkpt>
      <trkpt lat="46.40226" lon="5.66472">
        <ele>574.6</ele>
        <time>2023-08-30T15:54:41Z</time>
      </trkpt>
      <trkpt lat="46.40228" lon="5.66472">
        <ele>574.6</ele>
        <time>2023-08-30T15:54:42Z</time>
      </trkpt>
      <trkpt lat="46.4023" lon="5.66473">
        <ele>574.8</ele>
        <time>2023-08-30T15:54:43Z</time>
      </trkpt>
      <trkpt lat="46.40232" lon="5.66474">
        <ele>574.8</ele>
        <time>2023-08-30T15:54:44Z</time>
      </trkpt>
      <trkpt lat="46.40234" lon="5.66475">
        <ele>574.8</ele>
        <time>2023-08-30T15:54:45Z</time>
      </trkpt>
      <trkpt lat="46.40236" lon="5.66477">
        <ele>574.8</ele>
        <time>2023-08-30T15:54:46Z</time>
      </trkpt>
      <trkpt lat="46.40238" lon="5.66478">
        <ele>575</ele>
        <time>2023-08-30T15:54:47Z</time>
      </trkpt>
      <trkpt lat="46.40239" lon="5.6648">
        <ele>575</ele>
        <time>2023-08-30T15:54:48Z</time>
      </trkpt>
      <trkpt lat="46.40241" lon="5.66481">
        <ele>575</ele>
        <time>2023-08-30T15:54:49Z</time>
      </trkpt>
      <trkpt lat="46.40243" lon="5.66482">
        <ele>575</ele>
        <time>2023-08-30T15:54:50Z</time>
      </trkpt>
      <trkpt lat="46.40245" lon="5.66483">
        <ele>574.6</ele>
        <time>2023-08-30T15:54:51Z</time>
      </trkpt>
      <trkpt lat="46.40247" lon="5.66484">
        <ele>574.6</ele>
        <time>2023-08-30T15:54:52Z</time>
      </trkpt>
      <trkpt lat="46.40249" lon="5.66484">
        <ele>575.4</ele>
        <time>2023-08-30T15:54:53Z</time>
      </trkpt>
      <trkpt lat="46.40251" lon="5.66484">
        <ele>575.4</ele>
        <time>2023-08-30T15:54:54Z</time>
      </trkpt>
      <trkpt lat="46.40253" lon="5.66484">
        <ele>575.4</ele>
        <time>2023-08-30T15:54:55Z</time>
      </trkpt>
      <trkpt lat="46.40255" lon="5.66482">
        <ele>574.4</ele>
        <time>2023-08-30T15:54:56Z</time>
      </trkpt>
      <trkpt lat="46.40257" lon="5.6648">
        <ele>575</ele>
        <time>2023-08-30T15:54:57Z</time>
      </trkpt>
      <trkpt lat="46.40258" lon="5.66478">
        <ele>575</ele>
        <time>2023-08-30T15:54:58Z</time>
      </trkpt>
      <trkpt lat="46.40259" lon="5.66475">
        <ele>575</ele>
        <time>2023-08-30T15:54:59Z</time>
      </trkpt>
      <trkpt lat="46.4026" lon="5.66473">
        <ele>575</ele>
        <time>2023-08-30T15:55:00Z</time>
      </trkpt>
      <trkpt lat="46.40261" lon="5.66471">
        <ele>575</ele>
        <time>2023-08-30T15:55:01Z</time>
      </trkpt>
      <trkpt lat="46.40261" lon="5.66469">
        <ele>575</ele>
        <time>2023-08-30T15:55:02Z</time>
      </trkpt>
      <trkpt lat="46.40262" lon="5.66466">
        <ele>575</ele>
        <time>2023-08-30T15:55:03Z</time>
      </trkpt>
      <trkpt lat="46.40263" lon="5.66464">
        <ele>575</ele>
        <time>2023-08-30T15:55:04Z</time>
      </trkpt>
      <trkpt lat="46.40262" lon="5.66462">
        <ele>575</ele>
        <time>2023-08-30T15:55:05Z</time>
      </trkpt>
      <trkpt lat="46.4026" lon="5.66461">
        <ele>575.2</ele>
        <time>2023-08-30T15:55:06Z</time>
      </trkpt>
      <trkpt lat="46.40259" lon="5.66461">
        <ele>575.2</ele>
        <time>2023-08-30T15:55:07Z</time>
      </trkpt>
      <trkpt lat="46.40258" lon="5.66462">
        <ele>575.2</ele>
        <time>2023-08-30T15:55:08Z</time>
      </trkpt>
      <trkpt lat="46.40258" lon="5.66463">
        <ele>575.6</ele>
        <time>2023-08-30T15:55:09Z</time>
      </trkpt>
      <trkpt lat="46.40258" lon="5.66464">
        <ele>575.4</ele>
        <time>2023-08-30T15:55:10Z</time>
      </trkpt>
      <trkpt lat="46.40258" lon="5.66464">
        <ele>575.4</ele>
        <time>2023-08-30T15:55:11Z</time>
      </trkpt>
      <trkpt lat="46.40259" lon="5.66465">
        <ele>575.4</ele>
        <time>2023-08-30T15:55:12Z</time>
      </trkpt>
      <trkpt lat="46.40259" lon="5.66467">
        <ele>575.4</ele>
        <time>2023-08-30T15:55:13Z</time>
      </trkpt>
      <trkpt lat="46.40259" lon="5.66468">
        <ele>575.4</ele>
        <time>2023-08-30T15:55:14Z</time>
      </trkpt>
      <trkpt lat="46.4026" lon="5.66469">
        <ele>575</ele>
        <time>2023-08-30T15:55:15Z</time>
      </trkpt>
      <trkpt lat="46.4026" lon="5.66471">
        <ele>575</ele>
        <time>2023-08-30T15:55:16Z</time>
      </trkpt>
      <trkpt lat="46.40259" lon="5.66473">
        <ele>575</ele>
        <time>2023-08-30T15:55:17Z</time>
      </trkpt>
      <trkpt lat="46.40258" lon="5.66475">
        <ele>574.4</ele>
        <time>2023-08-30T15:55:18Z</time>
      </trkpt>
      <trkpt lat="46.40257" lon="5.66478">
        <ele>574.8</ele>
        <time>2023-08-30T15:55:19Z</time>
      </trkpt>
      <trkpt lat="46.40255" lon="5.6648">
        <ele>574.8</ele>
        <time>2023-08-30T15:55:20Z</time>
      </trkpt>
      <trkpt lat="46.40253" lon="5.66481">
        <ele>574.8</ele>
        <time>2023-08-30T15:55:21Z</time>
      </trkpt>
      <trkpt lat="46.4025" lon="5.66481">
        <ele>575.4</ele>
        <time>2023-08-30T15:55:22Z</time>
      </trkpt>
      <trkpt lat="46.40247" lon="5.6648">
        <ele>575.4</ele>
        <time>2023-08-30T15:55:23Z</time>
      </trkpt>
      <trkpt lat="46.40245" lon="5.66479">
        <ele>574.4</ele>
        <time>2023-08-30T15:55:24Z</time>
      </trkpt>
      <trkpt lat="46.40242" lon="5.66477">
        <ele>574.4</ele>
        <time>2023-08-30T15:55:25Z</time>
      </trkpt>
      <trkpt lat="46.40239" lon="5.66475">
        <ele>575.4</ele>
        <time>2023-08-30T15:55:26Z</time>
      </trkpt>
      <trkpt lat="46.40236" lon="5.66474">
        <ele>575.4</ele>
        <time>2023-08-30T15:55:27Z</time>
      </trkpt>
      <trkpt lat="46.40233" lon="5.66472">
        <ele>575.2</ele>
        <time>2023-08-30T15:55:28Z</time>
      </trkpt>
      <trkpt lat="46.4023" lon="5.6647">
        <ele>575.2</ele>
        <time>2023-08-30T15:55:29Z</time>
      </trkpt>
      <trkpt lat="46.40227" lon="5.66469">
        <ele>575.2</ele>
        <time>2023-08-30T15:55:30Z</time>
      </trkpt>
      <trkpt lat="46.40223" lon="5.66468">
        <ele>575.4</ele>
        <time>2023-08-30T15:55:31Z</time>
      </trkpt>
      <trkpt lat="46.4022" lon="5.66468">
        <ele>575.4</ele>
        <time>2023-08-30T15:55:32Z</time>
      </trkpt>
      <trkpt lat="46.40216" lon="5.66467">
        <ele>575.2</ele>
        <time>2023-08-30T15:55:33Z</time>
      </trkpt>
      <trkpt lat="46.40213" lon="5.66465">
        <ele>575.2</ele>
        <time>2023-08-30T15:55:34Z</time>
      </trkpt>
      <trkpt lat="46.4021" lon="5.66464">
        <ele>575.2</ele>
        <time>2023-08-30T15:55:35Z</time>
      </trkpt>
      <trkpt lat="46.40208" lon="5.66463">
        <ele>575.2</ele>
        <time>2023-08-30T15:55:36Z</time>
      </trkpt>
      <trkpt lat="46.40205" lon="5.66462">
        <ele>575.2</ele>
        <time>2023-08-30T15:55:37Z</time>
      </trkpt>
      <trkpt lat="46.40202" lon="5.66461">
        <ele>575.6</ele>
        <time>2023-08-30T15:55:38Z</time>
      </trkpt>
      <trkpt lat="46.402" lon="5.66459">
        <ele>575.6</ele>
        <time>2023-08-30T15:55:39Z</time>
      </trkpt>
      <trkpt lat="46.40197" lon="5.66458">
        <ele>575.6</ele>
        <time>2023-08-30T15:55:40Z</time>
      </trkpt>
      <trkpt lat="46.40195" lon="5.66457">
        <ele>576.4</ele>
        <time>2023-08-30T15:55:41Z</time>
      </trkpt>
      <trkpt lat="46.40193" lon="5.66455">
        <ele>576.4</ele>
        <time>2023-08-30T15:55:42Z</time>
      </trkpt>
      <trkpt lat="46.40191" lon="5.66454">
        <ele>576.4</ele>
        <time>2023-08-30T15:55:43Z</time>
      </trkpt>
      <trkpt lat="46.40188" lon="5.66453">
        <ele>576.4</ele>
        <time>2023-08-30T15:55:44Z</time>
      </trkpt>
      <trkpt lat="46.40185" lon="5.66452">
        <ele>576.4</ele>
        <time>2023-08-30T15:55:45Z</time>
      </trkpt>
      <trkpt lat="46.40183" lon="5.66452">
        <ele>577</ele>
        <time>2023-08-30T15:55:46Z</time>
      </trkpt>
      <trkpt lat="46.4018" lon="5.66451">
        <ele>577</ele>
        <time>2023-08-30T15:55:47Z</time>
      </trkpt>
      <trkpt lat="46.40178" lon="5.6645">
        <ele>577</ele>
        <time>2023-08-30T15:55:48Z</time>
      </trkpt>
      <trkpt lat="46.40175" lon="5.66449">
        <ele>577.2</ele>
        <time>2023-08-30T15:55:49Z</time>
      </trkpt>
      <trkpt lat="46.40171" lon="5.66447">
        <ele>577.2</ele>
        <time>2023-08-30T15:55:50Z</time>
      </trkpt>
      <trkpt lat="46.40168" lon="5.66445">
        <ele>577.6</ele>
        <time>2023-08-30T15:55:51Z</time>
      </trkpt>
      <trkpt lat="46.40166" lon="5.66443">
        <ele>577.6</ele>
        <time>2023-08-30T15:55:52Z</time>
      </trkpt>
      <trkpt lat="46.40164" lon="5.66441">
        <ele>577.6</ele>
        <time>2023-08-30T15:55:53Z</time>
      </trkpt>
      <trkpt lat="46.40161" lon="5.6644">
        <ele>577.6</ele>
        <time>2023-08-30T15:55:54Z</time>
      </trkpt>
      <trkpt lat="46.40158" lon="5.66437">
        <ele>577.6</ele>
        <time>2023-08-30T15:55:55Z</time>
      </trkpt>
      <trkpt lat="46.40155" lon="5.66435">
        <ele>578.8</ele>
        <time>2023-08-30T15:55:56Z</time>
      </trkpt>
      <trkpt lat="46.40152" lon="5.66433">
        <ele>578.8</ele>
        <time>2023-08-30T15:55:57Z</time>
      </trkpt>
      <trkpt lat="46.40149" lon="5.66431">
        <ele>578.2</ele>
        <time>2023-08-30T15:55:58Z</time>
      </trkpt>
      <trkpt lat="46.40146" lon="5.6643">
        <ele>578.4</ele>
        <time>2023-08-30T15:55:59Z</time>
      </trkpt>
      <trkpt lat="46.40144" lon="5.6643">
        <ele>578.4</ele>
        <time>2023-08-30T15:56:00Z</time>
      </trkpt>
      <trkpt lat="46.40144" lon="5.6643">
        <ele>578.4</ele>
        <time>2023-08-30T15:56:01Z</time>
      </trkpt>
      <trkpt lat="46.40142" lon="5.66432">
        <ele>587.6</ele>
        <time>2023-08-30T15:58:00Z</time>
      </trkpt>
      <trkpt lat="46.40142" lon="5.66431">
        <ele>587.6</ele>
        <time>2023-08-30T15:58:01Z</time>
      </trkpt>
      <trkpt lat="46.40141" lon="5.6643">
        <ele>587.8</ele>
        <time>2023-08-30T15:58:02Z</time>
      </trkpt>
      <trkpt lat="46.40141" lon="5.6643">
        <ele>587.8</ele>
        <time>2023-08-30T15:58:03Z</time>
      </trkpt>
      <trkpt lat="46.40139" lon="5.66429">
        <ele>588</ele>
        <time>2023-08-30T15:58:09Z</time>
      </trkpt>
      <trkpt lat="46.40137" lon="5.66429">
        <ele>587.4</ele>
        <time>2023-08-30T15:58:10Z</time>
      </trkpt>
      <trkpt lat="46.40136" lon="5.66429">
        <ele>587.6</ele>
        <time>2023-08-30T15:58:11Z</time>
      </trkpt>
      <trkpt lat="46.40134" lon="5.66429">
        <ele>587.6</ele>
        <time>2023-08-30T15:58:12Z</time>
      </trkpt>
      <trkpt lat="46.40132" lon="5.66429">
        <ele>587.6</ele>
        <time>2023-08-30T15:58:13Z</time>
      </trkpt>
      <trkpt lat="46.4013" lon="5.66429">
        <ele>587.6</ele>
        <time>2023-08-30T15:58:14Z</time>
      </trkpt>
      <trkpt lat="46.40128" lon="5.66429">
        <ele>588</ele>
        <time>2023-08-30T15:58:15Z</time>
      </trkpt>
      <trkpt lat="46.40126" lon="5.66429">
        <ele>588</ele>
        <time>2023-08-30T15:58:16Z</time>
      </trkpt>
      <trkpt lat="46.40123" lon="5.66429">
        <ele>588</ele>
        <time>2023-08-30T15:58:17Z</time>
      </trkpt>
      <trkpt lat="46.4012" lon="5.66429">
        <ele>588</ele>
        <time>2023-08-30T15:58:18Z</time>
      </trkpt>
      <trkpt lat="46.40118" lon="5.66428">
        <ele>588</ele>
        <time>2023-08-30T15:58:19Z</time>
      </trkpt>
      <trkpt lat="46.40115" lon="5.66426">
        <ele>587.8</ele>
        <time>2023-08-30T15:58:20Z</time>
      </trkpt>
      <trkpt lat="46.40112" lon="5.66424">
        <ele>587.8</ele>
        <time>2023-08-30T15:58:21Z</time>
      </trkpt>
      <trkpt lat="46.40109" lon="5.66422">
        <ele>587.8</ele>
        <time>2023-08-30T15:58:22Z</time>
      </trkpt>
      <trkpt lat="46.40107" lon="5.6642">
        <ele>587.8</ele>
        <time>2023-08-30T15:58:23Z</time>
      </trkpt>
      <trkpt lat="46.40104" lon="5.66416">
        <ele>587.2</ele>
        <time>2023-08-30T15:58:24Z</time>
      </trkpt>
      <trkpt lat="46.40101" lon="5.66413">
        <ele>587.2</ele>
        <time>2023-08-30T15:58:25Z</time>
      </trkpt>
      <trkpt lat="46.40098" lon="5.66411">
        <ele>588.4</ele>
        <time>2023-08-30T15:58:26Z</time>
      </trkpt>
      <trkpt lat="46.40095" lon="5.66407">
        <ele>588.4</ele>
        <time>2023-08-30T15:58:27Z</time>
      </trkpt>
      <trkpt lat="46.40092" lon="5.66405">
        <ele>587.8</ele>
        <time>2023-08-30T15:58:28Z</time>
      </trkpt>
      <trkpt lat="46.40088" lon="5.66403">
        <ele>588</ele>
        <time>2023-08-30T15:58:29Z</time>
      </trkpt>
      <trkpt lat="46.40084" lon="5.66401">
        <ele>588</ele>
        <time>2023-08-30T15:58:30Z</time>
      </trkpt>
      <trkpt lat="46.4008" lon="5.664">
        <ele>588</ele>
        <time>2023-08-30T15:58:31Z</time>
      </trkpt>
      <trkpt lat="46.40076" lon="5.66398">
        <ele>587.4</ele>
        <time>2023-08-30T15:58:32Z</time>
      </trkpt>
      <trkpt lat="46.40072" lon="5.66397">
        <ele>587.8</ele>
        <time>2023-08-30T15:58:33Z</time>
      </trkpt>
      <trkpt lat="46.40068" lon="5.66395">
        <ele>587.8</ele>
        <time>2023-08-30T15:58:34Z</time>
      </trkpt>
      <trkpt lat="46.40063" lon="5.66395">
        <ele>587.8</ele>
        <time>2023-08-30T15:58:35Z</time>
      </trkpt>
      <trkpt lat="46.40059" lon="5.66393">
        <ele>587.8</ele>
        <time>2023-08-30T15:58:36Z</time>
      </trkpt>
      <trkpt lat="46.40055" lon="5.66392">
        <ele>588.4</ele>
        <time>2023-08-30T15:58:37Z</time>
      </trkpt>
      <trkpt lat="46.40051" lon="5.6639">
        <ele>588.4</ele>
        <time>2023-08-30T15:58:38Z</time>
      </trkpt>
      <trkpt lat="46.40047" lon="5.66388">
        <ele>588.4</ele>
        <time>2023-08-30T15:58:39Z</time>
      </trkpt>
      <trkpt lat="46.40042" lon="5.66386">
        <ele>588.4</ele>
        <time>2023-08-30T15:58:40Z</time>
      </trkpt>
      <trkpt lat="46.40039" lon="5.66384">
        <ele>588.4</ele>
        <time>2023-08-30T15:58:41Z</time>
      </trkpt>
      <trkpt lat="46.40034" lon="5.66382">
        <ele>588.4</ele>
        <time>2023-08-30T15:58:42Z</time>
      </trkpt>
      <trkpt lat="46.4003" lon="5.6638">
        <ele>588.4</ele>
        <time>2023-08-30T15:58:43Z</time>
      </trkpt>
      <trkpt lat="46.40026" lon="5.66378">
        <ele>588.2</ele>
        <time>2023-08-30T15:58:44Z</time>
      </trkpt>
      <trkpt lat="46.40022" lon="5.66376">
        <ele>588.2</ele>
        <time>2023-08-30T15:58:45Z</time>
      </trkpt>
      <trkpt lat="46.40017" lon="5.66373">
        <ele>588.2</ele>
        <time>2023-08-30T15:58:46Z</time>
      </trkpt>
      <trkpt lat="46.40014" lon="5.6637">
        <ele>588.2</ele>
        <time>2023-08-30T15:58:47Z</time>
      </trkpt>
      <trkpt lat="46.4001" lon="5.66367">
        <ele>588.2</ele>
        <time>2023-08-30T15:58:48Z</time>
      </trkpt>
      <trkpt lat="46.40006" lon="5.66365">
        <ele>588.2</ele>
        <time>2023-08-30T15:58:49Z</time>
      </trkpt>
      <trkpt lat="46.40003" lon="5.66363">
        <ele>587.2</ele>
        <time>2023-08-30T15:58:50Z</time>
      </trkpt>
      <trkpt lat="46.39998" lon="5.66361">
        <ele>587.6</ele>
        <time>2023-08-30T15:58:51Z</time>
      </trkpt>
      <trkpt lat="46.39993" lon="5.66359">
        <ele>587.6</ele>
        <time>2023-08-30T15:58:52Z</time>
      </trkpt>
      <trkpt lat="46.39989" lon="5.66356">
        <ele>587.6</ele>
        <time>2023-08-30T15:58:53Z</time>
      </trkpt>
      <trkpt lat="46.39985" lon="5.66352">
        <ele>588.4</ele>
        <time>2023-08-30T15:58:54Z</time>
      </trkpt>
      <trkpt lat="46.39981" lon="5.66348">
        <ele>588.4</ele>
        <time>2023-08-30T15:58:55Z</time>
      </trkpt>
      <trkpt lat="46.39977" lon="5.66344">
        <ele>589.6</ele>
        <time>2023-08-30T15:58:56Z</time>
      </trkpt>
      <trkpt lat="46.39974" lon="5.66339">
        <ele>589.6</ele>
        <time>2023-08-30T15:58:57Z</time>
      </trkpt>
      <trkpt lat="46.39971" lon="5.66335">
        <ele>589.6</ele>
        <time>2023-08-30T15:58:58Z</time>
      </trkpt>
      <trkpt lat="46.39969" lon="5.6633">
        <ele>589.6</ele>
        <time>2023-08-30T15:58:59Z</time>
      </trkpt>
      <trkpt lat="46.39966" lon="5.66326">
        <ele>589</ele>
        <time>2023-08-30T15:59:00Z</time>
      </trkpt>
      <trkpt lat="46.39963" lon="5.66322">
        <ele>589</ele>
        <time>2023-08-30T15:59:01Z</time>
      </trkpt>
      <trkpt lat="46.3996" lon="5.66318">
        <ele>589</ele>
        <time>2023-08-30T15:59:02Z</time>
      </trkpt>
      <trkpt lat="46.39958" lon="5.66314">
        <ele>589</ele>
        <time>2023-08-30T15:59:03Z</time>
      </trkpt>
      <trkpt lat="46.39956" lon="5.6631">
        <ele>589.4</ele>
        <time>2023-08-30T15:59:04Z</time>
      </trkpt>
      <trkpt lat="46.39953" lon="5.66306">
        <ele>589.6</ele>
        <time>2023-08-30T15:59:05Z</time>
      </trkpt>
      <trkpt lat="46.39951" lon="5.66302">
        <ele>589.6</ele>
        <time>2023-08-30T15:59:06Z</time>
      </trkpt>
      <trkpt lat="46.39948" lon="5.66298">
        <ele>589.6</ele>
        <time>2023-08-30T15:59:07Z</time>
      </trkpt>
      <trkpt lat="46.39944" lon="5.66295">
        <ele>589.6</ele>
        <time>2023-08-30T15:59:08Z</time>
      </trkpt>
      <trkpt lat="46.39941" lon="5.66293">
        <ele>589.8</ele>
        <time>2023-08-30T15:59:09Z</time>
      </trkpt>
      <trkpt lat="46.39938" lon="5.66292">
        <ele>589.8</ele>
        <time>2023-08-30T15:59:10Z</time>
      </trkpt>
      <trkpt lat="46.39935" lon="5.66292">
        <ele>589.8</ele>
        <time>2023-08-30T15:59:11Z</time>
      </trkpt>
      <trkpt lat="46.39933" lon="5.66293">
        <ele>589.8</ele>
        <time>2023-08-30T15:59:12Z</time>
      </trkpt>
      <trkpt lat="46.39931" lon="5.66296">
        <ele>589.8</ele>
        <time>2023-08-30T15:59:13Z</time>
      </trkpt>
      <trkpt lat="46.3993" lon="5.663">
        <ele>589.8</ele>
        <time>2023-08-30T15:59:14Z</time>
      </trkpt>
      <trkpt lat="46.39929" lon="5.66304">
        <ele>590</ele>
        <time>2023-08-30T15:59:15Z</time>
      </trkpt>
      <trkpt lat="46.39929" lon="5.66307">
        <ele>590</ele>
        <time>2023-08-30T15:59:16Z</time>
      </trkpt>
      <trkpt lat="46.3993" lon="5.66311">
        <ele>590</ele>
        <time>2023-08-30T15:59:17Z</time>
      </trkpt>
      <trkpt lat="46.39932" lon="5.66314">
        <ele>589.8</ele>
        <time>2023-08-30T15:59:18Z</time>
      </trkpt>
      <trkpt lat="46.39933" lon="5.66318">
        <ele>589.8</ele>
        <time>2023-08-30T15:59:19Z</time>
      </trkpt>
      <trkpt lat="46.39934" lon="5.66322">
        <ele>589.8</ele>
        <time>2023-08-30T15:59:20Z</time>
      </trkpt>
      <trkpt lat="46.39936" lon="5.66326">
        <ele>589.8</ele>
        <time>2023-08-30T15:59:21Z</time>
      </trkpt>
      <trkpt lat="46.39937" lon="5.66329">
        <ele>589.4</ele>
        <time>2023-08-30T15:59:22Z</time>
      </trkpt>
      <trkpt lat="46.39939" lon="5.66333">
        <ele>589.6</ele>
        <time>2023-08-30T15:59:23Z</time>
      </trkpt>
      <trkpt lat="46.39941" lon="5.66337">
        <ele>589.6</ele>
        <time>2023-08-30T15:59:24Z</time>
      </trkpt>
      <trkpt lat="46.39942" lon="5.6634">
        <ele>589.6</ele>
        <time>2023-08-30T15:59:25Z</time>
      </trkpt>
      <trkpt lat="46.39944" lon="5.66344">
        <ele>589.6</ele>
        <time>2023-08-30T15:59:26Z</time>
      </trkpt>
      <trkpt lat="46.39946" lon="5.66348">
        <ele>588.8</ele>
        <time>2023-08-30T15:59:27Z</time>
      </trkpt>
      <trkpt lat="46.39948" lon="5.66352">
        <ele>588.8</ele>
        <time>2023-08-30T15:59:28Z</time>
      </trkpt>
      <trkpt lat="46.3995" lon="5.66356">
        <ele>588.6</ele>
        <time>2023-08-30T15:59:29Z</time>
      </trkpt>
      <trkpt lat="46.39952" lon="5.6636">
        <ele>588.6</ele>
        <time>2023-08-30T15:59:30Z</time>
      </trkpt>
      <trkpt lat="46.39954" lon="5.66365">
        <ele>588.2</ele>
        <time>2023-08-30T15:59:31Z</time>
      </trkpt>
      <trkpt lat="46.39956" lon="5.66368">
        <ele>588.2</ele>
        <time>2023-08-30T15:59:32Z</time>
      </trkpt>
      <trkpt lat="46.39958" lon="5.66372">
        <ele>588.2</ele>
        <time>2023-08-30T15:59:33Z</time>
      </trkpt>
      <trkpt lat="46.3996" lon="5.66376">
        <ele>588.2</ele>
        <time>2023-08-30T15:59:34Z</time>
      </trkpt>
      <trkpt lat="46.39962" lon="5.6638">
        <ele>587.4</ele>
        <time>2023-08-30T15:59:35Z</time>
      </trkpt>
      <trkpt lat="46.39964" lon="5.66384">
        <ele>587.4</ele>
        <time>2023-08-30T15:59:36Z</time>
      </trkpt>
      <trkpt lat="46.39966" lon="5.66389">
        <ele>587.4</ele>
        <time>2023-08-30T15:59:37Z</time>
      </trkpt>
      <trkpt lat="46.39968" lon="5.66393">
        <ele>587.2</ele>
        <time>2023-08-30T15:59:38Z</time>
      </trkpt>
      <trkpt lat="46.3997" lon="5.66398">
        <ele>587.2</ele>
        <time>2023-08-30T15:59:39Z</time>
      </trkpt>
      <trkpt lat="46.39972" lon="5.66402">
        <ele>586.6</ele>
        <time>2023-08-30T15:59:40Z</time>
      </trkpt>
      <trkpt lat="46.39974" lon="5.66407">
        <ele>586.2</ele>
        <time>2023-08-30T15:59:41Z</time>
      </trkpt>
      <trkpt lat="46.39976" lon="5.66412">
        <ele>586.2</ele>
        <time>2023-08-30T15:59:42Z</time>
      </trkpt>
      <trkpt lat="46.39978" lon="5.66417">
        <ele>586.2</ele>
        <time>2023-08-30T15:59:43Z</time>
      </trkpt>
      <trkpt lat="46.39981" lon="5.66422">
        <ele>585.8</ele>
        <time>2023-08-30T15:59:44Z</time>
      </trkpt>
      <trkpt lat="46.39983" lon="5.66427">
        <ele>585.8</ele>
        <time>2023-08-30T15:59:45Z</time>
      </trkpt>
      <trkpt lat="46.39986" lon="5.66432">
        <ele>585.4</ele>
        <time>2023-08-30T15:59:46Z</time>
      </trkpt>
      <trkpt lat="46.39989" lon="5.66438">
        <ele>585.4</ele>
        <time>2023-08-30T15:59:47Z</time>
      </trkpt>
      <trkpt lat="46.39992" lon="5.66443">
        <ele>585.4</ele>
        <time>2023-08-30T15:59:48Z</time>
      </trkpt>
      <trkpt lat="46.39995" lon="5.66449">
        <ele>585.4</ele>
        <time>2023-08-30T15:59:49Z</time>
      </trkpt>
      <trkpt lat="46.39999" lon="5.66455">
        <ele>584.6</ele>
        <time>2023-08-30T15:59:50Z</time>
      </trkpt>
      <trkpt lat="46.40003" lon="5.66462">
        <ele>584.4</ele>
        <time>2023-08-30T15:59:51Z</time>
      </trkpt>
      <trkpt lat="46.40008" lon="5.66468">
        <ele>584.4</ele>
        <time>2023-08-30T15:59:52Z</time>
      </trkpt>
      <trkpt lat="46.40012" lon="5.66475">
        <ele>584.4</ele>
        <time>2023-08-30T15:59:53Z</time>
      </trkpt>
      <trkpt lat="46.40017" lon="5.66483">
        <ele>584.4</ele>
        <time>2023-08-30T15:59:54Z</time>
      </trkpt>
      <trkpt lat="46.40022" lon="5.6649">
        <ele>584</ele>
        <time>2023-08-30T15:59:55Z</time>
      </trkpt>
      <trkpt lat="46.40027" lon="5.66497">
        <ele>584</ele>
        <time>2023-08-30T15:59:56Z</time>
      </trkpt>
      <trkpt lat="46.40032" lon="5.66505">
        <ele>584</ele>
        <time>2023-08-30T15:59:57Z</time>
      </trkpt>
      <trkpt lat="46.40037" lon="5.66512">
        <ele>584</ele>
        <time>2023-08-30T15:59:58Z</time>
      </trkpt>
      <trkpt lat="46.40042" lon="5.6652">
        <ele>584</ele>
        <time>2023-08-30T15:59:59Z</time>
      </trkpt>
      <trkpt lat="46.40047" lon="5.66528">
        <ele>584</ele>
        <time>2023-08-30T16:00:00Z</time>
      </trkpt>
      <trkpt lat="46.40053" lon="5.66536">
        <ele>584</ele>
        <time>2023-08-30T16:00:01Z</time>
      </trkpt>
      <trkpt lat="46.40058" lon="5.66544">
        <ele>584</ele>
        <time>2023-08-30T16:00:02Z</time>
      </trkpt>
      <trkpt lat="46.40064" lon="5.66552">
        <ele>584</ele>
        <time>2023-08-30T16:00:03Z</time>
      </trkpt>
      <trkpt lat="46.40069" lon="5.6656">
        <ele>583.8</ele>
        <time>2023-08-30T16:00:04Z</time>
      </trkpt>
      <trkpt lat="46.40075" lon="5.66568">
        <ele>583.8</ele>
        <time>2023-08-30T16:00:05Z</time>
      </trkpt>
      <trkpt lat="46.40081" lon="5.66576">
        <ele>583.8</ele>
        <time>2023-08-30T16:00:06Z</time>
      </trkpt>
      <trkpt lat="46.40086" lon="5.66584">
        <ele>584.2</ele>
        <time>2023-08-30T16:00:07Z</time>
      </trkpt>
      <trkpt lat="46.40092" lon="5.66593">
        <ele>584.2</ele>
        <time>2023-08-30T16:00:08Z</time>
      </trkpt>
      <trkpt lat="46.40098" lon="5.66601">
        <ele>584.2</ele>
        <time>2023-08-30T16:00:09Z</time>
      </trkpt>
      <trkpt lat="46.40103" lon="5.66609">
        <ele>584.2</ele>
        <time>2023-08-30T16:00:10Z</time>
      </trkpt>
      <trkpt lat="46.40109" lon="5.66617">
        <ele>584.2</ele>
        <time>2023-08-30T16:00:11Z</time>
      </trkpt>
      <trkpt lat="46.40114" lon="5.66625">
        <ele>584.6</ele>
        <time>2023-08-30T16:00:12Z</time>
      </trkpt>
      <trkpt lat="46.4012" lon="5.66633">
        <ele>584.6</ele>
        <time>2023-08-30T16:00:13Z</time>
      </trkpt>
      <trkpt lat="46.40125" lon="5.66641">
        <ele>584.6</ele>
        <time>2023-08-30T16:00:14Z</time>
      </trkpt>
      <trkpt lat="46.4013" lon="5.66649">
        <ele>584.6</ele>
        <time>2023-08-30T16:00:15Z</time>
      </trkpt>
      <trkpt lat="46.40136" lon="5.66657">
        <ele>584.8</ele>
        <time>2023-08-30T16:00:16Z</time>
      </trkpt>
      <trkpt lat="46.40141" lon="5.66665">
        <ele>585</ele>
        <time>2023-08-30T16:00:17Z</time>
      </trkpt>
      <trkpt lat="46.40146" lon="5.66672">
        <ele>585</ele>
        <time>2023-08-30T16:00:18Z</time>
      </trkpt>
      <trkpt lat="46.40152" lon="5.6668">
        <ele>585</ele>
        <time>2023-08-30T16:00:19Z</time>
      </trkpt>
      <trkpt lat="46.40157" lon="5.66688">
        <ele>585</ele>
        <time>2023-08-30T16:00:20Z</time>
      </trkpt>
      <trkpt lat="46.40162" lon="5.66695">
        <ele>585</ele>
        <time>2023-08-30T16:00:21Z</time>
      </trkpt>
      <trkpt lat="46.40168" lon="5.66702">
        <ele>584.8</ele>
        <time>2023-08-30T16:00:22Z</time>
      </trkpt>
      <trkpt lat="46.40173" lon="5.6671">
        <ele>584.8</ele>
        <time>2023-08-30T16:00:23Z</time>
      </trkpt>
      <trkpt lat="46.40178" lon="5.66717">
        <ele>584.8</ele>
        <time>2023-08-30T16:00:24Z</time>
      </trkpt>
      <trkpt lat="46.40183" lon="5.66724">
        <ele>585.2</ele>
        <time>2023-08-30T16:00:25Z</time>
      </trkpt>
      <trkpt lat="46.40188" lon="5.66732">
        <ele>585</ele>
        <time>2023-08-30T16:00:26Z</time>
      </trkpt>
      <trkpt lat="46.40192" lon="5.66739">
        <ele>585</ele>
        <time>2023-08-30T16:00:27Z</time>
      </trkpt>
      <trkpt lat="46.40197" lon="5.66746">
        <ele>585</ele>
        <time>2023-08-30T16:00:28Z</time>
      </trkpt>
      <trkpt lat="46.40202" lon="5.66752">
        <ele>585</ele>
        <time>2023-08-30T16:00:29Z</time>
      </trkpt>
      <trkpt lat="46.40206" lon="5.66758">
        <ele>585.4</ele>
        <time>2023-08-30T16:00:30Z</time>
      </trkpt>
      <trkpt lat="46.40211" lon="5.66764">
        <ele>585.4</ele>
        <time>2023-08-30T16:00:31Z</time>
      </trkpt>
      <trkpt lat="46.40216" lon="5.6677">
        <ele>585.4</ele>
        <time>2023-08-30T16:00:32Z</time>
      </trkpt>
      <trkpt lat="46.40221" lon="5.66774">
        <ele>585.4</ele>
        <time>2023-08-30T16:00:33Z</time>
      </trkpt>
      <trkpt lat="46.40227" lon="5.66779">
        <ele>585.4</ele>
        <time>2023-08-30T16:00:34Z</time>
      </trkpt>
      <trkpt lat="46.40232" lon="5.66783">
        <ele>586</ele>
        <time>2023-08-30T16:00:35Z</time>
      </trkpt>
      <trkpt lat="46.40237" lon="5.66786">
        <ele>586.2</ele>
        <time>2023-08-30T16:00:36Z</time>
      </trkpt>
      <trkpt lat="46.40242" lon="5.6679">
        <ele>586.2</ele>
        <time>2023-08-30T16:00:37Z</time>
      </trkpt>
      <trkpt lat="46.40248" lon="5.66793">
        <ele>586.2</ele>
        <time>2023-08-30T16:00:38Z</time>
      </trkpt>
      <trkpt lat="46.40253" lon="5.66795">
        <ele>586.2</ele>
        <time>2023-08-30T16:00:39Z</time>
      </trkpt>
      <trkpt lat="46.4026" lon="5.66798">
        <ele>586.4</ele>
        <time>2023-08-30T16:00:40Z</time>
      </trkpt>
      <trkpt lat="46.40266" lon="5.66799">
        <ele>586.4</ele>
        <time>2023-08-30T16:00:41Z</time>
      </trkpt>
      <trkpt lat="46.40273" lon="5.66799">
        <ele>586.4</ele>
        <time>2023-08-30T16:00:42Z</time>
      </trkpt>
      <trkpt lat="46.4028" lon="5.66799">
        <ele>586.4</ele>
        <time>2023-08-30T16:00:43Z</time>
      </trkpt>
      <trkpt lat="46.40288" lon="5.668">
        <ele>586.4</ele>
        <time>2023-08-30T16:00:44Z</time>
      </trkpt>
      <trkpt lat="46.40296" lon="5.668">
        <ele>587</ele>
        <time>2023-08-30T16:00:45Z</time>
      </trkpt>
      <trkpt lat="46.40303" lon="5.66803">
        <ele>587</ele>
        <time>2023-08-30T16:00:46Z</time>
      </trkpt>
      <trkpt lat="46.40311" lon="5.66807">
        <ele>587</ele>
        <time>2023-08-30T16:00:47Z</time>
      </trkpt>
      <trkpt lat="46.40318" lon="5.66814">
        <ele>587</ele>
        <time>2023-08-30T16:00:48Z</time>
      </trkpt>
      <trkpt lat="46.40323" lon="5.66824">
        <ele>587.4</ele>
        <time>2023-08-30T16:00:49Z</time>
      </trkpt>
      <trkpt lat="46.40326" lon="5.66835">
        <ele>587.4</ele>
        <time>2023-08-30T16:00:50Z</time>
      </trkpt>
      <trkpt lat="46.40327" lon="5.66847">
        <ele>587.4</ele>
        <time>2023-08-30T16:00:51Z</time>
      </trkpt>
      <trkpt lat="46.40327" lon="5.66858">
        <ele>587.4</ele>
        <time>2023-08-30T16:00:52Z</time>
      </trkpt>
      <trkpt lat="46.40324" lon="5.66866">
        <ele>587.4</ele>
        <time>2023-08-30T16:00:53Z</time>
      </trkpt>
      <trkpt lat="46.40322" lon="5.66872">
        <ele>588</ele>
        <time>2023-08-30T16:00:54Z</time>
      </trkpt>
      <trkpt lat="46.40319" lon="5.66876">
        <ele>588</ele>
        <time>2023-08-30T16:00:55Z</time>
      </trkpt>
      <trkpt lat="46.40317" lon="5.6688">
        <ele>588</ele>
        <time>2023-08-30T16:00:56Z</time>
      </trkpt>
      <trkpt lat="46.40314" lon="5.66883">
        <ele>588.4</ele>
        <time>2023-08-30T16:00:57Z</time>
      </trkpt>
      <trkpt lat="46.40312" lon="5.66885">
        <ele>588.4</ele>
        <time>2023-08-30T16:00:58Z</time>
      </trkpt>
      <trkpt lat="46.4031" lon="5.66887">
        <ele>588.6</ele>
        <time>2023-08-30T16:00:59Z</time>
      </trkpt>
      <trkpt lat="46.40307" lon="5.6689">
        <ele>588.6</ele>
        <time>2023-08-30T16:01:00Z</time>
      </trkpt>
      <trkpt lat="46.40303" lon="5.66891">
        <ele>588.6</ele>
        <time>2023-08-30T16:01:01Z</time>
      </trkpt>
      <trkpt lat="46.40299" lon="5.66893">
        <ele>588.6</ele>
        <time>2023-08-30T16:01:02Z</time>
      </trkpt>
      <trkpt lat="46.40295" lon="5.66894">
        <ele>589</ele>
        <time>2023-08-30T16:01:03Z</time>
      </trkpt>
      <trkpt lat="46.40291" lon="5.66892">
        <ele>589</ele>
        <time>2023-08-30T16:01:04Z</time>
      </trkpt>
      <trkpt lat="46.40287" lon="5.66891">
        <ele>589</ele>
        <time>2023-08-30T16:01:05Z</time>
      </trkpt>
      <trkpt lat="46.40282" lon="5.66889">
        <ele>589</ele>
        <time>2023-08-30T16:01:06Z</time>
      </trkpt>
      <trkpt lat="46.40277" lon="5.66887">
        <ele>589.2</ele>
        <time>2023-08-30T16:01:07Z</time>
      </trkpt>
      <trkpt lat="46.40273" lon="5.66883">
        <ele>589.2</ele>
        <time>2023-08-30T16:01:08Z</time>
      </trkpt>
      <trkpt lat="46.40268" lon="5.66879">
        <ele>589.2</ele>
        <time>2023-08-30T16:01:09Z</time>
      </trkpt>
      <trkpt lat="46.40263" lon="5.66874">
        <ele>589.2</ele>
        <time>2023-08-30T16:01:10Z</time>
      </trkpt>
      <trkpt lat="46.40257" lon="5.66869">
        <ele>589.6</ele>
        <time>2023-08-30T16:01:11Z</time>
      </trkpt>
      <trkpt lat="46.40252" lon="5.66864">
        <ele>589.4</ele>
        <time>2023-08-30T16:01:12Z</time>
      </trkpt>
      <trkpt lat="46.40247" lon="5.66859">
        <ele>589.4</ele>
        <time>2023-08-30T16:01:13Z</time>
      </trkpt>
      <trkpt lat="46.40241" lon="5.66853">
        <ele>589.4</ele>
        <time>2023-08-30T16:01:14Z</time>
      </trkpt>
      <trkpt lat="46.40236" lon="5.66847">
        <ele>589.4</ele>
        <time>2023-08-30T16:01:15Z</time>
      </trkpt>
      <trkpt lat="46.4023" lon="5.6684">
        <ele>589.8</ele>
        <time>2023-08-30T16:01:16Z</time>
      </trkpt>
      <trkpt lat="46.40224" lon="5.66834">
        <ele>590</ele>
        <time>2023-08-30T16:01:17Z</time>
      </trkpt>
      <trkpt lat="46.40218" lon="5.66827">
        <ele>590</ele>
        <time>2023-08-30T16:01:18Z</time>
      </trkpt>
      <trkpt lat="46.40212" lon="5.66821">
        <ele>590</ele>
        <time>2023-08-30T16:01:19Z</time>
      </trkpt>
      <trkpt lat="46.40205" lon="5.66814">
        <ele>590</ele>
        <time>2023-08-30T16:01:20Z</time>
      </trkpt>
      <trkpt lat="46.40199" lon="5.66807">
        <ele>590</ele>
        <time>2023-08-30T16:01:21Z</time>
      </trkpt>
      <trkpt lat="46.40192" lon="5.668">
        <ele>590</ele>
        <time>2023-08-30T16:01:22Z</time>
      </trkpt>
      <trkpt lat="46.40185" lon="5.66792">
        <ele>590</ele>
        <time>2023-08-30T16:01:23Z</time>
      </trkpt>
      <trkpt lat="46.40178" lon="5.66785">
        <ele>590</ele>
        <time>2023-08-30T16:01:24Z</time>
      </trkpt>
      <trkpt lat="46.40171" lon="5.66777">
        <ele>590.4</ele>
        <time>2023-08-30T16:01:25Z</time>
      </trkpt>
      <trkpt lat="46.40164" lon="5.6677">
        <ele>590.4</ele>
        <time>2023-08-30T16:01:26Z</time>
      </trkpt>
      <trkpt lat="46.40157" lon="5.66762">
        <ele>590.4</ele>
        <time>2023-08-30T16:01:27Z</time>
      </trkpt>
      <trkpt lat="46.4015" lon="5.66755">
        <ele>590.4</ele>
        <time>2023-08-30T16:01:28Z</time>
      </trkpt>
      <trkpt lat="46.40143" lon="5.66747">
        <ele>590.4</ele>
        <time>2023-08-30T16:01:29Z</time>
      </trkpt>
      <trkpt lat="46.40135" lon="5.66739">
        <ele>590.4</ele>
        <time>2023-08-30T16:01:30Z</time>
      </trkpt>
      <trkpt lat="46.40128" lon="5.66731">
        <ele>590.4</ele>
        <time>2023-08-30T16:01:31Z</time>
      </trkpt>
      <trkpt lat="46.4012" lon="5.66723">
        <ele>590.4</ele>
        <time>2023-08-30T16:01:32Z</time>
      </trkpt>
      <trkpt lat="46.40113" lon="5.66715">
        <ele>590.4</ele>
        <time>2023-08-30T16:01:33Z</time>
      </trkpt>
      <trkpt lat="46.40105" lon="5.66707">
        <ele>590.6</ele>
        <time>2023-08-30T16:01:34Z</time>
      </trkpt>
      <trkpt lat="46.40097" lon="5.66699">
        <ele>590.6</ele>
        <time>2023-08-30T16:01:35Z</time>
      </trkpt>
      <trkpt lat="46.40089" lon="5.6669">
        <ele>590.8</ele>
        <time>2023-08-30T16:01:36Z</time>
      </trkpt>
      <trkpt lat="46.40081" lon="5.66682">
        <ele>590.8</ele>
        <time>2023-08-30T16:01:37Z</time>
      </trkpt>
      <trkpt lat="46.40074" lon="5.66673">
        <ele>590.8</ele>
        <time>2023-08-30T16:01:38Z</time>
      </trkpt>
      <trkpt lat="46.40066" lon="5.66665">
        <ele>591.2</ele>
        <time>2023-08-30T16:01:39Z</time>
      </trkpt>
      <trkpt lat="46.40058" lon="5.66657">
        <ele>591</ele>
        <time>2023-08-30T16:01:40Z</time>
      </trkpt>
      <trkpt lat="46.4005" lon="5.66649">
        <ele>591</ele>
        <time>2023-08-30T16:01:41Z</time>
      </trkpt>
      <trkpt lat="46.40042" lon="5.66641">
        <ele>591</ele>
        <time>2023-08-30T16:01:42Z</time>
      </trkpt>
      <trkpt lat="46.40034" lon="5.66632">
        <ele>591</ele>
        <time>2023-08-30T16:01:43Z</time>
      </trkpt>
      <trkpt lat="46.40026" lon="5.66623">
        <ele>591</ele>
        <time>2023-08-30T16:01:44Z</time>
      </trkpt>
      <trkpt lat="46.40018" lon="5.66615">
        <ele>591</ele>
        <time>2023-08-30T16:01:45Z</time>
      </trkpt>
      <trkpt lat="46.4001" lon="5.66608">
        <ele>591</ele>
        <time>2023-08-30T16:01:46Z</time>
      </trkpt>
      <trkpt lat="46.40002" lon="5.66601">
        <ele>591</ele>
        <time>2023-08-30T16:01:47Z</time>
      </trkpt>
      <trkpt lat="46.39995" lon="5.66596">
        <ele>591.4</ele>
        <time>2023-08-30T16:01:48Z</time>
      </trkpt>
      <trkpt lat="46.3999" lon="5.6659">
        <ele>591.4</ele>
        <time>2023-08-30T16:01:49Z</time>
      </trkpt>
      <trkpt lat="46.39984" lon="5.66585">
        <ele>591.4</ele>
        <time>2023-08-30T16:01:50Z</time>
      </trkpt>
      <trkpt lat="46.39979" lon="5.66579">
        <ele>591.4</ele>
        <time>2023-08-30T16:01:51Z</time>
      </trkpt>
      <trkpt lat="46.39975" lon="5.66574">
        <ele>591.4</ele>
        <time>2023-08-30T16:01:52Z</time>
      </trkpt>
      <trkpt lat="46.3997" lon="5.6657">
        <ele>591.6</ele>
        <time>2023-08-30T16:01:53Z</time>
      </trkpt>
      <trkpt lat="46.39967" lon="5.66568">
        <ele>591.6</ele>
        <time>2023-08-30T16:01:54Z</time>
      </trkpt>
      <trkpt lat="46.39964" lon="5.66567">
        <ele>591.6</ele>
        <time>2023-08-30T16:01:55Z</time>
      </trkpt>
      <trkpt lat="46.39963" lon="5.66566">
        <ele>591.6</ele>
        <time>2023-08-30T16:01:56Z</time>
      </trkpt>
      <trkpt lat="46.39961" lon="5.66563">
        <ele>591.8</ele>
        <time>2023-08-30T16:01:57Z</time>
      </trkpt>
      <trkpt lat="46.39959" lon="5.6656">
        <ele>591.8</ele>
        <time>2023-08-30T16:01:58Z</time>
      </trkpt>
      <trkpt lat="46.39957" lon="5.66557">
        <ele>591.8</ele>
        <time>2023-08-30T16:01:59Z</time>
      </trkpt>
      <trkpt lat="46.39955" lon="5.66553">
        <ele>591.8</ele>
        <time>2023-08-30T16:02:00Z</time>
      </trkpt>
      <trkpt lat="46.39953" lon="5.6655">
        <ele>591.8</ele>
        <time>2023-08-30T16:02:01Z</time>
      </trkpt>
      <trkpt lat="46.39951" lon="5.66547">
        <ele>591.8</ele>
        <time>2023-08-30T16:02:02Z</time>
      </trkpt>
      <trkpt lat="46.3995" lon="5.66545">
        <ele>591.8</ele>
        <time>2023-08-30T16:02:03Z</time>
      </trkpt>
      <trkpt lat="46.39949" lon="5.66544">
        <ele>591.8</ele>
        <time>2023-08-30T16:02:04Z</time>
      </trkpt>
      <trkpt lat="46.39949" lon="5.66544">
        <ele>591.8</ele>
        <time>2023-08-30T16:02:05Z</time>
      </trkpt>
      <trkpt lat="46.39948" lon="5.66543">
        <ele>591.8</ele>
        <time>2023-08-30T16:02:06Z</time>
      </trkpt>
      <trkpt lat="46.39947" lon="5.6654">
        <ele>588.6</ele>
        <time>2023-08-30T16:02:46Z</time>
      </trkpt>
      <trkpt lat="46.39946" lon="5.66537">
        <ele>588.6</ele>
        <time>2023-08-30T16:02:47Z</time>
      </trkpt>
      <trkpt lat="46.39945" lon="5.66534">
        <ele>588.6</ele>
        <time>2023-08-30T16:02:48Z</time>
      </trkpt>
      <trkpt lat="46.39943" lon="5.6653">
        <ele>588.2</ele>
        <time>2023-08-30T16:02:49Z</time>
      </trkpt>
      <trkpt lat="46.39942" lon="5.66526">
        <ele>588</ele>
        <time>2023-08-30T16:02:50Z</time>
      </trkpt>
      <trkpt lat="46.39939" lon="5.66522">
        <ele>588</ele>
        <time>2023-08-30T16:02:51Z</time>
      </trkpt>
      <trkpt lat="46.39936" lon="5.66518">
        <ele>588</ele>
        <time>2023-08-30T16:02:52Z</time>
      </trkpt>
      <trkpt lat="46.39934" lon="5.66513">
        <ele>587.6</ele>
        <time>2023-08-30T16:02:53Z</time>
      </trkpt>
      <trkpt lat="46.39931" lon="5.66508">
        <ele>587.2</ele>
        <time>2023-08-30T16:02:54Z</time>
      </trkpt>
      <trkpt lat="46.39928" lon="5.66502">
        <ele>587.2</ele>
        <time>2023-08-30T16:02:55Z</time>
      </trkpt>
      <trkpt lat="46.39924" lon="5.66496">
        <ele>587.2</ele>
        <time>2023-08-30T16:02:56Z</time>
      </trkpt>
      <trkpt lat="46.3992" lon="5.6649">
        <ele>587.2</ele>
        <time>2023-08-30T16:02:57Z</time>
      </trkpt>
      <trkpt lat="46.39917" lon="5.66484">
        <ele>587.2</ele>
        <time>2023-08-30T16:02:58Z</time>
      </trkpt>
      <trkpt lat="46.39913" lon="5.66477">
        <ele>587</ele>
        <time>2023-08-30T16:02:59Z</time>
      </trkpt>
      <trkpt lat="46.39909" lon="5.6647">
        <ele>587</ele>
        <time>2023-08-30T16:03:00Z</time>
      </trkpt>
      <trkpt lat="46.39905" lon="5.66463">
        <ele>587</ele>
        <time>2023-08-30T16:03:01Z</time>
      </trkpt>
      <trkpt lat="46.399" lon="5.66456">
        <ele>587</ele>
        <time>2023-08-30T16:03:02Z</time>
      </trkpt>
      <trkpt lat="46.39895" lon="5.66449">
        <ele>586.6</ele>
        <time>2023-08-30T16:03:03Z</time>
      </trkpt>
      <trkpt lat="46.3989" lon="5.66441">
        <ele>586.6</ele>
        <time>2023-08-30T16:03:04Z</time>
      </trkpt>
      <trkpt lat="46.39885" lon="5.66434">
        <ele>586.6</ele>
        <time>2023-08-30T16:03:05Z</time>
      </trkpt>
      <trkpt lat="46.3988" lon="5.66426">
        <ele>586.4</ele>
        <time>2023-08-30T16:03:06Z</time>
      </trkpt>
      <trkpt lat="46.39874" lon="5.66418">
        <ele>586.2</ele>
        <time>2023-08-30T16:03:07Z</time>
      </trkpt>
      <trkpt lat="46.39868" lon="5.6641">
        <ele>586.2</ele>
        <time>2023-08-30T16:03:08Z</time>
      </trkpt>
      <trkpt lat="46.39862" lon="5.66402">
        <ele>586.2</ele>
        <time>2023-08-30T16:03:09Z</time>
      </trkpt>
      <trkpt lat="46.39856" lon="5.66394">
        <ele>586.2</ele>
        <time>2023-08-30T16:03:10Z</time>
      </trkpt>
      <trkpt lat="46.3985" lon="5.66386">
        <ele>586.2</ele>
        <time>2023-08-30T16:03:11Z</time>
      </trkpt>
      <trkpt lat="46.39843" lon="5.66379">
        <ele>586</ele>
        <time>2023-08-30T16:03:12Z</time>
      </trkpt>
      <trkpt lat="46.39837" lon="5.66371">
        <ele>586</ele>
        <time>2023-08-30T16:03:13Z</time>
      </trkpt>
      <trkpt lat="46.3983" lon="5.66363">
        <ele>586</ele>
        <time>2023-08-30T16:03:14Z</time>
      </trkpt>
      <trkpt lat="46.39824" lon="5.66355">
        <ele>585.8</ele>
        <time>2023-08-30T16:03:15Z</time>
      </trkpt>
      <trkpt lat="46.39818" lon="5.66347">
        <ele>586</ele>
        <time>2023-08-30T16:03:16Z</time>
      </trkpt>
      <trkpt lat="46.39812" lon="5.66341">
        <ele>586</ele>
        <time>2023-08-30T16:03:17Z</time>
      </trkpt>
      <trkpt lat="46.39806" lon="5.66335">
        <ele>586</ele>
        <time>2023-08-30T16:03:18Z</time>
      </trkpt>
      <trkpt lat="46.398" lon="5.66329">
        <ele>585</ele>
        <time>2023-08-30T16:03:19Z</time>
      </trkpt>
      <trkpt lat="46.39794" lon="5.66322">
        <ele>585.2</ele>
        <time>2023-08-30T16:03:20Z</time>
      </trkpt>
      <trkpt lat="46.39787" lon="5.66316">
        <ele>585.2</ele>
        <time>2023-08-30T16:03:21Z</time>
      </trkpt>
      <trkpt lat="46.39782" lon="5.6631">
        <ele>585.2</ele>
        <time>2023-08-30T16:03:22Z</time>
      </trkpt>
      <trkpt lat="46.39777" lon="5.66304">
        <ele>585.2</ele>
        <time>2023-08-30T16:03:23Z</time>
      </trkpt>
      <trkpt lat="46.39771" lon="5.66299">
        <ele>585.2</ele>
        <time>2023-08-30T16:03:24Z</time>
      </trkpt>
      <trkpt lat="46.39766" lon="5.66293">
        <ele>584.8</ele>
        <time>2023-08-30T16:03:25Z</time>
      </trkpt>
      <trkpt lat="46.3976" lon="5.66287">
        <ele>585</ele>
        <time>2023-08-30T16:03:26Z</time>
      </trkpt>
      <trkpt lat="46.39755" lon="5.66282">
        <ele>585</ele>
        <time>2023-08-30T16:03:27Z</time>
      </trkpt>
      <trkpt lat="46.39749" lon="5.66276">
        <ele>585</ele>
        <time>2023-08-30T16:03:28Z</time>
      </trkpt>
      <trkpt lat="46.39744" lon="5.66271">
        <ele>585</ele>
        <time>2023-08-30T16:03:29Z</time>
      </trkpt>
      <trkpt lat="46.39739" lon="5.66267">
        <ele>584.6</ele>
        <time>2023-08-30T16:03:30Z</time>
      </trkpt>
      <trkpt lat="46.39735" lon="5.66264">
        <ele>584.6</ele>
        <time>2023-08-30T16:03:31Z</time>
      </trkpt>
      <trkpt lat="46.39731" lon="5.66262">
        <ele>584.6</ele>
        <time>2023-08-30T16:03:32Z</time>
      </trkpt>
      <trkpt lat="46.39727" lon="5.6626">
        <ele>584.4</ele>
        <time>2023-08-30T16:03:33Z</time>
      </trkpt>
      <trkpt lat="46.39724" lon="5.66259">
        <ele>584.4</ele>
        <time>2023-08-30T16:03:34Z</time>
      </trkpt>
      <trkpt lat="46.39722" lon="5.66259">
        <ele>584.2</ele>
        <time>2023-08-30T16:03:35Z</time>
      </trkpt>
      <trkpt lat="46.3972" lon="5.66259">
        <ele>584.2</ele>
        <time>2023-08-30T16:03:36Z</time>
      </trkpt>
      <trkpt lat="46.39718" lon="5.6626">
        <ele>584.2</ele>
        <time>2023-08-30T16:03:37Z</time>
      </trkpt>
      <trkpt lat="46.39717" lon="5.66259">
        <ele>584</ele>
        <time>2023-08-30T16:03:38Z</time>
      </trkpt>
      <trkpt lat="46.39715" lon="5.66259">
        <ele>584.2</ele>
        <time>2023-08-30T16:03:39Z</time>
      </trkpt>
      <trkpt lat="46.39714" lon="5.66258">
        <ele>584.2</ele>
        <time>2023-08-30T16:03:40Z</time>
      </trkpt>
      <trkpt lat="46.39712" lon="5.66257">
        <ele>584.2</ele>
        <time>2023-08-30T16:03:41Z</time>
      </trkpt>
      <trkpt lat="46.39711" lon="5.66256">
        <ele>583.6</ele>
        <time>2023-08-30T16:03:42Z</time>
      </trkpt>
      <trkpt lat="46.39709" lon="5.66254">
        <ele>583.6</ele>
        <time>2023-08-30T16:03:43Z</time>
      </trkpt>
      <trkpt lat="46.39707" lon="5.66252">
        <ele>583.6</ele>
        <time>2023-08-30T16:03:44Z</time>
      </trkpt>
      <trkpt lat="46.39705" lon="5.6625">
        <ele>583.6</ele>
        <time>2023-08-30T16:03:45Z</time>
      </trkpt>
      <trkpt lat="46.39704" lon="5.66249">
        <ele>583.6</ele>
        <time>2023-08-30T16:03:46Z</time>
      </trkpt>
      <trkpt lat="46.39704" lon="5.66249">
        <ele>583.4</ele>
        <time>2023-08-30T16:03:47Z</time>
      </trkpt>
      <trkpt lat="46.39703" lon="5.66248">
        <ele>583</ele>
        <time>2023-08-30T16:03:48Z</time>
      </trkpt>
      <trkpt lat="46.39702" lon="5.66247">
        <ele>583</ele>
        <time>2023-08-30T16:03:49Z</time>
      </trkpt>
      <trkpt lat="46.39702" lon="5.66246">
        <ele>583</ele>
        <time>2023-08-30T16:03:50Z</time>
      </trkpt>
      <trkpt lat="46.39701" lon="5.66246">
        <ele>582.6</ele>
        <time>2023-08-30T16:03:51Z</time>
      </trkpt>
      <trkpt lat="46.397" lon="5.66245">
        <ele>582.4</ele>
        <time>2023-08-30T16:03:52Z</time>
      </trkpt>
      <trkpt lat="46.397" lon="5.66244">
        <ele>537.4</ele>
        <time>2023-08-30T16:07:57Z</time>
      </trkpt>
      <trkpt lat="46.39699" lon="5.66243">
        <ele>537.4</ele>
        <time>2023-08-30T16:07:58Z</time>
      </trkpt>
      <trkpt lat="46.39698" lon="5.66243">
        <ele>537.4</ele>
        <time>2023-08-30T16:07:59Z</time>
      </trkpt>
      <trkpt lat="46.39698" lon="5.66242">
        <ele>537.4</ele>
        <time>2023-08-30T16:08:00Z</time>
      </trkpt>
      <trkpt lat="46.39697" lon="5.66241">
        <ele>536.6</ele>
        <time>2023-08-30T16:08:01Z</time>
      </trkpt>
      <trkpt lat="46.39696" lon="5.6624">
        <ele>536.6</ele>
        <time>2023-08-30T16:08:02Z</time>
      </trkpt>
      <trkpt lat="46.39696" lon="5.6624">
        <ele>536.6</ele>
        <time>2023-08-30T16:08:03Z</time>
      </trkpt>
      <trkpt lat="46.39695" lon="5.66239">
        <ele>536.4</ele>
        <time>2023-08-30T16:08:04Z</time>
      </trkpt>
      <trkpt lat="46.39695" lon="5.66238">
        <ele>536</ele>
        <time>2023-08-30T16:08:05Z</time>
      </trkpt>
      <trkpt lat="46.39694" lon="5.66237">
        <ele>536</ele>
        <time>2023-08-30T16:08:06Z</time>
      </trkpt>
      <trkpt lat="46.39693" lon="5.66237">
        <ele>536</ele>
        <time>2023-08-30T16:08:07Z</time>
      </trkpt>
      <trkpt lat="46.39693" lon="5.66236">
        <ele>536</ele>
        <time>2023-08-30T16:08:08Z</time>
      </trkpt>
      <trkpt lat="46.39692" lon="5.66235">
        <ele>535</ele>
        <time>2023-08-30T16:08:20Z</time>
      </trkpt>
      <trkpt lat="46.39691" lon="5.66234">
        <ele>535</ele>
        <time>2023-08-30T16:08:21Z</time>
      </trkpt>
      <trkpt lat="46.3969" lon="5.6623">
        <ele>534.6</ele>
        <time>2023-08-30T16:08:22Z</time>
      </trkpt>
      <trkpt lat="46.39688" lon="5.66225">
        <ele>534.6</ele>
        <time>2023-08-30T16:08:23Z</time>
      </trkpt>
      <trkpt lat="46.39686" lon="5.6622">
        <ele>534.4</ele>
        <time>2023-08-30T16:08:24Z</time>
      </trkpt>
      <trkpt lat="46.39684" lon="5.66214">
        <ele>534.4</ele>
        <time>2023-08-30T16:08:25Z</time>
      </trkpt>
      <trkpt lat="46.39682" lon="5.66207">
        <ele>534.4</ele>
        <time>2023-08-30T16:08:26Z</time>
      </trkpt>
      <trkpt lat="46.39679" lon="5.662">
        <ele>534</ele>
        <time>2023-08-30T16:08:27Z</time>
      </trkpt>
      <trkpt lat="46.39677" lon="5.66192">
        <ele>534</ele>
        <time>2023-08-30T16:08:28Z</time>
      </trkpt>
      <trkpt lat="46.39675" lon="5.66183">
        <ele>534</ele>
        <time>2023-08-30T16:08:29Z</time>
      </trkpt>
      <trkpt lat="46.39674" lon="5.66174">
        <ele>533.4</ele>
        <time>2023-08-30T16:08:30Z</time>
      </trkpt>
      <trkpt lat="46.39673" lon="5.66164">
        <ele>533.4</ele>
        <time>2023-08-30T16:08:31Z</time>
      </trkpt>
      <trkpt lat="46.39673" lon="5.66153">
        <ele>533.4</ele>
        <time>2023-08-30T16:08:32Z</time>
      </trkpt>
      <trkpt lat="46.39672" lon="5.66142">
        <ele>533.4</ele>
        <time>2023-08-30T16:08:33Z</time>
      </trkpt>
      <trkpt lat="46.39671" lon="5.66131">
        <ele>533.4</ele>
        <time>2023-08-30T16:08:34Z</time>
      </trkpt>
      <trkpt lat="46.39671" lon="5.66119">
        <ele>533</ele>
        <time>2023-08-30T16:08:35Z</time>
      </trkpt>
      <trkpt lat="46.3967" lon="5.66107">
        <ele>533</ele>
        <time>2023-08-30T16:08:36Z</time>
      </trkpt>
      <trkpt lat="46.39668" lon="5.66095">
        <ele>532.8</ele>
        <time>2023-08-30T16:08:37Z</time>
      </trkpt>
      <trkpt lat="46.39665" lon="5.66083">
        <ele>532.8</ele>
        <time>2023-08-30T16:08:38Z</time>
      </trkpt>
      <trkpt lat="46.39661" lon="5.66072">
        <ele>532.8</ele>
        <time>2023-08-30T16:08:39Z</time>
      </trkpt>
      <trkpt lat="46.39655" lon="5.66061">
        <ele>532.8</ele>
        <time>2023-08-30T16:08:40Z</time>
      </trkpt>
      <trkpt lat="46.39649" lon="5.6605">
        <ele>532.6</ele>
        <time>2023-08-30T16:08:41Z</time>
      </trkpt>
      <trkpt lat="46.39643" lon="5.6604">
        <ele>532.6</ele>
        <time>2023-08-30T16:08:42Z</time>
      </trkpt>
      <trkpt lat="46.39636" lon="5.6603">
        <ele>532.6</ele>
        <time>2023-08-30T16:08:43Z</time>
      </trkpt>
      <trkpt lat="46.39629" lon="5.6602">
        <ele>532.6</ele>
        <time>2023-08-30T16:08:44Z</time>
      </trkpt>
      <trkpt lat="46.39622" lon="5.6601">
        <ele>532.4</ele>
        <time>2023-08-30T16:08:45Z</time>
      </trkpt>
      <trkpt lat="46.39616" lon="5.65999">
        <ele>532</ele>
        <time>2023-08-30T16:08:46Z</time>
      </trkpt>
      <trkpt lat="46.39608" lon="5.65988">
        <ele>532</ele>
        <time>2023-08-30T16:08:47Z</time>
      </trkpt>
      <trkpt lat="46.396" lon="5.65978">
        <ele>532</ele>
        <time>2023-08-30T16:08:48Z</time>
      </trkpt>
      <trkpt lat="46.39593" lon="5.65967">
        <ele>532.6</ele>
        <time>2023-08-30T16:08:49Z</time>
      </trkpt>
      <trkpt lat="46.39586" lon="5.65956">
        <ele>532.2</ele>
        <time>2023-08-30T16:08:50Z</time>
      </trkpt>
      <trkpt lat="46.39578" lon="5.65946">
        <ele>532.2</ele>
        <time>2023-08-30T16:08:51Z</time>
      </trkpt>
      <trkpt lat="46.39571" lon="5.65935">
        <ele>532.2</ele>
        <time>2023-08-30T16:08:52Z</time>
      </trkpt>
      <trkpt lat="46.39563" lon="5.65924">
        <ele>532.2</ele>
        <time>2023-08-30T16:08:53Z</time>
      </trkpt>
      <trkpt lat="46.39556" lon="5.65913">
        <ele>532</ele>
        <time>2023-08-30T16:08:54Z</time>
      </trkpt>
      <trkpt lat="46.3955" lon="5.65901">
        <ele>532</ele>
        <time>2023-08-30T16:08:55Z</time>
      </trkpt>
      <trkpt lat="46.39544" lon="5.6589">
        <ele>532</ele>
        <time>2023-08-30T16:08:56Z</time>
      </trkpt>
      <trkpt lat="46.39538" lon="5.65877">
        <ele>532</ele>
        <time>2023-08-30T16:08:57Z</time>
      </trkpt>
      <trkpt lat="46.39533" lon="5.65864">
        <ele>532.4</ele>
        <time>2023-08-30T16:08:58Z</time>
      </trkpt>
      <trkpt lat="46.39529" lon="5.65851">
        <ele>532.4</ele>
        <time>2023-08-30T16:08:59Z</time>
      </trkpt>
      <trkpt lat="46.39525" lon="5.65837">
        <ele>532.4</ele>
        <time>2023-08-30T16:09:00Z</time>
      </trkpt>
      <trkpt lat="46.39522" lon="5.65823">
        <ele>532.4</ele>
        <time>2023-08-30T16:09:01Z</time>
      </trkpt>
      <trkpt lat="46.39518" lon="5.65809">
        <ele>532.4</ele>
        <time>2023-08-30T16:09:02Z</time>
      </trkpt>
      <trkpt lat="46.39514" lon="5.65795">
        <ele>532.2</ele>
        <time>2023-08-30T16:09:03Z</time>
      </trkpt>
      <trkpt lat="46.39511" lon="5.6578">
        <ele>532.2</ele>
        <time>2023-08-30T16:09:04Z</time>
      </trkpt>
      <trkpt lat="46.39507" lon="5.65766">
        <ele>532.2</ele>
        <time>2023-08-30T16:09:05Z</time>
      </trkpt>
      <trkpt lat="46.39504" lon="5.65752">
        <ele>532</ele>
        <time>2023-08-30T16:09:06Z</time>
      </trkpt>
      <trkpt lat="46.395" lon="5.65738">
        <ele>531.8</ele>
        <time>2023-08-30T16:09:07Z</time>
      </trkpt>
      <trkpt lat="46.39498" lon="5.65724">
        <ele>531.8</ele>
        <time>2023-08-30T16:09:08Z</time>
      </trkpt>
      <trkpt lat="46.39496" lon="5.65709">
        <ele>531.8</ele>
        <time>2023-08-30T16:09:09Z</time>
      </trkpt>
      <trkpt lat="46.39495" lon="5.65694">
        <ele>531.8</ele>
        <time>2023-08-30T16:09:10Z</time>
      </trkpt>
      <trkpt lat="46.39495" lon="5.65679">
        <ele>531.8</ele>
        <time>2023-08-30T16:09:11Z</time>
      </trkpt>
      <trkpt lat="46.39495" lon="5.65664">
        <ele>531.4</ele>
        <time>2023-08-30T16:09:12Z</time>
      </trkpt>
      <trkpt lat="46.39496" lon="5.65649">
        <ele>531.4</ele>
        <time>2023-08-30T16:09:13Z</time>
      </trkpt>
      <trkpt lat="46.39497" lon="5.65634">
        <ele>531.4</ele>
        <time>2023-08-30T16:09:14Z</time>
      </trkpt>
      <trkpt lat="46.39498" lon="5.65619">
        <ele>531.2</ele>
        <time>2023-08-30T16:09:15Z</time>
      </trkpt>
      <trkpt lat="46.39498" lon="5.65604">
        <ele>530.8</ele>
        <time>2023-08-30T16:09:16Z</time>
      </trkpt>
      <trkpt lat="46.39498" lon="5.65589">
        <ele>530.8</ele>
        <time>2023-08-30T16:09:17Z</time>
      </trkpt>
      <trkpt lat="46.39498" lon="5.65574">
        <ele>530.8</ele>
        <time>2023-08-30T16:09:18Z</time>
      </trkpt>
      <trkpt lat="46.39497" lon="5.6556">
        <ele>529.8</ele>
        <time>2023-08-30T16:09:19Z</time>
      </trkpt>
      <trkpt lat="46.39496" lon="5.65545">
        <ele>529.8</ele>
        <time>2023-08-30T16:09:20Z</time>
      </trkpt>
      <trkpt lat="46.39494" lon="5.65531">
        <ele>529.8</ele>
        <time>2023-08-30T16:09:21Z</time>
      </trkpt>
      <trkpt lat="46.39493" lon="5.65516">
        <ele>529.8</ele>
        <time>2023-08-30T16:09:22Z</time>
      </trkpt>
      <trkpt lat="46.39491" lon="5.65501">
        <ele>529.8</ele>
        <time>2023-08-30T16:09:23Z</time>
      </trkpt>
      <trkpt lat="46.3949" lon="5.65487">
        <ele>529.8</ele>
        <time>2023-08-30T16:09:24Z</time>
      </trkpt>
      <trkpt lat="46.39488" lon="5.65472">
        <ele>529.6</ele>
        <time>2023-08-30T16:09:25Z</time>
      </trkpt>
      <trkpt lat="46.39487" lon="5.65457">
        <ele>529.2</ele>
        <time>2023-08-30T16:09:26Z</time>
      </trkpt>
      <trkpt lat="46.39485" lon="5.65442">
        <ele>529.2</ele>
        <time>2023-08-30T16:09:27Z</time>
      </trkpt>
      <trkpt lat="46.39483" lon="5.65426">
        <ele>529.2</ele>
        <time>2023-08-30T16:09:28Z</time>
      </trkpt>
      <trkpt lat="46.39482" lon="5.65411">
        <ele>528.8</ele>
        <time>2023-08-30T16:09:29Z</time>
      </trkpt>
      <trkpt lat="46.3948" lon="5.65396">
        <ele>528.2</ele>
        <time>2023-08-30T16:09:30Z</time>
      </trkpt>
      <trkpt lat="46.39478" lon="5.65381">
        <ele>528.2</ele>
        <time>2023-08-30T16:09:31Z</time>
      </trkpt>
      <trkpt lat="46.39477" lon="5.65366">
        <ele>528.2</ele>
        <time>2023-08-30T16:09:32Z</time>
      </trkpt>
      <trkpt lat="46.39475" lon="5.6535">
        <ele>528.2</ele>
        <time>2023-08-30T16:09:33Z</time>
      </trkpt>
      <trkpt lat="46.39474" lon="5.65335">
        <ele>528</ele>
        <time>2023-08-30T16:09:34Z</time>
      </trkpt>
      <trkpt lat="46.39472" lon="5.6532">
        <ele>528</ele>
        <time>2023-08-30T16:09:35Z</time>
      </trkpt>
      <trkpt lat="46.3947" lon="5.65306">
        <ele>528</ele>
        <time>2023-08-30T16:09:36Z</time>
      </trkpt>
      <trkpt lat="46.39468" lon="5.65291">
        <ele>528</ele>
        <time>2023-08-30T16:09:37Z</time>
      </trkpt>
      <trkpt lat="46.39467" lon="5.65276">
        <ele>527.4</ele>
        <time>2023-08-30T16:09:38Z</time>
      </trkpt>
      <trkpt lat="46.39465" lon="5.65262">
        <ele>527.2</ele>
        <time>2023-08-30T16:09:39Z</time>
      </trkpt>
      <trkpt lat="46.39463" lon="5.65247">
        <ele>527.2</ele>
        <time>2023-08-30T16:09:40Z</time>
      </trkpt>
      <trkpt lat="46.3946" lon="5.65232">
        <ele>527.2</ele>
        <time>2023-08-30T16:09:41Z</time>
      </trkpt>
      <trkpt lat="46.39457" lon="5.65218">
        <ele>527</ele>
        <time>2023-08-30T16:09:42Z</time>
      </trkpt>
      <trkpt lat="46.39453" lon="5.65204">
        <ele>526.8</ele>
        <time>2023-08-30T16:09:43Z</time>
      </trkpt>
      <trkpt lat="46.39449" lon="5.65191">
        <ele>526.8</ele>
        <time>2023-08-30T16:09:44Z</time>
      </trkpt>
      <trkpt lat="46.39445" lon="5.65177">
        <ele>526.8</ele>
        <time>2023-08-30T16:09:45Z</time>
      </trkpt>
      <trkpt lat="46.39441" lon="5.65164">
        <ele>526.6</ele>
        <time>2023-08-30T16:09:46Z</time>
      </trkpt>
      <trkpt lat="46.39437" lon="5.65151">
        <ele>526.6</ele>
        <time>2023-08-30T16:09:47Z</time>
      </trkpt>
      <trkpt lat="46.39432" lon="5.65139">
        <ele>526.4</ele>
        <time>2023-08-30T16:09:48Z</time>
      </trkpt>
      <trkpt lat="46.39426" lon="5.65127">
        <ele>526.4</ele>
        <time>2023-08-30T16:09:49Z</time>
      </trkpt>
      <trkpt lat="46.3942" lon="5.65115">
        <ele>526.4</ele>
        <time>2023-08-30T16:09:50Z</time>
      </trkpt>
      <trkpt lat="46.39415" lon="5.65104">
        <ele>525.8</ele>
        <time>2023-08-30T16:09:51Z</time>
      </trkpt>
      <trkpt lat="46.39409" lon="5.65092">
        <ele>525.6</ele>
        <time>2023-08-30T16:09:52Z</time>
      </trkpt>
      <trkpt lat="46.39404" lon="5.6508">
        <ele>525.6</ele>
        <time>2023-08-30T16:09:53Z</time>
      </trkpt>
      <trkpt lat="46.39398" lon="5.65068">
        <ele>525.6</ele>
        <time>2023-08-30T16:09:54Z</time>
      </trkpt>
      <trkpt lat="46.39392" lon="5.65056">
        <ele>525.2</ele>
        <time>2023-08-30T16:09:55Z</time>
      </trkpt>
      <trkpt lat="46.39386" lon="5.65045">
        <ele>525.2</ele>
        <time>2023-08-30T16:09:56Z</time>
      </trkpt>
      <trkpt lat="46.3938" lon="5.65033">
        <ele>525.2</ele>
        <time>2023-08-30T16:09:57Z</time>
      </trkpt>
      <trkpt lat="46.39375" lon="5.65021">
        <ele>525.2</ele>
        <time>2023-08-30T16:09:58Z</time>
      </trkpt>
      <trkpt lat="46.39369" lon="5.6501">
        <ele>525.2</ele>
        <time>2023-08-30T16:09:59Z</time>
      </trkpt>
      <trkpt lat="46.39363" lon="5.64998">
        <ele>525</ele>
        <time>2023-08-30T16:10:00Z</time>
      </trkpt>
      <trkpt lat="46.39358" lon="5.64988">
        <ele>525</ele>
        <time>2023-08-30T16:10:01Z</time>
      </trkpt>
      <trkpt lat="46.39353" lon="5.64977">
        <ele>525</ele>
        <time>2023-08-30T16:10:02Z</time>
      </trkpt>
      <trkpt lat="46.39348" lon="5.64967">
        <ele>524.6</ele>
        <time>2023-08-30T16:10:03Z</time>
      </trkpt>
      <trkpt lat="46.39343" lon="5.64956">
        <ele>524.6</ele>
        <time>2023-08-30T16:10:04Z</time>
      </trkpt>
      <trkpt lat="46.39338" lon="5.64947">
        <ele>525</ele>
        <time>2023-08-30T16:10:05Z</time>
      </trkpt>
      <trkpt lat="46.39334" lon="5.64938">
        <ele>525</ele>
        <time>2023-08-30T16:10:06Z</time>
      </trkpt>
      <trkpt lat="46.39329" lon="5.64929">
        <ele>525</ele>
        <time>2023-08-30T16:10:07Z</time>
      </trkpt>
      <trkpt lat="46.39325" lon="5.6492">
        <ele>525</ele>
        <time>2023-08-30T16:10:08Z</time>
      </trkpt>
      <trkpt lat="46.39321" lon="5.64911">
        <ele>524.8</ele>
        <time>2023-08-30T16:10:09Z</time>
      </trkpt>
      <trkpt lat="46.39317" lon="5.64902">
        <ele>524.8</ele>
        <time>2023-08-30T16:10:10Z</time>
      </trkpt>
      <trkpt lat="46.39313" lon="5.64894">
        <ele>524.6</ele>
        <time>2023-08-30T16:10:11Z</time>
      </trkpt>
      <trkpt lat="46.39308" lon="5.64885">
        <ele>524.6</ele>
        <time>2023-08-30T16:10:12Z</time>
      </trkpt>
      <trkpt lat="46.39304" lon="5.64877">
        <ele>524.6</ele>
        <time>2023-08-30T16:10:13Z</time>
      </trkpt>
      <trkpt lat="46.393" lon="5.64869">
        <ele>524.6</ele>
        <time>2023-08-30T16:10:14Z</time>
      </trkpt>
      <trkpt lat="46.39296" lon="5.64861">
        <ele>524.6</ele>
        <time>2023-08-30T16:10:15Z</time>
      </trkpt>
      <trkpt lat="46.39293" lon="5.64853">
        <ele>524.6</ele>
        <time>2023-08-30T16:10:16Z</time>
      </trkpt>
      <trkpt lat="46.39289" lon="5.64846">
        <ele>524.6</ele>
        <time>2023-08-30T16:10:17Z</time>
      </trkpt>
      <trkpt lat="46.39285" lon="5.64839">
        <ele>524.6</ele>
        <time>2023-08-30T16:10:18Z</time>
      </trkpt>
      <trkpt lat="46.39282" lon="5.64832">
        <ele>524.4</ele>
        <time>2023-08-30T16:10:19Z</time>
      </trkpt>
      <trkpt lat="46.39278" lon="5.64825">
        <ele>524.4</ele>
        <time>2023-08-30T16:10:20Z</time>
      </trkpt>
      <trkpt lat="46.39275" lon="5.64818">
        <ele>524.4</ele>
        <time>2023-08-30T16:10:21Z</time>
      </trkpt>
      <trkpt lat="46.39272" lon="5.6481">
        <ele>524.4</ele>
        <time>2023-08-30T16:10:22Z</time>
      </trkpt>
      <trkpt lat="46.39269" lon="5.64804">
        <ele>524.4</ele>
        <time>2023-08-30T16:10:23Z</time>
      </trkpt>
      <trkpt lat="46.39265" lon="5.64797">
        <ele>524.4</ele>
        <time>2023-08-30T16:10:24Z</time>
      </trkpt>
      <trkpt lat="46.39262" lon="5.6479">
        <ele>524.4</ele>
        <time>2023-08-30T16:10:25Z</time>
      </trkpt>
      <trkpt lat="46.39259" lon="5.64783">
        <ele>524.4</ele>
        <time>2023-08-30T16:10:26Z</time>
      </trkpt>
      <trkpt lat="46.39256" lon="5.64776">
        <ele>524.4</ele>
        <time>2023-08-30T16:10:27Z</time>
      </trkpt>
      <trkpt lat="46.39254" lon="5.6477">
        <ele>524.2</ele>
        <time>2023-08-30T16:10:28Z</time>
      </trkpt>
      <trkpt lat="46.39251" lon="5.64764">
        <ele>524.4</ele>
        <time>2023-08-30T16:10:29Z</time>
      </trkpt>
      <trkpt lat="46.39248" lon="5.64757">
        <ele>524.4</ele>
        <time>2023-08-30T16:10:30Z</time>
      </trkpt>
      <trkpt lat="46.39246" lon="5.64751">
        <ele>524.4</ele>
        <time>2023-08-30T16:10:31Z</time>
      </trkpt>
      <trkpt lat="46.39243" lon="5.64745">
        <ele>524.4</ele>
        <time>2023-08-30T16:10:32Z</time>
      </trkpt>
      <trkpt lat="46.3924" lon="5.64739">
        <ele>524.4</ele>
        <time>2023-08-30T16:10:33Z</time>
      </trkpt>
      <trkpt lat="46.39236" lon="5.64735">
        <ele>523.8</ele>
        <time>2023-08-30T16:10:34Z</time>
      </trkpt>
      <trkpt lat="46.39231" lon="5.64732">
        <ele>523.8</ele>
        <time>2023-08-30T16:10:35Z</time>
      </trkpt>
      <trkpt lat="46.39226" lon="5.6473">
        <ele>523.8</ele>
        <time>2023-08-30T16:10:36Z</time>
      </trkpt>
      <trkpt lat="46.39221" lon="5.64728">
        <ele>523.8</ele>
        <time>2023-08-30T16:10:37Z</time>
      </trkpt>
      <trkpt lat="46.39215" lon="5.64726">
        <ele>522.8</ele>
        <time>2023-08-30T16:10:38Z</time>
      </trkpt>
      <trkpt lat="46.3921" lon="5.64724">
        <ele>522.8</ele>
        <time>2023-08-30T16:10:39Z</time>
      </trkpt>
      <trkpt lat="46.39205" lon="5.64722">
        <ele>522.8</ele>
        <time>2023-08-30T16:10:40Z</time>
      </trkpt>
      <trkpt lat="46.39199" lon="5.64721">
        <ele>522.8</ele>
        <time>2023-08-30T16:10:41Z</time>
      </trkpt>
      <trkpt lat="46.39193" lon="5.6472">
        <ele>522.2</ele>
        <time>2023-08-30T16:10:42Z</time>
      </trkpt>
      <trkpt lat="46.39188" lon="5.64719">
        <ele>522.2</ele>
        <time>2023-08-30T16:10:43Z</time>
      </trkpt>
      <trkpt lat="46.39182" lon="5.64718">
        <ele>522.2</ele>
        <time>2023-08-30T16:10:44Z</time>
      </trkpt>
      <trkpt lat="46.39176" lon="5.64718">
        <ele>522.2</ele>
        <time>2023-08-30T16:10:45Z</time>
      </trkpt>
      <trkpt lat="46.39171" lon="5.64717">
        <ele>522.2</ele>
        <time>2023-08-30T16:10:46Z</time>
      </trkpt>
      <trkpt lat="46.39165" lon="5.64716">
        <ele>521.6</ele>
        <time>2023-08-30T16:10:47Z</time>
      </trkpt>
      <trkpt lat="46.39159" lon="5.64715">
        <ele>521.6</ele>
        <time>2023-08-30T16:10:48Z</time>
      </trkpt>
      <trkpt lat="46.39154" lon="5.64714">
        <ele>521.6</ele>
        <time>2023-08-30T16:10:49Z</time>
      </trkpt>
      <trkpt lat="46.39148" lon="5.64713">
        <ele>521</ele>
        <time>2023-08-30T16:10:50Z</time>
      </trkpt>
      <trkpt lat="46.39143" lon="5.64712">
        <ele>521</ele>
        <time>2023-08-30T16:10:51Z</time>
      </trkpt>
      <trkpt lat="46.39137" lon="5.64711">
        <ele>521</ele>
        <time>2023-08-30T16:10:52Z</time>
      </trkpt>
      <trkpt lat="46.39131" lon="5.6471">
        <ele>521</ele>
        <time>2023-08-30T16:10:53Z</time>
      </trkpt>
      <trkpt lat="46.39126" lon="5.6471">
        <ele>521</ele>
        <time>2023-08-30T16:10:54Z</time>
      </trkpt>
      <trkpt lat="46.3912" lon="5.64709">
        <ele>520</ele>
        <time>2023-08-30T16:10:55Z</time>
      </trkpt>
      <trkpt lat="46.39115" lon="5.64709">
        <ele>520</ele>
        <time>2023-08-30T16:10:56Z</time>
      </trkpt>
      <trkpt lat="46.39109" lon="5.64708">
        <ele>520</ele>
        <time>2023-08-30T16:10:57Z</time>
      </trkpt>
      <trkpt lat="46.39104" lon="5.64708">
        <ele>520</ele>
        <time>2023-08-30T16:10:58Z</time>
      </trkpt>
      <trkpt lat="46.39099" lon="5.64707">
        <ele>519.2</ele>
        <time>2023-08-30T16:10:59Z</time>
      </trkpt>
      <trkpt lat="46.39093" lon="5.64707">
        <ele>519</ele>
        <time>2023-08-30T16:11:00Z</time>
      </trkpt>
      <trkpt lat="46.39088" lon="5.64706">
        <ele>519</ele>
        <time>2023-08-30T16:11:01Z</time>
      </trkpt>
      <trkpt lat="46.39083" lon="5.64706">
        <ele>519</ele>
        <time>2023-08-30T16:11:02Z</time>
      </trkpt>
      <trkpt lat="46.39078" lon="5.64706">
        <ele>518.4</ele>
        <time>2023-08-30T16:11:03Z</time>
      </trkpt>
      <trkpt lat="46.39072" lon="5.64705">
        <ele>518.4</ele>
        <time>2023-08-30T16:11:04Z</time>
      </trkpt>
      <trkpt lat="46.39067" lon="5.64705">
        <ele>518.4</ele>
        <time>2023-08-30T16:11:05Z</time>
      </trkpt>
      <trkpt lat="46.39061" lon="5.64705">
        <ele>518.4</ele>
        <time>2023-08-30T16:11:06Z</time>
      </trkpt>
      <trkpt lat="46.39056" lon="5.64705">
        <ele>518.4</ele>
        <time>2023-08-30T16:11:07Z</time>
      </trkpt>
      <trkpt lat="46.3905" lon="5.64705">
        <ele>518.4</ele>
        <time>2023-08-30T16:11:08Z</time>
      </trkpt>
      <trkpt lat="46.39044" lon="5.64706">
        <ele>517.6</ele>
        <time>2023-08-30T16:11:09Z</time>
      </trkpt>
      <trkpt lat="46.39039" lon="5.64706">
        <ele>517.4</ele>
        <time>2023-08-30T16:11:10Z</time>
      </trkpt>
      <trkpt lat="46.39033" lon="5.64706">
        <ele>517.4</ele>
        <time>2023-08-30T16:11:11Z</time>
      </trkpt>
      <trkpt lat="46.39027" lon="5.64707">
        <ele>517.4</ele>
        <time>2023-08-30T16:11:12Z</time>
      </trkpt>
      <trkpt lat="46.39021" lon="5.64708">
        <ele>516.6</ele>
        <time>2023-08-30T16:11:13Z</time>
      </trkpt>
      <trkpt lat="46.39015" lon="5.64709">
        <ele>515.8</ele>
        <time>2023-08-30T16:11:14Z</time>
      </trkpt>
      <trkpt lat="46.39009" lon="5.64709">
        <ele>515.8</ele>
        <time>2023-08-30T16:11:15Z</time>
      </trkpt>
      <trkpt lat="46.39003" lon="5.6471">
        <ele>515.8</ele>
        <time>2023-08-30T16:11:16Z</time>
      </trkpt>
      <trkpt lat="46.38997" lon="5.64711">
        <ele>515.8</ele>
        <time>2023-08-30T16:11:17Z</time>
      </trkpt>
      <trkpt lat="46.38991" lon="5.64712">
        <ele>515</ele>
        <time>2023-08-30T16:11:18Z</time>
      </trkpt>
      <trkpt lat="46.38985" lon="5.64713">
        <ele>515</ele>
        <time>2023-08-30T16:11:19Z</time>
      </trkpt>
      <trkpt lat="46.38979" lon="5.64713">
        <ele>515</ele>
        <time>2023-08-30T16:11:20Z</time>
      </trkpt>
      <trkpt lat="46.38973" lon="5.64714">
        <ele>514.6</ele>
        <time>2023-08-30T16:11:21Z</time>
      </trkpt>
      <trkpt lat="46.38968" lon="5.64715">
        <ele>514.6</ele>
        <time>2023-08-30T16:11:22Z</time>
      </trkpt>
      <trkpt lat="46.38962" lon="5.64716">
        <ele>514.6</ele>
        <time>2023-08-30T16:11:23Z</time>
      </trkpt>
      <trkpt lat="46.38957" lon="5.64717">
        <ele>514.6</ele>
        <time>2023-08-30T16:11:24Z</time>
      </trkpt>
      <trkpt lat="46.38951" lon="5.64718">
        <ele>514.6</ele>
        <time>2023-08-30T16:11:25Z</time>
      </trkpt>
      <trkpt lat="46.38946" lon="5.6472">
        <ele>514.6</ele>
        <time>2023-08-30T16:11:26Z</time>
      </trkpt>
      <trkpt lat="46.38941" lon="5.64721">
        <ele>514.6</ele>
        <time>2023-08-30T16:11:27Z</time>
      </trkpt>
      <trkpt lat="46.38935" lon="5.64723">
        <ele>513.4</ele>
        <time>2023-08-30T16:11:28Z</time>
      </trkpt>
      <trkpt lat="46.3893" lon="5.64724">
        <ele>513.4</ele>
        <time>2023-08-30T16:11:29Z</time>
      </trkpt>
      <trkpt lat="46.38925" lon="5.64725">
        <ele>513.4</ele>
        <time>2023-08-30T16:11:30Z</time>
      </trkpt>
      <trkpt lat="46.38919" lon="5.64725">
        <ele>513.4</ele>
        <time>2023-08-30T16:11:31Z</time>
      </trkpt>
      <trkpt lat="46.38915" lon="5.64725">
        <ele>512.2</ele>
        <time>2023-08-30T16:11:32Z</time>
      </trkpt>
      <trkpt lat="46.3891" lon="5.64725">
        <ele>512.2</ele>
        <time>2023-08-30T16:11:33Z</time>
      </trkpt>
      <trkpt lat="46.38906" lon="5.64726">
        <ele>512.2</ele>
        <time>2023-08-30T16:11:34Z</time>
      </trkpt>
      <trkpt lat="46.38902" lon="5.64727">
        <ele>511.4</ele>
        <time>2023-08-30T16:11:35Z</time>
      </trkpt>
      <trkpt lat="46.38899" lon="5.64727">
        <ele>511.2</ele>
        <time>2023-08-30T16:11:36Z</time>
      </trkpt>
      <trkpt lat="46.38897" lon="5.64728">
        <ele>511.2</ele>
        <time>2023-08-30T16:11:37Z</time>
      </trkpt>
      <trkpt lat="46.38894" lon="5.64728">
        <ele>511.2</ele>
        <time>2023-08-30T16:11:38Z</time>
      </trkpt>
      <trkpt lat="46.38892" lon="5.64728">
        <ele>511.2</ele>
        <time>2023-08-30T16:11:39Z</time>
      </trkpt>
      <trkpt lat="46.38891" lon="5.64728">
        <ele>510.6</ele>
        <time>2023-08-30T16:11:40Z</time>
      </trkpt>
      <trkpt lat="46.38888" lon="5.6473">
        <ele>505.2</ele>
        <time>2023-08-30T16:12:03Z</time>
      </trkpt>
      <trkpt lat="46.38887" lon="5.64731">
        <ele>505.2</ele>
        <time>2023-08-30T16:12:04Z</time>
      </trkpt>
      <trkpt lat="46.38886" lon="5.64733">
        <ele>505.2</ele>
        <time>2023-08-30T16:12:05Z</time>
      </trkpt>
      <trkpt lat="46.38884" lon="5.64736">
        <ele>505.2</ele>
        <time>2023-08-30T16:12:06Z</time>
      </trkpt>
      <trkpt lat="46.38883" lon="5.64739">
        <ele>505.2</ele>
        <time>2023-08-30T16:12:07Z</time>
      </trkpt>
      <trkpt lat="46.38882" lon="5.64742">
        <ele>504.2</ele>
        <time>2023-08-30T16:12:08Z</time>
      </trkpt>
      <trkpt lat="46.38881" lon="5.64745">
        <ele>504.2</ele>
        <time>2023-08-30T16:12:09Z</time>
      </trkpt>
      <trkpt lat="46.3888" lon="5.64748">
        <ele>504</ele>
        <time>2023-08-30T16:12:10Z</time>
      </trkpt>
      <trkpt lat="46.38879" lon="5.64751">
        <ele>504</ele>
        <time>2023-08-30T16:12:11Z</time>
      </trkpt>
      <trkpt lat="46.38879" lon="5.64754">
        <ele>503.2</ele>
        <time>2023-08-30T16:12:12Z</time>
      </trkpt>
      <trkpt lat="46.38878" lon="5.64756">
        <ele>503.2</ele>
        <time>2023-08-30T16:12:13Z</time>
      </trkpt>
      <trkpt lat="46.38877" lon="5.64758">
        <ele>503</ele>
        <time>2023-08-30T16:12:14Z</time>
      </trkpt>
      <trkpt lat="46.38876" lon="5.64759">
        <ele>503</ele>
        <time>2023-08-30T16:12:15Z</time>
      </trkpt>
      <trkpt lat="46.38876" lon="5.64759">
        <ele>502</ele>
        <time>2023-08-30T16:12:16Z</time>
      </trkpt>
      <trkpt lat="46.38878" lon="5.64768">
        <ele>449.4</ele>
        <time>2023-08-30T16:19:26Z</time>
      </trkpt>
      <trkpt lat="46.38877" lon="5.64769">
        <ele>449.4</ele>
        <time>2023-08-30T16:19:27Z</time>
      </trkpt>
      <trkpt lat="46.38876" lon="5.64771">
        <ele>449.4</ele>
        <time>2023-08-30T16:19:28Z</time>
      </trkpt>
      <trkpt lat="46.38875" lon="5.64774">
        <ele>449.4</ele>
        <time>2023-08-30T16:19:29Z</time>
      </trkpt>
      <trkpt lat="46.38874" lon="5.64776">
        <ele>449</ele>
        <time>2023-08-30T16:19:30Z</time>
      </trkpt>
      <trkpt lat="46.38872" lon="5.64779">
        <ele>449</ele>
        <time>2023-08-30T16:19:31Z</time>
      </trkpt>
      <trkpt lat="46.3887" lon="5.64781">
        <ele>449</ele>
        <time>2023-08-30T16:19:32Z</time>
      </trkpt>
      <trkpt lat="46.38867" lon="5.64784">
        <ele>449</ele>
        <time>2023-08-30T16:19:33Z</time>
      </trkpt>
      <trkpt lat="46.38865" lon="5.64786">
        <ele>448.4</ele>
        <time>2023-08-30T16:19:34Z</time>
      </trkpt>
      <trkpt lat="46.38862" lon="5.64788">
        <ele>448.4</ele>
        <time>2023-08-30T16:19:35Z</time>
      </trkpt>
      <trkpt lat="46.38858" lon="5.6479">
        <ele>448.2</ele>
        <time>2023-08-30T16:19:36Z</time>
      </trkpt>
      <trkpt lat="46.38855" lon="5.64793">
        <ele>448.2</ele>
        <time>2023-08-30T16:19:37Z</time>
      </trkpt>
      <trkpt lat="46.38852" lon="5.64797">
        <ele>447.8</ele>
        <time>2023-08-30T16:19:38Z</time>
      </trkpt>
      <trkpt lat="46.38849" lon="5.64803">
        <ele>447.4</ele>
        <time>2023-08-30T16:19:39Z</time>
      </trkpt>
      <trkpt lat="46.38846" lon="5.64809">
        <ele>447.4</ele>
        <time>2023-08-30T16:19:40Z</time>
      </trkpt>
      <trkpt lat="46.38843" lon="5.64815">
        <ele>447.4</ele>
        <time>2023-08-30T16:19:41Z</time>
      </trkpt>
      <trkpt lat="46.3884" lon="5.64821">
        <ele>447.4</ele>
        <time>2023-08-30T16:19:42Z</time>
      </trkpt>
      <trkpt lat="46.38837" lon="5.64827">
        <ele>446.6</ele>
        <time>2023-08-30T16:19:43Z</time>
      </trkpt>
      <trkpt lat="46.38834" lon="5.64833">
        <ele>446.4</ele>
        <time>2023-08-30T16:19:44Z</time>
      </trkpt>
      <trkpt lat="46.38831" lon="5.64839">
        <ele>446.4</ele>
        <time>2023-08-30T16:19:45Z</time>
      </trkpt>
      <trkpt lat="46.38827" lon="5.64844">
        <ele>446.4</ele>
        <time>2023-08-30T16:19:46Z</time>
      </trkpt>
      <trkpt lat="46.38823" lon="5.64849">
        <ele>446</ele>
        <time>2023-08-30T16:19:47Z</time>
      </trkpt>
      <trkpt lat="46.38819" lon="5.64853">
        <ele>446</ele>
        <time>2023-08-30T16:19:48Z</time>
      </trkpt>
      <trkpt lat="46.38815" lon="5.64856">
        <ele>445.6</ele>
        <time>2023-08-30T16:19:49Z</time>
      </trkpt>
      <trkpt lat="46.3881" lon="5.64859">
        <ele>445.6</ele>
        <time>2023-08-30T16:19:50Z</time>
      </trkpt>
      <trkpt lat="46.38805" lon="5.64862">
        <ele>445</ele>
        <time>2023-08-30T16:19:51Z</time>
      </trkpt>
      <trkpt lat="46.38799" lon="5.64864">
        <ele>444.8</ele>
        <time>2023-08-30T16:19:52Z</time>
      </trkpt>
      <trkpt lat="46.38794" lon="5.64866">
        <ele>444.8</ele>
        <time>2023-08-30T16:19:53Z</time>
      </trkpt>
      <trkpt lat="46.3879" lon="5.64868">
        <ele>444.8</ele>
        <time>2023-08-30T16:19:54Z</time>
      </trkpt>
      <trkpt lat="46.38786" lon="5.64871">
        <ele>444.8</ele>
        <time>2023-08-30T16:19:55Z</time>
      </trkpt>
      <trkpt lat="46.38785" lon="5.64874">
        <ele>444.8</ele>
        <time>2023-08-30T16:19:56Z</time>
      </trkpt>
      <trkpt lat="46.38785" lon="5.64877">
        <ele>444.8</ele>
        <time>2023-08-30T16:19:57Z</time>
      </trkpt>
      <trkpt lat="46.38785" lon="5.64879">
        <ele>444.8</ele>
        <time>2023-08-30T16:19:58Z</time>
      </trkpt>
      <trkpt lat="46.38785" lon="5.64881">
        <ele>444.8</ele>
        <time>2023-08-30T16:19:59Z</time>
      </trkpt>
      <trkpt lat="46.38785" lon="5.64884">
        <ele>444.4</ele>
        <time>2023-08-30T16:20:00Z</time>
      </trkpt>
      <trkpt lat="46.38785" lon="5.64886">
        <ele>444.2</ele>
        <time>2023-08-30T16:20:01Z</time>
      </trkpt>
      <trkpt lat="46.38785" lon="5.64889">
        <ele>444.2</ele>
        <time>2023-08-30T16:20:02Z</time>
      </trkpt>
      <trkpt lat="46.38784" lon="5.64891">
        <ele>444.2</ele>
        <time>2023-08-30T16:20:03Z</time>
      </trkpt>
      <trkpt lat="46.38783" lon="5.64894">
        <ele>444.2</ele>
        <time>2023-08-30T16:20:04Z</time>
      </trkpt>
      <trkpt lat="46.38783" lon="5.64897">
        <ele>443.6</ele>
        <time>2023-08-30T16:20:05Z</time>
      </trkpt>
      <trkpt lat="46.38782" lon="5.64899">
        <ele>443.6</ele>
        <time>2023-08-30T16:20:06Z</time>
      </trkpt>
      <trkpt lat="46.38782" lon="5.64902">
        <ele>443.6</ele>
        <time>2023-08-30T16:20:07Z</time>
      </trkpt>
      <trkpt lat="46.38782" lon="5.64904">
        <ele>443.6</ele>
        <time>2023-08-30T16:20:08Z</time>
      </trkpt>
      <trkpt lat="46.38782" lon="5.64907">
        <ele>443.2</ele>
        <time>2023-08-30T16:20:09Z</time>
      </trkpt>
      <trkpt lat="46.38781" lon="5.6491">
        <ele>443.2</ele>
        <time>2023-08-30T16:20:10Z</time>
      </trkpt>
      <trkpt lat="46.38781" lon="5.64912">
        <ele>443.2</ele>
        <time>2023-08-30T16:20:11Z</time>
      </trkpt>
      <trkpt lat="46.38781" lon="5.64915">
        <ele>443.2</ele>
        <time>2023-08-30T16:20:12Z</time>
      </trkpt>
      <trkpt lat="46.38782" lon="5.64917">
        <ele>443.2</ele>
        <time>2023-08-30T16:20:13Z</time>
      </trkpt>
      <trkpt lat="46.38782" lon="5.64919">
        <ele>443.2</ele>
        <time>2023-08-30T16:20:14Z</time>
      </trkpt>
      <trkpt lat="46.38782" lon="5.6492">
        <ele>443</ele>
        <time>2023-08-30T16:20:15Z</time>
      </trkpt>
      <trkpt lat="46.38783" lon="5.64921">
        <ele>442.6</ele>
        <time>2023-08-30T16:20:22Z</time>
      </trkpt>
      <trkpt lat="46.38784" lon="5.64922">
        <ele>442.2</ele>
        <time>2023-08-30T16:20:23Z</time>
      </trkpt>
      <trkpt lat="46.38785" lon="5.64922">
        <ele>442.2</ele>
        <time>2023-08-30T16:20:24Z</time>
      </trkpt>
      <trkpt lat="46.38786" lon="5.64923">
        <ele>442.2</ele>
        <time>2023-08-30T16:20:25Z</time>
      </trkpt>
      <trkpt lat="46.38786" lon="5.64923">
        <ele>441.6</ele>
        <time>2023-08-30T16:20:26Z</time>
      </trkpt>
      <trkpt lat="46.38788" lon="5.64923">
        <ele>441.6</ele>
        <time>2023-08-30T16:20:27Z</time>
      </trkpt>
      <trkpt lat="46.38788" lon="5.64923">
        <ele>441.2</ele>
        <time>2023-08-30T16:20:28Z</time>
      </trkpt>
      <trkpt lat="46.38789" lon="5.64923">
        <ele>441.2</ele>
        <time>2023-08-30T16:20:29Z</time>
      </trkpt>
      <trkpt lat="46.3879" lon="5.64923">
        <ele>441.2</ele>
        <time>2023-08-30T16:20:30Z</time>
      </trkpt>
      <trkpt lat="46.38791" lon="5.64924">
        <ele>440.6</ele>
        <time>2023-08-30T16:20:31Z</time>
      </trkpt>
      <trkpt lat="46.38792" lon="5.64924">
        <ele>440.2</ele>
        <time>2023-08-30T16:20:32Z</time>
      </trkpt>
      <trkpt lat="46.38792" lon="5.64925">
        <ele>440.2</ele>
        <time>2023-08-30T16:20:33Z</time>
      </trkpt>
      <trkpt lat="46.38793" lon="5.64926">
        <ele>440.2</ele>
        <time>2023-08-30T16:20:34Z</time>
      </trkpt>
      <trkpt lat="46.38793" lon="5.64928">
        <ele>439.4</ele>
        <time>2023-08-30T16:20:35Z</time>
      </trkpt>
      <trkpt lat="46.38793" lon="5.6493">
        <ele>439.2</ele>
        <time>2023-08-30T16:20:36Z</time>
      </trkpt>
      <trkpt lat="46.38794" lon="5.64932">
        <ele>439.2</ele>
        <time>2023-08-30T16:20:37Z</time>
      </trkpt>
      <trkpt lat="46.38794" lon="5.64934">
        <ele>439.2</ele>
        <time>2023-08-30T16:20:38Z</time>
      </trkpt>
      <trkpt lat="46.38794" lon="5.64935">
        <ele>439.2</ele>
        <time>2023-08-30T16:20:39Z</time>
      </trkpt>
      <trkpt lat="46.38795" lon="5.64937">
        <ele>438.8</ele>
        <time>2023-08-30T16:20:40Z</time>
      </trkpt>
      <trkpt lat="46.38795" lon="5.64938">
        <ele>438.6</ele>
        <time>2023-08-30T16:20:41Z</time>
      </trkpt>
      <trkpt lat="46.38795" lon="5.6494">
        <ele>438.6</ele>
        <time>2023-08-30T16:20:42Z</time>
      </trkpt>
      <trkpt lat="46.38796" lon="5.64942">
        <ele>438.6</ele>
        <time>2023-08-30T16:20:43Z</time>
      </trkpt>
      <trkpt lat="46.38796" lon="5.64943">
        <ele>438.4</ele>
        <time>2023-08-30T16:20:44Z</time>
      </trkpt>
      <trkpt lat="46.38796" lon="5.64944">
        <ele>438.2</ele>
        <time>2023-08-30T16:20:45Z</time>
      </trkpt>
      <trkpt lat="46.38796" lon="5.64946">
        <ele>438.2</ele>
        <time>2023-08-30T16:20:46Z</time>
      </trkpt>
      <trkpt lat="46.38796" lon="5.64948">
        <ele>438.2</ele>
        <time>2023-08-30T16:20:47Z</time>
      </trkpt>
      <trkpt lat="46.38797" lon="5.64949">
        <ele>438.2</ele>
        <time>2023-08-30T16:20:48Z</time>
      </trkpt>
      <trkpt lat="46.38798" lon="5.6495">
        <ele>438</ele>
        <time>2023-08-30T16:20:49Z</time>
      </trkpt>
      <trkpt lat="46.38798" lon="5.6495">
        <ele>438</ele>
        <time>2023-08-30T16:20:50Z</time>
      </trkpt>
      <trkpt lat="46.38799" lon="5.64951">
        <ele>438</ele>
        <time>2023-08-30T16:20:51Z</time>
      </trkpt>
      <trkpt lat="46.388" lon="5.64951">
        <ele>438</ele>
        <time>2023-08-30T16:20:52Z</time>
      </trkpt>
      <trkpt lat="46.38801" lon="5.64951">
        <ele>437.8</ele>
        <time>2023-08-30T16:20:53Z</time>
      </trkpt>
      <trkpt lat="46.38802" lon="5.64955">
        <ele>437</ele>
        <time>2023-08-30T16:21:02Z</time>
      </trkpt>
      <trkpt lat="46.38803" lon="5.64957">
        <ele>437.2</ele>
        <time>2023-08-30T16:21:03Z</time>
      </trkpt>
      <trkpt lat="46.38803" lon="5.6496">
        <ele>437.2</ele>
        <time>2023-08-30T16:21:04Z</time>
      </trkpt>
      <trkpt lat="46.38804" lon="5.64961">
        <ele>437.2</ele>
        <time>2023-08-30T16:21:05Z</time>
      </trkpt>
      <trkpt lat="46.38805" lon="5.64963">
        <ele>437</ele>
        <time>2023-08-30T16:21:06Z</time>
      </trkpt>
      <trkpt lat="46.38805" lon="5.64965">
        <ele>437</ele>
        <time>2023-08-30T16:21:07Z</time>
      </trkpt>
      <trkpt lat="46.38806" lon="5.64966">
        <ele>437</ele>
        <time>2023-08-30T16:21:08Z</time>
      </trkpt>
      <trkpt lat="46.38807" lon="5.64967">
        <ele>437</ele>
        <time>2023-08-30T16:21:09Z</time>
      </trkpt>
      <trkpt lat="46.38807" lon="5.64969">
        <ele>437</ele>
        <time>2023-08-30T16:21:10Z</time>
      </trkpt>
      <trkpt lat="46.38808" lon="5.6497">
        <ele>437</ele>
        <time>2023-08-30T16:21:11Z</time>
      </trkpt>
      <trkpt lat="46.38809" lon="5.64972">
        <ele>437</ele>
        <time>2023-08-30T16:21:12Z</time>
      </trkpt>
      <trkpt lat="46.38809" lon="5.64974">
        <ele>436.8</ele>
        <time>2023-08-30T16:21:13Z</time>
      </trkpt>
      <trkpt lat="46.3881" lon="5.64976">
        <ele>436.8</ele>
        <time>2023-08-30T16:21:14Z</time>
      </trkpt>
      <trkpt lat="46.38811" lon="5.64977">
        <ele>436.6</ele>
        <time>2023-08-30T16:21:15Z</time>
      </trkpt>
      <trkpt lat="46.38811" lon="5.64979">
        <ele>436.6</ele>
        <time>2023-08-30T16:21:16Z</time>
      </trkpt>
      <trkpt lat="46.38812" lon="5.6498">
        <ele>436.6</ele>
        <time>2023-08-30T16:21:17Z</time>
      </trkpt>
      <trkpt lat="46.38812" lon="5.64982">
        <ele>436.6</ele>
        <time>2023-08-30T16:21:18Z</time>
      </trkpt>
      <trkpt lat="46.38813" lon="5.64984">
        <ele>436.6</ele>
        <time>2023-08-30T16:21:19Z</time>
      </trkpt>
      <trkpt lat="46.38813" lon="5.64985">
        <ele>436.4</ele>
        <time>2023-08-30T16:21:20Z</time>
      </trkpt>
      <trkpt lat="46.38814" lon="5.64987">
        <ele>436.4</ele>
        <time>2023-08-30T16:21:21Z</time>
      </trkpt>
      <trkpt lat="46.38814" lon="5.64988">
        <ele>436.4</ele>
        <time>2023-08-30T16:21:22Z</time>
      </trkpt>
      <trkpt lat="46.38815" lon="5.6499">
        <ele>436.2</ele>
        <time>2023-08-30T16:21:23Z</time>
      </trkpt>
      <trkpt lat="46.38815" lon="5.64991">
        <ele>435.8</ele>
        <time>2023-08-30T16:21:24Z</time>
      </trkpt>
      <trkpt lat="46.38816" lon="5.64993">
        <ele>435.8</ele>
        <time>2023-08-30T16:21:25Z</time>
      </trkpt>
      <trkpt lat="46.38816" lon="5.64994">
        <ele>435.8</ele>
        <time>2023-08-30T16:21:26Z</time>
      </trkpt>
      <trkpt lat="46.38817" lon="5.64996">
        <ele>435.8</ele>
        <time>2023-08-30T16:21:27Z</time>
      </trkpt>
      <trkpt lat="46.38817" lon="5.64997">
        <ele>435.8</ele>
        <time>2023-08-30T16:21:28Z</time>
      </trkpt>
      <trkpt lat="46.38818" lon="5.64998">
        <ele>435.8</ele>
        <time>2023-08-30T16:21:29Z</time>
      </trkpt>
      <trkpt lat="46.38818" lon="5.64999">
        <ele>435.2</ele>
        <time>2023-08-30T16:21:30Z</time>
      </trkpt>
      <trkpt lat="46.38819" lon="5.64999">
        <ele>435</ele>
        <time>2023-08-30T16:21:31Z</time>
      </trkpt>
      <trkpt lat="46.3882" lon="5.64998">
        <ele>435</ele>
        <time>2023-08-30T16:21:32Z</time>
      </trkpt>
      <trkpt lat="46.38821" lon="5.64998">
        <ele>435</ele>
        <time>2023-08-30T16:21:33Z</time>
      </trkpt>
      <trkpt lat="46.38822" lon="5.64998">
        <ele>434.8</ele>
        <time>2023-08-30T16:21:34Z</time>
      </trkpt>
      <trkpt lat="46.38823" lon="5.64997">
        <ele>434.8</ele>
        <time>2023-08-30T16:21:35Z</time>
      </trkpt>
      <trkpt lat="46.38824" lon="5.64996">
        <ele>434.8</ele>
        <time>2023-08-30T16:21:36Z</time>
      </trkpt>
      <trkpt lat="46.38825" lon="5.64995">
        <ele>434.8</ele>
        <time>2023-08-30T16:21:37Z</time>
      </trkpt>
      <trkpt lat="46.38825" lon="5.64994">
        <ele>434.6</ele>
        <time>2023-08-30T16:21:38Z</time>
      </trkpt>
      <trkpt lat="46.38825" lon="5.64993">
        <ele>434.6</ele>
        <time>2023-08-30T16:21:39Z</time>
      </trkpt>
      <trkpt lat="46.38825" lon="5.6499">
        <ele>376.4</ele>
        <time>2023-08-30T16:41:00Z</time>
      </trkpt>
      <trkpt lat="46.38824" lon="5.64992">
        <ele>375.8</ele>
        <time>2023-08-30T16:41:01Z</time>
      </trkpt>
      <trkpt lat="46.38824" lon="5.64993">
        <ele>375.8</ele>
        <time>2023-08-30T16:41:02Z</time>
      </trkpt>
      <trkpt lat="46.38823" lon="5.64995">
        <ele>375.8</ele>
        <time>2023-08-30T16:41:03Z</time>
      </trkpt>
      <trkpt lat="46.38823" lon="5.64996">
        <ele>374.8</ele>
        <time>2023-08-30T16:41:04Z</time>
      </trkpt>
      <trkpt lat="46.38822" lon="5.64998">
        <ele>374.2</ele>
        <time>2023-08-30T16:41:05Z</time>
      </trkpt>
      <trkpt lat="46.38822" lon="5.64998">
        <ele>436.8</ele>
        <time>2023-08-30T17:21:56Z</time>
      </trkpt>
      <trkpt lat="46.38822" lon="5.64998">
        <ele>436.6</ele>
        <time>2023-08-30T17:22:00Z</time>
      </trkpt>
      <trkpt lat="46.38822" lon="5.64998">
        <ele>435.4</ele>
        <time>2023-08-30T17:22:01Z</time>
      </trkpt>
      <trkpt lat="46.38822" lon="5.64998">
        <ele>434.6</ele>
        <time>2023-08-30T17:22:04Z</time>
      </trkpt>
      <trkpt lat="46.38822" lon="5.64998">
        <ele>434.4</ele>
        <time>2023-08-30T17:22:05Z</time>
      </trkpt>
    </trkseg>
  </trk>
</gpx>